<?xml version="1.0" encoding="UTF-8" standalone="no" ?>
<gpx xmlns="http://www.topografix.com/GPX/1/1" xmlns:xsi="http://www.w3.org/2001/XMLSchema-instance" xsi:schemaLocation="http://www.topografix.com/GPX/1/1 http://www.topografix.com/GPX/1/1/gpx.xsd" version="1.1" creator="VisuGPX - https://www.visugpx.com">
  <metadata>
    <name>Champagnat Cyclisme sur route</name>
  </metadata>
  <trk>
    <name><![CDATA[Champagnat Cyclisme sur route_1]]></name>
    <trkseg>
      <trkpt lat="46.48274" lon="5.36836">
        <ele>262.6</ele>
        <time>2022-07-23T10:24:30Z</time>
      </trkpt>
      <trkpt lat="46.48255" lon="5.36814">
        <ele>260.6</ele>
        <time>2022-07-23T10:24:32Z</time>
      </trkpt>
      <trkpt lat="46.48244" lon="5.36806">
        <ele>259.8</ele>
        <time>2022-07-23T10:24:33Z</time>
      </trkpt>
      <trkpt lat="46.48233" lon="5.36797">
        <ele>258.8</ele>
        <time>2022-07-23T10:24:34Z</time>
      </trkpt>
      <trkpt lat="46.48212" lon="5.3678">
        <ele>257.4</ele>
        <time>2022-07-23T10:24:36Z</time>
      </trkpt>
      <trkpt lat="46.4818" lon="5.36754">
        <ele>255.6</ele>
        <time>2022-07-23T10:24:39Z</time>
      </trkpt>
      <trkpt lat="46.48169" lon="5.36745">
        <ele>255.4</ele>
        <time>2022-07-23T10:24:40Z</time>
      </trkpt>
      <trkpt lat="46.48139" lon="5.36723">
        <ele>253.4</ele>
        <time>2022-07-23T10:24:43Z</time>
      </trkpt>
      <trkpt lat="46.4813" lon="5.36717">
        <ele>252.4</ele>
        <time>2022-07-23T10:24:44Z</time>
      </trkpt>
      <trkpt lat="46.48115" lon="5.36704">
        <ele>251.6</ele>
        <time>2022-07-23T10:24:46Z</time>
      </trkpt>
      <trkpt lat="46.4811" lon="5.36696">
        <ele>251.4</ele>
        <time>2022-07-23T10:24:47Z</time>
      </trkpt>
      <trkpt lat="46.48108" lon="5.36686">
        <ele>250.6</ele>
        <time>2022-07-23T10:24:48Z</time>
      </trkpt>
      <trkpt lat="46.4811" lon="5.36676">
        <ele>250.4</ele>
        <time>2022-07-23T10:24:49Z</time>
      </trkpt>
      <trkpt lat="46.48122" lon="5.36661">
        <ele>249.6</ele>
        <time>2022-07-23T10:24:51Z</time>
      </trkpt>
      <trkpt lat="46.48129" lon="5.36655">
        <ele>249.6</ele>
        <time>2022-07-23T10:24:52Z</time>
      </trkpt>
      <trkpt lat="46.48136" lon="5.36649">
        <ele>249.2</ele>
        <time>2022-07-23T10:24:53Z</time>
      </trkpt>
      <trkpt lat="46.48156" lon="5.36627">
        <ele>248.4</ele>
        <time>2022-07-23T10:24:56Z</time>
      </trkpt>
      <trkpt lat="46.48172" lon="5.36616">
        <ele>247.6</ele>
        <time>2022-07-23T10:24:58Z</time>
      </trkpt>
      <trkpt lat="46.48179" lon="5.36611">
        <ele>247.4</ele>
        <time>2022-07-23T10:24:59Z</time>
      </trkpt>
      <trkpt lat="46.48201" lon="5.36603">
        <ele>247</ele>
        <time>2022-07-23T10:25:02Z</time>
      </trkpt>
      <trkpt lat="46.48208" lon="5.36599">
        <ele>247</ele>
        <time>2022-07-23T10:25:03Z</time>
      </trkpt>
      <trkpt lat="46.48219" lon="5.36584">
        <ele>246.8</ele>
        <time>2022-07-23T10:25:05Z</time>
      </trkpt>
      <trkpt lat="46.48226" lon="5.36563">
        <ele>246.8</ele>
        <time>2022-07-23T10:25:07Z</time>
      </trkpt>
      <trkpt lat="46.48231" lon="5.36555">
        <ele>246.6</ele>
        <time>2022-07-23T10:25:08Z</time>
      </trkpt>
      <trkpt lat="46.48237" lon="5.36547">
        <ele>246.6</ele>
        <time>2022-07-23T10:25:09Z</time>
      </trkpt>
      <trkpt lat="46.48249" lon="5.36535">
        <ele>246.4</ele>
        <time>2022-07-23T10:25:11Z</time>
      </trkpt>
      <trkpt lat="46.48289" lon="5.36491">
        <ele>245.2</ele>
        <time>2022-07-23T10:25:17Z</time>
      </trkpt>
      <trkpt lat="46.48322" lon="5.36454">
        <ele>244.2</ele>
        <time>2022-07-23T10:25:22Z</time>
      </trkpt>
      <trkpt lat="46.48329" lon="5.36446">
        <ele>243.8</ele>
        <time>2022-07-23T10:25:23Z</time>
      </trkpt>
      <trkpt lat="46.48356" lon="5.36417">
        <ele>242.8</ele>
        <time>2022-07-23T10:25:27Z</time>
      </trkpt>
      <trkpt lat="46.4837" lon="5.36401">
        <ele>242.4</ele>
        <time>2022-07-23T10:25:29Z</time>
      </trkpt>
      <trkpt lat="46.4839" lon="5.36379">
        <ele>241.6</ele>
        <time>2022-07-23T10:25:32Z</time>
      </trkpt>
      <trkpt lat="46.48404" lon="5.36366">
        <ele>241.2</ele>
        <time>2022-07-23T10:25:34Z</time>
      </trkpt>
      <trkpt lat="46.48419" lon="5.36357">
        <ele>241</ele>
        <time>2022-07-23T10:25:36Z</time>
      </trkpt>
      <trkpt lat="46.48435" lon="5.36351">
        <ele>241</ele>
        <time>2022-07-23T10:25:38Z</time>
      </trkpt>
      <trkpt lat="46.48451" lon="5.36348">
        <ele>241</ele>
        <time>2022-07-23T10:25:40Z</time>
      </trkpt>
      <trkpt lat="46.4849" lon="5.36342">
        <ele>240.6</ele>
        <time>2022-07-23T10:25:45Z</time>
      </trkpt>
      <trkpt lat="46.4852" lon="5.36336">
        <ele>240.2</ele>
        <time>2022-07-23T10:25:49Z</time>
      </trkpt>
      <trkpt lat="46.48581" lon="5.36326">
        <ele>239.6</ele>
        <time>2022-07-23T10:25:57Z</time>
      </trkpt>
      <trkpt lat="46.48606" lon="5.36323">
        <ele>239.2</ele>
        <time>2022-07-23T10:26:00Z</time>
      </trkpt>
      <trkpt lat="46.48613" lon="5.36319">
        <ele>239</ele>
        <time>2022-07-23T10:26:01Z</time>
      </trkpt>
      <trkpt lat="46.4862" lon="5.36311">
        <ele>239</ele>
        <time>2022-07-23T10:26:02Z</time>
      </trkpt>
      <trkpt lat="46.48627" lon="5.36301">
        <ele>238.4</ele>
        <time>2022-07-23T10:26:03Z</time>
      </trkpt>
      <trkpt lat="46.48631" lon="5.36289">
        <ele>238</ele>
        <time>2022-07-23T10:26:04Z</time>
      </trkpt>
      <trkpt lat="46.48634" lon="5.36276">
        <ele>237.2</ele>
        <time>2022-07-23T10:26:05Z</time>
      </trkpt>
      <trkpt lat="46.48638" lon="5.3625">
        <ele>235.8</ele>
        <time>2022-07-23T10:26:07Z</time>
      </trkpt>
      <trkpt lat="46.48642" lon="5.3621">
        <ele>234.4</ele>
        <time>2022-07-23T10:26:10Z</time>
      </trkpt>
      <trkpt lat="46.48645" lon="5.36171">
        <ele>233.2</ele>
        <time>2022-07-23T10:26:13Z</time>
      </trkpt>
      <trkpt lat="46.48647" lon="5.36159">
        <ele>232.8</ele>
        <time>2022-07-23T10:26:14Z</time>
      </trkpt>
      <trkpt lat="46.48657" lon="5.36097">
        <ele>232.4</ele>
        <time>2022-07-23T10:26:19Z</time>
      </trkpt>
      <trkpt lat="46.48669" lon="5.36045">
        <ele>232.6</ele>
        <time>2022-07-23T10:26:25Z</time>
      </trkpt>
      <trkpt lat="46.48678" lon="5.36007">
        <ele>233</ele>
        <time>2022-07-23T10:26:28Z</time>
      </trkpt>
      <trkpt lat="46.4868" lon="5.35999">
        <ele>233.6</ele>
        <time>2022-07-23T10:26:29Z</time>
      </trkpt>
      <trkpt lat="46.48682" lon="5.3599">
        <ele>233.8</ele>
        <time>2022-07-23T10:26:30Z</time>
      </trkpt>
      <trkpt lat="46.48687" lon="5.35961">
        <ele>234.6</ele>
        <time>2022-07-23T10:26:33Z</time>
      </trkpt>
      <trkpt lat="46.48696" lon="5.3591">
        <ele>234.8</ele>
        <time>2022-07-23T10:26:38Z</time>
      </trkpt>
      <trkpt lat="46.48699" lon="5.359">
        <ele>234.8</ele>
        <time>2022-07-23T10:26:39Z</time>
      </trkpt>
      <trkpt lat="46.48721" lon="5.35841">
        <ele>234.4</ele>
        <time>2022-07-23T10:26:45Z</time>
      </trkpt>
      <trkpt lat="46.48742" lon="5.3579">
        <ele>233.2</ele>
        <time>2022-07-23T10:26:50Z</time>
      </trkpt>
      <trkpt lat="46.48746" lon="5.3578">
        <ele>233</ele>
        <time>2022-07-23T10:26:51Z</time>
      </trkpt>
      <trkpt lat="46.48762" lon="5.35741">
        <ele>232.2</ele>
        <time>2022-07-23T10:26:55Z</time>
      </trkpt>
      <trkpt lat="46.48774" lon="5.35712">
        <ele>231.8</ele>
        <time>2022-07-23T10:26:58Z</time>
      </trkpt>
      <trkpt lat="46.48787" lon="5.35685">
        <ele>231.4</ele>
        <time>2022-07-23T10:27:01Z</time>
      </trkpt>
      <trkpt lat="46.48811" lon="5.35637">
        <ele>231.4</ele>
        <time>2022-07-23T10:27:07Z</time>
      </trkpt>
      <trkpt lat="46.48838" lon="5.35578">
        <ele>232</ele>
        <time>2022-07-23T10:27:14Z</time>
      </trkpt>
      <trkpt lat="46.48854" lon="5.35537">
        <ele>232.2</ele>
        <time>2022-07-23T10:27:19Z</time>
      </trkpt>
      <trkpt lat="46.48858" lon="5.3553">
        <ele>232.2</ele>
        <time>2022-07-23T10:27:20Z</time>
      </trkpt>
      <trkpt lat="46.48873" lon="5.35497">
        <ele>232.2</ele>
        <time>2022-07-23T10:27:24Z</time>
      </trkpt>
      <trkpt lat="46.48878" lon="5.35483">
        <ele>232</ele>
        <time>2022-07-23T10:27:26Z</time>
      </trkpt>
      <trkpt lat="46.48894" lon="5.35446">
        <ele>231.8</ele>
        <time>2022-07-23T10:27:30Z</time>
      </trkpt>
      <trkpt lat="46.48901" lon="5.35429">
        <ele>231.4</ele>
        <time>2022-07-23T10:27:32Z</time>
      </trkpt>
      <trkpt lat="46.48933" lon="5.35357">
        <ele>231</ele>
        <time>2022-07-23T10:27:40Z</time>
      </trkpt>
      <trkpt lat="46.48941" lon="5.35339">
        <ele>231</ele>
        <time>2022-07-23T10:27:42Z</time>
      </trkpt>
      <trkpt lat="46.48956" lon="5.35305">
        <ele>231</ele>
        <time>2022-07-23T10:27:46Z</time>
      </trkpt>
      <trkpt lat="46.48974" lon="5.35263">
        <ele>231</ele>
        <time>2022-07-23T10:27:51Z</time>
      </trkpt>
      <trkpt lat="46.49" lon="5.35204">
        <ele>231</ele>
        <time>2022-07-23T10:27:59Z</time>
      </trkpt>
      <trkpt lat="46.4901" lon="5.35181">
        <ele>231.4</ele>
        <time>2022-07-23T10:28:02Z</time>
      </trkpt>
      <trkpt lat="46.49013" lon="5.35174">
        <ele>231.4</ele>
        <time>2022-07-23T10:28:03Z</time>
      </trkpt>
      <trkpt lat="46.49019" lon="5.35163">
        <ele>231.6</ele>
        <time>2022-07-23T10:28:05Z</time>
      </trkpt>
      <trkpt lat="46.49023" lon="5.35155">
        <ele>231.6</ele>
        <time>2022-07-23T10:28:06Z</time>
      </trkpt>
      <trkpt lat="46.4903" lon="5.35135">
        <ele>232</ele>
        <time>2022-07-23T10:28:09Z</time>
      </trkpt>
      <trkpt lat="46.4904" lon="5.35101">
        <ele>232.2</ele>
        <time>2022-07-23T10:28:13Z</time>
      </trkpt>
      <trkpt lat="46.49054" lon="5.3504">
        <ele>232</ele>
        <time>2022-07-23T10:28:20Z</time>
      </trkpt>
      <trkpt lat="46.49069" lon="5.34968">
        <ele>231.6</ele>
        <time>2022-07-23T10:28:27Z</time>
      </trkpt>
      <trkpt lat="46.49073" lon="5.34947">
        <ele>231</ele>
        <time>2022-07-23T10:28:29Z</time>
      </trkpt>
      <trkpt lat="46.49076" lon="5.34925">
        <ele>230.8</ele>
        <time>2022-07-23T10:28:31Z</time>
      </trkpt>
      <trkpt lat="46.49079" lon="5.34903">
        <ele>230.4</ele>
        <time>2022-07-23T10:28:33Z</time>
      </trkpt>
      <trkpt lat="46.49082" lon="5.34883">
        <ele>230</ele>
        <time>2022-07-23T10:28:35Z</time>
      </trkpt>
      <trkpt lat="46.49084" lon="5.34873">
        <ele>229.8</ele>
        <time>2022-07-23T10:28:36Z</time>
      </trkpt>
      <trkpt lat="46.4909" lon="5.3485">
        <ele>229.4</ele>
        <time>2022-07-23T10:28:38Z</time>
      </trkpt>
      <trkpt lat="46.49094" lon="5.3483">
        <ele>229</ele>
        <time>2022-07-23T10:28:40Z</time>
      </trkpt>
      <trkpt lat="46.49107" lon="5.34762">
        <ele>227.8</ele>
        <time>2022-07-23T10:28:46Z</time>
      </trkpt>
      <trkpt lat="46.4912" lon="5.34696">
        <ele>226.8</ele>
        <time>2022-07-23T10:28:52Z</time>
      </trkpt>
      <trkpt lat="46.49125" lon="5.34672">
        <ele>226.4</ele>
        <time>2022-07-23T10:28:54Z</time>
      </trkpt>
      <trkpt lat="46.49135" lon="5.34624">
        <ele>226.2</ele>
        <time>2022-07-23T10:28:59Z</time>
      </trkpt>
      <trkpt lat="46.4914" lon="5.34586">
        <ele>226.6</ele>
        <time>2022-07-23T10:29:03Z</time>
      </trkpt>
      <trkpt lat="46.49149" lon="5.34541">
        <ele>226.8</ele>
        <time>2022-07-23T10:29:08Z</time>
      </trkpt>
      <trkpt lat="46.49163" lon="5.34474">
        <ele>226.4</ele>
        <time>2022-07-23T10:29:14Z</time>
      </trkpt>
      <trkpt lat="46.49179" lon="5.34402">
        <ele>226</ele>
        <time>2022-07-23T10:29:21Z</time>
      </trkpt>
      <trkpt lat="46.49186" lon="5.34377">
        <ele>226</ele>
        <time>2022-07-23T10:29:24Z</time>
      </trkpt>
      <trkpt lat="46.4919" lon="5.34358">
        <ele>226.2</ele>
        <time>2022-07-23T10:29:26Z</time>
      </trkpt>
      <trkpt lat="46.49193" lon="5.34343">
        <ele>226.2</ele>
        <time>2022-07-23T10:29:28Z</time>
      </trkpt>
      <trkpt lat="46.49196" lon="5.34323">
        <ele>226.4</ele>
        <time>2022-07-23T10:29:30Z</time>
      </trkpt>
      <trkpt lat="46.49196" lon="5.34313">
        <ele>226.6</ele>
        <time>2022-07-23T10:29:31Z</time>
      </trkpt>
      <trkpt lat="46.49198" lon="5.34291">
        <ele>227</ele>
        <time>2022-07-23T10:29:33Z</time>
      </trkpt>
      <trkpt lat="46.49202" lon="5.3427">
        <ele>227</ele>
        <time>2022-07-23T10:29:35Z</time>
      </trkpt>
      <trkpt lat="46.49215" lon="5.34203">
        <ele>226.6</ele>
        <time>2022-07-23T10:29:41Z</time>
      </trkpt>
      <trkpt lat="46.49228" lon="5.34129">
        <ele>225.8</ele>
        <time>2022-07-23T10:29:48Z</time>
      </trkpt>
      <trkpt lat="46.4923" lon="5.34119">
        <ele>225.8</ele>
        <time>2022-07-23T10:29:49Z</time>
      </trkpt>
      <trkpt lat="46.49232" lon="5.3411">
        <ele>225.8</ele>
        <time>2022-07-23T10:29:50Z</time>
      </trkpt>
      <trkpt lat="46.4924" lon="5.34086">
        <ele>226.2</ele>
        <time>2022-07-23T10:29:53Z</time>
      </trkpt>
      <trkpt lat="46.49242" lon="5.34078">
        <ele>226.6</ele>
        <time>2022-07-23T10:29:54Z</time>
      </trkpt>
      <trkpt lat="46.49249" lon="5.34045">
        <ele>227.8</ele>
        <time>2022-07-23T10:29:58Z</time>
      </trkpt>
      <trkpt lat="46.49251" lon="5.34026">
        <ele>228.4</ele>
        <time>2022-07-23T10:30:00Z</time>
      </trkpt>
      <trkpt lat="46.49255" lon="5.33997">
        <ele>228.6</ele>
        <time>2022-07-23T10:30:03Z</time>
      </trkpt>
      <trkpt lat="46.4926" lon="5.33967">
        <ele>228.8</ele>
        <time>2022-07-23T10:30:06Z</time>
      </trkpt>
      <trkpt lat="46.49262" lon="5.33957">
        <ele>228.8</ele>
        <time>2022-07-23T10:30:07Z</time>
      </trkpt>
      <trkpt lat="46.49269" lon="5.33928">
        <ele>229</ele>
        <time>2022-07-23T10:30:10Z</time>
      </trkpt>
      <trkpt lat="46.49272" lon="5.33908">
        <ele>229</ele>
        <time>2022-07-23T10:30:12Z</time>
      </trkpt>
      <trkpt lat="46.49278" lon="5.33879">
        <ele>228.8</ele>
        <time>2022-07-23T10:30:15Z</time>
      </trkpt>
      <trkpt lat="46.49282" lon="5.3385">
        <ele>228.8</ele>
        <time>2022-07-23T10:30:18Z</time>
      </trkpt>
      <trkpt lat="46.49289" lon="5.33823">
        <ele>229</ele>
        <time>2022-07-23T10:30:21Z</time>
      </trkpt>
      <trkpt lat="46.49301" lon="5.33758">
        <ele>229</ele>
        <time>2022-07-23T10:30:28Z</time>
      </trkpt>
      <trkpt lat="46.49307" lon="5.33708">
        <ele>228.4</ele>
        <time>2022-07-23T10:30:33Z</time>
      </trkpt>
      <trkpt lat="46.49308" lon="5.33677">
        <ele>227.8</ele>
        <time>2022-07-23T10:30:36Z</time>
      </trkpt>
      <trkpt lat="46.4931" lon="5.33635">
        <ele>226.6</ele>
        <time>2022-07-23T10:30:40Z</time>
      </trkpt>
      <trkpt lat="46.49319" lon="5.33576">
        <ele>226.2</ele>
        <time>2022-07-23T10:30:46Z</time>
      </trkpt>
      <trkpt lat="46.49322" lon="5.33557">
        <ele>226.2</ele>
        <time>2022-07-23T10:30:48Z</time>
      </trkpt>
      <trkpt lat="46.49322" lon="5.33527">
        <ele>226.4</ele>
        <time>2022-07-23T10:30:51Z</time>
      </trkpt>
      <trkpt lat="46.49315" lon="5.33471">
        <ele>226.8</ele>
        <time>2022-07-23T10:30:57Z</time>
      </trkpt>
      <trkpt lat="46.493" lon="5.33387">
        <ele>227</ele>
        <time>2022-07-23T10:31:05Z</time>
      </trkpt>
      <trkpt lat="46.49285" lon="5.33312">
        <ele>226.4</ele>
        <time>2022-07-23T10:31:12Z</time>
      </trkpt>
      <trkpt lat="46.49279" lon="5.33279">
        <ele>226</ele>
        <time>2022-07-23T10:31:15Z</time>
      </trkpt>
      <trkpt lat="46.49273" lon="5.33248">
        <ele>225.4</ele>
        <time>2022-07-23T10:31:18Z</time>
      </trkpt>
      <trkpt lat="46.49269" lon="5.33227">
        <ele>225</ele>
        <time>2022-07-23T10:31:20Z</time>
      </trkpt>
      <trkpt lat="46.49269" lon="5.33216">
        <ele>224.8</ele>
        <time>2022-07-23T10:31:21Z</time>
      </trkpt>
      <trkpt lat="46.49271" lon="5.33205">
        <ele>224.6</ele>
        <time>2022-07-23T10:31:22Z</time>
      </trkpt>
      <trkpt lat="46.49275" lon="5.33196">
        <ele>224.4</ele>
        <time>2022-07-23T10:31:23Z</time>
      </trkpt>
      <trkpt lat="46.4928" lon="5.3319">
        <ele>224.2</ele>
        <time>2022-07-23T10:31:24Z</time>
      </trkpt>
      <trkpt lat="46.49297" lon="5.33171">
        <ele>223.6</ele>
        <time>2022-07-23T10:31:27Z</time>
      </trkpt>
      <trkpt lat="46.49337" lon="5.33126">
        <ele>223.4</ele>
        <time>2022-07-23T10:31:34Z</time>
      </trkpt>
      <trkpt lat="46.49355" lon="5.33106">
        <ele>223.2</ele>
        <time>2022-07-23T10:31:37Z</time>
      </trkpt>
      <trkpt lat="46.4939" lon="5.33068">
        <ele>223</ele>
        <time>2022-07-23T10:31:43Z</time>
      </trkpt>
      <trkpt lat="46.4942" lon="5.33019">
        <ele>222.2</ele>
        <time>2022-07-23T10:31:49Z</time>
      </trkpt>
      <trkpt lat="46.49443" lon="5.32964">
        <ele>221.8</ele>
        <time>2022-07-23T10:31:55Z</time>
      </trkpt>
      <trkpt lat="46.49463" lon="5.32908">
        <ele>221.2</ele>
        <time>2022-07-23T10:32:01Z</time>
      </trkpt>
      <trkpt lat="46.49466" lon="5.32898">
        <ele>221</ele>
        <time>2022-07-23T10:32:02Z</time>
      </trkpt>
      <trkpt lat="46.49492" lon="5.32826">
        <ele>220</ele>
        <time>2022-07-23T10:32:09Z</time>
      </trkpt>
      <trkpt lat="46.49496" lon="5.32816">
        <ele>220</ele>
        <time>2022-07-23T10:32:10Z</time>
      </trkpt>
      <trkpt lat="46.49504" lon="5.32796">
        <ele>219</ele>
        <time>2022-07-23T10:32:12Z</time>
      </trkpt>
      <trkpt lat="46.49525" lon="5.32756">
        <ele>217.6</ele>
        <time>2022-07-23T10:32:16Z</time>
      </trkpt>
      <trkpt lat="46.49549" lon="5.32716">
        <ele>216.6</ele>
        <time>2022-07-23T10:32:20Z</time>
      </trkpt>
      <trkpt lat="46.49561" lon="5.32695">
        <ele>215.8</ele>
        <time>2022-07-23T10:32:22Z</time>
      </trkpt>
      <trkpt lat="46.49567" lon="5.32684">
        <ele>215.4</ele>
        <time>2022-07-23T10:32:23Z</time>
      </trkpt>
      <trkpt lat="46.49589" lon="5.32646">
        <ele>213.4</ele>
        <time>2022-07-23T10:32:27Z</time>
      </trkpt>
      <trkpt lat="46.4961" lon="5.3261">
        <ele>212.2</ele>
        <time>2022-07-23T10:32:30Z</time>
      </trkpt>
      <trkpt lat="46.49637" lon="5.32575">
        <ele>211.2</ele>
        <time>2022-07-23T10:32:34Z</time>
      </trkpt>
      <trkpt lat="46.49681" lon="5.32534">
        <ele>210</ele>
        <time>2022-07-23T10:32:40Z</time>
      </trkpt>
      <trkpt lat="46.49689" lon="5.32527">
        <ele>209.6</ele>
        <time>2022-07-23T10:32:41Z</time>
      </trkpt>
      <trkpt lat="46.49722" lon="5.32508">
        <ele>209</ele>
        <time>2022-07-23T10:32:45Z</time>
      </trkpt>
      <trkpt lat="46.49731" lon="5.32506">
        <ele>208.8</ele>
        <time>2022-07-23T10:32:46Z</time>
      </trkpt>
      <trkpt lat="46.49766" lon="5.32494">
        <ele>207.8</ele>
        <time>2022-07-23T10:32:50Z</time>
      </trkpt>
      <trkpt lat="46.49794" lon="5.32485">
        <ele>206.4</ele>
        <time>2022-07-23T10:32:53Z</time>
      </trkpt>
      <trkpt lat="46.49823" lon="5.32476">
        <ele>205.4</ele>
        <time>2022-07-23T10:32:56Z</time>
      </trkpt>
      <trkpt lat="46.49841" lon="5.32471">
        <ele>204.2</ele>
        <time>2022-07-23T10:32:58Z</time>
      </trkpt>
      <trkpt lat="46.49859" lon="5.32465">
        <ele>203.2</ele>
        <time>2022-07-23T10:33:00Z</time>
      </trkpt>
      <trkpt lat="46.49884" lon="5.32457">
        <ele>202.6</ele>
        <time>2022-07-23T10:33:03Z</time>
      </trkpt>
      <trkpt lat="46.499" lon="5.32457">
        <ele>202.4</ele>
        <time>2022-07-23T10:33:05Z</time>
      </trkpt>
      <trkpt lat="46.49915" lon="5.32457">
        <ele>202.4</ele>
        <time>2022-07-23T10:33:07Z</time>
      </trkpt>
      <trkpt lat="46.49939" lon="5.32454">
        <ele>204.4</ele>
        <time>2022-07-23T10:33:11Z</time>
      </trkpt>
      <trkpt lat="46.49944" lon="5.32453">
        <ele>204.8</ele>
        <time>2022-07-23T10:33:12Z</time>
      </trkpt>
      <trkpt lat="46.49958" lon="5.32452">
        <ele>205.4</ele>
        <time>2022-07-23T10:33:15Z</time>
      </trkpt>
      <trkpt lat="46.49965" lon="5.32452">
        <ele>206.6</ele>
        <time>2022-07-23T10:33:17Z</time>
      </trkpt>
      <trkpt lat="46.49972" lon="5.32451">
        <ele>207.8</ele>
        <time>2022-07-23T10:33:19Z</time>
      </trkpt>
      <trkpt lat="46.49983" lon="5.32451">
        <ele>209</ele>
        <time>2022-07-23T10:33:22Z</time>
      </trkpt>
      <trkpt lat="46.49989" lon="5.32451">
        <ele>210</ele>
        <time>2022-07-23T10:33:25Z</time>
      </trkpt>
      <trkpt lat="46.49995" lon="5.3245">
        <ele>210.6</ele>
        <time>2022-07-23T10:33:26Z</time>
      </trkpt>
      <trkpt lat="46.50009" lon="5.3245">
        <ele>212</ele>
        <time>2022-07-23T10:33:30Z</time>
      </trkpt>
      <trkpt lat="46.5002" lon="5.3245">
        <ele>213</ele>
        <time>2022-07-23T10:33:33Z</time>
      </trkpt>
      <trkpt lat="46.50023" lon="5.32451">
        <ele>213.2</ele>
        <time>2022-07-23T10:33:34Z</time>
      </trkpt>
      <trkpt lat="46.50033" lon="5.32451">
        <ele>214.2</ele>
        <time>2022-07-23T10:33:37Z</time>
      </trkpt>
      <trkpt lat="46.50049" lon="5.32453">
        <ele>215</ele>
        <time>2022-07-23T10:33:42Z</time>
      </trkpt>
      <trkpt lat="46.50052" lon="5.32453">
        <ele>215.2</ele>
        <time>2022-07-23T10:33:43Z</time>
      </trkpt>
      <trkpt lat="46.50065" lon="5.32455">
        <ele>216.4</ele>
        <time>2022-07-23T10:33:47Z</time>
      </trkpt>
      <trkpt lat="46.50076" lon="5.32456">
        <ele>217</ele>
        <time>2022-07-23T10:33:50Z</time>
      </trkpt>
      <trkpt lat="46.50086" lon="5.32455">
        <ele>217.6</ele>
        <time>2022-07-23T10:33:53Z</time>
      </trkpt>
      <trkpt lat="46.50101" lon="5.32455">
        <ele>218.2</ele>
        <time>2022-07-23T10:33:57Z</time>
      </trkpt>
      <trkpt lat="46.50128" lon="5.32455">
        <ele>218</ele>
        <time>2022-07-23T10:34:02Z</time>
      </trkpt>
      <trkpt lat="46.50158" lon="5.32452">
        <ele>216.8</ele>
        <time>2022-07-23T10:34:06Z</time>
      </trkpt>
      <trkpt lat="46.50164" lon="5.3245">
        <ele>216.2</ele>
        <time>2022-07-23T10:34:07Z</time>
      </trkpt>
      <trkpt lat="46.50183" lon="5.32444">
        <ele>215</ele>
        <time>2022-07-23T10:34:09Z</time>
      </trkpt>
      <trkpt lat="46.50191" lon="5.32442">
        <ele>213.8</ele>
        <time>2022-07-23T10:34:10Z</time>
      </trkpt>
      <trkpt lat="46.50207" lon="5.32438">
        <ele>212.8</ele>
        <time>2022-07-23T10:34:12Z</time>
      </trkpt>
      <trkpt lat="46.50244" lon="5.3243">
        <ele>211.6</ele>
        <time>2022-07-23T10:34:17Z</time>
      </trkpt>
      <trkpt lat="46.50251" lon="5.32429">
        <ele>211.6</ele>
        <time>2022-07-23T10:34:18Z</time>
      </trkpt>
      <trkpt lat="46.50288" lon="5.32419">
        <ele>211.4</ele>
        <time>2022-07-23T10:34:23Z</time>
      </trkpt>
      <trkpt lat="46.50295" lon="5.32414">
        <ele>211.4</ele>
        <time>2022-07-23T10:34:24Z</time>
      </trkpt>
      <trkpt lat="46.50302" lon="5.32409">
        <ele>211.2</ele>
        <time>2022-07-23T10:34:25Z</time>
      </trkpt>
      <trkpt lat="46.50318" lon="5.32387">
        <ele>210.2</ele>
        <time>2022-07-23T10:34:28Z</time>
      </trkpt>
      <trkpt lat="46.50332" lon="5.3236">
        <ele>209</ele>
        <time>2022-07-23T10:34:30Z</time>
      </trkpt>
      <trkpt lat="46.50343" lon="5.32337">
        <ele>207.8</ele>
        <time>2022-07-23T10:34:32Z</time>
      </trkpt>
      <trkpt lat="46.50354" lon="5.32313">
        <ele>206.6</ele>
        <time>2022-07-23T10:34:34Z</time>
      </trkpt>
      <trkpt lat="46.50364" lon="5.3229">
        <ele>205.6</ele>
        <time>2022-07-23T10:34:36Z</time>
      </trkpt>
      <trkpt lat="46.5038" lon="5.32257">
        <ele>204.6</ele>
        <time>2022-07-23T10:34:39Z</time>
      </trkpt>
      <trkpt lat="46.50385" lon="5.32248">
        <ele>204.4</ele>
        <time>2022-07-23T10:34:40Z</time>
      </trkpt>
      <trkpt lat="46.50391" lon="5.32239">
        <ele>204.6</ele>
        <time>2022-07-23T10:34:41Z</time>
      </trkpt>
      <trkpt lat="46.50404" lon="5.32225">
        <ele>204.2</ele>
        <time>2022-07-23T10:34:43Z</time>
      </trkpt>
      <trkpt lat="46.50422" lon="5.32212">
        <ele>204</ele>
        <time>2022-07-23T10:34:46Z</time>
      </trkpt>
      <trkpt lat="46.50426" lon="5.32206">
        <ele>204</ele>
        <time>2022-07-23T10:34:47Z</time>
      </trkpt>
      <trkpt lat="46.5043" lon="5.32199">
        <ele>204.2</ele>
        <time>2022-07-23T10:34:48Z</time>
      </trkpt>
      <trkpt lat="46.50434" lon="5.32181">
        <ele>204.2</ele>
        <time>2022-07-23T10:34:50Z</time>
      </trkpt>
      <trkpt lat="46.50436" lon="5.32107">
        <ele>204</ele>
        <time>2022-07-23T10:34:57Z</time>
      </trkpt>
      <trkpt lat="46.50437" lon="5.32085">
        <ele>203.6</ele>
        <time>2022-07-23T10:34:59Z</time>
      </trkpt>
      <trkpt lat="46.50438" lon="5.3204">
        <ele>202.6</ele>
        <time>2022-07-23T10:35:03Z</time>
      </trkpt>
      <trkpt lat="46.50438" lon="5.32029">
        <ele>202.4</ele>
        <time>2022-07-23T10:35:04Z</time>
      </trkpt>
      <trkpt lat="46.5044" lon="5.31941">
        <ele>201.4</ele>
        <time>2022-07-23T10:35:12Z</time>
      </trkpt>
      <trkpt lat="46.5044" lon="5.31931">
        <ele>201.4</ele>
        <time>2022-07-23T10:35:13Z</time>
      </trkpt>
      <trkpt lat="46.50439" lon="5.31868">
        <ele>201.2</ele>
        <time>2022-07-23T10:35:19Z</time>
      </trkpt>
      <trkpt lat="46.5043" lon="5.31818">
        <ele>200.8</ele>
        <time>2022-07-23T10:35:25Z</time>
      </trkpt>
      <trkpt lat="46.50408" lon="5.31742">
        <ele>201</ele>
        <time>2022-07-23T10:35:32Z</time>
      </trkpt>
      <trkpt lat="46.50405" lon="5.31733">
        <ele>201</ele>
        <time>2022-07-23T10:35:33Z</time>
      </trkpt>
      <trkpt lat="46.50372" lon="5.31674">
        <ele>200.8</ele>
        <time>2022-07-23T10:35:40Z</time>
      </trkpt>
      <trkpt lat="46.50347" lon="5.31648">
        <ele>200.6</ele>
        <time>2022-07-23T10:35:44Z</time>
      </trkpt>
      <trkpt lat="46.50327" lon="5.31631">
        <ele>200.2</ele>
        <time>2022-07-23T10:35:47Z</time>
      </trkpt>
      <trkpt lat="46.50279" lon="5.31595">
        <ele>200.2</ele>
        <time>2022-07-23T10:35:54Z</time>
      </trkpt>
      <trkpt lat="46.50238" lon="5.31551">
        <ele>200</ele>
        <time>2022-07-23T10:36:01Z</time>
      </trkpt>
      <trkpt lat="46.50218" lon="5.31513">
        <ele>200.4</ele>
        <time>2022-07-23T10:36:06Z</time>
      </trkpt>
      <trkpt lat="46.50202" lon="5.31469">
        <ele>201.2</ele>
        <time>2022-07-23T10:36:12Z</time>
      </trkpt>
      <trkpt lat="46.50199" lon="5.31462">
        <ele>201.4</ele>
        <time>2022-07-23T10:36:13Z</time>
      </trkpt>
      <trkpt lat="46.5019" lon="5.31436">
        <ele>202.6</ele>
        <time>2022-07-23T10:36:17Z</time>
      </trkpt>
      <trkpt lat="46.50182" lon="5.31411">
        <ele>203.2</ele>
        <time>2022-07-23T10:36:21Z</time>
      </trkpt>
      <trkpt lat="46.5018" lon="5.31405">
        <ele>203.6</ele>
        <time>2022-07-23T10:36:22Z</time>
      </trkpt>
      <trkpt lat="46.50178" lon="5.31392">
        <ele>204.2</ele>
        <time>2022-07-23T10:36:24Z</time>
      </trkpt>
      <trkpt lat="46.50175" lon="5.31381">
        <ele>204.8</ele>
        <time>2022-07-23T10:36:26Z</time>
      </trkpt>
      <trkpt lat="46.50174" lon="5.31375">
        <ele>205</ele>
        <time>2022-07-23T10:36:27Z</time>
      </trkpt>
      <trkpt lat="46.50172" lon="5.31369">
        <ele>205.2</ele>
        <time>2022-07-23T10:36:28Z</time>
      </trkpt>
      <trkpt lat="46.50169" lon="5.31357">
        <ele>206</ele>
        <time>2022-07-23T10:36:30Z</time>
      </trkpt>
      <trkpt lat="46.50165" lon="5.31345">
        <ele>206.2</ele>
        <time>2022-07-23T10:36:32Z</time>
      </trkpt>
      <trkpt lat="46.50161" lon="5.31332">
        <ele>206.4</ele>
        <time>2022-07-23T10:36:34Z</time>
      </trkpt>
      <trkpt lat="46.50151" lon="5.31304">
        <ele>207.2</ele>
        <time>2022-07-23T10:36:38Z</time>
      </trkpt>
      <trkpt lat="46.50134" lon="5.31258">
        <ele>208.2</ele>
        <time>2022-07-23T10:36:44Z</time>
      </trkpt>
      <trkpt lat="46.50131" lon="5.3125">
        <ele>208.2</ele>
        <time>2022-07-23T10:36:45Z</time>
      </trkpt>
      <trkpt lat="46.50118" lon="5.31215">
        <ele>208</ele>
        <time>2022-07-23T10:36:49Z</time>
      </trkpt>
      <trkpt lat="46.50108" lon="5.31187">
        <ele>207.4</ele>
        <time>2022-07-23T10:36:52Z</time>
      </trkpt>
      <trkpt lat="46.50101" lon="5.31168">
        <ele>207</ele>
        <time>2022-07-23T10:36:54Z</time>
      </trkpt>
      <trkpt lat="46.50084" lon="5.31118">
        <ele>206</ele>
        <time>2022-07-23T10:36:59Z</time>
      </trkpt>
      <trkpt lat="46.50078" lon="5.31099">
        <ele>205.8</ele>
        <time>2022-07-23T10:37:01Z</time>
      </trkpt>
      <trkpt lat="46.50063" lon="5.31057">
        <ele>205.8</ele>
        <time>2022-07-23T10:37:06Z</time>
      </trkpt>
      <trkpt lat="46.50049" lon="5.31015">
        <ele>206.8</ele>
        <time>2022-07-23T10:37:12Z</time>
      </trkpt>
      <trkpt lat="46.50048" lon="5.3101">
        <ele>207</ele>
        <time>2022-07-23T10:37:13Z</time>
      </trkpt>
      <trkpt lat="46.50046" lon="5.31004">
        <ele>207.2</ele>
        <time>2022-07-23T10:37:14Z</time>
      </trkpt>
      <trkpt lat="46.50038" lon="5.30981">
        <ele>208.6</ele>
        <time>2022-07-23T10:37:18Z</time>
      </trkpt>
      <trkpt lat="46.50032" lon="5.30964">
        <ele>209.2</ele>
        <time>2022-07-23T10:37:21Z</time>
      </trkpt>
      <trkpt lat="46.50028" lon="5.30953">
        <ele>209.6</ele>
        <time>2022-07-23T10:37:23Z</time>
      </trkpt>
      <trkpt lat="46.50021" lon="5.30931">
        <ele>210.6</ele>
        <time>2022-07-23T10:37:27Z</time>
      </trkpt>
      <trkpt lat="46.50019" lon="5.30926">
        <ele>211</ele>
        <time>2022-07-23T10:37:28Z</time>
      </trkpt>
      <trkpt lat="46.50011" lon="5.30906">
        <ele>211.8</ele>
        <time>2022-07-23T10:37:32Z</time>
      </trkpt>
      <trkpt lat="46.50002" lon="5.30881">
        <ele>212.6</ele>
        <time>2022-07-23T10:37:37Z</time>
      </trkpt>
      <trkpt lat="46.49998" lon="5.30871">
        <ele>213</ele>
        <time>2022-07-23T10:37:39Z</time>
      </trkpt>
      <trkpt lat="46.49992" lon="5.30855">
        <ele>214.4</ele>
        <time>2022-07-23T10:37:42Z</time>
      </trkpt>
      <trkpt lat="46.49988" lon="5.30845">
        <ele>214.6</ele>
        <time>2022-07-23T10:37:44Z</time>
      </trkpt>
      <trkpt lat="46.49976" lon="5.30808">
        <ele>215.4</ele>
        <time>2022-07-23T10:37:50Z</time>
      </trkpt>
      <trkpt lat="46.49973" lon="5.30795">
        <ele>215.8</ele>
        <time>2022-07-23T10:37:52Z</time>
      </trkpt>
      <trkpt lat="46.49966" lon="5.30765">
        <ele>216.4</ele>
        <time>2022-07-23T10:37:57Z</time>
      </trkpt>
      <trkpt lat="46.49962" lon="5.3075">
        <ele>216.6</ele>
        <time>2022-07-23T10:37:59Z</time>
      </trkpt>
      <trkpt lat="46.49961" lon="5.30743">
        <ele>216.6</ele>
        <time>2022-07-23T10:38:00Z</time>
      </trkpt>
      <trkpt lat="46.49949" lon="5.30677">
        <ele>216.8</ele>
        <time>2022-07-23T10:38:09Z</time>
      </trkpt>
      <trkpt lat="46.49939" lon="5.30619">
        <ele>216.4</ele>
        <time>2022-07-23T10:38:15Z</time>
      </trkpt>
      <trkpt lat="46.49934" lon="5.30574">
        <ele>215.4</ele>
        <time>2022-07-23T10:38:19Z</time>
      </trkpt>
      <trkpt lat="46.49938" lon="5.30528">
        <ele>214.2</ele>
        <time>2022-07-23T10:38:23Z</time>
      </trkpt>
      <trkpt lat="46.4994" lon="5.30516">
        <ele>213.8</ele>
        <time>2022-07-23T10:38:24Z</time>
      </trkpt>
      <trkpt lat="46.49948" lon="5.30494">
        <ele>213</ele>
        <time>2022-07-23T10:38:26Z</time>
      </trkpt>
      <trkpt lat="46.49952" lon="5.30483">
        <ele>212.8</ele>
        <time>2022-07-23T10:38:27Z</time>
      </trkpt>
      <trkpt lat="46.49957" lon="5.30473">
        <ele>212.2</ele>
        <time>2022-07-23T10:38:28Z</time>
      </trkpt>
      <trkpt lat="46.4997" lon="5.30455">
        <ele>211.8</ele>
        <time>2022-07-23T10:38:30Z</time>
      </trkpt>
      <trkpt lat="46.49984" lon="5.30439">
        <ele>211.4</ele>
        <time>2022-07-23T10:38:32Z</time>
      </trkpt>
      <trkpt lat="46.5" lon="5.30426">
        <ele>210.4</ele>
        <time>2022-07-23T10:38:34Z</time>
      </trkpt>
      <trkpt lat="46.50017" lon="5.30414">
        <ele>209.2</ele>
        <time>2022-07-23T10:38:36Z</time>
      </trkpt>
      <trkpt lat="46.50032" lon="5.30402">
        <ele>208.2</ele>
        <time>2022-07-23T10:38:38Z</time>
      </trkpt>
      <trkpt lat="46.50039" lon="5.30395">
        <ele>208.2</ele>
        <time>2022-07-23T10:38:39Z</time>
      </trkpt>
      <trkpt lat="46.50058" lon="5.30372">
        <ele>208</ele>
        <time>2022-07-23T10:38:42Z</time>
      </trkpt>
      <trkpt lat="46.50064" lon="5.30363">
        <ele>208</ele>
        <time>2022-07-23T10:38:43Z</time>
      </trkpt>
      <trkpt lat="46.50076" lon="5.30335">
        <ele>208</ele>
        <time>2022-07-23T10:38:46Z</time>
      </trkpt>
      <trkpt lat="46.50087" lon="5.3029">
        <ele>208.4</ele>
        <time>2022-07-23T10:38:51Z</time>
      </trkpt>
      <trkpt lat="46.5009" lon="5.30249">
        <ele>209.6</ele>
        <time>2022-07-23T10:38:56Z</time>
      </trkpt>
      <trkpt lat="46.50091" lon="5.30232">
        <ele>210</ele>
        <time>2022-07-23T10:38:58Z</time>
      </trkpt>
      <trkpt lat="46.50093" lon="5.30201">
        <ele>210.6</ele>
        <time>2022-07-23T10:39:01Z</time>
      </trkpt>
      <trkpt lat="46.50092" lon="5.30191">
        <ele>210.6</ele>
        <time>2022-07-23T10:39:02Z</time>
      </trkpt>
      <trkpt lat="46.50091" lon="5.3018">
        <ele>210.6</ele>
        <time>2022-07-23T10:39:03Z</time>
      </trkpt>
      <trkpt lat="46.50091" lon="5.3017">
        <ele>210.6</ele>
        <time>2022-07-23T10:39:04Z</time>
      </trkpt>
      <trkpt lat="46.50093" lon="5.30133">
        <ele>210.8</ele>
        <time>2022-07-23T10:39:08Z</time>
      </trkpt>
      <trkpt lat="46.50094" lon="5.30124">
        <ele>210.8</ele>
        <time>2022-07-23T10:39:09Z</time>
      </trkpt>
      <trkpt lat="46.50094" lon="5.30098">
        <ele>211</ele>
        <time>2022-07-23T10:39:12Z</time>
      </trkpt>
      <trkpt lat="46.50095" lon="5.30089">
        <ele>211.2</ele>
        <time>2022-07-23T10:39:13Z</time>
      </trkpt>
      <trkpt lat="46.50096" lon="5.30057">
        <ele>211.4</ele>
        <time>2022-07-23T10:39:17Z</time>
      </trkpt>
      <trkpt lat="46.50096" lon="5.30048">
        <ele>211.4</ele>
        <time>2022-07-23T10:39:18Z</time>
      </trkpt>
      <trkpt lat="46.50095" lon="5.30023">
        <ele>211.4</ele>
        <time>2022-07-23T10:39:21Z</time>
      </trkpt>
      <trkpt lat="46.50091" lon="5.29997">
        <ele>211.4</ele>
        <time>2022-07-23T10:39:24Z</time>
      </trkpt>
      <trkpt lat="46.50084" lon="5.29969">
        <ele>211.6</ele>
        <time>2022-07-23T10:39:27Z</time>
      </trkpt>
      <trkpt lat="46.50075" lon="5.29943">
        <ele>211.8</ele>
        <time>2022-07-23T10:39:30Z</time>
      </trkpt>
      <trkpt lat="46.50048" lon="5.29897">
        <ele>211.8</ele>
        <time>2022-07-23T10:39:36Z</time>
      </trkpt>
      <trkpt lat="46.50012" lon="5.2986">
        <ele>211.6</ele>
        <time>2022-07-23T10:39:42Z</time>
      </trkpt>
      <trkpt lat="46.49998" lon="5.29854">
        <ele>211.6</ele>
        <time>2022-07-23T10:39:44Z</time>
      </trkpt>
      <trkpt lat="46.49984" lon="5.29851">
        <ele>211.4</ele>
        <time>2022-07-23T10:39:46Z</time>
      </trkpt>
      <trkpt lat="46.49929" lon="5.2984">
        <ele>211</ele>
        <time>2022-07-23T10:39:54Z</time>
      </trkpt>
      <trkpt lat="46.49898" lon="5.29829">
        <ele>211.6</ele>
        <time>2022-07-23T10:39:59Z</time>
      </trkpt>
      <trkpt lat="46.49886" lon="5.29824">
        <ele>211.8</ele>
        <time>2022-07-23T10:40:01Z</time>
      </trkpt>
      <trkpt lat="46.49875" lon="5.29817">
        <ele>212</ele>
        <time>2022-07-23T10:40:03Z</time>
      </trkpt>
      <trkpt lat="46.4987" lon="5.29814">
        <ele>212.4</ele>
        <time>2022-07-23T10:40:04Z</time>
      </trkpt>
      <trkpt lat="46.49858" lon="5.2981">
        <ele>212.8</ele>
        <time>2022-07-23T10:40:06Z</time>
      </trkpt>
      <trkpt lat="46.49824" lon="5.29799">
        <ele>213.8</ele>
        <time>2022-07-23T10:40:12Z</time>
      </trkpt>
      <trkpt lat="46.49819" lon="5.29797">
        <ele>214</ele>
        <time>2022-07-23T10:40:13Z</time>
      </trkpt>
      <trkpt lat="46.49765" lon="5.29784">
        <ele>214.4</ele>
        <time>2022-07-23T10:40:22Z</time>
      </trkpt>
      <trkpt lat="46.49759" lon="5.29783">
        <ele>214.4</ele>
        <time>2022-07-23T10:40:23Z</time>
      </trkpt>
      <trkpt lat="46.49748" lon="5.29776">
        <ele>214.4</ele>
        <time>2022-07-23T10:40:25Z</time>
      </trkpt>
      <trkpt lat="46.49742" lon="5.29761">
        <ele>214.4</ele>
        <time>2022-07-23T10:40:27Z</time>
      </trkpt>
      <trkpt lat="46.49739" lon="5.29753">
        <ele>214.4</ele>
        <time>2022-07-23T10:40:28Z</time>
      </trkpt>
      <trkpt lat="46.49736" lon="5.29746">
        <ele>214.2</ele>
        <time>2022-07-23T10:40:29Z</time>
      </trkpt>
      <trkpt lat="46.49728" lon="5.2973">
        <ele>214</ele>
        <time>2022-07-23T10:40:31Z</time>
      </trkpt>
      <trkpt lat="46.49724" lon="5.29722">
        <ele>213.8</ele>
        <time>2022-07-23T10:40:32Z</time>
      </trkpt>
      <trkpt lat="46.49691" lon="5.29663">
        <ele>213.4</ele>
        <time>2022-07-23T10:40:40Z</time>
      </trkpt>
      <trkpt lat="46.49664" lon="5.29616">
        <ele>214</ele>
        <time>2022-07-23T10:40:47Z</time>
      </trkpt>
      <trkpt lat="46.4963" lon="5.29556">
        <ele>214.4</ele>
        <time>2022-07-23T10:40:56Z</time>
      </trkpt>
      <trkpt lat="46.49595" lon="5.29492">
        <ele>214.8</ele>
        <time>2022-07-23T10:41:05Z</time>
      </trkpt>
      <trkpt lat="46.4959" lon="5.29485">
        <ele>214.8</ele>
        <time>2022-07-23T10:41:06Z</time>
      </trkpt>
      <trkpt lat="46.49553" lon="5.2942">
        <ele>214.8</ele>
        <time>2022-07-23T10:41:15Z</time>
      </trkpt>
      <trkpt lat="46.49545" lon="5.29404">
        <ele>214.6</ele>
        <time>2022-07-23T10:41:17Z</time>
      </trkpt>
      <trkpt lat="46.49527" lon="5.29368">
        <ele>213.8</ele>
        <time>2022-07-23T10:41:21Z</time>
      </trkpt>
      <trkpt lat="46.4952" lon="5.29346">
        <ele>213.4</ele>
        <time>2022-07-23T10:41:23Z</time>
      </trkpt>
      <trkpt lat="46.49516" lon="5.29321">
        <ele>212.4</ele>
        <time>2022-07-23T10:41:25Z</time>
      </trkpt>
      <trkpt lat="46.49514" lon="5.29294">
        <ele>211.8</ele>
        <time>2022-07-23T10:41:27Z</time>
      </trkpt>
      <trkpt lat="46.49514" lon="5.29279">
        <ele>210.8</ele>
        <time>2022-07-23T10:41:28Z</time>
      </trkpt>
      <trkpt lat="46.49515" lon="5.29265">
        <ele>210.4</ele>
        <time>2022-07-23T10:41:29Z</time>
      </trkpt>
      <trkpt lat="46.49517" lon="5.29252">
        <ele>209.8</ele>
        <time>2022-07-23T10:41:30Z</time>
      </trkpt>
      <trkpt lat="46.49521" lon="5.29238">
        <ele>209.2</ele>
        <time>2022-07-23T10:41:31Z</time>
      </trkpt>
      <trkpt lat="46.49526" lon="5.29225">
        <ele>208.6</ele>
        <time>2022-07-23T10:41:32Z</time>
      </trkpt>
      <trkpt lat="46.49537" lon="5.29199">
        <ele>207.6</ele>
        <time>2022-07-23T10:41:34Z</time>
      </trkpt>
      <trkpt lat="46.49543" lon="5.29187">
        <ele>206.6</ele>
        <time>2022-07-23T10:41:35Z</time>
      </trkpt>
      <trkpt lat="46.49549" lon="5.29174">
        <ele>206.2</ele>
        <time>2022-07-23T10:41:36Z</time>
      </trkpt>
      <trkpt lat="46.49555" lon="5.29161">
        <ele>205</ele>
        <time>2022-07-23T10:41:37Z</time>
      </trkpt>
      <trkpt lat="46.49565" lon="5.29133">
        <ele>203.6</ele>
        <time>2022-07-23T10:41:39Z</time>
      </trkpt>
      <trkpt lat="46.49568" lon="5.29118">
        <ele>203.2</ele>
        <time>2022-07-23T10:41:40Z</time>
      </trkpt>
      <trkpt lat="46.49571" lon="5.29102">
        <ele>202.6</ele>
        <time>2022-07-23T10:41:41Z</time>
      </trkpt>
      <trkpt lat="46.49577" lon="5.29071">
        <ele>201.2</ele>
        <time>2022-07-23T10:41:43Z</time>
      </trkpt>
      <trkpt lat="46.49582" lon="5.2904">
        <ele>200.2</ele>
        <time>2022-07-23T10:41:45Z</time>
      </trkpt>
      <trkpt lat="46.49588" lon="5.29008">
        <ele>199</ele>
        <time>2022-07-23T10:41:47Z</time>
      </trkpt>
      <trkpt lat="46.49591" lon="5.28992">
        <ele>197.6</ele>
        <time>2022-07-23T10:41:48Z</time>
      </trkpt>
      <trkpt lat="46.49597" lon="5.28961">
        <ele>196.4</ele>
        <time>2022-07-23T10:41:50Z</time>
      </trkpt>
      <trkpt lat="46.49606" lon="5.28914">
        <ele>194.8</ele>
        <time>2022-07-23T10:41:53Z</time>
      </trkpt>
      <trkpt lat="46.49608" lon="5.28899">
        <ele>194</ele>
        <time>2022-07-23T10:41:55Z</time>
      </trkpt>
      <trkpt lat="46.49613" lon="5.28875">
        <ele>193.2</ele>
        <time>2022-07-23T10:41:56Z</time>
      </trkpt>
      <trkpt lat="46.49623" lon="5.28814">
        <ele>192</ele>
        <time>2022-07-23T10:42:00Z</time>
      </trkpt>
      <trkpt lat="46.49635" lon="5.28752">
        <ele>191.4</ele>
        <time>2022-07-23T10:42:05Z</time>
      </trkpt>
      <trkpt lat="46.49648" lon="5.28685">
        <ele>191</ele>
        <time>2022-07-23T10:42:11Z</time>
      </trkpt>
      <trkpt lat="46.49666" lon="5.28616">
        <ele>191.8</ele>
        <time>2022-07-23T10:42:18Z</time>
      </trkpt>
      <trkpt lat="46.49679" lon="5.28552">
        <ele>193</ele>
        <time>2022-07-23T10:42:25Z</time>
      </trkpt>
      <trkpt lat="46.49693" lon="5.28477">
        <ele>193.6</ele>
        <time>2022-07-23T10:42:33Z</time>
      </trkpt>
      <trkpt lat="46.49704" lon="5.28396">
        <ele>193</ele>
        <time>2022-07-23T10:42:41Z</time>
      </trkpt>
      <trkpt lat="46.49718" lon="5.2834">
        <ele>192.2</ele>
        <time>2022-07-23T10:42:47Z</time>
      </trkpt>
      <trkpt lat="46.49724" lon="5.28322">
        <ele>192</ele>
        <time>2022-07-23T10:42:49Z</time>
      </trkpt>
      <trkpt lat="46.49741" lon="5.28255">
        <ele>192.2</ele>
        <time>2022-07-23T10:42:57Z</time>
      </trkpt>
      <trkpt lat="46.49754" lon="5.28177">
        <ele>192.6</ele>
        <time>2022-07-23T10:43:05Z</time>
      </trkpt>
      <trkpt lat="46.49757" lon="5.28158">
        <ele>192.8</ele>
        <time>2022-07-23T10:43:07Z</time>
      </trkpt>
      <trkpt lat="46.49767" lon="5.28075">
        <ele>192.8</ele>
        <time>2022-07-23T10:43:16Z</time>
      </trkpt>
      <trkpt lat="46.49768" lon="5.28065">
        <ele>192.8</ele>
        <time>2022-07-23T10:43:17Z</time>
      </trkpt>
      <trkpt lat="46.49767" lon="5.27994">
        <ele>193.2</ele>
        <time>2022-07-23T10:43:25Z</time>
      </trkpt>
      <trkpt lat="46.49767" lon="5.27969">
        <ele>193.2</ele>
        <time>2022-07-23T10:43:28Z</time>
      </trkpt>
      <trkpt lat="46.49767" lon="5.27927">
        <ele>193.6</ele>
        <time>2022-07-23T10:43:33Z</time>
      </trkpt>
      <trkpt lat="46.49766" lon="5.27888">
        <ele>194.4</ele>
        <time>2022-07-23T10:43:38Z</time>
      </trkpt>
      <trkpt lat="46.49765" lon="5.27863">
        <ele>195.2</ele>
        <time>2022-07-23T10:43:41Z</time>
      </trkpt>
      <trkpt lat="46.49764" lon="5.27855">
        <ele>195.6</ele>
        <time>2022-07-23T10:43:42Z</time>
      </trkpt>
      <trkpt lat="46.49756" lon="5.278">
        <ele>196</ele>
        <time>2022-07-23T10:43:49Z</time>
      </trkpt>
      <trkpt lat="46.49745" lon="5.27734">
        <ele>196.6</ele>
        <time>2022-07-23T10:43:58Z</time>
      </trkpt>
      <trkpt lat="46.49738" lon="5.27701">
        <ele>196.6</ele>
        <time>2022-07-23T10:44:03Z</time>
      </trkpt>
      <trkpt lat="46.49733" lon="5.27667">
        <ele>197.8</ele>
        <time>2022-07-23T10:44:08Z</time>
      </trkpt>
      <trkpt lat="46.49728" lon="5.276">
        <ele>198.8</ele>
        <time>2022-07-23T10:44:18Z</time>
      </trkpt>
      <trkpt lat="46.49728" lon="5.27594">
        <ele>198.8</ele>
        <time>2022-07-23T10:44:19Z</time>
      </trkpt>
      <trkpt lat="46.49728" lon="5.27575">
        <ele>199.2</ele>
        <time>2022-07-23T10:44:22Z</time>
      </trkpt>
      <trkpt lat="46.49729" lon="5.27563">
        <ele>200</ele>
        <time>2022-07-23T10:44:25Z</time>
      </trkpt>
      <trkpt lat="46.49729" lon="5.27532">
        <ele>201</ele>
        <time>2022-07-23T10:44:29Z</time>
      </trkpt>
      <trkpt lat="46.49729" lon="5.2751">
        <ele>201.8</ele>
        <time>2022-07-23T10:44:33Z</time>
      </trkpt>
      <trkpt lat="46.49728" lon="5.27499">
        <ele>202.4</ele>
        <time>2022-07-23T10:44:35Z</time>
      </trkpt>
      <trkpt lat="46.49728" lon="5.27478">
        <ele>203.2</ele>
        <time>2022-07-23T10:44:39Z</time>
      </trkpt>
      <trkpt lat="46.49727" lon="5.27468">
        <ele>203.6</ele>
        <time>2022-07-23T10:44:41Z</time>
      </trkpt>
      <trkpt lat="46.49726" lon="5.27449">
        <ele>204.4</ele>
        <time>2022-07-23T10:44:45Z</time>
      </trkpt>
      <trkpt lat="46.49723" lon="5.27435">
        <ele>205.2</ele>
        <time>2022-07-23T10:44:48Z</time>
      </trkpt>
      <trkpt lat="46.49722" lon="5.2743">
        <ele>205.6</ele>
        <time>2022-07-23T10:44:49Z</time>
      </trkpt>
      <trkpt lat="46.49717" lon="5.27412">
        <ele>206.4</ele>
        <time>2022-07-23T10:44:53Z</time>
      </trkpt>
      <trkpt lat="46.49715" lon="5.27408">
        <ele>206.6</ele>
        <time>2022-07-23T10:44:54Z</time>
      </trkpt>
      <trkpt lat="46.49702" lon="5.27378">
        <ele>207.6</ele>
        <time>2022-07-23T10:45:01Z</time>
      </trkpt>
      <trkpt lat="46.49697" lon="5.27367">
        <ele>208.2</ele>
        <time>2022-07-23T10:45:04Z</time>
      </trkpt>
      <trkpt lat="46.49692" lon="5.27359">
        <ele>208.6</ele>
        <time>2022-07-23T10:45:06Z</time>
      </trkpt>
      <trkpt lat="46.49683" lon="5.2734">
        <ele>209.6</ele>
        <time>2022-07-23T10:45:11Z</time>
      </trkpt>
      <trkpt lat="46.49669" lon="5.27311">
        <ele>210.8</ele>
        <time>2022-07-23T10:45:18Z</time>
      </trkpt>
      <trkpt lat="46.4966" lon="5.27289">
        <ele>212</ele>
        <time>2022-07-23T10:45:23Z</time>
      </trkpt>
      <trkpt lat="46.49657" lon="5.2728">
        <ele>212.4</ele>
        <time>2022-07-23T10:45:25Z</time>
      </trkpt>
      <trkpt lat="46.4965" lon="5.27261">
        <ele>213</ele>
        <time>2022-07-23T10:45:29Z</time>
      </trkpt>
      <trkpt lat="46.49646" lon="5.27248">
        <ele>213.4</ele>
        <time>2022-07-23T10:45:32Z</time>
      </trkpt>
      <trkpt lat="46.49642" lon="5.27224">
        <ele>214.2</ele>
        <time>2022-07-23T10:45:37Z</time>
      </trkpt>
      <trkpt lat="46.49641" lon="5.27213">
        <ele>214.4</ele>
        <time>2022-07-23T10:45:39Z</time>
      </trkpt>
      <trkpt lat="46.4964" lon="5.27193">
        <ele>215</ele>
        <time>2022-07-23T10:45:43Z</time>
      </trkpt>
      <trkpt lat="46.4964" lon="5.27177">
        <ele>215.4</ele>
        <time>2022-07-23T10:45:46Z</time>
      </trkpt>
      <trkpt lat="46.49644" lon="5.27145">
        <ele>216</ele>
        <time>2022-07-23T10:45:52Z</time>
      </trkpt>
      <trkpt lat="46.49646" lon="5.27138">
        <ele>216</ele>
        <time>2022-07-23T10:45:53Z</time>
      </trkpt>
      <trkpt lat="46.49656" lon="5.27096">
        <ele>217</ele>
        <time>2022-07-23T10:46:00Z</time>
      </trkpt>
      <trkpt lat="46.49664" lon="5.2707">
        <ele>217.2</ele>
        <time>2022-07-23T10:46:04Z</time>
      </trkpt>
      <trkpt lat="46.49673" lon="5.27042">
        <ele>217.6</ele>
        <time>2022-07-23T10:46:08Z</time>
      </trkpt>
      <trkpt lat="46.49686" lon="5.27002">
        <ele>217.6</ele>
        <time>2022-07-23T10:46:13Z</time>
      </trkpt>
      <trkpt lat="46.49705" lon="5.26941">
        <ele>216.4</ele>
        <time>2022-07-23T10:46:19Z</time>
      </trkpt>
      <trkpt lat="46.49708" lon="5.26931">
        <ele>216.4</ele>
        <time>2022-07-23T10:46:20Z</time>
      </trkpt>
      <trkpt lat="46.49712" lon="5.2692">
        <ele>215.6</ele>
        <time>2022-07-23T10:46:21Z</time>
      </trkpt>
      <trkpt lat="46.49719" lon="5.26897">
        <ele>214.8</ele>
        <time>2022-07-23T10:46:23Z</time>
      </trkpt>
      <trkpt lat="46.49727" lon="5.26875">
        <ele>214.2</ele>
        <time>2022-07-23T10:46:25Z</time>
      </trkpt>
      <trkpt lat="46.49737" lon="5.26831">
        <ele>214</ele>
        <time>2022-07-23T10:46:29Z</time>
      </trkpt>
      <trkpt lat="46.49745" lon="5.26781">
        <ele>214.4</ele>
        <time>2022-07-23T10:46:34Z</time>
      </trkpt>
      <trkpt lat="46.49746" lon="5.26771">
        <ele>214.4</ele>
        <time>2022-07-23T10:46:35Z</time>
      </trkpt>
      <trkpt lat="46.49746" lon="5.2673">
        <ele>214.6</ele>
        <time>2022-07-23T10:46:39Z</time>
      </trkpt>
      <trkpt lat="46.49742" lon="5.2669">
        <ele>214.8</ele>
        <time>2022-07-23T10:46:43Z</time>
      </trkpt>
      <trkpt lat="46.4974" lon="5.2668">
        <ele>214.8</ele>
        <time>2022-07-23T10:46:44Z</time>
      </trkpt>
      <trkpt lat="46.49732" lon="5.2665">
        <ele>214.6</ele>
        <time>2022-07-23T10:46:47Z</time>
      </trkpt>
      <trkpt lat="46.49726" lon="5.2663">
        <ele>214.2</ele>
        <time>2022-07-23T10:46:49Z</time>
      </trkpt>
      <trkpt lat="46.49723" lon="5.26621">
        <ele>214.2</ele>
        <time>2022-07-23T10:46:50Z</time>
      </trkpt>
      <trkpt lat="46.49719" lon="5.26612">
        <ele>214</ele>
        <time>2022-07-23T10:46:51Z</time>
      </trkpt>
      <trkpt lat="46.49708" lon="5.26586">
        <ele>213.6</ele>
        <time>2022-07-23T10:46:53Z</time>
      </trkpt>
      <trkpt lat="46.49696" lon="5.26562">
        <ele>213</ele>
        <time>2022-07-23T10:46:55Z</time>
      </trkpt>
      <trkpt lat="46.4969" lon="5.26549">
        <ele>212.2</ele>
        <time>2022-07-23T10:46:56Z</time>
      </trkpt>
      <trkpt lat="46.49685" lon="5.26538">
        <ele>211.8</ele>
        <time>2022-07-23T10:46:57Z</time>
      </trkpt>
      <trkpt lat="46.49665" lon="5.2649">
        <ele>210.6</ele>
        <time>2022-07-23T10:47:01Z</time>
      </trkpt>
      <trkpt lat="46.4966" lon="5.26476">
        <ele>209.8</ele>
        <time>2022-07-23T10:47:02Z</time>
      </trkpt>
      <trkpt lat="46.49655" lon="5.26463">
        <ele>209.2</ele>
        <time>2022-07-23T10:47:03Z</time>
      </trkpt>
      <trkpt lat="46.49647" lon="5.26435">
        <ele>207.8</ele>
        <time>2022-07-23T10:47:05Z</time>
      </trkpt>
      <trkpt lat="46.49644" lon="5.2642">
        <ele>207.4</ele>
        <time>2022-07-23T10:47:06Z</time>
      </trkpt>
      <trkpt lat="46.49641" lon="5.26405">
        <ele>206.6</ele>
        <time>2022-07-23T10:47:07Z</time>
      </trkpt>
      <trkpt lat="46.49636" lon="5.26374">
        <ele>205.2</ele>
        <time>2022-07-23T10:47:09Z</time>
      </trkpt>
      <trkpt lat="46.49635" lon="5.26358">
        <ele>204.4</ele>
        <time>2022-07-23T10:47:10Z</time>
      </trkpt>
      <trkpt lat="46.49634" lon="5.26342">
        <ele>204.2</ele>
        <time>2022-07-23T10:47:11Z</time>
      </trkpt>
      <trkpt lat="46.49631" lon="5.26295">
        <ele>202.8</ele>
        <time>2022-07-23T10:47:14Z</time>
      </trkpt>
      <trkpt lat="46.49629" lon="5.26263">
        <ele>201</ele>
        <time>2022-07-23T10:47:16Z</time>
      </trkpt>
      <trkpt lat="46.49628" lon="5.26248">
        <ele>200</ele>
        <time>2022-07-23T10:47:17Z</time>
      </trkpt>
      <trkpt lat="46.49627" lon="5.26233">
        <ele>199.8</ele>
        <time>2022-07-23T10:47:18Z</time>
      </trkpt>
      <trkpt lat="46.49624" lon="5.26192">
        <ele>198.6</ele>
        <time>2022-07-23T10:47:21Z</time>
      </trkpt>
      <trkpt lat="46.49623" lon="5.26179">
        <ele>198.6</ele>
        <time>2022-07-23T10:47:22Z</time>
      </trkpt>
      <trkpt lat="46.49612" lon="5.26121">
        <ele>198</ele>
        <time>2022-07-23T10:47:27Z</time>
      </trkpt>
      <trkpt lat="46.49595" lon="5.26075">
        <ele>198.6</ele>
        <time>2022-07-23T10:47:32Z</time>
      </trkpt>
      <trkpt lat="46.49567" lon="5.2603">
        <ele>199.4</ele>
        <time>2022-07-23T10:47:38Z</time>
      </trkpt>
      <trkpt lat="46.49538" lon="5.25999">
        <ele>199.8</ele>
        <time>2022-07-23T10:47:43Z</time>
      </trkpt>
      <trkpt lat="46.49532" lon="5.25993">
        <ele>199.8</ele>
        <time>2022-07-23T10:47:44Z</time>
      </trkpt>
      <trkpt lat="46.49484" lon="5.25944">
        <ele>199.8</ele>
        <time>2022-07-23T10:47:52Z</time>
      </trkpt>
      <trkpt lat="46.49435" lon="5.25897">
        <ele>199.6</ele>
        <time>2022-07-23T10:48:00Z</time>
      </trkpt>
      <trkpt lat="46.49429" lon="5.2589">
        <ele>199.4</ele>
        <time>2022-07-23T10:48:01Z</time>
      </trkpt>
      <trkpt lat="46.49381" lon="5.25842">
        <ele>199.2</ele>
        <time>2022-07-23T10:48:09Z</time>
      </trkpt>
      <trkpt lat="46.49369" lon="5.2583">
        <ele>199.4</ele>
        <time>2022-07-23T10:48:11Z</time>
      </trkpt>
      <trkpt lat="46.49334" lon="5.25796">
        <ele>199.2</ele>
        <time>2022-07-23T10:48:17Z</time>
      </trkpt>
      <trkpt lat="46.49287" lon="5.25749">
        <ele>199.2</ele>
        <time>2022-07-23T10:48:25Z</time>
      </trkpt>
      <trkpt lat="46.49277" lon="5.2574">
        <ele>199.4</ele>
        <time>2022-07-23T10:48:27Z</time>
      </trkpt>
      <trkpt lat="46.49268" lon="5.2573">
        <ele>199.4</ele>
        <time>2022-07-23T10:48:29Z</time>
      </trkpt>
      <trkpt lat="46.49245" lon="5.25707">
        <ele>199.2</ele>
        <time>2022-07-23T10:48:33Z</time>
      </trkpt>
      <trkpt lat="46.49213" lon="5.25675">
        <ele>199.2</ele>
        <time>2022-07-23T10:48:38Z</time>
      </trkpt>
      <trkpt lat="46.49187" lon="5.25649">
        <ele>199.6</ele>
        <time>2022-07-23T10:48:42Z</time>
      </trkpt>
      <trkpt lat="46.49175" lon="5.25636">
        <ele>199.6</ele>
        <time>2022-07-23T10:48:44Z</time>
      </trkpt>
      <trkpt lat="46.49129" lon="5.25592">
        <ele>200</ele>
        <time>2022-07-23T10:48:52Z</time>
      </trkpt>
      <trkpt lat="46.49123" lon="5.25587">
        <ele>200</ele>
        <time>2022-07-23T10:48:53Z</time>
      </trkpt>
      <trkpt lat="46.49114" lon="5.25576">
        <ele>200.4</ele>
        <time>2022-07-23T10:48:55Z</time>
      </trkpt>
      <trkpt lat="46.49109" lon="5.2557">
        <ele>200.8</ele>
        <time>2022-07-23T10:48:56Z</time>
      </trkpt>
      <trkpt lat="46.49105" lon="5.25565">
        <ele>201</ele>
        <time>2022-07-23T10:48:57Z</time>
      </trkpt>
      <trkpt lat="46.49087" lon="5.25544">
        <ele>201.4</ele>
        <time>2022-07-23T10:49:01Z</time>
      </trkpt>
      <trkpt lat="46.49082" lon="5.25536">
        <ele>201.6</ele>
        <time>2022-07-23T10:49:02Z</time>
      </trkpt>
      <trkpt lat="46.49074" lon="5.25521">
        <ele>201.8</ele>
        <time>2022-07-23T10:49:04Z</time>
      </trkpt>
      <trkpt lat="46.49072" lon="5.25509">
        <ele>202.2</ele>
        <time>2022-07-23T10:49:06Z</time>
      </trkpt>
      <trkpt lat="46.49071" lon="5.25488">
        <ele>202.6</ele>
        <time>2022-07-23T10:49:09Z</time>
      </trkpt>
      <trkpt lat="46.4907" lon="5.25474">
        <ele>202.8</ele>
        <time>2022-07-23T10:49:11Z</time>
      </trkpt>
      <trkpt lat="46.49067" lon="5.25437">
        <ele>204</ele>
        <time>2022-07-23T10:49:17Z</time>
      </trkpt>
      <trkpt lat="46.49067" lon="5.25432">
        <ele>204.2</ele>
        <time>2022-07-23T10:49:18Z</time>
      </trkpt>
      <trkpt lat="46.49067" lon="5.2542">
        <ele>204.6</ele>
        <time>2022-07-23T10:49:20Z</time>
      </trkpt>
      <trkpt lat="46.49064" lon="5.25402">
        <ele>205.2</ele>
        <time>2022-07-23T10:49:23Z</time>
      </trkpt>
      <trkpt lat="46.49062" lon="5.25391">
        <ele>206</ele>
        <time>2022-07-23T10:49:25Z</time>
      </trkpt>
      <trkpt lat="46.49061" lon="5.25385">
        <ele>206.2</ele>
        <time>2022-07-23T10:49:26Z</time>
      </trkpt>
      <trkpt lat="46.49059" lon="5.25372">
        <ele>206.4</ele>
        <time>2022-07-23T10:49:28Z</time>
      </trkpt>
      <trkpt lat="46.49057" lon="5.25358">
        <ele>206.6</ele>
        <time>2022-07-23T10:49:30Z</time>
      </trkpt>
      <trkpt lat="46.49054" lon="5.25343">
        <ele>206.8</ele>
        <time>2022-07-23T10:49:32Z</time>
      </trkpt>
      <trkpt lat="46.49052" lon="5.25327">
        <ele>207.2</ele>
        <time>2022-07-23T10:49:34Z</time>
      </trkpt>
      <trkpt lat="46.49051" lon="5.25311">
        <ele>207.2</ele>
        <time>2022-07-23T10:49:36Z</time>
      </trkpt>
      <trkpt lat="46.49047" lon="5.25284">
        <ele>207.2</ele>
        <time>2022-07-23T10:49:39Z</time>
      </trkpt>
      <trkpt lat="46.49045" lon="5.25273">
        <ele>207</ele>
        <time>2022-07-23T10:49:40Z</time>
      </trkpt>
      <trkpt lat="46.49044" lon="5.25263">
        <ele>206.6</ele>
        <time>2022-07-23T10:49:41Z</time>
      </trkpt>
      <trkpt lat="46.49038" lon="5.25232">
        <ele>206.2</ele>
        <time>2022-07-23T10:49:44Z</time>
      </trkpt>
      <trkpt lat="46.49035" lon="5.2522">
        <ele>206</ele>
        <time>2022-07-23T10:49:45Z</time>
      </trkpt>
      <trkpt lat="46.49032" lon="5.25198">
        <ele>205.4</ele>
        <time>2022-07-23T10:49:47Z</time>
      </trkpt>
      <trkpt lat="46.49031" lon="5.25188">
        <ele>205</ele>
        <time>2022-07-23T10:49:48Z</time>
      </trkpt>
      <trkpt lat="46.49029" lon="5.25168">
        <ele>204.8</ele>
        <time>2022-07-23T10:49:50Z</time>
      </trkpt>
      <trkpt lat="46.49022" lon="5.25114">
        <ele>204.6</ele>
        <time>2022-07-23T10:49:56Z</time>
      </trkpt>
      <trkpt lat="46.49013" lon="5.25051">
        <ele>205</ele>
        <time>2022-07-23T10:50:03Z</time>
      </trkpt>
      <trkpt lat="46.49009" lon="5.25014">
        <ele>206.2</ele>
        <time>2022-07-23T10:50:08Z</time>
      </trkpt>
      <trkpt lat="46.49006" lon="5.24992">
        <ele>206.8</ele>
        <time>2022-07-23T10:50:11Z</time>
      </trkpt>
      <trkpt lat="46.49004" lon="5.24978">
        <ele>207.2</ele>
        <time>2022-07-23T10:50:13Z</time>
      </trkpt>
      <trkpt lat="46.49001" lon="5.24964">
        <ele>207.6</ele>
        <time>2022-07-23T10:50:15Z</time>
      </trkpt>
      <trkpt lat="46.49" lon="5.24957">
        <ele>207.6</ele>
        <time>2022-07-23T10:50:16Z</time>
      </trkpt>
      <trkpt lat="46.48996" lon="5.24944">
        <ele>208</ele>
        <time>2022-07-23T10:50:18Z</time>
      </trkpt>
      <trkpt lat="46.48992" lon="5.24932">
        <ele>208.4</ele>
        <time>2022-07-23T10:50:20Z</time>
      </trkpt>
      <trkpt lat="46.4899" lon="5.24925">
        <ele>208.8</ele>
        <time>2022-07-23T10:50:21Z</time>
      </trkpt>
      <trkpt lat="46.48987" lon="5.24919">
        <ele>209.4</ele>
        <time>2022-07-23T10:50:22Z</time>
      </trkpt>
      <trkpt lat="46.4897" lon="5.24884">
        <ele>210.6</ele>
        <time>2022-07-23T10:50:28Z</time>
      </trkpt>
      <trkpt lat="46.48956" lon="5.24865">
        <ele>211.6</ele>
        <time>2022-07-23T10:50:32Z</time>
      </trkpt>
      <trkpt lat="46.48936" lon="5.2484">
        <ele>212.4</ele>
        <time>2022-07-23T10:50:37Z</time>
      </trkpt>
      <trkpt lat="46.48919" lon="5.2482">
        <ele>212.8</ele>
        <time>2022-07-23T10:50:41Z</time>
      </trkpt>
      <trkpt lat="46.48897" lon="5.24794">
        <ele>213.2</ele>
        <time>2022-07-23T10:50:46Z</time>
      </trkpt>
      <trkpt lat="46.48884" lon="5.24778">
        <ele>213.4</ele>
        <time>2022-07-23T10:50:49Z</time>
      </trkpt>
      <trkpt lat="46.48862" lon="5.24752">
        <ele>213.4</ele>
        <time>2022-07-23T10:50:54Z</time>
      </trkpt>
      <trkpt lat="46.48846" lon="5.24734">
        <ele>214</ele>
        <time>2022-07-23T10:50:58Z</time>
      </trkpt>
      <trkpt lat="46.48818" lon="5.24704">
        <ele>214.2</ele>
        <time>2022-07-23T10:51:04Z</time>
      </trkpt>
      <trkpt lat="46.48785" lon="5.24674">
        <ele>214.2</ele>
        <time>2022-07-23T10:51:11Z</time>
      </trkpt>
      <trkpt lat="46.48768" lon="5.24655">
        <ele>214.2</ele>
        <time>2022-07-23T10:51:15Z</time>
      </trkpt>
      <trkpt lat="46.48766" lon="5.24649">
        <ele>214.2</ele>
        <time>2022-07-23T10:51:16Z</time>
      </trkpt>
      <trkpt lat="46.48764" lon="5.24643">
        <ele>214.2</ele>
        <time>2022-07-23T10:51:17Z</time>
      </trkpt>
      <trkpt lat="46.48757" lon="5.24635">
        <ele>214.4</ele>
        <time>2022-07-23T10:51:19Z</time>
      </trkpt>
      <trkpt lat="46.48751" lon="5.24632">
        <ele>214.4</ele>
        <time>2022-07-23T10:51:20Z</time>
      </trkpt>
      <trkpt lat="46.48738" lon="5.24629">
        <ele>214.4</ele>
        <time>2022-07-23T10:51:22Z</time>
      </trkpt>
      <trkpt lat="46.48701" lon="5.24617">
        <ele>214.2</ele>
        <time>2022-07-23T10:51:27Z</time>
      </trkpt>
      <trkpt lat="46.48654" lon="5.24592">
        <ele>213.6</ele>
        <time>2022-07-23T10:51:34Z</time>
      </trkpt>
      <trkpt lat="46.48618" lon="5.24573">
        <ele>213.8</ele>
        <time>2022-07-23T10:51:40Z</time>
      </trkpt>
      <trkpt lat="46.48607" lon="5.24566">
        <ele>214</ele>
        <time>2022-07-23T10:51:42Z</time>
      </trkpt>
      <trkpt lat="46.48584" lon="5.2455">
        <ele>214.2</ele>
        <time>2022-07-23T10:51:46Z</time>
      </trkpt>
      <trkpt lat="46.48554" lon="5.24518">
        <ele>214.6</ele>
        <time>2022-07-23T10:51:52Z</time>
      </trkpt>
      <trkpt lat="46.48516" lon="5.24471">
        <ele>214.2</ele>
        <time>2022-07-23T10:51:59Z</time>
      </trkpt>
      <trkpt lat="46.4848" lon="5.24427">
        <ele>212.8</ele>
        <time>2022-07-23T10:52:05Z</time>
      </trkpt>
      <trkpt lat="46.48461" lon="5.24405">
        <ele>212.2</ele>
        <time>2022-07-23T10:52:08Z</time>
      </trkpt>
      <trkpt lat="46.48449" lon="5.24391">
        <ele>211.8</ele>
        <time>2022-07-23T10:52:10Z</time>
      </trkpt>
      <trkpt lat="46.48431" lon="5.24371">
        <ele>211.4</ele>
        <time>2022-07-23T10:52:13Z</time>
      </trkpt>
      <trkpt lat="46.48406" lon="5.2435">
        <ele>211.2</ele>
        <time>2022-07-23T10:52:17Z</time>
      </trkpt>
      <trkpt lat="46.48399" lon="5.24347">
        <ele>211.2</ele>
        <time>2022-07-23T10:52:18Z</time>
      </trkpt>
      <trkpt lat="46.48366" lon="5.24334">
        <ele>212.2</ele>
        <time>2022-07-23T10:52:24Z</time>
      </trkpt>
      <trkpt lat="46.48359" lon="5.2433">
        <ele>212.4</ele>
        <time>2022-07-23T10:52:25Z</time>
      </trkpt>
      <trkpt lat="46.48352" lon="5.24324">
        <ele>213</ele>
        <time>2022-07-23T10:52:27Z</time>
      </trkpt>
      <trkpt lat="46.48349" lon="5.2432">
        <ele>213.2</ele>
        <time>2022-07-23T10:52:28Z</time>
      </trkpt>
      <trkpt lat="46.4834" lon="5.24308">
        <ele>214</ele>
        <time>2022-07-23T10:52:31Z</time>
      </trkpt>
      <trkpt lat="46.48333" lon="5.24296">
        <ele>215</ele>
        <time>2022-07-23T10:52:33Z</time>
      </trkpt>
      <trkpt lat="46.48328" lon="5.2429">
        <ele>215.2</ele>
        <time>2022-07-23T10:52:34Z</time>
      </trkpt>
      <trkpt lat="46.48318" lon="5.2428">
        <ele>215.8</ele>
        <time>2022-07-23T10:52:36Z</time>
      </trkpt>
      <trkpt lat="46.48313" lon="5.24277">
        <ele>216</ele>
        <time>2022-07-23T10:52:37Z</time>
      </trkpt>
      <trkpt lat="46.48308" lon="5.24274">
        <ele>216.2</ele>
        <time>2022-07-23T10:52:38Z</time>
      </trkpt>
      <trkpt lat="46.48302" lon="5.24271">
        <ele>216.2</ele>
        <time>2022-07-23T10:52:39Z</time>
      </trkpt>
      <trkpt lat="46.48285" lon="5.24267">
        <ele>216.8</ele>
        <time>2022-07-23T10:52:42Z</time>
      </trkpt>
      <trkpt lat="46.4828" lon="5.24266">
        <ele>217</ele>
        <time>2022-07-23T10:52:43Z</time>
      </trkpt>
      <trkpt lat="46.48269" lon="5.24263">
        <ele>217.2</ele>
        <time>2022-07-23T10:52:45Z</time>
      </trkpt>
      <trkpt lat="46.48253" lon="5.24259">
        <ele>217.4</ele>
        <time>2022-07-23T10:52:48Z</time>
      </trkpt>
      <trkpt lat="46.48213" lon="5.2425">
        <ele>218</ele>
        <time>2022-07-23T10:52:55Z</time>
      </trkpt>
      <trkpt lat="46.48202" lon="5.24252">
        <ele>218</ele>
        <time>2022-07-23T10:52:57Z</time>
      </trkpt>
      <trkpt lat="46.4819" lon="5.24258">
        <ele>217.8</ele>
        <time>2022-07-23T10:52:59Z</time>
      </trkpt>
      <trkpt lat="46.48181" lon="5.24268">
        <ele>217.8</ele>
        <time>2022-07-23T10:53:01Z</time>
      </trkpt>
      <trkpt lat="46.48166" lon="5.24287">
        <ele>217.4</ele>
        <time>2022-07-23T10:53:04Z</time>
      </trkpt>
      <trkpt lat="46.48135" lon="5.24324">
        <ele>216.8</ele>
        <time>2022-07-23T10:53:10Z</time>
      </trkpt>
      <trkpt lat="46.48122" lon="5.24329">
        <ele>216.4</ele>
        <time>2022-07-23T10:53:12Z</time>
      </trkpt>
      <trkpt lat="46.48114" lon="5.24329">
        <ele>216.2</ele>
        <time>2022-07-23T10:53:13Z</time>
      </trkpt>
      <trkpt lat="46.48106" lon="5.24328">
        <ele>216.2</ele>
        <time>2022-07-23T10:53:14Z</time>
      </trkpt>
      <trkpt lat="46.48091" lon="5.24318">
        <ele>215.8</ele>
        <time>2022-07-23T10:53:16Z</time>
      </trkpt>
      <trkpt lat="46.48078" lon="5.24299">
        <ele>215</ele>
        <time>2022-07-23T10:53:18Z</time>
      </trkpt>
      <trkpt lat="46.48075" lon="5.24287">
        <ele>214.6</ele>
        <time>2022-07-23T10:53:19Z</time>
      </trkpt>
      <trkpt lat="46.48072" lon="5.24275">
        <ele>214</ele>
        <time>2022-07-23T10:53:20Z</time>
      </trkpt>
      <trkpt lat="46.48072" lon="5.24261">
        <ele>213.8</ele>
        <time>2022-07-23T10:53:21Z</time>
      </trkpt>
      <trkpt lat="46.48075" lon="5.24246">
        <ele>212.2</ele>
        <time>2022-07-23T10:53:22Z</time>
      </trkpt>
      <trkpt lat="46.48083" lon="5.24219">
        <ele>211</ele>
        <time>2022-07-23T10:53:24Z</time>
      </trkpt>
      <trkpt lat="46.48088" lon="5.24206">
        <ele>210.2</ele>
        <time>2022-07-23T10:53:25Z</time>
      </trkpt>
      <trkpt lat="46.48093" lon="5.24192">
        <ele>209.6</ele>
        <time>2022-07-23T10:53:26Z</time>
      </trkpt>
      <trkpt lat="46.48099" lon="5.24179">
        <ele>208.4</ele>
        <time>2022-07-23T10:53:27Z</time>
      </trkpt>
      <trkpt lat="46.48109" lon="5.24151">
        <ele>207.2</ele>
        <time>2022-07-23T10:53:29Z</time>
      </trkpt>
      <trkpt lat="46.48119" lon="5.24123">
        <ele>205.8</ele>
        <time>2022-07-23T10:53:31Z</time>
      </trkpt>
      <trkpt lat="46.48125" lon="5.24109">
        <ele>205.2</ele>
        <time>2022-07-23T10:53:32Z</time>
      </trkpt>
      <trkpt lat="46.4813" lon="5.24095">
        <ele>204.6</ele>
        <time>2022-07-23T10:53:33Z</time>
      </trkpt>
      <trkpt lat="46.48142" lon="5.24067">
        <ele>203.4</ele>
        <time>2022-07-23T10:53:35Z</time>
      </trkpt>
      <trkpt lat="46.48159" lon="5.24023">
        <ele>201.6</ele>
        <time>2022-07-23T10:53:38Z</time>
      </trkpt>
      <trkpt lat="46.48164" lon="5.24009">
        <ele>200.6</ele>
        <time>2022-07-23T10:53:39Z</time>
      </trkpt>
      <trkpt lat="46.48175" lon="5.2398">
        <ele>199.2</ele>
        <time>2022-07-23T10:53:41Z</time>
      </trkpt>
      <trkpt lat="46.48189" lon="5.23936">
        <ele>198</ele>
        <time>2022-07-23T10:53:44Z</time>
      </trkpt>
      <trkpt lat="46.48192" lon="5.23905">
        <ele>196.8</ele>
        <time>2022-07-23T10:53:46Z</time>
      </trkpt>
      <trkpt lat="46.48191" lon="5.23889">
        <ele>196.6</ele>
        <time>2022-07-23T10:53:47Z</time>
      </trkpt>
      <trkpt lat="46.48188" lon="5.23875">
        <ele>195.8</ele>
        <time>2022-07-23T10:53:48Z</time>
      </trkpt>
      <trkpt lat="46.4818" lon="5.23848">
        <ele>194.8</ele>
        <time>2022-07-23T10:53:50Z</time>
      </trkpt>
      <trkpt lat="46.48174" lon="5.23838">
        <ele>194.6</ele>
        <time>2022-07-23T10:53:51Z</time>
      </trkpt>
      <trkpt lat="46.48162" lon="5.23822">
        <ele>194</ele>
        <time>2022-07-23T10:53:53Z</time>
      </trkpt>
      <trkpt lat="46.48131" lon="5.23785">
        <ele>193.6</ele>
        <time>2022-07-23T10:53:57Z</time>
      </trkpt>
      <trkpt lat="46.48113" lon="5.2376">
        <ele>193.6</ele>
        <time>2022-07-23T10:54:00Z</time>
      </trkpt>
      <trkpt lat="46.4809" lon="5.2372">
        <ele>193.4</ele>
        <time>2022-07-23T10:54:04Z</time>
      </trkpt>
      <trkpt lat="46.48086" lon="5.23709">
        <ele>193.2</ele>
        <time>2022-07-23T10:54:05Z</time>
      </trkpt>
      <trkpt lat="46.4807" lon="5.23652">
        <ele>193.2</ele>
        <time>2022-07-23T10:54:10Z</time>
      </trkpt>
      <trkpt lat="46.48063" lon="5.23591">
        <ele>192.8</ele>
        <time>2022-07-23T10:54:15Z</time>
      </trkpt>
      <trkpt lat="46.48063" lon="5.23568">
        <ele>192.6</ele>
        <time>2022-07-23T10:54:17Z</time>
      </trkpt>
      <trkpt lat="46.48062" lon="5.23512">
        <ele>192.2</ele>
        <time>2022-07-23T10:54:22Z</time>
      </trkpt>
      <trkpt lat="46.48059" lon="5.23427">
        <ele>192.4</ele>
        <time>2022-07-23T10:54:30Z</time>
      </trkpt>
      <trkpt lat="46.48058" lon="5.2337">
        <ele>192.8</ele>
        <time>2022-07-23T10:54:36Z</time>
      </trkpt>
      <trkpt lat="46.48056" lon="5.23303">
        <ele>193.8</ele>
        <time>2022-07-23T10:54:43Z</time>
      </trkpt>
      <trkpt lat="46.48054" lon="5.23235">
        <ele>194.2</ele>
        <time>2022-07-23T10:54:50Z</time>
      </trkpt>
      <trkpt lat="46.48054" lon="5.23179">
        <ele>194</ele>
        <time>2022-07-23T10:54:57Z</time>
      </trkpt>
      <trkpt lat="46.48052" lon="5.2314">
        <ele>194.8</ele>
        <time>2022-07-23T10:55:02Z</time>
      </trkpt>
      <trkpt lat="46.48052" lon="5.23127">
        <ele>195.2</ele>
        <time>2022-07-23T10:55:04Z</time>
      </trkpt>
      <trkpt lat="46.48052" lon="5.23095">
        <ele>196</ele>
        <time>2022-07-23T10:55:09Z</time>
      </trkpt>
      <trkpt lat="46.48051" lon="5.23076">
        <ele>196.6</ele>
        <time>2022-07-23T10:55:12Z</time>
      </trkpt>
      <trkpt lat="46.48051" lon="5.23052">
        <ele>197.2</ele>
        <time>2022-07-23T10:55:16Z</time>
      </trkpt>
      <trkpt lat="46.4805" lon="5.23021">
        <ele>198.4</ele>
        <time>2022-07-23T10:55:21Z</time>
      </trkpt>
      <trkpt lat="46.48048" lon="5.22973">
        <ele>199.4</ele>
        <time>2022-07-23T10:55:29Z</time>
      </trkpt>
      <trkpt lat="46.48048" lon="5.22967">
        <ele>199.6</ele>
        <time>2022-07-23T10:55:30Z</time>
      </trkpt>
      <trkpt lat="46.48041" lon="5.22923">
        <ele>200.4</ele>
        <time>2022-07-23T10:55:37Z</time>
      </trkpt>
      <trkpt lat="46.48039" lon="5.22917">
        <ele>200.4</ele>
        <time>2022-07-23T10:55:38Z</time>
      </trkpt>
      <trkpt lat="46.48027" lon="5.22882">
        <ele>201.4</ele>
        <time>2022-07-23T10:55:44Z</time>
      </trkpt>
      <trkpt lat="46.48019" lon="5.22859">
        <ele>202</ele>
        <time>2022-07-23T10:55:48Z</time>
      </trkpt>
      <trkpt lat="46.48008" lon="5.22828">
        <ele>202.6</ele>
        <time>2022-07-23T10:55:53Z</time>
      </trkpt>
      <trkpt lat="46.47993" lon="5.22786">
        <ele>203.6</ele>
        <time>2022-07-23T10:56:00Z</time>
      </trkpt>
      <trkpt lat="46.4799" lon="5.2278">
        <ele>203.8</ele>
        <time>2022-07-23T10:56:01Z</time>
      </trkpt>
      <trkpt lat="46.47966" lon="5.2273">
        <ele>204.4</ele>
        <time>2022-07-23T10:56:10Z</time>
      </trkpt>
      <trkpt lat="46.47941" lon="5.227">
        <ele>204.8</ele>
        <time>2022-07-23T10:56:17Z</time>
      </trkpt>
      <trkpt lat="46.47923" lon="5.22682">
        <ele>205.8</ele>
        <time>2022-07-23T10:56:22Z</time>
      </trkpt>
      <trkpt lat="46.47909" lon="5.22667">
        <ele>206.8</ele>
        <time>2022-07-23T10:56:26Z</time>
      </trkpt>
      <trkpt lat="46.47906" lon="5.22664">
        <ele>206.8</ele>
        <time>2022-07-23T10:56:27Z</time>
      </trkpt>
      <trkpt lat="46.47887" lon="5.22644">
        <ele>208</ele>
        <time>2022-07-23T10:56:33Z</time>
      </trkpt>
      <trkpt lat="46.47879" lon="5.22634">
        <ele>208.8</ele>
        <time>2022-07-23T10:56:36Z</time>
      </trkpt>
      <trkpt lat="46.47876" lon="5.22631">
        <ele>209</ele>
        <time>2022-07-23T10:56:37Z</time>
      </trkpt>
      <trkpt lat="46.47857" lon="5.22612">
        <ele>210.2</ele>
        <time>2022-07-23T10:56:43Z</time>
      </trkpt>
      <trkpt lat="46.47854" lon="5.22609">
        <ele>210.4</ele>
        <time>2022-07-23T10:56:44Z</time>
      </trkpt>
      <trkpt lat="46.47839" lon="5.22593">
        <ele>211.2</ele>
        <time>2022-07-23T10:56:49Z</time>
      </trkpt>
      <trkpt lat="46.47827" lon="5.2258">
        <ele>211.8</ele>
        <time>2022-07-23T10:56:53Z</time>
      </trkpt>
      <trkpt lat="46.47822" lon="5.22572">
        <ele>212.4</ele>
        <time>2022-07-23T10:56:55Z</time>
      </trkpt>
      <trkpt lat="46.4781" lon="5.2255">
        <ele>213.2</ele>
        <time>2022-07-23T10:57:00Z</time>
      </trkpt>
      <trkpt lat="46.47806" lon="5.2254">
        <ele>213.4</ele>
        <time>2022-07-23T10:57:02Z</time>
      </trkpt>
      <trkpt lat="46.47799" lon="5.2251">
        <ele>213.8</ele>
        <time>2022-07-23T10:57:07Z</time>
      </trkpt>
      <trkpt lat="46.47797" lon="5.22496">
        <ele>214</ele>
        <time>2022-07-23T10:57:09Z</time>
      </trkpt>
      <trkpt lat="46.47793" lon="5.22476">
        <ele>214.4</ele>
        <time>2022-07-23T10:57:12Z</time>
      </trkpt>
      <trkpt lat="46.47791" lon="5.22463">
        <ele>214.6</ele>
        <time>2022-07-23T10:57:14Z</time>
      </trkpt>
      <trkpt lat="46.47782" lon="5.22421">
        <ele>214.6</ele>
        <time>2022-07-23T10:57:20Z</time>
      </trkpt>
      <trkpt lat="46.47781" lon="5.22414">
        <ele>214.6</ele>
        <time>2022-07-23T10:57:21Z</time>
      </trkpt>
      <trkpt lat="46.47779" lon="5.22407">
        <ele>214.6</ele>
        <time>2022-07-23T10:57:22Z</time>
      </trkpt>
      <trkpt lat="46.47773" lon="5.22398">
        <ele>214.6</ele>
        <time>2022-07-23T10:57:24Z</time>
      </trkpt>
      <trkpt lat="46.47765" lon="5.22397">
        <ele>214.6</ele>
        <time>2022-07-23T10:57:26Z</time>
      </trkpt>
      <trkpt lat="46.4776" lon="5.22398">
        <ele>214.4</ele>
        <time>2022-07-23T10:57:27Z</time>
      </trkpt>
      <trkpt lat="46.47753" lon="5.22399">
        <ele>214.4</ele>
        <time>2022-07-23T10:57:28Z</time>
      </trkpt>
      <trkpt lat="46.47738" lon="5.22398">
        <ele>214.6</ele>
        <time>2022-07-23T10:57:31Z</time>
      </trkpt>
      <trkpt lat="46.477" lon="5.22397">
        <ele>215.4</ele>
        <time>2022-07-23T10:57:38Z</time>
      </trkpt>
      <trkpt lat="46.47687" lon="5.22396">
        <ele>215.4</ele>
        <time>2022-07-23T10:57:40Z</time>
      </trkpt>
      <trkpt lat="46.47681" lon="5.22395">
        <ele>215.4</ele>
        <time>2022-07-23T10:57:41Z</time>
      </trkpt>
      <trkpt lat="46.47667" lon="5.22391">
        <ele>215.4</ele>
        <time>2022-07-23T10:57:43Z</time>
      </trkpt>
      <trkpt lat="46.47619" lon="5.22377">
        <ele>214.2</ele>
        <time>2022-07-23T10:57:50Z</time>
      </trkpt>
      <trkpt lat="46.47564" lon="5.22354">
        <ele>213.2</ele>
        <time>2022-07-23T10:57:58Z</time>
      </trkpt>
      <trkpt lat="46.47557" lon="5.22351">
        <ele>213.2</ele>
        <time>2022-07-23T10:57:59Z</time>
      </trkpt>
      <trkpt lat="46.47512" lon="5.22326">
        <ele>212.6</ele>
        <time>2022-07-23T10:58:06Z</time>
      </trkpt>
      <trkpt lat="46.47492" lon="5.22316">
        <ele>212.2</ele>
        <time>2022-07-23T10:58:09Z</time>
      </trkpt>
      <trkpt lat="46.47467" lon="5.22303">
        <ele>211.8</ele>
        <time>2022-07-23T10:58:13Z</time>
      </trkpt>
      <trkpt lat="46.47432" lon="5.22284">
        <ele>212</ele>
        <time>2022-07-23T10:58:19Z</time>
      </trkpt>
      <trkpt lat="46.47397" lon="5.22266">
        <ele>212</ele>
        <time>2022-07-23T10:58:25Z</time>
      </trkpt>
      <trkpt lat="46.47349" lon="5.22241">
        <ele>212</ele>
        <time>2022-07-23T10:58:33Z</time>
      </trkpt>
      <trkpt lat="46.47311" lon="5.22226">
        <ele>211.6</ele>
        <time>2022-07-23T10:58:39Z</time>
      </trkpt>
      <trkpt lat="46.473" lon="5.22221">
        <ele>211</ele>
        <time>2022-07-23T10:58:41Z</time>
      </trkpt>
      <trkpt lat="46.47282" lon="5.22213">
        <ele>210.6</ele>
        <time>2022-07-23T10:58:45Z</time>
      </trkpt>
      <trkpt lat="46.47278" lon="5.2221">
        <ele>210.4</ele>
        <time>2022-07-23T10:58:48Z</time>
      </trkpt>
      <trkpt lat="46.47278" lon="5.2221">
        <ele>210.4</ele>
        <time>2022-07-23T10:58:51Z</time>
      </trkpt>
      <trkpt lat="46.47273" lon="5.2221">
        <ele>209.8</ele>
        <time>2022-07-23T10:59:34Z</time>
      </trkpt>
      <trkpt lat="46.4727" lon="5.22209">
        <ele>209.8</ele>
        <time>2022-07-23T10:59:35Z</time>
      </trkpt>
      <trkpt lat="46.47258" lon="5.22205">
        <ele>209.8</ele>
        <time>2022-07-23T10:59:38Z</time>
      </trkpt>
      <trkpt lat="46.47253" lon="5.22204">
        <ele>209.8</ele>
        <time>2022-07-23T10:59:39Z</time>
      </trkpt>
      <trkpt lat="46.47224" lon="5.22193">
        <ele>208.8</ele>
        <time>2022-07-23T10:59:44Z</time>
      </trkpt>
      <trkpt lat="46.47218" lon="5.2219">
        <ele>208.4</ele>
        <time>2022-07-23T10:59:45Z</time>
      </trkpt>
      <trkpt lat="46.47191" lon="5.2218">
        <ele>207.8</ele>
        <time>2022-07-23T10:59:49Z</time>
      </trkpt>
      <trkpt lat="46.4717" lon="5.22172">
        <ele>207.6</ele>
        <time>2022-07-23T10:59:52Z</time>
      </trkpt>
      <trkpt lat="46.47137" lon="5.22159">
        <ele>206.6</ele>
        <time>2022-07-23T10:59:57Z</time>
      </trkpt>
      <trkpt lat="46.47112" lon="5.2215">
        <ele>206.2</ele>
        <time>2022-07-23T11:00:00Z</time>
      </trkpt>
      <trkpt lat="46.47076" lon="5.22137">
        <ele>205.4</ele>
        <time>2022-07-23T11:00:05Z</time>
      </trkpt>
      <trkpt lat="46.47053" lon="5.2213">
        <ele>204.4</ele>
        <time>2022-07-23T11:00:08Z</time>
      </trkpt>
      <trkpt lat="46.47045" lon="5.22128">
        <ele>204.4</ele>
        <time>2022-07-23T11:00:09Z</time>
      </trkpt>
      <trkpt lat="46.47004" lon="5.22127">
        <ele>203.4</ele>
        <time>2022-07-23T11:00:14Z</time>
      </trkpt>
      <trkpt lat="46.46995" lon="5.22128">
        <ele>203</ele>
        <time>2022-07-23T11:00:15Z</time>
      </trkpt>
      <trkpt lat="46.46977" lon="5.22129">
        <ele>201.8</ele>
        <time>2022-07-23T11:00:17Z</time>
      </trkpt>
      <trkpt lat="46.46949" lon="5.22131">
        <ele>200.6</ele>
        <time>2022-07-23T11:00:20Z</time>
      </trkpt>
      <trkpt lat="46.4694" lon="5.22132">
        <ele>200.6</ele>
        <time>2022-07-23T11:00:21Z</time>
      </trkpt>
      <trkpt lat="46.4691" lon="5.2213">
        <ele>199.6</ele>
        <time>2022-07-23T11:00:24Z</time>
      </trkpt>
      <trkpt lat="46.46901" lon="5.22127">
        <ele>199.6</ele>
        <time>2022-07-23T11:00:25Z</time>
      </trkpt>
      <trkpt lat="46.46893" lon="5.22122">
        <ele>199.2</ele>
        <time>2022-07-23T11:00:26Z</time>
      </trkpt>
      <trkpt lat="46.46879" lon="5.22109">
        <ele>199</ele>
        <time>2022-07-23T11:00:28Z</time>
      </trkpt>
      <trkpt lat="46.46864" lon="5.22078">
        <ele>199</ele>
        <time>2022-07-23T11:00:32Z</time>
      </trkpt>
      <trkpt lat="46.4685" lon="5.22049">
        <ele>200.8</ele>
        <time>2022-07-23T11:00:36Z</time>
      </trkpt>
      <trkpt lat="46.46841" lon="5.2203">
        <ele>201.6</ele>
        <time>2022-07-23T11:00:39Z</time>
      </trkpt>
      <trkpt lat="46.46838" lon="5.22024">
        <ele>202</ele>
        <time>2022-07-23T11:00:40Z</time>
      </trkpt>
      <trkpt lat="46.46824" lon="5.22004">
        <ele>203</ele>
        <time>2022-07-23T11:00:44Z</time>
      </trkpt>
      <trkpt lat="46.46815" lon="5.21998">
        <ele>204</ele>
        <time>2022-07-23T11:00:46Z</time>
      </trkpt>
      <trkpt lat="46.46811" lon="5.21996">
        <ele>204.6</ele>
        <time>2022-07-23T11:00:47Z</time>
      </trkpt>
      <trkpt lat="46.46802" lon="5.21994">
        <ele>205.2</ele>
        <time>2022-07-23T11:00:49Z</time>
      </trkpt>
      <trkpt lat="46.46798" lon="5.21994">
        <ele>205.6</ele>
        <time>2022-07-23T11:00:50Z</time>
      </trkpt>
      <trkpt lat="46.46794" lon="5.21995">
        <ele>205.8</ele>
        <time>2022-07-23T11:00:51Z</time>
      </trkpt>
      <trkpt lat="46.46781" lon="5.22">
        <ele>206.4</ele>
        <time>2022-07-23T11:00:54Z</time>
      </trkpt>
      <trkpt lat="46.46777" lon="5.22002">
        <ele>207.2</ele>
        <time>2022-07-23T11:00:55Z</time>
      </trkpt>
      <trkpt lat="46.46763" lon="5.22009">
        <ele>207.8</ele>
        <time>2022-07-23T11:00:58Z</time>
      </trkpt>
      <trkpt lat="46.46748" lon="5.22013">
        <ele>208.2</ele>
        <time>2022-07-23T11:01:01Z</time>
      </trkpt>
      <trkpt lat="46.46743" lon="5.22013">
        <ele>208.2</ele>
        <time>2022-07-23T11:01:02Z</time>
      </trkpt>
      <trkpt lat="46.46739" lon="5.22014">
        <ele>208.4</ele>
        <time>2022-07-23T11:01:03Z</time>
      </trkpt>
      <trkpt lat="46.46724" lon="5.22015">
        <ele>209.2</ele>
        <time>2022-07-23T11:01:06Z</time>
      </trkpt>
      <trkpt lat="46.4671" lon="5.22014">
        <ele>209.6</ele>
        <time>2022-07-23T11:01:09Z</time>
      </trkpt>
      <trkpt lat="46.46687" lon="5.22014">
        <ele>210.2</ele>
        <time>2022-07-23T11:01:14Z</time>
      </trkpt>
      <trkpt lat="46.46678" lon="5.22014">
        <ele>210.8</ele>
        <time>2022-07-23T11:01:16Z</time>
      </trkpt>
      <trkpt lat="46.4667" lon="5.22014">
        <ele>211.4</ele>
        <time>2022-07-23T11:01:18Z</time>
      </trkpt>
      <trkpt lat="46.46638" lon="5.22016">
        <ele>212.4</ele>
        <time>2022-07-23T11:01:25Z</time>
      </trkpt>
      <trkpt lat="46.46637" lon="5.22016">
        <ele>212.4</ele>
        <time>2022-07-23T11:01:26Z</time>
      </trkpt>
      <trkpt lat="46.46596" lon="5.22026">
        <ele>213.2</ele>
        <time>2022-07-23T11:01:34Z</time>
      </trkpt>
      <trkpt lat="46.46575" lon="5.22031">
        <ele>213.4</ele>
        <time>2022-07-23T11:01:38Z</time>
      </trkpt>
      <trkpt lat="46.4657" lon="5.22031">
        <ele>213.4</ele>
        <time>2022-07-23T11:01:39Z</time>
      </trkpt>
      <trkpt lat="46.46565" lon="5.22031">
        <ele>213.4</ele>
        <time>2022-07-23T11:01:40Z</time>
      </trkpt>
      <trkpt lat="46.46555" lon="5.2203">
        <ele>213.4</ele>
        <time>2022-07-23T11:01:42Z</time>
      </trkpt>
      <trkpt lat="46.4653" lon="5.22021">
        <ele>213.8</ele>
        <time>2022-07-23T11:01:47Z</time>
      </trkpt>
      <trkpt lat="46.46499" lon="5.22011">
        <ele>214.6</ele>
        <time>2022-07-23T11:01:53Z</time>
      </trkpt>
      <trkpt lat="46.46489" lon="5.22008">
        <ele>214.6</ele>
        <time>2022-07-23T11:01:55Z</time>
      </trkpt>
      <trkpt lat="46.46442" lon="5.21996">
        <ele>214.8</ele>
        <time>2022-07-23T11:02:03Z</time>
      </trkpt>
      <trkpt lat="46.46392" lon="5.21987">
        <ele>214.4</ele>
        <time>2022-07-23T11:02:10Z</time>
      </trkpt>
      <trkpt lat="46.46362" lon="5.21973">
        <ele>213.4</ele>
        <time>2022-07-23T11:02:14Z</time>
      </trkpt>
      <trkpt lat="46.46347" lon="5.21965">
        <ele>213</ele>
        <time>2022-07-23T11:02:16Z</time>
      </trkpt>
      <trkpt lat="46.46324" lon="5.21952">
        <ele>212.2</ele>
        <time>2022-07-23T11:02:19Z</time>
      </trkpt>
      <trkpt lat="46.46299" lon="5.21937">
        <ele>211.2</ele>
        <time>2022-07-23T11:02:22Z</time>
      </trkpt>
      <trkpt lat="46.46291" lon="5.21932">
        <ele>210.6</ele>
        <time>2022-07-23T11:02:23Z</time>
      </trkpt>
      <trkpt lat="46.46275" lon="5.21918">
        <ele>210.2</ele>
        <time>2022-07-23T11:02:25Z</time>
      </trkpt>
      <trkpt lat="46.46269" lon="5.2191">
        <ele>209.8</ele>
        <time>2022-07-23T11:02:26Z</time>
      </trkpt>
      <trkpt lat="46.46262" lon="5.21902">
        <ele>209.6</ele>
        <time>2022-07-23T11:02:27Z</time>
      </trkpt>
      <trkpt lat="46.46244" lon="5.21875">
        <ele>208.4</ele>
        <time>2022-07-23T11:02:30Z</time>
      </trkpt>
      <trkpt lat="46.46227" lon="5.21849">
        <ele>208</ele>
        <time>2022-07-23T11:02:33Z</time>
      </trkpt>
      <trkpt lat="46.462" lon="5.21811">
        <ele>208.2</ele>
        <time>2022-07-23T11:02:38Z</time>
      </trkpt>
      <trkpt lat="46.46175" lon="5.21771">
        <ele>209.6</ele>
        <time>2022-07-23T11:02:44Z</time>
      </trkpt>
      <trkpt lat="46.46161" lon="5.21747">
        <ele>210.8</ele>
        <time>2022-07-23T11:02:48Z</time>
      </trkpt>
      <trkpt lat="46.4615" lon="5.21728">
        <ele>211.8</ele>
        <time>2022-07-23T11:02:51Z</time>
      </trkpt>
      <trkpt lat="46.46147" lon="5.21723">
        <ele>212</ele>
        <time>2022-07-23T11:02:52Z</time>
      </trkpt>
      <trkpt lat="46.46144" lon="5.21717">
        <ele>212.4</ele>
        <time>2022-07-23T11:02:53Z</time>
      </trkpt>
      <trkpt lat="46.46136" lon="5.21699">
        <ele>213.2</ele>
        <time>2022-07-23T11:02:56Z</time>
      </trkpt>
      <trkpt lat="46.46132" lon="5.21693">
        <ele>213.4</ele>
        <time>2022-07-23T11:02:57Z</time>
      </trkpt>
      <trkpt lat="46.46118" lon="5.21673">
        <ele>214</ele>
        <time>2022-07-23T11:03:00Z</time>
      </trkpt>
      <trkpt lat="46.46101" lon="5.21654">
        <ele>214.2</ele>
        <time>2022-07-23T11:03:03Z</time>
      </trkpt>
      <trkpt lat="46.46085" lon="5.21635">
        <ele>214.4</ele>
        <time>2022-07-23T11:03:06Z</time>
      </trkpt>
      <trkpt lat="46.46038" lon="5.21581">
        <ele>214.2</ele>
        <time>2022-07-23T11:03:15Z</time>
      </trkpt>
      <trkpt lat="46.45994" lon="5.21543">
        <ele>214</ele>
        <time>2022-07-23T11:03:23Z</time>
      </trkpt>
      <trkpt lat="46.45955" lon="5.21523">
        <ele>214.4</ele>
        <time>2022-07-23T11:03:30Z</time>
      </trkpt>
      <trkpt lat="46.45915" lon="5.21507">
        <ele>215.4</ele>
        <time>2022-07-23T11:03:37Z</time>
      </trkpt>
      <trkpt lat="46.45909" lon="5.21505">
        <ele>215.6</ele>
        <time>2022-07-23T11:03:38Z</time>
      </trkpt>
      <trkpt lat="46.45854" lon="5.21492">
        <ele>216.4</ele>
        <time>2022-07-23T11:03:47Z</time>
      </trkpt>
      <trkpt lat="46.45813" lon="5.2149">
        <ele>217.4</ele>
        <time>2022-07-23T11:03:54Z</time>
      </trkpt>
      <trkpt lat="46.45808" lon="5.2149">
        <ele>217.6</ele>
        <time>2022-07-23T11:03:55Z</time>
      </trkpt>
      <trkpt lat="46.45773" lon="5.21501">
        <ele>218.2</ele>
        <time>2022-07-23T11:04:01Z</time>
      </trkpt>
      <trkpt lat="46.45727" lon="5.21527">
        <ele>218.2</ele>
        <time>2022-07-23T11:04:09Z</time>
      </trkpt>
      <trkpt lat="46.4571" lon="5.21542">
        <ele>218.2</ele>
        <time>2022-07-23T11:04:12Z</time>
      </trkpt>
      <trkpt lat="46.45694" lon="5.21562">
        <ele>218.2</ele>
        <time>2022-07-23T11:04:15Z</time>
      </trkpt>
      <trkpt lat="46.45659" lon="5.21619">
        <ele>217.6</ele>
        <time>2022-07-23T11:04:22Z</time>
      </trkpt>
      <trkpt lat="46.45625" lon="5.2168">
        <ele>216.8</ele>
        <time>2022-07-23T11:04:29Z</time>
      </trkpt>
      <trkpt lat="46.45616" lon="5.21697">
        <ele>216.8</ele>
        <time>2022-07-23T11:04:31Z</time>
      </trkpt>
      <trkpt lat="46.45597" lon="5.21744">
        <ele>216.8</ele>
        <time>2022-07-23T11:04:36Z</time>
      </trkpt>
      <trkpt lat="46.45567" lon="5.21815">
        <ele>217.6</ele>
        <time>2022-07-23T11:04:44Z</time>
      </trkpt>
      <trkpt lat="46.45556" lon="5.21842">
        <ele>217.8</ele>
        <time>2022-07-23T11:04:47Z</time>
      </trkpt>
      <trkpt lat="46.45525" lon="5.21912">
        <ele>218</ele>
        <time>2022-07-23T11:04:55Z</time>
      </trkpt>
      <trkpt lat="46.45521" lon="5.21921">
        <ele>218</ele>
        <time>2022-07-23T11:04:56Z</time>
      </trkpt>
      <trkpt lat="46.45494" lon="5.2199">
        <ele>217.6</ele>
        <time>2022-07-23T11:05:03Z</time>
      </trkpt>
      <trkpt lat="46.4549" lon="5.22">
        <ele>217.4</ele>
        <time>2022-07-23T11:05:04Z</time>
      </trkpt>
      <trkpt lat="46.45465" lon="5.2207">
        <ele>216.8</ele>
        <time>2022-07-23T11:05:11Z</time>
      </trkpt>
      <trkpt lat="46.45462" lon="5.2208">
        <ele>216.8</ele>
        <time>2022-07-23T11:05:12Z</time>
      </trkpt>
      <trkpt lat="46.45436" lon="5.22153">
        <ele>217</ele>
        <time>2022-07-23T11:05:20Z</time>
      </trkpt>
      <trkpt lat="46.45413" lon="5.22189">
        <ele>217.2</ele>
        <time>2022-07-23T11:05:25Z</time>
      </trkpt>
      <trkpt lat="46.45396" lon="5.22207">
        <ele>217.4</ele>
        <time>2022-07-23T11:05:28Z</time>
      </trkpt>
      <trkpt lat="46.45389" lon="5.22212">
        <ele>217.6</ele>
        <time>2022-07-23T11:05:29Z</time>
      </trkpt>
      <trkpt lat="46.45383" lon="5.22216">
        <ele>217.8</ele>
        <time>2022-07-23T11:05:30Z</time>
      </trkpt>
      <trkpt lat="46.45332" lon="5.22244">
        <ele>218.2</ele>
        <time>2022-07-23T11:05:38Z</time>
      </trkpt>
      <trkpt lat="46.4528" lon="5.22275">
        <ele>218.4</ele>
        <time>2022-07-23T11:05:46Z</time>
      </trkpt>
      <trkpt lat="46.45231" lon="5.22311">
        <ele>218.4</ele>
        <time>2022-07-23T11:05:54Z</time>
      </trkpt>
      <trkpt lat="46.45225" lon="5.22317">
        <ele>218.4</ele>
        <time>2022-07-23T11:05:55Z</time>
      </trkpt>
      <trkpt lat="46.45217" lon="5.22329">
        <ele>218.8</ele>
        <time>2022-07-23T11:05:57Z</time>
      </trkpt>
      <trkpt lat="46.45212" lon="5.22342">
        <ele>218.8</ele>
        <time>2022-07-23T11:05:58Z</time>
      </trkpt>
      <trkpt lat="46.45209" lon="5.22351">
        <ele>218.8</ele>
        <time>2022-07-23T11:05:59Z</time>
      </trkpt>
      <trkpt lat="46.45185" lon="5.22413">
        <ele>219.4</ele>
        <time>2022-07-23T11:06:06Z</time>
      </trkpt>
      <trkpt lat="46.45168" lon="5.2246">
        <ele>219.2</ele>
        <time>2022-07-23T11:06:11Z</time>
      </trkpt>
      <trkpt lat="46.45163" lon="5.2248">
        <ele>219.2</ele>
        <time>2022-07-23T11:06:13Z</time>
      </trkpt>
      <trkpt lat="46.45142" lon="5.22558">
        <ele>219.2</ele>
        <time>2022-07-23T11:06:21Z</time>
      </trkpt>
      <trkpt lat="46.45137" lon="5.22578">
        <ele>219.4</ele>
        <time>2022-07-23T11:06:23Z</time>
      </trkpt>
      <trkpt lat="46.45115" lon="5.22654">
        <ele>219.6</ele>
        <time>2022-07-23T11:06:31Z</time>
      </trkpt>
      <trkpt lat="46.45112" lon="5.22663">
        <ele>219.6</ele>
        <time>2022-07-23T11:06:32Z</time>
      </trkpt>
      <trkpt lat="46.45088" lon="5.22736">
        <ele>219.4</ele>
        <time>2022-07-23T11:06:40Z</time>
      </trkpt>
      <trkpt lat="46.45075" lon="5.22815">
        <ele>219.8</ele>
        <time>2022-07-23T11:06:48Z</time>
      </trkpt>
      <trkpt lat="46.45073" lon="5.22824">
        <ele>219.8</ele>
        <time>2022-07-23T11:06:49Z</time>
      </trkpt>
      <trkpt lat="46.45064" lon="5.22841">
        <ele>219.8</ele>
        <time>2022-07-23T11:06:51Z</time>
      </trkpt>
      <trkpt lat="46.45058" lon="5.22847">
        <ele>219.8</ele>
        <time>2022-07-23T11:06:52Z</time>
      </trkpt>
      <trkpt lat="46.45052" lon="5.22851">
        <ele>219.8</ele>
        <time>2022-07-23T11:06:53Z</time>
      </trkpt>
      <trkpt lat="46.4503" lon="5.22862">
        <ele>219.6</ele>
        <time>2022-07-23T11:06:56Z</time>
      </trkpt>
      <trkpt lat="46.44996" lon="5.2289">
        <ele>219</ele>
        <time>2022-07-23T11:07:01Z</time>
      </trkpt>
      <trkpt lat="46.44986" lon="5.22907">
        <ele>218.8</ele>
        <time>2022-07-23T11:07:03Z</time>
      </trkpt>
      <trkpt lat="46.44979" lon="5.22927">
        <ele>218.6</ele>
        <time>2022-07-23T11:07:05Z</time>
      </trkpt>
      <trkpt lat="46.44967" lon="5.22994">
        <ele>218.2</ele>
        <time>2022-07-23T11:07:11Z</time>
      </trkpt>
      <trkpt lat="46.44954" lon="5.23074">
        <ele>218.2</ele>
        <time>2022-07-23T11:07:19Z</time>
      </trkpt>
      <trkpt lat="46.44951" lon="5.23082">
        <ele>218.2</ele>
        <time>2022-07-23T11:07:20Z</time>
      </trkpt>
      <trkpt lat="46.4494" lon="5.23109">
        <ele>218.8</ele>
        <time>2022-07-23T11:07:24Z</time>
      </trkpt>
      <trkpt lat="46.44933" lon="5.23126">
        <ele>219.6</ele>
        <time>2022-07-23T11:07:27Z</time>
      </trkpt>
      <trkpt lat="46.44922" lon="5.23138">
        <ele>219.8</ele>
        <time>2022-07-23T11:07:30Z</time>
      </trkpt>
      <trkpt lat="46.4492" lon="5.23125">
        <ele>219.8</ele>
        <time>2022-07-23T11:07:31Z</time>
      </trkpt>
      <trkpt lat="46.44909" lon="5.23099">
        <ele>219.8</ele>
        <time>2022-07-23T11:07:33Z</time>
      </trkpt>
      <trkpt lat="46.44896" lon="5.23077">
        <ele>219.6</ele>
        <time>2022-07-23T11:07:35Z</time>
      </trkpt>
      <trkpt lat="46.44891" lon="5.23067">
        <ele>219.6</ele>
        <time>2022-07-23T11:07:36Z</time>
      </trkpt>
      <trkpt lat="46.4487" lon="5.23016">
        <ele>219</ele>
        <time>2022-07-23T11:07:41Z</time>
      </trkpt>
      <trkpt lat="46.44849" lon="5.22968">
        <ele>219</ele>
        <time>2022-07-23T11:07:46Z</time>
      </trkpt>
      <trkpt lat="46.44844" lon="5.2296">
        <ele>218.8</ele>
        <time>2022-07-23T11:07:47Z</time>
      </trkpt>
      <trkpt lat="46.44838" lon="5.22953">
        <ele>218.6</ele>
        <time>2022-07-23T11:07:48Z</time>
      </trkpt>
      <trkpt lat="46.44818" lon="5.22937">
        <ele>218.4</ele>
        <time>2022-07-23T11:07:51Z</time>
      </trkpt>
      <trkpt lat="46.44785" lon="5.22916">
        <ele>218.4</ele>
        <time>2022-07-23T11:07:56Z</time>
      </trkpt>
      <trkpt lat="46.44767" lon="5.22901">
        <ele>218.2</ele>
        <time>2022-07-23T11:07:59Z</time>
      </trkpt>
      <trkpt lat="46.44724" lon="5.22866">
        <ele>218.4</ele>
        <time>2022-07-23T11:08:06Z</time>
      </trkpt>
      <trkpt lat="46.44708" lon="5.22853">
        <ele>218.6</ele>
        <time>2022-07-23T11:08:09Z</time>
      </trkpt>
      <trkpt lat="46.44698" lon="5.22847">
        <ele>218.8</ele>
        <time>2022-07-23T11:08:11Z</time>
      </trkpt>
      <trkpt lat="46.44694" lon="5.22843">
        <ele>218.8</ele>
        <time>2022-07-23T11:08:12Z</time>
      </trkpt>
      <trkpt lat="46.44687" lon="5.22833">
        <ele>219</ele>
        <time>2022-07-23T11:08:14Z</time>
      </trkpt>
      <trkpt lat="46.44684" lon="5.2281">
        <ele>219.4</ele>
        <time>2022-07-23T11:08:17Z</time>
      </trkpt>
      <trkpt lat="46.44682" lon="5.22754">
        <ele>219.8</ele>
        <time>2022-07-23T11:08:23Z</time>
      </trkpt>
      <trkpt lat="46.44678" lon="5.22675">
        <ele>218.8</ele>
        <time>2022-07-23T11:08:31Z</time>
      </trkpt>
      <trkpt lat="46.44673" lon="5.22608">
        <ele>218.6</ele>
        <time>2022-07-23T11:08:38Z</time>
      </trkpt>
      <trkpt lat="46.44671" lon="5.22599">
        <ele>218.6</ele>
        <time>2022-07-23T11:08:39Z</time>
      </trkpt>
      <trkpt lat="46.44664" lon="5.22585">
        <ele>218.8</ele>
        <time>2022-07-23T11:08:41Z</time>
      </trkpt>
      <trkpt lat="46.44653" lon="5.22577">
        <ele>219</ele>
        <time>2022-07-23T11:08:43Z</time>
      </trkpt>
      <trkpt lat="46.44646" lon="5.22574">
        <ele>219.2</ele>
        <time>2022-07-23T11:08:44Z</time>
      </trkpt>
      <trkpt lat="46.44608" lon="5.2256">
        <ele>219.4</ele>
        <time>2022-07-23T11:08:50Z</time>
      </trkpt>
      <trkpt lat="46.44562" lon="5.2253">
        <ele>219</ele>
        <time>2022-07-23T11:08:57Z</time>
      </trkpt>
      <trkpt lat="46.44522" lon="5.22509">
        <ele>218.8</ele>
        <time>2022-07-23T11:09:03Z</time>
      </trkpt>
      <trkpt lat="46.44467" lon="5.22484">
        <ele>219.4</ele>
        <time>2022-07-23T11:09:11Z</time>
      </trkpt>
      <trkpt lat="46.44461" lon="5.22481">
        <ele>219.4</ele>
        <time>2022-07-23T11:09:12Z</time>
      </trkpt>
      <trkpt lat="46.44422" lon="5.22463">
        <ele>219.4</ele>
        <time>2022-07-23T11:09:18Z</time>
      </trkpt>
      <trkpt lat="46.44416" lon="5.22458">
        <ele>219.4</ele>
        <time>2022-07-23T11:09:19Z</time>
      </trkpt>
      <trkpt lat="46.44379" lon="5.22424">
        <ele>219.4</ele>
        <time>2022-07-23T11:09:26Z</time>
      </trkpt>
      <trkpt lat="46.44367" lon="5.22416">
        <ele>219.4</ele>
        <time>2022-07-23T11:09:28Z</time>
      </trkpt>
      <trkpt lat="46.44346" lon="5.22409">
        <ele>219.8</ele>
        <time>2022-07-23T11:09:31Z</time>
      </trkpt>
      <trkpt lat="46.44339" lon="5.22409">
        <ele>220</ele>
        <time>2022-07-23T11:09:32Z</time>
      </trkpt>
      <trkpt lat="46.44326" lon="5.22407">
        <ele>220.6</ele>
        <time>2022-07-23T11:09:34Z</time>
      </trkpt>
      <trkpt lat="46.44308" lon="5.224">
        <ele>220.6</ele>
        <time>2022-07-23T11:09:37Z</time>
      </trkpt>
      <trkpt lat="46.44253" lon="5.2239">
        <ele>220</ele>
        <time>2022-07-23T11:09:45Z</time>
      </trkpt>
      <trkpt lat="46.44205" lon="5.22379">
        <ele>219.8</ele>
        <time>2022-07-23T11:09:52Z</time>
      </trkpt>
      <trkpt lat="46.44184" lon="5.22374">
        <ele>219.6</ele>
        <time>2022-07-23T11:09:55Z</time>
      </trkpt>
      <trkpt lat="46.4417" lon="5.22375">
        <ele>219.6</ele>
        <time>2022-07-23T11:09:57Z</time>
      </trkpt>
      <trkpt lat="46.44163" lon="5.22377">
        <ele>219.6</ele>
        <time>2022-07-23T11:09:58Z</time>
      </trkpt>
      <trkpt lat="46.44157" lon="5.22382">
        <ele>219.6</ele>
        <time>2022-07-23T11:09:59Z</time>
      </trkpt>
      <trkpt lat="46.44146" lon="5.22396">
        <ele>219.6</ele>
        <time>2022-07-23T11:10:01Z</time>
      </trkpt>
      <trkpt lat="46.44139" lon="5.22414">
        <ele>219.6</ele>
        <time>2022-07-23T11:10:03Z</time>
      </trkpt>
      <trkpt lat="46.44134" lon="5.22434">
        <ele>219.6</ele>
        <time>2022-07-23T11:10:05Z</time>
      </trkpt>
      <trkpt lat="46.44128" lon="5.22453">
        <ele>219.6</ele>
        <time>2022-07-23T11:10:07Z</time>
      </trkpt>
      <trkpt lat="46.4412" lon="5.22471">
        <ele>219.4</ele>
        <time>2022-07-23T11:10:09Z</time>
      </trkpt>
      <trkpt lat="46.44108" lon="5.22484">
        <ele>219.4</ele>
        <time>2022-07-23T11:10:11Z</time>
      </trkpt>
      <trkpt lat="46.44101" lon="5.22488">
        <ele>219.4</ele>
        <time>2022-07-23T11:10:12Z</time>
      </trkpt>
      <trkpt lat="46.44094" lon="5.22491">
        <ele>219.4</ele>
        <time>2022-07-23T11:10:13Z</time>
      </trkpt>
      <trkpt lat="46.4408" lon="5.22493">
        <ele>219.4</ele>
        <time>2022-07-23T11:10:15Z</time>
      </trkpt>
      <trkpt lat="46.44031" lon="5.22488">
        <ele>219.8</ele>
        <time>2022-07-23T11:10:22Z</time>
      </trkpt>
      <trkpt lat="46.43989" lon="5.22486">
        <ele>220</ele>
        <time>2022-07-23T11:10:28Z</time>
      </trkpt>
      <trkpt lat="46.43947" lon="5.22488">
        <ele>220.8</ele>
        <time>2022-07-23T11:10:34Z</time>
      </trkpt>
      <trkpt lat="46.43934" lon="5.22489">
        <ele>220.8</ele>
        <time>2022-07-23T11:10:36Z</time>
      </trkpt>
      <trkpt lat="46.43915" lon="5.22485">
        <ele>220.8</ele>
        <time>2022-07-23T11:10:39Z</time>
      </trkpt>
      <trkpt lat="46.43887" lon="5.22477">
        <ele>220.8</ele>
        <time>2022-07-23T11:10:43Z</time>
      </trkpt>
      <trkpt lat="46.4388" lon="5.22474">
        <ele>220.8</ele>
        <time>2022-07-23T11:10:44Z</time>
      </trkpt>
      <trkpt lat="46.43844" lon="5.22447">
        <ele>220.8</ele>
        <time>2022-07-23T11:10:50Z</time>
      </trkpt>
      <trkpt lat="46.43816" lon="5.22424">
        <ele>221</ele>
        <time>2022-07-23T11:10:55Z</time>
      </trkpt>
      <trkpt lat="46.43805" lon="5.22415">
        <ele>221.2</ele>
        <time>2022-07-23T11:10:57Z</time>
      </trkpt>
      <trkpt lat="46.4377" lon="5.2238">
        <ele>222.4</ele>
        <time>2022-07-23T11:11:04Z</time>
      </trkpt>
      <trkpt lat="46.43759" lon="5.2237">
        <ele>222.6</ele>
        <time>2022-07-23T11:11:06Z</time>
      </trkpt>
      <trkpt lat="46.43728" lon="5.22341">
        <ele>222.8</ele>
        <time>2022-07-23T11:11:12Z</time>
      </trkpt>
      <trkpt lat="46.43691" lon="5.22304">
        <ele>223</ele>
        <time>2022-07-23T11:11:19Z</time>
      </trkpt>
      <trkpt lat="46.43646" lon="5.2226">
        <ele>222.8</ele>
        <time>2022-07-23T11:11:26Z</time>
      </trkpt>
      <trkpt lat="46.43611" lon="5.22227">
        <ele>221</ele>
        <time>2022-07-23T11:11:32Z</time>
      </trkpt>
      <trkpt lat="46.43597" lon="5.22217">
        <ele>220.6</ele>
        <time>2022-07-23T11:11:34Z</time>
      </trkpt>
      <trkpt lat="46.43554" lon="5.22191">
        <ele>220</ele>
        <time>2022-07-23T11:11:40Z</time>
      </trkpt>
      <trkpt lat="46.43547" lon="5.22188">
        <ele>219.8</ele>
        <time>2022-07-23T11:11:41Z</time>
      </trkpt>
      <trkpt lat="46.435" lon="5.22182">
        <ele>219.8</ele>
        <time>2022-07-23T11:11:47Z</time>
      </trkpt>
      <trkpt lat="46.43454" lon="5.2217">
        <ele>219.8</ele>
        <time>2022-07-23T11:11:53Z</time>
      </trkpt>
      <trkpt lat="46.43439" lon="5.22162">
        <ele>219.8</ele>
        <time>2022-07-23T11:11:55Z</time>
      </trkpt>
      <trkpt lat="46.43419" lon="5.22144">
        <ele>219.8</ele>
        <time>2022-07-23T11:11:58Z</time>
      </trkpt>
      <trkpt lat="46.43371" lon="5.22094">
        <ele>219.8</ele>
        <time>2022-07-23T11:12:06Z</time>
      </trkpt>
      <trkpt lat="46.43365" lon="5.22088">
        <ele>220</ele>
        <time>2022-07-23T11:12:07Z</time>
      </trkpt>
      <trkpt lat="46.43337" lon="5.22047">
        <ele>220.2</ele>
        <time>2022-07-23T11:12:13Z</time>
      </trkpt>
      <trkpt lat="46.43317" lon="5.22013">
        <ele>220.4</ele>
        <time>2022-07-23T11:12:18Z</time>
      </trkpt>
      <trkpt lat="46.43306" lon="5.21991">
        <ele>221.2</ele>
        <time>2022-07-23T11:12:22Z</time>
      </trkpt>
      <trkpt lat="46.43303" lon="5.21984">
        <ele>221.6</ele>
        <time>2022-07-23T11:12:23Z</time>
      </trkpt>
      <trkpt lat="46.433" lon="5.21978">
        <ele>221.6</ele>
        <time>2022-07-23T11:12:24Z</time>
      </trkpt>
      <trkpt lat="46.43293" lon="5.21964">
        <ele>222</ele>
        <time>2022-07-23T11:12:26Z</time>
      </trkpt>
      <trkpt lat="46.43287" lon="5.2195">
        <ele>222.4</ele>
        <time>2022-07-23T11:12:28Z</time>
      </trkpt>
      <trkpt lat="46.43274" lon="5.21928">
        <ele>222.6</ele>
        <time>2022-07-23T11:12:31Z</time>
      </trkpt>
      <trkpt lat="46.43262" lon="5.21914">
        <ele>223</ele>
        <time>2022-07-23T11:12:33Z</time>
      </trkpt>
      <trkpt lat="46.43256" lon="5.21909">
        <ele>223</ele>
        <time>2022-07-23T11:12:34Z</time>
      </trkpt>
      <trkpt lat="46.43249" lon="5.21904">
        <ele>223.2</ele>
        <time>2022-07-23T11:12:35Z</time>
      </trkpt>
      <trkpt lat="46.43224" lon="5.21887">
        <ele>223.2</ele>
        <time>2022-07-23T11:12:39Z</time>
      </trkpt>
      <trkpt lat="46.43197" lon="5.21856">
        <ele>223.6</ele>
        <time>2022-07-23T11:12:44Z</time>
      </trkpt>
      <trkpt lat="46.43175" lon="5.21834">
        <ele>223.4</ele>
        <time>2022-07-23T11:12:48Z</time>
      </trkpt>
      <trkpt lat="46.43169" lon="5.2183">
        <ele>223.4</ele>
        <time>2022-07-23T11:12:49Z</time>
      </trkpt>
      <trkpt lat="46.43142" lon="5.2182">
        <ele>223.4</ele>
        <time>2022-07-23T11:12:53Z</time>
      </trkpt>
      <trkpt lat="46.43128" lon="5.21817">
        <ele>223.4</ele>
        <time>2022-07-23T11:12:55Z</time>
      </trkpt>
      <trkpt lat="46.43092" lon="5.21814">
        <ele>222.8</ele>
        <time>2022-07-23T11:13:00Z</time>
      </trkpt>
      <trkpt lat="46.43085" lon="5.21816">
        <ele>222.8</ele>
        <time>2022-07-23T11:13:01Z</time>
      </trkpt>
      <trkpt lat="46.43028" lon="5.21834">
        <ele>222.6</ele>
        <time>2022-07-23T11:13:09Z</time>
      </trkpt>
      <trkpt lat="46.43021" lon="5.21836">
        <ele>222.6</ele>
        <time>2022-07-23T11:13:10Z</time>
      </trkpt>
      <trkpt lat="46.43007" lon="5.21838">
        <ele>222.6</ele>
        <time>2022-07-23T11:13:12Z</time>
      </trkpt>
      <trkpt lat="46.42992" lon="5.21837">
        <ele>222.6</ele>
        <time>2022-07-23T11:13:14Z</time>
      </trkpt>
      <trkpt lat="46.42985" lon="5.21836">
        <ele>222.6</ele>
        <time>2022-07-23T11:13:15Z</time>
      </trkpt>
      <trkpt lat="46.42956" lon="5.21826">
        <ele>222.6</ele>
        <time>2022-07-23T11:13:19Z</time>
      </trkpt>
      <trkpt lat="46.42912" lon="5.21819">
        <ele>222.2</ele>
        <time>2022-07-23T11:13:25Z</time>
      </trkpt>
      <trkpt lat="46.42859" lon="5.21815">
        <ele>222.2</ele>
        <time>2022-07-23T11:13:32Z</time>
      </trkpt>
      <trkpt lat="46.42807" lon="5.21826">
        <ele>222.2</ele>
        <time>2022-07-23T11:13:39Z</time>
      </trkpt>
      <trkpt lat="46.42762" lon="5.21831">
        <ele>222.2</ele>
        <time>2022-07-23T11:13:45Z</time>
      </trkpt>
      <trkpt lat="46.4272" lon="5.21826">
        <ele>222.2</ele>
        <time>2022-07-23T11:13:51Z</time>
      </trkpt>
      <trkpt lat="46.42687" lon="5.21823">
        <ele>222</ele>
        <time>2022-07-23T11:13:56Z</time>
      </trkpt>
      <trkpt lat="46.42636" lon="5.21816">
        <ele>222.4</ele>
        <time>2022-07-23T11:14:03Z</time>
      </trkpt>
      <trkpt lat="46.42594" lon="5.21804">
        <ele>222.6</ele>
        <time>2022-07-23T11:14:09Z</time>
      </trkpt>
      <trkpt lat="46.42537" lon="5.21782">
        <ele>222</ele>
        <time>2022-07-23T11:14:17Z</time>
      </trkpt>
      <trkpt lat="46.4253" lon="5.21779">
        <ele>221.8</ele>
        <time>2022-07-23T11:14:18Z</time>
      </trkpt>
      <trkpt lat="46.42472" lon="5.21758">
        <ele>221.2</ele>
        <time>2022-07-23T11:14:25Z</time>
      </trkpt>
      <trkpt lat="46.42464" lon="5.21756">
        <ele>221</ele>
        <time>2022-07-23T11:14:26Z</time>
      </trkpt>
      <trkpt lat="46.42445" lon="5.21753">
        <ele>220.6</ele>
        <time>2022-07-23T11:14:29Z</time>
      </trkpt>
      <trkpt lat="46.42406" lon="5.21751">
        <ele>220.4</ele>
        <time>2022-07-23T11:14:34Z</time>
      </trkpt>
      <trkpt lat="46.42352" lon="5.2175">
        <ele>220.6</ele>
        <time>2022-07-23T11:14:41Z</time>
      </trkpt>
      <trkpt lat="46.42295" lon="5.2173">
        <ele>220</ele>
        <time>2022-07-23T11:14:48Z</time>
      </trkpt>
      <trkpt lat="46.42262" lon="5.21717">
        <ele>219.8</ele>
        <time>2022-07-23T11:14:52Z</time>
      </trkpt>
      <trkpt lat="46.42221" lon="5.21697">
        <ele>219.4</ele>
        <time>2022-07-23T11:14:57Z</time>
      </trkpt>
      <trkpt lat="46.42198" lon="5.21682">
        <ele>218.6</ele>
        <time>2022-07-23T11:15:00Z</time>
      </trkpt>
      <trkpt lat="46.42176" lon="5.21664">
        <ele>218.2</ele>
        <time>2022-07-23T11:15:03Z</time>
      </trkpt>
      <trkpt lat="46.42133" lon="5.21628">
        <ele>218</ele>
        <time>2022-07-23T11:15:09Z</time>
      </trkpt>
      <trkpt lat="46.42103" lon="5.21608">
        <ele>217.6</ele>
        <time>2022-07-23T11:15:13Z</time>
      </trkpt>
      <trkpt lat="46.42059" lon="5.21578">
        <ele>217.2</ele>
        <time>2022-07-23T11:15:19Z</time>
      </trkpt>
      <trkpt lat="46.42027" lon="5.21556">
        <ele>217.4</ele>
        <time>2022-07-23T11:15:24Z</time>
      </trkpt>
      <trkpt lat="46.41975" lon="5.2152">
        <ele>217.8</ele>
        <time>2022-07-23T11:15:32Z</time>
      </trkpt>
      <trkpt lat="46.41963" lon="5.21512">
        <ele>218</ele>
        <time>2022-07-23T11:15:34Z</time>
      </trkpt>
      <trkpt lat="46.4192" lon="5.21488">
        <ele>218.4</ele>
        <time>2022-07-23T11:15:41Z</time>
      </trkpt>
      <trkpt lat="46.41914" lon="5.21485">
        <ele>218.4</ele>
        <time>2022-07-23T11:15:42Z</time>
      </trkpt>
      <trkpt lat="46.41908" lon="5.21481">
        <ele>218.6</ele>
        <time>2022-07-23T11:15:43Z</time>
      </trkpt>
      <trkpt lat="46.41883" lon="5.21468">
        <ele>219</ele>
        <time>2022-07-23T11:15:47Z</time>
      </trkpt>
      <trkpt lat="46.4184" lon="5.21446">
        <ele>219.4</ele>
        <time>2022-07-23T11:15:54Z</time>
      </trkpt>
      <trkpt lat="46.41804" lon="5.21424">
        <ele>219.2</ele>
        <time>2022-07-23T11:16:00Z</time>
      </trkpt>
      <trkpt lat="46.41757" lon="5.21387">
        <ele>219</ele>
        <time>2022-07-23T11:16:08Z</time>
      </trkpt>
      <trkpt lat="46.41711" lon="5.21347">
        <ele>218.8</ele>
        <time>2022-07-23T11:16:16Z</time>
      </trkpt>
      <trkpt lat="46.41699" lon="5.21337">
        <ele>218.6</ele>
        <time>2022-07-23T11:16:18Z</time>
      </trkpt>
      <trkpt lat="46.4168" lon="5.21321">
        <ele>218.2</ele>
        <time>2022-07-23T11:16:21Z</time>
      </trkpt>
      <trkpt lat="46.41653" lon="5.21299">
        <ele>217.2</ele>
        <time>2022-07-23T11:16:25Z</time>
      </trkpt>
      <trkpt lat="46.41646" lon="5.21292">
        <ele>217.2</ele>
        <time>2022-07-23T11:16:26Z</time>
      </trkpt>
      <trkpt lat="46.41633" lon="5.21279">
        <ele>216.8</ele>
        <time>2022-07-23T11:16:28Z</time>
      </trkpt>
      <trkpt lat="46.41613" lon="5.21261">
        <ele>216</ele>
        <time>2022-07-23T11:16:31Z</time>
      </trkpt>
      <trkpt lat="46.41581" lon="5.21228">
        <ele>215.6</ele>
        <time>2022-07-23T11:16:36Z</time>
      </trkpt>
      <trkpt lat="46.41558" lon="5.21197">
        <ele>215.4</ele>
        <time>2022-07-23T11:16:40Z</time>
      </trkpt>
      <trkpt lat="46.41553" lon="5.21187">
        <ele>215.4</ele>
        <time>2022-07-23T11:16:41Z</time>
      </trkpt>
      <trkpt lat="46.41518" lon="5.21126">
        <ele>215.2</ele>
        <time>2022-07-23T11:16:48Z</time>
      </trkpt>
      <trkpt lat="46.41494" lon="5.21094">
        <ele>215.6</ele>
        <time>2022-07-23T11:16:53Z</time>
      </trkpt>
      <trkpt lat="46.41489" lon="5.21089">
        <ele>215.6</ele>
        <time>2022-07-23T11:16:54Z</time>
      </trkpt>
      <trkpt lat="46.41458" lon="5.21054">
        <ele>216.8</ele>
        <time>2022-07-23T11:17:01Z</time>
      </trkpt>
      <trkpt lat="46.41453" lon="5.21049">
        <ele>217.2</ele>
        <time>2022-07-23T11:17:02Z</time>
      </trkpt>
      <trkpt lat="46.41449" lon="5.21042">
        <ele>217.2</ele>
        <time>2022-07-23T11:17:03Z</time>
      </trkpt>
      <trkpt lat="46.41442" lon="5.21026">
        <ele>217.6</ele>
        <time>2022-07-23T11:17:05Z</time>
      </trkpt>
      <trkpt lat="46.41434" lon="5.20983">
        <ele>217.2</ele>
        <time>2022-07-23T11:17:09Z</time>
      </trkpt>
      <trkpt lat="46.41428" lon="5.20933">
        <ele>216</ele>
        <time>2022-07-23T11:17:13Z</time>
      </trkpt>
      <trkpt lat="46.41425" lon="5.20921">
        <ele>215.4</ele>
        <time>2022-07-23T11:17:14Z</time>
      </trkpt>
      <trkpt lat="46.41422" lon="5.20909">
        <ele>215</ele>
        <time>2022-07-23T11:17:15Z</time>
      </trkpt>
      <trkpt lat="46.41419" lon="5.20897">
        <ele>214.4</ele>
        <time>2022-07-23T11:17:16Z</time>
      </trkpt>
      <trkpt lat="46.41409" lon="5.20874">
        <ele>213.2</ele>
        <time>2022-07-23T11:17:18Z</time>
      </trkpt>
      <trkpt lat="46.41404" lon="5.20863">
        <ele>212.8</ele>
        <time>2022-07-23T11:17:19Z</time>
      </trkpt>
      <trkpt lat="46.41393" lon="5.20843">
        <ele>212.2</ele>
        <time>2022-07-23T11:17:21Z</time>
      </trkpt>
      <trkpt lat="46.41386" lon="5.20835">
        <ele>212</ele>
        <time>2022-07-23T11:17:22Z</time>
      </trkpt>
      <trkpt lat="46.41377" lon="5.20832">
        <ele>211.8</ele>
        <time>2022-07-23T11:17:23Z</time>
      </trkpt>
      <trkpt lat="46.41359" lon="5.20835">
        <ele>211.4</ele>
        <time>2022-07-23T11:17:25Z</time>
      </trkpt>
      <trkpt lat="46.4135" lon="5.20838">
        <ele>211</ele>
        <time>2022-07-23T11:17:26Z</time>
      </trkpt>
      <trkpt lat="46.41294" lon="5.20856">
        <ele>209.8</ele>
        <time>2022-07-23T11:17:32Z</time>
      </trkpt>
      <trkpt lat="46.41285" lon="5.20859">
        <ele>209.8</ele>
        <time>2022-07-23T11:17:33Z</time>
      </trkpt>
      <trkpt lat="46.41226" lon="5.20876">
        <ele>210</ele>
        <time>2022-07-23T11:17:40Z</time>
      </trkpt>
      <trkpt lat="46.4121" lon="5.20881">
        <ele>210.2</ele>
        <time>2022-07-23T11:17:42Z</time>
      </trkpt>
      <trkpt lat="46.41163" lon="5.20895">
        <ele>211</ele>
        <time>2022-07-23T11:17:48Z</time>
      </trkpt>
      <trkpt lat="46.41155" lon="5.20898">
        <ele>211</ele>
        <time>2022-07-23T11:17:49Z</time>
      </trkpt>
      <trkpt lat="46.41099" lon="5.20916">
        <ele>211.4</ele>
        <time>2022-07-23T11:17:56Z</time>
      </trkpt>
      <trkpt lat="46.41076" lon="5.20924">
        <ele>211.2</ele>
        <time>2022-07-23T11:17:59Z</time>
      </trkpt>
      <trkpt lat="46.41019" lon="5.20944">
        <ele>210.4</ele>
        <time>2022-07-23T11:18:06Z</time>
      </trkpt>
      <trkpt lat="46.41011" lon="5.20947">
        <ele>210.2</ele>
        <time>2022-07-23T11:18:07Z</time>
      </trkpt>
      <trkpt lat="46.40987" lon="5.20957">
        <ele>210</ele>
        <time>2022-07-23T11:18:10Z</time>
      </trkpt>
      <trkpt lat="46.40941" lon="5.20978">
        <ele>209.6</ele>
        <time>2022-07-23T11:18:16Z</time>
      </trkpt>
      <trkpt lat="46.40885" lon="5.21003">
        <ele>209</ele>
        <time>2022-07-23T11:18:23Z</time>
      </trkpt>
      <trkpt lat="46.40867" lon="5.2101">
        <ele>209</ele>
        <time>2022-07-23T11:18:25Z</time>
      </trkpt>
      <trkpt lat="46.40824" lon="5.21029">
        <ele>208</ele>
        <time>2022-07-23T11:18:30Z</time>
      </trkpt>
      <trkpt lat="46.40799" lon="5.21039">
        <ele>206.6</ele>
        <time>2022-07-23T11:18:33Z</time>
      </trkpt>
      <trkpt lat="46.40746" lon="5.21062">
        <ele>205.8</ele>
        <time>2022-07-23T11:18:39Z</time>
      </trkpt>
      <trkpt lat="46.40711" lon="5.21079">
        <ele>205.6</ele>
        <time>2022-07-23T11:18:43Z</time>
      </trkpt>
      <trkpt lat="46.4066" lon="5.21102">
        <ele>204.4</ele>
        <time>2022-07-23T11:18:49Z</time>
      </trkpt>
      <trkpt lat="46.40626" lon="5.21117">
        <ele>203.8</ele>
        <time>2022-07-23T11:18:53Z</time>
      </trkpt>
      <trkpt lat="46.40597" lon="5.21131">
        <ele>203.4</ele>
        <time>2022-07-23T11:18:57Z</time>
      </trkpt>
      <trkpt lat="46.40579" lon="5.21137">
        <ele>203.2</ele>
        <time>2022-07-23T11:18:59Z</time>
      </trkpt>
      <trkpt lat="46.40563" lon="5.21134">
        <ele>203.2</ele>
        <time>2022-07-23T11:19:01Z</time>
      </trkpt>
      <trkpt lat="46.40555" lon="5.2113">
        <ele>203.2</ele>
        <time>2022-07-23T11:19:02Z</time>
      </trkpt>
      <trkpt lat="46.40509" lon="5.21096">
        <ele>202.8</ele>
        <time>2022-07-23T11:19:09Z</time>
      </trkpt>
      <trkpt lat="46.40503" lon="5.21091">
        <ele>202.8</ele>
        <time>2022-07-23T11:19:10Z</time>
      </trkpt>
      <trkpt lat="46.40495" lon="5.21079">
        <ele>202.8</ele>
        <time>2022-07-23T11:19:12Z</time>
      </trkpt>
      <trkpt lat="46.40493" lon="5.21064">
        <ele>203</ele>
        <time>2022-07-23T11:19:14Z</time>
      </trkpt>
      <trkpt lat="46.40493" lon="5.21056">
        <ele>203</ele>
        <time>2022-07-23T11:19:15Z</time>
      </trkpt>
      <trkpt lat="46.40499" lon="5.21002">
        <ele>204</ele>
        <time>2022-07-23T11:19:21Z</time>
      </trkpt>
      <trkpt lat="46.40504" lon="5.2094">
        <ele>204.4</ele>
        <time>2022-07-23T11:19:28Z</time>
      </trkpt>
      <trkpt lat="46.40505" lon="5.20923">
        <ele>204.4</ele>
        <time>2022-07-23T11:19:30Z</time>
      </trkpt>
      <trkpt lat="46.40511" lon="5.20853">
        <ele>205.2</ele>
        <time>2022-07-23T11:19:38Z</time>
      </trkpt>
      <trkpt lat="46.40513" lon="5.20818">
        <ele>205.4</ele>
        <time>2022-07-23T11:19:42Z</time>
      </trkpt>
      <trkpt lat="46.40517" lon="5.20771">
        <ele>206</ele>
        <time>2022-07-23T11:19:48Z</time>
      </trkpt>
      <trkpt lat="46.40519" lon="5.20751">
        <ele>206.4</ele>
        <time>2022-07-23T11:19:51Z</time>
      </trkpt>
      <trkpt lat="46.4052" lon="5.20733">
        <ele>207</ele>
        <time>2022-07-23T11:19:54Z</time>
      </trkpt>
      <trkpt lat="46.40521" lon="5.20718">
        <ele>207.6</ele>
        <time>2022-07-23T11:19:57Z</time>
      </trkpt>
      <trkpt lat="46.40523" lon="5.20687">
        <ele>208.6</ele>
        <time>2022-07-23T11:20:02Z</time>
      </trkpt>
      <trkpt lat="46.40528" lon="5.20649">
        <ele>209.8</ele>
        <time>2022-07-23T11:20:09Z</time>
      </trkpt>
      <trkpt lat="46.4053" lon="5.20628">
        <ele>210.6</ele>
        <time>2022-07-23T11:20:13Z</time>
      </trkpt>
      <trkpt lat="46.40531" lon="5.20618">
        <ele>211.4</ele>
        <time>2022-07-23T11:20:15Z</time>
      </trkpt>
      <trkpt lat="46.40532" lon="5.20592">
        <ele>212.6</ele>
        <time>2022-07-23T11:20:20Z</time>
      </trkpt>
      <trkpt lat="46.40533" lon="5.20582">
        <ele>213</ele>
        <time>2022-07-23T11:20:22Z</time>
      </trkpt>
      <trkpt lat="46.40533" lon="5.20572">
        <ele>213.8</ele>
        <time>2022-07-23T11:20:24Z</time>
      </trkpt>
      <trkpt lat="46.40535" lon="5.20547">
        <ele>215</ele>
        <time>2022-07-23T11:20:29Z</time>
      </trkpt>
      <trkpt lat="46.40537" lon="5.20526">
        <ele>215.8</ele>
        <time>2022-07-23T11:20:33Z</time>
      </trkpt>
      <trkpt lat="46.40537" lon="5.20517">
        <ele>216.2</ele>
        <time>2022-07-23T11:20:35Z</time>
      </trkpt>
      <trkpt lat="46.40538" lon="5.20493">
        <ele>217.2</ele>
        <time>2022-07-23T11:20:40Z</time>
      </trkpt>
      <trkpt lat="46.40539" lon="5.20484">
        <ele>218</ele>
        <time>2022-07-23T11:20:42Z</time>
      </trkpt>
      <trkpt lat="46.4054" lon="5.20479">
        <ele>218.4</ele>
        <time>2022-07-23T11:20:43Z</time>
      </trkpt>
      <trkpt lat="46.40541" lon="5.20456">
        <ele>219.6</ele>
        <time>2022-07-23T11:20:48Z</time>
      </trkpt>
      <trkpt lat="46.40542" lon="5.20447">
        <ele>220</ele>
        <time>2022-07-23T11:20:50Z</time>
      </trkpt>
      <trkpt lat="46.40544" lon="5.20416">
        <ele>220.8</ele>
        <time>2022-07-23T11:20:56Z</time>
      </trkpt>
      <trkpt lat="46.40546" lon="5.20394">
        <ele>221.8</ele>
        <time>2022-07-23T11:21:01Z</time>
      </trkpt>
      <trkpt lat="46.40547" lon="5.20383">
        <ele>222.2</ele>
        <time>2022-07-23T11:21:03Z</time>
      </trkpt>
      <trkpt lat="46.40548" lon="5.20366">
        <ele>222.8</ele>
        <time>2022-07-23T11:21:06Z</time>
      </trkpt>
      <trkpt lat="46.4055" lon="5.20335">
        <ele>223.4</ele>
        <time>2022-07-23T11:21:11Z</time>
      </trkpt>
      <trkpt lat="46.40554" lon="5.20279">
        <ele>223.6</ele>
        <time>2022-07-23T11:21:19Z</time>
      </trkpt>
      <trkpt lat="46.40557" lon="5.20233">
        <ele>223.8</ele>
        <time>2022-07-23T11:21:25Z</time>
      </trkpt>
      <trkpt lat="46.4056" lon="5.202">
        <ele>223.8</ele>
        <time>2022-07-23T11:21:29Z</time>
      </trkpt>
      <trkpt lat="46.40564" lon="5.20128">
        <ele>223.2</ele>
        <time>2022-07-23T11:21:37Z</time>
      </trkpt>
      <trkpt lat="46.40568" lon="5.2005">
        <ele>222.8</ele>
        <time>2022-07-23T11:21:45Z</time>
      </trkpt>
      <trkpt lat="46.40569" lon="5.19982">
        <ele>222.4</ele>
        <time>2022-07-23T11:21:52Z</time>
      </trkpt>
      <trkpt lat="46.4057" lon="5.19964">
        <ele>222.4</ele>
        <time>2022-07-23T11:21:54Z</time>
      </trkpt>
      <trkpt lat="46.40573" lon="5.19879">
        <ele>222.4</ele>
        <time>2022-07-23T11:22:03Z</time>
      </trkpt>
      <trkpt lat="46.40576" lon="5.19793">
        <ele>222</ele>
        <time>2022-07-23T11:22:12Z</time>
      </trkpt>
      <trkpt lat="46.40576" lon="5.19782">
        <ele>222</ele>
        <time>2022-07-23T11:22:13Z</time>
      </trkpt>
      <trkpt lat="46.40577" lon="5.19762">
        <ele>221.8</ele>
        <time>2022-07-23T11:22:15Z</time>
      </trkpt>
      <trkpt lat="46.40578" lon="5.19708">
        <ele>220.8</ele>
        <time>2022-07-23T11:22:20Z</time>
      </trkpt>
      <trkpt lat="46.40578" lon="5.19696">
        <ele>220.6</ele>
        <time>2022-07-23T11:22:21Z</time>
      </trkpt>
      <trkpt lat="46.40579" lon="5.19662">
        <ele>219.6</ele>
        <time>2022-07-23T11:22:24Z</time>
      </trkpt>
      <trkpt lat="46.4058" lon="5.19625">
        <ele>218.2</ele>
        <time>2022-07-23T11:22:27Z</time>
      </trkpt>
      <trkpt lat="46.4058" lon="5.19613">
        <ele>217.8</ele>
        <time>2022-07-23T11:22:28Z</time>
      </trkpt>
      <trkpt lat="46.4058" lon="5.1956">
        <ele>217</ele>
        <time>2022-07-23T11:22:32Z</time>
      </trkpt>
      <trkpt lat="46.40571" lon="5.19536">
        <ele>216</ele>
        <time>2022-07-23T11:22:34Z</time>
      </trkpt>
      <trkpt lat="46.40564" lon="5.19525">
        <ele>215.6</ele>
        <time>2022-07-23T11:22:35Z</time>
      </trkpt>
      <trkpt lat="46.4054" lon="5.19495">
        <ele>214.2</ele>
        <time>2022-07-23T11:22:38Z</time>
      </trkpt>
      <trkpt lat="46.40523" lon="5.19475">
        <ele>213</ele>
        <time>2022-07-23T11:22:40Z</time>
      </trkpt>
      <trkpt lat="46.40508" lon="5.19455">
        <ele>211.4</ele>
        <time>2022-07-23T11:22:42Z</time>
      </trkpt>
      <trkpt lat="46.40486" lon="5.19427">
        <ele>210.2</ele>
        <time>2022-07-23T11:22:45Z</time>
      </trkpt>
      <trkpt lat="46.40478" lon="5.19418">
        <ele>208.8</ele>
        <time>2022-07-23T11:22:46Z</time>
      </trkpt>
      <trkpt lat="46.40443" lon="5.19374">
        <ele>207.6</ele>
        <time>2022-07-23T11:22:51Z</time>
      </trkpt>
      <trkpt lat="46.40396" lon="5.19316">
        <ele>206.6</ele>
        <time>2022-07-23T11:22:58Z</time>
      </trkpt>
      <trkpt lat="46.4039" lon="5.19308">
        <ele>206.6</ele>
        <time>2022-07-23T11:22:59Z</time>
      </trkpt>
      <trkpt lat="46.40346" lon="5.19252">
        <ele>206.2</ele>
        <time>2022-07-23T11:23:06Z</time>
      </trkpt>
      <trkpt lat="46.40334" lon="5.19237">
        <ele>206</ele>
        <time>2022-07-23T11:23:08Z</time>
      </trkpt>
      <trkpt lat="46.40301" lon="5.19196">
        <ele>206.6</ele>
        <time>2022-07-23T11:23:14Z</time>
      </trkpt>
      <trkpt lat="46.40274" lon="5.1916">
        <ele>207.6</ele>
        <time>2022-07-23T11:23:20Z</time>
      </trkpt>
      <trkpt lat="46.40248" lon="5.19126">
        <ele>208.4</ele>
        <time>2022-07-23T11:23:26Z</time>
      </trkpt>
      <trkpt lat="46.4024" lon="5.19115">
        <ele>208.8</ele>
        <time>2022-07-23T11:23:28Z</time>
      </trkpt>
      <trkpt lat="46.40232" lon="5.19104">
        <ele>209.2</ele>
        <time>2022-07-23T11:23:30Z</time>
      </trkpt>
      <trkpt lat="46.40222" lon="5.19088">
        <ele>210</ele>
        <time>2022-07-23T11:23:33Z</time>
      </trkpt>
      <trkpt lat="46.40199" lon="5.19058">
        <ele>211.2</ele>
        <time>2022-07-23T11:23:39Z</time>
      </trkpt>
      <trkpt lat="46.40186" lon="5.19044">
        <ele>212</ele>
        <time>2022-07-23T11:23:42Z</time>
      </trkpt>
      <trkpt lat="46.40182" lon="5.1904">
        <ele>212.2</ele>
        <time>2022-07-23T11:23:43Z</time>
      </trkpt>
      <trkpt lat="46.40161" lon="5.19024">
        <ele>213.2</ele>
        <time>2022-07-23T11:23:47Z</time>
      </trkpt>
      <trkpt lat="46.40157" lon="5.1902">
        <ele>213.4</ele>
        <time>2022-07-23T11:23:48Z</time>
      </trkpt>
      <trkpt lat="46.40118" lon="5.1899">
        <ele>214.6</ele>
        <time>2022-07-23T11:23:56Z</time>
      </trkpt>
      <trkpt lat="46.40103" lon="5.18977">
        <ele>215.2</ele>
        <time>2022-07-23T11:24:00Z</time>
      </trkpt>
      <trkpt lat="46.40094" lon="5.1897">
        <ele>215.8</ele>
        <time>2022-07-23T11:24:02Z</time>
      </trkpt>
      <trkpt lat="46.40089" lon="5.18966">
        <ele>215.8</ele>
        <time>2022-07-23T11:24:03Z</time>
      </trkpt>
      <trkpt lat="46.40067" lon="5.18933">
        <ele>216.2</ele>
        <time>2022-07-23T11:24:09Z</time>
      </trkpt>
      <trkpt lat="46.40039" lon="5.18894">
        <ele>216.6</ele>
        <time>2022-07-23T11:24:16Z</time>
      </trkpt>
      <trkpt lat="46.40025" lon="5.18879">
        <ele>216.6</ele>
        <time>2022-07-23T11:24:19Z</time>
      </trkpt>
      <trkpt lat="46.4002" lon="5.18874">
        <ele>216.8</ele>
        <time>2022-07-23T11:24:20Z</time>
      </trkpt>
      <trkpt lat="46.4001" lon="5.18864">
        <ele>216.8</ele>
        <time>2022-07-23T11:24:22Z</time>
      </trkpt>
      <trkpt lat="46.39974" lon="5.18833">
        <ele>216.8</ele>
        <time>2022-07-23T11:24:29Z</time>
      </trkpt>
      <trkpt lat="46.39934" lon="5.18813">
        <ele>217.2</ele>
        <time>2022-07-23T11:24:36Z</time>
      </trkpt>
      <trkpt lat="46.39897" lon="5.18808">
        <ele>217.6</ele>
        <time>2022-07-23T11:24:42Z</time>
      </trkpt>
      <trkpt lat="46.39863" lon="5.18808">
        <ele>217.2</ele>
        <time>2022-07-23T11:24:47Z</time>
      </trkpt>
      <trkpt lat="46.39832" lon="5.18814">
        <ele>216.4</ele>
        <time>2022-07-23T11:24:51Z</time>
      </trkpt>
      <trkpt lat="46.39807" lon="5.1882">
        <ele>215.2</ele>
        <time>2022-07-23T11:24:54Z</time>
      </trkpt>
      <trkpt lat="46.39793" lon="5.1882">
        <ele>214.8</ele>
        <time>2022-07-23T11:24:55Z</time>
      </trkpt>
      <trkpt lat="46.39784" lon="5.18819">
        <ele>214.4</ele>
        <time>2022-07-23T11:24:56Z</time>
      </trkpt>
      <trkpt lat="46.39775" lon="5.18818">
        <ele>213.8</ele>
        <time>2022-07-23T11:24:58Z</time>
      </trkpt>
      <trkpt lat="46.39738" lon="5.18804">
        <ele>213.2</ele>
        <time>2022-07-23T11:25:02Z</time>
      </trkpt>
      <trkpt lat="46.39694" lon="5.1878">
        <ele>213.2</ele>
        <time>2022-07-23T11:25:08Z</time>
      </trkpt>
      <trkpt lat="46.39656" lon="5.18759">
        <ele>214.2</ele>
        <time>2022-07-23T11:25:14Z</time>
      </trkpt>
      <trkpt lat="46.39639" lon="5.18751">
        <ele>215</ele>
        <time>2022-07-23T11:25:17Z</time>
      </trkpt>
      <trkpt lat="46.39628" lon="5.18746">
        <ele>215.4</ele>
        <time>2022-07-23T11:25:19Z</time>
      </trkpt>
      <trkpt lat="46.39622" lon="5.18745">
        <ele>216</ele>
        <time>2022-07-23T11:25:20Z</time>
      </trkpt>
      <trkpt lat="46.39615" lon="5.18745">
        <ele>216</ele>
        <time>2022-07-23T11:25:21Z</time>
      </trkpt>
      <trkpt lat="46.39609" lon="5.18745">
        <ele>216.6</ele>
        <time>2022-07-23T11:25:22Z</time>
      </trkpt>
      <trkpt lat="46.39588" lon="5.18748">
        <ele>216.8</ele>
        <time>2022-07-23T11:25:25Z</time>
      </trkpt>
      <trkpt lat="46.39548" lon="5.18744">
        <ele>217</ele>
        <time>2022-07-23T11:25:31Z</time>
      </trkpt>
      <trkpt lat="46.39512" lon="5.18737">
        <ele>216.8</ele>
        <time>2022-07-23T11:25:37Z</time>
      </trkpt>
      <trkpt lat="46.39488" lon="5.18726">
        <ele>217.2</ele>
        <time>2022-07-23T11:25:41Z</time>
      </trkpt>
      <trkpt lat="46.39482" lon="5.18721">
        <ele>217.4</ele>
        <time>2022-07-23T11:25:42Z</time>
      </trkpt>
      <trkpt lat="46.39476" lon="5.18716">
        <ele>217.6</ele>
        <time>2022-07-23T11:25:43Z</time>
      </trkpt>
      <trkpt lat="46.3945" lon="5.18689">
        <ele>218.2</ele>
        <time>2022-07-23T11:25:48Z</time>
      </trkpt>
      <trkpt lat="46.39418" lon="5.18663">
        <ele>218.6</ele>
        <time>2022-07-23T11:25:54Z</time>
      </trkpt>
      <trkpt lat="46.39402" lon="5.18651">
        <ele>218.8</ele>
        <time>2022-07-23T11:25:57Z</time>
      </trkpt>
      <trkpt lat="46.39355" lon="5.1862">
        <ele>219.2</ele>
        <time>2022-07-23T11:26:05Z</time>
      </trkpt>
      <trkpt lat="46.39315" lon="5.18592">
        <ele>219.2</ele>
        <time>2022-07-23T11:26:12Z</time>
      </trkpt>
      <trkpt lat="46.39304" lon="5.18584">
        <ele>219.2</ele>
        <time>2022-07-23T11:26:14Z</time>
      </trkpt>
      <trkpt lat="46.39293" lon="5.18578">
        <ele>219.2</ele>
        <time>2022-07-23T11:26:16Z</time>
      </trkpt>
      <trkpt lat="46.39287" lon="5.18576">
        <ele>219.2</ele>
        <time>2022-07-23T11:26:17Z</time>
      </trkpt>
      <trkpt lat="46.39252" lon="5.18555">
        <ele>219.2</ele>
        <time>2022-07-23T11:26:22Z</time>
      </trkpt>
      <trkpt lat="46.39238" lon="5.18546">
        <ele>219.2</ele>
        <time>2022-07-23T11:26:25Z</time>
      </trkpt>
      <trkpt lat="46.39224" lon="5.18542">
        <ele>219.2</ele>
        <time>2022-07-23T11:26:27Z</time>
      </trkpt>
      <trkpt lat="46.39176" lon="5.1854">
        <ele>218.8</ele>
        <time>2022-07-23T11:26:34Z</time>
      </trkpt>
      <trkpt lat="46.39125" lon="5.18537">
        <ele>218.2</ele>
        <time>2022-07-23T11:26:41Z</time>
      </trkpt>
      <trkpt lat="46.39072" lon="5.18524">
        <ele>218</ele>
        <time>2022-07-23T11:26:48Z</time>
      </trkpt>
      <trkpt lat="46.39064" lon="5.18521">
        <ele>218</ele>
        <time>2022-07-23T11:26:49Z</time>
      </trkpt>
      <trkpt lat="46.39023" lon="5.18507">
        <ele>217.6</ele>
        <time>2022-07-23T11:26:54Z</time>
      </trkpt>
      <trkpt lat="46.39014" lon="5.18504">
        <ele>217.4</ele>
        <time>2022-07-23T11:26:55Z</time>
      </trkpt>
      <trkpt lat="46.38988" lon="5.18494">
        <ele>216.6</ele>
        <time>2022-07-23T11:26:58Z</time>
      </trkpt>
      <trkpt lat="46.38962" lon="5.18489">
        <ele>215.4</ele>
        <time>2022-07-23T11:27:01Z</time>
      </trkpt>
      <trkpt lat="46.38929" lon="5.18496">
        <ele>214.8</ele>
        <time>2022-07-23T11:27:05Z</time>
      </trkpt>
      <trkpt lat="46.38921" lon="5.18498">
        <ele>214.8</ele>
        <time>2022-07-23T11:27:06Z</time>
      </trkpt>
      <trkpt lat="46.38898" lon="5.18499">
        <ele>215</ele>
        <time>2022-07-23T11:27:09Z</time>
      </trkpt>
      <trkpt lat="46.38858" lon="5.18493">
        <ele>216.6</ele>
        <time>2022-07-23T11:27:15Z</time>
      </trkpt>
      <trkpt lat="46.38828" lon="5.18485">
        <ele>218</ele>
        <time>2022-07-23T11:27:20Z</time>
      </trkpt>
      <trkpt lat="46.38822" lon="5.18483">
        <ele>218.2</ele>
        <time>2022-07-23T11:27:21Z</time>
      </trkpt>
      <trkpt lat="46.38805" lon="5.18478">
        <ele>219.2</ele>
        <time>2022-07-23T11:27:24Z</time>
      </trkpt>
      <trkpt lat="46.38773" lon="5.18464">
        <ele>220</ele>
        <time>2022-07-23T11:27:29Z</time>
      </trkpt>
      <trkpt lat="46.38721" lon="5.18438">
        <ele>219.6</ele>
        <time>2022-07-23T11:27:37Z</time>
      </trkpt>
      <trkpt lat="46.38715" lon="5.18433">
        <ele>219.6</ele>
        <time>2022-07-23T11:27:38Z</time>
      </trkpt>
      <trkpt lat="46.38699" lon="5.18413">
        <ele>219.2</ele>
        <time>2022-07-23T11:27:41Z</time>
      </trkpt>
      <trkpt lat="46.38682" lon="5.18394">
        <ele>218.6</ele>
        <time>2022-07-23T11:27:44Z</time>
      </trkpt>
      <trkpt lat="46.38676" lon="5.1839">
        <ele>218.6</ele>
        <time>2022-07-23T11:27:45Z</time>
      </trkpt>
      <trkpt lat="46.38629" lon="5.1837">
        <ele>218.6</ele>
        <time>2022-07-23T11:27:52Z</time>
      </trkpt>
      <trkpt lat="46.38594" lon="5.18357">
        <ele>219.2</ele>
        <time>2022-07-23T11:27:57Z</time>
      </trkpt>
      <trkpt lat="46.38575" lon="5.18346">
        <ele>219.2</ele>
        <time>2022-07-23T11:28:00Z</time>
      </trkpt>
      <trkpt lat="46.38526" lon="5.18314">
        <ele>219.2</ele>
        <time>2022-07-23T11:28:08Z</time>
      </trkpt>
      <trkpt lat="46.38478" lon="5.18281">
        <ele>219.6</ele>
        <time>2022-07-23T11:28:16Z</time>
      </trkpt>
      <trkpt lat="46.38422" lon="5.18238">
        <ele>219.8</ele>
        <time>2022-07-23T11:28:25Z</time>
      </trkpt>
      <trkpt lat="46.38417" lon="5.18233">
        <ele>219.8</ele>
        <time>2022-07-23T11:28:26Z</time>
      </trkpt>
      <trkpt lat="46.38368" lon="5.18194">
        <ele>219.4</ele>
        <time>2022-07-23T11:28:35Z</time>
      </trkpt>
      <trkpt lat="46.38349" lon="5.18181">
        <ele>219.4</ele>
        <time>2022-07-23T11:28:38Z</time>
      </trkpt>
      <trkpt lat="46.3832" lon="5.18171">
        <ele>218.6</ele>
        <time>2022-07-23T11:28:42Z</time>
      </trkpt>
      <trkpt lat="46.38296" lon="5.18166">
        <ele>218.2</ele>
        <time>2022-07-23T11:28:45Z</time>
      </trkpt>
      <trkpt lat="46.3827" lon="5.18163">
        <ele>216.4</ele>
        <time>2022-07-23T11:28:48Z</time>
      </trkpt>
      <trkpt lat="46.38244" lon="5.18161">
        <ele>215.4</ele>
        <time>2022-07-23T11:28:51Z</time>
      </trkpt>
      <trkpt lat="46.3822" lon="5.18163">
        <ele>214.6</ele>
        <time>2022-07-23T11:28:54Z</time>
      </trkpt>
      <trkpt lat="46.38204" lon="5.18165">
        <ele>214.2</ele>
        <time>2022-07-23T11:28:56Z</time>
      </trkpt>
      <trkpt lat="46.38163" lon="5.18173">
        <ele>214</ele>
        <time>2022-07-23T11:29:01Z</time>
      </trkpt>
      <trkpt lat="46.38114" lon="5.18178">
        <ele>213.6</ele>
        <time>2022-07-23T11:29:07Z</time>
      </trkpt>
      <trkpt lat="46.38106" lon="5.18177">
        <ele>213.6</ele>
        <time>2022-07-23T11:29:08Z</time>
      </trkpt>
      <trkpt lat="46.38055" lon="5.18168">
        <ele>213.6</ele>
        <time>2022-07-23T11:29:15Z</time>
      </trkpt>
      <trkpt lat="46.38031" lon="5.18156">
        <ele>214.6</ele>
        <time>2022-07-23T11:29:19Z</time>
      </trkpt>
      <trkpt lat="46.38026" lon="5.18152">
        <ele>215</ele>
        <time>2022-07-23T11:29:20Z</time>
      </trkpt>
      <trkpt lat="46.38021" lon="5.18148">
        <ele>215.4</ele>
        <time>2022-07-23T11:29:21Z</time>
      </trkpt>
      <trkpt lat="46.38006" lon="5.18135">
        <ele>216.2</ele>
        <time>2022-07-23T11:29:24Z</time>
      </trkpt>
      <trkpt lat="46.37999" lon="5.18127">
        <ele>216.4</ele>
        <time>2022-07-23T11:29:25Z</time>
      </trkpt>
      <trkpt lat="46.37995" lon="5.18121">
        <ele>216.6</ele>
        <time>2022-07-23T11:29:26Z</time>
      </trkpt>
      <trkpt lat="46.37991" lon="5.18116">
        <ele>217.4</ele>
        <time>2022-07-23T11:29:28Z</time>
      </trkpt>
      <trkpt lat="46.37986" lon="5.18107">
        <ele>217.6</ele>
        <time>2022-07-23T11:29:29Z</time>
      </trkpt>
      <trkpt lat="46.37971" lon="5.18077">
        <ele>218.4</ele>
        <time>2022-07-23T11:29:33Z</time>
      </trkpt>
      <trkpt lat="46.37957" lon="5.18048">
        <ele>218.6</ele>
        <time>2022-07-23T11:29:37Z</time>
      </trkpt>
      <trkpt lat="46.37948" lon="5.18035">
        <ele>218.6</ele>
        <time>2022-07-23T11:29:39Z</time>
      </trkpt>
      <trkpt lat="46.3794" lon="5.18024">
        <ele>218.8</ele>
        <time>2022-07-23T11:29:41Z</time>
      </trkpt>
      <trkpt lat="46.3793" lon="5.18015">
        <ele>219.2</ele>
        <time>2022-07-23T11:29:43Z</time>
      </trkpt>
      <trkpt lat="46.37924" lon="5.18011">
        <ele>219.2</ele>
        <time>2022-07-23T11:29:44Z</time>
      </trkpt>
      <trkpt lat="46.37884" lon="5.17997">
        <ele>219.2</ele>
        <time>2022-07-23T11:29:50Z</time>
      </trkpt>
      <trkpt lat="46.37851" lon="5.17985">
        <ele>218.2</ele>
        <time>2022-07-23T11:29:55Z</time>
      </trkpt>
      <trkpt lat="46.37844" lon="5.17981">
        <ele>218.2</ele>
        <time>2022-07-23T11:29:56Z</time>
      </trkpt>
      <trkpt lat="46.37807" lon="5.17956">
        <ele>218.2</ele>
        <time>2022-07-23T11:30:02Z</time>
      </trkpt>
      <trkpt lat="46.37767" lon="5.17945">
        <ele>218.2</ele>
        <time>2022-07-23T11:30:08Z</time>
      </trkpt>
      <trkpt lat="46.37725" lon="5.17924">
        <ele>218.2</ele>
        <time>2022-07-23T11:30:14Z</time>
      </trkpt>
      <trkpt lat="46.37705" lon="5.17908">
        <ele>217.6</ele>
        <time>2022-07-23T11:30:17Z</time>
      </trkpt>
      <trkpt lat="46.37686" lon="5.17889">
        <ele>217</ele>
        <time>2022-07-23T11:30:20Z</time>
      </trkpt>
      <trkpt lat="46.37664" lon="5.17858">
        <ele>216.4</ele>
        <time>2022-07-23T11:30:24Z</time>
      </trkpt>
      <trkpt lat="46.37657" lon="5.17847">
        <ele>216.4</ele>
        <time>2022-07-23T11:30:25Z</time>
      </trkpt>
      <trkpt lat="46.37635" lon="5.17797">
        <ele>216.4</ele>
        <time>2022-07-23T11:30:31Z</time>
      </trkpt>
      <trkpt lat="46.37624" lon="5.17771">
        <ele>216.8</ele>
        <time>2022-07-23T11:30:34Z</time>
      </trkpt>
      <trkpt lat="46.37614" lon="5.17757">
        <ele>217</ele>
        <time>2022-07-23T11:30:36Z</time>
      </trkpt>
      <trkpt lat="46.37583" lon="5.17733">
        <ele>217.4</ele>
        <time>2022-07-23T11:30:41Z</time>
      </trkpt>
      <trkpt lat="46.37577" lon="5.17728">
        <ele>217.4</ele>
        <time>2022-07-23T11:30:42Z</time>
      </trkpt>
      <trkpt lat="46.37555" lon="5.17712">
        <ele>217.8</ele>
        <time>2022-07-23T11:30:46Z</time>
      </trkpt>
      <trkpt lat="46.37533" lon="5.17695">
        <ele>218.6</ele>
        <time>2022-07-23T11:30:50Z</time>
      </trkpt>
      <trkpt lat="46.37522" lon="5.17689">
        <ele>219.4</ele>
        <time>2022-07-23T11:30:52Z</time>
      </trkpt>
      <trkpt lat="46.37511" lon="5.17684">
        <ele>219.8</ele>
        <time>2022-07-23T11:30:54Z</time>
      </trkpt>
      <trkpt lat="46.37488" lon="5.17676">
        <ele>220.6</ele>
        <time>2022-07-23T11:30:58Z</time>
      </trkpt>
      <trkpt lat="46.37471" lon="5.17669">
        <ele>220.8</ele>
        <time>2022-07-23T11:31:01Z</time>
      </trkpt>
      <trkpt lat="46.37432" lon="5.17652">
        <ele>220.8</ele>
        <time>2022-07-23T11:31:07Z</time>
      </trkpt>
      <trkpt lat="46.37381" lon="5.17629">
        <ele>220</ele>
        <time>2022-07-23T11:31:15Z</time>
      </trkpt>
      <trkpt lat="46.37332" lon="5.17607">
        <ele>220</ele>
        <time>2022-07-23T11:31:23Z</time>
      </trkpt>
      <trkpt lat="46.37284" lon="5.17584">
        <ele>220.8</ele>
        <time>2022-07-23T11:31:31Z</time>
      </trkpt>
      <trkpt lat="46.3724" lon="5.17565">
        <ele>221</ele>
        <time>2022-07-23T11:31:38Z</time>
      </trkpt>
      <trkpt lat="46.37234" lon="5.17563">
        <ele>221</ele>
        <time>2022-07-23T11:31:39Z</time>
      </trkpt>
      <trkpt lat="46.37185" lon="5.17542">
        <ele>221</ele>
        <time>2022-07-23T11:31:47Z</time>
      </trkpt>
      <trkpt lat="46.37145" lon="5.17526">
        <ele>220.8</ele>
        <time>2022-07-23T11:31:54Z</time>
      </trkpt>
      <trkpt lat="46.37136" lon="5.17522">
        <ele>221</ele>
        <time>2022-07-23T11:31:55Z</time>
      </trkpt>
      <trkpt lat="46.37109" lon="5.17515">
        <ele>221</ele>
        <time>2022-07-23T11:31:59Z</time>
      </trkpt>
      <trkpt lat="46.3709" lon="5.17515">
        <ele>221</ele>
        <time>2022-07-23T11:32:02Z</time>
      </trkpt>
      <trkpt lat="46.37077" lon="5.17518">
        <ele>221.2</ele>
        <time>2022-07-23T11:32:04Z</time>
      </trkpt>
      <trkpt lat="46.37072" lon="5.17519">
        <ele>221.2</ele>
        <time>2022-07-23T11:32:05Z</time>
      </trkpt>
      <trkpt lat="46.3706" lon="5.17525">
        <ele>221.4</ele>
        <time>2022-07-23T11:32:07Z</time>
      </trkpt>
      <trkpt lat="46.37056" lon="5.17529">
        <ele>221.4</ele>
        <time>2022-07-23T11:32:08Z</time>
      </trkpt>
      <trkpt lat="46.37051" lon="5.17534">
        <ele>221.4</ele>
        <time>2022-07-23T11:32:09Z</time>
      </trkpt>
      <trkpt lat="46.37043" lon="5.17543">
        <ele>221.6</ele>
        <time>2022-07-23T11:32:11Z</time>
      </trkpt>
      <trkpt lat="46.37033" lon="5.17547">
        <ele>221.8</ele>
        <time>2022-07-23T11:32:13Z</time>
      </trkpt>
      <trkpt lat="46.37014" lon="5.17539">
        <ele>222</ele>
        <time>2022-07-23T11:32:16Z</time>
      </trkpt>
      <trkpt lat="46.37008" lon="5.17536">
        <ele>222</ele>
        <time>2022-07-23T11:32:17Z</time>
      </trkpt>
      <trkpt lat="46.36999" lon="5.17525">
        <ele>222</ele>
        <time>2022-07-23T11:32:19Z</time>
      </trkpt>
      <trkpt lat="46.36995" lon="5.17508">
        <ele>221.8</ele>
        <time>2022-07-23T11:32:21Z</time>
      </trkpt>
      <trkpt lat="46.36992" lon="5.17499">
        <ele>221.8</ele>
        <time>2022-07-23T11:32:22Z</time>
      </trkpt>
      <trkpt lat="46.36987" lon="5.17492">
        <ele>221.6</ele>
        <time>2022-07-23T11:32:23Z</time>
      </trkpt>
      <trkpt lat="46.36975" lon="5.17483">
        <ele>221.2</ele>
        <time>2022-07-23T11:32:25Z</time>
      </trkpt>
      <trkpt lat="46.3697" lon="5.17479">
        <ele>221.2</ele>
        <time>2022-07-23T11:32:26Z</time>
      </trkpt>
      <trkpt lat="46.36957" lon="5.17475">
        <ele>221.2</ele>
        <time>2022-07-23T11:32:28Z</time>
      </trkpt>
      <trkpt lat="46.3695" lon="5.17474">
        <ele>221.2</ele>
        <time>2022-07-23T11:32:29Z</time>
      </trkpt>
      <trkpt lat="46.369" lon="5.17468">
        <ele>221.4</ele>
        <time>2022-07-23T11:32:36Z</time>
      </trkpt>
      <trkpt lat="46.36858" lon="5.1746">
        <ele>221.4</ele>
        <time>2022-07-23T11:32:42Z</time>
      </trkpt>
      <trkpt lat="46.36833" lon="5.17444">
        <ele>221.2</ele>
        <time>2022-07-23T11:32:46Z</time>
      </trkpt>
      <trkpt lat="46.3682" lon="5.17435">
        <ele>221.2</ele>
        <time>2022-07-23T11:32:48Z</time>
      </trkpt>
      <trkpt lat="46.36786" lon="5.17398">
        <ele>221</ele>
        <time>2022-07-23T11:32:54Z</time>
      </trkpt>
      <trkpt lat="46.36745" lon="5.17346">
        <ele>221</ele>
        <time>2022-07-23T11:33:02Z</time>
      </trkpt>
      <trkpt lat="46.36729" lon="5.17329">
        <ele>221.2</ele>
        <time>2022-07-23T11:33:05Z</time>
      </trkpt>
      <trkpt lat="46.36717" lon="5.17323">
        <ele>221.2</ele>
        <time>2022-07-23T11:33:07Z</time>
      </trkpt>
      <trkpt lat="46.36679" lon="5.17321">
        <ele>221.2</ele>
        <time>2022-07-23T11:33:12Z</time>
      </trkpt>
      <trkpt lat="46.36632" lon="5.17325">
        <ele>220.8</ele>
        <time>2022-07-23T11:33:18Z</time>
      </trkpt>
      <trkpt lat="46.36624" lon="5.17327">
        <ele>220.6</ele>
        <time>2022-07-23T11:33:19Z</time>
      </trkpt>
      <trkpt lat="46.36569" lon="5.17342">
        <ele>219.8</ele>
        <time>2022-07-23T11:33:26Z</time>
      </trkpt>
      <trkpt lat="46.36553" lon="5.17348">
        <ele>219.6</ele>
        <time>2022-07-23T11:33:28Z</time>
      </trkpt>
      <trkpt lat="46.36537" lon="5.17349">
        <ele>219.6</ele>
        <time>2022-07-23T11:33:30Z</time>
      </trkpt>
      <trkpt lat="46.36502" lon="5.17339">
        <ele>219.2</ele>
        <time>2022-07-23T11:33:34Z</time>
      </trkpt>
      <trkpt lat="46.36451" lon="5.17319">
        <ele>218.6</ele>
        <time>2022-07-23T11:33:40Z</time>
      </trkpt>
      <trkpt lat="46.36419" lon="5.17303">
        <ele>217.8</ele>
        <time>2022-07-23T11:33:44Z</time>
      </trkpt>
      <trkpt lat="46.3641" lon="5.17301">
        <ele>217.6</ele>
        <time>2022-07-23T11:33:45Z</time>
      </trkpt>
      <trkpt lat="46.36402" lon="5.17302">
        <ele>217.6</ele>
        <time>2022-07-23T11:33:46Z</time>
      </trkpt>
      <trkpt lat="46.36394" lon="5.17305">
        <ele>217.6</ele>
        <time>2022-07-23T11:33:47Z</time>
      </trkpt>
      <trkpt lat="46.36386" lon="5.17309">
        <ele>217.6</ele>
        <time>2022-07-23T11:33:48Z</time>
      </trkpt>
      <trkpt lat="46.36348" lon="5.1734">
        <ele>217.2</ele>
        <time>2022-07-23T11:33:53Z</time>
      </trkpt>
      <trkpt lat="46.36296" lon="5.17382">
        <ele>216.6</ele>
        <time>2022-07-23T11:34:00Z</time>
      </trkpt>
      <trkpt lat="46.3629" lon="5.1739">
        <ele>216.4</ele>
        <time>2022-07-23T11:34:01Z</time>
      </trkpt>
      <trkpt lat="46.36286" lon="5.17399">
        <ele>216.6</ele>
        <time>2022-07-23T11:34:02Z</time>
      </trkpt>
      <trkpt lat="46.36283" lon="5.1741">
        <ele>216.6</ele>
        <time>2022-07-23T11:34:03Z</time>
      </trkpt>
      <trkpt lat="46.36267" lon="5.17461">
        <ele>216.2</ele>
        <time>2022-07-23T11:34:08Z</time>
      </trkpt>
      <trkpt lat="46.36262" lon="5.1747">
        <ele>216.2</ele>
        <time>2022-07-23T11:34:09Z</time>
      </trkpt>
      <trkpt lat="46.36256" lon="5.17477">
        <ele>216.2</ele>
        <time>2022-07-23T11:34:10Z</time>
      </trkpt>
      <trkpt lat="46.36241" lon="5.17489">
        <ele>216</ele>
        <time>2022-07-23T11:34:12Z</time>
      </trkpt>
      <trkpt lat="46.36223" lon="5.17494">
        <ele>216</ele>
        <time>2022-07-23T11:34:14Z</time>
      </trkpt>
      <trkpt lat="46.36214" lon="5.17494">
        <ele>215.4</ele>
        <time>2022-07-23T11:34:15Z</time>
      </trkpt>
      <trkpt lat="46.36196" lon="5.17496">
        <ele>214.4</ele>
        <time>2022-07-23T11:34:17Z</time>
      </trkpt>
      <trkpt lat="46.36186" lon="5.17499">
        <ele>214</ele>
        <time>2022-07-23T11:34:18Z</time>
      </trkpt>
      <trkpt lat="46.36166" lon="5.17507">
        <ele>213.4</ele>
        <time>2022-07-23T11:34:20Z</time>
      </trkpt>
      <trkpt lat="46.36155" lon="5.17512">
        <ele>213</ele>
        <time>2022-07-23T11:34:21Z</time>
      </trkpt>
      <trkpt lat="46.36131" lon="5.17521">
        <ele>211.4</ele>
        <time>2022-07-23T11:34:23Z</time>
      </trkpt>
      <trkpt lat="46.36098" lon="5.17522">
        <ele>209.6</ele>
        <time>2022-07-23T11:34:25Z</time>
      </trkpt>
      <trkpt lat="46.36085" lon="5.17519">
        <ele>208.6</ele>
        <time>2022-07-23T11:34:26Z</time>
      </trkpt>
      <trkpt lat="46.36067" lon="5.17514">
        <ele>206.4</ele>
        <time>2022-07-23T11:34:28Z</time>
      </trkpt>
      <trkpt lat="46.36055" lon="5.17511">
        <ele>204.8</ele>
        <time>2022-07-23T11:34:29Z</time>
      </trkpt>
      <trkpt lat="46.36042" lon="5.17508">
        <ele>204.2</ele>
        <time>2022-07-23T11:34:30Z</time>
      </trkpt>
      <trkpt lat="46.36031" lon="5.17507">
        <ele>203</ele>
        <time>2022-07-23T11:34:31Z</time>
      </trkpt>
      <trkpt lat="46.3602" lon="5.17508">
        <ele>202.6</ele>
        <time>2022-07-23T11:34:32Z</time>
      </trkpt>
      <trkpt lat="46.36009" lon="5.1751">
        <ele>201.8</ele>
        <time>2022-07-23T11:34:33Z</time>
      </trkpt>
      <trkpt lat="46.35999" lon="5.17513">
        <ele>201.6</ele>
        <time>2022-07-23T11:34:34Z</time>
      </trkpt>
      <trkpt lat="46.35962" lon="5.17522">
        <ele>201.6</ele>
        <time>2022-07-23T11:34:38Z</time>
      </trkpt>
      <trkpt lat="46.35933" lon="5.17529">
        <ele>203</ele>
        <time>2022-07-23T11:34:42Z</time>
      </trkpt>
      <trkpt lat="46.3592" lon="5.1753">
        <ele>204</ele>
        <time>2022-07-23T11:34:44Z</time>
      </trkpt>
      <trkpt lat="46.35908" lon="5.17529">
        <ele>205.2</ele>
        <time>2022-07-23T11:34:46Z</time>
      </trkpt>
      <trkpt lat="46.35896" lon="5.17529">
        <ele>206.4</ele>
        <time>2022-07-23T11:34:48Z</time>
      </trkpt>
      <trkpt lat="46.35891" lon="5.17529">
        <ele>207</ele>
        <time>2022-07-23T11:34:49Z</time>
      </trkpt>
      <trkpt lat="46.35886" lon="5.1753">
        <ele>207.6</ele>
        <time>2022-07-23T11:34:50Z</time>
      </trkpt>
      <trkpt lat="46.35877" lon="5.1753">
        <ele>208</ele>
        <time>2022-07-23T11:34:52Z</time>
      </trkpt>
      <trkpt lat="46.35866" lon="5.17529">
        <ele>208.8</ele>
        <time>2022-07-23T11:34:54Z</time>
      </trkpt>
      <trkpt lat="46.35847" lon="5.17531">
        <ele>210.2</ele>
        <time>2022-07-23T11:34:58Z</time>
      </trkpt>
      <trkpt lat="46.35834" lon="5.17534">
        <ele>211.2</ele>
        <time>2022-07-23T11:35:01Z</time>
      </trkpt>
      <trkpt lat="46.3581" lon="5.1754">
        <ele>212.4</ele>
        <time>2022-07-23T11:35:06Z</time>
      </trkpt>
      <trkpt lat="46.35786" lon="5.17546">
        <ele>213.6</ele>
        <time>2022-07-23T11:35:11Z</time>
      </trkpt>
      <trkpt lat="46.35769" lon="5.17551">
        <ele>214</ele>
        <time>2022-07-23T11:35:14Z</time>
      </trkpt>
      <trkpt lat="46.35747" lon="5.17561">
        <ele>214.6</ele>
        <time>2022-07-23T11:35:18Z</time>
      </trkpt>
      <trkpt lat="46.35732" lon="5.1757">
        <ele>214.8</ele>
        <time>2022-07-23T11:35:21Z</time>
      </trkpt>
      <trkpt lat="46.35692" lon="5.17587">
        <ele>214.2</ele>
        <time>2022-07-23T11:35:27Z</time>
      </trkpt>
      <trkpt lat="46.35668" lon="5.17591">
        <ele>213.6</ele>
        <time>2022-07-23T11:35:30Z</time>
      </trkpt>
      <trkpt lat="46.35645" lon="5.17593">
        <ele>212.8</ele>
        <time>2022-07-23T11:35:33Z</time>
      </trkpt>
      <trkpt lat="46.35629" lon="5.17594">
        <ele>212.4</ele>
        <time>2022-07-23T11:35:35Z</time>
      </trkpt>
      <trkpt lat="46.35593" lon="5.17594">
        <ele>211.6</ele>
        <time>2022-07-23T11:35:39Z</time>
      </trkpt>
      <trkpt lat="46.35585" lon="5.17594">
        <ele>211.4</ele>
        <time>2022-07-23T11:35:40Z</time>
      </trkpt>
      <trkpt lat="46.35537" lon="5.17586">
        <ele>211.2</ele>
        <time>2022-07-23T11:35:46Z</time>
      </trkpt>
      <trkpt lat="46.35506" lon="5.17575">
        <ele>211.8</ele>
        <time>2022-07-23T11:35:51Z</time>
      </trkpt>
      <trkpt lat="46.3549" lon="5.1757">
        <ele>212.4</ele>
        <time>2022-07-23T11:35:54Z</time>
      </trkpt>
      <trkpt lat="46.35473" lon="5.17565">
        <ele>213.6</ele>
        <time>2022-07-23T11:35:57Z</time>
      </trkpt>
      <trkpt lat="46.35468" lon="5.17563">
        <ele>213.8</ele>
        <time>2022-07-23T11:35:58Z</time>
      </trkpt>
      <trkpt lat="46.35456" lon="5.1756">
        <ele>214.6</ele>
        <time>2022-07-23T11:36:00Z</time>
      </trkpt>
      <trkpt lat="46.35413" lon="5.17545">
        <ele>215.4</ele>
        <time>2022-07-23T11:36:07Z</time>
      </trkpt>
      <trkpt lat="46.35384" lon="5.17522">
        <ele>215.4</ele>
        <time>2022-07-23T11:36:12Z</time>
      </trkpt>
      <trkpt lat="46.35371" lon="5.17511">
        <ele>215.4</ele>
        <time>2022-07-23T11:36:14Z</time>
      </trkpt>
      <trkpt lat="46.35358" lon="5.17507">
        <ele>215.2</ele>
        <time>2022-07-23T11:36:16Z</time>
      </trkpt>
      <trkpt lat="46.35344" lon="5.17511">
        <ele>215</ele>
        <time>2022-07-23T11:36:18Z</time>
      </trkpt>
      <trkpt lat="46.35338" lon="5.17517">
        <ele>215</ele>
        <time>2022-07-23T11:36:19Z</time>
      </trkpt>
      <trkpt lat="46.35296" lon="5.17563">
        <ele>214.4</ele>
        <time>2022-07-23T11:36:25Z</time>
      </trkpt>
      <trkpt lat="46.35278" lon="5.17578">
        <ele>213.6</ele>
        <time>2022-07-23T11:36:28Z</time>
      </trkpt>
      <trkpt lat="46.35262" lon="5.17586">
        <ele>213.2</ele>
        <time>2022-07-23T11:36:30Z</time>
      </trkpt>
      <trkpt lat="46.35224" lon="5.176">
        <ele>212.8</ele>
        <time>2022-07-23T11:36:35Z</time>
      </trkpt>
      <trkpt lat="46.35193" lon="5.1762">
        <ele>213.6</ele>
        <time>2022-07-23T11:36:40Z</time>
      </trkpt>
      <trkpt lat="46.3517" lon="5.17638">
        <ele>214.6</ele>
        <time>2022-07-23T11:36:44Z</time>
      </trkpt>
      <trkpt lat="46.35158" lon="5.17648">
        <ele>215</ele>
        <time>2022-07-23T11:36:46Z</time>
      </trkpt>
      <trkpt lat="46.35135" lon="5.17665">
        <ele>215.6</ele>
        <time>2022-07-23T11:36:50Z</time>
      </trkpt>
      <trkpt lat="46.35129" lon="5.17668">
        <ele>216</ele>
        <time>2022-07-23T11:36:51Z</time>
      </trkpt>
      <trkpt lat="46.35121" lon="5.17671">
        <ele>216</ele>
        <time>2022-07-23T11:36:52Z</time>
      </trkpt>
      <trkpt lat="46.35091" lon="5.17671">
        <ele>216</ele>
        <time>2022-07-23T11:36:56Z</time>
      </trkpt>
      <trkpt lat="46.35035" lon="5.17671">
        <ele>215</ele>
        <time>2022-07-23T11:37:03Z</time>
      </trkpt>
      <trkpt lat="46.35027" lon="5.17672">
        <ele>215</ele>
        <time>2022-07-23T11:37:04Z</time>
      </trkpt>
      <trkpt lat="46.34986" lon="5.17665">
        <ele>213.8</ele>
        <time>2022-07-23T11:37:09Z</time>
      </trkpt>
      <trkpt lat="46.34929" lon="5.17642">
        <ele>213</ele>
        <time>2022-07-23T11:37:16Z</time>
      </trkpt>
      <trkpt lat="46.34906" lon="5.17633">
        <ele>212.8</ele>
        <time>2022-07-23T11:37:19Z</time>
      </trkpt>
      <trkpt lat="46.34891" lon="5.17624">
        <ele>212.4</ele>
        <time>2022-07-23T11:37:21Z</time>
      </trkpt>
      <trkpt lat="46.34859" lon="5.17606">
        <ele>211.8</ele>
        <time>2022-07-23T11:37:25Z</time>
      </trkpt>
      <trkpt lat="46.34812" lon="5.1759">
        <ele>210.2</ele>
        <time>2022-07-23T11:37:30Z</time>
      </trkpt>
      <trkpt lat="46.34779" lon="5.17587">
        <ele>208.2</ele>
        <time>2022-07-23T11:37:33Z</time>
      </trkpt>
      <trkpt lat="46.34757" lon="5.17586">
        <ele>207.4</ele>
        <time>2022-07-23T11:37:35Z</time>
      </trkpt>
      <trkpt lat="46.34747" lon="5.17585">
        <ele>207.2</ele>
        <time>2022-07-23T11:37:36Z</time>
      </trkpt>
      <trkpt lat="46.34727" lon="5.17582">
        <ele>206.2</ele>
        <time>2022-07-23T11:37:38Z</time>
      </trkpt>
      <trkpt lat="46.34698" lon="5.17578">
        <ele>205.6</ele>
        <time>2022-07-23T11:37:41Z</time>
      </trkpt>
      <trkpt lat="46.3465" lon="5.17571">
        <ele>205.8</ele>
        <time>2022-07-23T11:37:47Z</time>
      </trkpt>
      <trkpt lat="46.34621" lon="5.17568">
        <ele>208</ele>
        <time>2022-07-23T11:37:52Z</time>
      </trkpt>
      <trkpt lat="46.34611" lon="5.17566">
        <ele>209.2</ele>
        <time>2022-07-23T11:37:54Z</time>
      </trkpt>
      <trkpt lat="46.34599" lon="5.17566">
        <ele>210.4</ele>
        <time>2022-07-23T11:37:57Z</time>
      </trkpt>
      <trkpt lat="46.34592" lon="5.17566">
        <ele>211</ele>
        <time>2022-07-23T11:37:58Z</time>
      </trkpt>
      <trkpt lat="46.34588" lon="5.17565">
        <ele>211.6</ele>
        <time>2022-07-23T11:37:59Z</time>
      </trkpt>
      <trkpt lat="46.34573" lon="5.17562">
        <ele>212.8</ele>
        <time>2022-07-23T11:38:02Z</time>
      </trkpt>
      <trkpt lat="46.34563" lon="5.17561">
        <ele>213.8</ele>
        <time>2022-07-23T11:38:04Z</time>
      </trkpt>
      <trkpt lat="46.34553" lon="5.17561">
        <ele>214.2</ele>
        <time>2022-07-23T11:38:06Z</time>
      </trkpt>
      <trkpt lat="46.34534" lon="5.17561">
        <ele>215</ele>
        <time>2022-07-23T11:38:10Z</time>
      </trkpt>
      <trkpt lat="46.34516" lon="5.17564">
        <ele>215.8</ele>
        <time>2022-07-23T11:38:14Z</time>
      </trkpt>
      <trkpt lat="46.34502" lon="5.17567">
        <ele>216.4</ele>
        <time>2022-07-23T11:38:17Z</time>
      </trkpt>
      <trkpt lat="46.3448" lon="5.1757">
        <ele>217</ele>
        <time>2022-07-23T11:38:21Z</time>
      </trkpt>
      <trkpt lat="46.3447" lon="5.17571">
        <ele>217</ele>
        <time>2022-07-23T11:38:23Z</time>
      </trkpt>
      <trkpt lat="46.34459" lon="5.17571">
        <ele>217.4</ele>
        <time>2022-07-23T11:38:25Z</time>
      </trkpt>
      <trkpt lat="46.34448" lon="5.17572">
        <ele>217.6</ele>
        <time>2022-07-23T11:38:27Z</time>
      </trkpt>
      <trkpt lat="46.34396" lon="5.17579">
        <ele>217.8</ele>
        <time>2022-07-23T11:38:36Z</time>
      </trkpt>
      <trkpt lat="46.3436" lon="5.17597">
        <ele>218.4</ele>
        <time>2022-07-23T11:38:42Z</time>
      </trkpt>
      <trkpt lat="46.34354" lon="5.17601">
        <ele>218.6</ele>
        <time>2022-07-23T11:38:43Z</time>
      </trkpt>
      <trkpt lat="46.34316" lon="5.17634">
        <ele>219</ele>
        <time>2022-07-23T11:38:50Z</time>
      </trkpt>
      <trkpt lat="46.34282" lon="5.1767">
        <ele>219.4</ele>
        <time>2022-07-23T11:38:56Z</time>
      </trkpt>
      <trkpt lat="46.34258" lon="5.17695">
        <ele>219.4</ele>
        <time>2022-07-23T11:39:00Z</time>
      </trkpt>
      <trkpt lat="46.34209" lon="5.17744">
        <ele>219</ele>
        <time>2022-07-23T11:39:08Z</time>
      </trkpt>
      <trkpt lat="46.34202" lon="5.1775">
        <ele>218.8</ele>
        <time>2022-07-23T11:39:09Z</time>
      </trkpt>
      <trkpt lat="46.34149" lon="5.17795">
        <ele>218.4</ele>
        <time>2022-07-23T11:39:17Z</time>
      </trkpt>
      <trkpt lat="46.34142" lon="5.17801">
        <ele>218.2</ele>
        <time>2022-07-23T11:39:18Z</time>
      </trkpt>
      <trkpt lat="46.34136" lon="5.17807">
        <ele>218.2</ele>
        <time>2022-07-23T11:39:19Z</time>
      </trkpt>
      <trkpt lat="46.34087" lon="5.17858">
        <ele>217.6</ele>
        <time>2022-07-23T11:39:26Z</time>
      </trkpt>
      <trkpt lat="46.34087" lon="5.17858">
        <ele>217.4</ele>
        <time>2022-07-23T11:39:27Z</time>
      </trkpt>
      <trkpt lat="46.34073" lon="5.17876">
        <ele>217.2</ele>
        <time>2022-07-23T11:39:29Z</time>
      </trkpt>
      <trkpt lat="46.34039" lon="5.17924">
        <ele>217</ele>
        <time>2022-07-23T11:39:35Z</time>
      </trkpt>
      <trkpt lat="46.33999" lon="5.17979">
        <ele>217</ele>
        <time>2022-07-23T11:39:42Z</time>
      </trkpt>
      <trkpt lat="46.33969" lon="5.18017">
        <ele>217</ele>
        <time>2022-07-23T11:39:47Z</time>
      </trkpt>
      <trkpt lat="46.33931" lon="5.18053">
        <ele>216.6</ele>
        <time>2022-07-23T11:39:53Z</time>
      </trkpt>
      <trkpt lat="46.33924" lon="5.18057">
        <ele>216.6</ele>
        <time>2022-07-23T11:39:54Z</time>
      </trkpt>
      <trkpt lat="46.33916" lon="5.18059">
        <ele>216.6</ele>
        <time>2022-07-23T11:39:55Z</time>
      </trkpt>
      <trkpt lat="46.33901" lon="5.18055">
        <ele>216.4</ele>
        <time>2022-07-23T11:39:57Z</time>
      </trkpt>
      <trkpt lat="46.33893" lon="5.18052">
        <ele>216.4</ele>
        <time>2022-07-23T11:39:58Z</time>
      </trkpt>
      <trkpt lat="46.33857" lon="5.18038">
        <ele>215.4</ele>
        <time>2022-07-23T11:40:02Z</time>
      </trkpt>
      <trkpt lat="46.33848" lon="5.18036">
        <ele>215.2</ele>
        <time>2022-07-23T11:40:03Z</time>
      </trkpt>
      <trkpt lat="46.33828" lon="5.18035">
        <ele>213.6</ele>
        <time>2022-07-23T11:40:05Z</time>
      </trkpt>
      <trkpt lat="46.33818" lon="5.18036">
        <ele>212.8</ele>
        <time>2022-07-23T11:40:06Z</time>
      </trkpt>
      <trkpt lat="46.33808" lon="5.18037">
        <ele>212.4</ele>
        <time>2022-07-23T11:40:07Z</time>
      </trkpt>
      <trkpt lat="46.33789" lon="5.18041">
        <ele>211.2</ele>
        <time>2022-07-23T11:40:09Z</time>
      </trkpt>
      <trkpt lat="46.33763" lon="5.1805">
        <ele>210.4</ele>
        <time>2022-07-23T11:40:12Z</time>
      </trkpt>
      <trkpt lat="46.33754" lon="5.18053">
        <ele>210.2</ele>
        <time>2022-07-23T11:40:13Z</time>
      </trkpt>
      <trkpt lat="46.33721" lon="5.18073">
        <ele>210</ele>
        <time>2022-07-23T11:40:17Z</time>
      </trkpt>
      <trkpt lat="46.33683" lon="5.18094">
        <ele>210</ele>
        <time>2022-07-23T11:40:22Z</time>
      </trkpt>
      <trkpt lat="46.33675" lon="5.18096">
        <ele>210.2</ele>
        <time>2022-07-23T11:40:23Z</time>
      </trkpt>
      <trkpt lat="46.33636" lon="5.18099">
        <ele>210.2</ele>
        <time>2022-07-23T11:40:28Z</time>
      </trkpt>
      <trkpt lat="46.33596" lon="5.18094">
        <ele>210.2</ele>
        <time>2022-07-23T11:40:33Z</time>
      </trkpt>
      <trkpt lat="46.33589" lon="5.18091">
        <ele>210.2</ele>
        <time>2022-07-23T11:40:34Z</time>
      </trkpt>
      <trkpt lat="46.33581" lon="5.18085">
        <ele>210.2</ele>
        <time>2022-07-23T11:40:36Z</time>
      </trkpt>
      <trkpt lat="46.33572" lon="5.18072">
        <ele>210.4</ele>
        <time>2022-07-23T11:40:38Z</time>
      </trkpt>
      <trkpt lat="46.33559" lon="5.18042">
        <ele>211.4</ele>
        <time>2022-07-23T11:40:42Z</time>
      </trkpt>
      <trkpt lat="46.33545" lon="5.18019">
        <ele>212.8</ele>
        <time>2022-07-23T11:40:46Z</time>
      </trkpt>
      <trkpt lat="46.33541" lon="5.18014">
        <ele>213</ele>
        <time>2022-07-23T11:40:47Z</time>
      </trkpt>
      <trkpt lat="46.33532" lon="5.18007">
        <ele>213.6</ele>
        <time>2022-07-23T11:40:49Z</time>
      </trkpt>
      <trkpt lat="46.33522" lon="5.18003">
        <ele>214.2</ele>
        <time>2022-07-23T11:40:51Z</time>
      </trkpt>
      <trkpt lat="46.33512" lon="5.18001">
        <ele>215.2</ele>
        <time>2022-07-23T11:40:53Z</time>
      </trkpt>
      <trkpt lat="46.33507" lon="5.18001">
        <ele>215.4</ele>
        <time>2022-07-23T11:40:54Z</time>
      </trkpt>
      <trkpt lat="46.33498" lon="5.18002">
        <ele>216.2</ele>
        <time>2022-07-23T11:40:56Z</time>
      </trkpt>
      <trkpt lat="46.33493" lon="5.18003">
        <ele>216.4</ele>
        <time>2022-07-23T11:40:57Z</time>
      </trkpt>
      <trkpt lat="46.33467" lon="5.18007">
        <ele>217.4</ele>
        <time>2022-07-23T11:41:02Z</time>
      </trkpt>
      <trkpt lat="46.33451" lon="5.1801">
        <ele>218.2</ele>
        <time>2022-07-23T11:41:05Z</time>
      </trkpt>
      <trkpt lat="46.3344" lon="5.18012">
        <ele>218.6</ele>
        <time>2022-07-23T11:41:07Z</time>
      </trkpt>
      <trkpt lat="46.3342" lon="5.18019">
        <ele>219</ele>
        <time>2022-07-23T11:41:11Z</time>
      </trkpt>
      <trkpt lat="46.33415" lon="5.1802">
        <ele>219</ele>
        <time>2022-07-23T11:41:12Z</time>
      </trkpt>
      <trkpt lat="46.33411" lon="5.18022">
        <ele>219</ele>
        <time>2022-07-23T11:41:13Z</time>
      </trkpt>
      <trkpt lat="46.33398" lon="5.18026">
        <ele>219.2</ele>
        <time>2022-07-23T11:41:16Z</time>
      </trkpt>
      <trkpt lat="46.33381" lon="5.18031">
        <ele>219.4</ele>
        <time>2022-07-23T11:41:20Z</time>
      </trkpt>
      <trkpt lat="46.33378" lon="5.1803">
        <ele>219.6</ele>
        <time>2022-07-23T11:41:21Z</time>
      </trkpt>
      <trkpt lat="46.33373" lon="5.1803">
        <ele>219.8</ele>
        <time>2022-07-23T11:41:23Z</time>
      </trkpt>
      <trkpt lat="46.3337" lon="5.18033">
        <ele>219.8</ele>
        <time>2022-07-23T11:41:24Z</time>
      </trkpt>
      <trkpt lat="46.33371" lon="5.18051">
        <ele>220</ele>
        <time>2022-07-23T11:41:27Z</time>
      </trkpt>
      <trkpt lat="46.33369" lon="5.18056">
        <ele>220</ele>
        <time>2022-07-23T11:41:28Z</time>
      </trkpt>
      <trkpt lat="46.3336" lon="5.18064">
        <ele>220.2</ele>
        <time>2022-07-23T11:41:30Z</time>
      </trkpt>
      <trkpt lat="46.33328" lon="5.1807">
        <ele>220.2</ele>
        <time>2022-07-23T11:41:35Z</time>
      </trkpt>
      <trkpt lat="46.33288" lon="5.18079">
        <ele>220.4</ele>
        <time>2022-07-23T11:41:41Z</time>
      </trkpt>
      <trkpt lat="46.33234" lon="5.1808">
        <ele>220.4</ele>
        <time>2022-07-23T11:41:49Z</time>
      </trkpt>
      <trkpt lat="46.33227" lon="5.1808">
        <ele>220.4</ele>
        <time>2022-07-23T11:41:50Z</time>
      </trkpt>
      <trkpt lat="46.33173" lon="5.18083">
        <ele>220</ele>
        <time>2022-07-23T11:41:57Z</time>
      </trkpt>
      <trkpt lat="46.33135" lon="5.18073">
        <ele>219</ele>
        <time>2022-07-23T11:42:01Z</time>
      </trkpt>
      <trkpt lat="46.33116" lon="5.18065">
        <ele>218.4</ele>
        <time>2022-07-23T11:42:03Z</time>
      </trkpt>
      <trkpt lat="46.33096" lon="5.1806">
        <ele>217.2</ele>
        <time>2022-07-23T11:42:05Z</time>
      </trkpt>
      <trkpt lat="46.33077" lon="5.18059">
        <ele>216.4</ele>
        <time>2022-07-23T11:42:07Z</time>
      </trkpt>
      <trkpt lat="46.33068" lon="5.18059">
        <ele>216</ele>
        <time>2022-07-23T11:42:08Z</time>
      </trkpt>
      <trkpt lat="46.33043" lon="5.18062">
        <ele>215.4</ele>
        <time>2022-07-23T11:42:11Z</time>
      </trkpt>
      <trkpt lat="46.33" lon="5.18077">
        <ele>216.8</ele>
        <time>2022-07-23T11:42:17Z</time>
      </trkpt>
      <trkpt lat="46.32993" lon="5.18079">
        <ele>217.2</ele>
        <time>2022-07-23T11:42:18Z</time>
      </trkpt>
      <trkpt lat="46.32967" lon="5.18088">
        <ele>218.2</ele>
        <time>2022-07-23T11:42:22Z</time>
      </trkpt>
      <trkpt lat="46.32944" lon="5.18095">
        <ele>219</ele>
        <time>2022-07-23T11:42:25Z</time>
      </trkpt>
      <trkpt lat="46.32931" lon="5.18098">
        <ele>219.6</ele>
        <time>2022-07-23T11:42:27Z</time>
      </trkpt>
      <trkpt lat="46.32915" lon="5.18102">
        <ele>220.2</ele>
        <time>2022-07-23T11:42:30Z</time>
      </trkpt>
      <trkpt lat="46.32908" lon="5.18104">
        <ele>220.6</ele>
        <time>2022-07-23T11:42:31Z</time>
      </trkpt>
      <trkpt lat="46.32901" lon="5.18106">
        <ele>220.8</ele>
        <time>2022-07-23T11:42:32Z</time>
      </trkpt>
      <trkpt lat="46.32846" lon="5.18117">
        <ele>221.4</ele>
        <time>2022-07-23T11:42:40Z</time>
      </trkpt>
      <trkpt lat="46.32839" lon="5.18118">
        <ele>221.4</ele>
        <time>2022-07-23T11:42:41Z</time>
      </trkpt>
      <trkpt lat="46.3279" lon="5.1811">
        <ele>221.2</ele>
        <time>2022-07-23T11:42:48Z</time>
      </trkpt>
      <trkpt lat="46.32733" lon="5.18103">
        <ele>221.4</ele>
        <time>2022-07-23T11:42:56Z</time>
      </trkpt>
      <trkpt lat="46.32725" lon="5.18101">
        <ele>221.4</ele>
        <time>2022-07-23T11:42:57Z</time>
      </trkpt>
      <trkpt lat="46.32678" lon="5.18077">
        <ele>221.4</ele>
        <time>2022-07-23T11:43:04Z</time>
      </trkpt>
      <trkpt lat="46.32641" lon="5.1805">
        <ele>221.6</ele>
        <time>2022-07-23T11:43:10Z</time>
      </trkpt>
      <trkpt lat="46.32628" lon="5.18041">
        <ele>221.6</ele>
        <time>2022-07-23T11:43:12Z</time>
      </trkpt>
      <trkpt lat="46.32607" lon="5.18033">
        <ele>222</ele>
        <time>2022-07-23T11:43:15Z</time>
      </trkpt>
      <trkpt lat="46.32592" lon="5.18031">
        <ele>222.2</ele>
        <time>2022-07-23T11:43:17Z</time>
      </trkpt>
      <trkpt lat="46.32527" lon="5.18023">
        <ele>222.4</ele>
        <time>2022-07-23T11:43:25Z</time>
      </trkpt>
      <trkpt lat="46.32519" lon="5.18022">
        <ele>222.4</ele>
        <time>2022-07-23T11:43:26Z</time>
      </trkpt>
      <trkpt lat="46.32464" lon="5.18017">
        <ele>222.4</ele>
        <time>2022-07-23T11:43:34Z</time>
      </trkpt>
      <trkpt lat="46.32457" lon="5.18016">
        <ele>222.4</ele>
        <time>2022-07-23T11:43:35Z</time>
      </trkpt>
      <trkpt lat="46.32396" lon="5.18009">
        <ele>222.6</ele>
        <time>2022-07-23T11:43:43Z</time>
      </trkpt>
      <trkpt lat="46.32388" lon="5.18008">
        <ele>222.8</ele>
        <time>2022-07-23T11:43:44Z</time>
      </trkpt>
      <trkpt lat="46.32359" lon="5.17999">
        <ele>222.6</ele>
        <time>2022-07-23T11:43:48Z</time>
      </trkpt>
      <trkpt lat="46.32352" lon="5.17994">
        <ele>222.6</ele>
        <time>2022-07-23T11:43:49Z</time>
      </trkpt>
      <trkpt lat="46.32346" lon="5.17988">
        <ele>222.6</ele>
        <time>2022-07-23T11:43:50Z</time>
      </trkpt>
      <trkpt lat="46.32328" lon="5.17969">
        <ele>222.6</ele>
        <time>2022-07-23T11:43:53Z</time>
      </trkpt>
      <trkpt lat="46.32321" lon="5.17965">
        <ele>222.6</ele>
        <time>2022-07-23T11:43:54Z</time>
      </trkpt>
      <trkpt lat="46.32314" lon="5.17962">
        <ele>222.6</ele>
        <time>2022-07-23T11:43:55Z</time>
      </trkpt>
      <trkpt lat="46.32292" lon="5.17959">
        <ele>222.4</ele>
        <time>2022-07-23T11:43:58Z</time>
      </trkpt>
      <trkpt lat="46.32285" lon="5.17958">
        <ele>222.4</ele>
        <time>2022-07-23T11:43:59Z</time>
      </trkpt>
      <trkpt lat="46.32271" lon="5.17951">
        <ele>222.4</ele>
        <time>2022-07-23T11:44:01Z</time>
      </trkpt>
      <trkpt lat="46.32265" lon="5.17944">
        <ele>222.2</ele>
        <time>2022-07-23T11:44:02Z</time>
      </trkpt>
      <trkpt lat="46.3226" lon="5.17936">
        <ele>222.2</ele>
        <time>2022-07-23T11:44:03Z</time>
      </trkpt>
      <trkpt lat="46.32253" lon="5.17918">
        <ele>222</ele>
        <time>2022-07-23T11:44:05Z</time>
      </trkpt>
      <trkpt lat="46.32247" lon="5.17899">
        <ele>222</ele>
        <time>2022-07-23T11:44:07Z</time>
      </trkpt>
      <trkpt lat="46.32239" lon="5.17883">
        <ele>222</ele>
        <time>2022-07-23T11:44:09Z</time>
      </trkpt>
      <trkpt lat="46.32233" lon="5.17877">
        <ele>222</ele>
        <time>2022-07-23T11:44:10Z</time>
      </trkpt>
      <trkpt lat="46.32226" lon="5.17872">
        <ele>222.2</ele>
        <time>2022-07-23T11:44:11Z</time>
      </trkpt>
      <trkpt lat="46.32212" lon="5.17869">
        <ele>222.2</ele>
        <time>2022-07-23T11:44:13Z</time>
      </trkpt>
      <trkpt lat="46.3219" lon="5.17874">
        <ele>222.4</ele>
        <time>2022-07-23T11:44:16Z</time>
      </trkpt>
      <trkpt lat="46.32183" lon="5.17878">
        <ele>222.6</ele>
        <time>2022-07-23T11:44:17Z</time>
      </trkpt>
      <trkpt lat="46.3217" lon="5.17887">
        <ele>222.6</ele>
        <time>2022-07-23T11:44:19Z</time>
      </trkpt>
      <trkpt lat="46.3215" lon="5.17903">
        <ele>222.6</ele>
        <time>2022-07-23T11:44:22Z</time>
      </trkpt>
      <trkpt lat="46.32117" lon="5.17921">
        <ele>222.6</ele>
        <time>2022-07-23T11:44:27Z</time>
      </trkpt>
      <trkpt lat="46.32099" lon="5.17927">
        <ele>222.6</ele>
        <time>2022-07-23T11:44:29Z</time>
      </trkpt>
      <trkpt lat="46.32083" lon="5.1793">
        <ele>222.6</ele>
        <time>2022-07-23T11:44:31Z</time>
      </trkpt>
      <trkpt lat="46.32075" lon="5.17934">
        <ele>222.6</ele>
        <time>2022-07-23T11:44:32Z</time>
      </trkpt>
      <trkpt lat="46.32061" lon="5.17943">
        <ele>222.4</ele>
        <time>2022-07-23T11:44:34Z</time>
      </trkpt>
      <trkpt lat="46.32041" lon="5.17961">
        <ele>222.2</ele>
        <time>2022-07-23T11:44:37Z</time>
      </trkpt>
      <trkpt lat="46.32027" lon="5.1797">
        <ele>222</ele>
        <time>2022-07-23T11:44:39Z</time>
      </trkpt>
      <trkpt lat="46.3202" lon="5.17971">
        <ele>222.2</ele>
        <time>2022-07-23T11:44:40Z</time>
      </trkpt>
      <trkpt lat="46.32013" lon="5.17969">
        <ele>221.8</ele>
        <time>2022-07-23T11:44:41Z</time>
      </trkpt>
      <trkpt lat="46.32006" lon="5.17964">
        <ele>221.8</ele>
        <time>2022-07-23T11:44:42Z</time>
      </trkpt>
      <trkpt lat="46.32003" lon="5.17956">
        <ele>221.6</ele>
        <time>2022-07-23T11:44:43Z</time>
      </trkpt>
      <trkpt lat="46.32001" lon="5.17946">
        <ele>221.4</ele>
        <time>2022-07-23T11:44:44Z</time>
      </trkpt>
      <trkpt lat="46.31996" lon="5.17921">
        <ele>220.6</ele>
        <time>2022-07-23T11:44:46Z</time>
      </trkpt>
      <trkpt lat="46.31987" lon="5.1788">
        <ele>219.2</ele>
        <time>2022-07-23T11:44:49Z</time>
      </trkpt>
      <trkpt lat="46.31984" lon="5.17866">
        <ele>218.8</ele>
        <time>2022-07-23T11:44:50Z</time>
      </trkpt>
      <trkpt lat="46.31977" lon="5.17837">
        <ele>218</ele>
        <time>2022-07-23T11:44:52Z</time>
      </trkpt>
      <trkpt lat="46.3197" lon="5.17807">
        <ele>216</ele>
        <time>2022-07-23T11:44:54Z</time>
      </trkpt>
      <trkpt lat="46.31961" lon="5.17776">
        <ele>214.6</ele>
        <time>2022-07-23T11:44:56Z</time>
      </trkpt>
      <trkpt lat="46.31953" lon="5.17743">
        <ele>213</ele>
        <time>2022-07-23T11:44:58Z</time>
      </trkpt>
      <trkpt lat="46.31945" lon="5.1771">
        <ele>211.6</ele>
        <time>2022-07-23T11:45:00Z</time>
      </trkpt>
      <trkpt lat="46.31936" lon="5.17677">
        <ele>210.2</ele>
        <time>2022-07-23T11:45:02Z</time>
      </trkpt>
      <trkpt lat="46.31932" lon="5.17661">
        <ele>209.2</ele>
        <time>2022-07-23T11:45:03Z</time>
      </trkpt>
      <trkpt lat="46.31928" lon="5.17645">
        <ele>208.8</ele>
        <time>2022-07-23T11:45:04Z</time>
      </trkpt>
      <trkpt lat="46.31924" lon="5.17629">
        <ele>207.8</ele>
        <time>2022-07-23T11:45:05Z</time>
      </trkpt>
      <trkpt lat="46.31915" lon="5.17597">
        <ele>206.4</ele>
        <time>2022-07-23T11:45:07Z</time>
      </trkpt>
      <trkpt lat="46.3191" lon="5.17582">
        <ele>205.4</ele>
        <time>2022-07-23T11:45:08Z</time>
      </trkpt>
      <trkpt lat="46.31901" lon="5.17554">
        <ele>204.2</ele>
        <time>2022-07-23T11:45:10Z</time>
      </trkpt>
      <trkpt lat="46.31886" lon="5.17531">
        <ele>203.2</ele>
        <time>2022-07-23T11:45:12Z</time>
      </trkpt>
      <trkpt lat="46.31877" lon="5.17523">
        <ele>202.8</ele>
        <time>2022-07-23T11:45:13Z</time>
      </trkpt>
      <trkpt lat="46.31867" lon="5.17517">
        <ele>202.4</ele>
        <time>2022-07-23T11:45:14Z</time>
      </trkpt>
      <trkpt lat="46.31838" lon="5.17507">
        <ele>201.8</ele>
        <time>2022-07-23T11:45:17Z</time>
      </trkpt>
      <trkpt lat="46.3179" lon="5.17493">
        <ele>201.8</ele>
        <time>2022-07-23T11:45:22Z</time>
      </trkpt>
      <trkpt lat="46.31737" lon="5.17483">
        <ele>202</ele>
        <time>2022-07-23T11:45:28Z</time>
      </trkpt>
      <trkpt lat="46.3172" lon="5.17465">
        <ele>202</ele>
        <time>2022-07-23T11:45:30Z</time>
      </trkpt>
      <trkpt lat="46.31702" lon="5.17423">
        <ele>201</ele>
        <time>2022-07-23T11:45:34Z</time>
      </trkpt>
      <trkpt lat="46.31686" lon="5.17382">
        <ele>200.8</ele>
        <time>2022-07-23T11:45:38Z</time>
      </trkpt>
      <trkpt lat="46.31677" lon="5.17362">
        <ele>200.8</ele>
        <time>2022-07-23T11:45:40Z</time>
      </trkpt>
      <trkpt lat="46.31643" lon="5.17298">
        <ele>200.8</ele>
        <time>2022-07-23T11:45:47Z</time>
      </trkpt>
      <trkpt lat="46.31602" lon="5.17232">
        <ele>200.4</ele>
        <time>2022-07-23T11:45:55Z</time>
      </trkpt>
      <trkpt lat="46.31597" lon="5.17224">
        <ele>200.4</ele>
        <time>2022-07-23T11:45:56Z</time>
      </trkpt>
      <trkpt lat="46.31556" lon="5.1716">
        <ele>200</ele>
        <time>2022-07-23T11:46:04Z</time>
      </trkpt>
      <trkpt lat="46.31518" lon="5.17093">
        <ele>200</ele>
        <time>2022-07-23T11:46:12Z</time>
      </trkpt>
      <trkpt lat="46.31513" lon="5.17085">
        <ele>200</ele>
        <time>2022-07-23T11:46:13Z</time>
      </trkpt>
      <trkpt lat="46.31474" lon="5.17035">
        <ele>199.8</ele>
        <time>2022-07-23T11:46:20Z</time>
      </trkpt>
      <trkpt lat="46.31458" lon="5.17013">
        <ele>199.6</ele>
        <time>2022-07-23T11:46:23Z</time>
      </trkpt>
      <trkpt lat="46.31433" lon="5.16979">
        <ele>199.6</ele>
        <time>2022-07-23T11:46:28Z</time>
      </trkpt>
      <trkpt lat="46.31428" lon="5.16966">
        <ele>199.8</ele>
        <time>2022-07-23T11:46:29Z</time>
      </trkpt>
      <trkpt lat="46.31425" lon="5.16955">
        <ele>199.8</ele>
        <time>2022-07-23T11:46:30Z</time>
      </trkpt>
      <trkpt lat="46.31419" lon="5.16923">
        <ele>199.8</ele>
        <time>2022-07-23T11:46:33Z</time>
      </trkpt>
      <trkpt lat="46.31414" lon="5.16892">
        <ele>199.8</ele>
        <time>2022-07-23T11:46:36Z</time>
      </trkpt>
      <trkpt lat="46.31408" lon="5.16873">
        <ele>199.6</ele>
        <time>2022-07-23T11:46:38Z</time>
      </trkpt>
      <trkpt lat="46.31398" lon="5.16857">
        <ele>199.4</ele>
        <time>2022-07-23T11:46:40Z</time>
      </trkpt>
      <trkpt lat="46.31392" lon="5.1685">
        <ele>199.4</ele>
        <time>2022-07-23T11:46:41Z</time>
      </trkpt>
      <trkpt lat="46.31386" lon="5.16844">
        <ele>199.4</ele>
        <time>2022-07-23T11:46:42Z</time>
      </trkpt>
      <trkpt lat="46.31365" lon="5.16834">
        <ele>199.4</ele>
        <time>2022-07-23T11:46:45Z</time>
      </trkpt>
      <trkpt lat="46.31317" lon="5.16799">
        <ele>199.6</ele>
        <time>2022-07-23T11:46:52Z</time>
      </trkpt>
      <trkpt lat="46.31271" lon="5.16758">
        <ele>199.6</ele>
        <time>2022-07-23T11:46:59Z</time>
      </trkpt>
      <trkpt lat="46.31258" lon="5.16747">
        <ele>199.6</ele>
        <time>2022-07-23T11:47:01Z</time>
      </trkpt>
      <trkpt lat="46.31217" lon="5.16703">
        <ele>199.4</ele>
        <time>2022-07-23T11:47:08Z</time>
      </trkpt>
      <trkpt lat="46.3118" lon="5.16657">
        <ele>199.8</ele>
        <time>2022-07-23T11:47:15Z</time>
      </trkpt>
      <trkpt lat="46.31144" lon="5.16612">
        <ele>200.2</ele>
        <time>2022-07-23T11:47:22Z</time>
      </trkpt>
      <trkpt lat="46.31138" lon="5.16608">
        <ele>200.2</ele>
        <time>2022-07-23T11:47:23Z</time>
      </trkpt>
      <trkpt lat="46.31125" lon="5.16603">
        <ele>200.2</ele>
        <time>2022-07-23T11:47:25Z</time>
      </trkpt>
      <trkpt lat="46.31111" lon="5.16601">
        <ele>200.2</ele>
        <time>2022-07-23T11:47:27Z</time>
      </trkpt>
      <trkpt lat="46.31077" lon="5.16602">
        <ele>200.6</ele>
        <time>2022-07-23T11:47:32Z</time>
      </trkpt>
      <trkpt lat="46.31026" lon="5.16608">
        <ele>200.6</ele>
        <time>2022-07-23T11:47:39Z</time>
      </trkpt>
      <trkpt lat="46.30967" lon="5.16598">
        <ele>200.4</ele>
        <time>2022-07-23T11:47:47Z</time>
      </trkpt>
      <trkpt lat="46.30945" lon="5.16591">
        <ele>200.4</ele>
        <time>2022-07-23T11:47:50Z</time>
      </trkpt>
      <trkpt lat="46.30932" lon="5.16581">
        <ele>200.4</ele>
        <time>2022-07-23T11:47:52Z</time>
      </trkpt>
      <trkpt lat="46.30902" lon="5.16558">
        <ele>200.6</ele>
        <time>2022-07-23T11:47:57Z</time>
      </trkpt>
      <trkpt lat="46.30891" lon="5.16548">
        <ele>200.8</ele>
        <time>2022-07-23T11:47:59Z</time>
      </trkpt>
      <trkpt lat="46.30885" lon="5.16545">
        <ele>200.8</ele>
        <time>2022-07-23T11:48:00Z</time>
      </trkpt>
      <trkpt lat="46.30874" lon="5.16541">
        <ele>200.8</ele>
        <time>2022-07-23T11:48:02Z</time>
      </trkpt>
      <trkpt lat="46.30866" lon="5.16548">
        <ele>201</ele>
        <time>2022-07-23T11:48:04Z</time>
      </trkpt>
      <trkpt lat="46.30845" lon="5.1658">
        <ele>201</ele>
        <time>2022-07-23T11:48:09Z</time>
      </trkpt>
      <trkpt lat="46.30818" lon="5.16614">
        <ele>200.8</ele>
        <time>2022-07-23T11:48:15Z</time>
      </trkpt>
      <trkpt lat="46.30815" lon="5.16621">
        <ele>200.8</ele>
        <time>2022-07-23T11:48:16Z</time>
      </trkpt>
      <trkpt lat="46.30812" lon="5.16636">
        <ele>200.8</ele>
        <time>2022-07-23T11:48:18Z</time>
      </trkpt>
      <trkpt lat="46.30816" lon="5.16657">
        <ele>201</ele>
        <time>2022-07-23T11:48:21Z</time>
      </trkpt>
      <trkpt lat="46.3082" lon="5.16664">
        <ele>201.2</ele>
        <time>2022-07-23T11:48:24Z</time>
      </trkpt>
      <trkpt lat="46.30817" lon="5.16654">
        <ele>201.2</ele>
        <time>2022-07-23T11:48:27Z</time>
      </trkpt>
      <trkpt lat="46.30815" lon="5.16641">
        <ele>201.2</ele>
        <time>2022-07-23T11:48:29Z</time>
      </trkpt>
      <trkpt lat="46.30815" lon="5.16633">
        <ele>201.2</ele>
        <time>2022-07-23T11:48:30Z</time>
      </trkpt>
      <trkpt lat="46.30816" lon="5.16626">
        <ele>201.2</ele>
        <time>2022-07-23T11:48:31Z</time>
      </trkpt>
      <trkpt lat="46.30824" lon="5.16612">
        <ele>201</ele>
        <time>2022-07-23T11:48:33Z</time>
      </trkpt>
      <trkpt lat="46.30856" lon="5.16568">
        <ele>200.4</ele>
        <time>2022-07-23T11:48:40Z</time>
      </trkpt>
      <trkpt lat="46.30859" lon="5.16563">
        <ele>200.4</ele>
        <time>2022-07-23T11:48:41Z</time>
      </trkpt>
      <trkpt lat="46.3086" lon="5.16558">
        <ele>200.4</ele>
        <time>2022-07-23T11:48:42Z</time>
      </trkpt>
      <trkpt lat="46.3086" lon="5.16554">
        <ele>200.4</ele>
        <time>2022-07-23T11:48:43Z</time>
      </trkpt>
      <trkpt lat="46.30858" lon="5.16553">
        <ele>200.4</ele>
        <time>2022-07-23T11:48:45Z</time>
      </trkpt>
      <trkpt lat="46.30854" lon="5.16551">
        <ele>200.4</ele>
        <time>2022-07-23T11:48:46Z</time>
      </trkpt>
      <trkpt lat="46.30838" lon="5.16551">
        <ele>200.6</ele>
        <time>2022-07-23T11:48:49Z</time>
      </trkpt>
      <trkpt lat="46.30828" lon="5.16552">
        <ele>200.6</ele>
        <time>2022-07-23T11:48:51Z</time>
      </trkpt>
      <trkpt lat="46.30801" lon="5.16554">
        <ele>201</ele>
        <time>2022-07-23T11:48:57Z</time>
      </trkpt>
      <trkpt lat="46.30789" lon="5.16556">
        <ele>201</ele>
        <time>2022-07-23T11:48:59Z</time>
      </trkpt>
      <trkpt lat="46.30773" lon="5.16563">
        <ele>201</ele>
        <time>2022-07-23T11:49:02Z</time>
      </trkpt>
      <trkpt lat="46.30752" lon="5.16566">
        <ele>201.2</ele>
        <time>2022-07-23T11:49:06Z</time>
      </trkpt>
      <trkpt lat="46.30744" lon="5.16562">
        <ele>201.2</ele>
        <time>2022-07-23T11:49:08Z</time>
      </trkpt>
      <trkpt lat="46.3074" lon="5.1656">
        <ele>201.2</ele>
        <time>2022-07-23T11:49:10Z</time>
      </trkpt>
      <trkpt lat="46.30739" lon="5.16562">
        <ele>201.2</ele>
        <time>2022-07-23T11:49:11Z</time>
      </trkpt>
      <trkpt lat="46.30737" lon="5.16584">
        <ele>201.4</ele>
        <time>2022-07-23T11:49:16Z</time>
      </trkpt>
      <trkpt lat="46.3073" lon="5.16599">
        <ele>201.2</ele>
        <time>2022-07-23T11:49:19Z</time>
      </trkpt>
      <trkpt lat="46.30726" lon="5.16604">
        <ele>201.2</ele>
        <time>2022-07-23T11:49:20Z</time>
      </trkpt>
      <trkpt lat="46.30713" lon="5.16618">
        <ele>201.2</ele>
        <time>2022-07-23T11:49:23Z</time>
      </trkpt>
      <trkpt lat="46.30702" lon="5.1663">
        <ele>201.2</ele>
        <time>2022-07-23T11:49:25Z</time>
      </trkpt>
      <trkpt lat="46.30663" lon="5.1667">
        <ele>201.2</ele>
        <time>2022-07-23T11:49:32Z</time>
      </trkpt>
      <trkpt lat="46.30626" lon="5.16707">
        <ele>201</ele>
        <time>2022-07-23T11:49:39Z</time>
      </trkpt>
      <trkpt lat="46.30584" lon="5.16756">
        <ele>201.4</ele>
        <time>2022-07-23T11:49:47Z</time>
      </trkpt>
      <trkpt lat="46.30579" lon="5.16762">
        <ele>201.4</ele>
        <time>2022-07-23T11:49:48Z</time>
      </trkpt>
      <trkpt lat="46.30539" lon="5.16806">
        <ele>201.4</ele>
        <time>2022-07-23T11:49:54Z</time>
      </trkpt>
      <trkpt lat="46.30536" lon="5.16808">
        <ele>201.4</ele>
        <time>2022-07-23T11:49:55Z</time>
      </trkpt>
      <trkpt lat="46.30492" lon="5.16848">
        <ele>201</ele>
        <time>2022-07-23T11:50:03Z</time>
      </trkpt>
      <trkpt lat="46.30444" lon="5.16891">
        <ele>201.4</ele>
        <time>2022-07-23T11:50:11Z</time>
      </trkpt>
      <trkpt lat="46.30432" lon="5.16902">
        <ele>201.8</ele>
        <time>2022-07-23T11:50:13Z</time>
      </trkpt>
      <trkpt lat="46.30414" lon="5.16919">
        <ele>201.6</ele>
        <time>2022-07-23T11:50:16Z</time>
      </trkpt>
      <trkpt lat="46.30381" lon="5.16943">
        <ele>202</ele>
        <time>2022-07-23T11:50:21Z</time>
      </trkpt>
      <trkpt lat="46.30335" lon="5.16976">
        <ele>201.6</ele>
        <time>2022-07-23T11:50:28Z</time>
      </trkpt>
      <trkpt lat="46.30305" lon="5.17005">
        <ele>201.6</ele>
        <time>2022-07-23T11:50:33Z</time>
      </trkpt>
      <trkpt lat="46.30295" lon="5.17019">
        <ele>201.6</ele>
        <time>2022-07-23T11:50:35Z</time>
      </trkpt>
      <trkpt lat="46.30291" lon="5.17028">
        <ele>201.8</ele>
        <time>2022-07-23T11:50:36Z</time>
      </trkpt>
      <trkpt lat="46.30285" lon="5.17045">
        <ele>202</ele>
        <time>2022-07-23T11:50:38Z</time>
      </trkpt>
      <trkpt lat="46.30283" lon="5.17055">
        <ele>202</ele>
        <time>2022-07-23T11:50:39Z</time>
      </trkpt>
      <trkpt lat="46.30278" lon="5.17105">
        <ele>202.4</ele>
        <time>2022-07-23T11:50:44Z</time>
      </trkpt>
      <trkpt lat="46.30275" lon="5.17114">
        <ele>202.4</ele>
        <time>2022-07-23T11:50:45Z</time>
      </trkpt>
      <trkpt lat="46.30272" lon="5.17124">
        <ele>202.4</ele>
        <time>2022-07-23T11:50:46Z</time>
      </trkpt>
      <trkpt lat="46.30265" lon="5.1714">
        <ele>202.6</ele>
        <time>2022-07-23T11:50:48Z</time>
      </trkpt>
      <trkpt lat="46.3026" lon="5.17148">
        <ele>202.6</ele>
        <time>2022-07-23T11:50:49Z</time>
      </trkpt>
      <trkpt lat="46.30223" lon="5.17203">
        <ele>202.6</ele>
        <time>2022-07-23T11:50:56Z</time>
      </trkpt>
      <trkpt lat="46.30188" lon="5.17262">
        <ele>202.4</ele>
        <time>2022-07-23T11:51:04Z</time>
      </trkpt>
      <trkpt lat="46.30178" lon="5.17277">
        <ele>202.4</ele>
        <time>2022-07-23T11:51:06Z</time>
      </trkpt>
      <trkpt lat="46.30156" lon="5.17304">
        <ele>202.2</ele>
        <time>2022-07-23T11:51:10Z</time>
      </trkpt>
      <trkpt lat="46.30146" lon="5.17318">
        <ele>202.2</ele>
        <time>2022-07-23T11:51:12Z</time>
      </trkpt>
      <trkpt lat="46.30137" lon="5.17335">
        <ele>202.4</ele>
        <time>2022-07-23T11:51:14Z</time>
      </trkpt>
      <trkpt lat="46.30135" lon="5.17346">
        <ele>202.6</ele>
        <time>2022-07-23T11:51:15Z</time>
      </trkpt>
      <trkpt lat="46.30134" lon="5.17356">
        <ele>203</ele>
        <time>2022-07-23T11:51:16Z</time>
      </trkpt>
      <trkpt lat="46.30135" lon="5.17387">
        <ele>202.6</ele>
        <time>2022-07-23T11:51:19Z</time>
      </trkpt>
      <trkpt lat="46.30135" lon="5.17429">
        <ele>202.6</ele>
        <time>2022-07-23T11:51:23Z</time>
      </trkpt>
      <trkpt lat="46.30131" lon="5.17449">
        <ele>202.6</ele>
        <time>2022-07-23T11:51:25Z</time>
      </trkpt>
      <trkpt lat="46.30124" lon="5.17468">
        <ele>202</ele>
        <time>2022-07-23T11:51:27Z</time>
      </trkpt>
      <trkpt lat="46.30106" lon="5.17512">
        <ele>202.2</ele>
        <time>2022-07-23T11:51:32Z</time>
      </trkpt>
      <trkpt lat="46.30081" lon="5.17559">
        <ele>202</ele>
        <time>2022-07-23T11:51:38Z</time>
      </trkpt>
      <trkpt lat="46.30048" lon="5.17597">
        <ele>202.4</ele>
        <time>2022-07-23T11:51:44Z</time>
      </trkpt>
      <trkpt lat="46.30018" lon="5.17622">
        <ele>203</ele>
        <time>2022-07-23T11:51:49Z</time>
      </trkpt>
      <trkpt lat="46.30005" lon="5.1763">
        <ele>203.6</ele>
        <time>2022-07-23T11:51:51Z</time>
      </trkpt>
      <trkpt lat="46.29984" lon="5.17636">
        <ele>203.8</ele>
        <time>2022-07-23T11:51:54Z</time>
      </trkpt>
      <trkpt lat="46.29962" lon="5.17643">
        <ele>203.6</ele>
        <time>2022-07-23T11:51:57Z</time>
      </trkpt>
      <trkpt lat="46.29915" lon="5.1767">
        <ele>203.6</ele>
        <time>2022-07-23T11:52:04Z</time>
      </trkpt>
      <trkpt lat="46.29865" lon="5.17715">
        <ele>203.4</ele>
        <time>2022-07-23T11:52:12Z</time>
      </trkpt>
      <trkpt lat="46.29812" lon="5.17751">
        <ele>202.8</ele>
        <time>2022-07-23T11:52:20Z</time>
      </trkpt>
      <trkpt lat="46.29761" lon="5.1777">
        <ele>202.6</ele>
        <time>2022-07-23T11:52:27Z</time>
      </trkpt>
      <trkpt lat="46.29708" lon="5.17776">
        <ele>203.6</ele>
        <time>2022-07-23T11:52:35Z</time>
      </trkpt>
      <trkpt lat="46.29648" lon="5.17784">
        <ele>203.6</ele>
        <time>2022-07-23T11:52:43Z</time>
      </trkpt>
      <trkpt lat="46.29626" lon="5.17792">
        <ele>203.4</ele>
        <time>2022-07-23T11:52:46Z</time>
      </trkpt>
      <trkpt lat="46.29613" lon="5.17803">
        <ele>203.4</ele>
        <time>2022-07-23T11:52:48Z</time>
      </trkpt>
      <trkpt lat="46.29579" lon="5.17846">
        <ele>203.2</ele>
        <time>2022-07-23T11:52:54Z</time>
      </trkpt>
      <trkpt lat="46.29549" lon="5.17879">
        <ele>203.2</ele>
        <time>2022-07-23T11:52:59Z</time>
      </trkpt>
      <trkpt lat="46.29542" lon="5.17884">
        <ele>203.2</ele>
        <time>2022-07-23T11:53:00Z</time>
      </trkpt>
      <trkpt lat="46.29486" lon="5.17918">
        <ele>203.2</ele>
        <time>2022-07-23T11:53:08Z</time>
      </trkpt>
      <trkpt lat="46.2948" lon="5.17922">
        <ele>203.2</ele>
        <time>2022-07-23T11:53:09Z</time>
      </trkpt>
      <trkpt lat="46.29459" lon="5.17932">
        <ele>203.8</ele>
        <time>2022-07-23T11:53:12Z</time>
      </trkpt>
      <trkpt lat="46.29445" lon="5.17932">
        <ele>203.8</ele>
        <time>2022-07-23T11:53:14Z</time>
      </trkpt>
      <trkpt lat="46.29431" lon="5.17927">
        <ele>203.8</ele>
        <time>2022-07-23T11:53:16Z</time>
      </trkpt>
      <trkpt lat="46.29417" lon="5.17919">
        <ele>203.8</ele>
        <time>2022-07-23T11:53:18Z</time>
      </trkpt>
      <trkpt lat="46.29362" lon="5.17892">
        <ele>203.4</ele>
        <time>2022-07-23T11:53:26Z</time>
      </trkpt>
      <trkpt lat="46.29355" lon="5.17889">
        <ele>203.4</ele>
        <time>2022-07-23T11:53:27Z</time>
      </trkpt>
      <trkpt lat="46.29309" lon="5.17869">
        <ele>204.4</ele>
        <time>2022-07-23T11:53:34Z</time>
      </trkpt>
      <trkpt lat="46.29293" lon="5.17863">
        <ele>204.4</ele>
        <time>2022-07-23T11:53:36Z</time>
      </trkpt>
      <trkpt lat="46.29236" lon="5.17854">
        <ele>204.4</ele>
        <time>2022-07-23T11:53:44Z</time>
      </trkpt>
      <trkpt lat="46.29222" lon="5.17854">
        <ele>204.6</ele>
        <time>2022-07-23T11:53:46Z</time>
      </trkpt>
      <trkpt lat="46.29211" lon="5.17846">
        <ele>204.4</ele>
        <time>2022-07-23T11:53:48Z</time>
      </trkpt>
      <trkpt lat="46.29205" lon="5.17834">
        <ele>204.4</ele>
        <time>2022-07-23T11:53:50Z</time>
      </trkpt>
      <trkpt lat="46.29204" lon="5.17826">
        <ele>204.4</ele>
        <time>2022-07-23T11:53:51Z</time>
      </trkpt>
      <trkpt lat="46.29201" lon="5.17795">
        <ele>205</ele>
        <time>2022-07-23T11:53:54Z</time>
      </trkpt>
      <trkpt lat="46.29196" lon="5.17761">
        <ele>205</ele>
        <time>2022-07-23T11:53:57Z</time>
      </trkpt>
      <trkpt lat="46.29188" lon="5.17745">
        <ele>204.6</ele>
        <time>2022-07-23T11:53:59Z</time>
      </trkpt>
      <trkpt lat="46.29176" lon="5.17736">
        <ele>204.4</ele>
        <time>2022-07-23T11:54:01Z</time>
      </trkpt>
      <trkpt lat="46.29169" lon="5.17734">
        <ele>204.4</ele>
        <time>2022-07-23T11:54:02Z</time>
      </trkpt>
      <trkpt lat="46.29143" lon="5.17726">
        <ele>204.4</ele>
        <time>2022-07-23T11:54:06Z</time>
      </trkpt>
      <trkpt lat="46.2913" lon="5.17719">
        <ele>204.4</ele>
        <time>2022-07-23T11:54:08Z</time>
      </trkpt>
      <trkpt lat="46.29104" lon="5.17707">
        <ele>204.6</ele>
        <time>2022-07-23T11:54:12Z</time>
      </trkpt>
      <trkpt lat="46.29092" lon="5.17704">
        <ele>205</ele>
        <time>2022-07-23T11:54:14Z</time>
      </trkpt>
      <trkpt lat="46.2908" lon="5.17702">
        <ele>205.2</ele>
        <time>2022-07-23T11:54:16Z</time>
      </trkpt>
      <trkpt lat="46.29045" lon="5.177">
        <ele>205.6</ele>
        <time>2022-07-23T11:54:21Z</time>
      </trkpt>
      <trkpt lat="46.28998" lon="5.17696">
        <ele>205.2</ele>
        <time>2022-07-23T11:54:28Z</time>
      </trkpt>
      <trkpt lat="46.28995" lon="5.17694">
        <ele>205.2</ele>
        <time>2022-07-23T11:54:29Z</time>
      </trkpt>
      <trkpt lat="46.2899" lon="5.17692">
        <ele>205.2</ele>
        <time>2022-07-23T11:54:30Z</time>
      </trkpt>
      <trkpt lat="46.28981" lon="5.17695">
        <ele>205.2</ele>
        <time>2022-07-23T11:54:32Z</time>
      </trkpt>
      <trkpt lat="46.2897" lon="5.17698">
        <ele>205.2</ele>
        <time>2022-07-23T11:54:34Z</time>
      </trkpt>
      <trkpt lat="46.28951" lon="5.177">
        <ele>205.6</ele>
        <time>2022-07-23T11:54:37Z</time>
      </trkpt>
      <trkpt lat="46.28912" lon="5.17709">
        <ele>205.6</ele>
        <time>2022-07-23T11:54:43Z</time>
      </trkpt>
      <trkpt lat="46.289" lon="5.17712">
        <ele>205.6</ele>
        <time>2022-07-23T11:54:45Z</time>
      </trkpt>
      <trkpt lat="46.28881" lon="5.17715">
        <ele>205.6</ele>
        <time>2022-07-23T11:54:48Z</time>
      </trkpt>
      <trkpt lat="46.28826" lon="5.17726">
        <ele>205.8</ele>
        <time>2022-07-23T11:54:56Z</time>
      </trkpt>
      <trkpt lat="46.28817" lon="5.17728">
        <ele>206</ele>
        <time>2022-07-23T11:54:58Z</time>
      </trkpt>
      <trkpt lat="46.28799" lon="5.17737">
        <ele>205.8</ele>
        <time>2022-07-23T11:55:01Z</time>
      </trkpt>
      <trkpt lat="46.28789" lon="5.17746">
        <ele>205.8</ele>
        <time>2022-07-23T11:55:03Z</time>
      </trkpt>
      <trkpt lat="46.28778" lon="5.17756">
        <ele>206.2</ele>
        <time>2022-07-23T11:55:05Z</time>
      </trkpt>
      <trkpt lat="46.28767" lon="5.17763">
        <ele>206.4</ele>
        <time>2022-07-23T11:55:07Z</time>
      </trkpt>
      <trkpt lat="46.2876" lon="5.17766">
        <ele>206.4</ele>
        <time>2022-07-23T11:55:08Z</time>
      </trkpt>
      <trkpt lat="46.28709" lon="5.17788">
        <ele>206.8</ele>
        <time>2022-07-23T11:55:16Z</time>
      </trkpt>
      <trkpt lat="46.28651" lon="5.17812">
        <ele>206.6</ele>
        <time>2022-07-23T11:55:25Z</time>
      </trkpt>
      <trkpt lat="46.28645" lon="5.17814">
        <ele>206.4</ele>
        <time>2022-07-23T11:55:26Z</time>
      </trkpt>
      <trkpt lat="46.28605" lon="5.17825">
        <ele>206.6</ele>
        <time>2022-07-23T11:55:32Z</time>
      </trkpt>
      <trkpt lat="46.286" lon="5.17828">
        <ele>206.6</ele>
        <time>2022-07-23T11:55:33Z</time>
      </trkpt>
      <trkpt lat="46.28593" lon="5.17835">
        <ele>206.6</ele>
        <time>2022-07-23T11:55:34Z</time>
      </trkpt>
      <trkpt lat="46.28585" lon="5.17849">
        <ele>206.8</ele>
        <time>2022-07-23T11:55:36Z</time>
      </trkpt>
      <trkpt lat="46.28576" lon="5.17865">
        <ele>206.8</ele>
        <time>2022-07-23T11:55:38Z</time>
      </trkpt>
      <trkpt lat="46.28563" lon="5.17876">
        <ele>206.8</ele>
        <time>2022-07-23T11:55:40Z</time>
      </trkpt>
      <trkpt lat="46.28526" lon="5.1789">
        <ele>206.6</ele>
        <time>2022-07-23T11:55:45Z</time>
      </trkpt>
      <trkpt lat="46.28473" lon="5.17907">
        <ele>206.4</ele>
        <time>2022-07-23T11:55:52Z</time>
      </trkpt>
      <trkpt lat="46.28458" lon="5.17912">
        <ele>206.2</ele>
        <time>2022-07-23T11:55:54Z</time>
      </trkpt>
      <trkpt lat="46.28408" lon="5.17935">
        <ele>206.4</ele>
        <time>2022-07-23T11:56:01Z</time>
      </trkpt>
      <trkpt lat="46.28369" lon="5.17961">
        <ele>206.8</ele>
        <time>2022-07-23T11:56:07Z</time>
      </trkpt>
      <trkpt lat="46.28364" lon="5.17968">
        <ele>206.8</ele>
        <time>2022-07-23T11:56:08Z</time>
      </trkpt>
      <trkpt lat="46.2836" lon="5.17977">
        <ele>206.8</ele>
        <time>2022-07-23T11:56:09Z</time>
      </trkpt>
      <trkpt lat="46.28358" lon="5.17997">
        <ele>207</ele>
        <time>2022-07-23T11:56:11Z</time>
      </trkpt>
      <trkpt lat="46.28356" lon="5.18007">
        <ele>207</ele>
        <time>2022-07-23T11:56:12Z</time>
      </trkpt>
      <trkpt lat="46.28348" lon="5.18023">
        <ele>207.2</ele>
        <time>2022-07-23T11:56:14Z</time>
      </trkpt>
      <trkpt lat="46.28334" lon="5.18027">
        <ele>207.4</ele>
        <time>2022-07-23T11:56:16Z</time>
      </trkpt>
      <trkpt lat="46.28327" lon="5.18027">
        <ele>207.4</ele>
        <time>2022-07-23T11:56:17Z</time>
      </trkpt>
      <trkpt lat="46.28298" lon="5.18022">
        <ele>207.6</ele>
        <time>2022-07-23T11:56:21Z</time>
      </trkpt>
      <trkpt lat="46.28247" lon="5.18019">
        <ele>207.4</ele>
        <time>2022-07-23T11:56:28Z</time>
      </trkpt>
      <trkpt lat="46.28234" lon="5.18025">
        <ele>207.2</ele>
        <time>2022-07-23T11:56:30Z</time>
      </trkpt>
      <trkpt lat="46.28227" lon="5.18031">
        <ele>207.2</ele>
        <time>2022-07-23T11:56:31Z</time>
      </trkpt>
      <trkpt lat="46.28216" lon="5.18042">
        <ele>207.2</ele>
        <time>2022-07-23T11:56:33Z</time>
      </trkpt>
      <trkpt lat="46.28205" lon="5.18047">
        <ele>207.4</ele>
        <time>2022-07-23T11:56:35Z</time>
      </trkpt>
      <trkpt lat="46.28169" lon="5.18047">
        <ele>207.6</ele>
        <time>2022-07-23T11:56:40Z</time>
      </trkpt>
      <trkpt lat="46.28133" lon="5.18047">
        <ele>207.6</ele>
        <time>2022-07-23T11:56:45Z</time>
      </trkpt>
      <trkpt lat="46.28126" lon="5.18049">
        <ele>207.6</ele>
        <time>2022-07-23T11:56:46Z</time>
      </trkpt>
      <trkpt lat="46.28119" lon="5.18052">
        <ele>207.6</ele>
        <time>2022-07-23T11:56:47Z</time>
      </trkpt>
      <trkpt lat="46.28106" lon="5.18062">
        <ele>207.6</ele>
        <time>2022-07-23T11:56:49Z</time>
      </trkpt>
      <trkpt lat="46.28101" lon="5.18068">
        <ele>207.4</ele>
        <time>2022-07-23T11:56:50Z</time>
      </trkpt>
      <trkpt lat="46.28055" lon="5.18121">
        <ele>207.4</ele>
        <time>2022-07-23T11:56:58Z</time>
      </trkpt>
      <trkpt lat="46.28049" lon="5.18127">
        <ele>207.4</ele>
        <time>2022-07-23T11:56:59Z</time>
      </trkpt>
      <trkpt lat="46.28017" lon="5.1815">
        <ele>207.6</ele>
        <time>2022-07-23T11:57:04Z</time>
      </trkpt>
      <trkpt lat="46.27967" lon="5.1817">
        <ele>208</ele>
        <time>2022-07-23T11:57:11Z</time>
      </trkpt>
      <trkpt lat="46.2791" lon="5.18192">
        <ele>207.8</ele>
        <time>2022-07-23T11:57:19Z</time>
      </trkpt>
      <trkpt lat="46.27897" lon="5.18197">
        <ele>207.6</ele>
        <time>2022-07-23T11:57:21Z</time>
      </trkpt>
      <trkpt lat="46.27853" lon="5.18215">
        <ele>208</ele>
        <time>2022-07-23T11:57:28Z</time>
      </trkpt>
      <trkpt lat="46.27847" lon="5.18218">
        <ele>208</ele>
        <time>2022-07-23T11:57:29Z</time>
      </trkpt>
      <trkpt lat="46.27836" lon="5.18222">
        <ele>208.2</ele>
        <time>2022-07-23T11:57:31Z</time>
      </trkpt>
      <trkpt lat="46.27827" lon="5.18219">
        <ele>208.2</ele>
        <time>2022-07-23T11:57:33Z</time>
      </trkpt>
      <trkpt lat="46.27825" lon="5.18209">
        <ele>208.2</ele>
        <time>2022-07-23T11:57:35Z</time>
      </trkpt>
      <trkpt lat="46.27826" lon="5.18203">
        <ele>208.4</ele>
        <time>2022-07-23T11:57:36Z</time>
      </trkpt>
      <trkpt lat="46.27832" lon="5.1818">
        <ele>208.4</ele>
        <time>2022-07-23T11:57:39Z</time>
      </trkpt>
      <trkpt lat="46.27842" lon="5.18124">
        <ele>208.4</ele>
        <time>2022-07-23T11:57:44Z</time>
      </trkpt>
      <trkpt lat="46.27842" lon="5.18114">
        <ele>208.4</ele>
        <time>2022-07-23T11:57:45Z</time>
      </trkpt>
      <trkpt lat="46.27839" lon="5.18105">
        <ele>208.4</ele>
        <time>2022-07-23T11:57:46Z</time>
      </trkpt>
      <trkpt lat="46.2783" lon="5.1809">
        <ele>208.4</ele>
        <time>2022-07-23T11:57:48Z</time>
      </trkpt>
      <trkpt lat="46.27814" lon="5.18076">
        <ele>208.6</ele>
        <time>2022-07-23T11:57:51Z</time>
      </trkpt>
      <trkpt lat="46.27809" lon="5.1807">
        <ele>208.8</ele>
        <time>2022-07-23T11:57:52Z</time>
      </trkpt>
      <trkpt lat="46.27799" lon="5.18056">
        <ele>208.8</ele>
        <time>2022-07-23T11:57:54Z</time>
      </trkpt>
      <trkpt lat="46.27788" lon="5.18036">
        <ele>209</ele>
        <time>2022-07-23T11:57:57Z</time>
      </trkpt>
      <trkpt lat="46.27767" lon="5.17998">
        <ele>209</ele>
        <time>2022-07-23T11:58:02Z</time>
      </trkpt>
      <trkpt lat="46.27739" lon="5.17933">
        <ele>208.2</ele>
        <time>2022-07-23T11:58:09Z</time>
      </trkpt>
      <trkpt lat="46.27732" lon="5.17914">
        <ele>208</ele>
        <time>2022-07-23T11:58:11Z</time>
      </trkpt>
      <trkpt lat="46.27726" lon="5.17884">
        <ele>208.2</ele>
        <time>2022-07-23T11:58:14Z</time>
      </trkpt>
      <trkpt lat="46.27719" lon="5.17826">
        <ele>208.2</ele>
        <time>2022-07-23T11:58:21Z</time>
      </trkpt>
      <trkpt lat="46.27713" lon="5.17802">
        <ele>208.2</ele>
        <time>2022-07-23T11:58:23Z</time>
      </trkpt>
      <trkpt lat="46.27705" lon="5.17782">
        <ele>208.2</ele>
        <time>2022-07-23T11:58:25Z</time>
      </trkpt>
      <trkpt lat="46.27696" lon="5.17767">
        <ele>208.2</ele>
        <time>2022-07-23T11:58:27Z</time>
      </trkpt>
      <trkpt lat="46.27676" lon="5.17741">
        <ele>208.8</ele>
        <time>2022-07-23T11:58:31Z</time>
      </trkpt>
      <trkpt lat="46.2763" lon="5.17682">
        <ele>208.4</ele>
        <time>2022-07-23T11:58:40Z</time>
      </trkpt>
      <trkpt lat="46.27625" lon="5.17676">
        <ele>208.4</ele>
        <time>2022-07-23T11:58:41Z</time>
      </trkpt>
      <trkpt lat="46.27587" lon="5.17639">
        <ele>208.4</ele>
        <time>2022-07-23T11:58:48Z</time>
      </trkpt>
      <trkpt lat="46.27558" lon="5.17618">
        <ele>208.4</ele>
        <time>2022-07-23T11:58:53Z</time>
      </trkpt>
      <trkpt lat="46.27544" lon="5.17614">
        <ele>208.4</ele>
        <time>2022-07-23T11:58:55Z</time>
      </trkpt>
      <trkpt lat="46.27503" lon="5.17615">
        <ele>208.8</ele>
        <time>2022-07-23T11:59:01Z</time>
      </trkpt>
      <trkpt lat="46.27496" lon="5.17616">
        <ele>208.8</ele>
        <time>2022-07-23T11:59:02Z</time>
      </trkpt>
      <trkpt lat="46.27449" lon="5.17634">
        <ele>209.2</ele>
        <time>2022-07-23T11:59:09Z</time>
      </trkpt>
      <trkpt lat="46.27409" lon="5.17654">
        <ele>209</ele>
        <time>2022-07-23T11:59:15Z</time>
      </trkpt>
      <trkpt lat="46.2738" lon="5.17681">
        <ele>209.2</ele>
        <time>2022-07-23T11:59:20Z</time>
      </trkpt>
      <trkpt lat="46.27374" lon="5.17684">
        <ele>209.2</ele>
        <time>2022-07-23T11:59:21Z</time>
      </trkpt>
      <trkpt lat="46.27334" lon="5.17694">
        <ele>209.2</ele>
        <time>2022-07-23T11:59:27Z</time>
      </trkpt>
      <trkpt lat="46.27321" lon="5.17691">
        <ele>209.4</ele>
        <time>2022-07-23T11:59:29Z</time>
      </trkpt>
      <trkpt lat="46.2731" lon="5.17685">
        <ele>209.2</ele>
        <time>2022-07-23T11:59:31Z</time>
      </trkpt>
      <trkpt lat="46.27265" lon="5.1765">
        <ele>209.8</ele>
        <time>2022-07-23T11:59:39Z</time>
      </trkpt>
      <trkpt lat="46.2726" lon="5.17647">
        <ele>209.8</ele>
        <time>2022-07-23T11:59:40Z</time>
      </trkpt>
      <trkpt lat="46.27247" lon="5.17642">
        <ele>210</ele>
        <time>2022-07-23T11:59:42Z</time>
      </trkpt>
      <trkpt lat="46.27241" lon="5.17641">
        <ele>210.2</ele>
        <time>2022-07-23T11:59:43Z</time>
      </trkpt>
      <trkpt lat="46.27234" lon="5.17641">
        <ele>210.4</ele>
        <time>2022-07-23T11:59:44Z</time>
      </trkpt>
      <trkpt lat="46.27222" lon="5.17644">
        <ele>210.6</ele>
        <time>2022-07-23T11:59:46Z</time>
      </trkpt>
      <trkpt lat="46.2721" lon="5.17648">
        <ele>211</ele>
        <time>2022-07-23T11:59:48Z</time>
      </trkpt>
      <trkpt lat="46.27192" lon="5.17654">
        <ele>210.8</ele>
        <time>2022-07-23T11:59:51Z</time>
      </trkpt>
      <trkpt lat="46.2718" lon="5.17651">
        <ele>210.8</ele>
        <time>2022-07-23T11:59:53Z</time>
      </trkpt>
      <trkpt lat="46.27171" lon="5.17641">
        <ele>210.8</ele>
        <time>2022-07-23T11:59:55Z</time>
      </trkpt>
      <trkpt lat="46.27167" lon="5.17636">
        <ele>210.8</ele>
        <time>2022-07-23T11:59:56Z</time>
      </trkpt>
      <trkpt lat="46.27154" lon="5.17607">
        <ele>211.4</ele>
        <time>2022-07-23T12:00:01Z</time>
      </trkpt>
      <trkpt lat="46.27148" lon="5.17596">
        <ele>212.2</ele>
        <time>2022-07-23T12:00:03Z</time>
      </trkpt>
      <trkpt lat="46.2714" lon="5.17578">
        <ele>213.6</ele>
        <time>2022-07-23T12:00:07Z</time>
      </trkpt>
      <trkpt lat="46.27138" lon="5.17574">
        <ele>213.6</ele>
        <time>2022-07-23T12:00:08Z</time>
      </trkpt>
      <trkpt lat="46.27132" lon="5.17562">
        <ele>214.8</ele>
        <time>2022-07-23T12:00:11Z</time>
      </trkpt>
      <trkpt lat="46.27126" lon="5.17551">
        <ele>216.2</ele>
        <time>2022-07-23T12:00:14Z</time>
      </trkpt>
      <trkpt lat="46.27122" lon="5.17544">
        <ele>216.8</ele>
        <time>2022-07-23T12:00:16Z</time>
      </trkpt>
      <trkpt lat="46.27118" lon="5.17537">
        <ele>217.6</ele>
        <time>2022-07-23T12:00:18Z</time>
      </trkpt>
      <trkpt lat="46.27111" lon="5.17522">
        <ele>219.2</ele>
        <time>2022-07-23T12:00:23Z</time>
      </trkpt>
      <trkpt lat="46.2711" lon="5.17519">
        <ele>219.4</ele>
        <time>2022-07-23T12:00:24Z</time>
      </trkpt>
      <trkpt lat="46.27102" lon="5.17504">
        <ele>220.4</ele>
        <time>2022-07-23T12:00:27Z</time>
      </trkpt>
      <trkpt lat="46.27093" lon="5.17485">
        <ele>221.6</ele>
        <time>2022-07-23T12:00:32Z</time>
      </trkpt>
      <trkpt lat="46.27082" lon="5.17456">
        <ele>222.8</ele>
        <time>2022-07-23T12:00:38Z</time>
      </trkpt>
      <trkpt lat="46.27079" lon="5.17444">
        <ele>223</ele>
        <time>2022-07-23T12:00:40Z</time>
      </trkpt>
      <trkpt lat="46.27075" lon="5.17432">
        <ele>223.4</ele>
        <time>2022-07-23T12:00:42Z</time>
      </trkpt>
      <trkpt lat="46.27069" lon="5.17408">
        <ele>223.6</ele>
        <time>2022-07-23T12:00:46Z</time>
      </trkpt>
      <trkpt lat="46.27062" lon="5.17386">
        <ele>223.8</ele>
        <time>2022-07-23T12:00:49Z</time>
      </trkpt>
      <trkpt lat="46.2705" lon="5.1735">
        <ele>223.8</ele>
        <time>2022-07-23T12:00:54Z</time>
      </trkpt>
      <trkpt lat="46.27031" lon="5.17295">
        <ele>223.8</ele>
        <time>2022-07-23T12:01:02Z</time>
      </trkpt>
      <trkpt lat="46.27023" lon="5.17279">
        <ele>223.8</ele>
        <time>2022-07-23T12:01:06Z</time>
      </trkpt>
      <trkpt lat="46.27019" lon="5.17276">
        <ele>223.6</ele>
        <time>2022-07-23T12:01:09Z</time>
      </trkpt>
      <trkpt lat="46.27017" lon="5.17275">
        <ele>223.6</ele>
        <time>2022-07-23T12:01:10Z</time>
      </trkpt>
      <trkpt lat="46.27006" lon="5.17282">
        <ele>223.6</ele>
        <time>2022-07-23T12:01:15Z</time>
      </trkpt>
      <trkpt lat="46.26982" lon="5.17297">
        <ele>223.6</ele>
        <time>2022-07-23T12:01:20Z</time>
      </trkpt>
      <trkpt lat="46.26977" lon="5.173">
        <ele>223.6</ele>
        <time>2022-07-23T12:01:21Z</time>
      </trkpt>
      <trkpt lat="46.26949" lon="5.17314">
        <ele>223.8</ele>
        <time>2022-07-23T12:01:26Z</time>
      </trkpt>
      <trkpt lat="46.26907" lon="5.17333">
        <ele>223.6</ele>
        <time>2022-07-23T12:01:33Z</time>
      </trkpt>
      <trkpt lat="46.26901" lon="5.17337">
        <ele>223.6</ele>
        <time>2022-07-23T12:01:34Z</time>
      </trkpt>
      <trkpt lat="46.2689" lon="5.17345">
        <ele>223.6</ele>
        <time>2022-07-23T12:01:36Z</time>
      </trkpt>
      <trkpt lat="46.26872" lon="5.17366">
        <ele>223.6</ele>
        <time>2022-07-23T12:01:39Z</time>
      </trkpt>
      <trkpt lat="46.26849" lon="5.17392">
        <ele>223.6</ele>
        <time>2022-07-23T12:01:43Z</time>
      </trkpt>
      <trkpt lat="46.26842" lon="5.17396">
        <ele>223.4</ele>
        <time>2022-07-23T12:01:44Z</time>
      </trkpt>
      <trkpt lat="46.26814" lon="5.1741">
        <ele>223.2</ele>
        <time>2022-07-23T12:01:48Z</time>
      </trkpt>
      <trkpt lat="46.26799" lon="5.17415">
        <ele>223</ele>
        <time>2022-07-23T12:01:50Z</time>
      </trkpt>
      <trkpt lat="46.26792" lon="5.17418">
        <ele>222.6</ele>
        <time>2022-07-23T12:01:51Z</time>
      </trkpt>
      <trkpt lat="46.26756" lon="5.17429">
        <ele>221.6</ele>
        <time>2022-07-23T12:01:56Z</time>
      </trkpt>
      <trkpt lat="46.26742" lon="5.17432">
        <ele>221.4</ele>
        <time>2022-07-23T12:01:57Z</time>
      </trkpt>
      <trkpt lat="46.26725" lon="5.17431">
        <ele>221</ele>
        <time>2022-07-23T12:01:59Z</time>
      </trkpt>
      <trkpt lat="46.26701" lon="5.17425">
        <ele>220.4</ele>
        <time>2022-07-23T12:02:02Z</time>
      </trkpt>
      <trkpt lat="46.26686" lon="5.17422">
        <ele>220.2</ele>
        <time>2022-07-23T12:02:04Z</time>
      </trkpt>
      <trkpt lat="46.26671" lon="5.17425">
        <ele>220</ele>
        <time>2022-07-23T12:02:06Z</time>
      </trkpt>
      <trkpt lat="46.26667" lon="5.17428">
        <ele>220</ele>
        <time>2022-07-23T12:02:07Z</time>
      </trkpt>
      <trkpt lat="46.26661" lon="5.17433">
        <ele>220</ele>
        <time>2022-07-23T12:02:08Z</time>
      </trkpt>
      <trkpt lat="46.26635" lon="5.17458">
        <ele>221.2</ele>
        <time>2022-07-23T12:02:13Z</time>
      </trkpt>
      <trkpt lat="46.26624" lon="5.1747">
        <ele>221.6</ele>
        <time>2022-07-23T12:02:15Z</time>
      </trkpt>
      <trkpt lat="46.2662" lon="5.17476">
        <ele>221.8</ele>
        <time>2022-07-23T12:02:16Z</time>
      </trkpt>
      <trkpt lat="46.26607" lon="5.17497">
        <ele>222.6</ele>
        <time>2022-07-23T12:02:19Z</time>
      </trkpt>
      <trkpt lat="46.26603" lon="5.17505">
        <ele>223</ele>
        <time>2022-07-23T12:02:20Z</time>
      </trkpt>
      <trkpt lat="46.26571" lon="5.17568">
        <ele>223.4</ele>
        <time>2022-07-23T12:02:28Z</time>
      </trkpt>
      <trkpt lat="46.26549" lon="5.1761">
        <ele>223.6</ele>
        <time>2022-07-23T12:02:33Z</time>
      </trkpt>
      <trkpt lat="46.26543" lon="5.1762">
        <ele>223.8</ele>
        <time>2022-07-23T12:02:34Z</time>
      </trkpt>
      <trkpt lat="46.26507" lon="5.17653">
        <ele>224.2</ele>
        <time>2022-07-23T12:02:40Z</time>
      </trkpt>
      <trkpt lat="46.2646" lon="5.17679">
        <ele>224</ele>
        <time>2022-07-23T12:02:47Z</time>
      </trkpt>
      <trkpt lat="46.26423" lon="5.17691">
        <ele>224.4</ele>
        <time>2022-07-23T12:02:52Z</time>
      </trkpt>
      <trkpt lat="46.26409" lon="5.17701">
        <ele>224.4</ele>
        <time>2022-07-23T12:02:54Z</time>
      </trkpt>
      <trkpt lat="46.26397" lon="5.17718">
        <ele>224.4</ele>
        <time>2022-07-23T12:02:56Z</time>
      </trkpt>
      <trkpt lat="46.26391" lon="5.1773">
        <ele>224.2</ele>
        <time>2022-07-23T12:02:57Z</time>
      </trkpt>
      <trkpt lat="46.26362" lon="5.17777">
        <ele>223</ele>
        <time>2022-07-23T12:03:02Z</time>
      </trkpt>
      <trkpt lat="46.26347" lon="5.17794">
        <ele>222.4</ele>
        <time>2022-07-23T12:03:04Z</time>
      </trkpt>
      <trkpt lat="46.26333" lon="5.1781">
        <ele>221.4</ele>
        <time>2022-07-23T12:03:06Z</time>
      </trkpt>
      <trkpt lat="46.26312" lon="5.17834">
        <ele>220.2</ele>
        <time>2022-07-23T12:03:09Z</time>
      </trkpt>
      <trkpt lat="46.26279" lon="5.17876">
        <ele>220.2</ele>
        <time>2022-07-23T12:03:15Z</time>
      </trkpt>
      <trkpt lat="46.26257" lon="5.179">
        <ele>221.2</ele>
        <time>2022-07-23T12:03:19Z</time>
      </trkpt>
      <trkpt lat="46.2625" lon="5.17907">
        <ele>221.8</ele>
        <time>2022-07-23T12:03:20Z</time>
      </trkpt>
      <trkpt lat="46.26244" lon="5.17912">
        <ele>222.2</ele>
        <time>2022-07-23T12:03:21Z</time>
      </trkpt>
      <trkpt lat="46.26238" lon="5.17917">
        <ele>222.8</ele>
        <time>2022-07-23T12:03:22Z</time>
      </trkpt>
      <trkpt lat="46.26206" lon="5.17941">
        <ele>224</ele>
        <time>2022-07-23T12:03:27Z</time>
      </trkpt>
      <trkpt lat="46.26186" lon="5.17956">
        <ele>224.2</ele>
        <time>2022-07-23T12:03:30Z</time>
      </trkpt>
      <trkpt lat="46.26137" lon="5.17991">
        <ele>223</ele>
        <time>2022-07-23T12:03:37Z</time>
      </trkpt>
      <trkpt lat="46.26128" lon="5.17998">
        <ele>222.8</ele>
        <time>2022-07-23T12:03:38Z</time>
      </trkpt>
      <trkpt lat="46.26128" lon="5.17998">
        <ele>222.4</ele>
        <time>2022-07-23T12:03:39Z</time>
      </trkpt>
      <trkpt lat="46.2608" lon="5.1803">
        <ele>221.8</ele>
        <time>2022-07-23T12:03:44Z</time>
      </trkpt>
      <trkpt lat="46.26048" lon="5.18043">
        <ele>221.4</ele>
        <time>2022-07-23T12:03:48Z</time>
      </trkpt>
      <trkpt lat="46.2604" lon="5.18047">
        <ele>221.2</ele>
        <time>2022-07-23T12:03:49Z</time>
      </trkpt>
      <trkpt lat="46.26033" lon="5.18053">
        <ele>221.4</ele>
        <time>2022-07-23T12:03:50Z</time>
      </trkpt>
      <trkpt lat="46.26022" lon="5.18071">
        <ele>221.6</ele>
        <time>2022-07-23T12:03:52Z</time>
      </trkpt>
      <trkpt lat="46.26021" lon="5.18083">
        <ele>221.6</ele>
        <time>2022-07-23T12:03:53Z</time>
      </trkpt>
      <trkpt lat="46.26018" lon="5.18117">
        <ele>221.6</ele>
        <time>2022-07-23T12:03:56Z</time>
      </trkpt>
      <trkpt lat="46.2601" lon="5.18149">
        <ele>221.8</ele>
        <time>2022-07-23T12:03:59Z</time>
      </trkpt>
      <trkpt lat="46.25995" lon="5.18185">
        <ele>222.6</ele>
        <time>2022-07-23T12:04:03Z</time>
      </trkpt>
      <trkpt lat="46.25991" lon="5.18194">
        <ele>222.8</ele>
        <time>2022-07-23T12:04:04Z</time>
      </trkpt>
      <trkpt lat="46.25972" lon="5.18227">
        <ele>223.4</ele>
        <time>2022-07-23T12:04:08Z</time>
      </trkpt>
      <trkpt lat="46.25967" lon="5.18234">
        <ele>223.6</ele>
        <time>2022-07-23T12:04:09Z</time>
      </trkpt>
      <trkpt lat="46.2596" lon="5.1824">
        <ele>223.6</ele>
        <time>2022-07-23T12:04:10Z</time>
      </trkpt>
      <trkpt lat="46.25942" lon="5.18258">
        <ele>224</ele>
        <time>2022-07-23T12:04:14Z</time>
      </trkpt>
      <trkpt lat="46.25899" lon="5.18295">
        <ele>224.4</ele>
        <time>2022-07-23T12:04:20Z</time>
      </trkpt>
      <trkpt lat="46.25851" lon="5.18318">
        <ele>224.6</ele>
        <time>2022-07-23T12:04:27Z</time>
      </trkpt>
      <trkpt lat="46.25809" lon="5.18332">
        <ele>224.2</ele>
        <time>2022-07-23T12:04:34Z</time>
      </trkpt>
      <trkpt lat="46.25805" lon="5.18335">
        <ele>224.2</ele>
        <time>2022-07-23T12:04:35Z</time>
      </trkpt>
      <trkpt lat="46.258" lon="5.18336">
        <ele>224</ele>
        <time>2022-07-23T12:04:37Z</time>
      </trkpt>
      <trkpt lat="46.25796" lon="5.18345">
        <ele>224</ele>
        <time>2022-07-23T12:04:39Z</time>
      </trkpt>
      <trkpt lat="46.25794" lon="5.18351">
        <ele>224</ele>
        <time>2022-07-23T12:04:40Z</time>
      </trkpt>
      <trkpt lat="46.2579" lon="5.18359">
        <ele>223.8</ele>
        <time>2022-07-23T12:04:41Z</time>
      </trkpt>
      <trkpt lat="46.25783" lon="5.18377">
        <ele>223.8</ele>
        <time>2022-07-23T12:04:43Z</time>
      </trkpt>
      <trkpt lat="46.25769" lon="5.1842">
        <ele>222.2</ele>
        <time>2022-07-23T12:04:47Z</time>
      </trkpt>
      <trkpt lat="46.25763" lon="5.18433">
        <ele>222</ele>
        <time>2022-07-23T12:04:48Z</time>
      </trkpt>
      <trkpt lat="46.25749" lon="5.1845">
        <ele>221.2</ele>
        <time>2022-07-23T12:04:50Z</time>
      </trkpt>
      <trkpt lat="46.2574" lon="5.18459">
        <ele>220.8</ele>
        <time>2022-07-23T12:04:51Z</time>
      </trkpt>
      <trkpt lat="46.2572" lon="5.18475">
        <ele>219.4</ele>
        <time>2022-07-23T12:04:53Z</time>
      </trkpt>
      <trkpt lat="46.2571" lon="5.18482">
        <ele>218</ele>
        <time>2022-07-23T12:04:54Z</time>
      </trkpt>
      <trkpt lat="46.25688" lon="5.18501">
        <ele>215.8</ele>
        <time>2022-07-23T12:04:56Z</time>
      </trkpt>
      <trkpt lat="46.2567" lon="5.18519">
        <ele>214.2</ele>
        <time>2022-07-23T12:04:58Z</time>
      </trkpt>
      <trkpt lat="46.25663" lon="5.18525">
        <ele>213.4</ele>
        <time>2022-07-23T12:04:59Z</time>
      </trkpt>
      <trkpt lat="46.25654" lon="5.18533">
        <ele>213.2</ele>
        <time>2022-07-23T12:05:00Z</time>
      </trkpt>
      <trkpt lat="46.25608" lon="5.18567">
        <ele>212.2</ele>
        <time>2022-07-23T12:05:05Z</time>
      </trkpt>
      <trkpt lat="46.25557" lon="5.18605">
        <ele>212.6</ele>
        <time>2022-07-23T12:05:11Z</time>
      </trkpt>
      <trkpt lat="46.25522" lon="5.18634">
        <ele>212.8</ele>
        <time>2022-07-23T12:05:16Z</time>
      </trkpt>
      <trkpt lat="46.2549" lon="5.18657">
        <ele>214.2</ele>
        <time>2022-07-23T12:05:22Z</time>
      </trkpt>
      <trkpt lat="46.25473" lon="5.18671">
        <ele>214.8</ele>
        <time>2022-07-23T12:05:24Z</time>
      </trkpt>
      <trkpt lat="46.25468" lon="5.18676">
        <ele>215.2</ele>
        <time>2022-07-23T12:05:25Z</time>
      </trkpt>
      <trkpt lat="46.25464" lon="5.1868">
        <ele>215.8</ele>
        <time>2022-07-23T12:05:26Z</time>
      </trkpt>
      <trkpt lat="46.25458" lon="5.18684">
        <ele>216.4</ele>
        <time>2022-07-23T12:05:27Z</time>
      </trkpt>
      <trkpt lat="46.25454" lon="5.18686">
        <ele>216.6</ele>
        <time>2022-07-23T12:05:28Z</time>
      </trkpt>
      <trkpt lat="46.2545" lon="5.18688">
        <ele>217.2</ele>
        <time>2022-07-23T12:05:29Z</time>
      </trkpt>
      <trkpt lat="46.25447" lon="5.18691">
        <ele>217.4</ele>
        <time>2022-07-23T12:05:30Z</time>
      </trkpt>
      <trkpt lat="46.25444" lon="5.18698">
        <ele>217.8</ele>
        <time>2022-07-23T12:05:31Z</time>
      </trkpt>
      <trkpt lat="46.25442" lon="5.18705">
        <ele>218</ele>
        <time>2022-07-23T12:05:32Z</time>
      </trkpt>
      <trkpt lat="46.25432" lon="5.18733">
        <ele>218.2</ele>
        <time>2022-07-23T12:05:35Z</time>
      </trkpt>
      <trkpt lat="46.25406" lon="5.18794">
        <ele>217.6</ele>
        <time>2022-07-23T12:05:41Z</time>
      </trkpt>
      <trkpt lat="46.25391" lon="5.18824">
        <ele>216.8</ele>
        <time>2022-07-23T12:05:44Z</time>
      </trkpt>
      <trkpt lat="46.25376" lon="5.18858">
        <ele>216.2</ele>
        <time>2022-07-23T12:05:47Z</time>
      </trkpt>
      <trkpt lat="46.2537" lon="5.18867">
        <ele>216.2</ele>
        <time>2022-07-23T12:05:48Z</time>
      </trkpt>
      <trkpt lat="46.25356" lon="5.18881">
        <ele>216</ele>
        <time>2022-07-23T12:05:50Z</time>
      </trkpt>
      <trkpt lat="46.25348" lon="5.18887">
        <ele>215.8</ele>
        <time>2022-07-23T12:05:51Z</time>
      </trkpt>
      <trkpt lat="46.25332" lon="5.18895">
        <ele>215.6</ele>
        <time>2022-07-23T12:05:54Z</time>
      </trkpt>
      <trkpt lat="46.25301" lon="5.18908">
        <ele>215.6</ele>
        <time>2022-07-23T12:05:57Z</time>
      </trkpt>
      <trkpt lat="46.25286" lon="5.18914">
        <ele>215.8</ele>
        <time>2022-07-23T12:05:59Z</time>
      </trkpt>
      <trkpt lat="46.25252" lon="5.18929">
        <ele>216.6</ele>
        <time>2022-07-23T12:06:04Z</time>
      </trkpt>
      <trkpt lat="46.25241" lon="5.18934">
        <ele>217</ele>
        <time>2022-07-23T12:06:06Z</time>
      </trkpt>
      <trkpt lat="46.25217" lon="5.18946">
        <ele>217.8</ele>
        <time>2022-07-23T12:06:10Z</time>
      </trkpt>
      <trkpt lat="46.25201" lon="5.18953">
        <ele>218.6</ele>
        <time>2022-07-23T12:06:13Z</time>
      </trkpt>
      <trkpt lat="46.25187" lon="5.18961">
        <ele>219.8</ele>
        <time>2022-07-23T12:06:16Z</time>
      </trkpt>
      <trkpt lat="46.25182" lon="5.18965">
        <ele>220</ele>
        <time>2022-07-23T12:06:17Z</time>
      </trkpt>
      <trkpt lat="46.2517" lon="5.18971">
        <ele>221</ele>
        <time>2022-07-23T12:06:20Z</time>
      </trkpt>
      <trkpt lat="46.25166" lon="5.18974">
        <ele>221.2</ele>
        <time>2022-07-23T12:06:21Z</time>
      </trkpt>
      <trkpt lat="46.25151" lon="5.18983">
        <ele>222</ele>
        <time>2022-07-23T12:06:24Z</time>
      </trkpt>
      <trkpt lat="46.25139" lon="5.18991">
        <ele>223.4</ele>
        <time>2022-07-23T12:06:27Z</time>
      </trkpt>
      <trkpt lat="46.25135" lon="5.18995">
        <ele>223.8</ele>
        <time>2022-07-23T12:06:28Z</time>
      </trkpt>
      <trkpt lat="46.25127" lon="5.19005">
        <ele>224.2</ele>
        <time>2022-07-23T12:06:30Z</time>
      </trkpt>
      <trkpt lat="46.2512" lon="5.19017">
        <ele>224.6</ele>
        <time>2022-07-23T12:06:32Z</time>
      </trkpt>
      <trkpt lat="46.25113" lon="5.19029">
        <ele>225</ele>
        <time>2022-07-23T12:06:34Z</time>
      </trkpt>
      <trkpt lat="46.25095" lon="5.19048">
        <ele>225.4</ele>
        <time>2022-07-23T12:06:38Z</time>
      </trkpt>
      <trkpt lat="46.2506" lon="5.19083">
        <ele>225.4</ele>
        <time>2022-07-23T12:06:45Z</time>
      </trkpt>
      <trkpt lat="46.25026" lon="5.19106">
        <ele>225.2</ele>
        <time>2022-07-23T12:06:51Z</time>
      </trkpt>
      <trkpt lat="46.2502" lon="5.19109">
        <ele>225.2</ele>
        <time>2022-07-23T12:06:52Z</time>
      </trkpt>
      <trkpt lat="46.2499" lon="5.19117">
        <ele>225.2</ele>
        <time>2022-07-23T12:06:57Z</time>
      </trkpt>
      <trkpt lat="46.24984" lon="5.19118">
        <ele>225.4</ele>
        <time>2022-07-23T12:06:58Z</time>
      </trkpt>
      <trkpt lat="46.24963" lon="5.19123">
        <ele>225.6</ele>
        <time>2022-07-23T12:07:02Z</time>
      </trkpt>
      <trkpt lat="46.24954" lon="5.19125">
        <ele>225.8</ele>
        <time>2022-07-23T12:07:04Z</time>
      </trkpt>
      <trkpt lat="46.24946" lon="5.19126">
        <ele>226</ele>
        <time>2022-07-23T12:07:07Z</time>
      </trkpt>
      <trkpt lat="46.24946" lon="5.19126">
        <ele>226</ele>
        <time>2022-07-23T12:07:08Z</time>
      </trkpt>
      <trkpt lat="46.24946" lon="5.19136">
        <ele>226</ele>
        <time>2022-07-23T12:07:09Z</time>
      </trkpt>
      <trkpt lat="46.24947" lon="5.19143">
        <ele>226</ele>
        <time>2022-07-23T12:07:10Z</time>
      </trkpt>
      <trkpt lat="46.24957" lon="5.19192">
        <ele>226</ele>
        <time>2022-07-23T12:07:15Z</time>
      </trkpt>
      <trkpt lat="46.24968" lon="5.19252">
        <ele>224.8</ele>
        <time>2022-07-23T12:07:20Z</time>
      </trkpt>
      <trkpt lat="46.2497" lon="5.19266">
        <ele>224</ele>
        <time>2022-07-23T12:07:21Z</time>
      </trkpt>
      <trkpt lat="46.24973" lon="5.19295">
        <ele>222.6</ele>
        <time>2022-07-23T12:07:23Z</time>
      </trkpt>
      <trkpt lat="46.24975" lon="5.19327">
        <ele>221.4</ele>
        <time>2022-07-23T12:07:25Z</time>
      </trkpt>
      <trkpt lat="46.24974" lon="5.19376">
        <ele>219.4</ele>
        <time>2022-07-23T12:07:28Z</time>
      </trkpt>
      <trkpt lat="46.24973" lon="5.19409">
        <ele>217.8</ele>
        <time>2022-07-23T12:07:30Z</time>
      </trkpt>
      <trkpt lat="46.24972" lon="5.19425">
        <ele>217.4</ele>
        <time>2022-07-23T12:07:31Z</time>
      </trkpt>
      <trkpt lat="46.2497" lon="5.19456">
        <ele>216.8</ele>
        <time>2022-07-23T12:07:33Z</time>
      </trkpt>
      <trkpt lat="46.24967" lon="5.195">
        <ele>215.8</ele>
        <time>2022-07-23T12:07:36Z</time>
      </trkpt>
      <trkpt lat="46.24967" lon="5.19514">
        <ele>215.4</ele>
        <time>2022-07-23T12:07:37Z</time>
      </trkpt>
      <trkpt lat="46.24962" lon="5.19596">
        <ele>215</ele>
        <time>2022-07-23T12:07:43Z</time>
      </trkpt>
      <trkpt lat="46.24959" lon="5.19674">
        <ele>215.8</ele>
        <time>2022-07-23T12:07:49Z</time>
      </trkpt>
      <trkpt lat="46.24956" lon="5.19754">
        <ele>216</ele>
        <time>2022-07-23T12:07:55Z</time>
      </trkpt>
      <trkpt lat="46.24956" lon="5.19782">
        <ele>216</ele>
        <time>2022-07-23T12:07:57Z</time>
      </trkpt>
      <trkpt lat="46.24963" lon="5.1986">
        <ele>215.4</ele>
        <time>2022-07-23T12:08:03Z</time>
      </trkpt>
      <trkpt lat="46.24974" lon="5.19922">
        <ele>215.2</ele>
        <time>2022-07-23T12:08:08Z</time>
      </trkpt>
      <trkpt lat="46.24975" lon="5.19934">
        <ele>215.2</ele>
        <time>2022-07-23T12:08:09Z</time>
      </trkpt>
      <trkpt lat="46.24975" lon="5.19946">
        <ele>215.4</ele>
        <time>2022-07-23T12:08:10Z</time>
      </trkpt>
      <trkpt lat="46.24972" lon="5.19982">
        <ele>215</ele>
        <time>2022-07-23T12:08:13Z</time>
      </trkpt>
      <trkpt lat="46.24968" lon="5.20005">
        <ele>214.8</ele>
        <time>2022-07-23T12:08:15Z</time>
      </trkpt>
      <trkpt lat="46.24955" lon="5.20086">
        <ele>215.2</ele>
        <time>2022-07-23T12:08:22Z</time>
      </trkpt>
      <trkpt lat="46.24953" lon="5.20097">
        <ele>215.2</ele>
        <time>2022-07-23T12:08:24Z</time>
      </trkpt>
      <trkpt lat="46.24943" lon="5.20177">
        <ele>215.6</ele>
        <time>2022-07-23T12:08:30Z</time>
      </trkpt>
      <trkpt lat="46.2494" lon="5.20199">
        <ele>215.6</ele>
        <time>2022-07-23T12:08:32Z</time>
      </trkpt>
      <trkpt lat="46.24939" lon="5.2028">
        <ele>215.6</ele>
        <time>2022-07-23T12:08:39Z</time>
      </trkpt>
      <trkpt lat="46.24943" lon="5.20359">
        <ele>215.2</ele>
        <time>2022-07-23T12:08:46Z</time>
      </trkpt>
      <trkpt lat="46.24944" lon="5.20381">
        <ele>215.2</ele>
        <time>2022-07-23T12:08:49Z</time>
      </trkpt>
      <trkpt lat="46.24946" lon="5.20402">
        <ele>215.4</ele>
        <time>2022-07-23T12:08:50Z</time>
      </trkpt>
      <trkpt lat="46.24955" lon="5.20475">
        <ele>215.8</ele>
        <time>2022-07-23T12:08:57Z</time>
      </trkpt>
      <trkpt lat="46.24973" lon="5.20535">
        <ele>215.8</ele>
        <time>2022-07-23T12:09:03Z</time>
      </trkpt>
      <trkpt lat="46.24982" lon="5.20565">
        <ele>215.8</ele>
        <time>2022-07-23T12:09:06Z</time>
      </trkpt>
      <trkpt lat="46.24983" lon="5.20584">
        <ele>215.8</ele>
        <time>2022-07-23T12:09:08Z</time>
      </trkpt>
      <trkpt lat="46.24971" lon="5.20596">
        <ele>216.2</ele>
        <time>2022-07-23T12:09:10Z</time>
      </trkpt>
      <trkpt lat="46.24918" lon="5.20619">
        <ele>216.6</ele>
        <time>2022-07-23T12:09:17Z</time>
      </trkpt>
      <trkpt lat="46.24864" lon="5.20642">
        <ele>216.4</ele>
        <time>2022-07-23T12:09:24Z</time>
      </trkpt>
      <trkpt lat="46.24856" lon="5.20646">
        <ele>216.4</ele>
        <time>2022-07-23T12:09:25Z</time>
      </trkpt>
      <trkpt lat="46.24833" lon="5.20656">
        <ele>216.4</ele>
        <time>2022-07-23T12:09:28Z</time>
      </trkpt>
      <trkpt lat="46.24779" lon="5.20679">
        <ele>216.2</ele>
        <time>2022-07-23T12:09:35Z</time>
      </trkpt>
      <trkpt lat="46.24764" lon="5.20684">
        <ele>216.2</ele>
        <time>2022-07-23T12:09:37Z</time>
      </trkpt>
      <trkpt lat="46.2471" lon="5.20698">
        <ele>216.6</ele>
        <time>2022-07-23T12:09:44Z</time>
      </trkpt>
      <trkpt lat="46.24695" lon="5.20701">
        <ele>216.8</ele>
        <time>2022-07-23T12:09:46Z</time>
      </trkpt>
      <trkpt lat="46.2468" lon="5.20705">
        <ele>217</ele>
        <time>2022-07-23T12:09:48Z</time>
      </trkpt>
      <trkpt lat="46.2465" lon="5.2071">
        <ele>217</ele>
        <time>2022-07-23T12:09:53Z</time>
      </trkpt>
      <trkpt lat="46.24595" lon="5.20719">
        <ele>217.2</ele>
        <time>2022-07-23T12:09:59Z</time>
      </trkpt>
      <trkpt lat="46.24595" lon="5.20719">
        <ele>217.2</ele>
        <time>2022-07-23T12:10:00Z</time>
      </trkpt>
      <trkpt lat="46.2454" lon="5.20719">
        <ele>217.2</ele>
        <time>2022-07-23T12:10:06Z</time>
      </trkpt>
      <trkpt lat="46.24532" lon="5.20718">
        <ele>217.2</ele>
        <time>2022-07-23T12:10:07Z</time>
      </trkpt>
      <trkpt lat="46.24472" lon="5.20719">
        <ele>217</ele>
        <time>2022-07-23T12:10:15Z</time>
      </trkpt>
      <trkpt lat="46.24457" lon="5.2072">
        <ele>217</ele>
        <time>2022-07-23T12:10:17Z</time>
      </trkpt>
      <trkpt lat="46.24411" lon="5.20719">
        <ele>216.6</ele>
        <time>2022-07-23T12:10:23Z</time>
      </trkpt>
      <trkpt lat="46.2436" lon="5.20726">
        <ele>216.6</ele>
        <time>2022-07-23T12:10:30Z</time>
      </trkpt>
      <trkpt lat="46.24295" lon="5.20741">
        <ele>217.4</ele>
        <time>2022-07-23T12:10:39Z</time>
      </trkpt>
      <trkpt lat="46.24286" lon="5.20742">
        <ele>217.4</ele>
        <time>2022-07-23T12:10:40Z</time>
      </trkpt>
      <trkpt lat="46.24239" lon="5.20745">
        <ele>217.4</ele>
        <time>2022-07-23T12:10:46Z</time>
      </trkpt>
      <trkpt lat="46.24232" lon="5.20744">
        <ele>217.4</ele>
        <time>2022-07-23T12:10:47Z</time>
      </trkpt>
      <trkpt lat="46.2421" lon="5.20734">
        <ele>217.4</ele>
        <time>2022-07-23T12:10:50Z</time>
      </trkpt>
      <trkpt lat="46.24188" lon="5.20722">
        <ele>217.6</ele>
        <time>2022-07-23T12:10:53Z</time>
      </trkpt>
      <trkpt lat="46.24166" lon="5.20717">
        <ele>217.6</ele>
        <time>2022-07-23T12:10:56Z</time>
      </trkpt>
      <trkpt lat="46.24144" lon="5.20713">
        <ele>218</ele>
        <time>2022-07-23T12:10:59Z</time>
      </trkpt>
      <trkpt lat="46.24115" lon="5.20713">
        <ele>218.2</ele>
        <time>2022-07-23T12:11:03Z</time>
      </trkpt>
      <trkpt lat="46.24061" lon="5.20715">
        <ele>217.8</ele>
        <time>2022-07-23T12:11:10Z</time>
      </trkpt>
      <trkpt lat="46.24046" lon="5.20712">
        <ele>217.8</ele>
        <time>2022-07-23T12:11:12Z</time>
      </trkpt>
      <trkpt lat="46.24026" lon="5.20703">
        <ele>217.6</ele>
        <time>2022-07-23T12:11:15Z</time>
      </trkpt>
      <trkpt lat="46.23984" lon="5.20684">
        <ele>217.6</ele>
        <time>2022-07-23T12:11:21Z</time>
      </trkpt>
      <trkpt lat="46.23976" lon="5.20681">
        <ele>217.4</ele>
        <time>2022-07-23T12:11:22Z</time>
      </trkpt>
      <trkpt lat="46.23949" lon="5.20677">
        <ele>217.4</ele>
        <time>2022-07-23T12:11:26Z</time>
      </trkpt>
      <trkpt lat="46.23939" lon="5.20677">
        <ele>217.4</ele>
        <time>2022-07-23T12:11:27Z</time>
      </trkpt>
      <trkpt lat="46.23887" lon="5.20676">
        <ele>217.4</ele>
        <time>2022-07-23T12:11:34Z</time>
      </trkpt>
      <trkpt lat="46.2383" lon="5.20667">
        <ele>217.4</ele>
        <time>2022-07-23T12:11:42Z</time>
      </trkpt>
      <trkpt lat="46.23823" lon="5.20667">
        <ele>217.6</ele>
        <time>2022-07-23T12:11:43Z</time>
      </trkpt>
      <trkpt lat="46.23813" lon="5.20674">
        <ele>217.6</ele>
        <time>2022-07-23T12:11:45Z</time>
      </trkpt>
      <trkpt lat="46.2381" lon="5.20692">
        <ele>217.6</ele>
        <time>2022-07-23T12:11:47Z</time>
      </trkpt>
      <trkpt lat="46.23811" lon="5.20703">
        <ele>217.8</ele>
        <time>2022-07-23T12:11:48Z</time>
      </trkpt>
      <trkpt lat="46.23815" lon="5.20725">
        <ele>217.8</ele>
        <time>2022-07-23T12:11:50Z</time>
      </trkpt>
      <trkpt lat="46.23819" lon="5.20748">
        <ele>218</ele>
        <time>2022-07-23T12:11:52Z</time>
      </trkpt>
      <trkpt lat="46.23821" lon="5.20771">
        <ele>218</ele>
        <time>2022-07-23T12:11:54Z</time>
      </trkpt>
      <trkpt lat="46.2382" lon="5.20793">
        <ele>218</ele>
        <time>2022-07-23T12:11:56Z</time>
      </trkpt>
      <trkpt lat="46.23809" lon="5.20835">
        <ele>218.2</ele>
        <time>2022-07-23T12:12:00Z</time>
      </trkpt>
      <trkpt lat="46.23807" lon="5.20846">
        <ele>218.2</ele>
        <time>2022-07-23T12:12:01Z</time>
      </trkpt>
      <trkpt lat="46.23807" lon="5.20857">
        <ele>218.2</ele>
        <time>2022-07-23T12:12:02Z</time>
      </trkpt>
      <trkpt lat="46.23812" lon="5.20877">
        <ele>218.2</ele>
        <time>2022-07-23T12:12:04Z</time>
      </trkpt>
      <trkpt lat="46.23836" lon="5.20918">
        <ele>218.4</ele>
        <time>2022-07-23T12:12:09Z</time>
      </trkpt>
      <trkpt lat="46.23852" lon="5.2094">
        <ele>218.4</ele>
        <time>2022-07-23T12:12:12Z</time>
      </trkpt>
      <trkpt lat="46.23854" lon="5.20949">
        <ele>218.6</ele>
        <time>2022-07-23T12:12:13Z</time>
      </trkpt>
      <trkpt lat="46.23854" lon="5.20958">
        <ele>218.8</ele>
        <time>2022-07-23T12:12:14Z</time>
      </trkpt>
      <trkpt lat="46.2385" lon="5.20967">
        <ele>218.8</ele>
        <time>2022-07-23T12:12:15Z</time>
      </trkpt>
      <trkpt lat="46.23833" lon="5.20995">
        <ele>219</ele>
        <time>2022-07-23T12:12:19Z</time>
      </trkpt>
      <trkpt lat="46.2382" lon="5.21016">
        <ele>219.2</ele>
        <time>2022-07-23T12:12:22Z</time>
      </trkpt>
      <trkpt lat="46.23801" lon="5.21052">
        <ele>219.4</ele>
        <time>2022-07-23T12:12:27Z</time>
      </trkpt>
      <trkpt lat="46.23796" lon="5.21068">
        <ele>219.6</ele>
        <time>2022-07-23T12:12:29Z</time>
      </trkpt>
      <trkpt lat="46.23794" lon="5.21076">
        <ele>219.6</ele>
        <time>2022-07-23T12:12:30Z</time>
      </trkpt>
      <trkpt lat="46.23785" lon="5.21118">
        <ele>219.2</ele>
        <time>2022-07-23T12:12:35Z</time>
      </trkpt>
      <trkpt lat="46.23778" lon="5.21169">
        <ele>219</ele>
        <time>2022-07-23T12:12:41Z</time>
      </trkpt>
      <trkpt lat="46.23777" lon="5.21178">
        <ele>219</ele>
        <time>2022-07-23T12:12:42Z</time>
      </trkpt>
      <trkpt lat="46.23766" lon="5.21235">
        <ele>219.6</ele>
        <time>2022-07-23T12:12:50Z</time>
      </trkpt>
      <trkpt lat="46.23765" lon="5.2124">
        <ele>220</ele>
        <time>2022-07-23T12:12:53Z</time>
      </trkpt>
      <trkpt lat="46.23765" lon="5.21241">
        <ele>220.2</ele>
        <time>2022-07-23T12:12:54Z</time>
      </trkpt>
      <trkpt lat="46.23765" lon="5.21241">
        <ele>220.4</ele>
        <time>2022-07-23T12:12:55Z</time>
      </trkpt>
      <trkpt lat="46.23765" lon="5.21241">
        <ele>220.4</ele>
        <time>2022-07-23T12:12:56Z</time>
      </trkpt>
      <trkpt lat="46.23763" lon="5.21247">
        <ele>220.2</ele>
        <time>2022-07-23T12:13:37Z</time>
      </trkpt>
      <trkpt lat="46.23762" lon="5.21256">
        <ele>220.2</ele>
        <time>2022-07-23T12:13:39Z</time>
      </trkpt>
      <trkpt lat="46.2376" lon="5.21274">
        <ele>220.2</ele>
        <time>2022-07-23T12:13:42Z</time>
      </trkpt>
      <trkpt lat="46.2376" lon="5.21282">
        <ele>220.2</ele>
        <time>2022-07-23T12:13:43Z</time>
      </trkpt>
      <trkpt lat="46.23754" lon="5.21322">
        <ele>220.4</ele>
        <time>2022-07-23T12:13:48Z</time>
      </trkpt>
      <trkpt lat="46.23751" lon="5.21339">
        <ele>220.4</ele>
        <time>2022-07-23T12:13:50Z</time>
      </trkpt>
      <trkpt lat="46.23743" lon="5.21376">
        <ele>220.2</ele>
        <time>2022-07-23T12:13:55Z</time>
      </trkpt>
      <trkpt lat="46.23724" lon="5.21442">
        <ele>220.4</ele>
        <time>2022-07-23T12:14:03Z</time>
      </trkpt>
      <trkpt lat="46.23718" lon="5.21476">
        <ele>221.4</ele>
        <time>2022-07-23T12:14:07Z</time>
      </trkpt>
      <trkpt lat="46.23717" lon="5.21484">
        <ele>221.4</ele>
        <time>2022-07-23T12:14:08Z</time>
      </trkpt>
      <trkpt lat="46.23715" lon="5.2151">
        <ele>221.4</ele>
        <time>2022-07-23T12:14:11Z</time>
      </trkpt>
      <trkpt lat="46.23716" lon="5.21538">
        <ele>221.2</ele>
        <time>2022-07-23T12:14:14Z</time>
      </trkpt>
      <trkpt lat="46.23715" lon="5.21565">
        <ele>220.2</ele>
        <time>2022-07-23T12:14:17Z</time>
      </trkpt>
      <trkpt lat="46.23714" lon="5.21583">
        <ele>220.4</ele>
        <time>2022-07-23T12:14:19Z</time>
      </trkpt>
      <trkpt lat="46.23711" lon="5.21592">
        <ele>220.6</ele>
        <time>2022-07-23T12:14:20Z</time>
      </trkpt>
      <trkpt lat="46.23708" lon="5.21599">
        <ele>220.6</ele>
        <time>2022-07-23T12:14:21Z</time>
      </trkpt>
      <trkpt lat="46.23697" lon="5.2161">
        <ele>221</ele>
        <time>2022-07-23T12:14:23Z</time>
      </trkpt>
      <trkpt lat="46.23692" lon="5.21616">
        <ele>221.2</ele>
        <time>2022-07-23T12:14:24Z</time>
      </trkpt>
      <trkpt lat="46.23684" lon="5.21629">
        <ele>220.8</ele>
        <time>2022-07-23T12:14:26Z</time>
      </trkpt>
      <trkpt lat="46.23681" lon="5.21637">
        <ele>220.8</ele>
        <time>2022-07-23T12:14:27Z</time>
      </trkpt>
      <trkpt lat="46.2368" lon="5.21646">
        <ele>221</ele>
        <time>2022-07-23T12:14:28Z</time>
      </trkpt>
      <trkpt lat="46.23676" lon="5.21683">
        <ele>220.6</ele>
        <time>2022-07-23T12:14:32Z</time>
      </trkpt>
      <trkpt lat="46.23673" lon="5.21757">
        <ele>220</ele>
        <time>2022-07-23T12:14:40Z</time>
      </trkpt>
      <trkpt lat="46.23673" lon="5.21784">
        <ele>220</ele>
        <time>2022-07-23T12:14:43Z</time>
      </trkpt>
      <trkpt lat="46.23675" lon="5.21793">
        <ele>220</ele>
        <time>2022-07-23T12:14:44Z</time>
      </trkpt>
      <trkpt lat="46.23678" lon="5.218">
        <ele>220</ele>
        <time>2022-07-23T12:14:45Z</time>
      </trkpt>
      <trkpt lat="46.23686" lon="5.21812">
        <ele>220</ele>
        <time>2022-07-23T12:14:47Z</time>
      </trkpt>
      <trkpt lat="46.23692" lon="5.21817">
        <ele>220</ele>
        <time>2022-07-23T12:14:48Z</time>
      </trkpt>
      <trkpt lat="46.2372" lon="5.21838">
        <ele>220.2</ele>
        <time>2022-07-23T12:14:54Z</time>
      </trkpt>
      <trkpt lat="46.23761" lon="5.21867">
        <ele>220.2</ele>
        <time>2022-07-23T12:15:00Z</time>
      </trkpt>
      <trkpt lat="46.23767" lon="5.21871">
        <ele>220.2</ele>
        <time>2022-07-23T12:15:01Z</time>
      </trkpt>
      <trkpt lat="46.23784" lon="5.21886">
        <ele>220.2</ele>
        <time>2022-07-23T12:15:04Z</time>
      </trkpt>
      <trkpt lat="46.23789" lon="5.21892">
        <ele>220.4</ele>
        <time>2022-07-23T12:15:05Z</time>
      </trkpt>
      <trkpt lat="46.23816" lon="5.21935">
        <ele>221.4</ele>
        <time>2022-07-23T12:15:11Z</time>
      </trkpt>
      <trkpt lat="46.23829" lon="5.21967">
        <ele>221.6</ele>
        <time>2022-07-23T12:15:15Z</time>
      </trkpt>
      <trkpt lat="46.23834" lon="5.21974">
        <ele>221.6</ele>
        <time>2022-07-23T12:15:16Z</time>
      </trkpt>
      <trkpt lat="46.2384" lon="5.21979">
        <ele>221.6</ele>
        <time>2022-07-23T12:15:17Z</time>
      </trkpt>
      <trkpt lat="46.23854" lon="5.21984">
        <ele>221.6</ele>
        <time>2022-07-23T12:15:19Z</time>
      </trkpt>
      <trkpt lat="46.23881" lon="5.21982">
        <ele>220.6</ele>
        <time>2022-07-23T12:15:23Z</time>
      </trkpt>
      <trkpt lat="46.23888" lon="5.21984">
        <ele>220.4</ele>
        <time>2022-07-23T12:15:24Z</time>
      </trkpt>
      <trkpt lat="46.23894" lon="5.21989">
        <ele>220.4</ele>
        <time>2022-07-23T12:15:25Z</time>
      </trkpt>
      <trkpt lat="46.23903" lon="5.22003">
        <ele>220.4</ele>
        <time>2022-07-23T12:15:27Z</time>
      </trkpt>
      <trkpt lat="46.23913" lon="5.22047">
        <ele>220.4</ele>
        <time>2022-07-23T12:15:32Z</time>
      </trkpt>
      <trkpt lat="46.23921" lon="5.22081">
        <ele>220.8</ele>
        <time>2022-07-23T12:15:36Z</time>
      </trkpt>
      <trkpt lat="46.23927" lon="5.22095">
        <ele>220.8</ele>
        <time>2022-07-23T12:15:38Z</time>
      </trkpt>
      <trkpt lat="46.2394" lon="5.22121">
        <ele>221.4</ele>
        <time>2022-07-23T12:15:42Z</time>
      </trkpt>
      <trkpt lat="46.23951" lon="5.22145">
        <ele>222</ele>
        <time>2022-07-23T12:15:46Z</time>
      </trkpt>
      <trkpt lat="46.23956" lon="5.22156">
        <ele>223</ele>
        <time>2022-07-23T12:15:48Z</time>
      </trkpt>
      <trkpt lat="46.2396" lon="5.22166">
        <ele>224.2</ele>
        <time>2022-07-23T12:15:50Z</time>
      </trkpt>
      <trkpt lat="46.23965" lon="5.22177">
        <ele>224.6</ele>
        <time>2022-07-23T12:15:52Z</time>
      </trkpt>
      <trkpt lat="46.23971" lon="5.22191">
        <ele>225.4</ele>
        <time>2022-07-23T12:15:55Z</time>
      </trkpt>
      <trkpt lat="46.2398" lon="5.22208">
        <ele>226.8</ele>
        <time>2022-07-23T12:15:59Z</time>
      </trkpt>
      <trkpt lat="46.23981" lon="5.22212">
        <ele>227.4</ele>
        <time>2022-07-23T12:16:00Z</time>
      </trkpt>
      <trkpt lat="46.23982" lon="5.22221">
        <ele>227.8</ele>
        <time>2022-07-23T12:16:02Z</time>
      </trkpt>
      <trkpt lat="46.2398" lon="5.2223">
        <ele>228.4</ele>
        <time>2022-07-23T12:16:04Z</time>
      </trkpt>
      <trkpt lat="46.23974" lon="5.22238">
        <ele>229</ele>
        <time>2022-07-23T12:16:06Z</time>
      </trkpt>
      <trkpt lat="46.23966" lon="5.22251">
        <ele>230</ele>
        <time>2022-07-23T12:16:09Z</time>
      </trkpt>
      <trkpt lat="46.23956" lon="5.22265">
        <ele>230.4</ele>
        <time>2022-07-23T12:16:12Z</time>
      </trkpt>
      <trkpt lat="46.23941" lon="5.22282">
        <ele>231</ele>
        <time>2022-07-23T12:16:16Z</time>
      </trkpt>
      <trkpt lat="46.23928" lon="5.22294">
        <ele>231.2</ele>
        <time>2022-07-23T12:16:19Z</time>
      </trkpt>
      <trkpt lat="46.23923" lon="5.22298">
        <ele>231.4</ele>
        <time>2022-07-23T12:16:20Z</time>
      </trkpt>
      <trkpt lat="46.23914" lon="5.22305">
        <ele>231.4</ele>
        <time>2022-07-23T12:16:22Z</time>
      </trkpt>
      <trkpt lat="46.23889" lon="5.22326">
        <ele>231.6</ele>
        <time>2022-07-23T12:16:27Z</time>
      </trkpt>
      <trkpt lat="46.23879" lon="5.22336">
        <ele>231.6</ele>
        <time>2022-07-23T12:16:29Z</time>
      </trkpt>
      <trkpt lat="46.2384" lon="5.22371">
        <ele>230.8</ele>
        <time>2022-07-23T12:16:36Z</time>
      </trkpt>
      <trkpt lat="46.23817" lon="5.22395">
        <ele>230</ele>
        <time>2022-07-23T12:16:40Z</time>
      </trkpt>
      <trkpt lat="46.238" lon="5.22417">
        <ele>229.6</ele>
        <time>2022-07-23T12:16:43Z</time>
      </trkpt>
      <trkpt lat="46.23782" lon="5.22439">
        <ele>229</ele>
        <time>2022-07-23T12:16:46Z</time>
      </trkpt>
      <trkpt lat="46.23756" lon="5.22475">
        <ele>228.6</ele>
        <time>2022-07-23T12:16:51Z</time>
      </trkpt>
      <trkpt lat="46.23728" lon="5.22515">
        <ele>229.4</ele>
        <time>2022-07-23T12:16:57Z</time>
      </trkpt>
      <trkpt lat="46.23713" lon="5.22533">
        <ele>230</ele>
        <time>2022-07-23T12:17:00Z</time>
      </trkpt>
      <trkpt lat="46.23697" lon="5.22546">
        <ele>230.2</ele>
        <time>2022-07-23T12:17:03Z</time>
      </trkpt>
      <trkpt lat="46.23673" lon="5.22559">
        <ele>231</ele>
        <time>2022-07-23T12:17:07Z</time>
      </trkpt>
      <trkpt lat="46.23643" lon="5.22575">
        <ele>231.2</ele>
        <time>2022-07-23T12:17:12Z</time>
      </trkpt>
      <trkpt lat="46.23599" lon="5.22598">
        <ele>231.4</ele>
        <time>2022-07-23T12:17:19Z</time>
      </trkpt>
      <trkpt lat="46.23546" lon="5.22627">
        <ele>231.4</ele>
        <time>2022-07-23T12:17:27Z</time>
      </trkpt>
      <trkpt lat="46.23533" lon="5.22637">
        <ele>231.2</ele>
        <time>2022-07-23T12:17:29Z</time>
      </trkpt>
      <trkpt lat="46.23521" lon="5.22651">
        <ele>231</ele>
        <time>2022-07-23T12:17:31Z</time>
      </trkpt>
      <trkpt lat="46.23517" lon="5.22659">
        <ele>230.8</ele>
        <time>2022-07-23T12:17:32Z</time>
      </trkpt>
      <trkpt lat="46.23513" lon="5.22669">
        <ele>230.4</ele>
        <time>2022-07-23T12:17:33Z</time>
      </trkpt>
      <trkpt lat="46.23512" lon="5.22688">
        <ele>229.8</ele>
        <time>2022-07-23T12:17:35Z</time>
      </trkpt>
      <trkpt lat="46.2352" lon="5.2271">
        <ele>229.2</ele>
        <time>2022-07-23T12:17:37Z</time>
      </trkpt>
      <trkpt lat="46.23525" lon="5.22718">
        <ele>229.2</ele>
        <time>2022-07-23T12:17:38Z</time>
      </trkpt>
      <trkpt lat="46.23545" lon="5.22763">
        <ele>229</ele>
        <time>2022-07-23T12:17:43Z</time>
      </trkpt>
      <trkpt lat="46.23547" lon="5.2278">
        <ele>229.2</ele>
        <time>2022-07-23T12:17:45Z</time>
      </trkpt>
      <trkpt lat="46.23547" lon="5.22797">
        <ele>229.6</ele>
        <time>2022-07-23T12:17:47Z</time>
      </trkpt>
      <trkpt lat="46.23547" lon="5.22804">
        <ele>229.6</ele>
        <time>2022-07-23T12:17:48Z</time>
      </trkpt>
      <trkpt lat="46.23545" lon="5.22817">
        <ele>230.6</ele>
        <time>2022-07-23T12:17:50Z</time>
      </trkpt>
      <trkpt lat="46.23544" lon="5.22821">
        <ele>230.8</ele>
        <time>2022-07-23T12:17:51Z</time>
      </trkpt>
      <trkpt lat="46.23542" lon="5.22823">
        <ele>231.2</ele>
        <time>2022-07-23T12:17:52Z</time>
      </trkpt>
      <trkpt lat="46.23542" lon="5.22824">
        <ele>232</ele>
        <time>2022-07-23T12:17:54Z</time>
      </trkpt>
      <trkpt lat="46.2354" lon="5.22831">
        <ele>233.2</ele>
        <time>2022-07-23T12:18:00Z</time>
      </trkpt>
      <trkpt lat="46.23541" lon="5.22842">
        <ele>233.4</ele>
        <time>2022-07-23T12:18:02Z</time>
      </trkpt>
      <trkpt lat="46.2355" lon="5.22883">
        <ele>233.4</ele>
        <time>2022-07-23T12:18:07Z</time>
      </trkpt>
      <trkpt lat="46.23558" lon="5.22933">
        <ele>232.8</ele>
        <time>2022-07-23T12:18:12Z</time>
      </trkpt>
      <trkpt lat="46.23572" lon="5.23013">
        <ele>233.4</ele>
        <time>2022-07-23T12:18:20Z</time>
      </trkpt>
      <trkpt lat="46.23574" lon="5.23022">
        <ele>233.4</ele>
        <time>2022-07-23T12:18:21Z</time>
      </trkpt>
      <trkpt lat="46.23584" lon="5.23092">
        <ele>233.8</ele>
        <time>2022-07-23T12:18:28Z</time>
      </trkpt>
      <trkpt lat="46.23592" lon="5.23172">
        <ele>233.8</ele>
        <time>2022-07-23T12:18:36Z</time>
      </trkpt>
      <trkpt lat="46.23592" lon="5.23201">
        <ele>233.8</ele>
        <time>2022-07-23T12:18:39Z</time>
      </trkpt>
      <trkpt lat="46.2359" lon="5.23211">
        <ele>233.8</ele>
        <time>2022-07-23T12:18:40Z</time>
      </trkpt>
      <trkpt lat="46.23587" lon="5.23219">
        <ele>233.8</ele>
        <time>2022-07-23T12:18:41Z</time>
      </trkpt>
      <trkpt lat="46.23573" lon="5.23254">
        <ele>233.8</ele>
        <time>2022-07-23T12:18:45Z</time>
      </trkpt>
      <trkpt lat="46.23555" lon="5.23297">
        <ele>234</ele>
        <time>2022-07-23T12:18:50Z</time>
      </trkpt>
      <trkpt lat="46.23542" lon="5.23321">
        <ele>234.2</ele>
        <time>2022-07-23T12:18:53Z</time>
      </trkpt>
      <trkpt lat="46.23538" lon="5.23329">
        <ele>234.2</ele>
        <time>2022-07-23T12:18:54Z</time>
      </trkpt>
      <trkpt lat="46.23505" lon="5.23393">
        <ele>235</ele>
        <time>2022-07-23T12:19:02Z</time>
      </trkpt>
      <trkpt lat="46.23487" lon="5.23435">
        <ele>235.2</ele>
        <time>2022-07-23T12:19:07Z</time>
      </trkpt>
      <trkpt lat="46.23482" lon="5.23452">
        <ele>235.4</ele>
        <time>2022-07-23T12:19:09Z</time>
      </trkpt>
      <trkpt lat="46.23465" lon="5.23527">
        <ele>236</ele>
        <time>2022-07-23T12:19:17Z</time>
      </trkpt>
      <trkpt lat="46.23459" lon="5.23565">
        <ele>236.4</ele>
        <time>2022-07-23T12:19:21Z</time>
      </trkpt>
      <trkpt lat="46.23453" lon="5.23599">
        <ele>236.6</ele>
        <time>2022-07-23T12:19:25Z</time>
      </trkpt>
      <trkpt lat="46.23448" lon="5.23617">
        <ele>236.6</ele>
        <time>2022-07-23T12:19:27Z</time>
      </trkpt>
      <trkpt lat="46.23438" lon="5.23634">
        <ele>236.8</ele>
        <time>2022-07-23T12:19:29Z</time>
      </trkpt>
      <trkpt lat="46.23416" lon="5.2365">
        <ele>237.4</ele>
        <time>2022-07-23T12:19:33Z</time>
      </trkpt>
      <trkpt lat="46.23385" lon="5.23678">
        <ele>238.4</ele>
        <time>2022-07-23T12:19:39Z</time>
      </trkpt>
      <trkpt lat="46.23385" lon="5.23678">
        <ele>238.6</ele>
        <time>2022-07-23T12:19:40Z</time>
      </trkpt>
      <trkpt lat="46.23377" lon="5.23691">
        <ele>239.2</ele>
        <time>2022-07-23T12:19:41Z</time>
      </trkpt>
      <trkpt lat="46.23366" lon="5.23712">
        <ele>239.8</ele>
        <time>2022-07-23T12:19:44Z</time>
      </trkpt>
      <trkpt lat="46.23362" lon="5.23719">
        <ele>240</ele>
        <time>2022-07-23T12:19:45Z</time>
      </trkpt>
      <trkpt lat="46.23344" lon="5.23756">
        <ele>241</ele>
        <time>2022-07-23T12:19:50Z</time>
      </trkpt>
      <trkpt lat="46.23334" lon="5.2378">
        <ele>241.2</ele>
        <time>2022-07-23T12:19:53Z</time>
      </trkpt>
      <trkpt lat="46.2332" lon="5.23811">
        <ele>241.6</ele>
        <time>2022-07-23T12:19:57Z</time>
      </trkpt>
      <trkpt lat="46.23311" lon="5.23824">
        <ele>242</ele>
        <time>2022-07-23T12:19:59Z</time>
      </trkpt>
      <trkpt lat="46.23307" lon="5.23831">
        <ele>242.2</ele>
        <time>2022-07-23T12:20:00Z</time>
      </trkpt>
      <trkpt lat="46.23266" lon="5.23877">
        <ele>242.4</ele>
        <time>2022-07-23T12:20:08Z</time>
      </trkpt>
      <trkpt lat="46.23225" lon="5.23916">
        <ele>242.8</ele>
        <time>2022-07-23T12:20:15Z</time>
      </trkpt>
      <trkpt lat="46.23174" lon="5.23963">
        <ele>241.8</ele>
        <time>2022-07-23T12:20:23Z</time>
      </trkpt>
      <trkpt lat="46.23144" lon="5.23997">
        <ele>241</ele>
        <time>2022-07-23T12:20:28Z</time>
      </trkpt>
      <trkpt lat="46.23121" lon="5.24025">
        <ele>241</ele>
        <time>2022-07-23T12:20:32Z</time>
      </trkpt>
      <trkpt lat="46.23093" lon="5.24071">
        <ele>241</ele>
        <time>2022-07-23T12:20:38Z</time>
      </trkpt>
      <trkpt lat="46.23068" lon="5.24119">
        <ele>242</ele>
        <time>2022-07-23T12:20:44Z</time>
      </trkpt>
      <trkpt lat="46.23044" lon="5.24179">
        <ele>242.8</ele>
        <time>2022-07-23T12:20:51Z</time>
      </trkpt>
      <trkpt lat="46.23035" lon="5.24205">
        <ele>243.2</ele>
        <time>2022-07-23T12:20:54Z</time>
      </trkpt>
      <trkpt lat="46.23024" lon="5.24229">
        <ele>243.4</ele>
        <time>2022-07-23T12:20:57Z</time>
      </trkpt>
      <trkpt lat="46.22992" lon="5.24288">
        <ele>244.2</ele>
        <time>2022-07-23T12:21:05Z</time>
      </trkpt>
      <trkpt lat="46.22988" lon="5.24295">
        <ele>244.4</ele>
        <time>2022-07-23T12:21:06Z</time>
      </trkpt>
      <trkpt lat="46.22952" lon="5.24352">
        <ele>245</ele>
        <time>2022-07-23T12:21:14Z</time>
      </trkpt>
      <trkpt lat="46.22917" lon="5.24407">
        <ele>245.2</ele>
        <time>2022-07-23T12:21:22Z</time>
      </trkpt>
      <trkpt lat="46.22908" lon="5.24421">
        <ele>245.4</ele>
        <time>2022-07-23T12:21:24Z</time>
      </trkpt>
      <trkpt lat="46.22881" lon="5.24464">
        <ele>245.6</ele>
        <time>2022-07-23T12:21:30Z</time>
      </trkpt>
      <trkpt lat="46.22842" lon="5.2451">
        <ele>245</ele>
        <time>2022-07-23T12:21:37Z</time>
      </trkpt>
      <trkpt lat="46.22793" lon="5.24551">
        <ele>244.8</ele>
        <time>2022-07-23T12:21:45Z</time>
      </trkpt>
      <trkpt lat="46.22787" lon="5.24555">
        <ele>244.8</ele>
        <time>2022-07-23T12:21:46Z</time>
      </trkpt>
      <trkpt lat="46.22736" lon="5.24591">
        <ele>245</ele>
        <time>2022-07-23T12:21:54Z</time>
      </trkpt>
      <trkpt lat="46.22727" lon="5.24596">
        <ele>245.2</ele>
        <time>2022-07-23T12:21:56Z</time>
      </trkpt>
      <trkpt lat="46.22673" lon="5.24622">
        <ele>245.2</ele>
        <time>2022-07-23T12:22:04Z</time>
      </trkpt>
      <trkpt lat="46.2266" lon="5.24626">
        <ele>245.4</ele>
        <time>2022-07-23T12:22:06Z</time>
      </trkpt>
      <trkpt lat="46.22646" lon="5.24625">
        <ele>245.6</ele>
        <time>2022-07-23T12:22:08Z</time>
      </trkpt>
      <trkpt lat="46.2264" lon="5.24623">
        <ele>245.6</ele>
        <time>2022-07-23T12:22:09Z</time>
      </trkpt>
      <trkpt lat="46.22615" lon="5.24613">
        <ele>246</ele>
        <time>2022-07-23T12:22:13Z</time>
      </trkpt>
      <trkpt lat="46.22607" lon="5.24615">
        <ele>246</ele>
        <time>2022-07-23T12:22:15Z</time>
      </trkpt>
      <trkpt lat="46.22603" lon="5.24628">
        <ele>246</ele>
        <time>2022-07-23T12:22:17Z</time>
      </trkpt>
      <trkpt lat="46.22602" lon="5.24635">
        <ele>246</ele>
        <time>2022-07-23T12:22:18Z</time>
      </trkpt>
      <trkpt lat="46.22601" lon="5.24675">
        <ele>246</ele>
        <time>2022-07-23T12:22:23Z</time>
      </trkpt>
      <trkpt lat="46.226" lon="5.247">
        <ele>245.8</ele>
        <time>2022-07-23T12:22:26Z</time>
      </trkpt>
      <trkpt lat="46.22598" lon="5.24764">
        <ele>246</ele>
        <time>2022-07-23T12:22:33Z</time>
      </trkpt>
      <trkpt lat="46.22593" lon="5.2478">
        <ele>246.2</ele>
        <time>2022-07-23T12:22:35Z</time>
      </trkpt>
      <trkpt lat="46.22589" lon="5.24788">
        <ele>246.2</ele>
        <time>2022-07-23T12:22:36Z</time>
      </trkpt>
      <trkpt lat="46.22585" lon="5.24793">
        <ele>246.2</ele>
        <time>2022-07-23T12:22:37Z</time>
      </trkpt>
      <trkpt lat="46.22573" lon="5.24798">
        <ele>246.2</ele>
        <time>2022-07-23T12:22:39Z</time>
      </trkpt>
      <trkpt lat="46.2256" lon="5.24796">
        <ele>246.2</ele>
        <time>2022-07-23T12:22:41Z</time>
      </trkpt>
      <trkpt lat="46.22547" lon="5.2479">
        <ele>246.2</ele>
        <time>2022-07-23T12:22:43Z</time>
      </trkpt>
      <trkpt lat="46.22527" lon="5.24783">
        <ele>246.6</ele>
        <time>2022-07-23T12:22:46Z</time>
      </trkpt>
      <trkpt lat="46.22493" lon="5.24771">
        <ele>246.6</ele>
        <time>2022-07-23T12:22:51Z</time>
      </trkpt>
      <trkpt lat="46.22445" lon="5.24762">
        <ele>246.4</ele>
        <time>2022-07-23T12:22:58Z</time>
      </trkpt>
      <trkpt lat="46.22439" lon="5.24764">
        <ele>246.4</ele>
        <time>2022-07-23T12:22:59Z</time>
      </trkpt>
      <trkpt lat="46.22433" lon="5.24769">
        <ele>246.4</ele>
        <time>2022-07-23T12:23:00Z</time>
      </trkpt>
      <trkpt lat="46.22423" lon="5.24783">
        <ele>246.6</ele>
        <time>2022-07-23T12:23:02Z</time>
      </trkpt>
      <trkpt lat="46.22397" lon="5.24842">
        <ele>246.4</ele>
        <time>2022-07-23T12:23:09Z</time>
      </trkpt>
      <trkpt lat="46.22364" lon="5.24914">
        <ele>246.8</ele>
        <time>2022-07-23T12:23:18Z</time>
      </trkpt>
      <trkpt lat="46.2234" lon="5.24965">
        <ele>247.6</ele>
        <time>2022-07-23T12:23:25Z</time>
      </trkpt>
      <trkpt lat="46.22337" lon="5.24972">
        <ele>247.8</ele>
        <time>2022-07-23T12:23:26Z</time>
      </trkpt>
      <trkpt lat="46.22317" lon="5.25017">
        <ele>248.8</ele>
        <time>2022-07-23T12:23:32Z</time>
      </trkpt>
      <trkpt lat="46.22308" lon="5.25038">
        <ele>248.8</ele>
        <time>2022-07-23T12:23:35Z</time>
      </trkpt>
      <trkpt lat="46.22289" lon="5.25077">
        <ele>249</ele>
        <time>2022-07-23T12:23:41Z</time>
      </trkpt>
      <trkpt lat="46.22284" lon="5.25089">
        <ele>249.2</ele>
        <time>2022-07-23T12:23:43Z</time>
      </trkpt>
      <trkpt lat="46.22276" lon="5.25101">
        <ele>249.6</ele>
        <time>2022-07-23T12:23:46Z</time>
      </trkpt>
      <trkpt lat="46.22275" lon="5.25103">
        <ele>249.8</ele>
        <time>2022-07-23T12:23:48Z</time>
      </trkpt>
      <trkpt lat="46.22275" lon="5.25103">
        <ele>249.8</ele>
        <time>2022-07-23T12:23:49Z</time>
      </trkpt>
      <trkpt lat="46.22273" lon="5.25104">
        <ele>250.2</ele>
        <time>2022-07-23T12:23:51Z</time>
      </trkpt>
      <trkpt lat="46.22269" lon="5.25108">
        <ele>250.2</ele>
        <time>2022-07-23T12:23:53Z</time>
      </trkpt>
      <trkpt lat="46.2226" lon="5.25126">
        <ele>250.4</ele>
        <time>2022-07-23T12:23:57Z</time>
      </trkpt>
      <trkpt lat="46.22245" lon="5.25158">
        <ele>250.4</ele>
        <time>2022-07-23T12:24:02Z</time>
      </trkpt>
      <trkpt lat="46.22222" lon="5.25207">
        <ele>250.2</ele>
        <time>2022-07-23T12:24:09Z</time>
      </trkpt>
      <trkpt lat="46.22198" lon="5.25258">
        <ele>250.6</ele>
        <time>2022-07-23T12:24:16Z</time>
      </trkpt>
      <trkpt lat="46.22177" lon="5.25306">
        <ele>250.4</ele>
        <time>2022-07-23T12:24:22Z</time>
      </trkpt>
      <trkpt lat="46.22172" lon="5.25326">
        <ele>250.4</ele>
        <time>2022-07-23T12:24:24Z</time>
      </trkpt>
      <trkpt lat="46.22157" lon="5.25397">
        <ele>249.4</ele>
        <time>2022-07-23T12:24:31Z</time>
      </trkpt>
      <trkpt lat="46.2215" lon="5.25428">
        <ele>248.8</ele>
        <time>2022-07-23T12:24:34Z</time>
      </trkpt>
      <trkpt lat="46.22145" lon="5.25448">
        <ele>248.6</ele>
        <time>2022-07-23T12:24:36Z</time>
      </trkpt>
      <trkpt lat="46.22144" lon="5.25458">
        <ele>248.6</ele>
        <time>2022-07-23T12:24:37Z</time>
      </trkpt>
      <trkpt lat="46.22144" lon="5.25479">
        <ele>248.4</ele>
        <time>2022-07-23T12:24:39Z</time>
      </trkpt>
      <trkpt lat="46.22149" lon="5.25497">
        <ele>248.6</ele>
        <time>2022-07-23T12:24:41Z</time>
      </trkpt>
      <trkpt lat="46.22178" lon="5.25559">
        <ele>248.4</ele>
        <time>2022-07-23T12:24:48Z</time>
      </trkpt>
      <trkpt lat="46.22207" lon="5.25616">
        <ele>248.8</ele>
        <time>2022-07-23T12:24:55Z</time>
      </trkpt>
      <trkpt lat="46.22224" lon="5.25649">
        <ele>248.8</ele>
        <time>2022-07-23T12:24:59Z</time>
      </trkpt>
      <trkpt lat="46.22227" lon="5.25657">
        <ele>248.8</ele>
        <time>2022-07-23T12:25:00Z</time>
      </trkpt>
      <trkpt lat="46.22232" lon="5.25665">
        <ele>248.8</ele>
        <time>2022-07-23T12:25:01Z</time>
      </trkpt>
      <trkpt lat="46.22248" lon="5.25697">
        <ele>249</ele>
        <time>2022-07-23T12:25:05Z</time>
      </trkpt>
      <trkpt lat="46.22252" lon="5.25712">
        <ele>249.4</ele>
        <time>2022-07-23T12:25:07Z</time>
      </trkpt>
      <trkpt lat="46.22262" lon="5.25734">
        <ele>250</ele>
        <time>2022-07-23T12:25:10Z</time>
      </trkpt>
      <trkpt lat="46.22289" lon="5.25799">
        <ele>250.4</ele>
        <time>2022-07-23T12:25:18Z</time>
      </trkpt>
      <trkpt lat="46.22293" lon="5.25807">
        <ele>250.4</ele>
        <time>2022-07-23T12:25:19Z</time>
      </trkpt>
      <trkpt lat="46.223" lon="5.25823">
        <ele>250.4</ele>
        <time>2022-07-23T12:25:21Z</time>
      </trkpt>
      <trkpt lat="46.22323" lon="5.25879">
        <ele>250.6</ele>
        <time>2022-07-23T12:25:28Z</time>
      </trkpt>
      <trkpt lat="46.22337" lon="5.25928">
        <ele>251</ele>
        <time>2022-07-23T12:25:34Z</time>
      </trkpt>
      <trkpt lat="46.22345" lon="5.25953">
        <ele>251.6</ele>
        <time>2022-07-23T12:25:37Z</time>
      </trkpt>
      <trkpt lat="46.22362" lon="5.26022">
        <ele>251.8</ele>
        <time>2022-07-23T12:25:45Z</time>
      </trkpt>
      <trkpt lat="46.22374" lon="5.26086">
        <ele>251.8</ele>
        <time>2022-07-23T12:25:52Z</time>
      </trkpt>
      <trkpt lat="46.22378" lon="5.26114">
        <ele>251.8</ele>
        <time>2022-07-23T12:25:55Z</time>
      </trkpt>
      <trkpt lat="46.22389" lon="5.2619">
        <ele>251.4</ele>
        <time>2022-07-23T12:26:03Z</time>
      </trkpt>
      <trkpt lat="46.2239" lon="5.262">
        <ele>251.2</ele>
        <time>2022-07-23T12:26:04Z</time>
      </trkpt>
      <trkpt lat="46.22392" lon="5.26209">
        <ele>251.2</ele>
        <time>2022-07-23T12:26:05Z</time>
      </trkpt>
      <trkpt lat="46.22402" lon="5.26244">
        <ele>250.8</ele>
        <time>2022-07-23T12:26:09Z</time>
      </trkpt>
      <trkpt lat="46.22404" lon="5.26253">
        <ele>250.8</ele>
        <time>2022-07-23T12:26:10Z</time>
      </trkpt>
      <trkpt lat="46.22409" lon="5.2627">
        <ele>250.4</ele>
        <time>2022-07-23T12:26:12Z</time>
      </trkpt>
      <trkpt lat="46.22423" lon="5.26302">
        <ele>250.4</ele>
        <time>2022-07-23T12:26:16Z</time>
      </trkpt>
      <trkpt lat="46.22427" lon="5.2631">
        <ele>250.2</ele>
        <time>2022-07-23T12:26:17Z</time>
      </trkpt>
      <trkpt lat="46.22437" lon="5.26327">
        <ele>250.2</ele>
        <time>2022-07-23T12:26:19Z</time>
      </trkpt>
      <trkpt lat="46.22441" lon="5.26336">
        <ele>250.2</ele>
        <time>2022-07-23T12:26:20Z</time>
      </trkpt>
      <trkpt lat="46.22474" lon="5.26405">
        <ele>250.2</ele>
        <time>2022-07-23T12:26:28Z</time>
      </trkpt>
      <trkpt lat="46.22506" lon="5.26474">
        <ele>250.4</ele>
        <time>2022-07-23T12:26:36Z</time>
      </trkpt>
      <trkpt lat="46.22529" lon="5.26529">
        <ele>250.2</ele>
        <time>2022-07-23T12:26:42Z</time>
      </trkpt>
      <trkpt lat="46.22533" lon="5.26539">
        <ele>250</ele>
        <time>2022-07-23T12:26:43Z</time>
      </trkpt>
      <trkpt lat="46.22539" lon="5.26559">
        <ele>249.8</ele>
        <time>2022-07-23T12:26:45Z</time>
      </trkpt>
      <trkpt lat="46.22541" lon="5.2657">
        <ele>249.8</ele>
        <time>2022-07-23T12:26:46Z</time>
      </trkpt>
      <trkpt lat="46.22543" lon="5.26581">
        <ele>249.8</ele>
        <time>2022-07-23T12:26:47Z</time>
      </trkpt>
      <trkpt lat="46.22553" lon="5.26647">
        <ele>248.8</ele>
        <time>2022-07-23T12:26:53Z</time>
      </trkpt>
      <trkpt lat="46.22555" lon="5.26658">
        <ele>248.6</ele>
        <time>2022-07-23T12:26:54Z</time>
      </trkpt>
      <trkpt lat="46.22562" lon="5.26702">
        <ele>247.6</ele>
        <time>2022-07-23T12:26:58Z</time>
      </trkpt>
      <trkpt lat="46.22564" lon="5.26713">
        <ele>247.4</ele>
        <time>2022-07-23T12:26:59Z</time>
      </trkpt>
      <trkpt lat="46.2257" lon="5.26734">
        <ele>246.4</ele>
        <time>2022-07-23T12:27:01Z</time>
      </trkpt>
      <trkpt lat="46.22574" lon="5.26745">
        <ele>246</ele>
        <time>2022-07-23T12:27:02Z</time>
      </trkpt>
      <trkpt lat="46.22579" lon="5.26755">
        <ele>246</ele>
        <time>2022-07-23T12:27:03Z</time>
      </trkpt>
      <trkpt lat="46.22588" lon="5.26775">
        <ele>245.6</ele>
        <time>2022-07-23T12:27:05Z</time>
      </trkpt>
      <trkpt lat="46.22592" lon="5.26786">
        <ele>245</ele>
        <time>2022-07-23T12:27:06Z</time>
      </trkpt>
      <trkpt lat="46.2262" lon="5.26847">
        <ele>244</ele>
        <time>2022-07-23T12:27:12Z</time>
      </trkpt>
      <trkpt lat="46.2265" lon="5.26912">
        <ele>243.6</ele>
        <time>2022-07-23T12:27:19Z</time>
      </trkpt>
      <trkpt lat="46.22655" lon="5.2692">
        <ele>243.6</ele>
        <time>2022-07-23T12:27:20Z</time>
      </trkpt>
      <trkpt lat="46.22676" lon="5.26954">
        <ele>243.8</ele>
        <time>2022-07-23T12:27:25Z</time>
      </trkpt>
      <trkpt lat="46.22684" lon="5.26966">
        <ele>244</ele>
        <time>2022-07-23T12:27:27Z</time>
      </trkpt>
      <trkpt lat="46.22691" lon="5.26976">
        <ele>244.6</ele>
        <time>2022-07-23T12:27:29Z</time>
      </trkpt>
      <trkpt lat="46.22693" lon="5.26981">
        <ele>244.8</ele>
        <time>2022-07-23T12:27:30Z</time>
      </trkpt>
      <trkpt lat="46.22697" lon="5.26991">
        <ele>245.2</ele>
        <time>2022-07-23T12:27:32Z</time>
      </trkpt>
      <trkpt lat="46.22708" lon="5.27015">
        <ele>246.2</ele>
        <time>2022-07-23T12:27:36Z</time>
      </trkpt>
      <trkpt lat="46.2271" lon="5.27021">
        <ele>246.4</ele>
        <time>2022-07-23T12:27:37Z</time>
      </trkpt>
      <trkpt lat="46.22712" lon="5.27028">
        <ele>246.6</ele>
        <time>2022-07-23T12:27:38Z</time>
      </trkpt>
      <trkpt lat="46.22718" lon="5.27041">
        <ele>246.8</ele>
        <time>2022-07-23T12:27:40Z</time>
      </trkpt>
      <trkpt lat="46.22724" lon="5.27053">
        <ele>247.4</ele>
        <time>2022-07-23T12:27:42Z</time>
      </trkpt>
      <trkpt lat="46.22726" lon="5.27059">
        <ele>247.6</ele>
        <time>2022-07-23T12:27:43Z</time>
      </trkpt>
      <trkpt lat="46.2273" lon="5.27071">
        <ele>248.2</ele>
        <time>2022-07-23T12:27:45Z</time>
      </trkpt>
      <trkpt lat="46.22733" lon="5.27077">
        <ele>248.6</ele>
        <time>2022-07-23T12:27:46Z</time>
      </trkpt>
      <trkpt lat="46.22741" lon="5.27089">
        <ele>249</ele>
        <time>2022-07-23T12:27:48Z</time>
      </trkpt>
      <trkpt lat="46.22744" lon="5.27095">
        <ele>249</ele>
        <time>2022-07-23T12:27:49Z</time>
      </trkpt>
      <trkpt lat="46.2275" lon="5.27105">
        <ele>249.6</ele>
        <time>2022-07-23T12:27:51Z</time>
      </trkpt>
      <trkpt lat="46.22766" lon="5.27126">
        <ele>250</ele>
        <time>2022-07-23T12:27:55Z</time>
      </trkpt>
      <trkpt lat="46.22771" lon="5.27128">
        <ele>250</ele>
        <time>2022-07-23T12:27:56Z</time>
      </trkpt>
      <trkpt lat="46.22783" lon="5.27131">
        <ele>250.2</ele>
        <time>2022-07-23T12:27:58Z</time>
      </trkpt>
      <trkpt lat="46.22789" lon="5.27129">
        <ele>250.2</ele>
        <time>2022-07-23T12:27:59Z</time>
      </trkpt>
      <trkpt lat="46.22794" lon="5.27125">
        <ele>250.2</ele>
        <time>2022-07-23T12:28:00Z</time>
      </trkpt>
      <trkpt lat="46.22811" lon="5.27112">
        <ele>250.2</ele>
        <time>2022-07-23T12:28:03Z</time>
      </trkpt>
      <trkpt lat="46.22823" lon="5.27103">
        <ele>250.2</ele>
        <time>2022-07-23T12:28:05Z</time>
      </trkpt>
      <trkpt lat="46.2284" lon="5.27087">
        <ele>250</ele>
        <time>2022-07-23T12:28:08Z</time>
      </trkpt>
      <trkpt lat="46.2287" lon="5.27065">
        <ele>249.8</ele>
        <time>2022-07-23T12:28:13Z</time>
      </trkpt>
      <trkpt lat="46.22913" lon="5.27031">
        <ele>249.6</ele>
        <time>2022-07-23T12:28:20Z</time>
      </trkpt>
      <trkpt lat="46.2295" lon="5.27004">
        <ele>249.4</ele>
        <time>2022-07-23T12:28:26Z</time>
      </trkpt>
      <trkpt lat="46.22968" lon="5.26991">
        <ele>249.2</ele>
        <time>2022-07-23T12:28:29Z</time>
      </trkpt>
      <trkpt lat="46.22974" lon="5.26987">
        <ele>249</ele>
        <time>2022-07-23T12:28:30Z</time>
      </trkpt>
      <trkpt lat="46.22986" lon="5.26983">
        <ele>249</ele>
        <time>2022-07-23T12:28:32Z</time>
      </trkpt>
      <trkpt lat="46.22994" lon="5.26982">
        <ele>249</ele>
        <time>2022-07-23T12:28:33Z</time>
      </trkpt>
      <trkpt lat="46.23032" lon="5.26987">
        <ele>248.8</ele>
        <time>2022-07-23T12:28:38Z</time>
      </trkpt>
      <trkpt lat="46.23081" lon="5.26988">
        <ele>248.2</ele>
        <time>2022-07-23T12:28:45Z</time>
      </trkpt>
      <trkpt lat="46.23088" lon="5.2699">
        <ele>248</ele>
        <time>2022-07-23T12:28:46Z</time>
      </trkpt>
      <trkpt lat="46.23102" lon="5.26999">
        <ele>247.6</ele>
        <time>2022-07-23T12:28:48Z</time>
      </trkpt>
      <trkpt lat="46.23108" lon="5.27006">
        <ele>247.4</ele>
        <time>2022-07-23T12:28:49Z</time>
      </trkpt>
      <trkpt lat="46.23113" lon="5.27015">
        <ele>247.2</ele>
        <time>2022-07-23T12:28:50Z</time>
      </trkpt>
      <trkpt lat="46.23117" lon="5.27024">
        <ele>247</ele>
        <time>2022-07-23T12:28:51Z</time>
      </trkpt>
      <trkpt lat="46.23126" lon="5.27041">
        <ele>246.8</ele>
        <time>2022-07-23T12:28:53Z</time>
      </trkpt>
      <trkpt lat="46.23147" lon="5.27099">
        <ele>247.2</ele>
        <time>2022-07-23T12:29:00Z</time>
      </trkpt>
      <trkpt lat="46.23157" lon="5.27131">
        <ele>248.2</ele>
        <time>2022-07-23T12:29:04Z</time>
      </trkpt>
      <trkpt lat="46.23165" lon="5.27155">
        <ele>249</ele>
        <time>2022-07-23T12:29:07Z</time>
      </trkpt>
      <trkpt lat="46.23167" lon="5.27163">
        <ele>249.2</ele>
        <time>2022-07-23T12:29:08Z</time>
      </trkpt>
      <trkpt lat="46.23184" lon="5.27222">
        <ele>250.2</ele>
        <time>2022-07-23T12:29:15Z</time>
      </trkpt>
      <trkpt lat="46.23187" lon="5.27231">
        <ele>250.2</ele>
        <time>2022-07-23T12:29:16Z</time>
      </trkpt>
      <trkpt lat="46.232" lon="5.27283">
        <ele>250.2</ele>
        <time>2022-07-23T12:29:22Z</time>
      </trkpt>
      <trkpt lat="46.23212" lon="5.27331">
        <ele>251</ele>
        <time>2022-07-23T12:29:28Z</time>
      </trkpt>
      <trkpt lat="46.23217" lon="5.27347">
        <ele>251.2</ele>
        <time>2022-07-23T12:29:31Z</time>
      </trkpt>
      <trkpt lat="46.23224" lon="5.27372">
        <ele>251.4</ele>
        <time>2022-07-23T12:29:35Z</time>
      </trkpt>
      <trkpt lat="46.23224" lon="5.2738">
        <ele>251.4</ele>
        <time>2022-07-23T12:29:36Z</time>
      </trkpt>
      <trkpt lat="46.23224" lon="5.27393">
        <ele>251.4</ele>
        <time>2022-07-23T12:29:38Z</time>
      </trkpt>
      <trkpt lat="46.23221" lon="5.27408">
        <ele>251.4</ele>
        <time>2022-07-23T12:29:40Z</time>
      </trkpt>
      <trkpt lat="46.23219" lon="5.27415">
        <ele>251.4</ele>
        <time>2022-07-23T12:29:41Z</time>
      </trkpt>
      <trkpt lat="46.23217" lon="5.27422">
        <ele>251.4</ele>
        <time>2022-07-23T12:29:42Z</time>
      </trkpt>
      <trkpt lat="46.23217" lon="5.27437">
        <ele>251.4</ele>
        <time>2022-07-23T12:29:44Z</time>
      </trkpt>
      <trkpt lat="46.2322" lon="5.27444">
        <ele>251.4</ele>
        <time>2022-07-23T12:29:45Z</time>
      </trkpt>
      <trkpt lat="46.23224" lon="5.2745">
        <ele>251.6</ele>
        <time>2022-07-23T12:29:46Z</time>
      </trkpt>
      <trkpt lat="46.23238" lon="5.27465">
        <ele>251.6</ele>
        <time>2022-07-23T12:29:49Z</time>
      </trkpt>
      <trkpt lat="46.23246" lon="5.27479">
        <ele>251.6</ele>
        <time>2022-07-23T12:29:51Z</time>
      </trkpt>
      <trkpt lat="46.23252" lon="5.27496">
        <ele>251.6</ele>
        <time>2022-07-23T12:29:53Z</time>
      </trkpt>
      <trkpt lat="46.23263" lon="5.27551">
        <ele>251.6</ele>
        <time>2022-07-23T12:29:59Z</time>
      </trkpt>
      <trkpt lat="46.23272" lon="5.27595">
        <ele>251.6</ele>
        <time>2022-07-23T12:30:04Z</time>
      </trkpt>
      <trkpt lat="46.23276" lon="5.27602">
        <ele>251.4</ele>
        <time>2022-07-23T12:30:05Z</time>
      </trkpt>
      <trkpt lat="46.23279" lon="5.27609">
        <ele>251.4</ele>
        <time>2022-07-23T12:30:06Z</time>
      </trkpt>
      <trkpt lat="46.23288" lon="5.27616">
        <ele>251.4</ele>
        <time>2022-07-23T12:30:08Z</time>
      </trkpt>
      <trkpt lat="46.23299" lon="5.27612">
        <ele>251.4</ele>
        <time>2022-07-23T12:30:10Z</time>
      </trkpt>
      <trkpt lat="46.23303" lon="5.27607">
        <ele>251.4</ele>
        <time>2022-07-23T12:30:11Z</time>
      </trkpt>
      <trkpt lat="46.23312" lon="5.27595">
        <ele>251.4</ele>
        <time>2022-07-23T12:30:13Z</time>
      </trkpt>
      <trkpt lat="46.23327" lon="5.27574">
        <ele>251.4</ele>
        <time>2022-07-23T12:30:16Z</time>
      </trkpt>
      <trkpt lat="46.23361" lon="5.27532">
        <ele>251.6</ele>
        <time>2022-07-23T12:30:22Z</time>
      </trkpt>
      <trkpt lat="46.23387" lon="5.27497">
        <ele>251.6</ele>
        <time>2022-07-23T12:30:27Z</time>
      </trkpt>
      <trkpt lat="46.23428" lon="5.27444">
        <ele>250.2</ele>
        <time>2022-07-23T12:30:34Z</time>
      </trkpt>
      <trkpt lat="46.23439" lon="5.27429">
        <ele>250</ele>
        <time>2022-07-23T12:30:36Z</time>
      </trkpt>
      <trkpt lat="46.23451" lon="5.27414">
        <ele>249.8</ele>
        <time>2022-07-23T12:30:38Z</time>
      </trkpt>
      <trkpt lat="46.23495" lon="5.27358">
        <ele>249.4</ele>
        <time>2022-07-23T12:30:46Z</time>
      </trkpt>
      <trkpt lat="46.23527" lon="5.27318">
        <ele>249.4</ele>
        <time>2022-07-23T12:30:52Z</time>
      </trkpt>
      <trkpt lat="46.23572" lon="5.27265">
        <ele>249.8</ele>
        <time>2022-07-23T12:31:00Z</time>
      </trkpt>
      <trkpt lat="46.23578" lon="5.27259">
        <ele>249.8</ele>
        <time>2022-07-23T12:31:01Z</time>
      </trkpt>
      <trkpt lat="46.23621" lon="5.2721">
        <ele>249</ele>
        <time>2022-07-23T12:31:08Z</time>
      </trkpt>
      <trkpt lat="46.23634" lon="5.27196">
        <ele>248.8</ele>
        <time>2022-07-23T12:31:10Z</time>
      </trkpt>
      <trkpt lat="46.23641" lon="5.2719">
        <ele>248.8</ele>
        <time>2022-07-23T12:31:11Z</time>
      </trkpt>
      <trkpt lat="46.23685" lon="5.27144">
        <ele>248.2</ele>
        <time>2022-07-23T12:31:18Z</time>
      </trkpt>
      <trkpt lat="46.23691" lon="5.27138">
        <ele>248.2</ele>
        <time>2022-07-23T12:31:19Z</time>
      </trkpt>
      <trkpt lat="46.23724" lon="5.27103">
        <ele>248.8</ele>
        <time>2022-07-23T12:31:25Z</time>
      </trkpt>
      <trkpt lat="46.23769" lon="5.27057">
        <ele>249.6</ele>
        <time>2022-07-23T12:31:33Z</time>
      </trkpt>
      <trkpt lat="46.23774" lon="5.27051">
        <ele>249.8</ele>
        <time>2022-07-23T12:31:34Z</time>
      </trkpt>
      <trkpt lat="46.2378" lon="5.27046">
        <ele>249.8</ele>
        <time>2022-07-23T12:31:35Z</time>
      </trkpt>
      <trkpt lat="46.23826" lon="5.27">
        <ele>249.8</ele>
        <time>2022-07-23T12:31:43Z</time>
      </trkpt>
      <trkpt lat="46.23865" lon="5.26965">
        <ele>250</ele>
        <time>2022-07-23T12:31:50Z</time>
      </trkpt>
      <trkpt lat="46.23876" lon="5.26963">
        <ele>250.2</ele>
        <time>2022-07-23T12:31:52Z</time>
      </trkpt>
      <trkpt lat="46.2388" lon="5.26965">
        <ele>250.2</ele>
        <time>2022-07-23T12:31:53Z</time>
      </trkpt>
      <trkpt lat="46.23886" lon="5.26968">
        <ele>250.4</ele>
        <time>2022-07-23T12:31:55Z</time>
      </trkpt>
      <trkpt lat="46.23895" lon="5.26978">
        <ele>250.6</ele>
        <time>2022-07-23T12:31:57Z</time>
      </trkpt>
      <trkpt lat="46.23899" lon="5.26985">
        <ele>250.8</ele>
        <time>2022-07-23T12:31:58Z</time>
      </trkpt>
      <trkpt lat="46.23901" lon="5.26989">
        <ele>251.2</ele>
        <time>2022-07-23T12:31:59Z</time>
      </trkpt>
      <trkpt lat="46.23911" lon="5.27005">
        <ele>251.8</ele>
        <time>2022-07-23T12:32:03Z</time>
      </trkpt>
      <trkpt lat="46.23929" lon="5.27031">
        <ele>252</ele>
        <time>2022-07-23T12:32:07Z</time>
      </trkpt>
      <trkpt lat="46.23936" lon="5.27047">
        <ele>252.2</ele>
        <time>2022-07-23T12:32:09Z</time>
      </trkpt>
      <trkpt lat="46.23942" lon="5.27065">
        <ele>252.2</ele>
        <time>2022-07-23T12:32:11Z</time>
      </trkpt>
      <trkpt lat="46.23944" lon="5.27075">
        <ele>252.2</ele>
        <time>2022-07-23T12:32:12Z</time>
      </trkpt>
      <trkpt lat="46.23951" lon="5.27137">
        <ele>252.2</ele>
        <time>2022-07-23T12:32:18Z</time>
      </trkpt>
      <trkpt lat="46.23958" lon="5.27203">
        <ele>253.4</ele>
        <time>2022-07-23T12:32:25Z</time>
      </trkpt>
      <trkpt lat="46.23969" lon="5.27267">
        <ele>254.4</ele>
        <time>2022-07-23T12:32:32Z</time>
      </trkpt>
      <trkpt lat="46.23972" lon="5.27285">
        <ele>254.8</ele>
        <time>2022-07-23T12:32:34Z</time>
      </trkpt>
      <trkpt lat="46.23985" lon="5.27368">
        <ele>255.4</ele>
        <time>2022-07-23T12:32:43Z</time>
      </trkpt>
      <trkpt lat="46.23989" lon="5.27387">
        <ele>255.6</ele>
        <time>2022-07-23T12:32:45Z</time>
      </trkpt>
      <trkpt lat="46.23996" lon="5.27426">
        <ele>255.8</ele>
        <time>2022-07-23T12:32:49Z</time>
      </trkpt>
      <trkpt lat="46.23997" lon="5.27486">
        <ele>256.2</ele>
        <time>2022-07-23T12:32:55Z</time>
      </trkpt>
      <trkpt lat="46.23996" lon="5.27497">
        <ele>256</ele>
        <time>2022-07-23T12:32:56Z</time>
      </trkpt>
      <trkpt lat="46.23988" lon="5.27533">
        <ele>255.8</ele>
        <time>2022-07-23T12:32:59Z</time>
      </trkpt>
      <trkpt lat="46.23968" lon="5.2758">
        <ele>255.2</ele>
        <time>2022-07-23T12:33:04Z</time>
      </trkpt>
      <trkpt lat="46.2393" lon="5.2763">
        <ele>255</ele>
        <time>2022-07-23T12:33:10Z</time>
      </trkpt>
      <trkpt lat="46.23897" lon="5.27673">
        <ele>254.6</ele>
        <time>2022-07-23T12:33:15Z</time>
      </trkpt>
      <trkpt lat="46.23884" lon="5.27691">
        <ele>254.2</ele>
        <time>2022-07-23T12:33:17Z</time>
      </trkpt>
      <trkpt lat="46.23862" lon="5.27733">
        <ele>253.4</ele>
        <time>2022-07-23T12:33:21Z</time>
      </trkpt>
      <trkpt lat="46.23856" lon="5.27746">
        <ele>253</ele>
        <time>2022-07-23T12:33:22Z</time>
      </trkpt>
      <trkpt lat="46.23835" lon="5.2781">
        <ele>252</ele>
        <time>2022-07-23T12:33:28Z</time>
      </trkpt>
      <trkpt lat="46.23824" lon="5.27878">
        <ele>252.6</ele>
        <time>2022-07-23T12:33:34Z</time>
      </trkpt>
      <trkpt lat="46.23814" lon="5.27955">
        <ele>253</ele>
        <time>2022-07-23T12:33:41Z</time>
      </trkpt>
      <trkpt lat="46.23809" lon="5.27999">
        <ele>253.2</ele>
        <time>2022-07-23T12:33:45Z</time>
      </trkpt>
      <trkpt lat="46.23806" lon="5.28021">
        <ele>253.2</ele>
        <time>2022-07-23T12:33:47Z</time>
      </trkpt>
      <trkpt lat="46.23797" lon="5.28074">
        <ele>253.4</ele>
        <time>2022-07-23T12:33:52Z</time>
      </trkpt>
      <trkpt lat="46.23786" lon="5.28156">
        <ele>253.2</ele>
        <time>2022-07-23T12:33:59Z</time>
      </trkpt>
      <trkpt lat="46.23784" lon="5.28168">
        <ele>253.2</ele>
        <time>2022-07-23T12:34:00Z</time>
      </trkpt>
      <trkpt lat="46.23774" lon="5.28243">
        <ele>252.8</ele>
        <time>2022-07-23T12:34:06Z</time>
      </trkpt>
      <trkpt lat="46.23765" lon="5.28314">
        <ele>252.4</ele>
        <time>2022-07-23T12:34:12Z</time>
      </trkpt>
      <trkpt lat="46.23752" lon="5.284">
        <ele>253</ele>
        <time>2022-07-23T12:34:20Z</time>
      </trkpt>
      <trkpt lat="46.2374" lon="5.28476">
        <ele>254</ele>
        <time>2022-07-23T12:34:27Z</time>
      </trkpt>
      <trkpt lat="46.23737" lon="5.28498">
        <ele>254.2</ele>
        <time>2022-07-23T12:34:29Z</time>
      </trkpt>
      <trkpt lat="46.23725" lon="5.28583">
        <ele>254</ele>
        <time>2022-07-23T12:34:36Z</time>
      </trkpt>
      <trkpt lat="46.23723" lon="5.28595">
        <ele>253.8</ele>
        <time>2022-07-23T12:34:37Z</time>
      </trkpt>
      <trkpt lat="46.23718" lon="5.28632">
        <ele>252.8</ele>
        <time>2022-07-23T12:34:40Z</time>
      </trkpt>
      <trkpt lat="46.23715" lon="5.28669">
        <ele>252.2</ele>
        <time>2022-07-23T12:34:43Z</time>
      </trkpt>
      <trkpt lat="46.23719" lon="5.28695">
        <ele>251.8</ele>
        <time>2022-07-23T12:34:45Z</time>
      </trkpt>
      <trkpt lat="46.23722" lon="5.28707">
        <ele>251.6</ele>
        <time>2022-07-23T12:34:46Z</time>
      </trkpt>
      <trkpt lat="46.23741" lon="5.28762">
        <ele>251.2</ele>
        <time>2022-07-23T12:34:51Z</time>
      </trkpt>
      <trkpt lat="46.23758" lon="5.28812">
        <ele>251.2</ele>
        <time>2022-07-23T12:34:56Z</time>
      </trkpt>
      <trkpt lat="46.23776" lon="5.28864">
        <ele>251.4</ele>
        <time>2022-07-23T12:35:01Z</time>
      </trkpt>
      <trkpt lat="46.2379" lon="5.28912">
        <ele>253</ele>
        <time>2022-07-23T12:35:06Z</time>
      </trkpt>
      <trkpt lat="46.23793" lon="5.28922">
        <ele>253.2</ele>
        <time>2022-07-23T12:35:07Z</time>
      </trkpt>
      <trkpt lat="46.23814" lon="5.2899">
        <ele>253.2</ele>
        <time>2022-07-23T12:35:14Z</time>
      </trkpt>
      <trkpt lat="46.23825" lon="5.29019">
        <ele>253</ele>
        <time>2022-07-23T12:35:17Z</time>
      </trkpt>
      <trkpt lat="46.23833" lon="5.29035">
        <ele>252.8</ele>
        <time>2022-07-23T12:35:19Z</time>
      </trkpt>
      <trkpt lat="46.23837" lon="5.29052">
        <ele>252.6</ele>
        <time>2022-07-23T12:35:21Z</time>
      </trkpt>
      <trkpt lat="46.23837" lon="5.29061">
        <ele>252.4</ele>
        <time>2022-07-23T12:35:22Z</time>
      </trkpt>
      <trkpt lat="46.23833" lon="5.29068">
        <ele>252.4</ele>
        <time>2022-07-23T12:35:23Z</time>
      </trkpt>
      <trkpt lat="46.23829" lon="5.29072">
        <ele>252.4</ele>
        <time>2022-07-23T12:35:24Z</time>
      </trkpt>
      <trkpt lat="46.23824" lon="5.29076">
        <ele>252.4</ele>
        <time>2022-07-23T12:35:25Z</time>
      </trkpt>
      <trkpt lat="46.23812" lon="5.29078">
        <ele>252.2</ele>
        <time>2022-07-23T12:35:27Z</time>
      </trkpt>
      <trkpt lat="46.23771" lon="5.29082">
        <ele>252</ele>
        <time>2022-07-23T12:35:33Z</time>
      </trkpt>
      <trkpt lat="46.23721" lon="5.29083">
        <ele>253</ele>
        <time>2022-07-23T12:35:40Z</time>
      </trkpt>
      <trkpt lat="46.23686" lon="5.29078">
        <ele>253.6</ele>
        <time>2022-07-23T12:35:45Z</time>
      </trkpt>
      <trkpt lat="46.2368" lon="5.29075">
        <ele>253.8</ele>
        <time>2022-07-23T12:35:46Z</time>
      </trkpt>
      <trkpt lat="46.23641" lon="5.29053">
        <ele>253.8</ele>
        <time>2022-07-23T12:35:52Z</time>
      </trkpt>
      <trkpt lat="46.2359" lon="5.29025">
        <ele>253.4</ele>
        <time>2022-07-23T12:36:00Z</time>
      </trkpt>
      <trkpt lat="46.23583" lon="5.29022">
        <ele>253.4</ele>
        <time>2022-07-23T12:36:01Z</time>
      </trkpt>
      <trkpt lat="46.23547" lon="5.29002">
        <ele>254.2</ele>
        <time>2022-07-23T12:36:07Z</time>
      </trkpt>
      <trkpt lat="46.23529" lon="5.28994">
        <ele>254</ele>
        <time>2022-07-23T12:36:10Z</time>
      </trkpt>
      <trkpt lat="46.23518" lon="5.28995">
        <ele>254.2</ele>
        <time>2022-07-23T12:36:12Z</time>
      </trkpt>
      <trkpt lat="46.23513" lon="5.28999">
        <ele>254</ele>
        <time>2022-07-23T12:36:13Z</time>
      </trkpt>
      <trkpt lat="46.2351" lon="5.29006">
        <ele>254.4</ele>
        <time>2022-07-23T12:36:14Z</time>
      </trkpt>
      <trkpt lat="46.23505" lon="5.29023">
        <ele>254.8</ele>
        <time>2022-07-23T12:36:16Z</time>
      </trkpt>
      <trkpt lat="46.23503" lon="5.29042">
        <ele>255.4</ele>
        <time>2022-07-23T12:36:18Z</time>
      </trkpt>
      <trkpt lat="46.235" lon="5.29071">
        <ele>255.6</ele>
        <time>2022-07-23T12:36:21Z</time>
      </trkpt>
      <trkpt lat="46.23491" lon="5.29138">
        <ele>256</ele>
        <time>2022-07-23T12:36:28Z</time>
      </trkpt>
      <trkpt lat="46.23482" lon="5.29204">
        <ele>256.4</ele>
        <time>2022-07-23T12:36:35Z</time>
      </trkpt>
      <trkpt lat="46.2348" lon="5.29222">
        <ele>256.4</ele>
        <time>2022-07-23T12:36:37Z</time>
      </trkpt>
      <trkpt lat="46.23472" lon="5.29235">
        <ele>256.6</ele>
        <time>2022-07-23T12:36:39Z</time>
      </trkpt>
      <trkpt lat="46.2346" lon="5.29235">
        <ele>256.8</ele>
        <time>2022-07-23T12:36:41Z</time>
      </trkpt>
      <trkpt lat="46.23416" lon="5.29208">
        <ele>256.6</ele>
        <time>2022-07-23T12:36:48Z</time>
      </trkpt>
      <trkpt lat="46.23366" lon="5.29177">
        <ele>256.6</ele>
        <time>2022-07-23T12:36:56Z</time>
      </trkpt>
      <trkpt lat="46.23341" lon="5.29162">
        <ele>257</ele>
        <time>2022-07-23T12:37:00Z</time>
      </trkpt>
      <trkpt lat="46.23291" lon="5.29132">
        <ele>256.8</ele>
        <time>2022-07-23T12:37:08Z</time>
      </trkpt>
      <trkpt lat="46.23277" lon="5.29124">
        <ele>256.6</ele>
        <time>2022-07-23T12:37:10Z</time>
      </trkpt>
      <trkpt lat="46.23223" lon="5.29094">
        <ele>256.4</ele>
        <time>2022-07-23T12:37:18Z</time>
      </trkpt>
      <trkpt lat="46.23217" lon="5.2909">
        <ele>256.4</ele>
        <time>2022-07-23T12:37:19Z</time>
      </trkpt>
      <trkpt lat="46.23183" lon="5.29069">
        <ele>255.6</ele>
        <time>2022-07-23T12:37:24Z</time>
      </trkpt>
      <trkpt lat="46.23176" lon="5.29069">
        <ele>255.6</ele>
        <time>2022-07-23T12:37:25Z</time>
      </trkpt>
      <trkpt lat="46.23171" lon="5.29073">
        <ele>255.6</ele>
        <time>2022-07-23T12:37:26Z</time>
      </trkpt>
      <trkpt lat="46.23166" lon="5.29079">
        <ele>255.4</ele>
        <time>2022-07-23T12:37:27Z</time>
      </trkpt>
      <trkpt lat="46.23153" lon="5.29105">
        <ele>255.4</ele>
        <time>2022-07-23T12:37:30Z</time>
      </trkpt>
      <trkpt lat="46.23141" lon="5.29129">
        <ele>255</ele>
        <time>2022-07-23T12:37:33Z</time>
      </trkpt>
      <trkpt lat="46.2312" lon="5.29171">
        <ele>255</ele>
        <time>2022-07-23T12:37:38Z</time>
      </trkpt>
      <trkpt lat="46.23107" lon="5.29195">
        <ele>255.2</ele>
        <time>2022-07-23T12:37:41Z</time>
      </trkpt>
      <trkpt lat="46.23085" lon="5.2924">
        <ele>256.4</ele>
        <time>2022-07-23T12:37:47Z</time>
      </trkpt>
      <trkpt lat="46.23076" lon="5.29256">
        <ele>256.8</ele>
        <time>2022-07-23T12:37:49Z</time>
      </trkpt>
      <trkpt lat="46.23057" lon="5.29295">
        <ele>257.2</ele>
        <time>2022-07-23T12:37:54Z</time>
      </trkpt>
      <trkpt lat="46.23046" lon="5.29318">
        <ele>257.8</ele>
        <time>2022-07-23T12:37:57Z</time>
      </trkpt>
      <trkpt lat="46.23015" lon="5.2938">
        <ele>258.2</ele>
        <time>2022-07-23T12:38:05Z</time>
      </trkpt>
      <trkpt lat="46.23007" lon="5.29395">
        <ele>258.4</ele>
        <time>2022-07-23T12:38:07Z</time>
      </trkpt>
      <trkpt lat="46.22996" lon="5.29416">
        <ele>258.6</ele>
        <time>2022-07-23T12:38:10Z</time>
      </trkpt>
      <trkpt lat="46.22989" lon="5.29432">
        <ele>258.8</ele>
        <time>2022-07-23T12:38:12Z</time>
      </trkpt>
      <trkpt lat="46.22981" lon="5.29447">
        <ele>259</ele>
        <time>2022-07-23T12:38:14Z</time>
      </trkpt>
      <trkpt lat="46.22969" lon="5.2947">
        <ele>259.4</ele>
        <time>2022-07-23T12:38:17Z</time>
      </trkpt>
      <trkpt lat="46.22934" lon="5.29539">
        <ele>259</ele>
        <time>2022-07-23T12:38:26Z</time>
      </trkpt>
      <trkpt lat="46.22929" lon="5.29547">
        <ele>259</ele>
        <time>2022-07-23T12:38:27Z</time>
      </trkpt>
      <trkpt lat="46.22894" lon="5.29616">
        <ele>259</ele>
        <time>2022-07-23T12:38:36Z</time>
      </trkpt>
      <trkpt lat="46.22881" lon="5.29639">
        <ele>259</ele>
        <time>2022-07-23T12:38:39Z</time>
      </trkpt>
      <trkpt lat="46.22869" lon="5.29643">
        <ele>259</ele>
        <time>2022-07-23T12:38:41Z</time>
      </trkpt>
      <trkpt lat="46.22856" lon="5.29636">
        <ele>258.8</ele>
        <time>2022-07-23T12:38:43Z</time>
      </trkpt>
      <trkpt lat="46.2285" lon="5.29631">
        <ele>258.8</ele>
        <time>2022-07-23T12:38:44Z</time>
      </trkpt>
      <trkpt lat="46.22844" lon="5.29627">
        <ele>258.8</ele>
        <time>2022-07-23T12:38:45Z</time>
      </trkpt>
      <trkpt lat="46.22821" lon="5.29612">
        <ele>258.8</ele>
        <time>2022-07-23T12:38:49Z</time>
      </trkpt>
      <trkpt lat="46.22808" lon="5.29606">
        <ele>258.6</ele>
        <time>2022-07-23T12:38:51Z</time>
      </trkpt>
      <trkpt lat="46.22796" lon="5.29606">
        <ele>258.8</ele>
        <time>2022-07-23T12:38:53Z</time>
      </trkpt>
      <trkpt lat="46.22784" lon="5.29614">
        <ele>258.8</ele>
        <time>2022-07-23T12:38:55Z</time>
      </trkpt>
      <trkpt lat="46.22778" lon="5.2962">
        <ele>259</ele>
        <time>2022-07-23T12:38:56Z</time>
      </trkpt>
      <trkpt lat="46.22756" lon="5.29645">
        <ele>260.2</ele>
        <time>2022-07-23T12:39:00Z</time>
      </trkpt>
      <trkpt lat="46.22733" lon="5.29669">
        <ele>260.8</ele>
        <time>2022-07-23T12:39:04Z</time>
      </trkpt>
      <trkpt lat="46.22722" lon="5.29682">
        <ele>260.8</ele>
        <time>2022-07-23T12:39:06Z</time>
      </trkpt>
      <trkpt lat="46.2271" lon="5.29694">
        <ele>261.2</ele>
        <time>2022-07-23T12:39:08Z</time>
      </trkpt>
      <trkpt lat="46.22682" lon="5.29726">
        <ele>261.6</ele>
        <time>2022-07-23T12:39:13Z</time>
      </trkpt>
      <trkpt lat="46.22677" lon="5.29734">
        <ele>261.8</ele>
        <time>2022-07-23T12:39:14Z</time>
      </trkpt>
      <trkpt lat="46.22669" lon="5.29752">
        <ele>261.8</ele>
        <time>2022-07-23T12:39:16Z</time>
      </trkpt>
      <trkpt lat="46.22664" lon="5.29772">
        <ele>261.6</ele>
        <time>2022-07-23T12:39:18Z</time>
      </trkpt>
      <trkpt lat="46.22652" lon="5.29798">
        <ele>260.2</ele>
        <time>2022-07-23T12:39:21Z</time>
      </trkpt>
      <trkpt lat="46.22647" lon="5.29807">
        <ele>260</ele>
        <time>2022-07-23T12:39:22Z</time>
      </trkpt>
      <trkpt lat="46.22643" lon="5.29816">
        <ele>260.4</ele>
        <time>2022-07-23T12:39:23Z</time>
      </trkpt>
      <trkpt lat="46.22635" lon="5.29844">
        <ele>260.6</ele>
        <time>2022-07-23T12:39:26Z</time>
      </trkpt>
      <trkpt lat="46.2262" lon="5.29891">
        <ele>261</ele>
        <time>2022-07-23T12:39:31Z</time>
      </trkpt>
      <trkpt lat="46.22616" lon="5.29899">
        <ele>261.2</ele>
        <time>2022-07-23T12:39:32Z</time>
      </trkpt>
      <trkpt lat="46.22611" lon="5.29906">
        <ele>261.4</ele>
        <time>2022-07-23T12:39:33Z</time>
      </trkpt>
      <trkpt lat="46.22584" lon="5.29933">
        <ele>261</ele>
        <time>2022-07-23T12:39:37Z</time>
      </trkpt>
      <trkpt lat="46.22557" lon="5.29961">
        <ele>260.2</ele>
        <time>2022-07-23T12:39:41Z</time>
      </trkpt>
      <trkpt lat="46.22549" lon="5.29966">
        <ele>259.6</ele>
        <time>2022-07-23T12:39:42Z</time>
      </trkpt>
      <trkpt lat="46.22533" lon="5.29973">
        <ele>258.8</ele>
        <time>2022-07-23T12:39:44Z</time>
      </trkpt>
      <trkpt lat="46.22526" lon="5.29979">
        <ele>258.6</ele>
        <time>2022-07-23T12:39:45Z</time>
      </trkpt>
      <trkpt lat="46.22519" lon="5.29986">
        <ele>258.4</ele>
        <time>2022-07-23T12:39:46Z</time>
      </trkpt>
      <trkpt lat="46.22513" lon="5.29995">
        <ele>258</ele>
        <time>2022-07-23T12:39:47Z</time>
      </trkpt>
      <trkpt lat="46.22492" lon="5.30037">
        <ele>257.6</ele>
        <time>2022-07-23T12:39:52Z</time>
      </trkpt>
      <trkpt lat="46.22487" lon="5.30067">
        <ele>257.6</ele>
        <time>2022-07-23T12:39:55Z</time>
      </trkpt>
      <trkpt lat="46.22487" lon="5.30077">
        <ele>257.8</ele>
        <time>2022-07-23T12:39:56Z</time>
      </trkpt>
      <trkpt lat="46.2249" lon="5.30127">
        <ele>258</ele>
        <time>2022-07-23T12:40:01Z</time>
      </trkpt>
      <trkpt lat="46.2249" lon="5.30136">
        <ele>258</ele>
        <time>2022-07-23T12:40:02Z</time>
      </trkpt>
      <trkpt lat="46.22489" lon="5.30165">
        <ele>258.2</ele>
        <time>2022-07-23T12:40:05Z</time>
      </trkpt>
      <trkpt lat="46.2248" lon="5.30228">
        <ele>258.8</ele>
        <time>2022-07-23T12:40:11Z</time>
      </trkpt>
      <trkpt lat="46.22473" lon="5.30274">
        <ele>258.8</ele>
        <time>2022-07-23T12:40:15Z</time>
      </trkpt>
      <trkpt lat="46.22467" lon="5.30294">
        <ele>258.6</ele>
        <time>2022-07-23T12:40:17Z</time>
      </trkpt>
      <trkpt lat="46.22459" lon="5.30312">
        <ele>258.6</ele>
        <time>2022-07-23T12:40:19Z</time>
      </trkpt>
      <trkpt lat="46.22443" lon="5.30335">
        <ele>258.6</ele>
        <time>2022-07-23T12:40:22Z</time>
      </trkpt>
      <trkpt lat="46.22409" lon="5.30388">
        <ele>258.8</ele>
        <time>2022-07-23T12:40:29Z</time>
      </trkpt>
      <trkpt lat="46.22395" lon="5.3041">
        <ele>259.4</ele>
        <time>2022-07-23T12:40:32Z</time>
      </trkpt>
      <trkpt lat="46.22373" lon="5.30445">
        <ele>259.8</ele>
        <time>2022-07-23T12:40:37Z</time>
      </trkpt>
      <trkpt lat="46.22369" lon="5.30453">
        <ele>260</ele>
        <time>2022-07-23T12:40:38Z</time>
      </trkpt>
      <trkpt lat="46.22362" lon="5.30469">
        <ele>260.6</ele>
        <time>2022-07-23T12:40:40Z</time>
      </trkpt>
      <trkpt lat="46.22354" lon="5.30494">
        <ele>261</ele>
        <time>2022-07-23T12:40:43Z</time>
      </trkpt>
      <trkpt lat="46.22349" lon="5.3054">
        <ele>261.2</ele>
        <time>2022-07-23T12:40:48Z</time>
      </trkpt>
      <trkpt lat="46.22343" lon="5.30607">
        <ele>260.8</ele>
        <time>2022-07-23T12:40:55Z</time>
      </trkpt>
      <trkpt lat="46.22336" lon="5.30633">
        <ele>260.6</ele>
        <time>2022-07-23T12:40:58Z</time>
      </trkpt>
      <trkpt lat="46.22329" lon="5.3065">
        <ele>260.6</ele>
        <time>2022-07-23T12:41:00Z</time>
      </trkpt>
      <trkpt lat="46.22324" lon="5.30667">
        <ele>260.6</ele>
        <time>2022-07-23T12:41:02Z</time>
      </trkpt>
      <trkpt lat="46.22323" lon="5.30685">
        <ele>260.6</ele>
        <time>2022-07-23T12:41:04Z</time>
      </trkpt>
      <trkpt lat="46.22327" lon="5.30722">
        <ele>261</ele>
        <time>2022-07-23T12:41:08Z</time>
      </trkpt>
      <trkpt lat="46.22336" lon="5.30758">
        <ele>261.6</ele>
        <time>2022-07-23T12:41:12Z</time>
      </trkpt>
      <trkpt lat="46.2234" lon="5.30777">
        <ele>261.6</ele>
        <time>2022-07-23T12:41:14Z</time>
      </trkpt>
      <trkpt lat="46.22342" lon="5.30786">
        <ele>261.8</ele>
        <time>2022-07-23T12:41:15Z</time>
      </trkpt>
      <trkpt lat="46.22353" lon="5.30838">
        <ele>262.6</ele>
        <time>2022-07-23T12:41:21Z</time>
      </trkpt>
      <trkpt lat="46.22363" lon="5.30881">
        <ele>263.8</ele>
        <time>2022-07-23T12:41:26Z</time>
      </trkpt>
      <trkpt lat="46.22369" lon="5.30905">
        <ele>264.4</ele>
        <time>2022-07-23T12:41:29Z</time>
      </trkpt>
      <trkpt lat="46.22371" lon="5.30922">
        <ele>264.8</ele>
        <time>2022-07-23T12:41:31Z</time>
      </trkpt>
      <trkpt lat="46.22373" lon="5.3093">
        <ele>265</ele>
        <time>2022-07-23T12:41:32Z</time>
      </trkpt>
      <trkpt lat="46.22385" lon="5.30979">
        <ele>265.8</ele>
        <time>2022-07-23T12:41:38Z</time>
      </trkpt>
      <trkpt lat="46.22389" lon="5.30995">
        <ele>266.2</ele>
        <time>2022-07-23T12:41:40Z</time>
      </trkpt>
      <trkpt lat="46.22391" lon="5.31003">
        <ele>266.2</ele>
        <time>2022-07-23T12:41:41Z</time>
      </trkpt>
      <trkpt lat="46.22399" lon="5.31035">
        <ele>266.8</ele>
        <time>2022-07-23T12:41:45Z</time>
      </trkpt>
      <trkpt lat="46.224" lon="5.31042">
        <ele>266.8</ele>
        <time>2022-07-23T12:41:46Z</time>
      </trkpt>
      <trkpt lat="46.22402" lon="5.31049">
        <ele>267</ele>
        <time>2022-07-23T12:41:47Z</time>
      </trkpt>
      <trkpt lat="46.22404" lon="5.31064">
        <ele>267.2</ele>
        <time>2022-07-23T12:41:49Z</time>
      </trkpt>
      <trkpt lat="46.22407" lon="5.31079">
        <ele>267.6</ele>
        <time>2022-07-23T12:41:51Z</time>
      </trkpt>
      <trkpt lat="46.22409" lon="5.31095">
        <ele>267.8</ele>
        <time>2022-07-23T12:41:53Z</time>
      </trkpt>
      <trkpt lat="46.22416" lon="5.31125">
        <ele>268.8</ele>
        <time>2022-07-23T12:41:57Z</time>
      </trkpt>
      <trkpt lat="46.22419" lon="5.31133">
        <ele>269.2</ele>
        <time>2022-07-23T12:41:58Z</time>
      </trkpt>
      <trkpt lat="46.22424" lon="5.31158">
        <ele>269.4</ele>
        <time>2022-07-23T12:42:01Z</time>
      </trkpt>
      <trkpt lat="46.22426" lon="5.31172">
        <ele>269.6</ele>
        <time>2022-07-23T12:42:03Z</time>
      </trkpt>
      <trkpt lat="46.22428" lon="5.31187">
        <ele>270.4</ele>
        <time>2022-07-23T12:42:05Z</time>
      </trkpt>
      <trkpt lat="46.22432" lon="5.31194">
        <ele>270.4</ele>
        <time>2022-07-23T12:42:06Z</time>
      </trkpt>
      <trkpt lat="46.22432" lon="5.31202">
        <ele>270.4</ele>
        <time>2022-07-23T12:42:07Z</time>
      </trkpt>
      <trkpt lat="46.22435" lon="5.31223">
        <ele>270.6</ele>
        <time>2022-07-23T12:42:10Z</time>
      </trkpt>
      <trkpt lat="46.22438" lon="5.31236">
        <ele>270.8</ele>
        <time>2022-07-23T12:42:12Z</time>
      </trkpt>
      <trkpt lat="46.22441" lon="5.3125">
        <ele>270.8</ele>
        <time>2022-07-23T12:42:14Z</time>
      </trkpt>
      <trkpt lat="46.22443" lon="5.31258">
        <ele>270.6</ele>
        <time>2022-07-23T12:42:15Z</time>
      </trkpt>
      <trkpt lat="46.22446" lon="5.31273">
        <ele>270.6</ele>
        <time>2022-07-23T12:42:17Z</time>
      </trkpt>
      <trkpt lat="46.22448" lon="5.31289">
        <ele>270.8</ele>
        <time>2022-07-23T12:42:19Z</time>
      </trkpt>
      <trkpt lat="46.22444" lon="5.31302">
        <ele>271</ele>
        <time>2022-07-23T12:42:21Z</time>
      </trkpt>
      <trkpt lat="46.2244" lon="5.31308">
        <ele>271.2</ele>
        <time>2022-07-23T12:42:22Z</time>
      </trkpt>
      <trkpt lat="46.22432" lon="5.3132">
        <ele>271.2</ele>
        <time>2022-07-23T12:42:24Z</time>
      </trkpt>
      <trkpt lat="46.22428" lon="5.31327">
        <ele>271.6</ele>
        <time>2022-07-23T12:42:25Z</time>
      </trkpt>
      <trkpt lat="46.22418" lon="5.3134">
        <ele>271.8</ele>
        <time>2022-07-23T12:42:27Z</time>
      </trkpt>
      <trkpt lat="46.22395" lon="5.31373">
        <ele>272</ele>
        <time>2022-07-23T12:42:32Z</time>
      </trkpt>
      <trkpt lat="46.22386" lon="5.31386">
        <ele>272.2</ele>
        <time>2022-07-23T12:42:34Z</time>
      </trkpt>
      <trkpt lat="46.22356" lon="5.3143">
        <ele>272.4</ele>
        <time>2022-07-23T12:42:41Z</time>
      </trkpt>
      <trkpt lat="46.22352" lon="5.31436">
        <ele>272.6</ele>
        <time>2022-07-23T12:42:42Z</time>
      </trkpt>
      <trkpt lat="46.22348" lon="5.31443">
        <ele>272.6</ele>
        <time>2022-07-23T12:42:43Z</time>
      </trkpt>
      <trkpt lat="46.22344" lon="5.31449">
        <ele>272.6</ele>
        <time>2022-07-23T12:42:44Z</time>
      </trkpt>
      <trkpt lat="46.2234" lon="5.31455">
        <ele>272.8</ele>
        <time>2022-07-23T12:42:45Z</time>
      </trkpt>
      <trkpt lat="46.22336" lon="5.31462">
        <ele>273</ele>
        <time>2022-07-23T12:42:46Z</time>
      </trkpt>
      <trkpt lat="46.22303" lon="5.31512">
        <ele>273.4</ele>
        <time>2022-07-23T12:42:54Z</time>
      </trkpt>
      <trkpt lat="46.2229" lon="5.3153">
        <ele>273.6</ele>
        <time>2022-07-23T12:42:57Z</time>
      </trkpt>
      <trkpt lat="46.22269" lon="5.3156">
        <ele>274.2</ele>
        <time>2022-07-23T12:43:02Z</time>
      </trkpt>
      <trkpt lat="46.22242" lon="5.31603">
        <ele>274.8</ele>
        <time>2022-07-23T12:43:09Z</time>
      </trkpt>
      <trkpt lat="46.22207" lon="5.31649">
        <ele>275.4</ele>
        <time>2022-07-23T12:43:17Z</time>
      </trkpt>
      <trkpt lat="46.22194" lon="5.31663">
        <ele>276</ele>
        <time>2022-07-23T12:43:20Z</time>
      </trkpt>
      <trkpt lat="46.22179" lon="5.31676">
        <ele>276.2</ele>
        <time>2022-07-23T12:43:23Z</time>
      </trkpt>
      <trkpt lat="46.22128" lon="5.3172">
        <ele>276.8</ele>
        <time>2022-07-23T12:43:33Z</time>
      </trkpt>
      <trkpt lat="46.22103" lon="5.31741">
        <ele>277.2</ele>
        <time>2022-07-23T12:43:38Z</time>
      </trkpt>
      <trkpt lat="46.2208" lon="5.31763">
        <ele>278</ele>
        <time>2022-07-23T12:43:43Z</time>
      </trkpt>
      <trkpt lat="46.22075" lon="5.31767">
        <ele>278.2</ele>
        <time>2022-07-23T12:43:44Z</time>
      </trkpt>
      <trkpt lat="46.2203" lon="5.31806">
        <ele>278.6</ele>
        <time>2022-07-23T12:43:53Z</time>
      </trkpt>
      <trkpt lat="46.2201" lon="5.3182">
        <ele>278.6</ele>
        <time>2022-07-23T12:43:57Z</time>
      </trkpt>
      <trkpt lat="46.21993" lon="5.31827">
        <ele>279.2</ele>
        <time>2022-07-23T12:44:00Z</time>
      </trkpt>
      <trkpt lat="46.21987" lon="5.31828">
        <ele>279.2</ele>
        <time>2022-07-23T12:44:01Z</time>
      </trkpt>
      <trkpt lat="46.21975" lon="5.31829">
        <ele>279.4</ele>
        <time>2022-07-23T12:44:03Z</time>
      </trkpt>
      <trkpt lat="46.21963" lon="5.31827">
        <ele>279.4</ele>
        <time>2022-07-23T12:44:05Z</time>
      </trkpt>
      <trkpt lat="46.21951" lon="5.31825">
        <ele>279.4</ele>
        <time>2022-07-23T12:44:07Z</time>
      </trkpt>
      <trkpt lat="46.2194" lon="5.31829">
        <ele>279.4</ele>
        <time>2022-07-23T12:44:09Z</time>
      </trkpt>
      <trkpt lat="46.2193" lon="5.31838">
        <ele>279.8</ele>
        <time>2022-07-23T12:44:11Z</time>
      </trkpt>
      <trkpt lat="46.21921" lon="5.31849">
        <ele>280</ele>
        <time>2022-07-23T12:44:13Z</time>
      </trkpt>
      <trkpt lat="46.21913" lon="5.31862">
        <ele>280</ele>
        <time>2022-07-23T12:44:15Z</time>
      </trkpt>
      <trkpt lat="46.21904" lon="5.31886">
        <ele>280.2</ele>
        <time>2022-07-23T12:44:18Z</time>
      </trkpt>
      <trkpt lat="46.21902" lon="5.31894">
        <ele>280.4</ele>
        <time>2022-07-23T12:44:19Z</time>
      </trkpt>
      <trkpt lat="46.21896" lon="5.31919">
        <ele>280.6</ele>
        <time>2022-07-23T12:44:22Z</time>
      </trkpt>
      <trkpt lat="46.21894" lon="5.31927">
        <ele>280.6</ele>
        <time>2022-07-23T12:44:23Z</time>
      </trkpt>
      <trkpt lat="46.21869" lon="5.3198">
        <ele>280.8</ele>
        <time>2022-07-23T12:44:30Z</time>
      </trkpt>
      <trkpt lat="46.2184" lon="5.32032">
        <ele>281</ele>
        <time>2022-07-23T12:44:37Z</time>
      </trkpt>
      <trkpt lat="46.21825" lon="5.32061">
        <ele>281.4</ele>
        <time>2022-07-23T12:44:41Z</time>
      </trkpt>
      <trkpt lat="46.21812" lon="5.32083">
        <ele>281.6</ele>
        <time>2022-07-23T12:44:44Z</time>
      </trkpt>
      <trkpt lat="46.21803" lon="5.32096">
        <ele>282</ele>
        <time>2022-07-23T12:44:46Z</time>
      </trkpt>
      <trkpt lat="46.21793" lon="5.32105">
        <ele>282.4</ele>
        <time>2022-07-23T12:44:48Z</time>
      </trkpt>
      <trkpt lat="46.21788" lon="5.32109">
        <ele>282.4</ele>
        <time>2022-07-23T12:44:49Z</time>
      </trkpt>
      <trkpt lat="46.21778" lon="5.32115">
        <ele>282.6</ele>
        <time>2022-07-23T12:44:51Z</time>
      </trkpt>
      <trkpt lat="46.21769" lon="5.32118">
        <ele>282.8</ele>
        <time>2022-07-23T12:44:53Z</time>
      </trkpt>
      <trkpt lat="46.21763" lon="5.32119">
        <ele>283</ele>
        <time>2022-07-23T12:44:54Z</time>
      </trkpt>
      <trkpt lat="46.21757" lon="5.3212">
        <ele>283.4</ele>
        <time>2022-07-23T12:44:55Z</time>
      </trkpt>
      <trkpt lat="46.2174" lon="5.32121">
        <ele>284.2</ele>
        <time>2022-07-23T12:44:58Z</time>
      </trkpt>
      <trkpt lat="46.21734" lon="5.32122">
        <ele>284.4</ele>
        <time>2022-07-23T12:44:59Z</time>
      </trkpt>
      <trkpt lat="46.21728" lon="5.32124">
        <ele>284.6</ele>
        <time>2022-07-23T12:45:00Z</time>
      </trkpt>
      <trkpt lat="46.21716" lon="5.32131">
        <ele>285</ele>
        <time>2022-07-23T12:45:02Z</time>
      </trkpt>
      <trkpt lat="46.21711" lon="5.32136">
        <ele>285</ele>
        <time>2022-07-23T12:45:03Z</time>
      </trkpt>
      <trkpt lat="46.21707" lon="5.32142">
        <ele>285.2</ele>
        <time>2022-07-23T12:45:04Z</time>
      </trkpt>
      <trkpt lat="46.21696" lon="5.32161">
        <ele>285.4</ele>
        <time>2022-07-23T12:45:07Z</time>
      </trkpt>
      <trkpt lat="46.21693" lon="5.32168">
        <ele>285.6</ele>
        <time>2022-07-23T12:45:08Z</time>
      </trkpt>
      <trkpt lat="46.21674" lon="5.32209">
        <ele>286.6</ele>
        <time>2022-07-23T12:45:14Z</time>
      </trkpt>
      <trkpt lat="46.21665" lon="5.3223">
        <ele>286.8</ele>
        <time>2022-07-23T12:45:17Z</time>
      </trkpt>
      <trkpt lat="46.21643" lon="5.32286">
        <ele>287.8</ele>
        <time>2022-07-23T12:45:25Z</time>
      </trkpt>
      <trkpt lat="46.21627" lon="5.32318">
        <ele>288.8</ele>
        <time>2022-07-23T12:45:30Z</time>
      </trkpt>
      <trkpt lat="46.21617" lon="5.32338">
        <ele>289.2</ele>
        <time>2022-07-23T12:45:33Z</time>
      </trkpt>
      <trkpt lat="46.21603" lon="5.32365">
        <ele>290</ele>
        <time>2022-07-23T12:45:37Z</time>
      </trkpt>
      <trkpt lat="46.21593" lon="5.32383">
        <ele>290.2</ele>
        <time>2022-07-23T12:45:40Z</time>
      </trkpt>
      <trkpt lat="46.21589" lon="5.32388">
        <ele>290.4</ele>
        <time>2022-07-23T12:45:41Z</time>
      </trkpt>
      <trkpt lat="46.21576" lon="5.32402">
        <ele>291</ele>
        <time>2022-07-23T12:45:44Z</time>
      </trkpt>
      <trkpt lat="46.21563" lon="5.32416">
        <ele>291.8</ele>
        <time>2022-07-23T12:45:47Z</time>
      </trkpt>
      <trkpt lat="46.21555" lon="5.32425">
        <ele>292</ele>
        <time>2022-07-23T12:45:49Z</time>
      </trkpt>
      <trkpt lat="46.21536" lon="5.32443">
        <ele>292.6</ele>
        <time>2022-07-23T12:45:53Z</time>
      </trkpt>
      <trkpt lat="46.21532" lon="5.32448">
        <ele>292.6</ele>
        <time>2022-07-23T12:45:54Z</time>
      </trkpt>
      <trkpt lat="46.21528" lon="5.32454">
        <ele>292.8</ele>
        <time>2022-07-23T12:45:55Z</time>
      </trkpt>
      <trkpt lat="46.21521" lon="5.32467">
        <ele>293</ele>
        <time>2022-07-23T12:45:57Z</time>
      </trkpt>
      <trkpt lat="46.21518" lon="5.32473">
        <ele>293.2</ele>
        <time>2022-07-23T12:45:58Z</time>
      </trkpt>
      <trkpt lat="46.21515" lon="5.3248">
        <ele>293.4</ele>
        <time>2022-07-23T12:45:59Z</time>
      </trkpt>
      <trkpt lat="46.21501" lon="5.32511">
        <ele>294</ele>
        <time>2022-07-23T12:46:04Z</time>
      </trkpt>
      <trkpt lat="46.21496" lon="5.32524">
        <ele>294.4</ele>
        <time>2022-07-23T12:46:06Z</time>
      </trkpt>
      <trkpt lat="46.21472" lon="5.32586">
        <ele>295.4</ele>
        <time>2022-07-23T12:46:15Z</time>
      </trkpt>
      <trkpt lat="46.21449" lon="5.32642">
        <ele>295.2</ele>
        <time>2022-07-23T12:46:23Z</time>
      </trkpt>
      <trkpt lat="46.21431" lon="5.32673">
        <ele>295.2</ele>
        <time>2022-07-23T12:46:29Z</time>
      </trkpt>
      <trkpt lat="46.21425" lon="5.32674">
        <ele>295.2</ele>
        <time>2022-07-23T12:46:31Z</time>
      </trkpt>
      <trkpt lat="46.21421" lon="5.32672">
        <ele>295.2</ele>
        <time>2022-07-23T12:46:32Z</time>
      </trkpt>
      <trkpt lat="46.21405" lon="5.32661">
        <ele>295.2</ele>
        <time>2022-07-23T12:46:35Z</time>
      </trkpt>
      <trkpt lat="46.21371" lon="5.32632">
        <ele>294.8</ele>
        <time>2022-07-23T12:46:41Z</time>
      </trkpt>
      <trkpt lat="46.21359" lon="5.32624">
        <ele>294.6</ele>
        <time>2022-07-23T12:46:43Z</time>
      </trkpt>
      <trkpt lat="46.21335" lon="5.32611">
        <ele>294.8</ele>
        <time>2022-07-23T12:46:47Z</time>
      </trkpt>
      <trkpt lat="46.21301" lon="5.3259">
        <ele>295.6</ele>
        <time>2022-07-23T12:46:53Z</time>
      </trkpt>
      <trkpt lat="46.21264" lon="5.32562">
        <ele>296.2</ele>
        <time>2022-07-23T12:47:00Z</time>
      </trkpt>
      <trkpt lat="46.21237" lon="5.32547">
        <ele>296.6</ele>
        <time>2022-07-23T12:47:05Z</time>
      </trkpt>
      <trkpt lat="46.21233" lon="5.32545">
        <ele>296.8</ele>
        <time>2022-07-23T12:47:06Z</time>
      </trkpt>
      <trkpt lat="46.21224" lon="5.32543">
        <ele>297</ele>
        <time>2022-07-23T12:47:08Z</time>
      </trkpt>
      <trkpt lat="46.2122" lon="5.32541">
        <ele>297.2</ele>
        <time>2022-07-23T12:47:10Z</time>
      </trkpt>
      <trkpt lat="46.21212" lon="5.32525">
        <ele>297.2</ele>
        <time>2022-07-23T12:47:14Z</time>
      </trkpt>
      <trkpt lat="46.21206" lon="5.32515">
        <ele>297.2</ele>
        <time>2022-07-23T12:47:16Z</time>
      </trkpt>
      <trkpt lat="46.21195" lon="5.3251">
        <ele>297</ele>
        <time>2022-07-23T12:47:18Z</time>
      </trkpt>
      <trkpt lat="46.21183" lon="5.32505">
        <ele>296.6</ele>
        <time>2022-07-23T12:47:20Z</time>
      </trkpt>
      <trkpt lat="46.21166" lon="5.32493">
        <ele>296.2</ele>
        <time>2022-07-23T12:47:23Z</time>
      </trkpt>
      <trkpt lat="46.21126" lon="5.32472">
        <ele>295.8</ele>
        <time>2022-07-23T12:47:29Z</time>
      </trkpt>
      <trkpt lat="46.2112" lon="5.3247">
        <ele>295.8</ele>
        <time>2022-07-23T12:47:30Z</time>
      </trkpt>
      <trkpt lat="46.211" lon="5.32464">
        <ele>295.6</ele>
        <time>2022-07-23T12:47:33Z</time>
      </trkpt>
      <trkpt lat="46.21093" lon="5.32464">
        <ele>295.6</ele>
        <time>2022-07-23T12:47:34Z</time>
      </trkpt>
      <trkpt lat="46.2108" lon="5.32464">
        <ele>295.6</ele>
        <time>2022-07-23T12:47:36Z</time>
      </trkpt>
      <trkpt lat="46.21031" lon="5.3246">
        <ele>294.8</ele>
        <time>2022-07-23T12:47:43Z</time>
      </trkpt>
      <trkpt lat="46.20999" lon="5.3246">
        <ele>294.6</ele>
        <time>2022-07-23T12:47:47Z</time>
      </trkpt>
      <trkpt lat="46.2099" lon="5.32461">
        <ele>294.4</ele>
        <time>2022-07-23T12:47:48Z</time>
      </trkpt>
      <trkpt lat="46.20939" lon="5.32467">
        <ele>293.4</ele>
        <time>2022-07-23T12:47:54Z</time>
      </trkpt>
      <trkpt lat="46.2093" lon="5.32468">
        <ele>293</ele>
        <time>2022-07-23T12:47:55Z</time>
      </trkpt>
      <trkpt lat="46.20913" lon="5.3247">
        <ele>292.4</ele>
        <time>2022-07-23T12:47:57Z</time>
      </trkpt>
      <trkpt lat="46.2087" lon="5.3248">
        <ele>291.2</ele>
        <time>2022-07-23T12:48:02Z</time>
      </trkpt>
      <trkpt lat="46.20828" lon="5.32492">
        <ele>290.2</ele>
        <time>2022-07-23T12:48:07Z</time>
      </trkpt>
      <trkpt lat="46.20802" lon="5.32496">
        <ele>289.4</ele>
        <time>2022-07-23T12:48:10Z</time>
      </trkpt>
      <trkpt lat="46.20785" lon="5.325">
        <ele>289.2</ele>
        <time>2022-07-23T12:48:12Z</time>
      </trkpt>
      <trkpt lat="46.20742" lon="5.32504">
        <ele>288.6</ele>
        <time>2022-07-23T12:48:17Z</time>
      </trkpt>
      <trkpt lat="46.20696" lon="5.32509">
        <ele>288.6</ele>
        <time>2022-07-23T12:48:23Z</time>
      </trkpt>
      <trkpt lat="46.20645" lon="5.32506">
        <ele>289</ele>
        <time>2022-07-23T12:48:30Z</time>
      </trkpt>
      <trkpt lat="46.20591" lon="5.32494">
        <ele>289.8</ele>
        <time>2022-07-23T12:48:38Z</time>
      </trkpt>
      <trkpt lat="46.20578" lon="5.3249">
        <ele>290.2</ele>
        <time>2022-07-23T12:48:40Z</time>
      </trkpt>
      <trkpt lat="46.20548" lon="5.32483">
        <ele>291.4</ele>
        <time>2022-07-23T12:48:45Z</time>
      </trkpt>
      <trkpt lat="46.20542" lon="5.32481">
        <ele>291.6</ele>
        <time>2022-07-23T12:48:46Z</time>
      </trkpt>
      <trkpt lat="46.20514" lon="5.32473">
        <ele>292.6</ele>
        <time>2022-07-23T12:48:51Z</time>
      </trkpt>
      <trkpt lat="46.20498" lon="5.3247">
        <ele>293.6</ele>
        <time>2022-07-23T12:48:54Z</time>
      </trkpt>
      <trkpt lat="46.20493" lon="5.32469">
        <ele>294</ele>
        <time>2022-07-23T12:48:55Z</time>
      </trkpt>
      <trkpt lat="46.20477" lon="5.32466">
        <ele>294.8</ele>
        <time>2022-07-23T12:48:58Z</time>
      </trkpt>
      <trkpt lat="46.20461" lon="5.32463">
        <ele>295.8</ele>
        <time>2022-07-23T12:49:01Z</time>
      </trkpt>
      <trkpt lat="46.20457" lon="5.32462">
        <ele>296.2</ele>
        <time>2022-07-23T12:49:02Z</time>
      </trkpt>
      <trkpt lat="46.20446" lon="5.3246">
        <ele>296.8</ele>
        <time>2022-07-23T12:49:04Z</time>
      </trkpt>
      <trkpt lat="46.20429" lon="5.32456">
        <ele>298</ele>
        <time>2022-07-23T12:49:08Z</time>
      </trkpt>
      <trkpt lat="46.20424" lon="5.32455">
        <ele>298.4</ele>
        <time>2022-07-23T12:49:09Z</time>
      </trkpt>
      <trkpt lat="46.20406" lon="5.32452">
        <ele>299</ele>
        <time>2022-07-23T12:49:13Z</time>
      </trkpt>
      <trkpt lat="46.20373" lon="5.32445">
        <ele>300.4</ele>
        <time>2022-07-23T12:49:20Z</time>
      </trkpt>
      <trkpt lat="46.20344" lon="5.32442">
        <ele>301.4</ele>
        <time>2022-07-23T12:49:26Z</time>
      </trkpt>
      <trkpt lat="46.2033" lon="5.32441">
        <ele>302.2</ele>
        <time>2022-07-23T12:49:29Z</time>
      </trkpt>
      <trkpt lat="46.20315" lon="5.32439">
        <ele>302.6</ele>
        <time>2022-07-23T12:49:32Z</time>
      </trkpt>
      <trkpt lat="46.20294" lon="5.32437">
        <ele>303.2</ele>
        <time>2022-07-23T12:49:36Z</time>
      </trkpt>
      <trkpt lat="46.20289" lon="5.32436">
        <ele>303.2</ele>
        <time>2022-07-23T12:49:37Z</time>
      </trkpt>
      <trkpt lat="46.20269" lon="5.32434">
        <ele>303.8</ele>
        <time>2022-07-23T12:49:41Z</time>
      </trkpt>
      <trkpt lat="46.20258" lon="5.32432">
        <ele>304.2</ele>
        <time>2022-07-23T12:49:43Z</time>
      </trkpt>
      <trkpt lat="46.20227" lon="5.32422">
        <ele>305</ele>
        <time>2022-07-23T12:49:49Z</time>
      </trkpt>
      <trkpt lat="46.20211" lon="5.32414">
        <ele>305.2</ele>
        <time>2022-07-23T12:49:52Z</time>
      </trkpt>
      <trkpt lat="46.20196" lon="5.32407">
        <ele>305.6</ele>
        <time>2022-07-23T12:49:55Z</time>
      </trkpt>
      <trkpt lat="46.2018" lon="5.32401">
        <ele>306</ele>
        <time>2022-07-23T12:49:58Z</time>
      </trkpt>
      <trkpt lat="46.20169" lon="5.32398">
        <ele>306.2</ele>
        <time>2022-07-23T12:50:00Z</time>
      </trkpt>
      <trkpt lat="46.20123" lon="5.32392">
        <ele>307</ele>
        <time>2022-07-23T12:50:08Z</time>
      </trkpt>
      <trkpt lat="46.20117" lon="5.32392">
        <ele>307.2</ele>
        <time>2022-07-23T12:50:09Z</time>
      </trkpt>
      <trkpt lat="46.20073" lon="5.3239">
        <ele>307.8</ele>
        <time>2022-07-23T12:50:16Z</time>
      </trkpt>
      <trkpt lat="46.20054" lon="5.32382">
        <ele>308</ele>
        <time>2022-07-23T12:50:19Z</time>
      </trkpt>
      <trkpt lat="46.20048" lon="5.32379">
        <ele>308.2</ele>
        <time>2022-07-23T12:50:20Z</time>
      </trkpt>
      <trkpt lat="46.20042" lon="5.32374">
        <ele>308.2</ele>
        <time>2022-07-23T12:50:21Z</time>
      </trkpt>
      <trkpt lat="46.20015" lon="5.32344">
        <ele>308.2</ele>
        <time>2022-07-23T12:50:26Z</time>
      </trkpt>
      <trkpt lat="46.19989" lon="5.32315">
        <ele>308.4</ele>
        <time>2022-07-23T12:50:31Z</time>
      </trkpt>
      <trkpt lat="46.19983" lon="5.3231">
        <ele>308.4</ele>
        <time>2022-07-23T12:50:32Z</time>
      </trkpt>
      <trkpt lat="46.19946" lon="5.32294">
        <ele>308.8</ele>
        <time>2022-07-23T12:50:38Z</time>
      </trkpt>
      <trkpt lat="46.1994" lon="5.32293">
        <ele>308.8</ele>
        <time>2022-07-23T12:50:39Z</time>
      </trkpt>
      <trkpt lat="46.19928" lon="5.32293">
        <ele>309.2</ele>
        <time>2022-07-23T12:50:41Z</time>
      </trkpt>
      <trkpt lat="46.19922" lon="5.32294">
        <ele>309.4</ele>
        <time>2022-07-23T12:50:42Z</time>
      </trkpt>
      <trkpt lat="46.19898" lon="5.323">
        <ele>310.2</ele>
        <time>2022-07-23T12:50:46Z</time>
      </trkpt>
      <trkpt lat="46.19855" lon="5.3231">
        <ele>311.2</ele>
        <time>2022-07-23T12:50:53Z</time>
      </trkpt>
      <trkpt lat="46.19848" lon="5.32311">
        <ele>311.4</ele>
        <time>2022-07-23T12:50:54Z</time>
      </trkpt>
      <trkpt lat="46.19812" lon="5.32312">
        <ele>311.6</ele>
        <time>2022-07-23T12:50:59Z</time>
      </trkpt>
      <trkpt lat="46.19765" lon="5.32306">
        <ele>311.2</ele>
        <time>2022-07-23T12:51:05Z</time>
      </trkpt>
      <trkpt lat="46.19733" lon="5.32299">
        <ele>310.2</ele>
        <time>2022-07-23T12:51:09Z</time>
      </trkpt>
      <trkpt lat="46.19703" lon="5.3229">
        <ele>310</ele>
        <time>2022-07-23T12:51:13Z</time>
      </trkpt>
      <trkpt lat="46.19648" lon="5.32268">
        <ele>310.2</ele>
        <time>2022-07-23T12:51:21Z</time>
      </trkpt>
      <trkpt lat="46.19617" lon="5.32258">
        <ele>311.4</ele>
        <time>2022-07-23T12:51:26Z</time>
      </trkpt>
      <trkpt lat="46.19611" lon="5.32255">
        <ele>311.8</ele>
        <time>2022-07-23T12:51:27Z</time>
      </trkpt>
      <trkpt lat="46.196" lon="5.32251">
        <ele>312.4</ele>
        <time>2022-07-23T12:51:29Z</time>
      </trkpt>
      <trkpt lat="46.19572" lon="5.32243">
        <ele>313</ele>
        <time>2022-07-23T12:51:34Z</time>
      </trkpt>
      <trkpt lat="46.1955" lon="5.32237">
        <ele>313.6</ele>
        <time>2022-07-23T12:51:38Z</time>
      </trkpt>
      <trkpt lat="46.19545" lon="5.32235">
        <ele>313.8</ele>
        <time>2022-07-23T12:51:39Z</time>
      </trkpt>
      <trkpt lat="46.19527" lon="5.3223">
        <ele>314.6</ele>
        <time>2022-07-23T12:51:42Z</time>
      </trkpt>
      <trkpt lat="46.19515" lon="5.32226">
        <ele>314.8</ele>
        <time>2022-07-23T12:51:44Z</time>
      </trkpt>
      <trkpt lat="46.19475" lon="5.32218">
        <ele>315</ele>
        <time>2022-07-23T12:51:50Z</time>
      </trkpt>
      <trkpt lat="46.1943" lon="5.32213">
        <ele>314.8</ele>
        <time>2022-07-23T12:51:56Z</time>
      </trkpt>
      <trkpt lat="46.19372" lon="5.32203">
        <ele>315.2</ele>
        <time>2022-07-23T12:52:04Z</time>
      </trkpt>
      <trkpt lat="46.19365" lon="5.32202">
        <ele>315.2</ele>
        <time>2022-07-23T12:52:05Z</time>
      </trkpt>
      <trkpt lat="46.19332" lon="5.32188">
        <ele>315.4</ele>
        <time>2022-07-23T12:52:10Z</time>
      </trkpt>
      <trkpt lat="46.19318" lon="5.32181">
        <ele>315.6</ele>
        <time>2022-07-23T12:52:12Z</time>
      </trkpt>
      <trkpt lat="46.19266" lon="5.32156">
        <ele>315.6</ele>
        <time>2022-07-23T12:52:20Z</time>
      </trkpt>
      <trkpt lat="46.19208" lon="5.32134">
        <ele>314.8</ele>
        <time>2022-07-23T12:52:28Z</time>
      </trkpt>
      <trkpt lat="46.19193" lon="5.32129">
        <ele>314.8</ele>
        <time>2022-07-23T12:52:30Z</time>
      </trkpt>
      <trkpt lat="46.19148" lon="5.3212">
        <ele>315</ele>
        <time>2022-07-23T12:52:36Z</time>
      </trkpt>
      <trkpt lat="46.19141" lon="5.3212">
        <ele>315</ele>
        <time>2022-07-23T12:52:37Z</time>
      </trkpt>
      <trkpt lat="46.19111" lon="5.32127">
        <ele>315.2</ele>
        <time>2022-07-23T12:52:41Z</time>
      </trkpt>
      <trkpt lat="46.19061" lon="5.32142">
        <ele>315.2</ele>
        <time>2022-07-23T12:52:47Z</time>
      </trkpt>
      <trkpt lat="46.19023" lon="5.32155">
        <ele>314.4</ele>
        <time>2022-07-23T12:52:51Z</time>
      </trkpt>
      <trkpt lat="46.19002" lon="5.32158">
        <ele>313.2</ele>
        <time>2022-07-23T12:52:53Z</time>
      </trkpt>
      <trkpt lat="46.18981" lon="5.32154">
        <ele>312</ele>
        <time>2022-07-23T12:52:55Z</time>
      </trkpt>
      <trkpt lat="46.18971" lon="5.32152">
        <ele>311.6</ele>
        <time>2022-07-23T12:52:56Z</time>
      </trkpt>
      <trkpt lat="46.18963" lon="5.3215">
        <ele>311</ele>
        <time>2022-07-23T12:52:57Z</time>
      </trkpt>
      <trkpt lat="46.18947" lon="5.32147">
        <ele>309.8</ele>
        <time>2022-07-23T12:52:59Z</time>
      </trkpt>
      <trkpt lat="46.18911" lon="5.3215">
        <ele>309</ele>
        <time>2022-07-23T12:53:03Z</time>
      </trkpt>
      <trkpt lat="46.18891" lon="5.32158">
        <ele>308</ele>
        <time>2022-07-23T12:53:05Z</time>
      </trkpt>
      <trkpt lat="46.18871" lon="5.32171">
        <ele>306.2</ele>
        <time>2022-07-23T12:53:07Z</time>
      </trkpt>
      <trkpt lat="46.18851" lon="5.32187">
        <ele>305</ele>
        <time>2022-07-23T12:53:09Z</time>
      </trkpt>
      <trkpt lat="46.1883" lon="5.32202">
        <ele>302.6</ele>
        <time>2022-07-23T12:53:11Z</time>
      </trkpt>
      <trkpt lat="46.18819" lon="5.32208">
        <ele>301.6</ele>
        <time>2022-07-23T12:53:12Z</time>
      </trkpt>
      <trkpt lat="46.18797" lon="5.32216">
        <ele>300.2</ele>
        <time>2022-07-23T12:53:14Z</time>
      </trkpt>
      <trkpt lat="46.18774" lon="5.32221">
        <ele>299.2</ele>
        <time>2022-07-23T12:53:16Z</time>
      </trkpt>
      <trkpt lat="46.18753" lon="5.32224">
        <ele>298.2</ele>
        <time>2022-07-23T12:53:18Z</time>
      </trkpt>
      <trkpt lat="46.18712" lon="5.3223">
        <ele>297.2</ele>
        <time>2022-07-23T12:53:22Z</time>
      </trkpt>
      <trkpt lat="46.18703" lon="5.32231">
        <ele>297</ele>
        <time>2022-07-23T12:53:23Z</time>
      </trkpt>
      <trkpt lat="46.18668" lon="5.32241">
        <ele>297</ele>
        <time>2022-07-23T12:53:27Z</time>
      </trkpt>
      <trkpt lat="46.18646" lon="5.32249">
        <ele>298.4</ele>
        <time>2022-07-23T12:53:30Z</time>
      </trkpt>
      <trkpt lat="46.18632" lon="5.32254">
        <ele>299.6</ele>
        <time>2022-07-23T12:53:32Z</time>
      </trkpt>
      <trkpt lat="46.18625" lon="5.32257">
        <ele>300</ele>
        <time>2022-07-23T12:53:33Z</time>
      </trkpt>
      <trkpt lat="46.18613" lon="5.32262">
        <ele>300.6</ele>
        <time>2022-07-23T12:53:35Z</time>
      </trkpt>
      <trkpt lat="46.18595" lon="5.32267">
        <ele>302</ele>
        <time>2022-07-23T12:53:38Z</time>
      </trkpt>
      <trkpt lat="46.18589" lon="5.3227">
        <ele>302.6</ele>
        <time>2022-07-23T12:53:39Z</time>
      </trkpt>
      <trkpt lat="46.18578" lon="5.32274">
        <ele>303.4</ele>
        <time>2022-07-23T12:53:41Z</time>
      </trkpt>
      <trkpt lat="46.18551" lon="5.32281">
        <ele>304.6</ele>
        <time>2022-07-23T12:53:46Z</time>
      </trkpt>
      <trkpt lat="46.18535" lon="5.32285">
        <ele>305.6</ele>
        <time>2022-07-23T12:53:49Z</time>
      </trkpt>
      <trkpt lat="46.18513" lon="5.3229">
        <ele>306.8</ele>
        <time>2022-07-23T12:53:53Z</time>
      </trkpt>
      <trkpt lat="46.18478" lon="5.32295">
        <ele>307.8</ele>
        <time>2022-07-23T12:53:59Z</time>
      </trkpt>
      <trkpt lat="46.18472" lon="5.32296">
        <ele>308</ele>
        <time>2022-07-23T12:54:00Z</time>
      </trkpt>
      <trkpt lat="46.18446" lon="5.323">
        <ele>309</ele>
        <time>2022-07-23T12:54:05Z</time>
      </trkpt>
      <trkpt lat="46.18431" lon="5.32303">
        <ele>309.2</ele>
        <time>2022-07-23T12:54:08Z</time>
      </trkpt>
      <trkpt lat="46.18422" lon="5.32304">
        <ele>309.6</ele>
        <time>2022-07-23T12:54:10Z</time>
      </trkpt>
      <trkpt lat="46.18412" lon="5.32306">
        <ele>310.4</ele>
        <time>2022-07-23T12:54:12Z</time>
      </trkpt>
      <trkpt lat="46.18398" lon="5.3231">
        <ele>311.4</ele>
        <time>2022-07-23T12:54:15Z</time>
      </trkpt>
      <trkpt lat="46.18393" lon="5.32311">
        <ele>311.6</ele>
        <time>2022-07-23T12:54:16Z</time>
      </trkpt>
      <trkpt lat="46.1838" lon="5.32316">
        <ele>312.4</ele>
        <time>2022-07-23T12:54:19Z</time>
      </trkpt>
      <trkpt lat="46.18352" lon="5.32326">
        <ele>313.4</ele>
        <time>2022-07-23T12:54:25Z</time>
      </trkpt>
      <trkpt lat="46.18348" lon="5.32328">
        <ele>313.6</ele>
        <time>2022-07-23T12:54:26Z</time>
      </trkpt>
      <trkpt lat="46.18314" lon="5.32345">
        <ele>314.6</ele>
        <time>2022-07-23T12:54:33Z</time>
      </trkpt>
      <trkpt lat="46.18299" lon="5.32353">
        <ele>315.2</ele>
        <time>2022-07-23T12:54:36Z</time>
      </trkpt>
      <trkpt lat="46.18263" lon="5.32377">
        <ele>315.4</ele>
        <time>2022-07-23T12:54:43Z</time>
      </trkpt>
      <trkpt lat="46.18228" lon="5.32403">
        <ele>315</ele>
        <time>2022-07-23T12:54:49Z</time>
      </trkpt>
      <trkpt lat="46.18181" lon="5.32448">
        <ele>313.8</ele>
        <time>2022-07-23T12:54:57Z</time>
      </trkpt>
      <trkpt lat="46.18169" lon="5.3246">
        <ele>313.6</ele>
        <time>2022-07-23T12:54:59Z</time>
      </trkpt>
      <trkpt lat="46.18128" lon="5.32496">
        <ele>313.4</ele>
        <time>2022-07-23T12:55:06Z</time>
      </trkpt>
      <trkpt lat="46.18122" lon="5.325">
        <ele>313.4</ele>
        <time>2022-07-23T12:55:07Z</time>
      </trkpt>
      <trkpt lat="46.18095" lon="5.3251">
        <ele>314</ele>
        <time>2022-07-23T12:55:11Z</time>
      </trkpt>
      <trkpt lat="46.18041" lon="5.32527">
        <ele>314.6</ele>
        <time>2022-07-23T12:55:19Z</time>
      </trkpt>
      <trkpt lat="46.18034" lon="5.32529">
        <ele>314.6</ele>
        <time>2022-07-23T12:55:20Z</time>
      </trkpt>
      <trkpt lat="46.17985" lon="5.32534">
        <ele>314.8</ele>
        <time>2022-07-23T12:55:27Z</time>
      </trkpt>
      <trkpt lat="46.1795" lon="5.32532">
        <ele>315.4</ele>
        <time>2022-07-23T12:55:33Z</time>
      </trkpt>
      <trkpt lat="46.17939" lon="5.32529">
        <ele>315.6</ele>
        <time>2022-07-23T12:55:35Z</time>
      </trkpt>
      <trkpt lat="46.17931" lon="5.32526">
        <ele>316.2</ele>
        <time>2022-07-23T12:55:37Z</time>
      </trkpt>
      <trkpt lat="46.17926" lon="5.32526">
        <ele>317</ele>
        <time>2022-07-23T12:55:38Z</time>
      </trkpt>
      <trkpt lat="46.17923" lon="5.32525">
        <ele>317.4</ele>
        <time>2022-07-23T12:55:39Z</time>
      </trkpt>
      <trkpt lat="46.17915" lon="5.32523">
        <ele>318</ele>
        <time>2022-07-23T12:55:41Z</time>
      </trkpt>
      <trkpt lat="46.17908" lon="5.32526">
        <ele>318.6</ele>
        <time>2022-07-23T12:55:43Z</time>
      </trkpt>
      <trkpt lat="46.17904" lon="5.3253">
        <ele>319</ele>
        <time>2022-07-23T12:55:44Z</time>
      </trkpt>
      <trkpt lat="46.17901" lon="5.32535">
        <ele>319.4</ele>
        <time>2022-07-23T12:55:45Z</time>
      </trkpt>
      <trkpt lat="46.17899" lon="5.32549">
        <ele>319.8</ele>
        <time>2022-07-23T12:55:47Z</time>
      </trkpt>
      <trkpt lat="46.17897" lon="5.32557">
        <ele>319.8</ele>
        <time>2022-07-23T12:55:48Z</time>
      </trkpt>
      <trkpt lat="46.17893" lon="5.32571">
        <ele>320.2</ele>
        <time>2022-07-23T12:55:50Z</time>
      </trkpt>
      <trkpt lat="46.17891" lon="5.32579">
        <ele>320.2</ele>
        <time>2022-07-23T12:55:51Z</time>
      </trkpt>
      <trkpt lat="46.17888" lon="5.32586">
        <ele>320.2</ele>
        <time>2022-07-23T12:55:52Z</time>
      </trkpt>
      <trkpt lat="46.17873" lon="5.32609">
        <ele>320.6</ele>
        <time>2022-07-23T12:55:56Z</time>
      </trkpt>
      <trkpt lat="46.17859" lon="5.32632">
        <ele>321.2</ele>
        <time>2022-07-23T12:56:00Z</time>
      </trkpt>
      <trkpt lat="46.17855" lon="5.32637">
        <ele>321</ele>
        <time>2022-07-23T12:56:01Z</time>
      </trkpt>
      <trkpt lat="46.17849" lon="5.32648">
        <ele>321.6</ele>
        <time>2022-07-23T12:56:03Z</time>
      </trkpt>
      <trkpt lat="46.1783" lon="5.32684">
        <ele>322.4</ele>
        <time>2022-07-23T12:56:09Z</time>
      </trkpt>
      <trkpt lat="46.17823" lon="5.32696">
        <ele>322.6</ele>
        <time>2022-07-23T12:56:11Z</time>
      </trkpt>
      <trkpt lat="46.178" lon="5.3274">
        <ele>322.4</ele>
        <time>2022-07-23T12:56:17Z</time>
      </trkpt>
      <trkpt lat="46.17776" lon="5.32787">
        <ele>321.8</ele>
        <time>2022-07-23T12:56:22Z</time>
      </trkpt>
      <trkpt lat="46.17766" lon="5.32806">
        <ele>321</ele>
        <time>2022-07-23T12:56:24Z</time>
      </trkpt>
      <trkpt lat="46.17761" lon="5.32815">
        <ele>320.2</ele>
        <time>2022-07-23T12:56:25Z</time>
      </trkpt>
      <trkpt lat="46.17754" lon="5.32821">
        <ele>319.8</ele>
        <time>2022-07-23T12:56:26Z</time>
      </trkpt>
      <trkpt lat="46.17746" lon="5.32823">
        <ele>318.8</ele>
        <time>2022-07-23T12:56:27Z</time>
      </trkpt>
      <trkpt lat="46.17738" lon="5.32821">
        <ele>318.2</ele>
        <time>2022-07-23T12:56:28Z</time>
      </trkpt>
      <trkpt lat="46.1773" lon="5.32816">
        <ele>317.8</ele>
        <time>2022-07-23T12:56:29Z</time>
      </trkpt>
      <trkpt lat="46.17722" lon="5.32809">
        <ele>317.2</ele>
        <time>2022-07-23T12:56:30Z</time>
      </trkpt>
      <trkpt lat="46.17715" lon="5.328">
        <ele>317</ele>
        <time>2022-07-23T12:56:31Z</time>
      </trkpt>
      <trkpt lat="46.17708" lon="5.3279">
        <ele>315.8</ele>
        <time>2022-07-23T12:56:32Z</time>
      </trkpt>
      <trkpt lat="46.17701" lon="5.3278">
        <ele>315.2</ele>
        <time>2022-07-23T12:56:33Z</time>
      </trkpt>
      <trkpt lat="46.17696" lon="5.3277">
        <ele>314.4</ele>
        <time>2022-07-23T12:56:34Z</time>
      </trkpt>
      <trkpt lat="46.17686" lon="5.32747">
        <ele>312.8</ele>
        <time>2022-07-23T12:56:36Z</time>
      </trkpt>
      <trkpt lat="46.17682" lon="5.32734">
        <ele>311.6</ele>
        <time>2022-07-23T12:56:37Z</time>
      </trkpt>
      <trkpt lat="46.17678" lon="5.32722">
        <ele>311.2</ele>
        <time>2022-07-23T12:56:38Z</time>
      </trkpt>
      <trkpt lat="46.17673" lon="5.32698">
        <ele>310.6</ele>
        <time>2022-07-23T12:56:40Z</time>
      </trkpt>
      <trkpt lat="46.17672" lon="5.32686">
        <ele>310.2</ele>
        <time>2022-07-23T12:56:41Z</time>
      </trkpt>
      <trkpt lat="46.17671" lon="5.32649">
        <ele>309.4</ele>
        <time>2022-07-23T12:56:44Z</time>
      </trkpt>
      <trkpt lat="46.17672" lon="5.32625">
        <ele>309</ele>
        <time>2022-07-23T12:56:46Z</time>
      </trkpt>
      <trkpt lat="46.17673" lon="5.32613">
        <ele>308.8</ele>
        <time>2022-07-23T12:56:47Z</time>
      </trkpt>
      <trkpt lat="46.17674" lon="5.32588">
        <ele>308</ele>
        <time>2022-07-23T12:56:49Z</time>
      </trkpt>
      <trkpt lat="46.17674" lon="5.32579">
        <ele>307.8</ele>
        <time>2022-07-23T12:56:50Z</time>
      </trkpt>
      <trkpt lat="46.17672" lon="5.32569">
        <ele>307.6</ele>
        <time>2022-07-23T12:56:51Z</time>
      </trkpt>
      <trkpt lat="46.17663" lon="5.32551">
        <ele>307.4</ele>
        <time>2022-07-23T12:56:53Z</time>
      </trkpt>
      <trkpt lat="46.17648" lon="5.32545">
        <ele>307</ele>
        <time>2022-07-23T12:56:55Z</time>
      </trkpt>
      <trkpt lat="46.17632" lon="5.32544">
        <ele>306.4</ele>
        <time>2022-07-23T12:56:57Z</time>
      </trkpt>
      <trkpt lat="46.17609" lon="5.32548">
        <ele>306</ele>
        <time>2022-07-23T12:57:00Z</time>
      </trkpt>
      <trkpt lat="46.17596" lon="5.32558">
        <ele>306</ele>
        <time>2022-07-23T12:57:02Z</time>
      </trkpt>
      <trkpt lat="46.1759" lon="5.32564">
        <ele>306</ele>
        <time>2022-07-23T12:57:03Z</time>
      </trkpt>
      <trkpt lat="46.17566" lon="5.32594">
        <ele>307</ele>
        <time>2022-07-23T12:57:08Z</time>
      </trkpt>
      <trkpt lat="46.17561" lon="5.32599">
        <ele>307.4</ele>
        <time>2022-07-23T12:57:09Z</time>
      </trkpt>
      <trkpt lat="46.17551" lon="5.32607">
        <ele>308.2</ele>
        <time>2022-07-23T12:57:11Z</time>
      </trkpt>
      <trkpt lat="46.17536" lon="5.32617">
        <ele>309.2</ele>
        <time>2022-07-23T12:57:14Z</time>
      </trkpt>
      <trkpt lat="46.17531" lon="5.3262">
        <ele>309.4</ele>
        <time>2022-07-23T12:57:15Z</time>
      </trkpt>
      <trkpt lat="46.17526" lon="5.32623">
        <ele>309.8</ele>
        <time>2022-07-23T12:57:16Z</time>
      </trkpt>
      <trkpt lat="46.17521" lon="5.32625">
        <ele>310.2</ele>
        <time>2022-07-23T12:57:17Z</time>
      </trkpt>
      <trkpt lat="46.17512" lon="5.32628">
        <ele>310.6</ele>
        <time>2022-07-23T12:57:19Z</time>
      </trkpt>
      <trkpt lat="46.17507" lon="5.32628">
        <ele>310.8</ele>
        <time>2022-07-23T12:57:20Z</time>
      </trkpt>
      <trkpt lat="46.17503" lon="5.32626">
        <ele>311</ele>
        <time>2022-07-23T12:57:21Z</time>
      </trkpt>
      <trkpt lat="46.17494" lon="5.32621">
        <ele>311.2</ele>
        <time>2022-07-23T12:57:23Z</time>
      </trkpt>
      <trkpt lat="46.1749" lon="5.32617">
        <ele>311.8</ele>
        <time>2022-07-23T12:57:24Z</time>
      </trkpt>
      <trkpt lat="46.17472" lon="5.32594">
        <ele>312.8</ele>
        <time>2022-07-23T12:57:29Z</time>
      </trkpt>
      <trkpt lat="46.17463" lon="5.32581">
        <ele>313.4</ele>
        <time>2022-07-23T12:57:32Z</time>
      </trkpt>
      <trkpt lat="46.17459" lon="5.32577">
        <ele>313.6</ele>
        <time>2022-07-23T12:57:33Z</time>
      </trkpt>
      <trkpt lat="46.17452" lon="5.32572">
        <ele>313.8</ele>
        <time>2022-07-23T12:57:35Z</time>
      </trkpt>
      <trkpt lat="46.17448" lon="5.3257">
        <ele>314</ele>
        <time>2022-07-23T12:57:36Z</time>
      </trkpt>
      <trkpt lat="46.17441" lon="5.32568">
        <ele>315</ele>
        <time>2022-07-23T12:57:38Z</time>
      </trkpt>
      <trkpt lat="46.17433" lon="5.32569">
        <ele>316</ele>
        <time>2022-07-23T12:57:40Z</time>
      </trkpt>
      <trkpt lat="46.17419" lon="5.32572">
        <ele>317.2</ele>
        <time>2022-07-23T12:57:44Z</time>
      </trkpt>
      <trkpt lat="46.17405" lon="5.32578">
        <ele>318.4</ele>
        <time>2022-07-23T12:57:48Z</time>
      </trkpt>
      <trkpt lat="46.17392" lon="5.32584">
        <ele>319.4</ele>
        <time>2022-07-23T12:57:52Z</time>
      </trkpt>
      <trkpt lat="46.17373" lon="5.32594">
        <ele>320.6</ele>
        <time>2022-07-23T12:57:58Z</time>
      </trkpt>
      <trkpt lat="46.17363" lon="5.326">
        <ele>321.4</ele>
        <time>2022-07-23T12:58:01Z</time>
      </trkpt>
      <trkpt lat="46.17357" lon="5.32603">
        <ele>321.6</ele>
        <time>2022-07-23T12:58:03Z</time>
      </trkpt>
      <trkpt lat="46.1734" lon="5.32612">
        <ele>322.6</ele>
        <time>2022-07-23T12:58:08Z</time>
      </trkpt>
      <trkpt lat="46.1733" lon="5.32618">
        <ele>323.2</ele>
        <time>2022-07-23T12:58:11Z</time>
      </trkpt>
      <trkpt lat="46.17319" lon="5.32622">
        <ele>324</ele>
        <time>2022-07-23T12:58:14Z</time>
      </trkpt>
      <trkpt lat="46.17309" lon="5.32626">
        <ele>324.6</ele>
        <time>2022-07-23T12:58:17Z</time>
      </trkpt>
      <trkpt lat="46.17299" lon="5.3263">
        <ele>325</ele>
        <time>2022-07-23T12:58:20Z</time>
      </trkpt>
      <trkpt lat="46.17285" lon="5.32636">
        <ele>326.2</ele>
        <time>2022-07-23T12:58:24Z</time>
      </trkpt>
      <trkpt lat="46.17258" lon="5.32645">
        <ele>327.4</ele>
        <time>2022-07-23T12:58:31Z</time>
      </trkpt>
      <trkpt lat="46.1725" lon="5.32647">
        <ele>327.6</ele>
        <time>2022-07-23T12:58:33Z</time>
      </trkpt>
      <trkpt lat="46.17228" lon="5.32651">
        <ele>328.4</ele>
        <time>2022-07-23T12:58:38Z</time>
      </trkpt>
      <trkpt lat="46.1721" lon="5.32656">
        <ele>328.8</ele>
        <time>2022-07-23T12:58:42Z</time>
      </trkpt>
      <trkpt lat="46.17196" lon="5.32658">
        <ele>329.4</ele>
        <time>2022-07-23T12:58:45Z</time>
      </trkpt>
      <trkpt lat="46.17187" lon="5.32661">
        <ele>329.6</ele>
        <time>2022-07-23T12:58:47Z</time>
      </trkpt>
      <trkpt lat="46.17173" lon="5.32663">
        <ele>330</ele>
        <time>2022-07-23T12:58:50Z</time>
      </trkpt>
      <trkpt lat="46.17154" lon="5.32665">
        <ele>330.8</ele>
        <time>2022-07-23T12:58:54Z</time>
      </trkpt>
      <trkpt lat="46.17128" lon="5.32665">
        <ele>331.4</ele>
        <time>2022-07-23T12:58:59Z</time>
      </trkpt>
      <trkpt lat="46.17117" lon="5.32665">
        <ele>331.8</ele>
        <time>2022-07-23T12:59:01Z</time>
      </trkpt>
      <trkpt lat="46.1709" lon="5.32667">
        <ele>332.2</ele>
        <time>2022-07-23T12:59:06Z</time>
      </trkpt>
      <trkpt lat="46.17054" lon="5.32672">
        <ele>333</ele>
        <time>2022-07-23T12:59:13Z</time>
      </trkpt>
      <trkpt lat="46.17044" lon="5.32672">
        <ele>333.2</ele>
        <time>2022-07-23T12:59:15Z</time>
      </trkpt>
      <trkpt lat="46.17002" lon="5.32676">
        <ele>333.8</ele>
        <time>2022-07-23T12:59:23Z</time>
      </trkpt>
      <trkpt lat="46.16996" lon="5.32676">
        <ele>334</ele>
        <time>2022-07-23T12:59:24Z</time>
      </trkpt>
      <trkpt lat="46.16951" lon="5.32684">
        <ele>335.2</ele>
        <time>2022-07-23T12:59:32Z</time>
      </trkpt>
      <trkpt lat="46.16912" lon="5.32691">
        <ele>335.8</ele>
        <time>2022-07-23T12:59:39Z</time>
      </trkpt>
      <trkpt lat="46.16871" lon="5.32698">
        <ele>336.2</ele>
        <time>2022-07-23T12:59:46Z</time>
      </trkpt>
      <trkpt lat="46.16864" lon="5.32699">
        <ele>336.2</ele>
        <time>2022-07-23T12:59:47Z</time>
      </trkpt>
      <trkpt lat="46.16811" lon="5.32709">
        <ele>337.2</ele>
        <time>2022-07-23T12:59:56Z</time>
      </trkpt>
      <trkpt lat="46.16776" lon="5.32715">
        <ele>338.2</ele>
        <time>2022-07-23T13:00:02Z</time>
      </trkpt>
      <trkpt lat="46.16748" lon="5.3272">
        <ele>338.8</ele>
        <time>2022-07-23T13:00:07Z</time>
      </trkpt>
      <trkpt lat="46.16718" lon="5.32726">
        <ele>339.2</ele>
        <time>2022-07-23T13:00:12Z</time>
      </trkpt>
      <trkpt lat="46.16698" lon="5.32729">
        <ele>339.4</ele>
        <time>2022-07-23T13:00:15Z</time>
      </trkpt>
      <trkpt lat="46.16648" lon="5.3274">
        <ele>339</ele>
        <time>2022-07-23T13:00:22Z</time>
      </trkpt>
      <trkpt lat="46.16618" lon="5.32746">
        <ele>338.2</ele>
        <time>2022-07-23T13:00:26Z</time>
      </trkpt>
      <trkpt lat="46.16589" lon="5.32754">
        <ele>337.2</ele>
        <time>2022-07-23T13:00:30Z</time>
      </trkpt>
      <trkpt lat="46.16553" lon="5.32764">
        <ele>336.8</ele>
        <time>2022-07-23T13:00:35Z</time>
      </trkpt>
      <trkpt lat="46.16531" lon="5.32769">
        <ele>336.2</ele>
        <time>2022-07-23T13:00:38Z</time>
      </trkpt>
      <trkpt lat="46.16507" lon="5.32776">
        <ele>335.4</ele>
        <time>2022-07-23T13:00:41Z</time>
      </trkpt>
      <trkpt lat="46.1649" lon="5.32781">
        <ele>335</ele>
        <time>2022-07-23T13:00:43Z</time>
      </trkpt>
      <trkpt lat="46.16454" lon="5.3279">
        <ele>333.8</ele>
        <time>2022-07-23T13:00:47Z</time>
      </trkpt>
      <trkpt lat="46.16444" lon="5.32794">
        <ele>333.2</ele>
        <time>2022-07-23T13:00:48Z</time>
      </trkpt>
      <trkpt lat="46.16428" lon="5.32806">
        <ele>332.4</ele>
        <time>2022-07-23T13:00:50Z</time>
      </trkpt>
      <trkpt lat="46.16415" lon="5.32824">
        <ele>331.8</ele>
        <time>2022-07-23T13:00:52Z</time>
      </trkpt>
      <trkpt lat="46.1641" lon="5.32834">
        <ele>331.4</ele>
        <time>2022-07-23T13:00:53Z</time>
      </trkpt>
      <trkpt lat="46.16406" lon="5.32845">
        <ele>331.4</ele>
        <time>2022-07-23T13:00:54Z</time>
      </trkpt>
      <trkpt lat="46.16395" lon="5.32875">
        <ele>331.2</ele>
        <time>2022-07-23T13:00:57Z</time>
      </trkpt>
      <trkpt lat="46.16371" lon="5.3293">
        <ele>331.4</ele>
        <time>2022-07-23T13:01:03Z</time>
      </trkpt>
      <trkpt lat="46.16366" lon="5.32947">
        <ele>332.6</ele>
        <time>2022-07-23T13:01:05Z</time>
      </trkpt>
      <trkpt lat="46.1636" lon="5.32969">
        <ele>333</ele>
        <time>2022-07-23T13:01:08Z</time>
      </trkpt>
      <trkpt lat="46.16352" lon="5.32975">
        <ele>333.2</ele>
        <time>2022-07-23T13:01:10Z</time>
      </trkpt>
      <trkpt lat="46.16347" lon="5.32976">
        <ele>334</ele>
        <time>2022-07-23T13:01:11Z</time>
      </trkpt>
      <trkpt lat="46.16342" lon="5.32978">
        <ele>334.4</ele>
        <time>2022-07-23T13:01:12Z</time>
      </trkpt>
      <trkpt lat="46.16329" lon="5.32983">
        <ele>334.6</ele>
        <time>2022-07-23T13:01:15Z</time>
      </trkpt>
      <trkpt lat="46.16306" lon="5.32979">
        <ele>334.8</ele>
        <time>2022-07-23T13:01:19Z</time>
      </trkpt>
      <trkpt lat="46.16284" lon="5.3297">
        <ele>334</ele>
        <time>2022-07-23T13:01:24Z</time>
      </trkpt>
      <trkpt lat="46.16279" lon="5.32974">
        <ele>333</ele>
        <time>2022-07-23T13:01:26Z</time>
      </trkpt>
      <trkpt lat="46.16277" lon="5.32978">
        <ele>332.8</ele>
        <time>2022-07-23T13:01:27Z</time>
      </trkpt>
      <trkpt lat="46.16276" lon="5.32984">
        <ele>332.6</ele>
        <time>2022-07-23T13:01:28Z</time>
      </trkpt>
      <trkpt lat="46.16273" lon="5.33005">
        <ele>332.4</ele>
        <time>2022-07-23T13:01:31Z</time>
      </trkpt>
      <trkpt lat="46.16262" lon="5.33037">
        <ele>331.8</ele>
        <time>2022-07-23T13:01:35Z</time>
      </trkpt>
      <trkpt lat="46.1626" lon="5.33047">
        <ele>331.6</ele>
        <time>2022-07-23T13:01:36Z</time>
      </trkpt>
      <trkpt lat="46.16259" lon="5.33058">
        <ele>331.4</ele>
        <time>2022-07-23T13:01:37Z</time>
      </trkpt>
      <trkpt lat="46.1626" lon="5.33089">
        <ele>330.8</ele>
        <time>2022-07-23T13:01:40Z</time>
      </trkpt>
      <trkpt lat="46.1626" lon="5.33099">
        <ele>330.6</ele>
        <time>2022-07-23T13:01:41Z</time>
      </trkpt>
      <trkpt lat="46.1626" lon="5.3311">
        <ele>330.2</ele>
        <time>2022-07-23T13:01:42Z</time>
      </trkpt>
      <trkpt lat="46.16259" lon="5.33131">
        <ele>329.6</ele>
        <time>2022-07-23T13:01:44Z</time>
      </trkpt>
      <trkpt lat="46.16258" lon="5.33141">
        <ele>329.4</ele>
        <time>2022-07-23T13:01:45Z</time>
      </trkpt>
      <trkpt lat="46.16256" lon="5.3315">
        <ele>329</ele>
        <time>2022-07-23T13:01:46Z</time>
      </trkpt>
      <trkpt lat="46.16248" lon="5.33163">
        <ele>328.6</ele>
        <time>2022-07-23T13:01:48Z</time>
      </trkpt>
      <trkpt lat="46.16234" lon="5.33178">
        <ele>328.6</ele>
        <time>2022-07-23T13:01:51Z</time>
      </trkpt>
      <trkpt lat="46.1623" lon="5.33184">
        <ele>329</ele>
        <time>2022-07-23T13:01:52Z</time>
      </trkpt>
      <trkpt lat="46.16224" lon="5.33195">
        <ele>329.6</ele>
        <time>2022-07-23T13:01:54Z</time>
      </trkpt>
      <trkpt lat="46.1622" lon="5.33207">
        <ele>330.2</ele>
        <time>2022-07-23T13:01:56Z</time>
      </trkpt>
      <trkpt lat="46.16218" lon="5.33213">
        <ele>330.4</ele>
        <time>2022-07-23T13:01:57Z</time>
      </trkpt>
      <trkpt lat="46.16212" lon="5.33235">
        <ele>331.4</ele>
        <time>2022-07-23T13:02:01Z</time>
      </trkpt>
      <trkpt lat="46.1621" lon="5.33241">
        <ele>331.6</ele>
        <time>2022-07-23T13:02:02Z</time>
      </trkpt>
      <trkpt lat="46.16205" lon="5.33257">
        <ele>332.4</ele>
        <time>2022-07-23T13:02:05Z</time>
      </trkpt>
      <trkpt lat="46.16203" lon="5.33273">
        <ele>333.6</ele>
        <time>2022-07-23T13:02:08Z</time>
      </trkpt>
      <trkpt lat="46.16202" lon="5.33279">
        <ele>333.6</ele>
        <time>2022-07-23T13:02:09Z</time>
      </trkpt>
      <trkpt lat="46.16198" lon="5.33301">
        <ele>334.8</ele>
        <time>2022-07-23T13:02:13Z</time>
      </trkpt>
      <trkpt lat="46.16196" lon="5.33317">
        <ele>335.6</ele>
        <time>2022-07-23T13:02:16Z</time>
      </trkpt>
      <trkpt lat="46.16196" lon="5.33322">
        <ele>336.4</ele>
        <time>2022-07-23T13:02:17Z</time>
      </trkpt>
      <trkpt lat="46.16193" lon="5.33349">
        <ele>337.4</ele>
        <time>2022-07-23T13:02:22Z</time>
      </trkpt>
      <trkpt lat="46.16192" lon="5.33364">
        <ele>338.2</ele>
        <time>2022-07-23T13:02:25Z</time>
      </trkpt>
      <trkpt lat="46.16191" lon="5.33374">
        <ele>338.6</ele>
        <time>2022-07-23T13:02:27Z</time>
      </trkpt>
      <trkpt lat="46.16189" lon="5.33403">
        <ele>339.8</ele>
        <time>2022-07-23T13:02:33Z</time>
      </trkpt>
      <trkpt lat="46.16188" lon="5.33408">
        <ele>340</ele>
        <time>2022-07-23T13:02:34Z</time>
      </trkpt>
      <trkpt lat="46.16187" lon="5.33422">
        <ele>340.8</ele>
        <time>2022-07-23T13:02:37Z</time>
      </trkpt>
      <trkpt lat="46.16185" lon="5.33441">
        <ele>341.8</ele>
        <time>2022-07-23T13:02:41Z</time>
      </trkpt>
      <trkpt lat="46.16183" lon="5.33459">
        <ele>342.4</ele>
        <time>2022-07-23T13:02:45Z</time>
      </trkpt>
      <trkpt lat="46.16182" lon="5.33474">
        <ele>343</ele>
        <time>2022-07-23T13:02:48Z</time>
      </trkpt>
      <trkpt lat="46.16179" lon="5.33492">
        <ele>344</ele>
        <time>2022-07-23T13:02:52Z</time>
      </trkpt>
      <trkpt lat="46.16177" lon="5.33511">
        <ele>344.8</ele>
        <time>2022-07-23T13:02:56Z</time>
      </trkpt>
      <trkpt lat="46.16176" lon="5.3352">
        <ele>345.2</ele>
        <time>2022-07-23T13:02:58Z</time>
      </trkpt>
      <trkpt lat="46.16175" lon="5.33524">
        <ele>345.4</ele>
        <time>2022-07-23T13:02:59Z</time>
      </trkpt>
      <trkpt lat="46.16171" lon="5.33538">
        <ele>346.2</ele>
        <time>2022-07-23T13:03:02Z</time>
      </trkpt>
      <trkpt lat="46.1617" lon="5.33542">
        <ele>346.6</ele>
        <time>2022-07-23T13:03:03Z</time>
      </trkpt>
      <trkpt lat="46.16168" lon="5.33551">
        <ele>347.2</ele>
        <time>2022-07-23T13:03:05Z</time>
      </trkpt>
      <trkpt lat="46.16165" lon="5.33569">
        <ele>348.4</ele>
        <time>2022-07-23T13:03:09Z</time>
      </trkpt>
      <trkpt lat="46.16164" lon="5.33578">
        <ele>349</ele>
        <time>2022-07-23T13:03:11Z</time>
      </trkpt>
      <trkpt lat="46.16162" lon="5.33586">
        <ele>349.6</ele>
        <time>2022-07-23T13:03:13Z</time>
      </trkpt>
      <trkpt lat="46.16161" lon="5.33609">
        <ele>350.6</ele>
        <time>2022-07-23T13:03:18Z</time>
      </trkpt>
      <trkpt lat="46.16161" lon="5.33614">
        <ele>350.8</ele>
        <time>2022-07-23T13:03:19Z</time>
      </trkpt>
      <trkpt lat="46.16161" lon="5.33628">
        <ele>351.8</ele>
        <time>2022-07-23T13:03:22Z</time>
      </trkpt>
      <trkpt lat="46.16161" lon="5.33644">
        <ele>353.2</ele>
        <time>2022-07-23T13:03:25Z</time>
      </trkpt>
      <trkpt lat="46.16163" lon="5.33665">
        <ele>354</ele>
        <time>2022-07-23T13:03:29Z</time>
      </trkpt>
      <trkpt lat="46.16163" lon="5.33671">
        <ele>354.2</ele>
        <time>2022-07-23T13:03:30Z</time>
      </trkpt>
      <trkpt lat="46.16164" lon="5.33682">
        <ele>355.2</ele>
        <time>2022-07-23T13:03:32Z</time>
      </trkpt>
      <trkpt lat="46.16166" lon="5.33702">
        <ele>356.4</ele>
        <time>2022-07-23T13:03:36Z</time>
      </trkpt>
      <trkpt lat="46.16167" lon="5.33713">
        <ele>357</ele>
        <time>2022-07-23T13:03:38Z</time>
      </trkpt>
      <trkpt lat="46.16169" lon="5.33727">
        <ele>357.6</ele>
        <time>2022-07-23T13:03:41Z</time>
      </trkpt>
      <trkpt lat="46.1617" lon="5.33747">
        <ele>358.8</ele>
        <time>2022-07-23T13:03:45Z</time>
      </trkpt>
      <trkpt lat="46.16171" lon="5.33752">
        <ele>359</ele>
        <time>2022-07-23T13:03:46Z</time>
      </trkpt>
      <trkpt lat="46.16172" lon="5.33766">
        <ele>360</ele>
        <time>2022-07-23T13:03:49Z</time>
      </trkpt>
      <trkpt lat="46.16175" lon="5.33784">
        <ele>361</ele>
        <time>2022-07-23T13:03:53Z</time>
      </trkpt>
      <trkpt lat="46.16176" lon="5.33794">
        <ele>361.4</ele>
        <time>2022-07-23T13:03:55Z</time>
      </trkpt>
      <trkpt lat="46.16177" lon="5.33808">
        <ele>362</ele>
        <time>2022-07-23T13:03:58Z</time>
      </trkpt>
      <trkpt lat="46.16179" lon="5.33827">
        <ele>363</ele>
        <time>2022-07-23T13:04:02Z</time>
      </trkpt>
      <trkpt lat="46.1618" lon="5.33836">
        <ele>363.2</ele>
        <time>2022-07-23T13:04:04Z</time>
      </trkpt>
      <trkpt lat="46.1618" lon="5.3385">
        <ele>364.2</ele>
        <time>2022-07-23T13:04:07Z</time>
      </trkpt>
      <trkpt lat="46.1618" lon="5.33869">
        <ele>365</ele>
        <time>2022-07-23T13:04:11Z</time>
      </trkpt>
      <trkpt lat="46.1618" lon="5.33878">
        <ele>365.4</ele>
        <time>2022-07-23T13:04:13Z</time>
      </trkpt>
      <trkpt lat="46.16178" lon="5.33891">
        <ele>366.4</ele>
        <time>2022-07-23T13:04:16Z</time>
      </trkpt>
      <trkpt lat="46.16176" lon="5.33908">
        <ele>367.6</ele>
        <time>2022-07-23T13:04:20Z</time>
      </trkpt>
      <trkpt lat="46.16172" lon="5.3393">
        <ele>369</ele>
        <time>2022-07-23T13:04:25Z</time>
      </trkpt>
      <trkpt lat="46.16167" lon="5.33951">
        <ele>370</ele>
        <time>2022-07-23T13:04:30Z</time>
      </trkpt>
      <trkpt lat="46.16166" lon="5.33956">
        <ele>370.2</ele>
        <time>2022-07-23T13:04:31Z</time>
      </trkpt>
      <trkpt lat="46.16161" lon="5.33972">
        <ele>371.4</ele>
        <time>2022-07-23T13:04:35Z</time>
      </trkpt>
      <trkpt lat="46.16155" lon="5.33993">
        <ele>372.6</ele>
        <time>2022-07-23T13:04:40Z</time>
      </trkpt>
      <trkpt lat="46.16154" lon="5.33997">
        <ele>373</ele>
        <time>2022-07-23T13:04:41Z</time>
      </trkpt>
      <trkpt lat="46.1615" lon="5.34009">
        <ele>373.8</ele>
        <time>2022-07-23T13:04:44Z</time>
      </trkpt>
      <trkpt lat="46.16145" lon="5.34025">
        <ele>375</ele>
        <time>2022-07-23T13:04:48Z</time>
      </trkpt>
      <trkpt lat="46.16141" lon="5.34037">
        <ele>375.6</ele>
        <time>2022-07-23T13:04:51Z</time>
      </trkpt>
      <trkpt lat="46.16137" lon="5.34049">
        <ele>376</ele>
        <time>2022-07-23T13:04:54Z</time>
      </trkpt>
      <trkpt lat="46.16132" lon="5.34065">
        <ele>377.2</ele>
        <time>2022-07-23T13:04:58Z</time>
      </trkpt>
      <trkpt lat="46.1613" lon="5.34073">
        <ele>377.4</ele>
        <time>2022-07-23T13:05:00Z</time>
      </trkpt>
      <trkpt lat="46.16127" lon="5.34085">
        <ele>378</ele>
        <time>2022-07-23T13:05:03Z</time>
      </trkpt>
      <trkpt lat="46.16124" lon="5.34098">
        <ele>378.6</ele>
        <time>2022-07-23T13:05:06Z</time>
      </trkpt>
      <trkpt lat="46.16121" lon="5.34106">
        <ele>379.4</ele>
        <time>2022-07-23T13:05:08Z</time>
      </trkpt>
      <trkpt lat="46.16117" lon="5.34123">
        <ele>380.4</ele>
        <time>2022-07-23T13:05:12Z</time>
      </trkpt>
      <trkpt lat="46.16117" lon="5.34132">
        <ele>381</ele>
        <time>2022-07-23T13:05:14Z</time>
      </trkpt>
      <trkpt lat="46.16116" lon="5.34141">
        <ele>381.6</ele>
        <time>2022-07-23T13:05:16Z</time>
      </trkpt>
      <trkpt lat="46.16116" lon="5.34164">
        <ele>382.8</ele>
        <time>2022-07-23T13:05:21Z</time>
      </trkpt>
      <trkpt lat="46.16116" lon="5.34173">
        <ele>383.2</ele>
        <time>2022-07-23T13:05:23Z</time>
      </trkpt>
      <trkpt lat="46.16116" lon="5.34186">
        <ele>383.8</ele>
        <time>2022-07-23T13:05:26Z</time>
      </trkpt>
      <trkpt lat="46.16116" lon="5.34205">
        <ele>384.8</ele>
        <time>2022-07-23T13:05:30Z</time>
      </trkpt>
      <trkpt lat="46.16116" lon="5.34219">
        <ele>385.6</ele>
        <time>2022-07-23T13:05:33Z</time>
      </trkpt>
      <trkpt lat="46.16116" lon="5.34228">
        <ele>386</ele>
        <time>2022-07-23T13:05:35Z</time>
      </trkpt>
      <trkpt lat="46.16114" lon="5.34256">
        <ele>387.2</ele>
        <time>2022-07-23T13:05:41Z</time>
      </trkpt>
      <trkpt lat="46.16114" lon="5.34262">
        <ele>387.4</ele>
        <time>2022-07-23T13:05:42Z</time>
      </trkpt>
      <trkpt lat="46.16114" lon="5.34278">
        <ele>388.2</ele>
        <time>2022-07-23T13:05:45Z</time>
      </trkpt>
      <trkpt lat="46.16112" lon="5.34311">
        <ele>389.2</ele>
        <time>2022-07-23T13:05:51Z</time>
      </trkpt>
      <trkpt lat="46.16111" lon="5.34323">
        <ele>389.4</ele>
        <time>2022-07-23T13:05:53Z</time>
      </trkpt>
      <trkpt lat="46.16108" lon="5.3436">
        <ele>390.4</ele>
        <time>2022-07-23T13:05:59Z</time>
      </trkpt>
      <trkpt lat="46.16107" lon="5.34367">
        <ele>390.4</ele>
        <time>2022-07-23T13:06:00Z</time>
      </trkpt>
      <trkpt lat="46.16102" lon="5.34416">
        <ele>390.8</ele>
        <time>2022-07-23T13:06:06Z</time>
      </trkpt>
      <trkpt lat="46.16098" lon="5.34479">
        <ele>390</ele>
        <time>2022-07-23T13:06:12Z</time>
      </trkpt>
      <trkpt lat="46.16098" lon="5.34501">
        <ele>389.4</ele>
        <time>2022-07-23T13:06:14Z</time>
      </trkpt>
      <trkpt lat="46.16098" lon="5.34542">
        <ele>388.2</ele>
        <time>2022-07-23T13:06:18Z</time>
      </trkpt>
      <trkpt lat="46.16096" lon="5.34564">
        <ele>388</ele>
        <time>2022-07-23T13:06:20Z</time>
      </trkpt>
      <trkpt lat="46.16083" lon="5.34613">
        <ele>387.8</ele>
        <time>2022-07-23T13:06:25Z</time>
      </trkpt>
      <trkpt lat="46.16068" lon="5.34644">
        <ele>388</ele>
        <time>2022-07-23T13:06:29Z</time>
      </trkpt>
      <trkpt lat="46.16041" lon="5.34701">
        <ele>388.4</ele>
        <time>2022-07-23T13:06:36Z</time>
      </trkpt>
      <trkpt lat="46.16007" lon="5.34766">
        <ele>389.4</ele>
        <time>2022-07-23T13:06:45Z</time>
      </trkpt>
      <trkpt lat="46.15992" lon="5.34806">
        <ele>390.8</ele>
        <time>2022-07-23T13:06:50Z</time>
      </trkpt>
      <trkpt lat="46.15989" lon="5.34814">
        <ele>391</ele>
        <time>2022-07-23T13:06:51Z</time>
      </trkpt>
      <trkpt lat="46.15968" lon="5.34886">
        <ele>391.4</ele>
        <time>2022-07-23T13:06:59Z</time>
      </trkpt>
      <trkpt lat="46.15949" lon="5.34969">
        <ele>390</ele>
        <time>2022-07-23T13:07:07Z</time>
      </trkpt>
      <trkpt lat="46.15944" lon="5.3499">
        <ele>389.6</ele>
        <time>2022-07-23T13:07:09Z</time>
      </trkpt>
      <trkpt lat="46.15929" lon="5.3505">
        <ele>388.6</ele>
        <time>2022-07-23T13:07:15Z</time>
      </trkpt>
      <trkpt lat="46.15927" lon="5.3506">
        <ele>388.6</ele>
        <time>2022-07-23T13:07:16Z</time>
      </trkpt>
      <trkpt lat="46.15913" lon="5.35111">
        <ele>387.6</ele>
        <time>2022-07-23T13:07:21Z</time>
      </trkpt>
      <trkpt lat="46.15909" lon="5.35121">
        <ele>387.4</ele>
        <time>2022-07-23T13:07:22Z</time>
      </trkpt>
      <trkpt lat="46.15893" lon="5.35149">
        <ele>387.2</ele>
        <time>2022-07-23T13:07:25Z</time>
      </trkpt>
      <trkpt lat="46.1588" lon="5.35164">
        <ele>386.8</ele>
        <time>2022-07-23T13:07:27Z</time>
      </trkpt>
      <trkpt lat="46.15865" lon="5.35175">
        <ele>386.4</ele>
        <time>2022-07-23T13:07:29Z</time>
      </trkpt>
      <trkpt lat="46.15812" lon="5.35202">
        <ele>386.4</ele>
        <time>2022-07-23T13:07:36Z</time>
      </trkpt>
      <trkpt lat="46.15783" lon="5.35215">
        <ele>388.4</ele>
        <time>2022-07-23T13:07:41Z</time>
      </trkpt>
      <trkpt lat="46.15768" lon="5.35224">
        <ele>389.6</ele>
        <time>2022-07-23T13:07:44Z</time>
      </trkpt>
      <trkpt lat="46.15754" lon="5.35233">
        <ele>390.2</ele>
        <time>2022-07-23T13:07:47Z</time>
      </trkpt>
      <trkpt lat="46.1575" lon="5.35237">
        <ele>390.6</ele>
        <time>2022-07-23T13:07:48Z</time>
      </trkpt>
      <trkpt lat="46.15746" lon="5.35242">
        <ele>391</ele>
        <time>2022-07-23T13:07:49Z</time>
      </trkpt>
      <trkpt lat="46.15733" lon="5.35259">
        <ele>392</ele>
        <time>2022-07-23T13:07:53Z</time>
      </trkpt>
      <trkpt lat="46.15719" lon="5.3528">
        <ele>393</ele>
        <time>2022-07-23T13:07:57Z</time>
      </trkpt>
      <trkpt lat="46.15711" lon="5.35296">
        <ele>393.8</ele>
        <time>2022-07-23T13:08:00Z</time>
      </trkpt>
      <trkpt lat="46.15706" lon="5.35305">
        <ele>394.2</ele>
        <time>2022-07-23T13:08:02Z</time>
      </trkpt>
      <trkpt lat="46.15697" lon="5.35321">
        <ele>394.8</ele>
        <time>2022-07-23T13:08:06Z</time>
      </trkpt>
      <trkpt lat="46.15695" lon="5.35325">
        <ele>395.2</ele>
        <time>2022-07-23T13:08:07Z</time>
      </trkpt>
      <trkpt lat="46.15689" lon="5.35337">
        <ele>396.2</ele>
        <time>2022-07-23T13:08:10Z</time>
      </trkpt>
      <trkpt lat="46.15683" lon="5.35348">
        <ele>397.2</ele>
        <time>2022-07-23T13:08:13Z</time>
      </trkpt>
      <trkpt lat="46.1568" lon="5.35353">
        <ele>397.6</ele>
        <time>2022-07-23T13:08:14Z</time>
      </trkpt>
      <trkpt lat="46.15672" lon="5.35368">
        <ele>398.8</ele>
        <time>2022-07-23T13:08:18Z</time>
      </trkpt>
      <trkpt lat="46.15662" lon="5.35387">
        <ele>399.6</ele>
        <time>2022-07-23T13:08:23Z</time>
      </trkpt>
      <trkpt lat="46.15658" lon="5.35395">
        <ele>399.8</ele>
        <time>2022-07-23T13:08:25Z</time>
      </trkpt>
      <trkpt lat="46.15647" lon="5.35413">
        <ele>401</ele>
        <time>2022-07-23T13:08:30Z</time>
      </trkpt>
      <trkpt lat="46.15641" lon="5.35422">
        <ele>402.2</ele>
        <time>2022-07-23T13:08:33Z</time>
      </trkpt>
      <trkpt lat="46.15639" lon="5.35426">
        <ele>402.6</ele>
        <time>2022-07-23T13:08:34Z</time>
      </trkpt>
      <trkpt lat="46.15633" lon="5.35435">
        <ele>403.2</ele>
        <time>2022-07-23T13:08:37Z</time>
      </trkpt>
      <trkpt lat="46.15621" lon="5.35452">
        <ele>404.2</ele>
        <time>2022-07-23T13:08:42Z</time>
      </trkpt>
      <trkpt lat="46.15618" lon="5.35454">
        <ele>404.4</ele>
        <time>2022-07-23T13:08:43Z</time>
      </trkpt>
      <trkpt lat="46.15609" lon="5.35466">
        <ele>405.4</ele>
        <time>2022-07-23T13:08:47Z</time>
      </trkpt>
      <trkpt lat="46.15601" lon="5.35477">
        <ele>406.2</ele>
        <time>2022-07-23T13:08:51Z</time>
      </trkpt>
      <trkpt lat="46.15599" lon="5.3548">
        <ele>406.6</ele>
        <time>2022-07-23T13:08:52Z</time>
      </trkpt>
      <trkpt lat="46.15585" lon="5.35496">
        <ele>408</ele>
        <time>2022-07-23T13:08:58Z</time>
      </trkpt>
      <trkpt lat="46.15574" lon="5.35512">
        <ele>409.2</ele>
        <time>2022-07-23T13:09:03Z</time>
      </trkpt>
      <trkpt lat="46.15571" lon="5.35516">
        <ele>409.4</ele>
        <time>2022-07-23T13:09:04Z</time>
      </trkpt>
      <trkpt lat="46.1556" lon="5.35536">
        <ele>410.4</ele>
        <time>2022-07-23T13:09:09Z</time>
      </trkpt>
      <trkpt lat="46.15556" lon="5.35546">
        <ele>410.8</ele>
        <time>2022-07-23T13:09:11Z</time>
      </trkpt>
      <trkpt lat="46.15549" lon="5.35576">
        <ele>411.4</ele>
        <time>2022-07-23T13:09:16Z</time>
      </trkpt>
      <trkpt lat="46.15548" lon="5.35591">
        <ele>411.6</ele>
        <time>2022-07-23T13:09:18Z</time>
      </trkpt>
      <trkpt lat="46.15548" lon="5.35614">
        <ele>411.8</ele>
        <time>2022-07-23T13:09:21Z</time>
      </trkpt>
      <trkpt lat="46.15552" lon="5.35636">
        <ele>412</ele>
        <time>2022-07-23T13:09:24Z</time>
      </trkpt>
      <trkpt lat="46.15558" lon="5.35665">
        <ele>412.4</ele>
        <time>2022-07-23T13:09:28Z</time>
      </trkpt>
      <trkpt lat="46.15558" lon="5.35673">
        <ele>412.6</ele>
        <time>2022-07-23T13:09:29Z</time>
      </trkpt>
      <trkpt lat="46.15557" lon="5.3568">
        <ele>412.6</ele>
        <time>2022-07-23T13:09:30Z</time>
      </trkpt>
      <trkpt lat="46.15555" lon="5.35695">
        <ele>412.8</ele>
        <time>2022-07-23T13:09:32Z</time>
      </trkpt>
      <trkpt lat="46.1555" lon="5.35718">
        <ele>413</ele>
        <time>2022-07-23T13:09:35Z</time>
      </trkpt>
      <trkpt lat="46.15544" lon="5.35743">
        <ele>413.8</ele>
        <time>2022-07-23T13:09:38Z</time>
      </trkpt>
      <trkpt lat="46.1554" lon="5.3576">
        <ele>414</ele>
        <time>2022-07-23T13:09:40Z</time>
      </trkpt>
      <trkpt lat="46.15524" lon="5.35819">
        <ele>413.8</ele>
        <time>2022-07-23T13:09:46Z</time>
      </trkpt>
      <trkpt lat="46.15514" lon="5.3586">
        <ele>413.4</ele>
        <time>2022-07-23T13:09:50Z</time>
      </trkpt>
      <trkpt lat="46.15511" lon="5.35867">
        <ele>413.4</ele>
        <time>2022-07-23T13:09:51Z</time>
      </trkpt>
      <trkpt lat="46.15505" lon="5.35877">
        <ele>413.2</ele>
        <time>2022-07-23T13:09:52Z</time>
      </trkpt>
      <trkpt lat="46.1549" lon="5.35888">
        <ele>412.8</ele>
        <time>2022-07-23T13:09:54Z</time>
      </trkpt>
      <trkpt lat="46.15464" lon="5.35901">
        <ele>411.6</ele>
        <time>2022-07-23T13:09:57Z</time>
      </trkpt>
      <trkpt lat="46.15445" lon="5.35912">
        <ele>410.8</ele>
        <time>2022-07-23T13:09:59Z</time>
      </trkpt>
      <trkpt lat="46.15435" lon="5.35917">
        <ele>410.6</ele>
        <time>2022-07-23T13:10:00Z</time>
      </trkpt>
      <trkpt lat="46.15415" lon="5.35927">
        <ele>409.4</ele>
        <time>2022-07-23T13:10:02Z</time>
      </trkpt>
      <trkpt lat="46.15394" lon="5.35937">
        <ele>408.4</ele>
        <time>2022-07-23T13:10:04Z</time>
      </trkpt>
      <trkpt lat="46.15383" lon="5.3594">
        <ele>408</ele>
        <time>2022-07-23T13:10:05Z</time>
      </trkpt>
      <trkpt lat="46.15372" lon="5.35942">
        <ele>407.2</ele>
        <time>2022-07-23T13:10:06Z</time>
      </trkpt>
      <trkpt lat="46.15348" lon="5.35944">
        <ele>405.6</ele>
        <time>2022-07-23T13:10:08Z</time>
      </trkpt>
      <trkpt lat="46.15336" lon="5.35943">
        <ele>404.6</ele>
        <time>2022-07-23T13:10:09Z</time>
      </trkpt>
      <trkpt lat="46.15312" lon="5.35938">
        <ele>402.8</ele>
        <time>2022-07-23T13:10:11Z</time>
      </trkpt>
      <trkpt lat="46.15288" lon="5.35932">
        <ele>401.6</ele>
        <time>2022-07-23T13:10:13Z</time>
      </trkpt>
      <trkpt lat="46.15263" lon="5.35927">
        <ele>400.2</ele>
        <time>2022-07-23T13:10:15Z</time>
      </trkpt>
      <trkpt lat="46.15251" lon="5.35924">
        <ele>398.4</ele>
        <time>2022-07-23T13:10:16Z</time>
      </trkpt>
      <trkpt lat="46.15227" lon="5.35918">
        <ele>396.4</ele>
        <time>2022-07-23T13:10:18Z</time>
      </trkpt>
      <trkpt lat="46.1519" lon="5.35909">
        <ele>394.8</ele>
        <time>2022-07-23T13:10:21Z</time>
      </trkpt>
      <trkpt lat="46.15178" lon="5.35906">
        <ele>393.6</ele>
        <time>2022-07-23T13:10:22Z</time>
      </trkpt>
      <trkpt lat="46.15165" lon="5.35903">
        <ele>392.6</ele>
        <time>2022-07-23T13:10:23Z</time>
      </trkpt>
      <trkpt lat="46.15141" lon="5.35897">
        <ele>391.8</ele>
        <time>2022-07-23T13:10:25Z</time>
      </trkpt>
      <trkpt lat="46.15129" lon="5.35894">
        <ele>391.6</ele>
        <time>2022-07-23T13:10:26Z</time>
      </trkpt>
      <trkpt lat="46.15103" lon="5.35888">
        <ele>390.2</ele>
        <time>2022-07-23T13:10:28Z</time>
      </trkpt>
      <trkpt lat="46.15078" lon="5.35883">
        <ele>388.4</ele>
        <time>2022-07-23T13:10:30Z</time>
      </trkpt>
      <trkpt lat="46.15053" lon="5.35881">
        <ele>387</ele>
        <time>2022-07-23T13:10:32Z</time>
      </trkpt>
      <trkpt lat="46.15028" lon="5.35881">
        <ele>385.6</ele>
        <time>2022-07-23T13:10:34Z</time>
      </trkpt>
      <trkpt lat="46.15004" lon="5.35882">
        <ele>384.6</ele>
        <time>2022-07-23T13:10:36Z</time>
      </trkpt>
      <trkpt lat="46.14981" lon="5.35883">
        <ele>383.4</ele>
        <time>2022-07-23T13:10:38Z</time>
      </trkpt>
      <trkpt lat="46.14958" lon="5.35885">
        <ele>382.2</ele>
        <time>2022-07-23T13:10:40Z</time>
      </trkpt>
      <trkpt lat="46.14914" lon="5.35889">
        <ele>381.4</ele>
        <time>2022-07-23T13:10:44Z</time>
      </trkpt>
      <trkpt lat="46.14893" lon="5.35891">
        <ele>381.2</ele>
        <time>2022-07-23T13:10:46Z</time>
      </trkpt>
      <trkpt lat="46.14883" lon="5.35892">
        <ele>381</ele>
        <time>2022-07-23T13:10:47Z</time>
      </trkpt>
      <trkpt lat="46.1483" lon="5.35897">
        <ele>380.2</ele>
        <time>2022-07-23T13:10:52Z</time>
      </trkpt>
      <trkpt lat="46.14821" lon="5.35898">
        <ele>380</ele>
        <time>2022-07-23T13:10:53Z</time>
      </trkpt>
      <trkpt lat="46.14787" lon="5.359">
        <ele>379</ele>
        <time>2022-07-23T13:10:56Z</time>
      </trkpt>
      <trkpt lat="46.14753" lon="5.35897">
        <ele>378</ele>
        <time>2022-07-23T13:10:59Z</time>
      </trkpt>
      <trkpt lat="46.14742" lon="5.35893">
        <ele>377.4</ele>
        <time>2022-07-23T13:11:00Z</time>
      </trkpt>
      <trkpt lat="46.1472" lon="5.35885">
        <ele>376</ele>
        <time>2022-07-23T13:11:02Z</time>
      </trkpt>
      <trkpt lat="46.1471" lon="5.3588">
        <ele>374.8</ele>
        <time>2022-07-23T13:11:03Z</time>
      </trkpt>
      <trkpt lat="46.14699" lon="5.35876">
        <ele>374.2</ele>
        <time>2022-07-23T13:11:04Z</time>
      </trkpt>
      <trkpt lat="46.14688" lon="5.35871">
        <ele>373.6</ele>
        <time>2022-07-23T13:11:05Z</time>
      </trkpt>
      <trkpt lat="46.14644" lon="5.35851">
        <ele>372.4</ele>
        <time>2022-07-23T13:11:09Z</time>
      </trkpt>
      <trkpt lat="46.14632" lon="5.35846">
        <ele>372.2</ele>
        <time>2022-07-23T13:11:10Z</time>
      </trkpt>
      <trkpt lat="46.1462" lon="5.3584">
        <ele>371.2</ele>
        <time>2022-07-23T13:11:11Z</time>
      </trkpt>
      <trkpt lat="46.14608" lon="5.35832">
        <ele>370</ele>
        <time>2022-07-23T13:11:12Z</time>
      </trkpt>
      <trkpt lat="46.14585" lon="5.35815">
        <ele>368.8</ele>
        <time>2022-07-23T13:11:14Z</time>
      </trkpt>
      <trkpt lat="46.14561" lon="5.35797">
        <ele>367.2</ele>
        <time>2022-07-23T13:11:16Z</time>
      </trkpt>
      <trkpt lat="46.14549" lon="5.35789">
        <ele>365.8</ele>
        <time>2022-07-23T13:11:17Z</time>
      </trkpt>
      <trkpt lat="46.14524" lon="5.35774">
        <ele>364.4</ele>
        <time>2022-07-23T13:11:19Z</time>
      </trkpt>
      <trkpt lat="46.14511" lon="5.35768">
        <ele>363.8</ele>
        <time>2022-07-23T13:11:20Z</time>
      </trkpt>
      <trkpt lat="46.14497" lon="5.35763">
        <ele>362.6</ele>
        <time>2022-07-23T13:11:21Z</time>
      </trkpt>
      <trkpt lat="46.1447" lon="5.35758">
        <ele>360.6</ele>
        <time>2022-07-23T13:11:23Z</time>
      </trkpt>
      <trkpt lat="46.14455" lon="5.35757">
        <ele>359</ele>
        <time>2022-07-23T13:11:24Z</time>
      </trkpt>
      <trkpt lat="46.14441" lon="5.35757">
        <ele>358.2</ele>
        <time>2022-07-23T13:11:25Z</time>
      </trkpt>
      <trkpt lat="46.14427" lon="5.3576">
        <ele>357.4</ele>
        <time>2022-07-23T13:11:26Z</time>
      </trkpt>
      <trkpt lat="46.14413" lon="5.35765">
        <ele>357</ele>
        <time>2022-07-23T13:11:27Z</time>
      </trkpt>
      <trkpt lat="46.14385" lon="5.35776">
        <ele>356</ele>
        <time>2022-07-23T13:11:29Z</time>
      </trkpt>
      <trkpt lat="46.14357" lon="5.35786">
        <ele>354</ele>
        <time>2022-07-23T13:11:31Z</time>
      </trkpt>
      <trkpt lat="46.14344" lon="5.35791">
        <ele>352.4</ele>
        <time>2022-07-23T13:11:32Z</time>
      </trkpt>
      <trkpt lat="46.14332" lon="5.35795">
        <ele>350.8</ele>
        <time>2022-07-23T13:11:33Z</time>
      </trkpt>
      <trkpt lat="46.1431" lon="5.35803">
        <ele>348.6</ele>
        <time>2022-07-23T13:11:35Z</time>
      </trkpt>
      <trkpt lat="46.143" lon="5.35805">
        <ele>348</ele>
        <time>2022-07-23T13:11:36Z</time>
      </trkpt>
      <trkpt lat="46.1429" lon="5.35804">
        <ele>346.4</ele>
        <time>2022-07-23T13:11:37Z</time>
      </trkpt>
      <trkpt lat="46.14273" lon="5.35801">
        <ele>345</ele>
        <time>2022-07-23T13:11:39Z</time>
      </trkpt>
      <trkpt lat="46.14267" lon="5.35802">
        <ele>344.4</ele>
        <time>2022-07-23T13:11:40Z</time>
      </trkpt>
      <trkpt lat="46.14261" lon="5.35805">
        <ele>344</ele>
        <time>2022-07-23T13:11:41Z</time>
      </trkpt>
      <trkpt lat="46.14258" lon="5.35813">
        <ele>343.4</ele>
        <time>2022-07-23T13:11:42Z</time>
      </trkpt>
      <trkpt lat="46.14258" lon="5.35824">
        <ele>343</ele>
        <time>2022-07-23T13:11:43Z</time>
      </trkpt>
      <trkpt lat="46.14258" lon="5.35836">
        <ele>342.6</ele>
        <time>2022-07-23T13:11:44Z</time>
      </trkpt>
      <trkpt lat="46.14259" lon="5.35849">
        <ele>342.2</ele>
        <time>2022-07-23T13:11:45Z</time>
      </trkpt>
      <trkpt lat="46.14259" lon="5.35863">
        <ele>342</ele>
        <time>2022-07-23T13:11:46Z</time>
      </trkpt>
      <trkpt lat="46.14252" lon="5.35906">
        <ele>340.6</ele>
        <time>2022-07-23T13:11:49Z</time>
      </trkpt>
      <trkpt lat="46.1425" lon="5.35921">
        <ele>340</ele>
        <time>2022-07-23T13:11:50Z</time>
      </trkpt>
      <trkpt lat="46.14247" lon="5.35936">
        <ele>338.6</ele>
        <time>2022-07-23T13:11:51Z</time>
      </trkpt>
      <trkpt lat="46.14245" lon="5.35952">
        <ele>337</ele>
        <time>2022-07-23T13:11:52Z</time>
      </trkpt>
      <trkpt lat="46.14242" lon="5.35983">
        <ele>335.4</ele>
        <time>2022-07-23T13:11:54Z</time>
      </trkpt>
      <trkpt lat="46.14241" lon="5.35999">
        <ele>335</ele>
        <time>2022-07-23T13:11:55Z</time>
      </trkpt>
      <trkpt lat="46.1424" lon="5.36031">
        <ele>334.2</ele>
        <time>2022-07-23T13:11:57Z</time>
      </trkpt>
      <trkpt lat="46.14242" lon="5.36062">
        <ele>333.4</ele>
        <time>2022-07-23T13:11:59Z</time>
      </trkpt>
      <trkpt lat="46.14242" lon="5.36093">
        <ele>332.8</ele>
        <time>2022-07-23T13:12:01Z</time>
      </trkpt>
      <trkpt lat="46.14241" lon="5.36109">
        <ele>332.6</ele>
        <time>2022-07-23T13:12:02Z</time>
      </trkpt>
      <trkpt lat="46.14238" lon="5.36125">
        <ele>332.4</ele>
        <time>2022-07-23T13:12:03Z</time>
      </trkpt>
      <trkpt lat="46.14227" lon="5.36172">
        <ele>331.8</ele>
        <time>2022-07-23T13:12:06Z</time>
      </trkpt>
      <trkpt lat="46.1422" lon="5.36204">
        <ele>330.2</ele>
        <time>2022-07-23T13:12:08Z</time>
      </trkpt>
      <trkpt lat="46.14215" lon="5.36236">
        <ele>328.6</ele>
        <time>2022-07-23T13:12:10Z</time>
      </trkpt>
      <trkpt lat="46.14208" lon="5.36285">
        <ele>327.6</ele>
        <time>2022-07-23T13:12:13Z</time>
      </trkpt>
      <trkpt lat="46.14205" lon="5.36319">
        <ele>327.2</ele>
        <time>2022-07-23T13:12:15Z</time>
      </trkpt>
      <trkpt lat="46.14201" lon="5.3637">
        <ele>326.4</ele>
        <time>2022-07-23T13:12:18Z</time>
      </trkpt>
      <trkpt lat="46.14201" lon="5.36422">
        <ele>325.2</ele>
        <time>2022-07-23T13:12:21Z</time>
      </trkpt>
      <trkpt lat="46.14204" lon="5.36457">
        <ele>324</ele>
        <time>2022-07-23T13:12:23Z</time>
      </trkpt>
      <trkpt lat="46.14208" lon="5.36492">
        <ele>322.8</ele>
        <time>2022-07-23T13:12:25Z</time>
      </trkpt>
      <trkpt lat="46.1421" lon="5.36509">
        <ele>322.6</ele>
        <time>2022-07-23T13:12:26Z</time>
      </trkpt>
      <trkpt lat="46.14215" lon="5.36596">
        <ele>321.4</ele>
        <time>2022-07-23T13:12:31Z</time>
      </trkpt>
      <trkpt lat="46.14206" lon="5.36662">
        <ele>320.2</ele>
        <time>2022-07-23T13:12:35Z</time>
      </trkpt>
      <trkpt lat="46.14203" lon="5.36678">
        <ele>319.6</ele>
        <time>2022-07-23T13:12:36Z</time>
      </trkpt>
      <trkpt lat="46.14197" lon="5.36709">
        <ele>319</ele>
        <time>2022-07-23T13:12:38Z</time>
      </trkpt>
      <trkpt lat="46.14184" lon="5.3677">
        <ele>318</ele>
        <time>2022-07-23T13:12:42Z</time>
      </trkpt>
      <trkpt lat="46.14174" lon="5.36815">
        <ele>317.4</ele>
        <time>2022-07-23T13:12:45Z</time>
      </trkpt>
      <trkpt lat="46.14162" lon="5.36892">
        <ele>316.6</ele>
        <time>2022-07-23T13:12:50Z</time>
      </trkpt>
      <trkpt lat="46.14163" lon="5.36922">
        <ele>315.6</ele>
        <time>2022-07-23T13:12:52Z</time>
      </trkpt>
      <trkpt lat="46.14165" lon="5.36937">
        <ele>315.4</ele>
        <time>2022-07-23T13:12:53Z</time>
      </trkpt>
      <trkpt lat="46.14175" lon="5.36979">
        <ele>314.6</ele>
        <time>2022-07-23T13:12:56Z</time>
      </trkpt>
      <trkpt lat="46.14178" lon="5.36994">
        <ele>314.2</ele>
        <time>2022-07-23T13:12:57Z</time>
      </trkpt>
      <trkpt lat="46.1418" lon="5.37054">
        <ele>313.6</ele>
        <time>2022-07-23T13:13:01Z</time>
      </trkpt>
      <trkpt lat="46.1418" lon="5.37069">
        <ele>313.4</ele>
        <time>2022-07-23T13:13:02Z</time>
      </trkpt>
      <trkpt lat="46.14181" lon="5.37127">
        <ele>313</ele>
        <time>2022-07-23T13:13:06Z</time>
      </trkpt>
      <trkpt lat="46.14186" lon="5.37169">
        <ele>312.4</ele>
        <time>2022-07-23T13:13:09Z</time>
      </trkpt>
      <trkpt lat="46.14188" lon="5.3721">
        <ele>312.2</ele>
        <time>2022-07-23T13:13:12Z</time>
      </trkpt>
      <trkpt lat="46.14185" lon="5.37236">
        <ele>312.2</ele>
        <time>2022-07-23T13:13:14Z</time>
      </trkpt>
      <trkpt lat="46.14182" lon="5.37248">
        <ele>312</ele>
        <time>2022-07-23T13:13:15Z</time>
      </trkpt>
      <trkpt lat="46.14167" lon="5.37289">
        <ele>312.2</ele>
        <time>2022-07-23T13:13:19Z</time>
      </trkpt>
      <trkpt lat="46.1416" lon="5.37334">
        <ele>313.6</ele>
        <time>2022-07-23T13:13:23Z</time>
      </trkpt>
      <trkpt lat="46.14159" lon="5.37345">
        <ele>313.6</ele>
        <time>2022-07-23T13:13:24Z</time>
      </trkpt>
      <trkpt lat="46.1416" lon="5.3741">
        <ele>314.2</ele>
        <time>2022-07-23T13:13:30Z</time>
      </trkpt>
      <trkpt lat="46.14165" lon="5.3744">
        <ele>314.6</ele>
        <time>2022-07-23T13:13:33Z</time>
      </trkpt>
      <trkpt lat="46.14167" lon="5.37449">
        <ele>314.8</ele>
        <time>2022-07-23T13:13:34Z</time>
      </trkpt>
      <trkpt lat="46.14171" lon="5.37459">
        <ele>315</ele>
        <time>2022-07-23T13:13:35Z</time>
      </trkpt>
      <trkpt lat="46.14178" lon="5.37479">
        <ele>315.8</ele>
        <time>2022-07-23T13:13:37Z</time>
      </trkpt>
      <trkpt lat="46.14182" lon="5.3749">
        <ele>315.8</ele>
        <time>2022-07-23T13:13:38Z</time>
      </trkpt>
      <trkpt lat="46.14184" lon="5.37502">
        <ele>316</ele>
        <time>2022-07-23T13:13:39Z</time>
      </trkpt>
      <trkpt lat="46.14184" lon="5.37515">
        <ele>316</ele>
        <time>2022-07-23T13:13:40Z</time>
      </trkpt>
      <trkpt lat="46.14183" lon="5.37557">
        <ele>315</ele>
        <time>2022-07-23T13:13:43Z</time>
      </trkpt>
      <trkpt lat="46.14182" lon="5.37571">
        <ele>314.2</ele>
        <time>2022-07-23T13:13:44Z</time>
      </trkpt>
      <trkpt lat="46.14183" lon="5.37602">
        <ele>312.6</ele>
        <time>2022-07-23T13:13:46Z</time>
      </trkpt>
      <trkpt lat="46.1418" lon="5.37633">
        <ele>311.8</ele>
        <time>2022-07-23T13:13:48Z</time>
      </trkpt>
      <trkpt lat="46.14177" lon="5.37648">
        <ele>311.6</ele>
        <time>2022-07-23T13:13:49Z</time>
      </trkpt>
      <trkpt lat="46.14172" lon="5.37661">
        <ele>311</ele>
        <time>2022-07-23T13:13:50Z</time>
      </trkpt>
      <trkpt lat="46.14166" lon="5.37674">
        <ele>309.8</ele>
        <time>2022-07-23T13:13:51Z</time>
      </trkpt>
      <trkpt lat="46.14146" lon="5.37706">
        <ele>308.6</ele>
        <time>2022-07-23T13:13:54Z</time>
      </trkpt>
      <trkpt lat="46.14133" lon="5.37729">
        <ele>308.2</ele>
        <time>2022-07-23T13:13:56Z</time>
      </trkpt>
      <trkpt lat="46.14108" lon="5.37785">
        <ele>307.6</ele>
        <time>2022-07-23T13:14:01Z</time>
      </trkpt>
      <trkpt lat="46.14102" lon="5.37797">
        <ele>307.6</ele>
        <time>2022-07-23T13:14:02Z</time>
      </trkpt>
      <trkpt lat="46.14091" lon="5.37821">
        <ele>307</ele>
        <time>2022-07-23T13:14:04Z</time>
      </trkpt>
      <trkpt lat="46.14077" lon="5.37844">
        <ele>306.8</ele>
        <time>2022-07-23T13:14:06Z</time>
      </trkpt>
      <trkpt lat="46.14055" lon="5.37879">
        <ele>305.8</ele>
        <time>2022-07-23T13:14:09Z</time>
      </trkpt>
      <trkpt lat="46.14033" lon="5.37911">
        <ele>304.8</ele>
        <time>2022-07-23T13:14:12Z</time>
      </trkpt>
      <trkpt lat="46.14018" lon="5.37932">
        <ele>303.8</ele>
        <time>2022-07-23T13:14:14Z</time>
      </trkpt>
      <trkpt lat="46.13995" lon="5.37971">
        <ele>303.2</ele>
        <time>2022-07-23T13:14:18Z</time>
      </trkpt>
      <trkpt lat="46.13989" lon="5.37994">
        <ele>303.4</ele>
        <time>2022-07-23T13:14:20Z</time>
      </trkpt>
      <trkpt lat="46.13984" lon="5.38018">
        <ele>303.6</ele>
        <time>2022-07-23T13:14:22Z</time>
      </trkpt>
      <trkpt lat="46.13981" lon="5.38031">
        <ele>303.6</ele>
        <time>2022-07-23T13:14:23Z</time>
      </trkpt>
      <trkpt lat="46.1397" lon="5.38053">
        <ele>303.6</ele>
        <time>2022-07-23T13:14:25Z</time>
      </trkpt>
      <trkpt lat="46.13932" lon="5.38121">
        <ele>302.6</ele>
        <time>2022-07-23T13:14:31Z</time>
      </trkpt>
      <trkpt lat="46.13907" lon="5.38163">
        <ele>301.4</ele>
        <time>2022-07-23T13:14:35Z</time>
      </trkpt>
      <trkpt lat="46.13901" lon="5.38174">
        <ele>301.2</ele>
        <time>2022-07-23T13:14:36Z</time>
      </trkpt>
      <trkpt lat="46.13892" lon="5.38199">
        <ele>300.8</ele>
        <time>2022-07-23T13:14:38Z</time>
      </trkpt>
      <trkpt lat="46.13878" lon="5.38258">
        <ele>300.2</ele>
        <time>2022-07-23T13:14:42Z</time>
      </trkpt>
      <trkpt lat="46.13875" lon="5.38274">
        <ele>300</ele>
        <time>2022-07-23T13:14:43Z</time>
      </trkpt>
      <trkpt lat="46.13869" lon="5.38308">
        <ele>298.8</ele>
        <time>2022-07-23T13:14:45Z</time>
      </trkpt>
      <trkpt lat="46.13866" lon="5.38325">
        <ele>297.6</ele>
        <time>2022-07-23T13:14:46Z</time>
      </trkpt>
      <trkpt lat="46.13859" lon="5.38359">
        <ele>295.4</ele>
        <time>2022-07-23T13:14:48Z</time>
      </trkpt>
      <trkpt lat="46.13855" lon="5.38375">
        <ele>293.6</ele>
        <time>2022-07-23T13:14:49Z</time>
      </trkpt>
      <trkpt lat="46.13849" lon="5.38408">
        <ele>291.6</ele>
        <time>2022-07-23T13:14:51Z</time>
      </trkpt>
      <trkpt lat="46.13844" lon="5.38444">
        <ele>289.8</ele>
        <time>2022-07-23T13:14:53Z</time>
      </trkpt>
      <trkpt lat="46.13841" lon="5.38483">
        <ele>288.2</ele>
        <time>2022-07-23T13:14:55Z</time>
      </trkpt>
      <trkpt lat="46.13835" lon="5.38521">
        <ele>287.2</ele>
        <time>2022-07-23T13:14:57Z</time>
      </trkpt>
      <trkpt lat="46.13833" lon="5.38539">
        <ele>285.6</ele>
        <time>2022-07-23T13:14:58Z</time>
      </trkpt>
      <trkpt lat="46.13829" lon="5.38572">
        <ele>282.6</ele>
        <time>2022-07-23T13:15:00Z</time>
      </trkpt>
      <trkpt lat="46.13827" lon="5.38587">
        <ele>281.4</ele>
        <time>2022-07-23T13:15:01Z</time>
      </trkpt>
      <trkpt lat="46.13825" lon="5.38602">
        <ele>280.2</ele>
        <time>2022-07-23T13:15:02Z</time>
      </trkpt>
      <trkpt lat="46.13825" lon="5.38615">
        <ele>278.8</ele>
        <time>2022-07-23T13:15:03Z</time>
      </trkpt>
      <trkpt lat="46.13826" lon="5.38628">
        <ele>278.4</ele>
        <time>2022-07-23T13:15:04Z</time>
      </trkpt>
      <trkpt lat="46.13829" lon="5.38641">
        <ele>277.4</ele>
        <time>2022-07-23T13:15:05Z</time>
      </trkpt>
      <trkpt lat="46.13834" lon="5.38664">
        <ele>276.4</ele>
        <time>2022-07-23T13:15:07Z</time>
      </trkpt>
      <trkpt lat="46.13836" lon="5.38674">
        <ele>276.4</ele>
        <time>2022-07-23T13:15:08Z</time>
      </trkpt>
      <trkpt lat="46.13838" lon="5.38685">
        <ele>276.2</ele>
        <time>2022-07-23T13:15:09Z</time>
      </trkpt>
      <trkpt lat="46.13849" lon="5.38699">
        <ele>276.2</ele>
        <time>2022-07-23T13:15:11Z</time>
      </trkpt>
      <trkpt lat="46.13863" lon="5.38701">
        <ele>276</ele>
        <time>2022-07-23T13:15:13Z</time>
      </trkpt>
      <trkpt lat="46.1387" lon="5.387">
        <ele>276</ele>
        <time>2022-07-23T13:15:14Z</time>
      </trkpt>
      <trkpt lat="46.13901" lon="5.38692">
        <ele>277.4</ele>
        <time>2022-07-23T13:15:19Z</time>
      </trkpt>
      <trkpt lat="46.13923" lon="5.38685">
        <ele>278.8</ele>
        <time>2022-07-23T13:15:23Z</time>
      </trkpt>
      <trkpt lat="46.13927" lon="5.38685">
        <ele>279.4</ele>
        <time>2022-07-23T13:15:24Z</time>
      </trkpt>
      <trkpt lat="46.13935" lon="5.38692">
        <ele>280.2</ele>
        <time>2022-07-23T13:15:26Z</time>
      </trkpt>
      <trkpt lat="46.13937" lon="5.38703">
        <ele>281</ele>
        <time>2022-07-23T13:15:28Z</time>
      </trkpt>
      <trkpt lat="46.13937" lon="5.38707">
        <ele>281.2</ele>
        <time>2022-07-23T13:15:29Z</time>
      </trkpt>
      <trkpt lat="46.13932" lon="5.38713">
        <ele>282.4</ele>
        <time>2022-07-23T13:15:31Z</time>
      </trkpt>
      <trkpt lat="46.1393" lon="5.38717">
        <ele>282.8</ele>
        <time>2022-07-23T13:15:32Z</time>
      </trkpt>
      <trkpt lat="46.13925" lon="5.38723">
        <ele>283.6</ele>
        <time>2022-07-23T13:15:34Z</time>
      </trkpt>
      <trkpt lat="46.13917" lon="5.38734">
        <ele>284.6</ele>
        <time>2022-07-23T13:15:37Z</time>
      </trkpt>
      <trkpt lat="46.13914" lon="5.38737">
        <ele>285.4</ele>
        <time>2022-07-23T13:15:38Z</time>
      </trkpt>
      <trkpt lat="46.13907" lon="5.38743">
        <ele>286.2</ele>
        <time>2022-07-23T13:15:40Z</time>
      </trkpt>
      <trkpt lat="46.13893" lon="5.38747">
        <ele>286.8</ele>
        <time>2022-07-23T13:15:43Z</time>
      </trkpt>
      <trkpt lat="46.13885" lon="5.3875">
        <ele>287.2</ele>
        <time>2022-07-23T13:15:45Z</time>
      </trkpt>
      <trkpt lat="46.13868" lon="5.38757">
        <ele>288</ele>
        <time>2022-07-23T13:15:49Z</time>
      </trkpt>
      <trkpt lat="46.13861" lon="5.38761">
        <ele>288.2</ele>
        <time>2022-07-23T13:15:51Z</time>
      </trkpt>
      <trkpt lat="46.13854" lon="5.38769">
        <ele>288.2</ele>
        <time>2022-07-23T13:15:53Z</time>
      </trkpt>
      <trkpt lat="46.13852" lon="5.38774">
        <ele>288.4</ele>
        <time>2022-07-23T13:15:54Z</time>
      </trkpt>
      <trkpt lat="46.1385" lon="5.38779">
        <ele>288.4</ele>
        <time>2022-07-23T13:15:55Z</time>
      </trkpt>
      <trkpt lat="46.13845" lon="5.38803">
        <ele>289</ele>
        <time>2022-07-23T13:15:59Z</time>
      </trkpt>
      <trkpt lat="46.13832" lon="5.38866">
        <ele>289.4</ele>
        <time>2022-07-23T13:16:10Z</time>
      </trkpt>
      <trkpt lat="46.13819" lon="5.38902">
        <ele>290.4</ele>
        <time>2022-07-23T13:16:17Z</time>
      </trkpt>
      <trkpt lat="46.13805" lon="5.38952">
        <ele>291.6</ele>
        <time>2022-07-23T13:16:26Z</time>
      </trkpt>
      <trkpt lat="46.13794" lon="5.38997">
        <ele>292.4</ele>
        <time>2022-07-23T13:16:34Z</time>
      </trkpt>
      <trkpt lat="46.13793" lon="5.39002">
        <ele>292.8</ele>
        <time>2022-07-23T13:16:35Z</time>
      </trkpt>
      <trkpt lat="46.13787" lon="5.3901">
        <ele>293</ele>
        <time>2022-07-23T13:16:37Z</time>
      </trkpt>
      <trkpt lat="46.13783" lon="5.39012">
        <ele>293.4</ele>
        <time>2022-07-23T13:16:38Z</time>
      </trkpt>
      <trkpt lat="46.13771" lon="5.39015">
        <ele>293.6</ele>
        <time>2022-07-23T13:16:41Z</time>
      </trkpt>
      <trkpt lat="46.13767" lon="5.39017">
        <ele>294.2</ele>
        <time>2022-07-23T13:16:42Z</time>
      </trkpt>
      <trkpt lat="46.1376" lon="5.39019">
        <ele>294.6</ele>
        <time>2022-07-23T13:16:44Z</time>
      </trkpt>
      <trkpt lat="46.13752" lon="5.39022">
        <ele>295.4</ele>
        <time>2022-07-23T13:16:46Z</time>
      </trkpt>
      <trkpt lat="46.13737" lon="5.3903">
        <ele>296.4</ele>
        <time>2022-07-23T13:16:50Z</time>
      </trkpt>
      <trkpt lat="46.13729" lon="5.39036">
        <ele>296.8</ele>
        <time>2022-07-23T13:16:52Z</time>
      </trkpt>
      <trkpt lat="46.13715" lon="5.39048">
        <ele>297.6</ele>
        <time>2022-07-23T13:16:56Z</time>
      </trkpt>
      <trkpt lat="46.13704" lon="5.39059">
        <ele>298</ele>
        <time>2022-07-23T13:16:59Z</time>
      </trkpt>
      <trkpt lat="46.13697" lon="5.39067">
        <ele>298.6</ele>
        <time>2022-07-23T13:17:01Z</time>
      </trkpt>
      <trkpt lat="46.13685" lon="5.3908">
        <ele>299</ele>
        <time>2022-07-23T13:17:04Z</time>
      </trkpt>
      <trkpt lat="46.13677" lon="5.39093">
        <ele>299</ele>
        <time>2022-07-23T13:17:06Z</time>
      </trkpt>
      <trkpt lat="46.13672" lon="5.39107">
        <ele>299.2</ele>
        <time>2022-07-23T13:17:08Z</time>
      </trkpt>
      <trkpt lat="46.13664" lon="5.39136">
        <ele>299</ele>
        <time>2022-07-23T13:17:12Z</time>
      </trkpt>
      <trkpt lat="46.13663" lon="5.39143">
        <ele>299</ele>
        <time>2022-07-23T13:17:13Z</time>
      </trkpt>
      <trkpt lat="46.13662" lon="5.3915">
        <ele>299</ele>
        <time>2022-07-23T13:17:14Z</time>
      </trkpt>
      <trkpt lat="46.13662" lon="5.39165">
        <ele>299</ele>
        <time>2022-07-23T13:17:16Z</time>
      </trkpt>
      <trkpt lat="46.13663" lon="5.3918">
        <ele>299.6</ele>
        <time>2022-07-23T13:17:18Z</time>
      </trkpt>
      <trkpt lat="46.13664" lon="5.39194">
        <ele>300</ele>
        <time>2022-07-23T13:17:20Z</time>
      </trkpt>
      <trkpt lat="46.13665" lon="5.39216">
        <ele>300.6</ele>
        <time>2022-07-23T13:17:23Z</time>
      </trkpt>
      <trkpt lat="46.13663" lon="5.39236">
        <ele>301</ele>
        <time>2022-07-23T13:17:26Z</time>
      </trkpt>
      <trkpt lat="46.13662" lon="5.39242">
        <ele>301.4</ele>
        <time>2022-07-23T13:17:27Z</time>
      </trkpt>
      <trkpt lat="46.13658" lon="5.39255">
        <ele>302</ele>
        <time>2022-07-23T13:17:29Z</time>
      </trkpt>
      <trkpt lat="46.13653" lon="5.39268">
        <ele>302.4</ele>
        <time>2022-07-23T13:17:31Z</time>
      </trkpt>
      <trkpt lat="46.13644" lon="5.39284">
        <ele>303.2</ele>
        <time>2022-07-23T13:17:34Z</time>
      </trkpt>
      <trkpt lat="46.13617" lon="5.39313">
        <ele>304.2</ele>
        <time>2022-07-23T13:17:41Z</time>
      </trkpt>
      <trkpt lat="46.13596" lon="5.39329">
        <ele>304.8</ele>
        <time>2022-07-23T13:17:46Z</time>
      </trkpt>
      <trkpt lat="46.13588" lon="5.39335">
        <ele>305.2</ele>
        <time>2022-07-23T13:17:48Z</time>
      </trkpt>
      <trkpt lat="46.13576" lon="5.39344">
        <ele>305.8</ele>
        <time>2022-07-23T13:17:51Z</time>
      </trkpt>
      <trkpt lat="46.13559" lon="5.39356">
        <ele>306.2</ele>
        <time>2022-07-23T13:17:55Z</time>
      </trkpt>
      <trkpt lat="46.13534" lon="5.39369">
        <ele>306.8</ele>
        <time>2022-07-23T13:18:01Z</time>
      </trkpt>
      <trkpt lat="46.13524" lon="5.39372">
        <ele>307.2</ele>
        <time>2022-07-23T13:18:03Z</time>
      </trkpt>
      <trkpt lat="46.1352" lon="5.39372">
        <ele>307.2</ele>
        <time>2022-07-23T13:18:04Z</time>
      </trkpt>
      <trkpt lat="46.135" lon="5.39374">
        <ele>308</ele>
        <time>2022-07-23T13:18:08Z</time>
      </trkpt>
      <trkpt lat="46.13495" lon="5.39374">
        <ele>308.4</ele>
        <time>2022-07-23T13:18:09Z</time>
      </trkpt>
      <trkpt lat="46.13471" lon="5.39375">
        <ele>309.4</ele>
        <time>2022-07-23T13:18:14Z</time>
      </trkpt>
      <trkpt lat="46.13456" lon="5.39376">
        <ele>309.6</ele>
        <time>2022-07-23T13:18:17Z</time>
      </trkpt>
      <trkpt lat="46.13431" lon="5.3938">
        <ele>310.6</ele>
        <time>2022-07-23T13:18:22Z</time>
      </trkpt>
      <trkpt lat="46.13417" lon="5.39386">
        <ele>311.2</ele>
        <time>2022-07-23T13:18:25Z</time>
      </trkpt>
      <trkpt lat="46.13399" lon="5.39397">
        <ele>311.6</ele>
        <time>2022-07-23T13:18:29Z</time>
      </trkpt>
      <trkpt lat="46.13384" lon="5.39411">
        <ele>312</ele>
        <time>2022-07-23T13:18:33Z</time>
      </trkpt>
      <trkpt lat="46.13381" lon="5.39415">
        <ele>312.2</ele>
        <time>2022-07-23T13:18:34Z</time>
      </trkpt>
      <trkpt lat="46.13373" lon="5.39427">
        <ele>313</ele>
        <time>2022-07-23T13:18:37Z</time>
      </trkpt>
      <trkpt lat="46.13368" lon="5.39436">
        <ele>313.6</ele>
        <time>2022-07-23T13:18:39Z</time>
      </trkpt>
      <trkpt lat="46.13364" lon="5.39445">
        <ele>314</ele>
        <time>2022-07-23T13:18:41Z</time>
      </trkpt>
      <trkpt lat="46.13356" lon="5.39462">
        <ele>315.4</ele>
        <time>2022-07-23T13:18:45Z</time>
      </trkpt>
      <trkpt lat="46.13352" lon="5.39471">
        <ele>316.4</ele>
        <time>2022-07-23T13:18:47Z</time>
      </trkpt>
      <trkpt lat="46.1335" lon="5.39476">
        <ele>316.6</ele>
        <time>2022-07-23T13:18:48Z</time>
      </trkpt>
      <trkpt lat="46.13342" lon="5.39495">
        <ele>317.8</ele>
        <time>2022-07-23T13:18:52Z</time>
      </trkpt>
      <trkpt lat="46.13335" lon="5.39514">
        <ele>318.8</ele>
        <time>2022-07-23T13:18:56Z</time>
      </trkpt>
      <trkpt lat="46.13332" lon="5.39524">
        <ele>319.2</ele>
        <time>2022-07-23T13:18:58Z</time>
      </trkpt>
      <trkpt lat="46.13328" lon="5.39548">
        <ele>320</ele>
        <time>2022-07-23T13:19:02Z</time>
      </trkpt>
      <trkpt lat="46.13327" lon="5.39554">
        <ele>320.2</ele>
        <time>2022-07-23T13:19:03Z</time>
      </trkpt>
      <trkpt lat="46.13327" lon="5.39587">
        <ele>321.2</ele>
        <time>2022-07-23T13:19:09Z</time>
      </trkpt>
      <trkpt lat="46.13329" lon="5.39603">
        <ele>322.2</ele>
        <time>2022-07-23T13:19:13Z</time>
      </trkpt>
      <trkpt lat="46.1333" lon="5.39619">
        <ele>323.2</ele>
        <time>2022-07-23T13:19:17Z</time>
      </trkpt>
      <trkpt lat="46.1333" lon="5.39622">
        <ele>323.8</ele>
        <time>2022-07-23T13:19:18Z</time>
      </trkpt>
      <trkpt lat="46.1333" lon="5.39634">
        <ele>325</ele>
        <time>2022-07-23T13:19:21Z</time>
      </trkpt>
      <trkpt lat="46.13329" lon="5.39649">
        <ele>325.8</ele>
        <time>2022-07-23T13:19:25Z</time>
      </trkpt>
      <trkpt lat="46.13328" lon="5.39653">
        <ele>326</ele>
        <time>2022-07-23T13:19:26Z</time>
      </trkpt>
      <trkpt lat="46.13326" lon="5.3966">
        <ele>327</ele>
        <time>2022-07-23T13:19:28Z</time>
      </trkpt>
      <trkpt lat="46.13324" lon="5.39664">
        <ele>327.2</ele>
        <time>2022-07-23T13:19:29Z</time>
      </trkpt>
      <trkpt lat="46.1332" lon="5.3967">
        <ele>328</ele>
        <time>2022-07-23T13:19:31Z</time>
      </trkpt>
      <trkpt lat="46.13319" lon="5.39672">
        <ele>328.4</ele>
        <time>2022-07-23T13:19:32Z</time>
      </trkpt>
      <trkpt lat="46.1331" lon="5.39679">
        <ele>329.6</ele>
        <time>2022-07-23T13:19:36Z</time>
      </trkpt>
      <trkpt lat="46.13305" lon="5.39682">
        <ele>329.8</ele>
        <time>2022-07-23T13:19:38Z</time>
      </trkpt>
      <trkpt lat="46.133" lon="5.39684">
        <ele>330.6</ele>
        <time>2022-07-23T13:19:40Z</time>
      </trkpt>
      <trkpt lat="46.1329" lon="5.39687">
        <ele>331.8</ele>
        <time>2022-07-23T13:19:44Z</time>
      </trkpt>
      <trkpt lat="46.1328" lon="5.39688">
        <ele>332.6</ele>
        <time>2022-07-23T13:19:48Z</time>
      </trkpt>
      <trkpt lat="46.13278" lon="5.39689">
        <ele>333.2</ele>
        <time>2022-07-23T13:19:49Z</time>
      </trkpt>
      <trkpt lat="46.13264" lon="5.39693">
        <ele>334.2</ele>
        <time>2022-07-23T13:19:54Z</time>
      </trkpt>
      <trkpt lat="46.13258" lon="5.39697">
        <ele>334.8</ele>
        <time>2022-07-23T13:19:56Z</time>
      </trkpt>
      <trkpt lat="46.13248" lon="5.39704">
        <ele>335.4</ele>
        <time>2022-07-23T13:20:00Z</time>
      </trkpt>
      <trkpt lat="46.13241" lon="5.39713">
        <ele>336</ele>
        <time>2022-07-23T13:20:03Z</time>
      </trkpt>
      <trkpt lat="46.13236" lon="5.39719">
        <ele>336.6</ele>
        <time>2022-07-23T13:20:05Z</time>
      </trkpt>
      <trkpt lat="46.13225" lon="5.39734">
        <ele>337.8</ele>
        <time>2022-07-23T13:20:10Z</time>
      </trkpt>
      <trkpt lat="46.13222" lon="5.39737">
        <ele>337.8</ele>
        <time>2022-07-23T13:20:11Z</time>
      </trkpt>
      <trkpt lat="46.1321" lon="5.39748">
        <ele>338.8</ele>
        <time>2022-07-23T13:20:15Z</time>
      </trkpt>
      <trkpt lat="46.13195" lon="5.39757">
        <ele>339.2</ele>
        <time>2022-07-23T13:20:19Z</time>
      </trkpt>
      <trkpt lat="46.13165" lon="5.39771">
        <ele>339</ele>
        <time>2022-07-23T13:20:25Z</time>
      </trkpt>
      <trkpt lat="46.1316" lon="5.39774">
        <ele>339</ele>
        <time>2022-07-23T13:20:26Z</time>
      </trkpt>
      <trkpt lat="46.13138" lon="5.39792">
        <ele>338</ele>
        <time>2022-07-23T13:20:30Z</time>
      </trkpt>
      <trkpt lat="46.13127" lon="5.39798">
        <ele>338</ele>
        <time>2022-07-23T13:20:32Z</time>
      </trkpt>
      <trkpt lat="46.13118" lon="5.39801">
        <ele>338.2</ele>
        <time>2022-07-23T13:20:34Z</time>
      </trkpt>
      <trkpt lat="46.13108" lon="5.39803">
        <ele>338.8</ele>
        <time>2022-07-23T13:20:36Z</time>
      </trkpt>
      <trkpt lat="46.13099" lon="5.39808">
        <ele>339.4</ele>
        <time>2022-07-23T13:20:38Z</time>
      </trkpt>
      <trkpt lat="46.13081" lon="5.39828">
        <ele>339.6</ele>
        <time>2022-07-23T13:20:42Z</time>
      </trkpt>
      <trkpt lat="46.13069" lon="5.39843">
        <ele>339.8</ele>
        <time>2022-07-23T13:20:45Z</time>
      </trkpt>
      <trkpt lat="46.13064" lon="5.39849">
        <ele>339.8</ele>
        <time>2022-07-23T13:20:46Z</time>
      </trkpt>
      <trkpt lat="46.13055" lon="5.3986">
        <ele>339.8</ele>
        <time>2022-07-23T13:20:48Z</time>
      </trkpt>
      <trkpt lat="46.13042" lon="5.39868">
        <ele>339.4</ele>
        <time>2022-07-23T13:20:50Z</time>
      </trkpt>
      <trkpt lat="46.13029" lon="5.39875">
        <ele>338.8</ele>
        <time>2022-07-23T13:20:52Z</time>
      </trkpt>
      <trkpt lat="46.13012" lon="5.39877">
        <ele>338.6</ele>
        <time>2022-07-23T13:20:54Z</time>
      </trkpt>
      <trkpt lat="46.12986" lon="5.3987">
        <ele>337.4</ele>
        <time>2022-07-23T13:20:57Z</time>
      </trkpt>
      <trkpt lat="46.12977" lon="5.39867">
        <ele>336.4</ele>
        <time>2022-07-23T13:20:58Z</time>
      </trkpt>
      <trkpt lat="46.12959" lon="5.3986">
        <ele>335.2</ele>
        <time>2022-07-23T13:21:00Z</time>
      </trkpt>
      <trkpt lat="46.12931" lon="5.39851">
        <ele>333.4</ele>
        <time>2022-07-23T13:21:03Z</time>
      </trkpt>
      <trkpt lat="46.12922" lon="5.39849">
        <ele>332.6</ele>
        <time>2022-07-23T13:21:04Z</time>
      </trkpt>
      <trkpt lat="46.12913" lon="5.39846">
        <ele>332.4</ele>
        <time>2022-07-23T13:21:05Z</time>
      </trkpt>
      <trkpt lat="46.12867" lon="5.39838">
        <ele>331.2</ele>
        <time>2022-07-23T13:21:10Z</time>
      </trkpt>
      <trkpt lat="46.12819" lon="5.39847">
        <ele>330.2</ele>
        <time>2022-07-23T13:21:15Z</time>
      </trkpt>
      <trkpt lat="46.12777" lon="5.39873">
        <ele>329.2</ele>
        <time>2022-07-23T13:21:20Z</time>
      </trkpt>
      <trkpt lat="46.12769" lon="5.39879">
        <ele>329</ele>
        <time>2022-07-23T13:21:21Z</time>
      </trkpt>
      <trkpt lat="46.12733" lon="5.39905">
        <ele>329</ele>
        <time>2022-07-23T13:21:26Z</time>
      </trkpt>
      <trkpt lat="46.12693" lon="5.39932">
        <ele>329.8</ele>
        <time>2022-07-23T13:21:32Z</time>
      </trkpt>
      <trkpt lat="46.12687" lon="5.39935">
        <ele>330</ele>
        <time>2022-07-23T13:21:33Z</time>
      </trkpt>
      <trkpt lat="46.1268" lon="5.39938">
        <ele>330.2</ele>
        <time>2022-07-23T13:21:34Z</time>
      </trkpt>
      <trkpt lat="46.12667" lon="5.39941">
        <ele>330.4</ele>
        <time>2022-07-23T13:21:36Z</time>
      </trkpt>
      <trkpt lat="46.12608" lon="5.39935">
        <ele>331</ele>
        <time>2022-07-23T13:21:44Z</time>
      </trkpt>
      <trkpt lat="46.12574" lon="5.39927">
        <ele>331.2</ele>
        <time>2022-07-23T13:21:49Z</time>
      </trkpt>
      <trkpt lat="46.12555" lon="5.39923">
        <ele>331.8</ele>
        <time>2022-07-23T13:21:52Z</time>
      </trkpt>
      <trkpt lat="46.12537" lon="5.39917">
        <ele>332.4</ele>
        <time>2022-07-23T13:21:55Z</time>
      </trkpt>
      <trkpt lat="46.1252" lon="5.39911">
        <ele>332.8</ele>
        <time>2022-07-23T13:21:58Z</time>
      </trkpt>
      <trkpt lat="46.12511" lon="5.39909">
        <ele>333</ele>
        <time>2022-07-23T13:22:00Z</time>
      </trkpt>
      <trkpt lat="46.12504" lon="5.39916">
        <ele>333.4</ele>
        <time>2022-07-23T13:22:02Z</time>
      </trkpt>
      <trkpt lat="46.12505" lon="5.39929">
        <ele>334</ele>
        <time>2022-07-23T13:22:04Z</time>
      </trkpt>
      <trkpt lat="46.12506" lon="5.39935">
        <ele>334</ele>
        <time>2022-07-23T13:22:05Z</time>
      </trkpt>
      <trkpt lat="46.1251" lon="5.39948">
        <ele>334.6</ele>
        <time>2022-07-23T13:22:07Z</time>
      </trkpt>
      <trkpt lat="46.12512" lon="5.39955">
        <ele>334.8</ele>
        <time>2022-07-23T13:22:08Z</time>
      </trkpt>
      <trkpt lat="46.12524" lon="5.39987">
        <ele>335.6</ele>
        <time>2022-07-23T13:22:13Z</time>
      </trkpt>
      <trkpt lat="46.12526" lon="5.39994">
        <ele>335.6</ele>
        <time>2022-07-23T13:22:14Z</time>
      </trkpt>
      <trkpt lat="46.12536" lon="5.40017">
        <ele>336.6</ele>
        <time>2022-07-23T13:22:18Z</time>
      </trkpt>
      <trkpt lat="46.12544" lon="5.40034">
        <ele>336.8</ele>
        <time>2022-07-23T13:22:21Z</time>
      </trkpt>
      <trkpt lat="46.12548" lon="5.40039">
        <ele>337</ele>
        <time>2022-07-23T13:22:22Z</time>
      </trkpt>
      <trkpt lat="46.12556" lon="5.40046">
        <ele>337.2</ele>
        <time>2022-07-23T13:22:24Z</time>
      </trkpt>
      <trkpt lat="46.1257" lon="5.40055">
        <ele>337.8</ele>
        <time>2022-07-23T13:22:27Z</time>
      </trkpt>
      <trkpt lat="46.12574" lon="5.40058">
        <ele>338</ele>
        <time>2022-07-23T13:22:28Z</time>
      </trkpt>
      <trkpt lat="46.12615" lon="5.40091">
        <ele>338.8</ele>
        <time>2022-07-23T13:22:37Z</time>
      </trkpt>
      <trkpt lat="46.12623" lon="5.40101">
        <ele>339</ele>
        <time>2022-07-23T13:22:39Z</time>
      </trkpt>
      <trkpt lat="46.12636" lon="5.40122">
        <ele>339.2</ele>
        <time>2022-07-23T13:22:43Z</time>
      </trkpt>
      <trkpt lat="46.1265" lon="5.4015">
        <ele>340.2</ele>
        <time>2022-07-23T13:22:48Z</time>
      </trkpt>
      <trkpt lat="46.12657" lon="5.40166">
        <ele>340.8</ele>
        <time>2022-07-23T13:22:51Z</time>
      </trkpt>
      <trkpt lat="46.12662" lon="5.40177">
        <ele>341</ele>
        <time>2022-07-23T13:22:53Z</time>
      </trkpt>
      <trkpt lat="46.12669" lon="5.40187">
        <ele>341.6</ele>
        <time>2022-07-23T13:22:55Z</time>
      </trkpt>
      <trkpt lat="46.12678" lon="5.402">
        <ele>342.4</ele>
        <time>2022-07-23T13:22:58Z</time>
      </trkpt>
      <trkpt lat="46.1268" lon="5.40203">
        <ele>342.6</ele>
        <time>2022-07-23T13:22:59Z</time>
      </trkpt>
      <trkpt lat="46.12691" lon="5.40216">
        <ele>343</ele>
        <time>2022-07-23T13:23:03Z</time>
      </trkpt>
      <trkpt lat="46.12697" lon="5.40222">
        <ele>344</ele>
        <time>2022-07-23T13:23:05Z</time>
      </trkpt>
      <trkpt lat="46.12699" lon="5.40227">
        <ele>344.4</ele>
        <time>2022-07-23T13:23:07Z</time>
      </trkpt>
      <trkpt lat="46.12701" lon="5.40229">
        <ele>344.6</ele>
        <time>2022-07-23T13:23:08Z</time>
      </trkpt>
      <trkpt lat="46.12704" lon="5.40233">
        <ele>345.2</ele>
        <time>2022-07-23T13:23:10Z</time>
      </trkpt>
      <trkpt lat="46.12708" lon="5.40237">
        <ele>346</ele>
        <time>2022-07-23T13:23:12Z</time>
      </trkpt>
      <trkpt lat="46.12711" lon="5.40239">
        <ele>346</ele>
        <time>2022-07-23T13:23:13Z</time>
      </trkpt>
      <trkpt lat="46.12714" lon="5.40243">
        <ele>346.6</ele>
        <time>2022-07-23T13:23:15Z</time>
      </trkpt>
      <trkpt lat="46.12716" lon="5.40246">
        <ele>347</ele>
        <time>2022-07-23T13:23:16Z</time>
      </trkpt>
      <trkpt lat="46.12718" lon="5.40249">
        <ele>347.4</ele>
        <time>2022-07-23T13:23:17Z</time>
      </trkpt>
      <trkpt lat="46.12721" lon="5.40252">
        <ele>348.2</ele>
        <time>2022-07-23T13:23:18Z</time>
      </trkpt>
      <trkpt lat="46.12734" lon="5.40267">
        <ele>349</ele>
        <time>2022-07-23T13:23:22Z</time>
      </trkpt>
      <trkpt lat="46.12738" lon="5.40271">
        <ele>349.2</ele>
        <time>2022-07-23T13:23:23Z</time>
      </trkpt>
      <trkpt lat="46.1275" lon="5.40288">
        <ele>350.4</ele>
        <time>2022-07-23T13:23:27Z</time>
      </trkpt>
      <trkpt lat="46.12752" lon="5.40292">
        <ele>350.8</ele>
        <time>2022-07-23T13:23:28Z</time>
      </trkpt>
      <trkpt lat="46.12758" lon="5.40306">
        <ele>351.4</ele>
        <time>2022-07-23T13:23:31Z</time>
      </trkpt>
      <trkpt lat="46.12764" lon="5.40325">
        <ele>352.4</ele>
        <time>2022-07-23T13:23:35Z</time>
      </trkpt>
      <trkpt lat="46.12765" lon="5.40329">
        <ele>352.4</ele>
        <time>2022-07-23T13:23:36Z</time>
      </trkpt>
      <trkpt lat="46.12765" lon="5.40334">
        <ele>352.8</ele>
        <time>2022-07-23T13:23:37Z</time>
      </trkpt>
      <trkpt lat="46.12769" lon="5.40357">
        <ele>354</ele>
        <time>2022-07-23T13:23:41Z</time>
      </trkpt>
      <trkpt lat="46.12773" lon="5.40368">
        <ele>354.2</ele>
        <time>2022-07-23T13:23:43Z</time>
      </trkpt>
      <trkpt lat="46.12782" lon="5.40391">
        <ele>355</ele>
        <time>2022-07-23T13:23:48Z</time>
      </trkpt>
      <trkpt lat="46.12785" lon="5.40394">
        <ele>355.2</ele>
        <time>2022-07-23T13:23:49Z</time>
      </trkpt>
      <trkpt lat="46.12807" lon="5.40432">
        <ele>355.6</ele>
        <time>2022-07-23T13:23:57Z</time>
      </trkpt>
      <trkpt lat="46.12817" lon="5.4046">
        <ele>356</ele>
        <time>2022-07-23T13:24:02Z</time>
      </trkpt>
      <trkpt lat="46.12818" lon="5.40466">
        <ele>356.2</ele>
        <time>2022-07-23T13:24:03Z</time>
      </trkpt>
      <trkpt lat="46.12819" lon="5.40471">
        <ele>356.4</ele>
        <time>2022-07-23T13:24:04Z</time>
      </trkpt>
      <trkpt lat="46.1282" lon="5.40478">
        <ele>356.6</ele>
        <time>2022-07-23T13:24:05Z</time>
      </trkpt>
      <trkpt lat="46.12822" lon="5.4049">
        <ele>356.8</ele>
        <time>2022-07-23T13:24:07Z</time>
      </trkpt>
      <trkpt lat="46.12823" lon="5.40503">
        <ele>357</ele>
        <time>2022-07-23T13:24:09Z</time>
      </trkpt>
      <trkpt lat="46.12828" lon="5.40533">
        <ele>357.4</ele>
        <time>2022-07-23T13:24:14Z</time>
      </trkpt>
      <trkpt lat="46.1283" lon="5.4055">
        <ele>357.8</ele>
        <time>2022-07-23T13:24:17Z</time>
      </trkpt>
      <trkpt lat="46.12832" lon="5.40562">
        <ele>358</ele>
        <time>2022-07-23T13:24:19Z</time>
      </trkpt>
      <trkpt lat="46.12834" lon="5.40574">
        <ele>358.6</ele>
        <time>2022-07-23T13:24:21Z</time>
      </trkpt>
      <trkpt lat="46.12838" lon="5.40585">
        <ele>359</ele>
        <time>2022-07-23T13:24:23Z</time>
      </trkpt>
      <trkpt lat="46.12841" lon="5.4059">
        <ele>359.4</ele>
        <time>2022-07-23T13:24:24Z</time>
      </trkpt>
      <trkpt lat="46.12843" lon="5.40594">
        <ele>359.6</ele>
        <time>2022-07-23T13:24:25Z</time>
      </trkpt>
      <trkpt lat="46.12849" lon="5.40602">
        <ele>359.8</ele>
        <time>2022-07-23T13:24:27Z</time>
      </trkpt>
      <trkpt lat="46.12856" lon="5.40609">
        <ele>360.2</ele>
        <time>2022-07-23T13:24:29Z</time>
      </trkpt>
      <trkpt lat="46.12859" lon="5.4061">
        <ele>360.2</ele>
        <time>2022-07-23T13:24:30Z</time>
      </trkpt>
      <trkpt lat="46.1288" lon="5.40615">
        <ele>361.2</ele>
        <time>2022-07-23T13:24:35Z</time>
      </trkpt>
      <trkpt lat="46.12894" lon="5.40617">
        <ele>361.6</ele>
        <time>2022-07-23T13:24:38Z</time>
      </trkpt>
      <trkpt lat="46.12906" lon="5.40618">
        <ele>362.2</ele>
        <time>2022-07-23T13:24:41Z</time>
      </trkpt>
      <trkpt lat="46.12922" lon="5.4062">
        <ele>363.8</ele>
        <time>2022-07-23T13:24:45Z</time>
      </trkpt>
      <trkpt lat="46.12946" lon="5.40622">
        <ele>365.2</ele>
        <time>2022-07-23T13:24:51Z</time>
      </trkpt>
      <trkpt lat="46.12954" lon="5.40622">
        <ele>365.8</ele>
        <time>2022-07-23T13:24:53Z</time>
      </trkpt>
      <trkpt lat="46.12977" lon="5.40624">
        <ele>366.2</ele>
        <time>2022-07-23T13:24:59Z</time>
      </trkpt>
      <trkpt lat="46.12988" lon="5.40626">
        <ele>366.4</ele>
        <time>2022-07-23T13:25:02Z</time>
      </trkpt>
      <trkpt lat="46.13006" lon="5.40627">
        <ele>366.8</ele>
        <time>2022-07-23T13:25:07Z</time>
      </trkpt>
      <trkpt lat="46.13017" lon="5.40628">
        <ele>367.8</ele>
        <time>2022-07-23T13:25:10Z</time>
      </trkpt>
      <trkpt lat="46.13034" lon="5.4063">
        <ele>369.2</ele>
        <time>2022-07-23T13:25:15Z</time>
      </trkpt>
      <trkpt lat="46.13038" lon="5.40631">
        <ele>369.4</ele>
        <time>2022-07-23T13:25:16Z</time>
      </trkpt>
      <trkpt lat="46.13052" lon="5.40632">
        <ele>370.4</ele>
        <time>2022-07-23T13:25:20Z</time>
      </trkpt>
      <trkpt lat="46.1307" lon="5.40634">
        <ele>371.2</ele>
        <time>2022-07-23T13:25:25Z</time>
      </trkpt>
      <trkpt lat="46.13073" lon="5.40634">
        <ele>371.6</ele>
        <time>2022-07-23T13:25:26Z</time>
      </trkpt>
      <trkpt lat="46.13096" lon="5.40637">
        <ele>372.8</ele>
        <time>2022-07-23T13:25:33Z</time>
      </trkpt>
      <trkpt lat="46.13109" lon="5.40638">
        <ele>373.8</ele>
        <time>2022-07-23T13:25:37Z</time>
      </trkpt>
      <trkpt lat="46.1312" lon="5.40639">
        <ele>374.6</ele>
        <time>2022-07-23T13:25:40Z</time>
      </trkpt>
      <trkpt lat="46.13123" lon="5.40639">
        <ele>375</ele>
        <time>2022-07-23T13:25:41Z</time>
      </trkpt>
      <trkpt lat="46.13149" lon="5.40643">
        <ele>376.2</ele>
        <time>2022-07-23T13:25:48Z</time>
      </trkpt>
      <trkpt lat="46.13152" lon="5.40643">
        <ele>376.2</ele>
        <time>2022-07-23T13:25:49Z</time>
      </trkpt>
      <trkpt lat="46.13172" lon="5.40644">
        <ele>377.2</ele>
        <time>2022-07-23T13:25:55Z</time>
      </trkpt>
      <trkpt lat="46.13179" lon="5.40645">
        <ele>377.2</ele>
        <time>2022-07-23T13:25:57Z</time>
      </trkpt>
      <trkpt lat="46.13193" lon="5.40646">
        <ele>378.2</ele>
        <time>2022-07-23T13:26:01Z</time>
      </trkpt>
      <trkpt lat="46.13204" lon="5.40645">
        <ele>378.6</ele>
        <time>2022-07-23T13:26:04Z</time>
      </trkpt>
      <trkpt lat="46.13224" lon="5.40643">
        <ele>379.4</ele>
        <time>2022-07-23T13:26:10Z</time>
      </trkpt>
      <trkpt lat="46.13238" lon="5.40641">
        <ele>380.4</ele>
        <time>2022-07-23T13:26:14Z</time>
      </trkpt>
      <trkpt lat="46.13241" lon="5.4064">
        <ele>380.6</ele>
        <time>2022-07-23T13:26:15Z</time>
      </trkpt>
      <trkpt lat="46.13251" lon="5.40637">
        <ele>381.6</ele>
        <time>2022-07-23T13:26:18Z</time>
      </trkpt>
      <trkpt lat="46.13273" lon="5.4063">
        <ele>382.2</ele>
        <time>2022-07-23T13:26:24Z</time>
      </trkpt>
      <trkpt lat="46.1328" lon="5.40628">
        <ele>382.6</ele>
        <time>2022-07-23T13:26:26Z</time>
      </trkpt>
      <trkpt lat="46.13298" lon="5.40622">
        <ele>383.6</ele>
        <time>2022-07-23T13:26:31Z</time>
      </trkpt>
      <trkpt lat="46.13305" lon="5.40619">
        <ele>384.2</ele>
        <time>2022-07-23T13:26:33Z</time>
      </trkpt>
      <trkpt lat="46.13316" lon="5.40615">
        <ele>384.8</ele>
        <time>2022-07-23T13:26:36Z</time>
      </trkpt>
      <trkpt lat="46.1333" lon="5.4061">
        <ele>385.4</ele>
        <time>2022-07-23T13:26:40Z</time>
      </trkpt>
      <trkpt lat="46.13345" lon="5.40605">
        <ele>386</ele>
        <time>2022-07-23T13:26:44Z</time>
      </trkpt>
      <trkpt lat="46.13367" lon="5.40601">
        <ele>386.8</ele>
        <time>2022-07-23T13:26:50Z</time>
      </trkpt>
      <trkpt lat="46.13371" lon="5.406">
        <ele>387.6</ele>
        <time>2022-07-23T13:26:51Z</time>
      </trkpt>
      <trkpt lat="46.1339" lon="5.40598">
        <ele>388.6</ele>
        <time>2022-07-23T13:26:57Z</time>
      </trkpt>
      <trkpt lat="46.13397" lon="5.40598">
        <ele>389</ele>
        <time>2022-07-23T13:26:59Z</time>
      </trkpt>
      <trkpt lat="46.13408" lon="5.40599">
        <ele>389.8</ele>
        <time>2022-07-23T13:27:02Z</time>
      </trkpt>
      <trkpt lat="46.13424" lon="5.40603">
        <ele>390.6</ele>
        <time>2022-07-23T13:27:06Z</time>
      </trkpt>
      <trkpt lat="46.1344" lon="5.40612">
        <ele>391</ele>
        <time>2022-07-23T13:27:11Z</time>
      </trkpt>
      <trkpt lat="46.13457" lon="5.40626">
        <ele>392</ele>
        <time>2022-07-23T13:27:16Z</time>
      </trkpt>
      <trkpt lat="46.13462" lon="5.4063">
        <ele>392</ele>
        <time>2022-07-23T13:27:17Z</time>
      </trkpt>
      <trkpt lat="46.13475" lon="5.40643">
        <ele>393.2</ele>
        <time>2022-07-23T13:27:21Z</time>
      </trkpt>
      <trkpt lat="46.13481" lon="5.40651">
        <ele>393.6</ele>
        <time>2022-07-23T13:27:23Z</time>
      </trkpt>
      <trkpt lat="46.13487" lon="5.40658">
        <ele>394.2</ele>
        <time>2022-07-23T13:27:25Z</time>
      </trkpt>
      <trkpt lat="46.135" lon="5.4067">
        <ele>394.4</ele>
        <time>2022-07-23T13:27:29Z</time>
      </trkpt>
      <trkpt lat="46.13508" lon="5.40679">
        <ele>395.2</ele>
        <time>2022-07-23T13:27:32Z</time>
      </trkpt>
      <trkpt lat="46.13522" lon="5.40693">
        <ele>396.4</ele>
        <time>2022-07-23T13:27:37Z</time>
      </trkpt>
      <trkpt lat="46.13528" lon="5.40699">
        <ele>396.6</ele>
        <time>2022-07-23T13:27:39Z</time>
      </trkpt>
      <trkpt lat="46.13544" lon="5.40712">
        <ele>397.4</ele>
        <time>2022-07-23T13:27:44Z</time>
      </trkpt>
      <trkpt lat="46.13553" lon="5.40718">
        <ele>398</ele>
        <time>2022-07-23T13:27:47Z</time>
      </trkpt>
      <trkpt lat="46.13563" lon="5.40724">
        <ele>398.4</ele>
        <time>2022-07-23T13:27:50Z</time>
      </trkpt>
      <trkpt lat="46.1358" lon="5.4073">
        <ele>399.6</ele>
        <time>2022-07-23T13:27:55Z</time>
      </trkpt>
      <trkpt lat="46.13602" lon="5.40733">
        <ele>400.8</ele>
        <time>2022-07-23T13:28:01Z</time>
      </trkpt>
      <trkpt lat="46.13612" lon="5.40733">
        <ele>401.2</ele>
        <time>2022-07-23T13:28:04Z</time>
      </trkpt>
      <trkpt lat="46.13624" lon="5.40732">
        <ele>401.8</ele>
        <time>2022-07-23T13:28:07Z</time>
      </trkpt>
      <trkpt lat="46.1365" lon="5.40731">
        <ele>403</ele>
        <time>2022-07-23T13:28:14Z</time>
      </trkpt>
      <trkpt lat="46.13677" lon="5.40731">
        <ele>404.2</ele>
        <time>2022-07-23T13:28:21Z</time>
      </trkpt>
      <trkpt lat="46.13691" lon="5.4073">
        <ele>405.2</ele>
        <time>2022-07-23T13:28:25Z</time>
      </trkpt>
      <trkpt lat="46.13706" lon="5.40731">
        <ele>406.2</ele>
        <time>2022-07-23T13:28:29Z</time>
      </trkpt>
      <trkpt lat="46.13709" lon="5.40732">
        <ele>406.4</ele>
        <time>2022-07-23T13:28:30Z</time>
      </trkpt>
      <trkpt lat="46.13727" lon="5.40735">
        <ele>407.4</ele>
        <time>2022-07-23T13:28:35Z</time>
      </trkpt>
      <trkpt lat="46.13741" lon="5.40734">
        <ele>408</ele>
        <time>2022-07-23T13:28:39Z</time>
      </trkpt>
      <trkpt lat="46.13745" lon="5.40734">
        <ele>408.4</ele>
        <time>2022-07-23T13:28:40Z</time>
      </trkpt>
      <trkpt lat="46.13768" lon="5.40729">
        <ele>409.4</ele>
        <time>2022-07-23T13:28:47Z</time>
      </trkpt>
      <trkpt lat="46.13772" lon="5.40729">
        <ele>409.4</ele>
        <time>2022-07-23T13:28:48Z</time>
      </trkpt>
      <trkpt lat="46.13786" lon="5.40726">
        <ele>411</ele>
        <time>2022-07-23T13:28:52Z</time>
      </trkpt>
      <trkpt lat="46.13789" lon="5.40724">
        <ele>411</ele>
        <time>2022-07-23T13:28:53Z</time>
      </trkpt>
      <trkpt lat="46.13809" lon="5.40717">
        <ele>412</ele>
        <time>2022-07-23T13:28:59Z</time>
      </trkpt>
      <trkpt lat="46.13836" lon="5.40709">
        <ele>413</ele>
        <time>2022-07-23T13:29:06Z</time>
      </trkpt>
      <trkpt lat="46.1384" lon="5.40708">
        <ele>413</ele>
        <time>2022-07-23T13:29:07Z</time>
      </trkpt>
      <trkpt lat="46.1386" lon="5.40703">
        <ele>414</ele>
        <time>2022-07-23T13:29:13Z</time>
      </trkpt>
      <trkpt lat="46.13864" lon="5.40702">
        <ele>414.2</ele>
        <time>2022-07-23T13:29:14Z</time>
      </trkpt>
      <trkpt lat="46.13878" lon="5.407">
        <ele>415.4</ele>
        <time>2022-07-23T13:29:18Z</time>
      </trkpt>
      <trkpt lat="46.13906" lon="5.40702">
        <ele>416.8</ele>
        <time>2022-07-23T13:29:26Z</time>
      </trkpt>
      <trkpt lat="46.13925" lon="5.40704">
        <ele>418</ele>
        <time>2022-07-23T13:29:31Z</time>
      </trkpt>
      <trkpt lat="46.13947" lon="5.40709">
        <ele>418.6</ele>
        <time>2022-07-23T13:29:37Z</time>
      </trkpt>
      <trkpt lat="46.13954" lon="5.40713">
        <ele>419</ele>
        <time>2022-07-23T13:29:39Z</time>
      </trkpt>
      <trkpt lat="46.13978" lon="5.40717">
        <ele>420</ele>
        <time>2022-07-23T13:29:45Z</time>
      </trkpt>
      <trkpt lat="46.13998" lon="5.40721">
        <ele>421.4</ele>
        <time>2022-07-23T13:29:50Z</time>
      </trkpt>
      <trkpt lat="46.14015" lon="5.40727">
        <ele>422.4</ele>
        <time>2022-07-23T13:29:54Z</time>
      </trkpt>
      <trkpt lat="46.14019" lon="5.40728">
        <ele>422.6</ele>
        <time>2022-07-23T13:29:55Z</time>
      </trkpt>
      <trkpt lat="46.14043" lon="5.40734">
        <ele>423.6</ele>
        <time>2022-07-23T13:30:01Z</time>
      </trkpt>
      <trkpt lat="46.14061" lon="5.40741">
        <ele>424.6</ele>
        <time>2022-07-23T13:30:06Z</time>
      </trkpt>
      <trkpt lat="46.14064" lon="5.40742">
        <ele>424.6</ele>
        <time>2022-07-23T13:30:07Z</time>
      </trkpt>
      <trkpt lat="46.14075" lon="5.40746">
        <ele>425.8</ele>
        <time>2022-07-23T13:30:10Z</time>
      </trkpt>
      <trkpt lat="46.14096" lon="5.40751">
        <ele>426.8</ele>
        <time>2022-07-23T13:30:16Z</time>
      </trkpt>
      <trkpt lat="46.14099" lon="5.40752">
        <ele>427.2</ele>
        <time>2022-07-23T13:30:17Z</time>
      </trkpt>
      <trkpt lat="46.14124" lon="5.40759">
        <ele>428.2</ele>
        <time>2022-07-23T13:30:24Z</time>
      </trkpt>
      <trkpt lat="46.14141" lon="5.40763">
        <ele>429.2</ele>
        <time>2022-07-23T13:30:29Z</time>
      </trkpt>
      <trkpt lat="46.14145" lon="5.40764">
        <ele>429.2</ele>
        <time>2022-07-23T13:30:30Z</time>
      </trkpt>
      <trkpt lat="46.14166" lon="5.40772">
        <ele>430.6</ele>
        <time>2022-07-23T13:30:36Z</time>
      </trkpt>
      <trkpt lat="46.14183" lon="5.40778">
        <ele>431.4</ele>
        <time>2022-07-23T13:30:41Z</time>
      </trkpt>
      <trkpt lat="46.14189" lon="5.40781">
        <ele>431.6</ele>
        <time>2022-07-23T13:30:43Z</time>
      </trkpt>
      <trkpt lat="46.14209" lon="5.4079">
        <ele>432.6</ele>
        <time>2022-07-23T13:30:49Z</time>
      </trkpt>
      <trkpt lat="46.14215" lon="5.40793">
        <ele>433</ele>
        <time>2022-07-23T13:30:51Z</time>
      </trkpt>
      <trkpt lat="46.14228" lon="5.408">
        <ele>433.8</ele>
        <time>2022-07-23T13:30:55Z</time>
      </trkpt>
      <trkpt lat="46.14251" lon="5.40815">
        <ele>435</ele>
        <time>2022-07-23T13:31:02Z</time>
      </trkpt>
      <trkpt lat="46.14271" lon="5.4083">
        <ele>436</ele>
        <time>2022-07-23T13:31:08Z</time>
      </trkpt>
      <trkpt lat="46.14279" lon="5.4084">
        <ele>436.4</ele>
        <time>2022-07-23T13:31:11Z</time>
      </trkpt>
      <trkpt lat="46.14293" lon="5.40855">
        <ele>436.8</ele>
        <time>2022-07-23T13:31:16Z</time>
      </trkpt>
      <trkpt lat="46.14306" lon="5.40866">
        <ele>437.8</ele>
        <time>2022-07-23T13:31:20Z</time>
      </trkpt>
      <trkpt lat="46.14309" lon="5.40868">
        <ele>438</ele>
        <time>2022-07-23T13:31:21Z</time>
      </trkpt>
      <trkpt lat="46.14318" lon="5.40874">
        <ele>438.4</ele>
        <time>2022-07-23T13:31:24Z</time>
      </trkpt>
      <trkpt lat="46.14332" lon="5.40882">
        <ele>439</ele>
        <time>2022-07-23T13:31:28Z</time>
      </trkpt>
      <trkpt lat="46.14338" lon="5.40885">
        <ele>439.4</ele>
        <time>2022-07-23T13:31:30Z</time>
      </trkpt>
      <trkpt lat="46.14348" lon="5.40891">
        <ele>440.4</ele>
        <time>2022-07-23T13:31:33Z</time>
      </trkpt>
      <trkpt lat="46.14364" lon="5.40901">
        <ele>441.4</ele>
        <time>2022-07-23T13:31:38Z</time>
      </trkpt>
      <trkpt lat="46.14377" lon="5.40907">
        <ele>442.4</ele>
        <time>2022-07-23T13:31:42Z</time>
      </trkpt>
      <trkpt lat="46.14401" lon="5.40914">
        <ele>443.4</ele>
        <time>2022-07-23T13:31:49Z</time>
      </trkpt>
      <trkpt lat="46.14408" lon="5.40917">
        <ele>443.6</ele>
        <time>2022-07-23T13:31:51Z</time>
      </trkpt>
      <trkpt lat="46.14425" lon="5.40921">
        <ele>444.6</ele>
        <time>2022-07-23T13:31:56Z</time>
      </trkpt>
      <trkpt lat="46.14429" lon="5.40922">
        <ele>444.8</ele>
        <time>2022-07-23T13:31:57Z</time>
      </trkpt>
      <trkpt lat="46.14446" lon="5.40927">
        <ele>445.6</ele>
        <time>2022-07-23T13:32:02Z</time>
      </trkpt>
      <trkpt lat="46.14457" lon="5.40929">
        <ele>446.2</ele>
        <time>2022-07-23T13:32:05Z</time>
      </trkpt>
      <trkpt lat="46.14478" lon="5.40932">
        <ele>446.8</ele>
        <time>2022-07-23T13:32:10Z</time>
      </trkpt>
      <trkpt lat="46.1449" lon="5.40934">
        <ele>446.8</ele>
        <time>2022-07-23T13:32:13Z</time>
      </trkpt>
      <trkpt lat="46.14495" lon="5.40935">
        <ele>447</ele>
        <time>2022-07-23T13:32:14Z</time>
      </trkpt>
      <trkpt lat="46.14518" lon="5.40936">
        <ele>447.4</ele>
        <time>2022-07-23T13:32:19Z</time>
      </trkpt>
      <trkpt lat="46.14549" lon="5.40943">
        <ele>447.2</ele>
        <time>2022-07-23T13:32:25Z</time>
      </trkpt>
      <trkpt lat="46.14564" lon="5.40955">
        <ele>446.8</ele>
        <time>2022-07-23T13:32:28Z</time>
      </trkpt>
      <trkpt lat="46.14573" lon="5.40967">
        <ele>446.6</ele>
        <time>2022-07-23T13:32:30Z</time>
      </trkpt>
      <trkpt lat="46.14577" lon="5.40974">
        <ele>445.6</ele>
        <time>2022-07-23T13:32:31Z</time>
      </trkpt>
      <trkpt lat="46.14581" lon="5.40983">
        <ele>445.4</ele>
        <time>2022-07-23T13:32:32Z</time>
      </trkpt>
      <trkpt lat="46.14585" lon="5.41003">
        <ele>445.4</ele>
        <time>2022-07-23T13:32:34Z</time>
      </trkpt>
      <trkpt lat="46.14586" lon="5.41014">
        <ele>444.6</ele>
        <time>2022-07-23T13:32:35Z</time>
      </trkpt>
      <trkpt lat="46.14589" lon="5.41049">
        <ele>443.4</ele>
        <time>2022-07-23T13:32:38Z</time>
      </trkpt>
      <trkpt lat="46.14596" lon="5.41085">
        <ele>442.4</ele>
        <time>2022-07-23T13:32:41Z</time>
      </trkpt>
      <trkpt lat="46.14603" lon="5.4111">
        <ele>441.4</ele>
        <time>2022-07-23T13:32:43Z</time>
      </trkpt>
      <trkpt lat="46.14607" lon="5.41122">
        <ele>441</ele>
        <time>2022-07-23T13:32:44Z</time>
      </trkpt>
      <trkpt lat="46.14619" lon="5.41162">
        <ele>439.2</ele>
        <time>2022-07-23T13:32:47Z</time>
      </trkpt>
      <trkpt lat="46.14627" lon="5.41189">
        <ele>437.8</ele>
        <time>2022-07-23T13:32:49Z</time>
      </trkpt>
      <trkpt lat="46.14643" lon="5.41231">
        <ele>436.8</ele>
        <time>2022-07-23T13:32:52Z</time>
      </trkpt>
      <trkpt lat="46.1465" lon="5.41243">
        <ele>436.2</ele>
        <time>2022-07-23T13:32:53Z</time>
      </trkpt>
      <trkpt lat="46.14658" lon="5.41254">
        <ele>435.4</ele>
        <time>2022-07-23T13:32:54Z</time>
      </trkpt>
      <trkpt lat="46.14676" lon="5.41275">
        <ele>434</ele>
        <time>2022-07-23T13:32:56Z</time>
      </trkpt>
      <trkpt lat="46.14684" lon="5.41286">
        <ele>433.4</ele>
        <time>2022-07-23T13:32:57Z</time>
      </trkpt>
      <trkpt lat="46.14691" lon="5.41298">
        <ele>433</ele>
        <time>2022-07-23T13:32:58Z</time>
      </trkpt>
      <trkpt lat="46.14696" lon="5.41313">
        <ele>432.6</ele>
        <time>2022-07-23T13:32:59Z</time>
      </trkpt>
      <trkpt lat="46.147" lon="5.4133">
        <ele>431</ele>
        <time>2022-07-23T13:33:00Z</time>
      </trkpt>
      <trkpt lat="46.14702" lon="5.41365">
        <ele>429.4</ele>
        <time>2022-07-23T13:33:02Z</time>
      </trkpt>
      <trkpt lat="46.14702" lon="5.41382">
        <ele>428.4</ele>
        <time>2022-07-23T13:33:03Z</time>
      </trkpt>
      <trkpt lat="46.14702" lon="5.414">
        <ele>428</ele>
        <time>2022-07-23T13:33:04Z</time>
      </trkpt>
      <trkpt lat="46.14705" lon="5.41435">
        <ele>426.6</ele>
        <time>2022-07-23T13:33:06Z</time>
      </trkpt>
      <trkpt lat="46.14709" lon="5.41452">
        <ele>425.4</ele>
        <time>2022-07-23T13:33:07Z</time>
      </trkpt>
      <trkpt lat="46.14713" lon="5.41469">
        <ele>424.4</ele>
        <time>2022-07-23T13:33:08Z</time>
      </trkpt>
      <trkpt lat="46.14724" lon="5.41502">
        <ele>422.6</ele>
        <time>2022-07-23T13:33:10Z</time>
      </trkpt>
      <trkpt lat="46.14732" lon="5.41538">
        <ele>421.2</ele>
        <time>2022-07-23T13:33:12Z</time>
      </trkpt>
      <trkpt lat="46.14734" lon="5.41557">
        <ele>420.8</ele>
        <time>2022-07-23T13:33:13Z</time>
      </trkpt>
      <trkpt lat="46.14735" lon="5.41576">
        <ele>419.8</ele>
        <time>2022-07-23T13:33:14Z</time>
      </trkpt>
      <trkpt lat="46.14736" lon="5.41614">
        <ele>418.8</ele>
        <time>2022-07-23T13:33:16Z</time>
      </trkpt>
      <trkpt lat="46.14738" lon="5.41634">
        <ele>417.6</ele>
        <time>2022-07-23T13:33:17Z</time>
      </trkpt>
      <trkpt lat="46.14748" lon="5.4167">
        <ele>415.8</ele>
        <time>2022-07-23T13:33:19Z</time>
      </trkpt>
      <trkpt lat="46.14753" lon="5.41688">
        <ele>414.8</ele>
        <time>2022-07-23T13:33:20Z</time>
      </trkpt>
      <trkpt lat="46.14759" lon="5.41706">
        <ele>413.6</ele>
        <time>2022-07-23T13:33:21Z</time>
      </trkpt>
      <trkpt lat="46.14765" lon="5.41724">
        <ele>412.6</ele>
        <time>2022-07-23T13:33:22Z</time>
      </trkpt>
      <trkpt lat="46.14776" lon="5.4176">
        <ele>411.2</ele>
        <time>2022-07-23T13:33:24Z</time>
      </trkpt>
      <trkpt lat="46.14788" lon="5.41797">
        <ele>409.8</ele>
        <time>2022-07-23T13:33:26Z</time>
      </trkpt>
      <trkpt lat="46.148" lon="5.41833">
        <ele>409</ele>
        <time>2022-07-23T13:33:28Z</time>
      </trkpt>
      <trkpt lat="46.14807" lon="5.41851">
        <ele>408.4</ele>
        <time>2022-07-23T13:33:29Z</time>
      </trkpt>
      <trkpt lat="46.14826" lon="5.4188">
        <ele>407</ele>
        <time>2022-07-23T13:33:31Z</time>
      </trkpt>
      <trkpt lat="46.14849" lon="5.419">
        <ele>405</ele>
        <time>2022-07-23T13:33:33Z</time>
      </trkpt>
      <trkpt lat="46.14862" lon="5.41906">
        <ele>404.2</ele>
        <time>2022-07-23T13:33:34Z</time>
      </trkpt>
      <trkpt lat="46.14875" lon="5.4191">
        <ele>403.2</ele>
        <time>2022-07-23T13:33:35Z</time>
      </trkpt>
      <trkpt lat="46.14889" lon="5.41912">
        <ele>401.4</ele>
        <time>2022-07-23T13:33:36Z</time>
      </trkpt>
      <trkpt lat="46.14915" lon="5.41916">
        <ele>398.8</ele>
        <time>2022-07-23T13:33:38Z</time>
      </trkpt>
      <trkpt lat="46.14941" lon="5.41919">
        <ele>396.6</ele>
        <time>2022-07-23T13:33:40Z</time>
      </trkpt>
      <trkpt lat="46.14966" lon="5.41926">
        <ele>394.6</ele>
        <time>2022-07-23T13:33:42Z</time>
      </trkpt>
      <trkpt lat="46.14989" lon="5.41935">
        <ele>393.4</ele>
        <time>2022-07-23T13:33:44Z</time>
      </trkpt>
      <trkpt lat="46.15021" lon="5.41947">
        <ele>393</ele>
        <time>2022-07-23T13:33:47Z</time>
      </trkpt>
      <trkpt lat="46.15061" lon="5.41964">
        <ele>392.4</ele>
        <time>2022-07-23T13:33:51Z</time>
      </trkpt>
      <trkpt lat="46.1507" lon="5.41968">
        <ele>392.2</ele>
        <time>2022-07-23T13:33:52Z</time>
      </trkpt>
      <trkpt lat="46.15079" lon="5.41972">
        <ele>392</ele>
        <time>2022-07-23T13:33:53Z</time>
      </trkpt>
      <trkpt lat="46.15114" lon="5.41987">
        <ele>391.4</ele>
        <time>2022-07-23T13:33:57Z</time>
      </trkpt>
      <trkpt lat="46.15123" lon="5.41989">
        <ele>391.2</ele>
        <time>2022-07-23T13:33:58Z</time>
      </trkpt>
      <trkpt lat="46.15131" lon="5.4199">
        <ele>391.2</ele>
        <time>2022-07-23T13:33:59Z</time>
      </trkpt>
      <trkpt lat="46.15139" lon="5.41988">
        <ele>391.2</ele>
        <time>2022-07-23T13:34:00Z</time>
      </trkpt>
      <trkpt lat="46.15146" lon="5.41982">
        <ele>391</ele>
        <time>2022-07-23T13:34:01Z</time>
      </trkpt>
      <trkpt lat="46.15156" lon="5.41963">
        <ele>391</ele>
        <time>2022-07-23T13:34:03Z</time>
      </trkpt>
      <trkpt lat="46.1517" lon="5.41907">
        <ele>390.6</ele>
        <time>2022-07-23T13:34:08Z</time>
      </trkpt>
      <trkpt lat="46.15174" lon="5.41886">
        <ele>390.2</ele>
        <time>2022-07-23T13:34:10Z</time>
      </trkpt>
      <trkpt lat="46.15182" lon="5.41845">
        <ele>389.6</ele>
        <time>2022-07-23T13:34:14Z</time>
      </trkpt>
      <trkpt lat="46.15192" lon="5.41831">
        <ele>389.4</ele>
        <time>2022-07-23T13:34:16Z</time>
      </trkpt>
      <trkpt lat="46.15206" lon="5.41823">
        <ele>389.4</ele>
        <time>2022-07-23T13:34:18Z</time>
      </trkpt>
      <trkpt lat="46.15214" lon="5.41821">
        <ele>389.4</ele>
        <time>2022-07-23T13:34:19Z</time>
      </trkpt>
      <trkpt lat="46.15222" lon="5.4182">
        <ele>389.2</ele>
        <time>2022-07-23T13:34:20Z</time>
      </trkpt>
      <trkpt lat="46.15239" lon="5.41826">
        <ele>388.8</ele>
        <time>2022-07-23T13:34:22Z</time>
      </trkpt>
      <trkpt lat="46.15255" lon="5.41837">
        <ele>388.6</ele>
        <time>2022-07-23T13:34:24Z</time>
      </trkpt>
      <trkpt lat="46.15272" lon="5.41844">
        <ele>388.2</ele>
        <time>2022-07-23T13:34:26Z</time>
      </trkpt>
      <trkpt lat="46.15281" lon="5.41847">
        <ele>387.4</ele>
        <time>2022-07-23T13:34:27Z</time>
      </trkpt>
      <trkpt lat="46.15309" lon="5.41854">
        <ele>386.2</ele>
        <time>2022-07-23T13:34:30Z</time>
      </trkpt>
      <trkpt lat="46.15327" lon="5.41858">
        <ele>385.6</ele>
        <time>2022-07-23T13:34:32Z</time>
      </trkpt>
      <trkpt lat="46.15336" lon="5.41859">
        <ele>385</ele>
        <time>2022-07-23T13:34:33Z</time>
      </trkpt>
      <trkpt lat="46.15365" lon="5.41865">
        <ele>383.6</ele>
        <time>2022-07-23T13:34:36Z</time>
      </trkpt>
      <trkpt lat="46.15394" lon="5.41868">
        <ele>382.6</ele>
        <time>2022-07-23T13:34:39Z</time>
      </trkpt>
      <trkpt lat="46.15415" lon="5.41869">
        <ele>381.2</ele>
        <time>2022-07-23T13:34:41Z</time>
      </trkpt>
      <trkpt lat="46.15457" lon="5.41872">
        <ele>379.8</ele>
        <time>2022-07-23T13:34:45Z</time>
      </trkpt>
      <trkpt lat="46.15479" lon="5.41869">
        <ele>379</ele>
        <time>2022-07-23T13:34:47Z</time>
      </trkpt>
      <trkpt lat="46.1549" lon="5.41865">
        <ele>378</ele>
        <time>2022-07-23T13:34:48Z</time>
      </trkpt>
      <trkpt lat="46.15501" lon="5.41861">
        <ele>377.4</ele>
        <time>2022-07-23T13:34:49Z</time>
      </trkpt>
      <trkpt lat="46.15511" lon="5.41857">
        <ele>376.6</ele>
        <time>2022-07-23T13:34:50Z</time>
      </trkpt>
      <trkpt lat="46.15532" lon="5.41848">
        <ele>375.2</ele>
        <time>2022-07-23T13:34:52Z</time>
      </trkpt>
      <trkpt lat="46.15553" lon="5.41837">
        <ele>374</ele>
        <time>2022-07-23T13:34:54Z</time>
      </trkpt>
      <trkpt lat="46.15575" lon="5.41828">
        <ele>372.6</ele>
        <time>2022-07-23T13:34:56Z</time>
      </trkpt>
      <trkpt lat="46.15597" lon="5.41818">
        <ele>371.2</ele>
        <time>2022-07-23T13:34:58Z</time>
      </trkpt>
      <trkpt lat="46.15608" lon="5.41813">
        <ele>370.2</ele>
        <time>2022-07-23T13:34:59Z</time>
      </trkpt>
      <trkpt lat="46.1563" lon="5.41805">
        <ele>368.8</ele>
        <time>2022-07-23T13:35:01Z</time>
      </trkpt>
      <trkpt lat="46.15651" lon="5.41796">
        <ele>367.4</ele>
        <time>2022-07-23T13:35:03Z</time>
      </trkpt>
      <trkpt lat="46.15672" lon="5.41789">
        <ele>366.2</ele>
        <time>2022-07-23T13:35:05Z</time>
      </trkpt>
      <trkpt lat="46.15683" lon="5.41785">
        <ele>365.2</ele>
        <time>2022-07-23T13:35:06Z</time>
      </trkpt>
      <trkpt lat="46.15702" lon="5.41778">
        <ele>364.6</ele>
        <time>2022-07-23T13:35:08Z</time>
      </trkpt>
      <trkpt lat="46.15734" lon="5.41758">
        <ele>364.4</ele>
        <time>2022-07-23T13:35:12Z</time>
      </trkpt>
      <trkpt lat="46.15771" lon="5.41722">
        <ele>365</ele>
        <time>2022-07-23T13:35:18Z</time>
      </trkpt>
      <trkpt lat="46.15777" lon="5.41717">
        <ele>365</ele>
        <time>2022-07-23T13:35:19Z</time>
      </trkpt>
      <trkpt lat="46.15801" lon="5.41698">
        <ele>366</ele>
        <time>2022-07-23T13:35:23Z</time>
      </trkpt>
      <trkpt lat="46.15814" lon="5.4169">
        <ele>366</ele>
        <time>2022-07-23T13:35:25Z</time>
      </trkpt>
      <trkpt lat="46.15828" lon="5.41685">
        <ele>366</ele>
        <time>2022-07-23T13:35:27Z</time>
      </trkpt>
      <trkpt lat="46.15836" lon="5.41683">
        <ele>365.8</ele>
        <time>2022-07-23T13:35:28Z</time>
      </trkpt>
      <trkpt lat="46.15843" lon="5.41684">
        <ele>365.6</ele>
        <time>2022-07-23T13:35:29Z</time>
      </trkpt>
      <trkpt lat="46.15867" lon="5.41691">
        <ele>364.8</ele>
        <time>2022-07-23T13:35:32Z</time>
      </trkpt>
      <trkpt lat="46.15891" lon="5.41704">
        <ele>364.2</ele>
        <time>2022-07-23T13:35:35Z</time>
      </trkpt>
      <trkpt lat="46.15899" lon="5.41708">
        <ele>363.8</ele>
        <time>2022-07-23T13:35:36Z</time>
      </trkpt>
      <trkpt lat="46.15906" lon="5.41711">
        <ele>363.6</ele>
        <time>2022-07-23T13:35:37Z</time>
      </trkpt>
      <trkpt lat="46.15912" lon="5.41713">
        <ele>363.2</ele>
        <time>2022-07-23T13:35:38Z</time>
      </trkpt>
      <trkpt lat="46.15924" lon="5.41715">
        <ele>362</ele>
        <time>2022-07-23T13:35:40Z</time>
      </trkpt>
      <trkpt lat="46.15937" lon="5.41718">
        <ele>361</ele>
        <time>2022-07-23T13:35:43Z</time>
      </trkpt>
      <trkpt lat="46.15939" lon="5.41718">
        <ele>360.6</ele>
        <time>2022-07-23T13:35:44Z</time>
      </trkpt>
      <trkpt lat="46.1594" lon="5.41718">
        <ele>360.4</ele>
        <time>2022-07-23T13:35:47Z</time>
      </trkpt>
      <trkpt lat="46.15942" lon="5.41718">
        <ele>360.2</ele>
        <time>2022-07-23T13:36:10Z</time>
      </trkpt>
      <trkpt lat="46.15945" lon="5.41712">
        <ele>360.2</ele>
        <time>2022-07-23T13:36:12Z</time>
      </trkpt>
      <trkpt lat="46.15953" lon="5.41683">
        <ele>360.2</ele>
        <time>2022-07-23T13:36:18Z</time>
      </trkpt>
      <trkpt lat="46.1596" lon="5.41645">
        <ele>362</ele>
        <time>2022-07-23T13:36:26Z</time>
      </trkpt>
      <trkpt lat="46.15961" lon="5.4164">
        <ele>362.6</ele>
        <time>2022-07-23T13:36:27Z</time>
      </trkpt>
      <trkpt lat="46.15962" lon="5.41635">
        <ele>363</ele>
        <time>2022-07-23T13:36:28Z</time>
      </trkpt>
      <trkpt lat="46.15967" lon="5.41611">
        <ele>364.2</ele>
        <time>2022-07-23T13:36:33Z</time>
      </trkpt>
      <trkpt lat="46.15971" lon="5.41585">
        <ele>365</ele>
        <time>2022-07-23T13:36:38Z</time>
      </trkpt>
      <trkpt lat="46.15974" lon="5.41571">
        <ele>365.4</ele>
        <time>2022-07-23T13:36:41Z</time>
      </trkpt>
      <trkpt lat="46.1598" lon="5.41545">
        <ele>366.4</ele>
        <time>2022-07-23T13:36:46Z</time>
      </trkpt>
      <trkpt lat="46.15983" lon="5.41528">
        <ele>366.6</ele>
        <time>2022-07-23T13:36:49Z</time>
      </trkpt>
      <trkpt lat="46.15988" lon="5.41501">
        <ele>367.2</ele>
        <time>2022-07-23T13:36:54Z</time>
      </trkpt>
      <trkpt lat="46.15993" lon="5.4148">
        <ele>367.8</ele>
        <time>2022-07-23T13:36:58Z</time>
      </trkpt>
      <trkpt lat="46.15998" lon="5.4145">
        <ele>369</ele>
        <time>2022-07-23T13:37:03Z</time>
      </trkpt>
      <trkpt lat="46.16009" lon="5.41388">
        <ele>369.8</ele>
        <time>2022-07-23T13:37:12Z</time>
      </trkpt>
      <trkpt lat="46.16011" lon="5.41375">
        <ele>370</ele>
        <time>2022-07-23T13:37:14Z</time>
      </trkpt>
      <trkpt lat="46.16019" lon="5.41331">
        <ele>371</ele>
        <time>2022-07-23T13:37:21Z</time>
      </trkpt>
      <trkpt lat="46.16021" lon="5.4132">
        <ele>371.6</ele>
        <time>2022-07-23T13:37:23Z</time>
      </trkpt>
      <trkpt lat="46.16024" lon="5.41303">
        <ele>372.2</ele>
        <time>2022-07-23T13:37:26Z</time>
      </trkpt>
      <trkpt lat="46.1603" lon="5.41267">
        <ele>373.4</ele>
        <time>2022-07-23T13:37:32Z</time>
      </trkpt>
      <trkpt lat="46.16039" lon="5.41221">
        <ele>374.6</ele>
        <time>2022-07-23T13:37:40Z</time>
      </trkpt>
      <trkpt lat="46.16042" lon="5.4121">
        <ele>375.2</ele>
        <time>2022-07-23T13:37:42Z</time>
      </trkpt>
      <trkpt lat="46.16045" lon="5.41199">
        <ele>375.6</ele>
        <time>2022-07-23T13:37:44Z</time>
      </trkpt>
      <trkpt lat="46.16057" lon="5.4117">
        <ele>376.6</ele>
        <time>2022-07-23T13:37:50Z</time>
      </trkpt>
      <trkpt lat="46.16059" lon="5.41166">
        <ele>377</ele>
        <time>2022-07-23T13:37:51Z</time>
      </trkpt>
      <trkpt lat="46.16067" lon="5.41154">
        <ele>377.8</ele>
        <time>2022-07-23T13:37:54Z</time>
      </trkpt>
      <trkpt lat="46.16084" lon="5.41134">
        <ele>378.8</ele>
        <time>2022-07-23T13:38:00Z</time>
      </trkpt>
      <trkpt lat="46.16099" lon="5.41122">
        <ele>380.2</ele>
        <time>2022-07-23T13:38:05Z</time>
      </trkpt>
      <trkpt lat="46.16106" lon="5.41118">
        <ele>380.8</ele>
        <time>2022-07-23T13:38:07Z</time>
      </trkpt>
      <trkpt lat="46.16113" lon="5.41115">
        <ele>381.4</ele>
        <time>2022-07-23T13:38:09Z</time>
      </trkpt>
      <trkpt lat="46.16133" lon="5.41109">
        <ele>382.4</ele>
        <time>2022-07-23T13:38:15Z</time>
      </trkpt>
      <trkpt lat="46.1614" lon="5.41107">
        <ele>382.6</ele>
        <time>2022-07-23T13:38:17Z</time>
      </trkpt>
      <trkpt lat="46.1616" lon="5.41106">
        <ele>383.8</ele>
        <time>2022-07-23T13:38:22Z</time>
      </trkpt>
      <trkpt lat="46.16176" lon="5.41105">
        <ele>384.8</ele>
        <time>2022-07-23T13:38:26Z</time>
      </trkpt>
      <trkpt lat="46.1618" lon="5.41104">
        <ele>384.8</ele>
        <time>2022-07-23T13:38:27Z</time>
      </trkpt>
      <trkpt lat="46.16207" lon="5.41102">
        <ele>385.8</ele>
        <time>2022-07-23T13:38:34Z</time>
      </trkpt>
      <trkpt lat="46.16211" lon="5.41102">
        <ele>386</ele>
        <time>2022-07-23T13:38:35Z</time>
      </trkpt>
      <trkpt lat="46.16235" lon="5.41098">
        <ele>387</ele>
        <time>2022-07-23T13:38:41Z</time>
      </trkpt>
      <trkpt lat="46.16246" lon="5.41094">
        <ele>387.4</ele>
        <time>2022-07-23T13:38:44Z</time>
      </trkpt>
      <trkpt lat="46.16261" lon="5.41085">
        <ele>388</ele>
        <time>2022-07-23T13:38:48Z</time>
      </trkpt>
      <trkpt lat="46.16275" lon="5.41074">
        <ele>389</ele>
        <time>2022-07-23T13:38:52Z</time>
      </trkpt>
      <trkpt lat="46.16278" lon="5.41072">
        <ele>389</ele>
        <time>2022-07-23T13:38:53Z</time>
      </trkpt>
      <trkpt lat="46.16298" lon="5.41051">
        <ele>390</ele>
        <time>2022-07-23T13:38:59Z</time>
      </trkpt>
      <trkpt lat="46.16305" lon="5.41044">
        <ele>390.6</ele>
        <time>2022-07-23T13:39:01Z</time>
      </trkpt>
      <trkpt lat="46.16315" lon="5.41034">
        <ele>391</ele>
        <time>2022-07-23T13:39:04Z</time>
      </trkpt>
      <trkpt lat="46.16341" lon="5.41013">
        <ele>392</ele>
        <time>2022-07-23T13:39:11Z</time>
      </trkpt>
      <trkpt lat="46.16344" lon="5.41011">
        <ele>392.2</ele>
        <time>2022-07-23T13:39:12Z</time>
      </trkpt>
      <trkpt lat="46.16351" lon="5.41006">
        <ele>392.8</ele>
        <time>2022-07-23T13:39:14Z</time>
      </trkpt>
      <trkpt lat="46.16358" lon="5.41002">
        <ele>393.2</ele>
        <time>2022-07-23T13:39:16Z</time>
      </trkpt>
      <trkpt lat="46.16365" lon="5.40998">
        <ele>394</ele>
        <time>2022-07-23T13:39:18Z</time>
      </trkpt>
      <trkpt lat="46.16368" lon="5.40996">
        <ele>394.2</ele>
        <time>2022-07-23T13:39:19Z</time>
      </trkpt>
      <trkpt lat="46.16381" lon="5.40988">
        <ele>395.4</ele>
        <time>2022-07-23T13:39:23Z</time>
      </trkpt>
      <trkpt lat="46.16384" lon="5.40986">
        <ele>395.6</ele>
        <time>2022-07-23T13:39:24Z</time>
      </trkpt>
      <trkpt lat="46.16392" lon="5.40977">
        <ele>396.6</ele>
        <time>2022-07-23T13:39:27Z</time>
      </trkpt>
      <trkpt lat="46.16405" lon="5.40964">
        <ele>397.8</ele>
        <time>2022-07-23T13:39:31Z</time>
      </trkpt>
      <trkpt lat="46.16414" lon="5.40954">
        <ele>398.6</ele>
        <time>2022-07-23T13:39:34Z</time>
      </trkpt>
      <trkpt lat="46.16417" lon="5.40949">
        <ele>399</ele>
        <time>2022-07-23T13:39:35Z</time>
      </trkpt>
      <trkpt lat="46.16428" lon="5.4093">
        <ele>400</ele>
        <time>2022-07-23T13:39:39Z</time>
      </trkpt>
      <trkpt lat="46.16431" lon="5.40925">
        <ele>400.4</ele>
        <time>2022-07-23T13:39:40Z</time>
      </trkpt>
      <trkpt lat="46.16438" lon="5.40909">
        <ele>401.2</ele>
        <time>2022-07-23T13:39:43Z</time>
      </trkpt>
      <trkpt lat="46.16445" lon="5.4088">
        <ele>402</ele>
        <time>2022-07-23T13:39:48Z</time>
      </trkpt>
      <trkpt lat="46.16447" lon="5.40867">
        <ele>402.4</ele>
        <time>2022-07-23T13:39:50Z</time>
      </trkpt>
      <trkpt lat="46.16449" lon="5.40855">
        <ele>402.6</ele>
        <time>2022-07-23T13:39:52Z</time>
      </trkpt>
      <trkpt lat="46.16451" lon="5.40835">
        <ele>402.8</ele>
        <time>2022-07-23T13:39:55Z</time>
      </trkpt>
      <trkpt lat="46.16454" lon="5.40775">
        <ele>403</ele>
        <time>2022-07-23T13:40:03Z</time>
      </trkpt>
      <trkpt lat="46.16462" lon="5.40721">
        <ele>402.2</ele>
        <time>2022-07-23T13:40:09Z</time>
      </trkpt>
      <trkpt lat="46.16465" lon="5.40712">
        <ele>402.2</ele>
        <time>2022-07-23T13:40:10Z</time>
      </trkpt>
      <trkpt lat="46.16477" lon="5.40686">
        <ele>401.6</ele>
        <time>2022-07-23T13:40:13Z</time>
      </trkpt>
      <trkpt lat="46.16482" lon="5.40678">
        <ele>401</ele>
        <time>2022-07-23T13:40:14Z</time>
      </trkpt>
      <trkpt lat="46.16494" lon="5.40662">
        <ele>399.8</ele>
        <time>2022-07-23T13:40:16Z</time>
      </trkpt>
      <trkpt lat="46.16507" lon="5.40648">
        <ele>399.4</ele>
        <time>2022-07-23T13:40:18Z</time>
      </trkpt>
      <trkpt lat="46.16522" lon="5.40637">
        <ele>398.8</ele>
        <time>2022-07-23T13:40:20Z</time>
      </trkpt>
      <trkpt lat="46.16537" lon="5.40626">
        <ele>397.6</ele>
        <time>2022-07-23T13:40:22Z</time>
      </trkpt>
      <trkpt lat="46.16553" lon="5.40614">
        <ele>396.4</ele>
        <time>2022-07-23T13:40:24Z</time>
      </trkpt>
      <trkpt lat="46.16561" lon="5.40608">
        <ele>395.2</ele>
        <time>2022-07-23T13:40:25Z</time>
      </trkpt>
      <trkpt lat="46.16578" lon="5.40596">
        <ele>394</ele>
        <time>2022-07-23T13:40:27Z</time>
      </trkpt>
      <trkpt lat="46.16596" lon="5.40587">
        <ele>393.6</ele>
        <time>2022-07-23T13:40:29Z</time>
      </trkpt>
      <trkpt lat="46.16616" lon="5.40583">
        <ele>392.8</ele>
        <time>2022-07-23T13:40:31Z</time>
      </trkpt>
      <trkpt lat="46.16638" lon="5.40584">
        <ele>392.2</ele>
        <time>2022-07-23T13:40:33Z</time>
      </trkpt>
      <trkpt lat="46.16661" lon="5.40593">
        <ele>391.4</ele>
        <time>2022-07-23T13:40:35Z</time>
      </trkpt>
      <trkpt lat="46.16671" lon="5.40599">
        <ele>390.6</ele>
        <time>2022-07-23T13:40:36Z</time>
      </trkpt>
      <trkpt lat="46.16681" lon="5.40606">
        <ele>390.2</ele>
        <time>2022-07-23T13:40:37Z</time>
      </trkpt>
      <trkpt lat="46.16701" lon="5.40619">
        <ele>388.6</ele>
        <time>2022-07-23T13:40:39Z</time>
      </trkpt>
      <trkpt lat="46.16725" lon="5.4063">
        <ele>387</ele>
        <time>2022-07-23T13:40:41Z</time>
      </trkpt>
      <trkpt lat="46.16749" lon="5.40635">
        <ele>385.8</ele>
        <time>2022-07-23T13:40:43Z</time>
      </trkpt>
      <trkpt lat="46.16762" lon="5.40635">
        <ele>385.2</ele>
        <time>2022-07-23T13:40:44Z</time>
      </trkpt>
      <trkpt lat="46.16775" lon="5.40634">
        <ele>384.4</ele>
        <time>2022-07-23T13:40:45Z</time>
      </trkpt>
      <trkpt lat="46.16799" lon="5.40627">
        <ele>383.4</ele>
        <time>2022-07-23T13:40:47Z</time>
      </trkpt>
      <trkpt lat="46.16809" lon="5.4062">
        <ele>382.4</ele>
        <time>2022-07-23T13:40:48Z</time>
      </trkpt>
      <trkpt lat="46.16828" lon="5.40605">
        <ele>381</ele>
        <time>2022-07-23T13:40:50Z</time>
      </trkpt>
      <trkpt lat="46.1685" lon="5.40589">
        <ele>379.4</ele>
        <time>2022-07-23T13:40:52Z</time>
      </trkpt>
      <trkpt lat="46.16882" lon="5.40566">
        <ele>377.8</ele>
        <time>2022-07-23T13:40:55Z</time>
      </trkpt>
      <trkpt lat="46.16904" lon="5.40552">
        <ele>376.4</ele>
        <time>2022-07-23T13:40:57Z</time>
      </trkpt>
      <trkpt lat="46.16927" lon="5.40538">
        <ele>375.2</ele>
        <time>2022-07-23T13:40:59Z</time>
      </trkpt>
      <trkpt lat="46.16949" lon="5.40523">
        <ele>373.8</ele>
        <time>2022-07-23T13:41:01Z</time>
      </trkpt>
      <trkpt lat="46.16969" lon="5.40504">
        <ele>372.8</ele>
        <time>2022-07-23T13:41:03Z</time>
      </trkpt>
      <trkpt lat="46.16979" lon="5.40494">
        <ele>371.8</ele>
        <time>2022-07-23T13:41:04Z</time>
      </trkpt>
      <trkpt lat="46.16996" lon="5.4047">
        <ele>370.4</ele>
        <time>2022-07-23T13:41:06Z</time>
      </trkpt>
      <trkpt lat="46.17003" lon="5.40456">
        <ele>369.8</ele>
        <time>2022-07-23T13:41:07Z</time>
      </trkpt>
      <trkpt lat="46.17015" lon="5.40427">
        <ele>368.6</ele>
        <time>2022-07-23T13:41:09Z</time>
      </trkpt>
      <trkpt lat="46.17023" lon="5.40396">
        <ele>367.4</ele>
        <time>2022-07-23T13:41:11Z</time>
      </trkpt>
      <trkpt lat="46.17029" lon="5.40363">
        <ele>365.8</ele>
        <time>2022-07-23T13:41:13Z</time>
      </trkpt>
      <trkpt lat="46.17031" lon="5.40346">
        <ele>365</ele>
        <time>2022-07-23T13:41:14Z</time>
      </trkpt>
      <trkpt lat="46.17032" lon="5.40329">
        <ele>364.6</ele>
        <time>2022-07-23T13:41:15Z</time>
      </trkpt>
      <trkpt lat="46.1703" lon="5.40296">
        <ele>363.4</ele>
        <time>2022-07-23T13:41:17Z</time>
      </trkpt>
      <trkpt lat="46.17023" lon="5.40263">
        <ele>362.2</ele>
        <time>2022-07-23T13:41:19Z</time>
      </trkpt>
      <trkpt lat="46.17012" lon="5.40233">
        <ele>360.8</ele>
        <time>2022-07-23T13:41:21Z</time>
      </trkpt>
      <trkpt lat="46.17004" lon="5.4022">
        <ele>360.2</ele>
        <time>2022-07-23T13:41:22Z</time>
      </trkpt>
      <trkpt lat="46.16996" lon="5.40208">
        <ele>359.2</ele>
        <time>2022-07-23T13:41:23Z</time>
      </trkpt>
      <trkpt lat="46.16977" lon="5.40186">
        <ele>358</ele>
        <time>2022-07-23T13:41:25Z</time>
      </trkpt>
      <trkpt lat="46.16944" lon="5.40164">
        <ele>356.4</ele>
        <time>2022-07-23T13:41:28Z</time>
      </trkpt>
      <trkpt lat="46.16933" lon="5.40157">
        <ele>355.4</ele>
        <time>2022-07-23T13:41:29Z</time>
      </trkpt>
      <trkpt lat="46.16921" lon="5.40151">
        <ele>354.6</ele>
        <time>2022-07-23T13:41:30Z</time>
      </trkpt>
      <trkpt lat="46.16899" lon="5.40139">
        <ele>352.8</ele>
        <time>2022-07-23T13:41:32Z</time>
      </trkpt>
      <trkpt lat="46.16887" lon="5.40134">
        <ele>352.4</ele>
        <time>2022-07-23T13:41:33Z</time>
      </trkpt>
      <trkpt lat="46.16875" lon="5.40128">
        <ele>351.6</ele>
        <time>2022-07-23T13:41:34Z</time>
      </trkpt>
      <trkpt lat="46.1684" lon="5.40112">
        <ele>350.2</ele>
        <time>2022-07-23T13:41:37Z</time>
      </trkpt>
      <trkpt lat="46.16806" lon="5.401">
        <ele>348.6</ele>
        <time>2022-07-23T13:41:40Z</time>
      </trkpt>
      <trkpt lat="46.16767" lon="5.40091">
        <ele>347</ele>
        <time>2022-07-23T13:41:43Z</time>
      </trkpt>
      <trkpt lat="46.16755" lon="5.4009">
        <ele>346.4</ele>
        <time>2022-07-23T13:41:44Z</time>
      </trkpt>
      <trkpt lat="46.16731" lon="5.40088">
        <ele>345.2</ele>
        <time>2022-07-23T13:41:46Z</time>
      </trkpt>
      <trkpt lat="46.16707" lon="5.40089">
        <ele>344</ele>
        <time>2022-07-23T13:41:48Z</time>
      </trkpt>
      <trkpt lat="46.16682" lon="5.40089">
        <ele>342.6</ele>
        <time>2022-07-23T13:41:50Z</time>
      </trkpt>
      <trkpt lat="46.16658" lon="5.40087">
        <ele>341.4</ele>
        <time>2022-07-23T13:41:52Z</time>
      </trkpt>
      <trkpt lat="46.16635" lon="5.40078">
        <ele>340.4</ele>
        <time>2022-07-23T13:41:54Z</time>
      </trkpt>
      <trkpt lat="46.16613" lon="5.40061">
        <ele>339.4</ele>
        <time>2022-07-23T13:41:56Z</time>
      </trkpt>
      <trkpt lat="46.16604" lon="5.4005">
        <ele>338.8</ele>
        <time>2022-07-23T13:41:57Z</time>
      </trkpt>
      <trkpt lat="46.16594" lon="5.40037">
        <ele>337.6</ele>
        <time>2022-07-23T13:41:58Z</time>
      </trkpt>
      <trkpt lat="46.16578" lon="5.4001">
        <ele>335.4</ele>
        <time>2022-07-23T13:42:00Z</time>
      </trkpt>
      <trkpt lat="46.1657" lon="5.39997">
        <ele>335</ele>
        <time>2022-07-23T13:42:01Z</time>
      </trkpt>
      <trkpt lat="46.16563" lon="5.39983">
        <ele>334.4</ele>
        <time>2022-07-23T13:42:02Z</time>
      </trkpt>
      <trkpt lat="46.16549" lon="5.39954">
        <ele>333.2</ele>
        <time>2022-07-23T13:42:04Z</time>
      </trkpt>
      <trkpt lat="46.16542" lon="5.39939">
        <ele>332</ele>
        <time>2022-07-23T13:42:05Z</time>
      </trkpt>
      <trkpt lat="46.16529" lon="5.39908">
        <ele>330.4</ele>
        <time>2022-07-23T13:42:07Z</time>
      </trkpt>
      <trkpt lat="46.16515" lon="5.39879">
        <ele>329.4</ele>
        <time>2022-07-23T13:42:09Z</time>
      </trkpt>
      <trkpt lat="46.16493" lon="5.39835">
        <ele>328</ele>
        <time>2022-07-23T13:42:12Z</time>
      </trkpt>
      <trkpt lat="46.16481" lon="5.39802">
        <ele>327</ele>
        <time>2022-07-23T13:42:14Z</time>
      </trkpt>
      <trkpt lat="46.16469" lon="5.39769">
        <ele>326</ele>
        <time>2022-07-23T13:42:16Z</time>
      </trkpt>
      <trkpt lat="46.16463" lon="5.39753">
        <ele>325.4</ele>
        <time>2022-07-23T13:42:17Z</time>
      </trkpt>
      <trkpt lat="46.16448" lon="5.39723">
        <ele>323.4</ele>
        <time>2022-07-23T13:42:19Z</time>
      </trkpt>
      <trkpt lat="46.16439" lon="5.39709">
        <ele>323</ele>
        <time>2022-07-23T13:42:20Z</time>
      </trkpt>
      <trkpt lat="46.1643" lon="5.39696">
        <ele>322</ele>
        <time>2022-07-23T13:42:21Z</time>
      </trkpt>
      <trkpt lat="46.1641" lon="5.39671">
        <ele>320.6</ele>
        <time>2022-07-23T13:42:23Z</time>
      </trkpt>
      <trkpt lat="46.16399" lon="5.39661">
        <ele>320.2</ele>
        <time>2022-07-23T13:42:24Z</time>
      </trkpt>
      <trkpt lat="46.16388" lon="5.39651">
        <ele>319.4</ele>
        <time>2022-07-23T13:42:25Z</time>
      </trkpt>
      <trkpt lat="46.16365" lon="5.39634">
        <ele>318</ele>
        <time>2022-07-23T13:42:27Z</time>
      </trkpt>
      <trkpt lat="46.1634" lon="5.39617">
        <ele>316.8</ele>
        <time>2022-07-23T13:42:29Z</time>
      </trkpt>
      <trkpt lat="46.16328" lon="5.39609">
        <ele>315.6</ele>
        <time>2022-07-23T13:42:30Z</time>
      </trkpt>
      <trkpt lat="46.16304" lon="5.39592">
        <ele>313.8</ele>
        <time>2022-07-23T13:42:32Z</time>
      </trkpt>
      <trkpt lat="46.1628" lon="5.39578">
        <ele>312.4</ele>
        <time>2022-07-23T13:42:34Z</time>
      </trkpt>
      <trkpt lat="46.16269" lon="5.39571">
        <ele>311.6</ele>
        <time>2022-07-23T13:42:35Z</time>
      </trkpt>
      <trkpt lat="46.16257" lon="5.39563">
        <ele>311</ele>
        <time>2022-07-23T13:42:36Z</time>
      </trkpt>
      <trkpt lat="46.16234" lon="5.39547">
        <ele>309.6</ele>
        <time>2022-07-23T13:42:38Z</time>
      </trkpt>
      <trkpt lat="46.1621" lon="5.3953">
        <ele>308.4</ele>
        <time>2022-07-23T13:42:40Z</time>
      </trkpt>
      <trkpt lat="46.16188" lon="5.39511">
        <ele>307</ele>
        <time>2022-07-23T13:42:42Z</time>
      </trkpt>
      <trkpt lat="46.16165" lon="5.39493">
        <ele>305.8</ele>
        <time>2022-07-23T13:42:44Z</time>
      </trkpt>
      <trkpt lat="46.16143" lon="5.39474">
        <ele>304.8</ele>
        <time>2022-07-23T13:42:46Z</time>
      </trkpt>
      <trkpt lat="46.16115" lon="5.39448">
        <ele>303.6</ele>
        <time>2022-07-23T13:42:49Z</time>
      </trkpt>
      <trkpt lat="46.16107" lon="5.3944">
        <ele>303.4</ele>
        <time>2022-07-23T13:42:50Z</time>
      </trkpt>
      <trkpt lat="46.16094" lon="5.39426">
        <ele>302.4</ele>
        <time>2022-07-23T13:42:52Z</time>
      </trkpt>
      <trkpt lat="46.16088" lon="5.3942">
        <ele>301.6</ele>
        <time>2022-07-23T13:42:53Z</time>
      </trkpt>
      <trkpt lat="46.16083" lon="5.39404">
        <ele>301</ele>
        <time>2022-07-23T13:42:55Z</time>
      </trkpt>
      <trkpt lat="46.16083" lon="5.39396">
        <ele>300.6</ele>
        <time>2022-07-23T13:42:56Z</time>
      </trkpt>
      <trkpt lat="46.16088" lon="5.39391">
        <ele>300.4</ele>
        <time>2022-07-23T13:42:57Z</time>
      </trkpt>
      <trkpt lat="46.16093" lon="5.39388">
        <ele>300</ele>
        <time>2022-07-23T13:42:58Z</time>
      </trkpt>
      <trkpt lat="46.16099" lon="5.39387">
        <ele>299.6</ele>
        <time>2022-07-23T13:42:59Z</time>
      </trkpt>
      <trkpt lat="46.16113" lon="5.39389">
        <ele>298.8</ele>
        <time>2022-07-23T13:43:01Z</time>
      </trkpt>
      <trkpt lat="46.16119" lon="5.3939">
        <ele>298.2</ele>
        <time>2022-07-23T13:43:02Z</time>
      </trkpt>
      <trkpt lat="46.1617" lon="5.39393">
        <ele>298</ele>
        <time>2022-07-23T13:43:10Z</time>
      </trkpt>
      <trkpt lat="46.16214" lon="5.39393">
        <ele>299.4</ele>
        <time>2022-07-23T13:43:17Z</time>
      </trkpt>
      <trkpt lat="46.16242" lon="5.39393">
        <ele>300.4</ele>
        <time>2022-07-23T13:43:22Z</time>
      </trkpt>
      <trkpt lat="46.16264" lon="5.39395">
        <ele>300.8</ele>
        <time>2022-07-23T13:43:26Z</time>
      </trkpt>
      <trkpt lat="46.16269" lon="5.39396">
        <ele>300.8</ele>
        <time>2022-07-23T13:43:27Z</time>
      </trkpt>
      <trkpt lat="46.16296" lon="5.39403">
        <ele>301.2</ele>
        <time>2022-07-23T13:43:32Z</time>
      </trkpt>
      <trkpt lat="46.16312" lon="5.39407">
        <ele>301.6</ele>
        <time>2022-07-23T13:43:35Z</time>
      </trkpt>
      <trkpt lat="46.16352" lon="5.3942">
        <ele>302.6</ele>
        <time>2022-07-23T13:43:42Z</time>
      </trkpt>
      <trkpt lat="46.164" lon="5.39444">
        <ele>302.6</ele>
        <time>2022-07-23T13:43:50Z</time>
      </trkpt>
      <trkpt lat="46.16458" lon="5.39472">
        <ele>302.2</ele>
        <time>2022-07-23T13:43:59Z</time>
      </trkpt>
      <trkpt lat="46.16464" lon="5.39476">
        <ele>302</ele>
        <time>2022-07-23T13:44:00Z</time>
      </trkpt>
      <trkpt lat="46.16507" lon="5.39497">
        <ele>301.8</ele>
        <time>2022-07-23T13:44:07Z</time>
      </trkpt>
      <trkpt lat="46.16565" lon="5.39514">
        <ele>302.2</ele>
        <time>2022-07-23T13:44:16Z</time>
      </trkpt>
      <trkpt lat="46.16623" lon="5.39516">
        <ele>302</ele>
        <time>2022-07-23T13:44:25Z</time>
      </trkpt>
      <trkpt lat="46.16684" lon="5.39515">
        <ele>301.6</ele>
        <time>2022-07-23T13:44:34Z</time>
      </trkpt>
      <trkpt lat="46.16698" lon="5.39517">
        <ele>301.8</ele>
        <time>2022-07-23T13:44:36Z</time>
      </trkpt>
      <trkpt lat="46.16756" lon="5.39526">
        <ele>301.4</ele>
        <time>2022-07-23T13:44:44Z</time>
      </trkpt>
      <trkpt lat="46.16815" lon="5.39534">
        <ele>301.2</ele>
        <time>2022-07-23T13:44:52Z</time>
      </trkpt>
      <trkpt lat="46.16823" lon="5.39536">
        <ele>301.2</ele>
        <time>2022-07-23T13:44:53Z</time>
      </trkpt>
      <trkpt lat="46.16845" lon="5.39538">
        <ele>300.8</ele>
        <time>2022-07-23T13:44:56Z</time>
      </trkpt>
      <trkpt lat="46.16903" lon="5.39548">
        <ele>300.2</ele>
        <time>2022-07-23T13:45:04Z</time>
      </trkpt>
      <trkpt lat="46.16947" lon="5.39553">
        <ele>299.8</ele>
        <time>2022-07-23T13:45:10Z</time>
      </trkpt>
      <trkpt lat="46.16989" lon="5.39558">
        <ele>299.2</ele>
        <time>2022-07-23T13:45:16Z</time>
      </trkpt>
      <trkpt lat="46.17048" lon="5.39564">
        <ele>298.8</ele>
        <time>2022-07-23T13:45:24Z</time>
      </trkpt>
      <trkpt lat="46.17063" lon="5.39566">
        <ele>298.8</ele>
        <time>2022-07-23T13:45:26Z</time>
      </trkpt>
      <trkpt lat="46.17071" lon="5.39567">
        <ele>298.8</ele>
        <time>2022-07-23T13:45:27Z</time>
      </trkpt>
      <trkpt lat="46.17102" lon="5.3957">
        <ele>297.6</ele>
        <time>2022-07-23T13:45:31Z</time>
      </trkpt>
      <trkpt lat="46.17125" lon="5.39572">
        <ele>297.4</ele>
        <time>2022-07-23T13:45:34Z</time>
      </trkpt>
      <trkpt lat="46.17179" lon="5.39577">
        <ele>296.6</ele>
        <time>2022-07-23T13:45:41Z</time>
      </trkpt>
      <trkpt lat="46.17215" lon="5.3958">
        <ele>296.6</ele>
        <time>2022-07-23T13:45:46Z</time>
      </trkpt>
      <trkpt lat="46.17273" lon="5.39585">
        <ele>296.6</ele>
        <time>2022-07-23T13:45:54Z</time>
      </trkpt>
      <trkpt lat="46.1728" lon="5.39586">
        <ele>296.6</ele>
        <time>2022-07-23T13:45:55Z</time>
      </trkpt>
      <trkpt lat="46.17339" lon="5.3959">
        <ele>296.2</ele>
        <time>2022-07-23T13:46:03Z</time>
      </trkpt>
      <trkpt lat="46.17368" lon="5.39592">
        <ele>296.4</ele>
        <time>2022-07-23T13:46:07Z</time>
      </trkpt>
      <trkpt lat="46.17423" lon="5.39596">
        <ele>296</ele>
        <time>2022-07-23T13:46:15Z</time>
      </trkpt>
      <trkpt lat="46.17438" lon="5.39597">
        <ele>295.8</ele>
        <time>2022-07-23T13:46:17Z</time>
      </trkpt>
      <trkpt lat="46.17494" lon="5.39599">
        <ele>295.6</ele>
        <time>2022-07-23T13:46:25Z</time>
      </trkpt>
      <trkpt lat="46.17508" lon="5.39599">
        <ele>295.6</ele>
        <time>2022-07-23T13:46:27Z</time>
      </trkpt>
      <trkpt lat="46.17566" lon="5.39599">
        <ele>295.4</ele>
        <time>2022-07-23T13:46:35Z</time>
      </trkpt>
      <trkpt lat="46.17581" lon="5.39598">
        <ele>295.6</ele>
        <time>2022-07-23T13:46:37Z</time>
      </trkpt>
      <trkpt lat="46.17636" lon="5.39602">
        <ele>296.2</ele>
        <time>2022-07-23T13:46:45Z</time>
      </trkpt>
      <trkpt lat="46.17643" lon="5.39602">
        <ele>296</ele>
        <time>2022-07-23T13:46:46Z</time>
      </trkpt>
      <trkpt lat="46.17649" lon="5.39603">
        <ele>296</ele>
        <time>2022-07-23T13:46:47Z</time>
      </trkpt>
      <trkpt lat="46.17707" lon="5.39611">
        <ele>296.4</ele>
        <time>2022-07-23T13:46:56Z</time>
      </trkpt>
      <trkpt lat="46.17751" lon="5.39617">
        <ele>297</ele>
        <time>2022-07-23T13:47:03Z</time>
      </trkpt>
      <trkpt lat="46.17784" lon="5.39621">
        <ele>297</ele>
        <time>2022-07-23T13:47:08Z</time>
      </trkpt>
      <trkpt lat="46.17816" lon="5.39623">
        <ele>297.2</ele>
        <time>2022-07-23T13:47:13Z</time>
      </trkpt>
      <trkpt lat="46.17873" lon="5.39619">
        <ele>297</ele>
        <time>2022-07-23T13:47:21Z</time>
      </trkpt>
      <trkpt lat="46.17928" lon="5.39612">
        <ele>296.6</ele>
        <time>2022-07-23T13:47:29Z</time>
      </trkpt>
      <trkpt lat="46.17974" lon="5.39614">
        <ele>297.8</ele>
        <time>2022-07-23T13:47:36Z</time>
      </trkpt>
      <trkpt lat="46.18033" lon="5.39615">
        <ele>297.6</ele>
        <time>2022-07-23T13:47:45Z</time>
      </trkpt>
      <trkpt lat="46.18046" lon="5.39616">
        <ele>297.6</ele>
        <time>2022-07-23T13:47:47Z</time>
      </trkpt>
      <trkpt lat="46.18104" lon="5.39624">
        <ele>297.2</ele>
        <time>2022-07-23T13:47:56Z</time>
      </trkpt>
      <trkpt lat="46.18161" lon="5.39634">
        <ele>297</ele>
        <time>2022-07-23T13:48:05Z</time>
      </trkpt>
      <trkpt lat="46.18168" lon="5.39636">
        <ele>297.2</ele>
        <time>2022-07-23T13:48:06Z</time>
      </trkpt>
      <trkpt lat="46.18227" lon="5.39645">
        <ele>297.6</ele>
        <time>2022-07-23T13:48:15Z</time>
      </trkpt>
      <trkpt lat="46.18233" lon="5.39646">
        <ele>297.4</ele>
        <time>2022-07-23T13:48:16Z</time>
      </trkpt>
      <trkpt lat="46.18279" lon="5.39655">
        <ele>297.2</ele>
        <time>2022-07-23T13:48:23Z</time>
      </trkpt>
      <trkpt lat="46.18338" lon="5.39665">
        <ele>297.2</ele>
        <time>2022-07-23T13:48:32Z</time>
      </trkpt>
      <trkpt lat="46.1835" lon="5.39666">
        <ele>297.2</ele>
        <time>2022-07-23T13:48:34Z</time>
      </trkpt>
      <trkpt lat="46.18394" lon="5.39659">
        <ele>297.2</ele>
        <time>2022-07-23T13:48:41Z</time>
      </trkpt>
      <trkpt lat="46.18439" lon="5.39651">
        <ele>297.4</ele>
        <time>2022-07-23T13:48:48Z</time>
      </trkpt>
      <trkpt lat="46.1849" lon="5.39641">
        <ele>297.8</ele>
        <time>2022-07-23T13:48:56Z</time>
      </trkpt>
      <trkpt lat="46.18496" lon="5.39641">
        <ele>297.8</ele>
        <time>2022-07-23T13:48:57Z</time>
      </trkpt>
      <trkpt lat="46.18546" lon="5.39642">
        <ele>298</ele>
        <time>2022-07-23T13:49:05Z</time>
      </trkpt>
      <trkpt lat="46.1857" lon="5.39647">
        <ele>298.2</ele>
        <time>2022-07-23T13:49:09Z</time>
      </trkpt>
      <trkpt lat="46.18588" lon="5.39651">
        <ele>298.4</ele>
        <time>2022-07-23T13:49:12Z</time>
      </trkpt>
      <trkpt lat="46.18645" lon="5.39672">
        <ele>298.4</ele>
        <time>2022-07-23T13:49:21Z</time>
      </trkpt>
      <trkpt lat="46.18652" lon="5.39675">
        <ele>298.4</ele>
        <time>2022-07-23T13:49:22Z</time>
      </trkpt>
      <trkpt lat="46.18701" lon="5.39701">
        <ele>299</ele>
        <time>2022-07-23T13:49:30Z</time>
      </trkpt>
      <trkpt lat="46.18746" lon="5.39718">
        <ele>299.2</ele>
        <time>2022-07-23T13:49:37Z</time>
      </trkpt>
      <trkpt lat="46.18753" lon="5.39719">
        <ele>299.2</ele>
        <time>2022-07-23T13:49:38Z</time>
      </trkpt>
      <trkpt lat="46.18779" lon="5.39718">
        <ele>299.2</ele>
        <time>2022-07-23T13:49:42Z</time>
      </trkpt>
      <trkpt lat="46.18836" lon="5.3972">
        <ele>299.4</ele>
        <time>2022-07-23T13:49:51Z</time>
      </trkpt>
      <trkpt lat="46.18843" lon="5.3972">
        <ele>299.4</ele>
        <time>2022-07-23T13:49:52Z</time>
      </trkpt>
      <trkpt lat="46.18894" lon="5.39722">
        <ele>299.4</ele>
        <time>2022-07-23T13:50:00Z</time>
      </trkpt>
      <trkpt lat="46.18945" lon="5.39725">
        <ele>299.2</ele>
        <time>2022-07-23T13:50:08Z</time>
      </trkpt>
      <trkpt lat="46.18986" lon="5.39726">
        <ele>299.2</ele>
        <time>2022-07-23T13:50:14Z</time>
      </trkpt>
      <trkpt lat="46.18993" lon="5.39727">
        <ele>299.2</ele>
        <time>2022-07-23T13:50:15Z</time>
      </trkpt>
      <trkpt lat="46.1904" lon="5.3973">
        <ele>299.4</ele>
        <time>2022-07-23T13:50:22Z</time>
      </trkpt>
      <trkpt lat="46.19053" lon="5.39731">
        <ele>299.4</ele>
        <time>2022-07-23T13:50:24Z</time>
      </trkpt>
      <trkpt lat="46.19086" lon="5.39733">
        <ele>299.8</ele>
        <time>2022-07-23T13:50:29Z</time>
      </trkpt>
      <trkpt lat="46.19098" lon="5.39734">
        <ele>299.8</ele>
        <time>2022-07-23T13:50:31Z</time>
      </trkpt>
      <trkpt lat="46.19124" lon="5.39738">
        <ele>299.8</ele>
        <time>2022-07-23T13:50:35Z</time>
      </trkpt>
      <trkpt lat="46.19174" lon="5.39747">
        <ele>299.6</ele>
        <time>2022-07-23T13:50:43Z</time>
      </trkpt>
      <trkpt lat="46.1923" lon="5.39759">
        <ele>300</ele>
        <time>2022-07-23T13:50:52Z</time>
      </trkpt>
      <trkpt lat="46.19236" lon="5.3976">
        <ele>300</ele>
        <time>2022-07-23T13:50:53Z</time>
      </trkpt>
      <trkpt lat="46.19243" lon="5.39762">
        <ele>300</ele>
        <time>2022-07-23T13:50:54Z</time>
      </trkpt>
      <trkpt lat="46.19255" lon="5.39768">
        <ele>300</ele>
        <time>2022-07-23T13:50:56Z</time>
      </trkpt>
      <trkpt lat="46.19267" lon="5.39777">
        <ele>300</ele>
        <time>2022-07-23T13:50:58Z</time>
      </trkpt>
      <trkpt lat="46.19311" lon="5.39818">
        <ele>300</ele>
        <time>2022-07-23T13:51:06Z</time>
      </trkpt>
      <trkpt lat="46.19317" lon="5.39823">
        <ele>300</ele>
        <time>2022-07-23T13:51:07Z</time>
      </trkpt>
      <trkpt lat="46.19348" lon="5.39843">
        <ele>299.8</ele>
        <time>2022-07-23T13:51:12Z</time>
      </trkpt>
      <trkpt lat="46.19396" lon="5.39873">
        <ele>299.8</ele>
        <time>2022-07-23T13:51:20Z</time>
      </trkpt>
      <trkpt lat="46.19431" lon="5.39889">
        <ele>300.2</ele>
        <time>2022-07-23T13:51:26Z</time>
      </trkpt>
      <trkpt lat="46.19437" lon="5.39893">
        <ele>300.2</ele>
        <time>2022-07-23T13:51:27Z</time>
      </trkpt>
      <trkpt lat="46.1945" lon="5.39908">
        <ele>300.4</ele>
        <time>2022-07-23T13:51:30Z</time>
      </trkpt>
      <trkpt lat="46.19459" lon="5.39922">
        <ele>300.6</ele>
        <time>2022-07-23T13:51:32Z</time>
      </trkpt>
      <trkpt lat="46.19475" lon="5.3995">
        <ele>300.6</ele>
        <time>2022-07-23T13:51:36Z</time>
      </trkpt>
      <trkpt lat="46.19478" lon="5.39958">
        <ele>300.8</ele>
        <time>2022-07-23T13:51:37Z</time>
      </trkpt>
      <trkpt lat="46.1948" lon="5.39966">
        <ele>300.8</ele>
        <time>2022-07-23T13:51:38Z</time>
      </trkpt>
      <trkpt lat="46.19494" lon="5.39994">
        <ele>300.8</ele>
        <time>2022-07-23T13:51:42Z</time>
      </trkpt>
      <trkpt lat="46.19505" lon="5.40013">
        <ele>301.2</ele>
        <time>2022-07-23T13:51:45Z</time>
      </trkpt>
      <trkpt lat="46.19518" lon="5.4003">
        <ele>301.6</ele>
        <time>2022-07-23T13:51:48Z</time>
      </trkpt>
      <trkpt lat="46.19534" lon="5.40054">
        <ele>302</ele>
        <time>2022-07-23T13:51:52Z</time>
      </trkpt>
      <trkpt lat="46.19541" lon="5.40066">
        <ele>302</ele>
        <time>2022-07-23T13:51:54Z</time>
      </trkpt>
      <trkpt lat="46.19557" lon="5.40089">
        <ele>302.2</ele>
        <time>2022-07-23T13:51:58Z</time>
      </trkpt>
      <trkpt lat="46.19563" lon="5.40102">
        <ele>302.6</ele>
        <time>2022-07-23T13:52:00Z</time>
      </trkpt>
      <trkpt lat="46.19566" lon="5.40108">
        <ele>302.8</ele>
        <time>2022-07-23T13:52:01Z</time>
      </trkpt>
      <trkpt lat="46.19586" lon="5.40145">
        <ele>303.8</ele>
        <time>2022-07-23T13:52:07Z</time>
      </trkpt>
      <trkpt lat="46.19595" lon="5.40165">
        <ele>304</ele>
        <time>2022-07-23T13:52:10Z</time>
      </trkpt>
      <trkpt lat="46.19603" lon="5.40184">
        <ele>304.4</ele>
        <time>2022-07-23T13:52:13Z</time>
      </trkpt>
      <trkpt lat="46.19617" lon="5.40217">
        <ele>305.2</ele>
        <time>2022-07-23T13:52:18Z</time>
      </trkpt>
      <trkpt lat="46.19629" lon="5.40244">
        <ele>305.8</ele>
        <time>2022-07-23T13:52:22Z</time>
      </trkpt>
      <trkpt lat="46.19657" lon="5.40311">
        <ele>306</ele>
        <time>2022-07-23T13:52:32Z</time>
      </trkpt>
      <trkpt lat="46.19663" lon="5.40324">
        <ele>306.2</ele>
        <time>2022-07-23T13:52:34Z</time>
      </trkpt>
      <trkpt lat="46.19678" lon="5.40357">
        <ele>307.2</ele>
        <time>2022-07-23T13:52:39Z</time>
      </trkpt>
      <trkpt lat="46.19684" lon="5.4037">
        <ele>307.4</ele>
        <time>2022-07-23T13:52:41Z</time>
      </trkpt>
      <trkpt lat="46.19709" lon="5.40402">
        <ele>307.4</ele>
        <time>2022-07-23T13:52:47Z</time>
      </trkpt>
      <trkpt lat="46.19745" lon="5.40434">
        <ele>308</ele>
        <time>2022-07-23T13:52:54Z</time>
      </trkpt>
      <trkpt lat="46.19761" lon="5.40447">
        <ele>308.2</ele>
        <time>2022-07-23T13:52:57Z</time>
      </trkpt>
      <trkpt lat="46.19782" lon="5.40463">
        <ele>308.4</ele>
        <time>2022-07-23T13:53:01Z</time>
      </trkpt>
      <trkpt lat="46.1982" lon="5.40499">
        <ele>308.8</ele>
        <time>2022-07-23T13:53:09Z</time>
      </trkpt>
      <trkpt lat="46.19851" lon="5.40548">
        <ele>309</ele>
        <time>2022-07-23T13:53:17Z</time>
      </trkpt>
      <trkpt lat="46.19867" lon="5.40572">
        <ele>309.4</ele>
        <time>2022-07-23T13:53:21Z</time>
      </trkpt>
      <trkpt lat="46.19881" lon="5.4059">
        <ele>309.6</ele>
        <time>2022-07-23T13:53:24Z</time>
      </trkpt>
      <trkpt lat="46.19917" lon="5.40634">
        <ele>309.6</ele>
        <time>2022-07-23T13:53:32Z</time>
      </trkpt>
      <trkpt lat="46.19951" lon="5.40695">
        <ele>310.4</ele>
        <time>2022-07-23T13:53:41Z</time>
      </trkpt>
      <trkpt lat="46.19961" lon="5.40722">
        <ele>311.2</ele>
        <time>2022-07-23T13:53:45Z</time>
      </trkpt>
      <trkpt lat="46.19964" lon="5.40729">
        <ele>311.6</ele>
        <time>2022-07-23T13:53:46Z</time>
      </trkpt>
      <trkpt lat="46.19967" lon="5.40736">
        <ele>312</ele>
        <time>2022-07-23T13:53:47Z</time>
      </trkpt>
      <trkpt lat="46.19972" lon="5.40749">
        <ele>312.2</ele>
        <time>2022-07-23T13:53:49Z</time>
      </trkpt>
      <trkpt lat="46.19982" lon="5.40767">
        <ele>312.8</ele>
        <time>2022-07-23T13:53:52Z</time>
      </trkpt>
      <trkpt lat="46.19985" lon="5.40773">
        <ele>313</ele>
        <time>2022-07-23T13:53:53Z</time>
      </trkpt>
      <trkpt lat="46.20004" lon="5.40802">
        <ele>314</ele>
        <time>2022-07-23T13:53:58Z</time>
      </trkpt>
      <trkpt lat="46.20009" lon="5.40807">
        <ele>314.2</ele>
        <time>2022-07-23T13:53:59Z</time>
      </trkpt>
      <trkpt lat="46.20025" lon="5.4083">
        <ele>314.8</ele>
        <time>2022-07-23T13:54:03Z</time>
      </trkpt>
      <trkpt lat="46.20034" lon="5.40841">
        <ele>315</ele>
        <time>2022-07-23T13:54:05Z</time>
      </trkpt>
      <trkpt lat="46.20039" lon="5.40846">
        <ele>315</ele>
        <time>2022-07-23T13:54:06Z</time>
      </trkpt>
      <trkpt lat="46.20052" lon="5.40862">
        <ele>315.2</ele>
        <time>2022-07-23T13:54:09Z</time>
      </trkpt>
      <trkpt lat="46.2007" lon="5.40885">
        <ele>315.4</ele>
        <time>2022-07-23T13:54:13Z</time>
      </trkpt>
      <trkpt lat="46.20105" lon="5.40926">
        <ele>315.6</ele>
        <time>2022-07-23T13:54:21Z</time>
      </trkpt>
      <trkpt lat="46.20116" lon="5.40939">
        <ele>316</ele>
        <time>2022-07-23T13:54:24Z</time>
      </trkpt>
      <trkpt lat="46.20131" lon="5.40956">
        <ele>317.4</ele>
        <time>2022-07-23T13:54:28Z</time>
      </trkpt>
      <trkpt lat="46.20135" lon="5.4096">
        <ele>317.8</ele>
        <time>2022-07-23T13:54:29Z</time>
      </trkpt>
      <trkpt lat="46.20154" lon="5.40983">
        <ele>318.4</ele>
        <time>2022-07-23T13:54:34Z</time>
      </trkpt>
      <trkpt lat="46.20157" lon="5.40987">
        <ele>318.8</ele>
        <time>2022-07-23T13:54:35Z</time>
      </trkpt>
      <trkpt lat="46.20164" lon="5.40997">
        <ele>319</ele>
        <time>2022-07-23T13:54:37Z</time>
      </trkpt>
      <trkpt lat="46.2019" lon="5.41025">
        <ele>319.2</ele>
        <time>2022-07-23T13:54:43Z</time>
      </trkpt>
      <trkpt lat="46.20205" lon="5.41034">
        <ele>319.2</ele>
        <time>2022-07-23T13:54:46Z</time>
      </trkpt>
      <trkpt lat="46.20217" lon="5.41035">
        <ele>319.2</ele>
        <time>2022-07-23T13:54:48Z</time>
      </trkpt>
      <trkpt lat="46.20257" lon="5.4103">
        <ele>318.6</ele>
        <time>2022-07-23T13:54:54Z</time>
      </trkpt>
      <trkpt lat="46.20264" lon="5.4103">
        <ele>318.4</ele>
        <time>2022-07-23T13:54:55Z</time>
      </trkpt>
      <trkpt lat="46.20288" lon="5.41033">
        <ele>317.4</ele>
        <time>2022-07-23T13:54:58Z</time>
      </trkpt>
      <trkpt lat="46.20296" lon="5.41037">
        <ele>316.6</ele>
        <time>2022-07-23T13:54:59Z</time>
      </trkpt>
      <trkpt lat="46.20304" lon="5.41041">
        <ele>316.4</ele>
        <time>2022-07-23T13:55:00Z</time>
      </trkpt>
      <trkpt lat="46.20319" lon="5.41052">
        <ele>315.2</ele>
        <time>2022-07-23T13:55:02Z</time>
      </trkpt>
      <trkpt lat="46.20339" lon="5.41073">
        <ele>314.2</ele>
        <time>2022-07-23T13:55:05Z</time>
      </trkpt>
      <trkpt lat="46.2035" lon="5.41087">
        <ele>313.8</ele>
        <time>2022-07-23T13:55:07Z</time>
      </trkpt>
      <trkpt lat="46.20383" lon="5.41137">
        <ele>313.8</ele>
        <time>2022-07-23T13:55:14Z</time>
      </trkpt>
      <trkpt lat="46.2041" lon="5.41174">
        <ele>315.2</ele>
        <time>2022-07-23T13:55:20Z</time>
      </trkpt>
      <trkpt lat="46.20431" lon="5.41192">
        <ele>316.4</ele>
        <time>2022-07-23T13:55:24Z</time>
      </trkpt>
      <trkpt lat="46.20437" lon="5.41196">
        <ele>316.6</ele>
        <time>2022-07-23T13:55:25Z</time>
      </trkpt>
      <trkpt lat="46.20448" lon="5.41201">
        <ele>317.8</ele>
        <time>2022-07-23T13:55:27Z</time>
      </trkpt>
      <trkpt lat="46.20481" lon="5.41215">
        <ele>318.6</ele>
        <time>2022-07-23T13:55:33Z</time>
      </trkpt>
      <trkpt lat="46.20498" lon="5.41221">
        <ele>318.8</ele>
        <time>2022-07-23T13:55:36Z</time>
      </trkpt>
      <trkpt lat="46.2054" lon="5.41236">
        <ele>319.8</ele>
        <time>2022-07-23T13:55:43Z</time>
      </trkpt>
      <trkpt lat="46.20552" lon="5.4124">
        <ele>320</ele>
        <time>2022-07-23T13:55:45Z</time>
      </trkpt>
      <trkpt lat="46.20602" lon="5.41262">
        <ele>320.8</ele>
        <time>2022-07-23T13:55:54Z</time>
      </trkpt>
      <trkpt lat="46.20607" lon="5.41265">
        <ele>321</ele>
        <time>2022-07-23T13:55:55Z</time>
      </trkpt>
      <trkpt lat="46.20639" lon="5.41284">
        <ele>321.8</ele>
        <time>2022-07-23T13:56:01Z</time>
      </trkpt>
      <trkpt lat="46.20643" lon="5.41289">
        <ele>321.8</ele>
        <time>2022-07-23T13:56:02Z</time>
      </trkpt>
      <trkpt lat="46.20647" lon="5.41294">
        <ele>322</ele>
        <time>2022-07-23T13:56:03Z</time>
      </trkpt>
      <trkpt lat="46.2066" lon="5.4131">
        <ele>322.4</ele>
        <time>2022-07-23T13:56:06Z</time>
      </trkpt>
      <trkpt lat="46.20671" lon="5.41318">
        <ele>322.4</ele>
        <time>2022-07-23T13:56:08Z</time>
      </trkpt>
      <trkpt lat="46.20708" lon="5.41336">
        <ele>322.4</ele>
        <time>2022-07-23T13:56:13Z</time>
      </trkpt>
      <trkpt lat="46.20747" lon="5.41358">
        <ele>320.8</ele>
        <time>2022-07-23T13:56:18Z</time>
      </trkpt>
      <trkpt lat="46.20771" lon="5.41372">
        <ele>320</ele>
        <time>2022-07-23T13:56:21Z</time>
      </trkpt>
      <trkpt lat="46.20779" lon="5.41377">
        <ele>319.6</ele>
        <time>2022-07-23T13:56:22Z</time>
      </trkpt>
      <trkpt lat="46.20803" lon="5.41388">
        <ele>318.8</ele>
        <time>2022-07-23T13:56:25Z</time>
      </trkpt>
      <trkpt lat="46.20811" lon="5.4139">
        <ele>318.6</ele>
        <time>2022-07-23T13:56:26Z</time>
      </trkpt>
      <trkpt lat="46.2082" lon="5.41392">
        <ele>318.6</ele>
        <time>2022-07-23T13:56:27Z</time>
      </trkpt>
      <trkpt lat="46.20865" lon="5.414">
        <ele>318.2</ele>
        <time>2022-07-23T13:56:33Z</time>
      </trkpt>
      <trkpt lat="46.20907" lon="5.41408">
        <ele>319.4</ele>
        <time>2022-07-23T13:56:39Z</time>
      </trkpt>
      <trkpt lat="46.20934" lon="5.41409">
        <ele>320</ele>
        <time>2022-07-23T13:56:43Z</time>
      </trkpt>
      <trkpt lat="46.20956" lon="5.41413">
        <ele>320.6</ele>
        <time>2022-07-23T13:56:46Z</time>
      </trkpt>
      <trkpt lat="46.21007" lon="5.4143">
        <ele>321</ele>
        <time>2022-07-23T13:56:53Z</time>
      </trkpt>
      <trkpt lat="46.21065" lon="5.41449">
        <ele>320.4</ele>
        <time>2022-07-23T13:57:01Z</time>
      </trkpt>
      <trkpt lat="46.21115" lon="5.41464">
        <ele>319.6</ele>
        <time>2022-07-23T13:57:08Z</time>
      </trkpt>
      <trkpt lat="46.21153" lon="5.41482">
        <ele>320.2</ele>
        <time>2022-07-23T13:57:14Z</time>
      </trkpt>
      <trkpt lat="46.21196" lon="5.41515">
        <ele>320.6</ele>
        <time>2022-07-23T13:57:21Z</time>
      </trkpt>
      <trkpt lat="46.21242" lon="5.41543">
        <ele>320</ele>
        <time>2022-07-23T13:57:28Z</time>
      </trkpt>
      <trkpt lat="46.21285" lon="5.41576">
        <ele>319.2</ele>
        <time>2022-07-23T13:57:34Z</time>
      </trkpt>
      <trkpt lat="46.21323" lon="5.41598">
        <ele>318.8</ele>
        <time>2022-07-23T13:57:39Z</time>
      </trkpt>
      <trkpt lat="46.21346" lon="5.41611">
        <ele>318.4</ele>
        <time>2022-07-23T13:57:42Z</time>
      </trkpt>
      <trkpt lat="46.21385" lon="5.41638">
        <ele>317.6</ele>
        <time>2022-07-23T13:57:47Z</time>
      </trkpt>
      <trkpt lat="46.214" lon="5.4165">
        <ele>316.8</ele>
        <time>2022-07-23T13:57:49Z</time>
      </trkpt>
      <trkpt lat="46.21415" lon="5.41662">
        <ele>316.4</ele>
        <time>2022-07-23T13:57:51Z</time>
      </trkpt>
      <trkpt lat="46.21431" lon="5.41673">
        <ele>316</ele>
        <time>2022-07-23T13:57:53Z</time>
      </trkpt>
      <trkpt lat="46.21439" lon="5.41676">
        <ele>316</ele>
        <time>2022-07-23T13:57:54Z</time>
      </trkpt>
      <trkpt lat="46.21476" lon="5.41688">
        <ele>315.6</ele>
        <time>2022-07-23T13:57:59Z</time>
      </trkpt>
      <trkpt lat="46.21512" lon="5.41705">
        <ele>316.2</ele>
        <time>2022-07-23T13:58:04Z</time>
      </trkpt>
      <trkpt lat="46.21541" lon="5.41722">
        <ele>317.4</ele>
        <time>2022-07-23T13:58:09Z</time>
      </trkpt>
      <trkpt lat="46.21589" lon="5.41746">
        <ele>318.4</ele>
        <time>2022-07-23T13:58:17Z</time>
      </trkpt>
      <trkpt lat="46.21607" lon="5.41757">
        <ele>318.6</ele>
        <time>2022-07-23T13:58:20Z</time>
      </trkpt>
      <trkpt lat="46.21613" lon="5.41761">
        <ele>318.6</ele>
        <time>2022-07-23T13:58:21Z</time>
      </trkpt>
      <trkpt lat="46.21626" lon="5.41769">
        <ele>318.6</ele>
        <time>2022-07-23T13:58:23Z</time>
      </trkpt>
      <trkpt lat="46.21646" lon="5.41783">
        <ele>318</ele>
        <time>2022-07-23T13:58:26Z</time>
      </trkpt>
      <trkpt lat="46.21651" lon="5.41785">
        <ele>318</ele>
        <time>2022-07-23T13:58:27Z</time>
      </trkpt>
      <trkpt lat="46.21656" lon="5.41784">
        <ele>317.8</ele>
        <time>2022-07-23T13:58:28Z</time>
      </trkpt>
      <trkpt lat="46.21666" lon="5.41779">
        <ele>317.6</ele>
        <time>2022-07-23T13:58:30Z</time>
      </trkpt>
      <trkpt lat="46.21671" lon="5.41778">
        <ele>317.4</ele>
        <time>2022-07-23T13:58:31Z</time>
      </trkpt>
      <trkpt lat="46.21702" lon="5.41778">
        <ele>316.8</ele>
        <time>2022-07-23T13:58:36Z</time>
      </trkpt>
      <trkpt lat="46.21716" lon="5.4178">
        <ele>316.2</ele>
        <time>2022-07-23T13:58:38Z</time>
      </trkpt>
      <trkpt lat="46.21732" lon="5.41783">
        <ele>315.2</ele>
        <time>2022-07-23T13:58:40Z</time>
      </trkpt>
      <trkpt lat="46.21748" lon="5.41786">
        <ele>314.2</ele>
        <time>2022-07-23T13:58:42Z</time>
      </trkpt>
      <trkpt lat="46.21757" lon="5.41787">
        <ele>314</ele>
        <time>2022-07-23T13:58:43Z</time>
      </trkpt>
      <trkpt lat="46.21772" lon="5.41789">
        <ele>313</ele>
        <time>2022-07-23T13:58:45Z</time>
      </trkpt>
      <trkpt lat="46.21802" lon="5.41792">
        <ele>312.2</ele>
        <time>2022-07-23T13:58:49Z</time>
      </trkpt>
      <trkpt lat="46.21826" lon="5.41795">
        <ele>312</ele>
        <time>2022-07-23T13:58:52Z</time>
      </trkpt>
      <trkpt lat="46.2184" lon="5.41803">
        <ele>311.6</ele>
        <time>2022-07-23T13:58:54Z</time>
      </trkpt>
      <trkpt lat="46.21855" lon="5.41812">
        <ele>310.6</ele>
        <time>2022-07-23T13:58:56Z</time>
      </trkpt>
      <trkpt lat="46.21886" lon="5.41824">
        <ele>309.2</ele>
        <time>2022-07-23T13:59:00Z</time>
      </trkpt>
      <trkpt lat="46.21893" lon="5.41826">
        <ele>309</ele>
        <time>2022-07-23T13:59:01Z</time>
      </trkpt>
      <trkpt lat="46.21901" lon="5.41826">
        <ele>308.8</ele>
        <time>2022-07-23T13:59:02Z</time>
      </trkpt>
      <trkpt lat="46.21926" lon="5.4182">
        <ele>308.4</ele>
        <time>2022-07-23T13:59:05Z</time>
      </trkpt>
      <trkpt lat="46.21934" lon="5.41818">
        <ele>308.2</ele>
        <time>2022-07-23T13:59:06Z</time>
      </trkpt>
      <trkpt lat="46.2197" lon="5.41811">
        <ele>306.8</ele>
        <time>2022-07-23T13:59:10Z</time>
      </trkpt>
      <trkpt lat="46.22011" lon="5.41815">
        <ele>305.8</ele>
        <time>2022-07-23T13:59:15Z</time>
      </trkpt>
      <trkpt lat="46.22041" lon="5.4182">
        <ele>305.8</ele>
        <time>2022-07-23T13:59:19Z</time>
      </trkpt>
      <trkpt lat="46.22048" lon="5.41822">
        <ele>305.8</ele>
        <time>2022-07-23T13:59:20Z</time>
      </trkpt>
      <trkpt lat="46.22083" lon="5.41824">
        <ele>306.6</ele>
        <time>2022-07-23T13:59:25Z</time>
      </trkpt>
      <trkpt lat="46.22138" lon="5.41832">
        <ele>307</ele>
        <time>2022-07-23T13:59:33Z</time>
      </trkpt>
      <trkpt lat="46.22164" lon="5.41836">
        <ele>307.2</ele>
        <time>2022-07-23T13:59:37Z</time>
      </trkpt>
      <trkpt lat="46.22181" lon="5.41844">
        <ele>308</ele>
        <time>2022-07-23T13:59:40Z</time>
      </trkpt>
      <trkpt lat="46.22213" lon="5.41863">
        <ele>308.4</ele>
        <time>2022-07-23T13:59:46Z</time>
      </trkpt>
      <trkpt lat="46.22243" lon="5.41877">
        <ele>308.4</ele>
        <time>2022-07-23T13:59:51Z</time>
      </trkpt>
      <trkpt lat="46.22253" lon="5.41882">
        <ele>308.4</ele>
        <time>2022-07-23T13:59:53Z</time>
      </trkpt>
      <trkpt lat="46.22306" lon="5.41909">
        <ele>308.4</ele>
        <time>2022-07-23T14:00:02Z</time>
      </trkpt>
      <trkpt lat="46.22318" lon="5.41914">
        <ele>308.4</ele>
        <time>2022-07-23T14:00:04Z</time>
      </trkpt>
      <trkpt lat="46.22364" lon="5.41935">
        <ele>309</ele>
        <time>2022-07-23T14:00:12Z</time>
      </trkpt>
      <trkpt lat="46.22369" lon="5.41937">
        <ele>309</ele>
        <time>2022-07-23T14:00:13Z</time>
      </trkpt>
      <trkpt lat="46.22397" lon="5.4195">
        <ele>309.6</ele>
        <time>2022-07-23T14:00:19Z</time>
      </trkpt>
      <trkpt lat="46.22407" lon="5.41954">
        <ele>309.8</ele>
        <time>2022-07-23T14:00:22Z</time>
      </trkpt>
      <trkpt lat="46.22409" lon="5.41952">
        <ele>309.8</ele>
        <time>2022-07-23T14:00:23Z</time>
      </trkpt>
      <trkpt lat="46.22416" lon="5.41928">
        <ele>309.8</ele>
        <time>2022-07-23T14:00:27Z</time>
      </trkpt>
      <trkpt lat="46.22423" lon="5.41902">
        <ele>309.6</ele>
        <time>2022-07-23T14:00:30Z</time>
      </trkpt>
      <trkpt lat="46.22428" lon="5.41884">
        <ele>309.2</ele>
        <time>2022-07-23T14:00:32Z</time>
      </trkpt>
      <trkpt lat="46.2243" lon="5.41875">
        <ele>308.6</ele>
        <time>2022-07-23T14:00:33Z</time>
      </trkpt>
      <trkpt lat="46.22436" lon="5.41847">
        <ele>307.8</ele>
        <time>2022-07-23T14:00:36Z</time>
      </trkpt>
      <trkpt lat="46.22439" lon="5.41837">
        <ele>307.6</ele>
        <time>2022-07-23T14:00:37Z</time>
      </trkpt>
      <trkpt lat="46.22447" lon="5.41803">
        <ele>306.8</ele>
        <time>2022-07-23T14:00:41Z</time>
      </trkpt>
      <trkpt lat="46.22449" lon="5.41797">
        <ele>306.6</ele>
        <time>2022-07-23T14:00:42Z</time>
      </trkpt>
      <trkpt lat="46.22454" lon="5.4178">
        <ele>306.6</ele>
        <time>2022-07-23T14:00:47Z</time>
      </trkpt>
      <trkpt lat="46.22461" lon="5.4176">
        <ele>307.2</ele>
        <time>2022-07-23T14:00:54Z</time>
      </trkpt>
      <trkpt lat="46.22465" lon="5.41737">
        <ele>307</ele>
        <time>2022-07-23T14:00:58Z</time>
      </trkpt>
      <trkpt lat="46.22467" lon="5.41731">
        <ele>307</ele>
        <time>2022-07-23T14:00:59Z</time>
      </trkpt>
      <trkpt lat="46.22476" lon="5.41694">
        <ele>306.6</ele>
        <time>2022-07-23T14:01:04Z</time>
      </trkpt>
      <trkpt lat="46.22483" lon="5.41668">
        <ele>306.6</ele>
        <time>2022-07-23T14:01:08Z</time>
      </trkpt>
      <trkpt lat="46.22485" lon="5.41663">
        <ele>306.8</ele>
        <time>2022-07-23T14:01:09Z</time>
      </trkpt>
      <trkpt lat="46.22487" lon="5.41658">
        <ele>306.8</ele>
        <time>2022-07-23T14:01:10Z</time>
      </trkpt>
      <trkpt lat="46.22491" lon="5.41644">
        <ele>307.2</ele>
        <time>2022-07-23T14:01:13Z</time>
      </trkpt>
      <trkpt lat="46.2249" lon="5.41631">
        <ele>307.8</ele>
        <time>2022-07-23T14:01:16Z</time>
      </trkpt>
      <trkpt lat="46.2249" lon="5.41628">
        <ele>308</ele>
        <time>2022-07-23T14:01:18Z</time>
      </trkpt>
      <trkpt lat="46.2249" lon="5.41627">
        <ele>308.6</ele>
        <time>2022-07-23T14:01:21Z</time>
      </trkpt>
      <trkpt lat="46.2249" lon="5.41633">
        <ele>308.4</ele>
        <time>2022-07-23T14:03:06Z</time>
      </trkpt>
      <trkpt lat="46.22492" lon="5.41636">
        <ele>308.2</ele>
        <time>2022-07-23T14:03:07Z</time>
      </trkpt>
      <trkpt lat="46.22494" lon="5.41637">
        <ele>308.2</ele>
        <time>2022-07-23T14:03:08Z</time>
      </trkpt>
      <trkpt lat="46.22504" lon="5.41642">
        <ele>308.2</ele>
        <time>2022-07-23T14:03:11Z</time>
      </trkpt>
      <trkpt lat="46.22507" lon="5.41646">
        <ele>308</ele>
        <time>2022-07-23T14:03:15Z</time>
      </trkpt>
      <trkpt lat="46.22507" lon="5.41646">
        <ele>308</ele>
        <time>2022-07-23T14:03:16Z</time>
      </trkpt>
      <trkpt lat="46.2251" lon="5.41651">
        <ele>308.6</ele>
        <time>2022-07-23T14:03:57Z</time>
      </trkpt>
      <trkpt lat="46.22515" lon="5.41656">
        <ele>308.6</ele>
        <time>2022-07-23T14:03:59Z</time>
      </trkpt>
      <trkpt lat="46.22518" lon="5.41659">
        <ele>308.4</ele>
        <time>2022-07-23T14:04:00Z</time>
      </trkpt>
      <trkpt lat="46.22526" lon="5.41669">
        <ele>308.4</ele>
        <time>2022-07-23T14:04:03Z</time>
      </trkpt>
      <trkpt lat="46.2253" lon="5.41674">
        <ele>308.4</ele>
        <time>2022-07-23T14:04:04Z</time>
      </trkpt>
      <trkpt lat="46.22539" lon="5.41685">
        <ele>308.2</ele>
        <time>2022-07-23T14:04:06Z</time>
      </trkpt>
      <trkpt lat="46.22543" lon="5.41692">
        <ele>308.2</ele>
        <time>2022-07-23T14:04:07Z</time>
      </trkpt>
      <trkpt lat="46.22565" lon="5.41723">
        <ele>308.2</ele>
        <time>2022-07-23T14:04:12Z</time>
      </trkpt>
      <trkpt lat="46.2257" lon="5.41727">
        <ele>308.2</ele>
        <time>2022-07-23T14:04:13Z</time>
      </trkpt>
      <trkpt lat="46.22575" lon="5.41731">
        <ele>308.4</ele>
        <time>2022-07-23T14:04:14Z</time>
      </trkpt>
      <trkpt lat="46.22591" lon="5.41735">
        <ele>308.8</ele>
        <time>2022-07-23T14:04:17Z</time>
      </trkpt>
      <trkpt lat="46.22601" lon="5.41736">
        <ele>309</ele>
        <time>2022-07-23T14:04:19Z</time>
      </trkpt>
      <trkpt lat="46.22625" lon="5.4174">
        <ele>309.6</ele>
        <time>2022-07-23T14:04:24Z</time>
      </trkpt>
      <trkpt lat="46.2264" lon="5.41742">
        <ele>310.2</ele>
        <time>2022-07-23T14:04:27Z</time>
      </trkpt>
      <trkpt lat="46.22645" lon="5.41742">
        <ele>310.2</ele>
        <time>2022-07-23T14:04:28Z</time>
      </trkpt>
      <trkpt lat="46.22676" lon="5.41746">
        <ele>311</ele>
        <time>2022-07-23T14:04:34Z</time>
      </trkpt>
      <trkpt lat="46.22681" lon="5.41747">
        <ele>311.2</ele>
        <time>2022-07-23T14:04:35Z</time>
      </trkpt>
      <trkpt lat="46.22706" lon="5.4175">
        <ele>311.8</ele>
        <time>2022-07-23T14:04:40Z</time>
      </trkpt>
      <trkpt lat="46.22728" lon="5.4175">
        <ele>312.2</ele>
        <time>2022-07-23T14:04:44Z</time>
      </trkpt>
      <trkpt lat="46.22756" lon="5.41752">
        <ele>312.4</ele>
        <time>2022-07-23T14:04:49Z</time>
      </trkpt>
      <trkpt lat="46.22807" lon="5.4176">
        <ele>312.4</ele>
        <time>2022-07-23T14:04:58Z</time>
      </trkpt>
      <trkpt lat="46.22856" lon="5.41768">
        <ele>312</ele>
        <time>2022-07-23T14:05:06Z</time>
      </trkpt>
      <trkpt lat="46.22862" lon="5.4177">
        <ele>312</ele>
        <time>2022-07-23T14:05:07Z</time>
      </trkpt>
      <trkpt lat="46.22872" lon="5.41773">
        <ele>312</ele>
        <time>2022-07-23T14:05:09Z</time>
      </trkpt>
      <trkpt lat="46.22877" lon="5.41775">
        <ele>312</ele>
        <time>2022-07-23T14:05:10Z</time>
      </trkpt>
      <trkpt lat="46.22903" lon="5.41793">
        <ele>312.2</ele>
        <time>2022-07-23T14:05:15Z</time>
      </trkpt>
      <trkpt lat="46.22939" lon="5.41822">
        <ele>312.6</ele>
        <time>2022-07-23T14:05:22Z</time>
      </trkpt>
      <trkpt lat="46.22954" lon="5.41834">
        <ele>313.4</ele>
        <time>2022-07-23T14:05:25Z</time>
      </trkpt>
      <trkpt lat="46.22981" lon="5.41857">
        <ele>313.8</ele>
        <time>2022-07-23T14:05:30Z</time>
      </trkpt>
      <trkpt lat="46.23033" lon="5.41896">
        <ele>314</ele>
        <time>2022-07-23T14:05:39Z</time>
      </trkpt>
      <trkpt lat="46.23078" lon="5.41926">
        <ele>313.8</ele>
        <time>2022-07-23T14:05:46Z</time>
      </trkpt>
      <trkpt lat="46.2313" lon="5.41959">
        <ele>314.2</ele>
        <time>2022-07-23T14:05:55Z</time>
      </trkpt>
      <trkpt lat="46.23141" lon="5.41966">
        <ele>314.4</ele>
        <time>2022-07-23T14:05:57Z</time>
      </trkpt>
      <trkpt lat="46.23195" lon="5.41996">
        <ele>315.2</ele>
        <time>2022-07-23T14:06:06Z</time>
      </trkpt>
      <trkpt lat="46.23246" lon="5.42028">
        <ele>315.4</ele>
        <time>2022-07-23T14:06:15Z</time>
      </trkpt>
      <trkpt lat="46.23252" lon="5.42033">
        <ele>315.6</ele>
        <time>2022-07-23T14:06:16Z</time>
      </trkpt>
      <trkpt lat="46.23289" lon="5.42067">
        <ele>316.4</ele>
        <time>2022-07-23T14:06:23Z</time>
      </trkpt>
      <trkpt lat="46.23298" lon="5.42079">
        <ele>316.6</ele>
        <time>2022-07-23T14:06:25Z</time>
      </trkpt>
      <trkpt lat="46.23334" lon="5.42119">
        <ele>317</ele>
        <time>2022-07-23T14:06:32Z</time>
      </trkpt>
      <trkpt lat="46.2337" lon="5.42155">
        <ele>317</ele>
        <time>2022-07-23T14:06:38Z</time>
      </trkpt>
      <trkpt lat="46.23418" lon="5.42198">
        <ele>316.2</ele>
        <time>2022-07-23T14:06:45Z</time>
      </trkpt>
      <trkpt lat="46.23448" lon="5.42223">
        <ele>315.6</ele>
        <time>2022-07-23T14:06:49Z</time>
      </trkpt>
      <trkpt lat="46.2348" lon="5.42245">
        <ele>314.6</ele>
        <time>2022-07-23T14:06:53Z</time>
      </trkpt>
      <trkpt lat="46.23488" lon="5.42249">
        <ele>314.2</ele>
        <time>2022-07-23T14:06:54Z</time>
      </trkpt>
      <trkpt lat="46.23528" lon="5.42264">
        <ele>313.6</ele>
        <time>2022-07-23T14:06:59Z</time>
      </trkpt>
      <trkpt lat="46.23581" lon="5.42282">
        <ele>313.4</ele>
        <time>2022-07-23T14:07:06Z</time>
      </trkpt>
      <trkpt lat="46.23588" lon="5.42285">
        <ele>313.4</ele>
        <time>2022-07-23T14:07:07Z</time>
      </trkpt>
      <trkpt lat="46.23643" lon="5.42309">
        <ele>313.6</ele>
        <time>2022-07-23T14:07:14Z</time>
      </trkpt>
      <trkpt lat="46.23659" lon="5.42316">
        <ele>313.6</ele>
        <time>2022-07-23T14:07:16Z</time>
      </trkpt>
      <trkpt lat="46.23683" lon="5.42326">
        <ele>313.2</ele>
        <time>2022-07-23T14:07:19Z</time>
      </trkpt>
      <trkpt lat="46.23731" lon="5.42346">
        <ele>312.2</ele>
        <time>2022-07-23T14:07:25Z</time>
      </trkpt>
      <trkpt lat="46.2379" lon="5.42357">
        <ele>312</ele>
        <time>2022-07-23T14:07:32Z</time>
      </trkpt>
      <trkpt lat="46.23849" lon="5.42357">
        <ele>311.4</ele>
        <time>2022-07-23T14:07:39Z</time>
      </trkpt>
      <trkpt lat="46.23857" lon="5.42355">
        <ele>311.2</ele>
        <time>2022-07-23T14:07:40Z</time>
      </trkpt>
      <trkpt lat="46.23865" lon="5.42353">
        <ele>311.2</ele>
        <time>2022-07-23T14:07:41Z</time>
      </trkpt>
      <trkpt lat="46.23902" lon="5.42337">
        <ele>311</ele>
        <time>2022-07-23T14:07:46Z</time>
      </trkpt>
      <trkpt lat="46.23946" lon="5.42326">
        <ele>311</ele>
        <time>2022-07-23T14:07:52Z</time>
      </trkpt>
      <trkpt lat="46.23953" lon="5.42326">
        <ele>311</ele>
        <time>2022-07-23T14:07:53Z</time>
      </trkpt>
      <trkpt lat="46.24009" lon="5.42324">
        <ele>312</ele>
        <time>2022-07-23T14:08:01Z</time>
      </trkpt>
      <trkpt lat="46.24035" lon="5.42325">
        <ele>312.4</ele>
        <time>2022-07-23T14:08:05Z</time>
      </trkpt>
      <trkpt lat="46.24053" lon="5.42325">
        <ele>312.6</ele>
        <time>2022-07-23T14:08:08Z</time>
      </trkpt>
      <trkpt lat="46.24083" lon="5.42321">
        <ele>313.6</ele>
        <time>2022-07-23T14:08:13Z</time>
      </trkpt>
      <trkpt lat="46.24095" lon="5.42317">
        <ele>313.8</ele>
        <time>2022-07-23T14:08:15Z</time>
      </trkpt>
      <trkpt lat="46.24134" lon="5.42302">
        <ele>314.4</ele>
        <time>2022-07-23T14:08:22Z</time>
      </trkpt>
      <trkpt lat="46.2414" lon="5.42301">
        <ele>314.6</ele>
        <time>2022-07-23T14:08:23Z</time>
      </trkpt>
      <trkpt lat="46.2417" lon="5.423">
        <ele>315.6</ele>
        <time>2022-07-23T14:08:28Z</time>
      </trkpt>
      <trkpt lat="46.24176" lon="5.423">
        <ele>316</ele>
        <time>2022-07-23T14:08:29Z</time>
      </trkpt>
      <trkpt lat="46.2422" lon="5.42303">
        <ele>316.4</ele>
        <time>2022-07-23T14:08:36Z</time>
      </trkpt>
      <trkpt lat="46.24246" lon="5.42301">
        <ele>316.4</ele>
        <time>2022-07-23T14:08:40Z</time>
      </trkpt>
      <trkpt lat="46.24265" lon="5.423">
        <ele>316.4</ele>
        <time>2022-07-23T14:08:43Z</time>
      </trkpt>
      <trkpt lat="46.24295" lon="5.42298">
        <ele>317</ele>
        <time>2022-07-23T14:08:48Z</time>
      </trkpt>
      <trkpt lat="46.24301" lon="5.42297">
        <ele>317.2</ele>
        <time>2022-07-23T14:08:49Z</time>
      </trkpt>
      <trkpt lat="46.24323" lon="5.42294">
        <ele>317.6</ele>
        <time>2022-07-23T14:08:53Z</time>
      </trkpt>
      <trkpt lat="46.24381" lon="5.42292">
        <ele>318.2</ele>
        <time>2022-07-23T14:09:02Z</time>
      </trkpt>
      <trkpt lat="46.24418" lon="5.42291">
        <ele>318</ele>
        <time>2022-07-23T14:09:07Z</time>
      </trkpt>
      <trkpt lat="46.24461" lon="5.42292">
        <ele>317.6</ele>
        <time>2022-07-23T14:09:13Z</time>
      </trkpt>
      <trkpt lat="46.2452" lon="5.423">
        <ele>316.8</ele>
        <time>2022-07-23T14:09:21Z</time>
      </trkpt>
      <trkpt lat="46.24528" lon="5.42301">
        <ele>316.8</ele>
        <time>2022-07-23T14:09:22Z</time>
      </trkpt>
      <trkpt lat="46.24564" lon="5.42309">
        <ele>316.4</ele>
        <time>2022-07-23T14:09:27Z</time>
      </trkpt>
      <trkpt lat="46.24579" lon="5.42312">
        <ele>316.4</ele>
        <time>2022-07-23T14:09:29Z</time>
      </trkpt>
      <trkpt lat="46.24616" lon="5.42323">
        <ele>316</ele>
        <time>2022-07-23T14:09:35Z</time>
      </trkpt>
      <trkpt lat="46.24636" lon="5.4233">
        <ele>316.2</ele>
        <time>2022-07-23T14:09:39Z</time>
      </trkpt>
      <trkpt lat="46.24638" lon="5.42332">
        <ele>316.2</ele>
        <time>2022-07-23T14:09:40Z</time>
      </trkpt>
      <trkpt lat="46.24643" lon="5.42341">
        <ele>316.4</ele>
        <time>2022-07-23T14:09:43Z</time>
      </trkpt>
      <trkpt lat="46.24648" lon="5.42341">
        <ele>316.6</ele>
        <time>2022-07-23T14:09:45Z</time>
      </trkpt>
      <trkpt lat="46.24653" lon="5.4234">
        <ele>316.6</ele>
        <time>2022-07-23T14:09:46Z</time>
      </trkpt>
      <trkpt lat="46.24657" lon="5.42339">
        <ele>316.6</ele>
        <time>2022-07-23T14:09:47Z</time>
      </trkpt>
      <trkpt lat="46.24669" lon="5.42341">
        <ele>316.4</ele>
        <time>2022-07-23T14:09:49Z</time>
      </trkpt>
      <trkpt lat="46.24709" lon="5.42347">
        <ele>315.4</ele>
        <time>2022-07-23T14:09:55Z</time>
      </trkpt>
      <trkpt lat="46.2475" lon="5.42352">
        <ele>315.6</ele>
        <time>2022-07-23T14:10:01Z</time>
      </trkpt>
      <trkpt lat="46.24797" lon="5.42359">
        <ele>315.4</ele>
        <time>2022-07-23T14:10:08Z</time>
      </trkpt>
      <trkpt lat="46.24857" lon="5.42366">
        <ele>314.8</ele>
        <time>2022-07-23T14:10:17Z</time>
      </trkpt>
      <trkpt lat="46.24912" lon="5.42373">
        <ele>315.8</ele>
        <time>2022-07-23T14:10:25Z</time>
      </trkpt>
      <trkpt lat="46.2494" lon="5.42377">
        <ele>316.4</ele>
        <time>2022-07-23T14:10:29Z</time>
      </trkpt>
      <trkpt lat="46.24981" lon="5.42382">
        <ele>316.4</ele>
        <time>2022-07-23T14:10:35Z</time>
      </trkpt>
      <trkpt lat="46.25035" lon="5.42389">
        <ele>315.8</ele>
        <time>2022-07-23T14:10:43Z</time>
      </trkpt>
      <trkpt lat="46.25094" lon="5.42395">
        <ele>315.4</ele>
        <time>2022-07-23T14:10:52Z</time>
      </trkpt>
      <trkpt lat="46.251" lon="5.42396">
        <ele>315.4</ele>
        <time>2022-07-23T14:10:53Z</time>
      </trkpt>
      <trkpt lat="46.25159" lon="5.42404">
        <ele>315.8</ele>
        <time>2022-07-23T14:11:02Z</time>
      </trkpt>
      <trkpt lat="46.25219" lon="5.42412">
        <ele>316.8</ele>
        <time>2022-07-23T14:11:11Z</time>
      </trkpt>
      <trkpt lat="46.25239" lon="5.42415">
        <ele>316.4</ele>
        <time>2022-07-23T14:11:14Z</time>
      </trkpt>
      <trkpt lat="46.25298" lon="5.42424">
        <ele>316</ele>
        <time>2022-07-23T14:11:23Z</time>
      </trkpt>
      <trkpt lat="46.25305" lon="5.42426">
        <ele>316</ele>
        <time>2022-07-23T14:11:24Z</time>
      </trkpt>
      <trkpt lat="46.25359" lon="5.42434">
        <ele>316</ele>
        <time>2022-07-23T14:11:32Z</time>
      </trkpt>
      <trkpt lat="46.25386" lon="5.42438">
        <ele>316</ele>
        <time>2022-07-23T14:11:36Z</time>
      </trkpt>
      <trkpt lat="46.25446" lon="5.42447">
        <ele>316</ele>
        <time>2022-07-23T14:11:45Z</time>
      </trkpt>
      <trkpt lat="46.25504" lon="5.42456">
        <ele>317</ele>
        <time>2022-07-23T14:11:54Z</time>
      </trkpt>
      <trkpt lat="46.25511" lon="5.42457">
        <ele>317</ele>
        <time>2022-07-23T14:11:55Z</time>
      </trkpt>
      <trkpt lat="46.25565" lon="5.42466">
        <ele>317</ele>
        <time>2022-07-23T14:12:03Z</time>
      </trkpt>
      <trkpt lat="46.25585" lon="5.42469">
        <ele>317</ele>
        <time>2022-07-23T14:12:06Z</time>
      </trkpt>
      <trkpt lat="46.2564" lon="5.42478">
        <ele>316.2</ele>
        <time>2022-07-23T14:12:14Z</time>
      </trkpt>
      <trkpt lat="46.25647" lon="5.42479">
        <ele>316</ele>
        <time>2022-07-23T14:12:15Z</time>
      </trkpt>
      <trkpt lat="46.25701" lon="5.42488">
        <ele>315.8</ele>
        <time>2022-07-23T14:12:23Z</time>
      </trkpt>
      <trkpt lat="46.25707" lon="5.42489">
        <ele>315.8</ele>
        <time>2022-07-23T14:12:24Z</time>
      </trkpt>
      <trkpt lat="46.25764" lon="5.42497">
        <ele>317.2</ele>
        <time>2022-07-23T14:12:33Z</time>
      </trkpt>
      <trkpt lat="46.2582" lon="5.42508">
        <ele>317.4</ele>
        <time>2022-07-23T14:12:42Z</time>
      </trkpt>
      <trkpt lat="46.25833" lon="5.42509">
        <ele>317</ele>
        <time>2022-07-23T14:12:44Z</time>
      </trkpt>
      <trkpt lat="46.25839" lon="5.4251">
        <ele>317</ele>
        <time>2022-07-23T14:12:45Z</time>
      </trkpt>
      <trkpt lat="46.25882" lon="5.42517">
        <ele>317</ele>
        <time>2022-07-23T14:12:52Z</time>
      </trkpt>
      <trkpt lat="46.25907" lon="5.42521">
        <ele>318</ele>
        <time>2022-07-23T14:12:56Z</time>
      </trkpt>
      <trkpt lat="46.25933" lon="5.42525">
        <ele>318.6</ele>
        <time>2022-07-23T14:13:00Z</time>
      </trkpt>
      <trkpt lat="46.25987" lon="5.42534">
        <ele>318.2</ele>
        <time>2022-07-23T14:13:08Z</time>
      </trkpt>
      <trkpt lat="46.26046" lon="5.42543">
        <ele>317.6</ele>
        <time>2022-07-23T14:13:17Z</time>
      </trkpt>
      <trkpt lat="46.26085" lon="5.4255">
        <ele>317.6</ele>
        <time>2022-07-23T14:13:23Z</time>
      </trkpt>
      <trkpt lat="46.26144" lon="5.42559">
        <ele>317.8</ele>
        <time>2022-07-23T14:13:32Z</time>
      </trkpt>
      <trkpt lat="46.26195" lon="5.42565">
        <ele>318.2</ele>
        <time>2022-07-23T14:13:40Z</time>
      </trkpt>
      <trkpt lat="46.26237" lon="5.42571">
        <ele>318.4</ele>
        <time>2022-07-23T14:13:47Z</time>
      </trkpt>
      <trkpt lat="46.26276" lon="5.42576">
        <ele>318</ele>
        <time>2022-07-23T14:13:53Z</time>
      </trkpt>
      <trkpt lat="46.26315" lon="5.42582">
        <ele>317.8</ele>
        <time>2022-07-23T14:13:59Z</time>
      </trkpt>
      <trkpt lat="46.26334" lon="5.42585">
        <ele>318</ele>
        <time>2022-07-23T14:14:02Z</time>
      </trkpt>
      <trkpt lat="46.26352" lon="5.42587">
        <ele>318.4</ele>
        <time>2022-07-23T14:14:05Z</time>
      </trkpt>
      <trkpt lat="46.26382" lon="5.4259">
        <ele>319</ele>
        <time>2022-07-23T14:14:10Z</time>
      </trkpt>
      <trkpt lat="46.26394" lon="5.42591">
        <ele>319.2</ele>
        <time>2022-07-23T14:14:12Z</time>
      </trkpt>
      <trkpt lat="46.26404" lon="5.42591">
        <ele>319.2</ele>
        <time>2022-07-23T14:14:14Z</time>
      </trkpt>
      <trkpt lat="46.26414" lon="5.42593">
        <ele>319.4</ele>
        <time>2022-07-23T14:14:16Z</time>
      </trkpt>
      <trkpt lat="46.26418" lon="5.426">
        <ele>319.4</ele>
        <time>2022-07-23T14:14:18Z</time>
      </trkpt>
      <trkpt lat="46.26418" lon="5.42607">
        <ele>319.4</ele>
        <time>2022-07-23T14:14:19Z</time>
      </trkpt>
      <trkpt lat="46.26415" lon="5.42625">
        <ele>319.4</ele>
        <time>2022-07-23T14:14:21Z</time>
      </trkpt>
      <trkpt lat="46.26413" lon="5.4268">
        <ele>319.4</ele>
        <time>2022-07-23T14:14:27Z</time>
      </trkpt>
      <trkpt lat="46.26411" lon="5.42711">
        <ele>319.2</ele>
        <time>2022-07-23T14:14:30Z</time>
      </trkpt>
      <trkpt lat="46.26414" lon="5.42731">
        <ele>319</ele>
        <time>2022-07-23T14:14:32Z</time>
      </trkpt>
      <trkpt lat="46.26416" lon="5.42751">
        <ele>318.8</ele>
        <time>2022-07-23T14:14:34Z</time>
      </trkpt>
      <trkpt lat="46.26427" lon="5.42789">
        <ele>318.6</ele>
        <time>2022-07-23T14:14:38Z</time>
      </trkpt>
      <trkpt lat="46.26444" lon="5.42853">
        <ele>318.6</ele>
        <time>2022-07-23T14:14:45Z</time>
      </trkpt>
      <trkpt lat="46.26449" lon="5.429">
        <ele>318.6</ele>
        <time>2022-07-23T14:14:50Z</time>
      </trkpt>
      <trkpt lat="46.26449" lon="5.42972">
        <ele>318.8</ele>
        <time>2022-07-23T14:14:58Z</time>
      </trkpt>
      <trkpt lat="46.26449" lon="5.43021">
        <ele>319.8</ele>
        <time>2022-07-23T14:15:04Z</time>
      </trkpt>
      <trkpt lat="46.26449" lon="5.43028">
        <ele>320.2</ele>
        <time>2022-07-23T14:15:05Z</time>
      </trkpt>
      <trkpt lat="46.2645" lon="5.43035">
        <ele>320.4</ele>
        <time>2022-07-23T14:15:06Z</time>
      </trkpt>
      <trkpt lat="46.26454" lon="5.43047">
        <ele>320.8</ele>
        <time>2022-07-23T14:15:08Z</time>
      </trkpt>
      <trkpt lat="46.26463" lon="5.43053">
        <ele>321</ele>
        <time>2022-07-23T14:15:10Z</time>
      </trkpt>
      <trkpt lat="46.26469" lon="5.43055">
        <ele>321</ele>
        <time>2022-07-23T14:15:11Z</time>
      </trkpt>
      <trkpt lat="46.26474" lon="5.43056">
        <ele>321.2</ele>
        <time>2022-07-23T14:15:12Z</time>
      </trkpt>
      <trkpt lat="46.26504" lon="5.4306">
        <ele>321.6</ele>
        <time>2022-07-23T14:15:17Z</time>
      </trkpt>
      <trkpt lat="46.26555" lon="5.43068">
        <ele>322.2</ele>
        <time>2022-07-23T14:15:25Z</time>
      </trkpt>
      <trkpt lat="46.26561" lon="5.43069">
        <ele>322.4</ele>
        <time>2022-07-23T14:15:26Z</time>
      </trkpt>
      <trkpt lat="46.2661" lon="5.43078">
        <ele>322.2</ele>
        <time>2022-07-23T14:15:34Z</time>
      </trkpt>
      <trkpt lat="46.26657" lon="5.4309">
        <ele>323.4</ele>
        <time>2022-07-23T14:15:42Z</time>
      </trkpt>
      <trkpt lat="46.26662" lon="5.43093">
        <ele>323.6</ele>
        <time>2022-07-23T14:15:43Z</time>
      </trkpt>
      <trkpt lat="46.26684" lon="5.43105">
        <ele>324.4</ele>
        <time>2022-07-23T14:15:48Z</time>
      </trkpt>
      <trkpt lat="46.26688" lon="5.43108">
        <ele>324.8</ele>
        <time>2022-07-23T14:15:49Z</time>
      </trkpt>
      <trkpt lat="46.267" lon="5.43118">
        <ele>326</ele>
        <time>2022-07-23T14:15:53Z</time>
      </trkpt>
      <trkpt lat="46.26703" lon="5.4312">
        <ele>326.4</ele>
        <time>2022-07-23T14:15:54Z</time>
      </trkpt>
      <trkpt lat="46.26708" lon="5.43124">
        <ele>327.2</ele>
        <time>2022-07-23T14:15:56Z</time>
      </trkpt>
      <trkpt lat="46.26719" lon="5.43132">
        <ele>328.6</ele>
        <time>2022-07-23T14:16:00Z</time>
      </trkpt>
      <trkpt lat="46.26728" lon="5.43138">
        <ele>329.8</ele>
        <time>2022-07-23T14:16:03Z</time>
      </trkpt>
      <trkpt lat="46.26738" lon="5.43146">
        <ele>330.8</ele>
        <time>2022-07-23T14:16:07Z</time>
      </trkpt>
      <trkpt lat="46.26751" lon="5.43156">
        <ele>332.2</ele>
        <time>2022-07-23T14:16:12Z</time>
      </trkpt>
      <trkpt lat="46.26756" lon="5.4316">
        <ele>332.8</ele>
        <time>2022-07-23T14:16:14Z</time>
      </trkpt>
      <trkpt lat="46.26761" lon="5.43164">
        <ele>333.2</ele>
        <time>2022-07-23T14:16:16Z</time>
      </trkpt>
      <trkpt lat="46.26771" lon="5.43171">
        <ele>334.4</ele>
        <time>2022-07-23T14:16:20Z</time>
      </trkpt>
      <trkpt lat="46.2678" lon="5.43176">
        <ele>335.2</ele>
        <time>2022-07-23T14:16:23Z</time>
      </trkpt>
      <trkpt lat="46.26782" lon="5.43178">
        <ele>335.4</ele>
        <time>2022-07-23T14:16:24Z</time>
      </trkpt>
      <trkpt lat="46.26797" lon="5.4319">
        <ele>336.8</ele>
        <time>2022-07-23T14:16:29Z</time>
      </trkpt>
      <trkpt lat="46.26805" lon="5.43201">
        <ele>337.2</ele>
        <time>2022-07-23T14:16:32Z</time>
      </trkpt>
      <trkpt lat="46.26816" lon="5.43223">
        <ele>338</ele>
        <time>2022-07-23T14:16:37Z</time>
      </trkpt>
      <trkpt lat="46.2682" lon="5.43233">
        <ele>338</ele>
        <time>2022-07-23T14:16:39Z</time>
      </trkpt>
      <trkpt lat="46.26833" lon="5.43262">
        <ele>339</ele>
        <time>2022-07-23T14:16:45Z</time>
      </trkpt>
      <trkpt lat="46.26839" lon="5.43272">
        <ele>339.2</ele>
        <time>2022-07-23T14:16:47Z</time>
      </trkpt>
      <trkpt lat="46.26861" lon="5.43302">
        <ele>339.6</ele>
        <time>2022-07-23T14:16:53Z</time>
      </trkpt>
      <trkpt lat="46.26889" lon="5.43338">
        <ele>339.2</ele>
        <time>2022-07-23T14:16:59Z</time>
      </trkpt>
      <trkpt lat="46.26923" lon="5.43383">
        <ele>338</ele>
        <time>2022-07-23T14:17:05Z</time>
      </trkpt>
      <trkpt lat="46.26929" lon="5.43391">
        <ele>337.4</ele>
        <time>2022-07-23T14:17:06Z</time>
      </trkpt>
      <trkpt lat="46.26955" lon="5.43424">
        <ele>336.2</ele>
        <time>2022-07-23T14:17:10Z</time>
      </trkpt>
      <trkpt lat="46.26961" lon="5.43432">
        <ele>335.8</ele>
        <time>2022-07-23T14:17:11Z</time>
      </trkpt>
      <trkpt lat="46.26974" lon="5.43445">
        <ele>335.2</ele>
        <time>2022-07-23T14:17:13Z</time>
      </trkpt>
      <trkpt lat="46.26996" lon="5.43462">
        <ele>334.8</ele>
        <time>2022-07-23T14:17:16Z</time>
      </trkpt>
      <trkpt lat="46.27049" lon="5.43493">
        <ele>334.2</ele>
        <time>2022-07-23T14:17:23Z</time>
      </trkpt>
      <trkpt lat="46.27102" lon="5.43509">
        <ele>334.6</ele>
        <time>2022-07-23T14:17:30Z</time>
      </trkpt>
      <trkpt lat="46.27109" lon="5.43511">
        <ele>334.6</ele>
        <time>2022-07-23T14:17:31Z</time>
      </trkpt>
      <trkpt lat="46.27163" lon="5.4352">
        <ele>335</ele>
        <time>2022-07-23T14:17:38Z</time>
      </trkpt>
      <trkpt lat="46.27171" lon="5.43521">
        <ele>335</ele>
        <time>2022-07-23T14:17:39Z</time>
      </trkpt>
      <trkpt lat="46.27221" lon="5.43528">
        <ele>334.2</ele>
        <time>2022-07-23T14:17:45Z</time>
      </trkpt>
      <trkpt lat="46.2723" lon="5.43529">
        <ele>334</ele>
        <time>2022-07-23T14:17:46Z</time>
      </trkpt>
      <trkpt lat="46.27266" lon="5.43536">
        <ele>332.8</ele>
        <time>2022-07-23T14:17:50Z</time>
      </trkpt>
      <trkpt lat="46.27285" lon="5.43542">
        <ele>332.4</ele>
        <time>2022-07-23T14:17:52Z</time>
      </trkpt>
      <trkpt lat="46.27303" lon="5.43549">
        <ele>331.6</ele>
        <time>2022-07-23T14:17:54Z</time>
      </trkpt>
      <trkpt lat="46.27345" lon="5.43566">
        <ele>330.6</ele>
        <time>2022-07-23T14:17:59Z</time>
      </trkpt>
      <trkpt lat="46.27352" lon="5.4357">
        <ele>330.4</ele>
        <time>2022-07-23T14:18:00Z</time>
      </trkpt>
      <trkpt lat="46.27399" lon="5.43586">
        <ele>329.8</ele>
        <time>2022-07-23T14:18:06Z</time>
      </trkpt>
      <trkpt lat="46.27457" lon="5.43592">
        <ele>329.6</ele>
        <time>2022-07-23T14:18:13Z</time>
      </trkpt>
      <trkpt lat="46.27465" lon="5.43592">
        <ele>329.6</ele>
        <time>2022-07-23T14:18:14Z</time>
      </trkpt>
      <trkpt lat="46.27488" lon="5.43592">
        <ele>329.2</ele>
        <time>2022-07-23T14:18:17Z</time>
      </trkpt>
      <trkpt lat="46.2751" lon="5.43591">
        <ele>329.4</ele>
        <time>2022-07-23T14:18:20Z</time>
      </trkpt>
      <trkpt lat="46.27567" lon="5.43593">
        <ele>330</ele>
        <time>2022-07-23T14:18:28Z</time>
      </trkpt>
      <trkpt lat="46.2758" lon="5.43593">
        <ele>330.6</ele>
        <time>2022-07-23T14:18:30Z</time>
      </trkpt>
      <trkpt lat="46.27598" lon="5.43592">
        <ele>331</ele>
        <time>2022-07-23T14:18:33Z</time>
      </trkpt>
      <trkpt lat="46.27633" lon="5.43592">
        <ele>330.8</ele>
        <time>2022-07-23T14:18:38Z</time>
      </trkpt>
      <trkpt lat="46.27683" lon="5.43596">
        <ele>329.4</ele>
        <time>2022-07-23T14:18:44Z</time>
      </trkpt>
      <trkpt lat="46.27691" lon="5.43597">
        <ele>329.2</ele>
        <time>2022-07-23T14:18:45Z</time>
      </trkpt>
      <trkpt lat="46.27736" lon="5.43604">
        <ele>328.4</ele>
        <time>2022-07-23T14:18:51Z</time>
      </trkpt>
      <trkpt lat="46.27777" lon="5.43605">
        <ele>329.2</ele>
        <time>2022-07-23T14:18:57Z</time>
      </trkpt>
      <trkpt lat="46.27806" lon="5.43606">
        <ele>330.2</ele>
        <time>2022-07-23T14:19:02Z</time>
      </trkpt>
      <trkpt lat="46.27818" lon="5.43606">
        <ele>331</ele>
        <time>2022-07-23T14:19:04Z</time>
      </trkpt>
      <trkpt lat="46.27836" lon="5.43607">
        <ele>332.2</ele>
        <time>2022-07-23T14:19:07Z</time>
      </trkpt>
      <trkpt lat="46.27868" lon="5.43609">
        <ele>333.2</ele>
        <time>2022-07-23T14:19:12Z</time>
      </trkpt>
      <trkpt lat="46.27917" lon="5.43613">
        <ele>334.2</ele>
        <time>2022-07-23T14:19:20Z</time>
      </trkpt>
      <trkpt lat="46.2793" lon="5.43615">
        <ele>334.4</ele>
        <time>2022-07-23T14:19:22Z</time>
      </trkpt>
      <trkpt lat="46.27981" lon="5.43624">
        <ele>334.6</ele>
        <time>2022-07-23T14:19:31Z</time>
      </trkpt>
      <trkpt lat="46.27985" lon="5.43624">
        <ele>334.6</ele>
        <time>2022-07-23T14:19:32Z</time>
      </trkpt>
      <trkpt lat="46.28006" lon="5.43621">
        <ele>334.6</ele>
        <time>2022-07-23T14:19:36Z</time>
      </trkpt>
      <trkpt lat="46.28043" lon="5.43617">
        <ele>334.6</ele>
        <time>2022-07-23T14:19:41Z</time>
      </trkpt>
      <trkpt lat="46.28065" lon="5.43616">
        <ele>333.2</ele>
        <time>2022-07-23T14:19:44Z</time>
      </trkpt>
      <trkpt lat="46.28095" lon="5.43613">
        <ele>332</ele>
        <time>2022-07-23T14:19:48Z</time>
      </trkpt>
      <trkpt lat="46.28102" lon="5.43612">
        <ele>331.8</ele>
        <time>2022-07-23T14:19:49Z</time>
      </trkpt>
      <trkpt lat="46.28145" lon="5.43605">
        <ele>331</ele>
        <time>2022-07-23T14:19:55Z</time>
      </trkpt>
      <trkpt lat="46.28165" lon="5.43602">
        <ele>330.6</ele>
        <time>2022-07-23T14:19:58Z</time>
      </trkpt>
      <trkpt lat="46.28193" lon="5.43598">
        <ele>330</ele>
        <time>2022-07-23T14:20:02Z</time>
      </trkpt>
      <trkpt lat="46.28215" lon="5.43596">
        <ele>329.8</ele>
        <time>2022-07-23T14:20:05Z</time>
      </trkpt>
      <trkpt lat="46.28264" lon="5.43596">
        <ele>329.4</ele>
        <time>2022-07-23T14:20:12Z</time>
      </trkpt>
      <trkpt lat="46.2831" lon="5.43595">
        <ele>330.2</ele>
        <time>2022-07-23T14:20:19Z</time>
      </trkpt>
      <trkpt lat="46.28347" lon="5.43599">
        <ele>330.6</ele>
        <time>2022-07-23T14:20:25Z</time>
      </trkpt>
      <trkpt lat="46.28365" lon="5.43602">
        <ele>331</ele>
        <time>2022-07-23T14:20:28Z</time>
      </trkpt>
      <trkpt lat="46.28389" lon="5.43608">
        <ele>331.4</ele>
        <time>2022-07-23T14:20:32Z</time>
      </trkpt>
      <trkpt lat="46.28425" lon="5.43616">
        <ele>332</ele>
        <time>2022-07-23T14:20:38Z</time>
      </trkpt>
      <trkpt lat="46.28431" lon="5.43617">
        <ele>332</ele>
        <time>2022-07-23T14:20:39Z</time>
      </trkpt>
      <trkpt lat="46.28472" lon="5.43622">
        <ele>332</ele>
        <time>2022-07-23T14:20:45Z</time>
      </trkpt>
      <trkpt lat="46.28531" lon="5.43628">
        <ele>331.4</ele>
        <time>2022-07-23T14:20:54Z</time>
      </trkpt>
      <trkpt lat="46.28556" lon="5.43629">
        <ele>331.4</ele>
        <time>2022-07-23T14:20:58Z</time>
      </trkpt>
      <trkpt lat="46.28568" lon="5.43625">
        <ele>331.4</ele>
        <time>2022-07-23T14:21:00Z</time>
      </trkpt>
      <trkpt lat="46.28603" lon="5.436">
        <ele>331</ele>
        <time>2022-07-23T14:21:06Z</time>
      </trkpt>
      <trkpt lat="46.2862" lon="5.43588">
        <ele>331.2</ele>
        <time>2022-07-23T14:21:09Z</time>
      </trkpt>
      <trkpt lat="46.28631" lon="5.43583">
        <ele>331.2</ele>
        <time>2022-07-23T14:21:11Z</time>
      </trkpt>
      <trkpt lat="46.28659" lon="5.43585">
        <ele>331.8</ele>
        <time>2022-07-23T14:21:16Z</time>
      </trkpt>
      <trkpt lat="46.28706" lon="5.43595">
        <ele>333</ele>
        <time>2022-07-23T14:21:25Z</time>
      </trkpt>
      <trkpt lat="46.28711" lon="5.43596">
        <ele>333.4</ele>
        <time>2022-07-23T14:21:26Z</time>
      </trkpt>
      <trkpt lat="46.28737" lon="5.43606">
        <ele>333.8</ele>
        <time>2022-07-23T14:21:31Z</time>
      </trkpt>
      <trkpt lat="46.28777" lon="5.43624">
        <ele>334</ele>
        <time>2022-07-23T14:21:37Z</time>
      </trkpt>
      <trkpt lat="46.28816" lon="5.43639">
        <ele>332.8</ele>
        <time>2022-07-23T14:21:43Z</time>
      </trkpt>
      <trkpt lat="46.28847" lon="5.43645">
        <ele>332.2</ele>
        <time>2022-07-23T14:21:48Z</time>
      </trkpt>
      <trkpt lat="46.28867" lon="5.43649">
        <ele>331.6</ele>
        <time>2022-07-23T14:21:51Z</time>
      </trkpt>
      <trkpt lat="46.28893" lon="5.43654">
        <ele>331.2</ele>
        <time>2022-07-23T14:21:55Z</time>
      </trkpt>
      <trkpt lat="46.2893" lon="5.43664">
        <ele>330</ele>
        <time>2022-07-23T14:22:01Z</time>
      </trkpt>
      <trkpt lat="46.28966" lon="5.43671">
        <ele>329.6</ele>
        <time>2022-07-23T14:22:07Z</time>
      </trkpt>
      <trkpt lat="46.2897" lon="5.43672">
        <ele>329.6</ele>
        <time>2022-07-23T14:22:08Z</time>
      </trkpt>
      <trkpt lat="46.28973" lon="5.43675">
        <ele>329.6</ele>
        <time>2022-07-23T14:22:09Z</time>
      </trkpt>
      <trkpt lat="46.28975" lon="5.4368">
        <ele>329.6</ele>
        <time>2022-07-23T14:22:10Z</time>
      </trkpt>
      <trkpt lat="46.28974" lon="5.43686">
        <ele>329.6</ele>
        <time>2022-07-23T14:22:11Z</time>
      </trkpt>
      <trkpt lat="46.28972" lon="5.437">
        <ele>329.8</ele>
        <time>2022-07-23T14:22:13Z</time>
      </trkpt>
      <trkpt lat="46.28971" lon="5.43707">
        <ele>330</ele>
        <time>2022-07-23T14:22:14Z</time>
      </trkpt>
      <trkpt lat="46.28967" lon="5.43727">
        <ele>331</ele>
        <time>2022-07-23T14:22:17Z</time>
      </trkpt>
      <trkpt lat="46.28965" lon="5.43734">
        <ele>331.2</ele>
        <time>2022-07-23T14:22:18Z</time>
      </trkpt>
      <trkpt lat="46.28952" lon="5.43781">
        <ele>332</ele>
        <time>2022-07-23T14:22:25Z</time>
      </trkpt>
      <trkpt lat="46.28951" lon="5.43787">
        <ele>332.2</ele>
        <time>2022-07-23T14:22:26Z</time>
      </trkpt>
      <trkpt lat="46.28948" lon="5.43806">
        <ele>333.2</ele>
        <time>2022-07-23T14:22:29Z</time>
      </trkpt>
      <trkpt lat="46.28948" lon="5.43811">
        <ele>333.6</ele>
        <time>2022-07-23T14:22:30Z</time>
      </trkpt>
      <trkpt lat="46.28948" lon="5.43817">
        <ele>333.8</ele>
        <time>2022-07-23T14:22:31Z</time>
      </trkpt>
      <trkpt lat="46.28954" lon="5.43831">
        <ele>334.8</ele>
        <time>2022-07-23T14:22:34Z</time>
      </trkpt>
      <trkpt lat="46.28957" lon="5.43835">
        <ele>334.8</ele>
        <time>2022-07-23T14:22:35Z</time>
      </trkpt>
      <trkpt lat="46.28968" lon="5.43842">
        <ele>335.8</ele>
        <time>2022-07-23T14:22:38Z</time>
      </trkpt>
      <trkpt lat="46.28977" lon="5.43844">
        <ele>336.4</ele>
        <time>2022-07-23T14:22:40Z</time>
      </trkpt>
      <trkpt lat="46.28981" lon="5.43846">
        <ele>337</ele>
        <time>2022-07-23T14:22:41Z</time>
      </trkpt>
      <trkpt lat="46.28986" lon="5.43848">
        <ele>337.2</ele>
        <time>2022-07-23T14:22:42Z</time>
      </trkpt>
      <trkpt lat="46.29" lon="5.43858">
        <ele>337.4</ele>
        <time>2022-07-23T14:22:45Z</time>
      </trkpt>
      <trkpt lat="46.29017" lon="5.43868">
        <ele>337.4</ele>
        <time>2022-07-23T14:22:48Z</time>
      </trkpt>
      <trkpt lat="46.2903" lon="5.4387">
        <ele>337.2</ele>
        <time>2022-07-23T14:22:50Z</time>
      </trkpt>
      <trkpt lat="46.29062" lon="5.43869">
        <ele>336.6</ele>
        <time>2022-07-23T14:22:55Z</time>
      </trkpt>
      <trkpt lat="46.29069" lon="5.43868">
        <ele>336.6</ele>
        <time>2022-07-23T14:22:56Z</time>
      </trkpt>
      <trkpt lat="46.29075" lon="5.43864">
        <ele>336.4</ele>
        <time>2022-07-23T14:22:57Z</time>
      </trkpt>
      <trkpt lat="46.29087" lon="5.43856">
        <ele>336.4</ele>
        <time>2022-07-23T14:22:59Z</time>
      </trkpt>
      <trkpt lat="46.29093" lon="5.43854">
        <ele>336.2</ele>
        <time>2022-07-23T14:23:00Z</time>
      </trkpt>
      <trkpt lat="46.29107" lon="5.43851">
        <ele>335.6</ele>
        <time>2022-07-23T14:23:02Z</time>
      </trkpt>
      <trkpt lat="46.29128" lon="5.43852">
        <ele>335.2</ele>
        <time>2022-07-23T14:23:05Z</time>
      </trkpt>
      <trkpt lat="46.29155" lon="5.43858">
        <ele>334.8</ele>
        <time>2022-07-23T14:23:09Z</time>
      </trkpt>
      <trkpt lat="46.29161" lon="5.43861">
        <ele>334.8</ele>
        <time>2022-07-23T14:23:10Z</time>
      </trkpt>
      <trkpt lat="46.29167" lon="5.43865">
        <ele>334.6</ele>
        <time>2022-07-23T14:23:11Z</time>
      </trkpt>
      <trkpt lat="46.29207" lon="5.43893">
        <ele>334.6</ele>
        <time>2022-07-23T14:23:18Z</time>
      </trkpt>
      <trkpt lat="46.29224" lon="5.43908">
        <ele>335</ele>
        <time>2022-07-23T14:23:21Z</time>
      </trkpt>
      <trkpt lat="46.29234" lon="5.43922">
        <ele>335</ele>
        <time>2022-07-23T14:23:23Z</time>
      </trkpt>
      <trkpt lat="46.29247" lon="5.43946">
        <ele>335.2</ele>
        <time>2022-07-23T14:23:26Z</time>
      </trkpt>
      <trkpt lat="46.29257" lon="5.43958">
        <ele>335.4</ele>
        <time>2022-07-23T14:23:28Z</time>
      </trkpt>
      <trkpt lat="46.29305" lon="5.44001">
        <ele>335.6</ele>
        <time>2022-07-23T14:23:36Z</time>
      </trkpt>
      <trkpt lat="46.29324" lon="5.44015">
        <ele>335.2</ele>
        <time>2022-07-23T14:23:39Z</time>
      </trkpt>
      <trkpt lat="46.29372" lon="5.44052">
        <ele>334.8</ele>
        <time>2022-07-23T14:23:47Z</time>
      </trkpt>
      <trkpt lat="46.29378" lon="5.44056">
        <ele>334.6</ele>
        <time>2022-07-23T14:23:48Z</time>
      </trkpt>
      <trkpt lat="46.29388" lon="5.44061">
        <ele>334.8</ele>
        <time>2022-07-23T14:23:50Z</time>
      </trkpt>
      <trkpt lat="46.29397" lon="5.44069">
        <ele>334.8</ele>
        <time>2022-07-23T14:23:52Z</time>
      </trkpt>
      <trkpt lat="46.29404" lon="5.44083">
        <ele>335.2</ele>
        <time>2022-07-23T14:23:54Z</time>
      </trkpt>
      <trkpt lat="46.29411" lon="5.441">
        <ele>335.6</ele>
        <time>2022-07-23T14:23:56Z</time>
      </trkpt>
      <trkpt lat="46.29416" lon="5.44118">
        <ele>336</ele>
        <time>2022-07-23T14:23:58Z</time>
      </trkpt>
      <trkpt lat="46.29431" lon="5.44161">
        <ele>336.8</ele>
        <time>2022-07-23T14:24:03Z</time>
      </trkpt>
      <trkpt lat="46.29435" lon="5.44169">
        <ele>336.8</ele>
        <time>2022-07-23T14:24:04Z</time>
      </trkpt>
      <trkpt lat="46.29441" lon="5.44176">
        <ele>337</ele>
        <time>2022-07-23T14:24:05Z</time>
      </trkpt>
      <trkpt lat="46.29446" lon="5.44182">
        <ele>337.2</ele>
        <time>2022-07-23T14:24:06Z</time>
      </trkpt>
      <trkpt lat="46.29458" lon="5.44192">
        <ele>337.4</ele>
        <time>2022-07-23T14:24:08Z</time>
      </trkpt>
      <trkpt lat="46.29503" lon="5.44231">
        <ele>338.2</ele>
        <time>2022-07-23T14:24:16Z</time>
      </trkpt>
      <trkpt lat="46.29509" lon="5.44235">
        <ele>338.4</ele>
        <time>2022-07-23T14:24:17Z</time>
      </trkpt>
      <trkpt lat="46.2955" lon="5.44267">
        <ele>338.4</ele>
        <time>2022-07-23T14:24:24Z</time>
      </trkpt>
      <trkpt lat="46.29597" lon="5.44313">
        <ele>338.6</ele>
        <time>2022-07-23T14:24:33Z</time>
      </trkpt>
      <trkpt lat="46.29603" lon="5.44318">
        <ele>338.8</ele>
        <time>2022-07-23T14:24:34Z</time>
      </trkpt>
      <trkpt lat="46.29649" lon="5.44362">
        <ele>339</ele>
        <time>2022-07-23T14:24:43Z</time>
      </trkpt>
      <trkpt lat="46.29654" lon="5.44367">
        <ele>339</ele>
        <time>2022-07-23T14:24:44Z</time>
      </trkpt>
      <trkpt lat="46.29665" lon="5.44377">
        <ele>339.2</ele>
        <time>2022-07-23T14:24:46Z</time>
      </trkpt>
      <trkpt lat="46.29683" lon="5.44395">
        <ele>339.2</ele>
        <time>2022-07-23T14:24:49Z</time>
      </trkpt>
      <trkpt lat="46.29716" lon="5.44427">
        <ele>338</ele>
        <time>2022-07-23T14:24:54Z</time>
      </trkpt>
      <trkpt lat="46.29729" lon="5.44441">
        <ele>337.4</ele>
        <time>2022-07-23T14:24:56Z</time>
      </trkpt>
      <trkpt lat="46.29735" lon="5.44447">
        <ele>337</ele>
        <time>2022-07-23T14:24:57Z</time>
      </trkpt>
      <trkpt lat="46.29778" lon="5.44489">
        <ele>336</ele>
        <time>2022-07-23T14:25:04Z</time>
      </trkpt>
      <trkpt lat="46.29809" lon="5.4452">
        <ele>337</ele>
        <time>2022-07-23T14:25:10Z</time>
      </trkpt>
      <trkpt lat="46.29831" lon="5.44542">
        <ele>338</ele>
        <time>2022-07-23T14:25:15Z</time>
      </trkpt>
      <trkpt lat="46.29839" lon="5.44549">
        <ele>339.4</ele>
        <time>2022-07-23T14:25:17Z</time>
      </trkpt>
      <trkpt lat="46.29862" lon="5.44562">
        <ele>340.8</ele>
        <time>2022-07-23T14:25:22Z</time>
      </trkpt>
      <trkpt lat="46.29867" lon="5.44566">
        <ele>341</ele>
        <time>2022-07-23T14:25:23Z</time>
      </trkpt>
      <trkpt lat="46.29872" lon="5.4457">
        <ele>341.2</ele>
        <time>2022-07-23T14:25:24Z</time>
      </trkpt>
      <trkpt lat="46.29887" lon="5.44586">
        <ele>341.8</ele>
        <time>2022-07-23T14:25:27Z</time>
      </trkpt>
      <trkpt lat="46.29894" lon="5.446">
        <ele>342.2</ele>
        <time>2022-07-23T14:25:29Z</time>
      </trkpt>
      <trkpt lat="46.29906" lon="5.44632">
        <ele>342.4</ele>
        <time>2022-07-23T14:25:33Z</time>
      </trkpt>
      <trkpt lat="46.29911" lon="5.44639">
        <ele>342.2</ele>
        <time>2022-07-23T14:25:34Z</time>
      </trkpt>
      <trkpt lat="46.29917" lon="5.44644">
        <ele>342.2</ele>
        <time>2022-07-23T14:25:35Z</time>
      </trkpt>
      <trkpt lat="46.29932" lon="5.44645">
        <ele>342</ele>
        <time>2022-07-23T14:25:37Z</time>
      </trkpt>
      <trkpt lat="46.29959" lon="5.44631">
        <ele>340.8</ele>
        <time>2022-07-23T14:25:41Z</time>
      </trkpt>
      <trkpt lat="46.29966" lon="5.44628">
        <ele>340.6</ele>
        <time>2022-07-23T14:25:42Z</time>
      </trkpt>
      <trkpt lat="46.2999" lon="5.44625">
        <ele>339.8</ele>
        <time>2022-07-23T14:25:45Z</time>
      </trkpt>
      <trkpt lat="46.30019" lon="5.44628">
        <ele>338.4</ele>
        <time>2022-07-23T14:25:48Z</time>
      </trkpt>
      <trkpt lat="46.30039" lon="5.44632">
        <ele>337.4</ele>
        <time>2022-07-23T14:25:50Z</time>
      </trkpt>
      <trkpt lat="46.3005" lon="5.44635">
        <ele>337</ele>
        <time>2022-07-23T14:25:51Z</time>
      </trkpt>
      <trkpt lat="46.3007" lon="5.44641">
        <ele>335.4</ele>
        <time>2022-07-23T14:25:53Z</time>
      </trkpt>
      <trkpt lat="46.3009" lon="5.4465">
        <ele>333</ele>
        <time>2022-07-23T14:25:55Z</time>
      </trkpt>
      <trkpt lat="46.3011" lon="5.44659">
        <ele>331.2</ele>
        <time>2022-07-23T14:25:57Z</time>
      </trkpt>
      <trkpt lat="46.30127" lon="5.44666">
        <ele>330</ele>
        <time>2022-07-23T14:25:59Z</time>
      </trkpt>
      <trkpt lat="46.30136" lon="5.44669">
        <ele>329.6</ele>
        <time>2022-07-23T14:26:00Z</time>
      </trkpt>
      <trkpt lat="46.30146" lon="5.44673">
        <ele>329.4</ele>
        <time>2022-07-23T14:26:01Z</time>
      </trkpt>
      <trkpt lat="46.30156" lon="5.44678">
        <ele>328.8</ele>
        <time>2022-07-23T14:26:02Z</time>
      </trkpt>
      <trkpt lat="46.30174" lon="5.44686">
        <ele>328.2</ele>
        <time>2022-07-23T14:26:04Z</time>
      </trkpt>
      <trkpt lat="46.30202" lon="5.44696">
        <ele>327.8</ele>
        <time>2022-07-23T14:26:07Z</time>
      </trkpt>
      <trkpt lat="46.3022" lon="5.447">
        <ele>327.6</ele>
        <time>2022-07-23T14:26:09Z</time>
      </trkpt>
      <trkpt lat="46.30271" lon="5.4471">
        <ele>327.8</ele>
        <time>2022-07-23T14:26:15Z</time>
      </trkpt>
      <trkpt lat="46.30296" lon="5.44711">
        <ele>328.8</ele>
        <time>2022-07-23T14:26:19Z</time>
      </trkpt>
      <trkpt lat="46.30306" lon="5.44711">
        <ele>330.2</ele>
        <time>2022-07-23T14:26:21Z</time>
      </trkpt>
      <trkpt lat="46.30314" lon="5.44711">
        <ele>331.2</ele>
        <time>2022-07-23T14:26:23Z</time>
      </trkpt>
      <trkpt lat="46.30322" lon="5.44711">
        <ele>332.2</ele>
        <time>2022-07-23T14:26:25Z</time>
      </trkpt>
      <trkpt lat="46.30325" lon="5.44712">
        <ele>332.4</ele>
        <time>2022-07-23T14:26:26Z</time>
      </trkpt>
      <trkpt lat="46.30333" lon="5.44714">
        <ele>333.8</ele>
        <time>2022-07-23T14:26:29Z</time>
      </trkpt>
      <trkpt lat="46.30337" lon="5.44714">
        <ele>334.6</ele>
        <time>2022-07-23T14:26:31Z</time>
      </trkpt>
      <trkpt lat="46.3034" lon="5.44714">
        <ele>335.2</ele>
        <time>2022-07-23T14:26:32Z</time>
      </trkpt>
      <trkpt lat="46.30346" lon="5.44713">
        <ele>336.2</ele>
        <time>2022-07-23T14:26:34Z</time>
      </trkpt>
      <trkpt lat="46.30354" lon="5.44712">
        <ele>337.2</ele>
        <time>2022-07-23T14:26:37Z</time>
      </trkpt>
      <trkpt lat="46.30357" lon="5.44711">
        <ele>337.4</ele>
        <time>2022-07-23T14:26:38Z</time>
      </trkpt>
      <trkpt lat="46.30365" lon="5.44706">
        <ele>338.4</ele>
        <time>2022-07-23T14:26:41Z</time>
      </trkpt>
      <trkpt lat="46.30367" lon="5.44705">
        <ele>338.8</ele>
        <time>2022-07-23T14:26:42Z</time>
      </trkpt>
      <trkpt lat="46.30373" lon="5.447">
        <ele>339.6</ele>
        <time>2022-07-23T14:26:44Z</time>
      </trkpt>
      <trkpt lat="46.30377" lon="5.44696">
        <ele>340</ele>
        <time>2022-07-23T14:26:46Z</time>
      </trkpt>
      <trkpt lat="46.3038" lon="5.44696">
        <ele>340.2</ele>
        <time>2022-07-23T14:26:47Z</time>
      </trkpt>
      <trkpt lat="46.30384" lon="5.44695">
        <ele>340.6</ele>
        <time>2022-07-23T14:26:48Z</time>
      </trkpt>
      <trkpt lat="46.30393" lon="5.44691">
        <ele>341.6</ele>
        <time>2022-07-23T14:26:51Z</time>
      </trkpt>
      <trkpt lat="46.30395" lon="5.44689">
        <ele>341.6</ele>
        <time>2022-07-23T14:26:52Z</time>
      </trkpt>
      <trkpt lat="46.30408" lon="5.44687">
        <ele>343</ele>
        <time>2022-07-23T14:26:57Z</time>
      </trkpt>
      <trkpt lat="46.30416" lon="5.44685">
        <ele>344</ele>
        <time>2022-07-23T14:27:01Z</time>
      </trkpt>
      <trkpt lat="46.30421" lon="5.44685">
        <ele>344.8</ele>
        <time>2022-07-23T14:27:04Z</time>
      </trkpt>
      <trkpt lat="46.30423" lon="5.44685">
        <ele>345.2</ele>
        <time>2022-07-23T14:27:05Z</time>
      </trkpt>
      <trkpt lat="46.3043" lon="5.44685">
        <ele>346.2</ele>
        <time>2022-07-23T14:27:09Z</time>
      </trkpt>
      <trkpt lat="46.30431" lon="5.44685">
        <ele>346.6</ele>
        <time>2022-07-23T14:27:10Z</time>
      </trkpt>
      <trkpt lat="46.30437" lon="5.44683">
        <ele>347.4</ele>
        <time>2022-07-23T14:27:13Z</time>
      </trkpt>
      <trkpt lat="46.30446" lon="5.44677">
        <ele>348</ele>
        <time>2022-07-23T14:27:17Z</time>
      </trkpt>
      <trkpt lat="46.30453" lon="5.44671">
        <ele>348.4</ele>
        <time>2022-07-23T14:27:20Z</time>
      </trkpt>
      <trkpt lat="46.30462" lon="5.44665">
        <ele>349.6</ele>
        <time>2022-07-23T14:27:24Z</time>
      </trkpt>
      <trkpt lat="46.30464" lon="5.44664">
        <ele>349.8</ele>
        <time>2022-07-23T14:27:25Z</time>
      </trkpt>
      <trkpt lat="46.30472" lon="5.44663">
        <ele>351</ele>
        <time>2022-07-23T14:27:29Z</time>
      </trkpt>
      <trkpt lat="46.30478" lon="5.44663">
        <ele>351.8</ele>
        <time>2022-07-23T14:27:32Z</time>
      </trkpt>
      <trkpt lat="46.30484" lon="5.44663">
        <ele>352.2</ele>
        <time>2022-07-23T14:27:34Z</time>
      </trkpt>
      <trkpt lat="46.30502" lon="5.44664">
        <ele>353.4</ele>
        <time>2022-07-23T14:27:40Z</time>
      </trkpt>
      <trkpt lat="46.30505" lon="5.44664">
        <ele>353.6</ele>
        <time>2022-07-23T14:27:41Z</time>
      </trkpt>
      <trkpt lat="46.30527" lon="5.44669">
        <ele>354.4</ele>
        <time>2022-07-23T14:27:48Z</time>
      </trkpt>
      <trkpt lat="46.3053" lon="5.4467">
        <ele>354.6</ele>
        <time>2022-07-23T14:27:49Z</time>
      </trkpt>
      <trkpt lat="46.30548" lon="5.44674">
        <ele>355.6</ele>
        <time>2022-07-23T14:27:54Z</time>
      </trkpt>
      <trkpt lat="46.30563" lon="5.44679">
        <ele>356</ele>
        <time>2022-07-23T14:27:58Z</time>
      </trkpt>
      <trkpt lat="46.3058" lon="5.44679">
        <ele>356.4</ele>
        <time>2022-07-23T14:28:02Z</time>
      </trkpt>
      <trkpt lat="46.30586" lon="5.44679">
        <ele>356.4</ele>
        <time>2022-07-23T14:28:03Z</time>
      </trkpt>
      <trkpt lat="46.30598" lon="5.44678">
        <ele>356.4</ele>
        <time>2022-07-23T14:28:05Z</time>
      </trkpt>
      <trkpt lat="46.30611" lon="5.44681">
        <ele>356.4</ele>
        <time>2022-07-23T14:28:07Z</time>
      </trkpt>
      <trkpt lat="46.30627" lon="5.44689">
        <ele>355.6</ele>
        <time>2022-07-23T14:28:09Z</time>
      </trkpt>
      <trkpt lat="46.30637" lon="5.44692">
        <ele>355</ele>
        <time>2022-07-23T14:28:10Z</time>
      </trkpt>
      <trkpt lat="46.30648" lon="5.44692">
        <ele>354.4</ele>
        <time>2022-07-23T14:28:11Z</time>
      </trkpt>
      <trkpt lat="46.30659" lon="5.44692">
        <ele>353</ele>
        <time>2022-07-23T14:28:12Z</time>
      </trkpt>
      <trkpt lat="46.3067" lon="5.4469">
        <ele>351</ele>
        <time>2022-07-23T14:28:13Z</time>
      </trkpt>
      <trkpt lat="46.30691" lon="5.44686">
        <ele>349</ele>
        <time>2022-07-23T14:28:15Z</time>
      </trkpt>
      <trkpt lat="46.3071" lon="5.44682">
        <ele>347.8</ele>
        <time>2022-07-23T14:28:17Z</time>
      </trkpt>
      <trkpt lat="46.30718" lon="5.44681">
        <ele>347.6</ele>
        <time>2022-07-23T14:28:18Z</time>
      </trkpt>
      <trkpt lat="46.30733" lon="5.44685">
        <ele>347.4</ele>
        <time>2022-07-23T14:28:20Z</time>
      </trkpt>
      <trkpt lat="46.30738" lon="5.44689">
        <ele>347.4</ele>
        <time>2022-07-23T14:28:21Z</time>
      </trkpt>
      <trkpt lat="46.30742" lon="5.44695">
        <ele>347.4</ele>
        <time>2022-07-23T14:28:22Z</time>
      </trkpt>
      <trkpt lat="46.30752" lon="5.44713">
        <ele>349</ele>
        <time>2022-07-23T14:28:25Z</time>
      </trkpt>
      <trkpt lat="46.30755" lon="5.44718">
        <ele>350.4</ele>
        <time>2022-07-23T14:28:26Z</time>
      </trkpt>
      <trkpt lat="46.30758" lon="5.44723">
        <ele>351.6</ele>
        <time>2022-07-23T14:28:27Z</time>
      </trkpt>
      <trkpt lat="46.30765" lon="5.44731">
        <ele>353.2</ele>
        <time>2022-07-23T14:28:29Z</time>
      </trkpt>
      <trkpt lat="46.30769" lon="5.44734">
        <ele>353.6</ele>
        <time>2022-07-23T14:28:30Z</time>
      </trkpt>
      <trkpt lat="46.30773" lon="5.44737">
        <ele>354.4</ele>
        <time>2022-07-23T14:28:31Z</time>
      </trkpt>
      <trkpt lat="46.30777" lon="5.4474">
        <ele>354.8</ele>
        <time>2022-07-23T14:28:32Z</time>
      </trkpt>
      <trkpt lat="46.30782" lon="5.44742">
        <ele>355.6</ele>
        <time>2022-07-23T14:28:33Z</time>
      </trkpt>
      <trkpt lat="46.30786" lon="5.44742">
        <ele>356</ele>
        <time>2022-07-23T14:28:34Z</time>
      </trkpt>
      <trkpt lat="46.30788" lon="5.44738">
        <ele>356.2</ele>
        <time>2022-07-23T14:28:35Z</time>
      </trkpt>
      <trkpt lat="46.30788" lon="5.44731">
        <ele>356.6</ele>
        <time>2022-07-23T14:28:36Z</time>
      </trkpt>
      <trkpt lat="46.30788" lon="5.44724">
        <ele>356.8</ele>
        <time>2022-07-23T14:28:37Z</time>
      </trkpt>
      <trkpt lat="46.30793" lon="5.44713">
        <ele>357</ele>
        <time>2022-07-23T14:28:39Z</time>
      </trkpt>
      <trkpt lat="46.30801" lon="5.44711">
        <ele>357</ele>
        <time>2022-07-23T14:28:41Z</time>
      </trkpt>
      <trkpt lat="46.30808" lon="5.44726">
        <ele>357</ele>
        <time>2022-07-23T14:28:43Z</time>
      </trkpt>
      <trkpt lat="46.30818" lon="5.44749">
        <ele>356.4</ele>
        <time>2022-07-23T14:28:45Z</time>
      </trkpt>
      <trkpt lat="46.30824" lon="5.4476">
        <ele>356.2</ele>
        <time>2022-07-23T14:28:46Z</time>
      </trkpt>
      <trkpt lat="46.30831" lon="5.44772">
        <ele>355.2</ele>
        <time>2022-07-23T14:28:47Z</time>
      </trkpt>
      <trkpt lat="46.30838" lon="5.44783">
        <ele>353.6</ele>
        <time>2022-07-23T14:28:48Z</time>
      </trkpt>
      <trkpt lat="46.30845" lon="5.44793">
        <ele>352.6</ele>
        <time>2022-07-23T14:28:49Z</time>
      </trkpt>
      <trkpt lat="46.30851" lon="5.44804">
        <ele>351.4</ele>
        <time>2022-07-23T14:28:50Z</time>
      </trkpt>
      <trkpt lat="46.30857" lon="5.44814">
        <ele>350.8</ele>
        <time>2022-07-23T14:28:51Z</time>
      </trkpt>
      <trkpt lat="46.30863" lon="5.44825">
        <ele>350</ele>
        <time>2022-07-23T14:28:52Z</time>
      </trkpt>
      <trkpt lat="46.30872" lon="5.44848">
        <ele>348.8</ele>
        <time>2022-07-23T14:28:54Z</time>
      </trkpt>
      <trkpt lat="46.30875" lon="5.44861">
        <ele>347.8</ele>
        <time>2022-07-23T14:28:55Z</time>
      </trkpt>
      <trkpt lat="46.30881" lon="5.44888">
        <ele>346.2</ele>
        <time>2022-07-23T14:28:57Z</time>
      </trkpt>
      <trkpt lat="46.30885" lon="5.44917">
        <ele>345</ele>
        <time>2022-07-23T14:28:59Z</time>
      </trkpt>
      <trkpt lat="46.30887" lon="5.44933">
        <ele>344.4</ele>
        <time>2022-07-23T14:29:00Z</time>
      </trkpt>
      <trkpt lat="46.30888" lon="5.44947">
        <ele>343.8</ele>
        <time>2022-07-23T14:29:01Z</time>
      </trkpt>
      <trkpt lat="46.30889" lon="5.4496">
        <ele>342.4</ele>
        <time>2022-07-23T14:29:02Z</time>
      </trkpt>
      <trkpt lat="46.30891" lon="5.44971">
        <ele>342</ele>
        <time>2022-07-23T14:29:03Z</time>
      </trkpt>
      <trkpt lat="46.30895" lon="5.4498">
        <ele>341.6</ele>
        <time>2022-07-23T14:29:04Z</time>
      </trkpt>
      <trkpt lat="46.30899" lon="5.44987">
        <ele>341.4</ele>
        <time>2022-07-23T14:29:05Z</time>
      </trkpt>
      <trkpt lat="46.30904" lon="5.44994">
        <ele>341.2</ele>
        <time>2022-07-23T14:29:06Z</time>
      </trkpt>
      <trkpt lat="46.3091" lon="5.45">
        <ele>341.2</ele>
        <time>2022-07-23T14:29:07Z</time>
      </trkpt>
      <trkpt lat="46.30916" lon="5.45005">
        <ele>341.2</ele>
        <time>2022-07-23T14:29:08Z</time>
      </trkpt>
      <trkpt lat="46.30922" lon="5.45007">
        <ele>341</ele>
        <time>2022-07-23T14:29:09Z</time>
      </trkpt>
      <trkpt lat="46.30941" lon="5.45008">
        <ele>341.2</ele>
        <time>2022-07-23T14:29:12Z</time>
      </trkpt>
      <trkpt lat="46.30977" lon="5.45002">
        <ele>342.2</ele>
        <time>2022-07-23T14:29:18Z</time>
      </trkpt>
      <trkpt lat="46.30982" lon="5.44999">
        <ele>342.2</ele>
        <time>2022-07-23T14:29:19Z</time>
      </trkpt>
      <trkpt lat="46.30986" lon="5.44996">
        <ele>342.6</ele>
        <time>2022-07-23T14:29:20Z</time>
      </trkpt>
      <trkpt lat="46.30991" lon="5.44991">
        <ele>342.6</ele>
        <time>2022-07-23T14:29:21Z</time>
      </trkpt>
      <trkpt lat="46.30995" lon="5.44985">
        <ele>343.2</ele>
        <time>2022-07-23T14:29:22Z</time>
      </trkpt>
      <trkpt lat="46.30999" lon="5.4498">
        <ele>343.6</ele>
        <time>2022-07-23T14:29:23Z</time>
      </trkpt>
      <trkpt lat="46.31021" lon="5.44953">
        <ele>344.4</ele>
        <time>2022-07-23T14:29:28Z</time>
      </trkpt>
      <trkpt lat="46.3103" lon="5.44942">
        <ele>344.8</ele>
        <time>2022-07-23T14:29:30Z</time>
      </trkpt>
      <trkpt lat="46.31034" lon="5.44935">
        <ele>344.8</ele>
        <time>2022-07-23T14:29:31Z</time>
      </trkpt>
      <trkpt lat="46.31045" lon="5.44915">
        <ele>345</ele>
        <time>2022-07-23T14:29:34Z</time>
      </trkpt>
      <trkpt lat="46.3105" lon="5.44908">
        <ele>345</ele>
        <time>2022-07-23T14:29:35Z</time>
      </trkpt>
      <trkpt lat="46.31056" lon="5.44892">
        <ele>345</ele>
        <time>2022-07-23T14:29:37Z</time>
      </trkpt>
      <trkpt lat="46.31058" lon="5.44882">
        <ele>345</ele>
        <time>2022-07-23T14:29:38Z</time>
      </trkpt>
      <trkpt lat="46.31068" lon="5.44826">
        <ele>344.6</ele>
        <time>2022-07-23T14:29:43Z</time>
      </trkpt>
      <trkpt lat="46.3107" lon="5.44791">
        <ele>343.2</ele>
        <time>2022-07-23T14:29:46Z</time>
      </trkpt>
      <trkpt lat="46.3107" lon="5.44769">
        <ele>342.8</ele>
        <time>2022-07-23T14:29:48Z</time>
      </trkpt>
      <trkpt lat="46.31066" lon="5.44748">
        <ele>342.6</ele>
        <time>2022-07-23T14:29:50Z</time>
      </trkpt>
      <trkpt lat="46.3106" lon="5.44729">
        <ele>342.4</ele>
        <time>2022-07-23T14:29:52Z</time>
      </trkpt>
      <trkpt lat="46.31051" lon="5.44699">
        <ele>342.2</ele>
        <time>2022-07-23T14:29:55Z</time>
      </trkpt>
      <trkpt lat="46.31044" lon="5.44666">
        <ele>342</ele>
        <time>2022-07-23T14:29:58Z</time>
      </trkpt>
      <trkpt lat="46.31043" lon="5.44654">
        <ele>341.8</ele>
        <time>2022-07-23T14:29:59Z</time>
      </trkpt>
      <trkpt lat="46.31042" lon="5.44641">
        <ele>341.4</ele>
        <time>2022-07-23T14:30:00Z</time>
      </trkpt>
      <trkpt lat="46.31043" lon="5.44628">
        <ele>341.2</ele>
        <time>2022-07-23T14:30:01Z</time>
      </trkpt>
      <trkpt lat="46.31045" lon="5.44614">
        <ele>340.4</ele>
        <time>2022-07-23T14:30:02Z</time>
      </trkpt>
      <trkpt lat="46.31048" lon="5.446">
        <ele>340.2</ele>
        <time>2022-07-23T14:30:03Z</time>
      </trkpt>
      <trkpt lat="46.31053" lon="5.44588">
        <ele>339.4</ele>
        <time>2022-07-23T14:30:04Z</time>
      </trkpt>
      <trkpt lat="46.31059" lon="5.44576">
        <ele>338.8</ele>
        <time>2022-07-23T14:30:05Z</time>
      </trkpt>
      <trkpt lat="46.31064" lon="5.44564">
        <ele>338.2</ele>
        <time>2022-07-23T14:30:06Z</time>
      </trkpt>
      <trkpt lat="46.31068" lon="5.44551">
        <ele>337</ele>
        <time>2022-07-23T14:30:07Z</time>
      </trkpt>
      <trkpt lat="46.3107" lon="5.44537">
        <ele>336.6</ele>
        <time>2022-07-23T14:30:08Z</time>
      </trkpt>
      <trkpt lat="46.31072" lon="5.44521">
        <ele>336</ele>
        <time>2022-07-23T14:30:09Z</time>
      </trkpt>
      <trkpt lat="46.31078" lon="5.44492">
        <ele>334.4</ele>
        <time>2022-07-23T14:30:11Z</time>
      </trkpt>
      <trkpt lat="46.31082" lon="5.44477">
        <ele>334</ele>
        <time>2022-07-23T14:30:12Z</time>
      </trkpt>
      <trkpt lat="46.31085" lon="5.44463">
        <ele>333</ele>
        <time>2022-07-23T14:30:13Z</time>
      </trkpt>
      <trkpt lat="46.31096" lon="5.44423">
        <ele>331.8</ele>
        <time>2022-07-23T14:30:16Z</time>
      </trkpt>
      <trkpt lat="46.31099" lon="5.44411">
        <ele>331.8</ele>
        <time>2022-07-23T14:30:17Z</time>
      </trkpt>
      <trkpt lat="46.31121" lon="5.44334">
        <ele>332</ele>
        <time>2022-07-23T14:30:24Z</time>
      </trkpt>
      <trkpt lat="46.3114" lon="5.44271">
        <ele>332.8</ele>
        <time>2022-07-23T14:30:31Z</time>
      </trkpt>
      <trkpt lat="46.31144" lon="5.44257">
        <ele>333</ele>
        <time>2022-07-23T14:30:33Z</time>
      </trkpt>
      <trkpt lat="46.31147" lon="5.44251">
        <ele>333.4</ele>
        <time>2022-07-23T14:30:34Z</time>
      </trkpt>
      <trkpt lat="46.3115" lon="5.44246">
        <ele>334</ele>
        <time>2022-07-23T14:30:35Z</time>
      </trkpt>
      <trkpt lat="46.31153" lon="5.44244">
        <ele>334</ele>
        <time>2022-07-23T14:30:36Z</time>
      </trkpt>
      <trkpt lat="46.31161" lon="5.44246">
        <ele>335</ele>
        <time>2022-07-23T14:30:38Z</time>
      </trkpt>
      <trkpt lat="46.31165" lon="5.44249">
        <ele>335.4</ele>
        <time>2022-07-23T14:30:39Z</time>
      </trkpt>
      <trkpt lat="46.3118" lon="5.44263">
        <ele>335.6</ele>
        <time>2022-07-23T14:30:42Z</time>
      </trkpt>
      <trkpt lat="46.31218" lon="5.44285">
        <ele>336.4</ele>
        <time>2022-07-23T14:30:49Z</time>
      </trkpt>
      <trkpt lat="46.31252" lon="5.44299">
        <ele>337.4</ele>
        <time>2022-07-23T14:30:55Z</time>
      </trkpt>
      <trkpt lat="46.31269" lon="5.44307">
        <ele>337.8</ele>
        <time>2022-07-23T14:30:58Z</time>
      </trkpt>
      <trkpt lat="46.31315" lon="5.44325">
        <ele>338</ele>
        <time>2022-07-23T14:31:06Z</time>
      </trkpt>
      <trkpt lat="46.3136" lon="5.44343">
        <ele>337.8</ele>
        <time>2022-07-23T14:31:14Z</time>
      </trkpt>
      <trkpt lat="46.31382" lon="5.44352">
        <ele>337.6</ele>
        <time>2022-07-23T14:31:18Z</time>
      </trkpt>
      <trkpt lat="46.31393" lon="5.44357">
        <ele>337.6</ele>
        <time>2022-07-23T14:31:20Z</time>
      </trkpt>
      <trkpt lat="46.31441" lon="5.44378">
        <ele>337.4</ele>
        <time>2022-07-23T14:31:28Z</time>
      </trkpt>
      <trkpt lat="46.31497" lon="5.44399">
        <ele>336.6</ele>
        <time>2022-07-23T14:31:37Z</time>
      </trkpt>
      <trkpt lat="46.31503" lon="5.44402">
        <ele>336.4</ele>
        <time>2022-07-23T14:31:38Z</time>
      </trkpt>
      <trkpt lat="46.31556" lon="5.44418">
        <ele>335.8</ele>
        <time>2022-07-23T14:31:47Z</time>
      </trkpt>
      <trkpt lat="46.31609" lon="5.44426">
        <ele>335.4</ele>
        <time>2022-07-23T14:31:56Z</time>
      </trkpt>
      <trkpt lat="46.31663" lon="5.44431">
        <ele>335.8</ele>
        <time>2022-07-23T14:32:05Z</time>
      </trkpt>
      <trkpt lat="46.31669" lon="5.44431">
        <ele>335.8</ele>
        <time>2022-07-23T14:32:06Z</time>
      </trkpt>
      <trkpt lat="46.31722" lon="5.44431">
        <ele>335.6</ele>
        <time>2022-07-23T14:32:15Z</time>
      </trkpt>
      <trkpt lat="46.31728" lon="5.4443">
        <ele>335.8</ele>
        <time>2022-07-23T14:32:16Z</time>
      </trkpt>
      <trkpt lat="46.31756" lon="5.4442">
        <ele>335.8</ele>
        <time>2022-07-23T14:32:21Z</time>
      </trkpt>
      <trkpt lat="46.31798" lon="5.44401">
        <ele>336.4</ele>
        <time>2022-07-23T14:32:29Z</time>
      </trkpt>
      <trkpt lat="46.31855" lon="5.44377">
        <ele>337.6</ele>
        <time>2022-07-23T14:32:40Z</time>
      </trkpt>
      <trkpt lat="46.31865" lon="5.44373">
        <ele>337.8</ele>
        <time>2022-07-23T14:32:42Z</time>
      </trkpt>
      <trkpt lat="46.31899" lon="5.44359">
        <ele>338.4</ele>
        <time>2022-07-23T14:32:49Z</time>
      </trkpt>
      <trkpt lat="46.31927" lon="5.44348">
        <ele>338.6</ele>
        <time>2022-07-23T14:32:55Z</time>
      </trkpt>
      <trkpt lat="46.31946" lon="5.44339">
        <ele>339.2</ele>
        <time>2022-07-23T14:32:59Z</time>
      </trkpt>
      <trkpt lat="46.31969" lon="5.44329">
        <ele>339.8</ele>
        <time>2022-07-23T14:33:04Z</time>
      </trkpt>
      <trkpt lat="46.32002" lon="5.44315">
        <ele>340.2</ele>
        <time>2022-07-23T14:33:11Z</time>
      </trkpt>
      <trkpt lat="46.32051" lon="5.44292">
        <ele>341</ele>
        <time>2022-07-23T14:33:21Z</time>
      </trkpt>
      <trkpt lat="46.32056" lon="5.4429">
        <ele>341</ele>
        <time>2022-07-23T14:33:22Z</time>
      </trkpt>
      <trkpt lat="46.32108" lon="5.44266">
        <ele>341.8</ele>
        <time>2022-07-23T14:33:32Z</time>
      </trkpt>
      <trkpt lat="46.32118" lon="5.44262">
        <ele>342</ele>
        <time>2022-07-23T14:33:34Z</time>
      </trkpt>
      <trkpt lat="46.32143" lon="5.44247">
        <ele>342.4</ele>
        <time>2022-07-23T14:33:39Z</time>
      </trkpt>
      <trkpt lat="46.32185" lon="5.44214">
        <ele>343</ele>
        <time>2022-07-23T14:33:48Z</time>
      </trkpt>
      <trkpt lat="46.32226" lon="5.44176">
        <ele>343.8</ele>
        <time>2022-07-23T14:33:57Z</time>
      </trkpt>
      <trkpt lat="46.32239" lon="5.44164">
        <ele>344.2</ele>
        <time>2022-07-23T14:34:00Z</time>
      </trkpt>
      <trkpt lat="46.32267" lon="5.44137">
        <ele>345</ele>
        <time>2022-07-23T14:34:07Z</time>
      </trkpt>
      <trkpt lat="46.3228" lon="5.44127">
        <ele>345.2</ele>
        <time>2022-07-23T14:34:10Z</time>
      </trkpt>
      <trkpt lat="46.323" lon="5.44107">
        <ele>345.8</ele>
        <time>2022-07-23T14:34:15Z</time>
      </trkpt>
      <trkpt lat="46.32315" lon="5.44092">
        <ele>346.2</ele>
        <time>2022-07-23T14:34:19Z</time>
      </trkpt>
      <trkpt lat="46.32331" lon="5.44078">
        <ele>346.8</ele>
        <time>2022-07-23T14:34:23Z</time>
      </trkpt>
      <trkpt lat="46.32339" lon="5.44071">
        <ele>347.2</ele>
        <time>2022-07-23T14:34:25Z</time>
      </trkpt>
      <trkpt lat="46.3236" lon="5.44053">
        <ele>348.4</ele>
        <time>2022-07-23T14:34:30Z</time>
      </trkpt>
      <trkpt lat="46.32372" lon="5.44041">
        <ele>348.8</ele>
        <time>2022-07-23T14:34:33Z</time>
      </trkpt>
      <trkpt lat="46.32376" lon="5.44038">
        <ele>349.4</ele>
        <time>2022-07-23T14:34:34Z</time>
      </trkpt>
      <trkpt lat="46.32412" lon="5.44005">
        <ele>350.4</ele>
        <time>2022-07-23T14:34:43Z</time>
      </trkpt>
      <trkpt lat="46.32435" lon="5.43985">
        <ele>351.8</ele>
        <time>2022-07-23T14:34:49Z</time>
      </trkpt>
      <trkpt lat="46.32447" lon="5.43974">
        <ele>352.8</ele>
        <time>2022-07-23T14:34:52Z</time>
      </trkpt>
      <trkpt lat="46.32451" lon="5.43971">
        <ele>353</ele>
        <time>2022-07-23T14:34:53Z</time>
      </trkpt>
      <trkpt lat="46.32475" lon="5.4395">
        <ele>354</ele>
        <time>2022-07-23T14:34:59Z</time>
      </trkpt>
      <trkpt lat="46.32495" lon="5.43931">
        <ele>355</ele>
        <time>2022-07-23T14:35:04Z</time>
      </trkpt>
      <trkpt lat="46.32521" lon="5.43908">
        <ele>356.2</ele>
        <time>2022-07-23T14:35:10Z</time>
      </trkpt>
      <trkpt lat="46.32542" lon="5.43891">
        <ele>356.6</ele>
        <time>2022-07-23T14:35:15Z</time>
      </trkpt>
      <trkpt lat="46.3255" lon="5.43883">
        <ele>357</ele>
        <time>2022-07-23T14:35:17Z</time>
      </trkpt>
      <trkpt lat="46.32559" lon="5.43877">
        <ele>357.4</ele>
        <time>2022-07-23T14:35:19Z</time>
      </trkpt>
      <trkpt lat="46.32564" lon="5.43874">
        <ele>357.4</ele>
        <time>2022-07-23T14:35:20Z</time>
      </trkpt>
      <trkpt lat="46.32591" lon="5.43856">
        <ele>358.4</ele>
        <time>2022-07-23T14:35:26Z</time>
      </trkpt>
      <trkpt lat="46.32595" lon="5.43853">
        <ele>358.4</ele>
        <time>2022-07-23T14:35:27Z</time>
      </trkpt>
      <trkpt lat="46.326" lon="5.43849">
        <ele>358.4</ele>
        <time>2022-07-23T14:35:28Z</time>
      </trkpt>
      <trkpt lat="46.32605" lon="5.43844">
        <ele>358.4</ele>
        <time>2022-07-23T14:35:29Z</time>
      </trkpt>
      <trkpt lat="46.32623" lon="5.43823">
        <ele>358.4</ele>
        <time>2022-07-23T14:35:33Z</time>
      </trkpt>
      <trkpt lat="46.32647" lon="5.43787">
        <ele>359</ele>
        <time>2022-07-23T14:35:40Z</time>
      </trkpt>
      <trkpt lat="46.32658" lon="5.43774">
        <ele>359.4</ele>
        <time>2022-07-23T14:35:43Z</time>
      </trkpt>
      <trkpt lat="46.32662" lon="5.43771">
        <ele>359.6</ele>
        <time>2022-07-23T14:35:44Z</time>
      </trkpt>
      <trkpt lat="46.3267" lon="5.43765">
        <ele>360</ele>
        <time>2022-07-23T14:35:46Z</time>
      </trkpt>
      <trkpt lat="46.32692" lon="5.43753">
        <ele>360.4</ele>
        <time>2022-07-23T14:35:51Z</time>
      </trkpt>
      <trkpt lat="46.32706" lon="5.43748">
        <ele>361.2</ele>
        <time>2022-07-23T14:35:54Z</time>
      </trkpt>
      <trkpt lat="46.3272" lon="5.43741">
        <ele>361.6</ele>
        <time>2022-07-23T14:35:57Z</time>
      </trkpt>
      <trkpt lat="46.32749" lon="5.43728">
        <ele>362.2</ele>
        <time>2022-07-23T14:36:03Z</time>
      </trkpt>
      <trkpt lat="46.32764" lon="5.43722">
        <ele>362.6</ele>
        <time>2022-07-23T14:36:06Z</time>
      </trkpt>
      <trkpt lat="46.32792" lon="5.43709">
        <ele>363</ele>
        <time>2022-07-23T14:36:12Z</time>
      </trkpt>
      <trkpt lat="46.32819" lon="5.43696">
        <ele>363.6</ele>
        <time>2022-07-23T14:36:18Z</time>
      </trkpt>
      <trkpt lat="46.32824" lon="5.43692">
        <ele>363.8</ele>
        <time>2022-07-23T14:36:19Z</time>
      </trkpt>
      <trkpt lat="46.32855" lon="5.43669">
        <ele>365</ele>
        <time>2022-07-23T14:36:26Z</time>
      </trkpt>
      <trkpt lat="46.3286" lon="5.43668">
        <ele>365.2</ele>
        <time>2022-07-23T14:36:27Z</time>
      </trkpt>
      <trkpt lat="46.32882" lon="5.43657">
        <ele>366</ele>
        <time>2022-07-23T14:36:32Z</time>
      </trkpt>
      <trkpt lat="46.32886" lon="5.43656">
        <ele>366.2</ele>
        <time>2022-07-23T14:36:33Z</time>
      </trkpt>
      <trkpt lat="46.32902" lon="5.43648">
        <ele>366.8</ele>
        <time>2022-07-23T14:36:37Z</time>
      </trkpt>
      <trkpt lat="46.32905" lon="5.43641">
        <ele>366.8</ele>
        <time>2022-07-23T14:36:39Z</time>
      </trkpt>
      <trkpt lat="46.32904" lon="5.43636">
        <ele>366.8</ele>
        <time>2022-07-23T14:36:40Z</time>
      </trkpt>
      <trkpt lat="46.32898" lon="5.43606">
        <ele>366.8</ele>
        <time>2022-07-23T14:36:44Z</time>
      </trkpt>
      <trkpt lat="46.32897" lon="5.43598">
        <ele>366.8</ele>
        <time>2022-07-23T14:36:45Z</time>
      </trkpt>
      <trkpt lat="46.32897" lon="5.4359">
        <ele>366.8</ele>
        <time>2022-07-23T14:36:46Z</time>
      </trkpt>
      <trkpt lat="46.329" lon="5.43574">
        <ele>366.6</ele>
        <time>2022-07-23T14:36:48Z</time>
      </trkpt>
      <trkpt lat="46.32904" lon="5.43567">
        <ele>366.6</ele>
        <time>2022-07-23T14:36:49Z</time>
      </trkpt>
      <trkpt lat="46.32909" lon="5.4356">
        <ele>366.4</ele>
        <time>2022-07-23T14:36:50Z</time>
      </trkpt>
      <trkpt lat="46.32933" lon="5.43536">
        <ele>366.8</ele>
        <time>2022-07-23T14:36:55Z</time>
      </trkpt>
      <trkpt lat="46.32941" lon="5.43529">
        <ele>367.2</ele>
        <time>2022-07-23T14:36:57Z</time>
      </trkpt>
      <trkpt lat="46.32945" lon="5.43525">
        <ele>367.2</ele>
        <time>2022-07-23T14:36:58Z</time>
      </trkpt>
      <trkpt lat="46.32954" lon="5.43519">
        <ele>367.6</ele>
        <time>2022-07-23T14:37:00Z</time>
      </trkpt>
      <trkpt lat="46.32968" lon="5.43505">
        <ele>368.2</ele>
        <time>2022-07-23T14:37:03Z</time>
      </trkpt>
      <trkpt lat="46.32983" lon="5.43487">
        <ele>368.2</ele>
        <time>2022-07-23T14:37:06Z</time>
      </trkpt>
      <trkpt lat="46.33016" lon="5.43448">
        <ele>366.6</ele>
        <time>2022-07-23T14:37:11Z</time>
      </trkpt>
      <trkpt lat="46.3303" lon="5.43429">
        <ele>365.2</ele>
        <time>2022-07-23T14:37:13Z</time>
      </trkpt>
      <trkpt lat="46.33046" lon="5.43412">
        <ele>364.2</ele>
        <time>2022-07-23T14:37:15Z</time>
      </trkpt>
      <trkpt lat="46.33055" lon="5.43404">
        <ele>363.8</ele>
        <time>2022-07-23T14:37:16Z</time>
      </trkpt>
      <trkpt lat="46.33063" lon="5.43396">
        <ele>362.8</ele>
        <time>2022-07-23T14:37:17Z</time>
      </trkpt>
      <trkpt lat="46.3308" lon="5.43381">
        <ele>361.2</ele>
        <time>2022-07-23T14:37:19Z</time>
      </trkpt>
      <trkpt lat="46.33089" lon="5.43373">
        <ele>360.2</ele>
        <time>2022-07-23T14:37:20Z</time>
      </trkpt>
      <trkpt lat="46.33097" lon="5.43366">
        <ele>359.6</ele>
        <time>2022-07-23T14:37:21Z</time>
      </trkpt>
      <trkpt lat="46.33107" lon="5.4336">
        <ele>358.2</ele>
        <time>2022-07-23T14:37:22Z</time>
      </trkpt>
      <trkpt lat="46.33125" lon="5.43347">
        <ele>356.8</ele>
        <time>2022-07-23T14:37:24Z</time>
      </trkpt>
      <trkpt lat="46.33135" lon="5.43341">
        <ele>355.6</ele>
        <time>2022-07-23T14:37:25Z</time>
      </trkpt>
      <trkpt lat="46.33164" lon="5.43325">
        <ele>354.4</ele>
        <time>2022-07-23T14:37:28Z</time>
      </trkpt>
      <trkpt lat="46.33184" lon="5.43314">
        <ele>353</ele>
        <time>2022-07-23T14:37:30Z</time>
      </trkpt>
      <trkpt lat="46.33195" lon="5.43308">
        <ele>351.8</ele>
        <time>2022-07-23T14:37:31Z</time>
      </trkpt>
      <trkpt lat="46.33216" lon="5.43298">
        <ele>350.4</ele>
        <time>2022-07-23T14:37:33Z</time>
      </trkpt>
      <trkpt lat="46.33226" lon="5.43295">
        <ele>350</ele>
        <time>2022-07-23T14:37:34Z</time>
      </trkpt>
      <trkpt lat="46.33237" lon="5.43293">
        <ele>349.8</ele>
        <time>2022-07-23T14:37:35Z</time>
      </trkpt>
      <trkpt lat="46.33248" lon="5.43292">
        <ele>348.8</ele>
        <time>2022-07-23T14:37:36Z</time>
      </trkpt>
      <trkpt lat="46.33268" lon="5.4329">
        <ele>347.4</ele>
        <time>2022-07-23T14:37:38Z</time>
      </trkpt>
      <trkpt lat="46.33298" lon="5.43283">
        <ele>346.2</ele>
        <time>2022-07-23T14:37:41Z</time>
      </trkpt>
      <trkpt lat="46.33326" lon="5.43276">
        <ele>345.2</ele>
        <time>2022-07-23T14:37:44Z</time>
      </trkpt>
      <trkpt lat="46.33344" lon="5.4327">
        <ele>344</ele>
        <time>2022-07-23T14:37:46Z</time>
      </trkpt>
      <trkpt lat="46.3338" lon="5.43262">
        <ele>343.4</ele>
        <time>2022-07-23T14:37:50Z</time>
      </trkpt>
      <trkpt lat="46.33399" lon="5.43256">
        <ele>343</ele>
        <time>2022-07-23T14:37:52Z</time>
      </trkpt>
      <trkpt lat="46.33407" lon="5.4325">
        <ele>342.8</ele>
        <time>2022-07-23T14:37:53Z</time>
      </trkpt>
      <trkpt lat="46.33415" lon="5.43242">
        <ele>342.4</ele>
        <time>2022-07-23T14:37:54Z</time>
      </trkpt>
      <trkpt lat="46.33426" lon="5.43218">
        <ele>342</ele>
        <time>2022-07-23T14:37:56Z</time>
      </trkpt>
      <trkpt lat="46.33443" lon="5.43143">
        <ele>340.8</ele>
        <time>2022-07-23T14:38:02Z</time>
      </trkpt>
      <trkpt lat="46.33446" lon="5.4313">
        <ele>340.6</ele>
        <time>2022-07-23T14:38:03Z</time>
      </trkpt>
      <trkpt lat="46.33457" lon="5.4308">
        <ele>340.2</ele>
        <time>2022-07-23T14:38:07Z</time>
      </trkpt>
      <trkpt lat="46.33461" lon="5.43069">
        <ele>340.2</ele>
        <time>2022-07-23T14:38:08Z</time>
      </trkpt>
      <trkpt lat="46.3348" lon="5.43016">
        <ele>340.2</ele>
        <time>2022-07-23T14:38:13Z</time>
      </trkpt>
      <trkpt lat="46.33482" lon="5.43006">
        <ele>340.2</ele>
        <time>2022-07-23T14:38:14Z</time>
      </trkpt>
      <trkpt lat="46.33489" lon="5.42966">
        <ele>340.6</ele>
        <time>2022-07-23T14:38:18Z</time>
      </trkpt>
      <trkpt lat="46.33503" lon="5.4293">
        <ele>341.2</ele>
        <time>2022-07-23T14:38:22Z</time>
      </trkpt>
      <trkpt lat="46.33513" lon="5.42914">
        <ele>341.6</ele>
        <time>2022-07-23T14:38:24Z</time>
      </trkpt>
      <trkpt lat="46.33529" lon="5.42894">
        <ele>341.6</ele>
        <time>2022-07-23T14:38:27Z</time>
      </trkpt>
      <trkpt lat="46.33538" lon="5.42878">
        <ele>341.6</ele>
        <time>2022-07-23T14:38:29Z</time>
      </trkpt>
      <trkpt lat="46.33556" lon="5.42845">
        <ele>341.6</ele>
        <time>2022-07-23T14:38:32Z</time>
      </trkpt>
      <trkpt lat="46.33581" lon="5.42818">
        <ele>341.6</ele>
        <time>2022-07-23T14:38:36Z</time>
      </trkpt>
      <trkpt lat="46.33596" lon="5.42808">
        <ele>341.4</ele>
        <time>2022-07-23T14:38:38Z</time>
      </trkpt>
      <trkpt lat="46.33617" lon="5.42797">
        <ele>341.2</ele>
        <time>2022-07-23T14:38:41Z</time>
      </trkpt>
      <trkpt lat="46.33675" lon="5.42772">
        <ele>340.8</ele>
        <time>2022-07-23T14:38:49Z</time>
      </trkpt>
      <trkpt lat="46.33682" lon="5.42768">
        <ele>341</ele>
        <time>2022-07-23T14:38:50Z</time>
      </trkpt>
      <trkpt lat="46.33706" lon="5.42749">
        <ele>341.2</ele>
        <time>2022-07-23T14:38:54Z</time>
      </trkpt>
      <trkpt lat="46.3371" lon="5.42742">
        <ele>341.2</ele>
        <time>2022-07-23T14:38:55Z</time>
      </trkpt>
      <trkpt lat="46.33729" lon="5.42706">
        <ele>341.4</ele>
        <time>2022-07-23T14:39:00Z</time>
      </trkpt>
      <trkpt lat="46.33738" lon="5.42673">
        <ele>341.8</ele>
        <time>2022-07-23T14:39:04Z</time>
      </trkpt>
      <trkpt lat="46.33745" lon="5.42649">
        <ele>342</ele>
        <time>2022-07-23T14:39:07Z</time>
      </trkpt>
      <trkpt lat="46.33767" lon="5.426">
        <ele>342.6</ele>
        <time>2022-07-23T14:39:14Z</time>
      </trkpt>
      <trkpt lat="46.33778" lon="5.42582">
        <ele>342.8</ele>
        <time>2022-07-23T14:39:17Z</time>
      </trkpt>
      <trkpt lat="46.33799" lon="5.42555">
        <ele>343.6</ele>
        <time>2022-07-23T14:39:22Z</time>
      </trkpt>
      <trkpt lat="46.33803" lon="5.42549">
        <ele>343.8</ele>
        <time>2022-07-23T14:39:23Z</time>
      </trkpt>
      <trkpt lat="46.33833" lon="5.42515">
        <ele>345</ele>
        <time>2022-07-23T14:39:30Z</time>
      </trkpt>
      <trkpt lat="46.33837" lon="5.4251">
        <ele>345.2</ele>
        <time>2022-07-23T14:39:31Z</time>
      </trkpt>
      <trkpt lat="46.33876" lon="5.42468">
        <ele>346.2</ele>
        <time>2022-07-23T14:39:40Z</time>
      </trkpt>
      <trkpt lat="46.33916" lon="5.4243">
        <ele>346.6</ele>
        <time>2022-07-23T14:39:49Z</time>
      </trkpt>
      <trkpt lat="46.33951" lon="5.42401">
        <ele>347</ele>
        <time>2022-07-23T14:39:57Z</time>
      </trkpt>
      <trkpt lat="46.33956" lon="5.42397">
        <ele>347.2</ele>
        <time>2022-07-23T14:39:58Z</time>
      </trkpt>
      <trkpt lat="46.33971" lon="5.42383">
        <ele>348.4</ele>
        <time>2022-07-23T14:40:02Z</time>
      </trkpt>
      <trkpt lat="46.33988" lon="5.42369">
        <ele>349</ele>
        <time>2022-07-23T14:40:06Z</time>
      </trkpt>
      <trkpt lat="46.34001" lon="5.42359">
        <ele>349.4</ele>
        <time>2022-07-23T14:40:09Z</time>
      </trkpt>
      <trkpt lat="46.34032" lon="5.42341">
        <ele>350.4</ele>
        <time>2022-07-23T14:40:16Z</time>
      </trkpt>
      <trkpt lat="46.34075" lon="5.42315">
        <ele>351</ele>
        <time>2022-07-23T14:40:26Z</time>
      </trkpt>
      <trkpt lat="46.34084" lon="5.42306">
        <ele>351.6</ele>
        <time>2022-07-23T14:40:28Z</time>
      </trkpt>
      <trkpt lat="46.34103" lon="5.42285">
        <ele>352.2</ele>
        <time>2022-07-23T14:40:32Z</time>
      </trkpt>
      <trkpt lat="46.3414" lon="5.42243">
        <ele>351</ele>
        <time>2022-07-23T14:40:39Z</time>
      </trkpt>
      <trkpt lat="46.34151" lon="5.42232">
        <ele>350.4</ele>
        <time>2022-07-23T14:40:41Z</time>
      </trkpt>
      <trkpt lat="46.34187" lon="5.42189">
        <ele>349.8</ele>
        <time>2022-07-23T14:40:48Z</time>
      </trkpt>
      <trkpt lat="46.3422" lon="5.42153">
        <ele>349.2</ele>
        <time>2022-07-23T14:40:54Z</time>
      </trkpt>
      <trkpt lat="46.34225" lon="5.42147">
        <ele>349</ele>
        <time>2022-07-23T14:40:55Z</time>
      </trkpt>
      <trkpt lat="46.34259" lon="5.42105">
        <ele>348.8</ele>
        <time>2022-07-23T14:41:02Z</time>
      </trkpt>
      <trkpt lat="46.34291" lon="5.42061">
        <ele>348.8</ele>
        <time>2022-07-23T14:41:09Z</time>
      </trkpt>
      <trkpt lat="46.34333" lon="5.42001">
        <ele>349.4</ele>
        <time>2022-07-23T14:41:19Z</time>
      </trkpt>
      <trkpt lat="46.3434" lon="5.41988">
        <ele>349.8</ele>
        <time>2022-07-23T14:41:21Z</time>
      </trkpt>
      <trkpt lat="46.34347" lon="5.41967">
        <ele>350.2</ele>
        <time>2022-07-23T14:41:24Z</time>
      </trkpt>
      <trkpt lat="46.34349" lon="5.41959">
        <ele>350.4</ele>
        <time>2022-07-23T14:41:25Z</time>
      </trkpt>
      <trkpt lat="46.34355" lon="5.41915">
        <ele>350.6</ele>
        <time>2022-07-23T14:41:30Z</time>
      </trkpt>
      <trkpt lat="46.34361" lon="5.41898">
        <ele>350.6</ele>
        <time>2022-07-23T14:41:32Z</time>
      </trkpt>
      <trkpt lat="46.34369" lon="5.41884">
        <ele>350.2</ele>
        <time>2022-07-23T14:41:34Z</time>
      </trkpt>
      <trkpt lat="46.34378" lon="5.41872">
        <ele>350.2</ele>
        <time>2022-07-23T14:41:36Z</time>
      </trkpt>
      <trkpt lat="46.34393" lon="5.41859">
        <ele>350.2</ele>
        <time>2022-07-23T14:41:39Z</time>
      </trkpt>
      <trkpt lat="46.34428" lon="5.41833">
        <ele>350.6</ele>
        <time>2022-07-23T14:41:46Z</time>
      </trkpt>
      <trkpt lat="46.34461" lon="5.41801">
        <ele>351</ele>
        <time>2022-07-23T14:41:53Z</time>
      </trkpt>
      <trkpt lat="46.34506" lon="5.41755">
        <ele>350.4</ele>
        <time>2022-07-23T14:42:02Z</time>
      </trkpt>
      <trkpt lat="46.34554" lon="5.41713">
        <ele>350.4</ele>
        <time>2022-07-23T14:42:11Z</time>
      </trkpt>
      <trkpt lat="46.34565" lon="5.41704">
        <ele>350.4</ele>
        <time>2022-07-23T14:42:13Z</time>
      </trkpt>
      <trkpt lat="46.34585" lon="5.41691">
        <ele>350.8</ele>
        <time>2022-07-23T14:42:17Z</time>
      </trkpt>
      <trkpt lat="46.3461" lon="5.41674">
        <ele>351.4</ele>
        <time>2022-07-23T14:42:22Z</time>
      </trkpt>
      <trkpt lat="46.34615" lon="5.4167">
        <ele>351.8</ele>
        <time>2022-07-23T14:42:23Z</time>
      </trkpt>
      <trkpt lat="46.34619" lon="5.41666">
        <ele>351.8</ele>
        <time>2022-07-23T14:42:24Z</time>
      </trkpt>
      <trkpt lat="46.34637" lon="5.41641">
        <ele>352.2</ele>
        <time>2022-07-23T14:42:28Z</time>
      </trkpt>
      <trkpt lat="46.34668" lon="5.41587">
        <ele>352.4</ele>
        <time>2022-07-23T14:42:36Z</time>
      </trkpt>
      <trkpt lat="46.34704" lon="5.41528">
        <ele>352.8</ele>
        <time>2022-07-23T14:42:45Z</time>
      </trkpt>
      <trkpt lat="46.34736" lon="5.41477">
        <ele>352.8</ele>
        <time>2022-07-23T14:42:53Z</time>
      </trkpt>
      <trkpt lat="46.34768" lon="5.41433">
        <ele>353</ele>
        <time>2022-07-23T14:43:00Z</time>
      </trkpt>
      <trkpt lat="46.3481" lon="5.41384">
        <ele>352.6</ele>
        <time>2022-07-23T14:43:08Z</time>
      </trkpt>
      <trkpt lat="46.34856" lon="5.41332">
        <ele>352</ele>
        <time>2022-07-23T14:43:17Z</time>
      </trkpt>
      <trkpt lat="46.34892" lon="5.41282">
        <ele>352</ele>
        <time>2022-07-23T14:43:25Z</time>
      </trkpt>
      <trkpt lat="46.34926" lon="5.41222">
        <ele>353</ele>
        <time>2022-07-23T14:43:34Z</time>
      </trkpt>
      <trkpt lat="46.3493" lon="5.41216">
        <ele>353.2</ele>
        <time>2022-07-23T14:43:35Z</time>
      </trkpt>
      <trkpt lat="46.34969" lon="5.41163">
        <ele>353.8</ele>
        <time>2022-07-23T14:43:44Z</time>
      </trkpt>
      <trkpt lat="46.34989" lon="5.41134">
        <ele>354.2</ele>
        <time>2022-07-23T14:43:49Z</time>
      </trkpt>
      <trkpt lat="46.34992" lon="5.41127">
        <ele>354.4</ele>
        <time>2022-07-23T14:43:50Z</time>
      </trkpt>
      <trkpt lat="46.34995" lon="5.41121">
        <ele>354.4</ele>
        <time>2022-07-23T14:43:51Z</time>
      </trkpt>
      <trkpt lat="46.3502" lon="5.41063">
        <ele>355</ele>
        <time>2022-07-23T14:44:00Z</time>
      </trkpt>
      <trkpt lat="46.35027" lon="5.41044">
        <ele>355.4</ele>
        <time>2022-07-23T14:44:03Z</time>
      </trkpt>
      <trkpt lat="46.35041" lon="5.41015">
        <ele>356.4</ele>
        <time>2022-07-23T14:44:08Z</time>
      </trkpt>
      <trkpt lat="46.35047" lon="5.41004">
        <ele>356.6</ele>
        <time>2022-07-23T14:44:10Z</time>
      </trkpt>
      <trkpt lat="46.3506" lon="5.40984">
        <ele>357</ele>
        <time>2022-07-23T14:44:14Z</time>
      </trkpt>
      <trkpt lat="46.35063" lon="5.40979">
        <ele>357</ele>
        <time>2022-07-23T14:44:15Z</time>
      </trkpt>
      <trkpt lat="46.35072" lon="5.40965">
        <ele>357.6</ele>
        <time>2022-07-23T14:44:18Z</time>
      </trkpt>
      <trkpt lat="46.35089" lon="5.40947">
        <ele>358.4</ele>
        <time>2022-07-23T14:44:23Z</time>
      </trkpt>
      <trkpt lat="46.35092" lon="5.40944">
        <ele>358.8</ele>
        <time>2022-07-23T14:44:24Z</time>
      </trkpt>
      <trkpt lat="46.35106" lon="5.40933">
        <ele>359.8</ele>
        <time>2022-07-23T14:44:28Z</time>
      </trkpt>
      <trkpt lat="46.3512" lon="5.40924">
        <ele>360.8</ele>
        <time>2022-07-23T14:44:32Z</time>
      </trkpt>
      <trkpt lat="46.35141" lon="5.40916">
        <ele>362</ele>
        <time>2022-07-23T14:44:38Z</time>
      </trkpt>
      <trkpt lat="46.35148" lon="5.40914">
        <ele>362.6</ele>
        <time>2022-07-23T14:44:40Z</time>
      </trkpt>
      <trkpt lat="46.35158" lon="5.40912">
        <ele>363.4</ele>
        <time>2022-07-23T14:44:43Z</time>
      </trkpt>
      <trkpt lat="46.35175" lon="5.40908">
        <ele>364.6</ele>
        <time>2022-07-23T14:44:48Z</time>
      </trkpt>
      <trkpt lat="46.35178" lon="5.40907">
        <ele>364.8</ele>
        <time>2022-07-23T14:44:49Z</time>
      </trkpt>
      <trkpt lat="46.35192" lon="5.40905">
        <ele>365.8</ele>
        <time>2022-07-23T14:44:53Z</time>
      </trkpt>
      <trkpt lat="46.35212" lon="5.40904">
        <ele>367</ele>
        <time>2022-07-23T14:44:59Z</time>
      </trkpt>
      <trkpt lat="46.35222" lon="5.40903">
        <ele>367.4</ele>
        <time>2022-07-23T14:45:02Z</time>
      </trkpt>
      <trkpt lat="46.35229" lon="5.40902">
        <ele>368</ele>
        <time>2022-07-23T14:45:04Z</time>
      </trkpt>
      <trkpt lat="46.35232" lon="5.40902">
        <ele>368.2</ele>
        <time>2022-07-23T14:45:05Z</time>
      </trkpt>
      <trkpt lat="46.35249" lon="5.40901">
        <ele>369.2</ele>
        <time>2022-07-23T14:45:10Z</time>
      </trkpt>
      <trkpt lat="46.35268" lon="5.40904">
        <ele>370.4</ele>
        <time>2022-07-23T14:45:16Z</time>
      </trkpt>
      <trkpt lat="46.35279" lon="5.40906">
        <ele>371.6</ele>
        <time>2022-07-23T14:45:19Z</time>
      </trkpt>
      <trkpt lat="46.35293" lon="5.40908">
        <ele>372.6</ele>
        <time>2022-07-23T14:45:23Z</time>
      </trkpt>
      <trkpt lat="46.35308" lon="5.40905">
        <ele>373.4</ele>
        <time>2022-07-23T14:45:27Z</time>
      </trkpt>
      <trkpt lat="46.35319" lon="5.40897">
        <ele>373.8</ele>
        <time>2022-07-23T14:45:30Z</time>
      </trkpt>
      <trkpt lat="46.35325" lon="5.4089">
        <ele>374</ele>
        <time>2022-07-23T14:45:32Z</time>
      </trkpt>
      <trkpt lat="46.35342" lon="5.40868">
        <ele>374.4</ele>
        <time>2022-07-23T14:45:38Z</time>
      </trkpt>
      <trkpt lat="46.35342" lon="5.4085">
        <ele>374.6</ele>
        <time>2022-07-23T14:45:41Z</time>
      </trkpt>
      <trkpt lat="46.3534" lon="5.40843">
        <ele>374.8</ele>
        <time>2022-07-23T14:45:42Z</time>
      </trkpt>
      <trkpt lat="46.35339" lon="5.40836">
        <ele>374.8</ele>
        <time>2022-07-23T14:45:43Z</time>
      </trkpt>
      <trkpt lat="46.35337" lon="5.40812">
        <ele>375</ele>
        <time>2022-07-23T14:45:46Z</time>
      </trkpt>
      <trkpt lat="46.35337" lon="5.40804">
        <ele>375</ele>
        <time>2022-07-23T14:45:47Z</time>
      </trkpt>
      <trkpt lat="46.3534" lon="5.40798">
        <ele>374.6</ele>
        <time>2022-07-23T14:45:48Z</time>
      </trkpt>
      <trkpt lat="46.35347" lon="5.40789">
        <ele>374.4</ele>
        <time>2022-07-23T14:45:50Z</time>
      </trkpt>
      <trkpt lat="46.35358" lon="5.40783">
        <ele>374</ele>
        <time>2022-07-23T14:45:52Z</time>
      </trkpt>
      <trkpt lat="46.35364" lon="5.40781">
        <ele>373.8</ele>
        <time>2022-07-23T14:45:53Z</time>
      </trkpt>
      <trkpt lat="46.3537" lon="5.40779">
        <ele>373.6</ele>
        <time>2022-07-23T14:45:54Z</time>
      </trkpt>
      <trkpt lat="46.35403" lon="5.40777">
        <ele>372.8</ele>
        <time>2022-07-23T14:45:59Z</time>
      </trkpt>
      <trkpt lat="46.3541" lon="5.40775">
        <ele>372.6</ele>
        <time>2022-07-23T14:46:00Z</time>
      </trkpt>
      <trkpt lat="46.35417" lon="5.4077">
        <ele>372.4</ele>
        <time>2022-07-23T14:46:01Z</time>
      </trkpt>
      <trkpt lat="46.35424" lon="5.40765">
        <ele>372</ele>
        <time>2022-07-23T14:46:02Z</time>
      </trkpt>
      <trkpt lat="46.35438" lon="5.40756">
        <ele>371.4</ele>
        <time>2022-07-23T14:46:04Z</time>
      </trkpt>
      <trkpt lat="46.35454" lon="5.40748">
        <ele>371</ele>
        <time>2022-07-23T14:46:06Z</time>
      </trkpt>
      <trkpt lat="46.35462" lon="5.40746">
        <ele>370.8</ele>
        <time>2022-07-23T14:46:07Z</time>
      </trkpt>
      <trkpt lat="46.35478" lon="5.40745">
        <ele>370.4</ele>
        <time>2022-07-23T14:46:09Z</time>
      </trkpt>
      <trkpt lat="46.35502" lon="5.40745">
        <ele>368.8</ele>
        <time>2022-07-23T14:46:12Z</time>
      </trkpt>
      <trkpt lat="46.35536" lon="5.40744">
        <ele>367.8</ele>
        <time>2022-07-23T14:46:16Z</time>
      </trkpt>
      <trkpt lat="46.35554" lon="5.40748">
        <ele>367.2</ele>
        <time>2022-07-23T14:46:18Z</time>
      </trkpt>
      <trkpt lat="46.35563" lon="5.4075">
        <ele>366.4</ele>
        <time>2022-07-23T14:46:19Z</time>
      </trkpt>
      <trkpt lat="46.35589" lon="5.4076">
        <ele>365.2</ele>
        <time>2022-07-23T14:46:22Z</time>
      </trkpt>
      <trkpt lat="46.35597" lon="5.40763">
        <ele>365.2</ele>
        <time>2022-07-23T14:46:23Z</time>
      </trkpt>
      <trkpt lat="46.35614" lon="5.40769">
        <ele>364.2</ele>
        <time>2022-07-23T14:46:25Z</time>
      </trkpt>
      <trkpt lat="46.35646" lon="5.40777">
        <ele>363.8</ele>
        <time>2022-07-23T14:46:29Z</time>
      </trkpt>
      <trkpt lat="46.35695" lon="5.40778">
        <ele>363.6</ele>
        <time>2022-07-23T14:46:35Z</time>
      </trkpt>
      <trkpt lat="46.3571" lon="5.40775">
        <ele>363.2</ele>
        <time>2022-07-23T14:46:37Z</time>
      </trkpt>
      <trkpt lat="46.35731" lon="5.4077">
        <ele>362.6</ele>
        <time>2022-07-23T14:46:40Z</time>
      </trkpt>
      <trkpt lat="46.35737" lon="5.40767">
        <ele>362.6</ele>
        <time>2022-07-23T14:46:41Z</time>
      </trkpt>
      <trkpt lat="46.35753" lon="5.40755">
        <ele>362.4</ele>
        <time>2022-07-23T14:46:44Z</time>
      </trkpt>
      <trkpt lat="46.3576" lon="5.40747">
        <ele>363</ele>
        <time>2022-07-23T14:46:47Z</time>
      </trkpt>
      <trkpt lat="46.35762" lon="5.40744">
        <ele>363.6</ele>
        <time>2022-07-23T14:46:50Z</time>
      </trkpt>
      <trkpt lat="46.35769" lon="5.40746">
        <ele>364</ele>
        <time>2022-07-23T14:48:43Z</time>
      </trkpt>
      <trkpt lat="46.35777" lon="5.40747">
        <ele>364</ele>
        <time>2022-07-23T14:48:46Z</time>
      </trkpt>
      <trkpt lat="46.35797" lon="5.40749">
        <ele>363.8</ele>
        <time>2022-07-23T14:48:50Z</time>
      </trkpt>
      <trkpt lat="46.35839" lon="5.40759">
        <ele>363.6</ele>
        <time>2022-07-23T14:48:57Z</time>
      </trkpt>
      <trkpt lat="46.35892" lon="5.40774">
        <ele>363.6</ele>
        <time>2022-07-23T14:49:06Z</time>
      </trkpt>
      <trkpt lat="46.35926" lon="5.40788">
        <ele>364</ele>
        <time>2022-07-23T14:49:12Z</time>
      </trkpt>
      <trkpt lat="46.35948" lon="5.40815">
        <ele>364</ele>
        <time>2022-07-23T14:49:17Z</time>
      </trkpt>
      <trkpt lat="46.35953" lon="5.40821">
        <ele>364</ele>
        <time>2022-07-23T14:49:18Z</time>
      </trkpt>
      <trkpt lat="46.35967" lon="5.40835">
        <ele>364.2</ele>
        <time>2022-07-23T14:49:21Z</time>
      </trkpt>
      <trkpt lat="46.35981" lon="5.40848">
        <ele>364.2</ele>
        <time>2022-07-23T14:49:24Z</time>
      </trkpt>
      <trkpt lat="46.35995" lon="5.40864">
        <ele>364.6</ele>
        <time>2022-07-23T14:49:27Z</time>
      </trkpt>
      <trkpt lat="46.36004" lon="5.40876">
        <ele>364.6</ele>
        <time>2022-07-23T14:49:29Z</time>
      </trkpt>
      <trkpt lat="46.36022" lon="5.40908">
        <ele>365.2</ele>
        <time>2022-07-23T14:49:34Z</time>
      </trkpt>
      <trkpt lat="46.36027" lon="5.40914">
        <ele>365.2</ele>
        <time>2022-07-23T14:49:35Z</time>
      </trkpt>
      <trkpt lat="46.36031" lon="5.40918">
        <ele>365.2</ele>
        <time>2022-07-23T14:49:36Z</time>
      </trkpt>
      <trkpt lat="46.36042" lon="5.40925">
        <ele>365.2</ele>
        <time>2022-07-23T14:49:38Z</time>
      </trkpt>
      <trkpt lat="46.36048" lon="5.40928">
        <ele>365.2</ele>
        <time>2022-07-23T14:49:39Z</time>
      </trkpt>
      <trkpt lat="46.36094" lon="5.40947">
        <ele>365.4</ele>
        <time>2022-07-23T14:49:47Z</time>
      </trkpt>
      <trkpt lat="46.361" lon="5.40947">
        <ele>365.4</ele>
        <time>2022-07-23T14:49:48Z</time>
      </trkpt>
      <trkpt lat="46.36135" lon="5.40942">
        <ele>366.2</ele>
        <time>2022-07-23T14:49:54Z</time>
      </trkpt>
      <trkpt lat="46.36169" lon="5.4095">
        <ele>366.6</ele>
        <time>2022-07-23T14:50:00Z</time>
      </trkpt>
      <trkpt lat="46.3621" lon="5.40961">
        <ele>367.4</ele>
        <time>2022-07-23T14:50:07Z</time>
      </trkpt>
      <trkpt lat="46.36221" lon="5.40964">
        <ele>367.4</ele>
        <time>2022-07-23T14:50:09Z</time>
      </trkpt>
      <trkpt lat="46.36264" lon="5.40963">
        <ele>367.2</ele>
        <time>2022-07-23T14:50:16Z</time>
      </trkpt>
      <trkpt lat="46.36292" lon="5.40952">
        <ele>367.4</ele>
        <time>2022-07-23T14:50:21Z</time>
      </trkpt>
      <trkpt lat="46.36315" lon="5.40941">
        <ele>368</ele>
        <time>2022-07-23T14:50:25Z</time>
      </trkpt>
      <trkpt lat="46.36332" lon="5.40937">
        <ele>368.2</ele>
        <time>2022-07-23T14:50:28Z</time>
      </trkpt>
      <trkpt lat="46.3636" lon="5.40937">
        <ele>368.4</ele>
        <time>2022-07-23T14:50:33Z</time>
      </trkpt>
      <trkpt lat="46.36377" lon="5.40938">
        <ele>368.8</ele>
        <time>2022-07-23T14:50:36Z</time>
      </trkpt>
      <trkpt lat="46.36434" lon="5.40944">
        <ele>369.4</ele>
        <time>2022-07-23T14:50:46Z</time>
      </trkpt>
      <trkpt lat="46.36463" lon="5.40952">
        <ele>369.4</ele>
        <time>2022-07-23T14:50:51Z</time>
      </trkpt>
      <trkpt lat="46.36475" lon="5.40953">
        <ele>369.6</ele>
        <time>2022-07-23T14:50:53Z</time>
      </trkpt>
      <trkpt lat="46.36528" lon="5.40956">
        <ele>370</ele>
        <time>2022-07-23T14:51:02Z</time>
      </trkpt>
      <trkpt lat="46.3654" lon="5.40957">
        <ele>370.4</ele>
        <time>2022-07-23T14:51:04Z</time>
      </trkpt>
      <trkpt lat="46.36572" lon="5.40959">
        <ele>371.6</ele>
        <time>2022-07-23T14:51:10Z</time>
      </trkpt>
      <trkpt lat="46.36583" lon="5.40959">
        <ele>371.6</ele>
        <time>2022-07-23T14:51:12Z</time>
      </trkpt>
      <trkpt lat="46.36611" lon="5.4096">
        <ele>372.6</ele>
        <time>2022-07-23T14:51:17Z</time>
      </trkpt>
      <trkpt lat="46.36617" lon="5.40961">
        <ele>372.8</ele>
        <time>2022-07-23T14:51:18Z</time>
      </trkpt>
      <trkpt lat="46.36623" lon="5.40962">
        <ele>372.8</ele>
        <time>2022-07-23T14:51:19Z</time>
      </trkpt>
      <trkpt lat="46.36645" lon="5.40967">
        <ele>373.6</ele>
        <time>2022-07-23T14:51:23Z</time>
      </trkpt>
      <trkpt lat="46.36656" lon="5.40971">
        <ele>374</ele>
        <time>2022-07-23T14:51:25Z</time>
      </trkpt>
      <trkpt lat="46.36677" lon="5.40983">
        <ele>374.6</ele>
        <time>2022-07-23T14:51:29Z</time>
      </trkpt>
      <trkpt lat="46.36683" lon="5.40983">
        <ele>374.8</ele>
        <time>2022-07-23T14:51:30Z</time>
      </trkpt>
      <trkpt lat="46.36688" lon="5.40984">
        <ele>374.8</ele>
        <time>2022-07-23T14:51:31Z</time>
      </trkpt>
      <trkpt lat="46.36699" lon="5.40983">
        <ele>375</ele>
        <time>2022-07-23T14:51:33Z</time>
      </trkpt>
      <trkpt lat="46.36711" lon="5.40986">
        <ele>375.4</ele>
        <time>2022-07-23T14:51:35Z</time>
      </trkpt>
      <trkpt lat="46.36723" lon="5.40985">
        <ele>375.4</ele>
        <time>2022-07-23T14:51:37Z</time>
      </trkpt>
      <trkpt lat="46.36728" lon="5.40984">
        <ele>375.6</ele>
        <time>2022-07-23T14:51:38Z</time>
      </trkpt>
      <trkpt lat="46.36734" lon="5.40985">
        <ele>375.6</ele>
        <time>2022-07-23T14:51:39Z</time>
      </trkpt>
      <trkpt lat="46.3674" lon="5.40986">
        <ele>375.8</ele>
        <time>2022-07-23T14:51:40Z</time>
      </trkpt>
      <trkpt lat="46.36745" lon="5.40985">
        <ele>376</ele>
        <time>2022-07-23T14:51:41Z</time>
      </trkpt>
      <trkpt lat="46.36756" lon="5.40988">
        <ele>376.2</ele>
        <time>2022-07-23T14:51:43Z</time>
      </trkpt>
      <trkpt lat="46.36765" lon="5.40989">
        <ele>376.8</ele>
        <time>2022-07-23T14:51:45Z</time>
      </trkpt>
      <trkpt lat="46.36785" lon="5.40997">
        <ele>378</ele>
        <time>2022-07-23T14:51:49Z</time>
      </trkpt>
      <trkpt lat="46.36796" lon="5.40998">
        <ele>378.2</ele>
        <time>2022-07-23T14:51:51Z</time>
      </trkpt>
      <trkpt lat="46.36819" lon="5.40993">
        <ele>379</ele>
        <time>2022-07-23T14:51:55Z</time>
      </trkpt>
      <trkpt lat="46.36845" lon="5.40991">
        <ele>380</ele>
        <time>2022-07-23T14:52:00Z</time>
      </trkpt>
      <trkpt lat="46.36851" lon="5.40992">
        <ele>380.2</ele>
        <time>2022-07-23T14:52:01Z</time>
      </trkpt>
      <trkpt lat="46.36902" lon="5.40996">
        <ele>380.4</ele>
        <time>2022-07-23T14:52:11Z</time>
      </trkpt>
      <trkpt lat="46.36918" lon="5.40997">
        <ele>380.4</ele>
        <time>2022-07-23T14:52:14Z</time>
      </trkpt>
      <trkpt lat="46.36945" lon="5.40995">
        <ele>379.8</ele>
        <time>2022-07-23T14:52:19Z</time>
      </trkpt>
      <trkpt lat="46.36992" lon="5.40978">
        <ele>379.6</ele>
        <time>2022-07-23T14:52:27Z</time>
      </trkpt>
      <trkpt lat="46.37027" lon="5.40967">
        <ele>379</ele>
        <time>2022-07-23T14:52:33Z</time>
      </trkpt>
      <trkpt lat="46.37038" lon="5.40965">
        <ele>379</ele>
        <time>2022-07-23T14:52:35Z</time>
      </trkpt>
      <trkpt lat="46.37064" lon="5.40965">
        <ele>379.8</ele>
        <time>2022-07-23T14:52:40Z</time>
      </trkpt>
      <trkpt lat="46.37081" lon="5.40974">
        <ele>380.4</ele>
        <time>2022-07-23T14:52:43Z</time>
      </trkpt>
      <trkpt lat="46.37093" lon="5.4098">
        <ele>380.6</ele>
        <time>2022-07-23T14:52:45Z</time>
      </trkpt>
      <trkpt lat="46.37139" lon="5.40997">
        <ele>380.4</ele>
        <time>2022-07-23T14:52:52Z</time>
      </trkpt>
      <trkpt lat="46.37174" lon="5.41012">
        <ele>380.2</ele>
        <time>2022-07-23T14:52:58Z</time>
      </trkpt>
      <trkpt lat="46.37205" lon="5.41027">
        <ele>380.8</ele>
        <time>2022-07-23T14:53:04Z</time>
      </trkpt>
      <trkpt lat="46.37218" lon="5.41034">
        <ele>381.4</ele>
        <time>2022-07-23T14:53:07Z</time>
      </trkpt>
      <trkpt lat="46.37226" lon="5.41038">
        <ele>381.8</ele>
        <time>2022-07-23T14:53:09Z</time>
      </trkpt>
      <trkpt lat="46.37239" lon="5.41044">
        <ele>382.6</ele>
        <time>2022-07-23T14:53:12Z</time>
      </trkpt>
      <trkpt lat="46.37264" lon="5.41054">
        <ele>383.6</ele>
        <time>2022-07-23T14:53:18Z</time>
      </trkpt>
      <trkpt lat="46.37281" lon="5.41058">
        <ele>384.6</ele>
        <time>2022-07-23T14:53:22Z</time>
      </trkpt>
      <trkpt lat="46.37289" lon="5.4106">
        <ele>385.2</ele>
        <time>2022-07-23T14:53:24Z</time>
      </trkpt>
      <trkpt lat="46.37293" lon="5.4106">
        <ele>385.4</ele>
        <time>2022-07-23T14:53:25Z</time>
      </trkpt>
      <trkpt lat="46.37302" lon="5.41062">
        <ele>385.8</ele>
        <time>2022-07-23T14:53:27Z</time>
      </trkpt>
      <trkpt lat="46.37317" lon="5.41065">
        <ele>386.8</ele>
        <time>2022-07-23T14:53:31Z</time>
      </trkpt>
      <trkpt lat="46.37321" lon="5.41066">
        <ele>387.2</ele>
        <time>2022-07-23T14:53:32Z</time>
      </trkpt>
      <trkpt lat="46.37326" lon="5.41067">
        <ele>387.4</ele>
        <time>2022-07-23T14:53:33Z</time>
      </trkpt>
      <trkpt lat="46.37342" lon="5.41067">
        <ele>388.2</ele>
        <time>2022-07-23T14:53:37Z</time>
      </trkpt>
      <trkpt lat="46.37346" lon="5.41065">
        <ele>388.4</ele>
        <time>2022-07-23T14:53:38Z</time>
      </trkpt>
      <trkpt lat="46.37361" lon="5.41054">
        <ele>389.6</ele>
        <time>2022-07-23T14:53:42Z</time>
      </trkpt>
      <trkpt lat="46.37367" lon="5.41045">
        <ele>390.4</ele>
        <time>2022-07-23T14:53:44Z</time>
      </trkpt>
      <trkpt lat="46.37373" lon="5.41036">
        <ele>390.8</ele>
        <time>2022-07-23T14:53:46Z</time>
      </trkpt>
      <trkpt lat="46.37376" lon="5.41031">
        <ele>391</ele>
        <time>2022-07-23T14:53:47Z</time>
      </trkpt>
      <trkpt lat="46.37382" lon="5.41018">
        <ele>391.2</ele>
        <time>2022-07-23T14:53:49Z</time>
      </trkpt>
      <trkpt lat="46.37391" lon="5.40995">
        <ele>391.2</ele>
        <time>2022-07-23T14:53:52Z</time>
      </trkpt>
      <trkpt lat="46.37392" lon="5.40985">
        <ele>391.2</ele>
        <time>2022-07-23T14:53:53Z</time>
      </trkpt>
      <trkpt lat="46.37392" lon="5.40974">
        <ele>391.2</ele>
        <time>2022-07-23T14:53:54Z</time>
      </trkpt>
      <trkpt lat="46.37387" lon="5.40951">
        <ele>390.6</ele>
        <time>2022-07-23T14:53:56Z</time>
      </trkpt>
      <trkpt lat="46.37379" lon="5.40916">
        <ele>389.8</ele>
        <time>2022-07-23T14:53:59Z</time>
      </trkpt>
      <trkpt lat="46.37371" lon="5.40879">
        <ele>388.8</ele>
        <time>2022-07-23T14:54:02Z</time>
      </trkpt>
      <trkpt lat="46.37368" lon="5.40867">
        <ele>388.2</ele>
        <time>2022-07-23T14:54:03Z</time>
      </trkpt>
      <trkpt lat="46.37367" lon="5.40855">
        <ele>387.4</ele>
        <time>2022-07-23T14:54:04Z</time>
      </trkpt>
      <trkpt lat="46.37368" lon="5.40843">
        <ele>386.2</ele>
        <time>2022-07-23T14:54:05Z</time>
      </trkpt>
      <trkpt lat="46.3737" lon="5.40833">
        <ele>385.6</ele>
        <time>2022-07-23T14:54:06Z</time>
      </trkpt>
      <trkpt lat="46.37375" lon="5.40824">
        <ele>385</ele>
        <time>2022-07-23T14:54:07Z</time>
      </trkpt>
      <trkpt lat="46.37388" lon="5.40805">
        <ele>384.2</ele>
        <time>2022-07-23T14:54:09Z</time>
      </trkpt>
      <trkpt lat="46.37396" lon="5.40802">
        <ele>383.6</ele>
        <time>2022-07-23T14:54:10Z</time>
      </trkpt>
      <trkpt lat="46.37405" lon="5.408">
        <ele>383.4</ele>
        <time>2022-07-23T14:54:11Z</time>
      </trkpt>
      <trkpt lat="46.37414" lon="5.40798">
        <ele>382.6</ele>
        <time>2022-07-23T14:54:12Z</time>
      </trkpt>
      <trkpt lat="46.37423" lon="5.40795">
        <ele>382.2</ele>
        <time>2022-07-23T14:54:13Z</time>
      </trkpt>
      <trkpt lat="46.37432" lon="5.40791">
        <ele>381.4</ele>
        <time>2022-07-23T14:54:14Z</time>
      </trkpt>
      <trkpt lat="46.37447" lon="5.4078">
        <ele>380.2</ele>
        <time>2022-07-23T14:54:16Z</time>
      </trkpt>
      <trkpt lat="46.37462" lon="5.40768">
        <ele>379.4</ele>
        <time>2022-07-23T14:54:18Z</time>
      </trkpt>
      <trkpt lat="46.37469" lon="5.40763">
        <ele>378.8</ele>
        <time>2022-07-23T14:54:19Z</time>
      </trkpt>
      <trkpt lat="46.37477" lon="5.40759">
        <ele>378.6</ele>
        <time>2022-07-23T14:54:20Z</time>
      </trkpt>
      <trkpt lat="46.37485" lon="5.40756">
        <ele>378.2</ele>
        <time>2022-07-23T14:54:21Z</time>
      </trkpt>
      <trkpt lat="46.37493" lon="5.40753">
        <ele>377.8</ele>
        <time>2022-07-23T14:54:22Z</time>
      </trkpt>
      <trkpt lat="46.37534" lon="5.40745">
        <ele>377.2</ele>
        <time>2022-07-23T14:54:27Z</time>
      </trkpt>
      <trkpt lat="46.37583" lon="5.40746">
        <ele>377</ele>
        <time>2022-07-23T14:54:33Z</time>
      </trkpt>
      <trkpt lat="46.37642" lon="5.40754">
        <ele>376.8</ele>
        <time>2022-07-23T14:54:41Z</time>
      </trkpt>
      <trkpt lat="46.37649" lon="5.40753">
        <ele>376.8</ele>
        <time>2022-07-23T14:54:42Z</time>
      </trkpt>
      <trkpt lat="46.37656" lon="5.40751">
        <ele>376.6</ele>
        <time>2022-07-23T14:54:43Z</time>
      </trkpt>
      <trkpt lat="46.37668" lon="5.40742">
        <ele>376.4</ele>
        <time>2022-07-23T14:54:45Z</time>
      </trkpt>
      <trkpt lat="46.37696" lon="5.40705">
        <ele>375.4</ele>
        <time>2022-07-23T14:54:50Z</time>
      </trkpt>
      <trkpt lat="46.37713" lon="5.40682">
        <ele>374.4</ele>
        <time>2022-07-23T14:54:53Z</time>
      </trkpt>
      <trkpt lat="46.37718" lon="5.40674">
        <ele>374</ele>
        <time>2022-07-23T14:54:54Z</time>
      </trkpt>
      <trkpt lat="46.37733" lon="5.40652">
        <ele>373.4</ele>
        <time>2022-07-23T14:54:57Z</time>
      </trkpt>
      <trkpt lat="46.37737" lon="5.40643">
        <ele>373.4</ele>
        <time>2022-07-23T14:54:58Z</time>
      </trkpt>
      <trkpt lat="46.37741" lon="5.40635">
        <ele>373.2</ele>
        <time>2022-07-23T14:54:59Z</time>
      </trkpt>
      <trkpt lat="46.37751" lon="5.40608">
        <ele>373</ele>
        <time>2022-07-23T14:55:02Z</time>
      </trkpt>
      <trkpt lat="46.37774" lon="5.40539">
        <ele>372.8</ele>
        <time>2022-07-23T14:55:10Z</time>
      </trkpt>
      <trkpt lat="46.37787" lon="5.40503">
        <ele>374.6</ele>
        <time>2022-07-23T14:55:15Z</time>
      </trkpt>
      <trkpt lat="46.37802" lon="5.4047">
        <ele>375.4</ele>
        <time>2022-07-23T14:55:20Z</time>
      </trkpt>
      <trkpt lat="46.37812" lon="5.40458">
        <ele>375.4</ele>
        <time>2022-07-23T14:55:22Z</time>
      </trkpt>
      <trkpt lat="46.37846" lon="5.40429">
        <ele>374.6</ele>
        <time>2022-07-23T14:55:28Z</time>
      </trkpt>
      <trkpt lat="46.37889" lon="5.40394">
        <ele>373.8</ele>
        <time>2022-07-23T14:55:35Z</time>
      </trkpt>
      <trkpt lat="46.37909" lon="5.40378">
        <ele>373.4</ele>
        <time>2022-07-23T14:55:38Z</time>
      </trkpt>
      <trkpt lat="46.37929" lon="5.4036">
        <ele>372.2</ele>
        <time>2022-07-23T14:55:41Z</time>
      </trkpt>
      <trkpt lat="46.37943" lon="5.40348">
        <ele>371.8</ele>
        <time>2022-07-23T14:55:43Z</time>
      </trkpt>
      <trkpt lat="46.37955" lon="5.40334">
        <ele>371.8</ele>
        <time>2022-07-23T14:55:45Z</time>
      </trkpt>
      <trkpt lat="46.3797" lon="5.40309">
        <ele>371.6</ele>
        <time>2022-07-23T14:55:48Z</time>
      </trkpt>
      <trkpt lat="46.38003" lon="5.4024">
        <ele>371.6</ele>
        <time>2022-07-23T14:55:56Z</time>
      </trkpt>
      <trkpt lat="46.38014" lon="5.40196">
        <ele>371.4</ele>
        <time>2022-07-23T14:56:01Z</time>
      </trkpt>
      <trkpt lat="46.38027" lon="5.40133">
        <ele>372</ele>
        <time>2022-07-23T14:56:08Z</time>
      </trkpt>
      <trkpt lat="46.38046" lon="5.40061">
        <ele>371.6</ele>
        <time>2022-07-23T14:56:16Z</time>
      </trkpt>
      <trkpt lat="46.38048" lon="5.40017">
        <ele>371.6</ele>
        <time>2022-07-23T14:56:21Z</time>
      </trkpt>
      <trkpt lat="46.38048" lon="5.39954">
        <ele>371.6</ele>
        <time>2022-07-23T14:56:28Z</time>
      </trkpt>
      <trkpt lat="46.38052" lon="5.39938">
        <ele>371.6</ele>
        <time>2022-07-23T14:56:30Z</time>
      </trkpt>
      <trkpt lat="46.38055" lon="5.39932">
        <ele>371.6</ele>
        <time>2022-07-23T14:56:31Z</time>
      </trkpt>
      <trkpt lat="46.3806" lon="5.39929">
        <ele>371.4</ele>
        <time>2022-07-23T14:56:32Z</time>
      </trkpt>
      <trkpt lat="46.38072" lon="5.39924">
        <ele>371.4</ele>
        <time>2022-07-23T14:56:34Z</time>
      </trkpt>
      <trkpt lat="46.38116" lon="5.39889">
        <ele>371.6</ele>
        <time>2022-07-23T14:56:42Z</time>
      </trkpt>
      <trkpt lat="46.38136" lon="5.39868">
        <ele>372</ele>
        <time>2022-07-23T14:56:46Z</time>
      </trkpt>
      <trkpt lat="46.38147" lon="5.39861">
        <ele>372</ele>
        <time>2022-07-23T14:56:48Z</time>
      </trkpt>
      <trkpt lat="46.3816" lon="5.39858">
        <ele>372.2</ele>
        <time>2022-07-23T14:56:50Z</time>
      </trkpt>
      <trkpt lat="46.38172" lon="5.39859">
        <ele>372.4</ele>
        <time>2022-07-23T14:56:52Z</time>
      </trkpt>
      <trkpt lat="46.38207" lon="5.39871">
        <ele>373.2</ele>
        <time>2022-07-23T14:56:58Z</time>
      </trkpt>
      <trkpt lat="46.38218" lon="5.39875">
        <ele>373.4</ele>
        <time>2022-07-23T14:57:00Z</time>
      </trkpt>
      <trkpt lat="46.3824" lon="5.39881">
        <ele>374.4</ele>
        <time>2022-07-23T14:57:04Z</time>
      </trkpt>
      <trkpt lat="46.38262" lon="5.39885">
        <ele>374.6</ele>
        <time>2022-07-23T14:57:08Z</time>
      </trkpt>
      <trkpt lat="46.38267" lon="5.39884">
        <ele>374.6</ele>
        <time>2022-07-23T14:57:09Z</time>
      </trkpt>
      <trkpt lat="46.38278" lon="5.39883">
        <ele>374.8</ele>
        <time>2022-07-23T14:57:11Z</time>
      </trkpt>
      <trkpt lat="46.38289" lon="5.39884">
        <ele>375.2</ele>
        <time>2022-07-23T14:57:13Z</time>
      </trkpt>
      <trkpt lat="46.38295" lon="5.39886">
        <ele>375.4</ele>
        <time>2022-07-23T14:57:14Z</time>
      </trkpt>
      <trkpt lat="46.383" lon="5.3989">
        <ele>375.4</ele>
        <time>2022-07-23T14:57:15Z</time>
      </trkpt>
      <trkpt lat="46.38305" lon="5.39894">
        <ele>375.6</ele>
        <time>2022-07-23T14:57:16Z</time>
      </trkpt>
      <trkpt lat="46.3831" lon="5.39897">
        <ele>375.6</ele>
        <time>2022-07-23T14:57:17Z</time>
      </trkpt>
      <trkpt lat="46.38318" lon="5.39897">
        <ele>376</ele>
        <time>2022-07-23T14:57:19Z</time>
      </trkpt>
      <trkpt lat="46.38327" lon="5.3989">
        <ele>376.4</ele>
        <time>2022-07-23T14:57:21Z</time>
      </trkpt>
      <trkpt lat="46.38336" lon="5.39881">
        <ele>376.8</ele>
        <time>2022-07-23T14:57:23Z</time>
      </trkpt>
      <trkpt lat="46.38348" lon="5.39869">
        <ele>378.2</ele>
        <time>2022-07-23T14:57:26Z</time>
      </trkpt>
      <trkpt lat="46.38362" lon="5.39863">
        <ele>379.6</ele>
        <time>2022-07-23T14:57:29Z</time>
      </trkpt>
      <trkpt lat="46.38367" lon="5.39861">
        <ele>380.2</ele>
        <time>2022-07-23T14:57:30Z</time>
      </trkpt>
      <trkpt lat="46.38376" lon="5.39858">
        <ele>381</ele>
        <time>2022-07-23T14:57:32Z</time>
      </trkpt>
      <trkpt lat="46.3838" lon="5.39857">
        <ele>381.4</ele>
        <time>2022-07-23T14:57:33Z</time>
      </trkpt>
      <trkpt lat="46.38392" lon="5.39851">
        <ele>382</ele>
        <time>2022-07-23T14:57:36Z</time>
      </trkpt>
      <trkpt lat="46.38404" lon="5.39845">
        <ele>383.2</ele>
        <time>2022-07-23T14:57:39Z</time>
      </trkpt>
      <trkpt lat="46.38409" lon="5.39843">
        <ele>383.4</ele>
        <time>2022-07-23T14:57:40Z</time>
      </trkpt>
      <trkpt lat="46.38422" lon="5.39838">
        <ele>383.8</ele>
        <time>2022-07-23T14:57:43Z</time>
      </trkpt>
      <trkpt lat="46.38426" lon="5.39837">
        <ele>384</ele>
        <time>2022-07-23T14:57:44Z</time>
      </trkpt>
      <trkpt lat="46.38435" lon="5.39835">
        <ele>384.2</ele>
        <time>2022-07-23T14:57:46Z</time>
      </trkpt>
      <trkpt lat="46.38461" lon="5.39831">
        <ele>384.8</ele>
        <time>2022-07-23T14:57:52Z</time>
      </trkpt>
      <trkpt lat="46.38464" lon="5.3983">
        <ele>384.8</ele>
        <time>2022-07-23T14:57:53Z</time>
      </trkpt>
      <trkpt lat="46.38481" lon="5.39828">
        <ele>385.4</ele>
        <time>2022-07-23T14:57:57Z</time>
      </trkpt>
      <trkpt lat="46.38493" lon="5.39829">
        <ele>386</ele>
        <time>2022-07-23T14:58:00Z</time>
      </trkpt>
      <trkpt lat="46.38507" lon="5.39831">
        <ele>386.4</ele>
        <time>2022-07-23T14:58:03Z</time>
      </trkpt>
      <trkpt lat="46.38527" lon="5.39833">
        <ele>387</ele>
        <time>2022-07-23T14:58:08Z</time>
      </trkpt>
      <trkpt lat="46.38551" lon="5.39834">
        <ele>387.6</ele>
        <time>2022-07-23T14:58:13Z</time>
      </trkpt>
      <trkpt lat="46.38575" lon="5.39835">
        <ele>388.4</ele>
        <time>2022-07-23T14:58:18Z</time>
      </trkpt>
      <trkpt lat="46.3858" lon="5.39836">
        <ele>388.8</ele>
        <time>2022-07-23T14:58:19Z</time>
      </trkpt>
      <trkpt lat="46.38623" lon="5.3984">
        <ele>389.6</ele>
        <time>2022-07-23T14:58:27Z</time>
      </trkpt>
      <trkpt lat="46.38666" lon="5.39844">
        <ele>389.4</ele>
        <time>2022-07-23T14:58:35Z</time>
      </trkpt>
      <trkpt lat="46.38721" lon="5.39849">
        <ele>388.6</ele>
        <time>2022-07-23T14:58:44Z</time>
      </trkpt>
      <trkpt lat="46.38772" lon="5.39854">
        <ele>387.6</ele>
        <time>2022-07-23T14:58:51Z</time>
      </trkpt>
      <trkpt lat="46.38803" lon="5.39855">
        <ele>386.4</ele>
        <time>2022-07-23T14:58:55Z</time>
      </trkpt>
      <trkpt lat="46.38841" lon="5.39857">
        <ele>386</ele>
        <time>2022-07-23T14:59:00Z</time>
      </trkpt>
      <trkpt lat="46.38881" lon="5.39859">
        <ele>385.8</ele>
        <time>2022-07-23T14:59:06Z</time>
      </trkpt>
      <trkpt lat="46.3894" lon="5.39861">
        <ele>386.6</ele>
        <time>2022-07-23T14:59:15Z</time>
      </trkpt>
      <trkpt lat="46.38946" lon="5.39861">
        <ele>386.6</ele>
        <time>2022-07-23T14:59:16Z</time>
      </trkpt>
      <trkpt lat="46.39003" lon="5.39871">
        <ele>386.8</ele>
        <time>2022-07-23T14:59:24Z</time>
      </trkpt>
      <trkpt lat="46.3906" lon="5.3988">
        <ele>386</ele>
        <time>2022-07-23T14:59:32Z</time>
      </trkpt>
      <trkpt lat="46.39115" lon="5.3989">
        <ele>386.4</ele>
        <time>2022-07-23T14:59:40Z</time>
      </trkpt>
      <trkpt lat="46.3917" lon="5.39899">
        <ele>387.2</ele>
        <time>2022-07-23T14:59:49Z</time>
      </trkpt>
      <trkpt lat="46.39189" lon="5.39903">
        <ele>387.4</ele>
        <time>2022-07-23T14:59:52Z</time>
      </trkpt>
      <trkpt lat="46.39226" lon="5.39907">
        <ele>388</ele>
        <time>2022-07-23T14:59:58Z</time>
      </trkpt>
      <trkpt lat="46.39278" lon="5.39916">
        <ele>388.6</ele>
        <time>2022-07-23T15:00:07Z</time>
      </trkpt>
      <trkpt lat="46.39313" lon="5.39922">
        <ele>389.4</ele>
        <time>2022-07-23T15:00:13Z</time>
      </trkpt>
      <trkpt lat="46.3933" lon="5.39923">
        <ele>389.4</ele>
        <time>2022-07-23T15:00:16Z</time>
      </trkpt>
      <trkpt lat="46.39341" lon="5.39925">
        <ele>389.4</ele>
        <time>2022-07-23T15:00:18Z</time>
      </trkpt>
      <trkpt lat="46.39353" lon="5.39929">
        <ele>389.6</ele>
        <time>2022-07-23T15:00:20Z</time>
      </trkpt>
      <trkpt lat="46.39365" lon="5.39931">
        <ele>389.6</ele>
        <time>2022-07-23T15:00:22Z</time>
      </trkpt>
      <trkpt lat="46.39413" lon="5.39939">
        <ele>389.6</ele>
        <time>2022-07-23T15:00:30Z</time>
      </trkpt>
      <trkpt lat="46.39425" lon="5.39941">
        <ele>389.6</ele>
        <time>2022-07-23T15:00:32Z</time>
      </trkpt>
      <trkpt lat="46.39466" lon="5.39947">
        <ele>389.8</ele>
        <time>2022-07-23T15:00:39Z</time>
      </trkpt>
      <trkpt lat="46.39516" lon="5.39953">
        <ele>390.6</ele>
        <time>2022-07-23T15:00:48Z</time>
      </trkpt>
      <trkpt lat="46.39521" lon="5.39953">
        <ele>390.6</ele>
        <time>2022-07-23T15:00:49Z</time>
      </trkpt>
      <trkpt lat="46.39578" lon="5.39953">
        <ele>391.4</ele>
        <time>2022-07-23T15:00:58Z</time>
      </trkpt>
      <trkpt lat="46.3963" lon="5.3995">
        <ele>391.4</ele>
        <time>2022-07-23T15:01:06Z</time>
      </trkpt>
      <trkpt lat="46.3969" lon="5.3994">
        <ele>391.8</ele>
        <time>2022-07-23T15:01:15Z</time>
      </trkpt>
      <trkpt lat="46.39696" lon="5.39939">
        <ele>392</ele>
        <time>2022-07-23T15:01:16Z</time>
      </trkpt>
      <trkpt lat="46.39755" lon="5.39929">
        <ele>392.4</ele>
        <time>2022-07-23T15:01:25Z</time>
      </trkpt>
      <trkpt lat="46.39805" lon="5.39921">
        <ele>393</ele>
        <time>2022-07-23T15:01:33Z</time>
      </trkpt>
      <trkpt lat="46.39817" lon="5.39918">
        <ele>393.4</ele>
        <time>2022-07-23T15:01:35Z</time>
      </trkpt>
      <trkpt lat="46.39824" lon="5.39916">
        <ele>393.4</ele>
        <time>2022-07-23T15:01:36Z</time>
      </trkpt>
      <trkpt lat="46.39854" lon="5.39912">
        <ele>393.6</ele>
        <time>2022-07-23T15:01:41Z</time>
      </trkpt>
      <trkpt lat="46.39902" lon="5.39908">
        <ele>394</ele>
        <time>2022-07-23T15:01:49Z</time>
      </trkpt>
      <trkpt lat="46.39962" lon="5.3991">
        <ele>393.2</ele>
        <time>2022-07-23T15:01:58Z</time>
      </trkpt>
      <trkpt lat="46.39968" lon="5.39911">
        <ele>393.2</ele>
        <time>2022-07-23T15:01:59Z</time>
      </trkpt>
      <trkpt lat="46.40022" lon="5.39914">
        <ele>392.6</ele>
        <time>2022-07-23T15:02:08Z</time>
      </trkpt>
      <trkpt lat="46.40046" lon="5.39912">
        <ele>392.8</ele>
        <time>2022-07-23T15:02:12Z</time>
      </trkpt>
      <trkpt lat="46.40062" lon="5.39908">
        <ele>393.2</ele>
        <time>2022-07-23T15:02:15Z</time>
      </trkpt>
      <trkpt lat="46.40096" lon="5.39889">
        <ele>394.2</ele>
        <time>2022-07-23T15:02:22Z</time>
      </trkpt>
      <trkpt lat="46.40127" lon="5.39867">
        <ele>395.2</ele>
        <time>2022-07-23T15:02:29Z</time>
      </trkpt>
      <trkpt lat="46.40131" lon="5.39863">
        <ele>395.4</ele>
        <time>2022-07-23T15:02:30Z</time>
      </trkpt>
      <trkpt lat="46.40174" lon="5.39836">
        <ele>396</ele>
        <time>2022-07-23T15:02:39Z</time>
      </trkpt>
      <trkpt lat="46.40195" lon="5.39827">
        <ele>396.4</ele>
        <time>2022-07-23T15:02:43Z</time>
      </trkpt>
      <trkpt lat="46.40213" lon="5.39824">
        <ele>396.6</ele>
        <time>2022-07-23T15:02:46Z</time>
      </trkpt>
      <trkpt lat="46.4023" lon="5.39823">
        <ele>396.2</ele>
        <time>2022-07-23T15:02:49Z</time>
      </trkpt>
      <trkpt lat="46.4025" lon="5.39825">
        <ele>395.2</ele>
        <time>2022-07-23T15:02:52Z</time>
      </trkpt>
      <trkpt lat="46.40255" lon="5.39826">
        <ele>395</ele>
        <time>2022-07-23T15:02:53Z</time>
      </trkpt>
      <trkpt lat="46.40291" lon="5.39839">
        <ele>394.8</ele>
        <time>2022-07-23T15:02:59Z</time>
      </trkpt>
      <trkpt lat="46.40343" lon="5.39868">
        <ele>395.4</ele>
        <time>2022-07-23T15:03:09Z</time>
      </trkpt>
      <trkpt lat="46.40362" lon="5.39874">
        <ele>396.4</ele>
        <time>2022-07-23T15:03:13Z</time>
      </trkpt>
      <trkpt lat="46.40376" lon="5.39878">
        <ele>397.2</ele>
        <time>2022-07-23T15:03:16Z</time>
      </trkpt>
      <trkpt lat="46.40381" lon="5.39879">
        <ele>397.4</ele>
        <time>2022-07-23T15:03:17Z</time>
      </trkpt>
      <trkpt lat="46.40426" lon="5.39893">
        <ele>397.6</ele>
        <time>2022-07-23T15:03:26Z</time>
      </trkpt>
      <trkpt lat="46.40466" lon="5.39907">
        <ele>398.4</ele>
        <time>2022-07-23T15:03:34Z</time>
      </trkpt>
      <trkpt lat="46.40504" lon="5.39923">
        <ele>398.6</ele>
        <time>2022-07-23T15:03:42Z</time>
      </trkpt>
      <trkpt lat="46.40536" lon="5.39947">
        <ele>399</ele>
        <time>2022-07-23T15:03:49Z</time>
      </trkpt>
      <trkpt lat="46.40549" lon="5.39961">
        <ele>399.4</ele>
        <time>2022-07-23T15:03:52Z</time>
      </trkpt>
      <trkpt lat="46.40562" lon="5.39974">
        <ele>400.6</ele>
        <time>2022-07-23T15:03:55Z</time>
      </trkpt>
      <trkpt lat="46.40576" lon="5.39986">
        <ele>401</ele>
        <time>2022-07-23T15:03:58Z</time>
      </trkpt>
      <trkpt lat="46.40601" lon="5.39997">
        <ele>401.2</ele>
        <time>2022-07-23T15:04:03Z</time>
      </trkpt>
      <trkpt lat="46.40637" lon="5.40006">
        <ele>400.2</ele>
        <time>2022-07-23T15:04:10Z</time>
      </trkpt>
      <trkpt lat="46.40642" lon="5.40009">
        <ele>400</ele>
        <time>2022-07-23T15:04:11Z</time>
      </trkpt>
      <trkpt lat="46.40679" lon="5.40034">
        <ele>400.2</ele>
        <time>2022-07-23T15:04:18Z</time>
      </trkpt>
      <trkpt lat="46.40725" lon="5.40067">
        <ele>400.8</ele>
        <time>2022-07-23T15:04:27Z</time>
      </trkpt>
      <trkpt lat="46.40773" lon="5.40098">
        <ele>401.2</ele>
        <time>2022-07-23T15:04:36Z</time>
      </trkpt>
      <trkpt lat="46.40788" lon="5.40109">
        <ele>401.8</ele>
        <time>2022-07-23T15:04:39Z</time>
      </trkpt>
      <trkpt lat="46.40809" lon="5.40123">
        <ele>402.2</ele>
        <time>2022-07-23T15:04:43Z</time>
      </trkpt>
      <trkpt lat="46.40829" lon="5.40135">
        <ele>402.4</ele>
        <time>2022-07-23T15:04:47Z</time>
      </trkpt>
      <trkpt lat="46.40834" lon="5.40137">
        <ele>402.6</ele>
        <time>2022-07-23T15:04:48Z</time>
      </trkpt>
      <trkpt lat="46.40845" lon="5.40138">
        <ele>402.8</ele>
        <time>2022-07-23T15:04:50Z</time>
      </trkpt>
      <trkpt lat="46.4085" lon="5.40139">
        <ele>403.2</ele>
        <time>2022-07-23T15:04:51Z</time>
      </trkpt>
      <trkpt lat="46.40861" lon="5.4014">
        <ele>403.6</ele>
        <time>2022-07-23T15:04:53Z</time>
      </trkpt>
      <trkpt lat="46.40894" lon="5.40146">
        <ele>403.8</ele>
        <time>2022-07-23T15:04:59Z</time>
      </trkpt>
      <trkpt lat="46.4091" lon="5.40148">
        <ele>404</ele>
        <time>2022-07-23T15:05:02Z</time>
      </trkpt>
      <trkpt lat="46.40926" lon="5.40153">
        <ele>404.4</ele>
        <time>2022-07-23T15:05:05Z</time>
      </trkpt>
      <trkpt lat="46.40963" lon="5.40163">
        <ele>405.2</ele>
        <time>2022-07-23T15:05:12Z</time>
      </trkpt>
      <trkpt lat="46.40979" lon="5.40166">
        <ele>405.4</ele>
        <time>2022-07-23T15:05:15Z</time>
      </trkpt>
      <trkpt lat="46.41028" lon="5.40177">
        <ele>406</ele>
        <time>2022-07-23T15:05:24Z</time>
      </trkpt>
      <trkpt lat="46.41068" lon="5.40185">
        <ele>406</ele>
        <time>2022-07-23T15:05:31Z</time>
      </trkpt>
      <trkpt lat="46.41089" lon="5.40188">
        <ele>406.2</ele>
        <time>2022-07-23T15:05:35Z</time>
      </trkpt>
      <trkpt lat="46.41106" lon="5.40186">
        <ele>406.2</ele>
        <time>2022-07-23T15:05:38Z</time>
      </trkpt>
      <trkpt lat="46.41138" lon="5.40174">
        <ele>406.8</ele>
        <time>2022-07-23T15:05:44Z</time>
      </trkpt>
      <trkpt lat="46.41165" lon="5.40159">
        <ele>407.2</ele>
        <time>2022-07-23T15:05:49Z</time>
      </trkpt>
      <trkpt lat="46.41198" lon="5.40141">
        <ele>407.4</ele>
        <time>2022-07-23T15:05:55Z</time>
      </trkpt>
      <trkpt lat="46.41248" lon="5.40121">
        <ele>407.8</ele>
        <time>2022-07-23T15:06:04Z</time>
      </trkpt>
      <trkpt lat="46.41276" lon="5.40117">
        <ele>408.4</ele>
        <time>2022-07-23T15:06:09Z</time>
      </trkpt>
      <trkpt lat="46.41287" lon="5.40117">
        <ele>408.8</ele>
        <time>2022-07-23T15:06:11Z</time>
      </trkpt>
      <trkpt lat="46.41331" lon="5.40116">
        <ele>409.4</ele>
        <time>2022-07-23T15:06:19Z</time>
      </trkpt>
      <trkpt lat="46.41352" lon="5.40117">
        <ele>410</ele>
        <time>2022-07-23T15:06:23Z</time>
      </trkpt>
      <trkpt lat="46.41379" lon="5.40117">
        <ele>410.4</ele>
        <time>2022-07-23T15:06:28Z</time>
      </trkpt>
      <trkpt lat="46.41399" lon="5.40118">
        <ele>411.2</ele>
        <time>2022-07-23T15:06:32Z</time>
      </trkpt>
      <trkpt lat="46.41414" lon="5.40117">
        <ele>411.6</ele>
        <time>2022-07-23T15:06:35Z</time>
      </trkpt>
      <trkpt lat="46.41433" lon="5.40116">
        <ele>412.6</ele>
        <time>2022-07-23T15:06:39Z</time>
      </trkpt>
      <trkpt lat="46.41443" lon="5.40115">
        <ele>412.8</ele>
        <time>2022-07-23T15:06:41Z</time>
      </trkpt>
      <trkpt lat="46.4148" lon="5.40113">
        <ele>413.8</ele>
        <time>2022-07-23T15:06:49Z</time>
      </trkpt>
      <trkpt lat="46.41494" lon="5.40111">
        <ele>414.2</ele>
        <time>2022-07-23T15:06:52Z</time>
      </trkpt>
      <trkpt lat="46.41513" lon="5.4011">
        <ele>415.2</ele>
        <time>2022-07-23T15:06:56Z</time>
      </trkpt>
      <trkpt lat="46.41532" lon="5.40109">
        <ele>416</ele>
        <time>2022-07-23T15:07:00Z</time>
      </trkpt>
      <trkpt lat="46.41537" lon="5.40109">
        <ele>416.4</ele>
        <time>2022-07-23T15:07:01Z</time>
      </trkpt>
      <trkpt lat="46.41578" lon="5.40101">
        <ele>417</ele>
        <time>2022-07-23T15:07:10Z</time>
      </trkpt>
      <trkpt lat="46.41591" lon="5.40098">
        <ele>417.4</ele>
        <time>2022-07-23T15:07:13Z</time>
      </trkpt>
      <trkpt lat="46.41613" lon="5.40091">
        <ele>418.4</ele>
        <time>2022-07-23T15:07:18Z</time>
      </trkpt>
      <trkpt lat="46.41621" lon="5.40088">
        <ele>419</ele>
        <time>2022-07-23T15:07:20Z</time>
      </trkpt>
      <trkpt lat="46.4163" lon="5.40084">
        <ele>419.6</ele>
        <time>2022-07-23T15:07:22Z</time>
      </trkpt>
      <trkpt lat="46.41656" lon="5.40066">
        <ele>420.4</ele>
        <time>2022-07-23T15:07:29Z</time>
      </trkpt>
      <trkpt lat="46.4167" lon="5.40055">
        <ele>421.8</ele>
        <time>2022-07-23T15:07:33Z</time>
      </trkpt>
      <trkpt lat="46.41688" lon="5.40042">
        <ele>422.8</ele>
        <time>2022-07-23T15:07:38Z</time>
      </trkpt>
      <trkpt lat="46.41696" lon="5.40037">
        <ele>423.4</ele>
        <time>2022-07-23T15:07:40Z</time>
      </trkpt>
      <trkpt lat="46.41707" lon="5.4003">
        <ele>424</ele>
        <time>2022-07-23T15:07:43Z</time>
      </trkpt>
      <trkpt lat="46.41726" lon="5.40024">
        <ele>425.2</ele>
        <time>2022-07-23T15:07:48Z</time>
      </trkpt>
      <trkpt lat="46.41737" lon="5.40023">
        <ele>426.2</ele>
        <time>2022-07-23T15:07:51Z</time>
      </trkpt>
      <trkpt lat="46.41755" lon="5.40024">
        <ele>427.4</ele>
        <time>2022-07-23T15:07:56Z</time>
      </trkpt>
      <trkpt lat="46.41776" lon="5.40029">
        <ele>428.4</ele>
        <time>2022-07-23T15:08:02Z</time>
      </trkpt>
      <trkpt lat="46.4179" lon="5.40033">
        <ele>429.2</ele>
        <time>2022-07-23T15:08:06Z</time>
      </trkpt>
      <trkpt lat="46.41794" lon="5.40035">
        <ele>429.4</ele>
        <time>2022-07-23T15:08:07Z</time>
      </trkpt>
      <trkpt lat="46.41816" lon="5.40042">
        <ele>430.6</ele>
        <time>2022-07-23T15:08:13Z</time>
      </trkpt>
      <trkpt lat="46.41842" lon="5.40049">
        <ele>431.8</ele>
        <time>2022-07-23T15:08:20Z</time>
      </trkpt>
      <trkpt lat="46.41849" lon="5.40051">
        <ele>432</ele>
        <time>2022-07-23T15:08:22Z</time>
      </trkpt>
      <trkpt lat="46.41874" lon="5.40058">
        <ele>432.8</ele>
        <time>2022-07-23T15:08:29Z</time>
      </trkpt>
      <trkpt lat="46.41904" lon="5.40061">
        <ele>433.8</ele>
        <time>2022-07-23T15:08:37Z</time>
      </trkpt>
      <trkpt lat="46.41925" lon="5.4006">
        <ele>434.8</ele>
        <time>2022-07-23T15:08:43Z</time>
      </trkpt>
      <trkpt lat="46.41929" lon="5.4006">
        <ele>435.2</ele>
        <time>2022-07-23T15:08:44Z</time>
      </trkpt>
      <trkpt lat="46.41944" lon="5.40058">
        <ele>435.8</ele>
        <time>2022-07-23T15:08:48Z</time>
      </trkpt>
      <trkpt lat="46.4196" lon="5.40057">
        <ele>436.6</ele>
        <time>2022-07-23T15:08:52Z</time>
      </trkpt>
      <trkpt lat="46.41963" lon="5.40058">
        <ele>436.8</ele>
        <time>2022-07-23T15:08:53Z</time>
      </trkpt>
      <trkpt lat="46.41977" lon="5.40059">
        <ele>437.8</ele>
        <time>2022-07-23T15:08:57Z</time>
      </trkpt>
      <trkpt lat="46.41993" lon="5.40061">
        <ele>438.4</ele>
        <time>2022-07-23T15:09:01Z</time>
      </trkpt>
      <trkpt lat="46.42004" lon="5.40062">
        <ele>439.4</ele>
        <time>2022-07-23T15:09:04Z</time>
      </trkpt>
      <trkpt lat="46.42035" lon="5.40069">
        <ele>440.6</ele>
        <time>2022-07-23T15:09:12Z</time>
      </trkpt>
      <trkpt lat="46.42043" lon="5.40071">
        <ele>441</ele>
        <time>2022-07-23T15:09:14Z</time>
      </trkpt>
      <trkpt lat="46.42062" lon="5.40078">
        <ele>441.6</ele>
        <time>2022-07-23T15:09:19Z</time>
      </trkpt>
      <trkpt lat="46.4207" lon="5.40081">
        <ele>442</ele>
        <time>2022-07-23T15:09:21Z</time>
      </trkpt>
      <trkpt lat="46.42086" lon="5.40086">
        <ele>442.8</ele>
        <time>2022-07-23T15:09:25Z</time>
      </trkpt>
      <trkpt lat="46.42106" lon="5.40089">
        <ele>443.8</ele>
        <time>2022-07-23T15:09:30Z</time>
      </trkpt>
      <trkpt lat="46.42111" lon="5.4009">
        <ele>443.8</ele>
        <time>2022-07-23T15:09:31Z</time>
      </trkpt>
      <trkpt lat="46.42141" lon="5.40085">
        <ele>444.8</ele>
        <time>2022-07-23T15:09:38Z</time>
      </trkpt>
      <trkpt lat="46.42149" lon="5.40083">
        <ele>446.2</ele>
        <time>2022-07-23T15:09:40Z</time>
      </trkpt>
      <trkpt lat="46.42166" lon="5.40078">
        <ele>447.4</ele>
        <time>2022-07-23T15:09:44Z</time>
      </trkpt>
      <trkpt lat="46.42173" lon="5.40075">
        <ele>447.6</ele>
        <time>2022-07-23T15:09:46Z</time>
      </trkpt>
      <trkpt lat="46.42192" lon="5.40068">
        <ele>448.4</ele>
        <time>2022-07-23T15:09:51Z</time>
      </trkpt>
      <trkpt lat="46.42209" lon="5.40063">
        <ele>448.6</ele>
        <time>2022-07-23T15:09:55Z</time>
      </trkpt>
      <trkpt lat="46.42234" lon="5.40056">
        <ele>449.4</ele>
        <time>2022-07-23T15:10:01Z</time>
      </trkpt>
      <trkpt lat="46.42238" lon="5.40055">
        <ele>450</ele>
        <time>2022-07-23T15:10:02Z</time>
      </trkpt>
      <trkpt lat="46.42244" lon="5.40054">
        <ele>450.6</ele>
        <time>2022-07-23T15:10:03Z</time>
      </trkpt>
      <trkpt lat="46.42278" lon="5.40045">
        <ele>450.6</ele>
        <time>2022-07-23T15:10:10Z</time>
      </trkpt>
      <trkpt lat="46.42321" lon="5.4003">
        <ele>450.2</ele>
        <time>2022-07-23T15:10:19Z</time>
      </trkpt>
      <trkpt lat="46.42368" lon="5.40015">
        <ele>451.2</ele>
        <time>2022-07-23T15:10:29Z</time>
      </trkpt>
      <trkpt lat="46.4238" lon="5.40011">
        <ele>451.6</ele>
        <time>2022-07-23T15:10:32Z</time>
      </trkpt>
      <trkpt lat="46.42392" lon="5.40001">
        <ele>452.4</ele>
        <time>2022-07-23T15:10:36Z</time>
      </trkpt>
      <trkpt lat="46.42394" lon="5.39989">
        <ele>452.8</ele>
        <time>2022-07-23T15:10:38Z</time>
      </trkpt>
      <trkpt lat="46.42394" lon="5.39974">
        <ele>453.4</ele>
        <time>2022-07-23T15:10:40Z</time>
      </trkpt>
      <trkpt lat="46.42395" lon="5.39965">
        <ele>453.6</ele>
        <time>2022-07-23T15:10:41Z</time>
      </trkpt>
      <trkpt lat="46.42395" lon="5.39957">
        <ele>453.8</ele>
        <time>2022-07-23T15:10:42Z</time>
      </trkpt>
      <trkpt lat="46.42395" lon="5.39932">
        <ele>454</ele>
        <time>2022-07-23T15:10:45Z</time>
      </trkpt>
      <trkpt lat="46.42397" lon="5.39869">
        <ele>454.6</ele>
        <time>2022-07-23T15:10:53Z</time>
      </trkpt>
      <trkpt lat="46.42397" lon="5.3985">
        <ele>455</ele>
        <time>2022-07-23T15:10:56Z</time>
      </trkpt>
      <trkpt lat="46.42398" lon="5.39816">
        <ele>455.8</ele>
        <time>2022-07-23T15:11:01Z</time>
      </trkpt>
      <trkpt lat="46.424" lon="5.39809">
        <ele>455.8</ele>
        <time>2022-07-23T15:11:02Z</time>
      </trkpt>
      <trkpt lat="46.42402" lon="5.39804">
        <ele>456</ele>
        <time>2022-07-23T15:11:03Z</time>
      </trkpt>
      <trkpt lat="46.42405" lon="5.39799">
        <ele>456.2</ele>
        <time>2022-07-23T15:11:04Z</time>
      </trkpt>
      <trkpt lat="46.42413" lon="5.39795">
        <ele>456.4</ele>
        <time>2022-07-23T15:11:06Z</time>
      </trkpt>
      <trkpt lat="46.42418" lon="5.39795">
        <ele>456.4</ele>
        <time>2022-07-23T15:11:07Z</time>
      </trkpt>
      <trkpt lat="46.42427" lon="5.39796">
        <ele>456.8</ele>
        <time>2022-07-23T15:11:09Z</time>
      </trkpt>
      <trkpt lat="46.42443" lon="5.39801">
        <ele>456.8</ele>
        <time>2022-07-23T15:11:12Z</time>
      </trkpt>
      <trkpt lat="46.4246" lon="5.39811">
        <ele>456.6</ele>
        <time>2022-07-23T15:11:15Z</time>
      </trkpt>
      <trkpt lat="46.42465" lon="5.39816">
        <ele>456.8</ele>
        <time>2022-07-23T15:11:16Z</time>
      </trkpt>
      <trkpt lat="46.42475" lon="5.39828">
        <ele>456.6</ele>
        <time>2022-07-23T15:11:18Z</time>
      </trkpt>
      <trkpt lat="46.42489" lon="5.39848">
        <ele>456.2</ele>
        <time>2022-07-23T15:11:21Z</time>
      </trkpt>
      <trkpt lat="46.42527" lon="5.3989">
        <ele>456</ele>
        <time>2022-07-23T15:11:28Z</time>
      </trkpt>
      <trkpt lat="46.42577" lon="5.39929">
        <ele>455.8</ele>
        <time>2022-07-23T15:11:36Z</time>
      </trkpt>
      <trkpt lat="46.42617" lon="5.39952">
        <ele>455.8</ele>
        <time>2022-07-23T15:11:43Z</time>
      </trkpt>
      <trkpt lat="46.42655" lon="5.39969">
        <ele>456.4</ele>
        <time>2022-07-23T15:11:50Z</time>
      </trkpt>
      <trkpt lat="46.42703" lon="5.39992">
        <ele>456.2</ele>
        <time>2022-07-23T15:11:59Z</time>
      </trkpt>
      <trkpt lat="46.42757" lon="5.40014">
        <ele>456.4</ele>
        <time>2022-07-23T15:12:09Z</time>
      </trkpt>
      <trkpt lat="46.42778" lon="5.40023">
        <ele>457</ele>
        <time>2022-07-23T15:12:13Z</time>
      </trkpt>
      <trkpt lat="46.42799" lon="5.40031">
        <ele>457</ele>
        <time>2022-07-23T15:12:17Z</time>
      </trkpt>
      <trkpt lat="46.42835" lon="5.40045">
        <ele>457.2</ele>
        <time>2022-07-23T15:12:23Z</time>
      </trkpt>
      <trkpt lat="46.42879" lon="5.40056">
        <ele>457</ele>
        <time>2022-07-23T15:12:30Z</time>
      </trkpt>
      <trkpt lat="46.42918" lon="5.4006">
        <ele>457.2</ele>
        <time>2022-07-23T15:12:37Z</time>
      </trkpt>
      <trkpt lat="46.4296" lon="5.40064">
        <ele>457.6</ele>
        <time>2022-07-23T15:12:45Z</time>
      </trkpt>
      <trkpt lat="46.42965" lon="5.40064">
        <ele>458</ele>
        <time>2022-07-23T15:12:46Z</time>
      </trkpt>
      <trkpt lat="46.43003" lon="5.40072">
        <ele>459</ele>
        <time>2022-07-23T15:12:53Z</time>
      </trkpt>
      <trkpt lat="46.43009" lon="5.40073">
        <ele>459</ele>
        <time>2022-07-23T15:12:54Z</time>
      </trkpt>
      <trkpt lat="46.43048" lon="5.40078">
        <ele>459.6</ele>
        <time>2022-07-23T15:13:01Z</time>
      </trkpt>
      <trkpt lat="46.43065" lon="5.40078">
        <ele>460</ele>
        <time>2022-07-23T15:13:04Z</time>
      </trkpt>
      <trkpt lat="46.43084" lon="5.4008">
        <ele>460.2</ele>
        <time>2022-07-23T15:13:07Z</time>
      </trkpt>
      <trkpt lat="46.43123" lon="5.40089">
        <ele>459.4</ele>
        <time>2022-07-23T15:13:12Z</time>
      </trkpt>
      <trkpt lat="46.43139" lon="5.40092">
        <ele>459</ele>
        <time>2022-07-23T15:13:14Z</time>
      </trkpt>
      <trkpt lat="46.43163" lon="5.40094">
        <ele>457.8</ele>
        <time>2022-07-23T15:13:17Z</time>
      </trkpt>
      <trkpt lat="46.43178" lon="5.40097">
        <ele>457.4</ele>
        <time>2022-07-23T15:13:19Z</time>
      </trkpt>
      <trkpt lat="46.43207" lon="5.40112">
        <ele>457.4</ele>
        <time>2022-07-23T15:13:23Z</time>
      </trkpt>
      <trkpt lat="46.43214" lon="5.40116">
        <ele>457.4</ele>
        <time>2022-07-23T15:13:24Z</time>
      </trkpt>
      <trkpt lat="46.43237" lon="5.40123">
        <ele>457.4</ele>
        <time>2022-07-23T15:13:27Z</time>
      </trkpt>
      <trkpt lat="46.43275" lon="5.40122">
        <ele>456.6</ele>
        <time>2022-07-23T15:13:32Z</time>
      </trkpt>
      <trkpt lat="46.43282" lon="5.40121">
        <ele>456.8</ele>
        <time>2022-07-23T15:13:33Z</time>
      </trkpt>
      <trkpt lat="46.43296" lon="5.40119">
        <ele>456.6</ele>
        <time>2022-07-23T15:13:35Z</time>
      </trkpt>
      <trkpt lat="46.43332" lon="5.40118">
        <ele>456.8</ele>
        <time>2022-07-23T15:13:40Z</time>
      </trkpt>
      <trkpt lat="46.43389" lon="5.40126">
        <ele>456.6</ele>
        <time>2022-07-23T15:13:48Z</time>
      </trkpt>
      <trkpt lat="46.4344" lon="5.40145">
        <ele>456.2</ele>
        <time>2022-07-23T15:13:55Z</time>
      </trkpt>
      <trkpt lat="46.43495" lon="5.40171">
        <ele>456.6</ele>
        <time>2022-07-23T15:14:03Z</time>
      </trkpt>
      <trkpt lat="46.43536" lon="5.40176">
        <ele>457.2</ele>
        <time>2022-07-23T15:14:09Z</time>
      </trkpt>
      <trkpt lat="46.43593" lon="5.40188">
        <ele>457.4</ele>
        <time>2022-07-23T15:14:17Z</time>
      </trkpt>
      <trkpt lat="46.43607" lon="5.40191">
        <ele>457.4</ele>
        <time>2022-07-23T15:14:19Z</time>
      </trkpt>
      <trkpt lat="46.43628" lon="5.40191">
        <ele>457.4</ele>
        <time>2022-07-23T15:14:22Z</time>
      </trkpt>
      <trkpt lat="46.43653" lon="5.40188">
        <ele>457.6</ele>
        <time>2022-07-23T15:14:26Z</time>
      </trkpt>
      <trkpt lat="46.43672" lon="5.40186">
        <ele>457.8</ele>
        <time>2022-07-23T15:14:29Z</time>
      </trkpt>
      <trkpt lat="46.43702" lon="5.40181">
        <ele>458.6</ele>
        <time>2022-07-23T15:14:34Z</time>
      </trkpt>
      <trkpt lat="46.43719" lon="5.40179">
        <ele>459.2</ele>
        <time>2022-07-23T15:14:37Z</time>
      </trkpt>
      <trkpt lat="46.43741" lon="5.40175">
        <ele>459.6</ele>
        <time>2022-07-23T15:14:41Z</time>
      </trkpt>
      <trkpt lat="46.43746" lon="5.40173">
        <ele>459.8</ele>
        <time>2022-07-23T15:14:42Z</time>
      </trkpt>
      <trkpt lat="46.43783" lon="5.40164">
        <ele>460</ele>
        <time>2022-07-23T15:14:48Z</time>
      </trkpt>
      <trkpt lat="46.43829" lon="5.40148">
        <ele>460</ele>
        <time>2022-07-23T15:14:56Z</time>
      </trkpt>
      <trkpt lat="46.4387" lon="5.40133">
        <ele>460.2</ele>
        <time>2022-07-23T15:15:02Z</time>
      </trkpt>
      <trkpt lat="46.43878" lon="5.40129">
        <ele>459.8</ele>
        <time>2022-07-23T15:15:03Z</time>
      </trkpt>
      <trkpt lat="46.43897" lon="5.40111">
        <ele>458.8</ele>
        <time>2022-07-23T15:15:06Z</time>
      </trkpt>
      <trkpt lat="46.43909" lon="5.401">
        <ele>458.6</ele>
        <time>2022-07-23T15:15:08Z</time>
      </trkpt>
      <trkpt lat="46.43915" lon="5.40096">
        <ele>458.4</ele>
        <time>2022-07-23T15:15:09Z</time>
      </trkpt>
      <trkpt lat="46.43928" lon="5.4009">
        <ele>458.4</ele>
        <time>2022-07-23T15:15:11Z</time>
      </trkpt>
      <trkpt lat="46.4395" lon="5.40087">
        <ele>458.4</ele>
        <time>2022-07-23T15:15:14Z</time>
      </trkpt>
      <trkpt lat="46.43958" lon="5.40087">
        <ele>458.4</ele>
        <time>2022-07-23T15:15:15Z</time>
      </trkpt>
      <trkpt lat="46.44011" lon="5.40082">
        <ele>457.8</ele>
        <time>2022-07-23T15:15:22Z</time>
      </trkpt>
      <trkpt lat="46.4405" lon="5.40073">
        <ele>458.2</ele>
        <time>2022-07-23T15:15:28Z</time>
      </trkpt>
      <trkpt lat="46.44096" lon="5.40061">
        <ele>459.2</ele>
        <time>2022-07-23T15:15:35Z</time>
      </trkpt>
      <trkpt lat="46.44114" lon="5.40057">
        <ele>459.2</ele>
        <time>2022-07-23T15:15:38Z</time>
      </trkpt>
      <trkpt lat="46.44133" lon="5.40048">
        <ele>459.2</ele>
        <time>2022-07-23T15:15:41Z</time>
      </trkpt>
      <trkpt lat="46.4416" lon="5.40027">
        <ele>459.2</ele>
        <time>2022-07-23T15:15:46Z</time>
      </trkpt>
      <trkpt lat="46.4418" lon="5.40007">
        <ele>459.6</ele>
        <time>2022-07-23T15:15:50Z</time>
      </trkpt>
      <trkpt lat="46.44196" lon="5.39994">
        <ele>460.6</ele>
        <time>2022-07-23T15:15:53Z</time>
      </trkpt>
      <trkpt lat="46.44207" lon="5.39984">
        <ele>460.8</ele>
        <time>2022-07-23T15:15:55Z</time>
      </trkpt>
      <trkpt lat="46.44243" lon="5.39959">
        <ele>460.8</ele>
        <time>2022-07-23T15:16:01Z</time>
      </trkpt>
      <trkpt lat="46.4425" lon="5.39957">
        <ele>461</ele>
        <time>2022-07-23T15:16:02Z</time>
      </trkpt>
      <trkpt lat="46.44272" lon="5.39955">
        <ele>461</ele>
        <time>2022-07-23T15:16:05Z</time>
      </trkpt>
      <trkpt lat="46.44317" lon="5.39955">
        <ele>461.8</ele>
        <time>2022-07-23T15:16:12Z</time>
      </trkpt>
      <trkpt lat="46.44342" lon="5.39954">
        <ele>463</ele>
        <time>2022-07-23T15:16:16Z</time>
      </trkpt>
      <trkpt lat="46.4436" lon="5.39955">
        <ele>463.4</ele>
        <time>2022-07-23T15:16:19Z</time>
      </trkpt>
      <trkpt lat="46.44379" lon="5.39955">
        <ele>464</ele>
        <time>2022-07-23T15:16:22Z</time>
      </trkpt>
      <trkpt lat="46.44412" lon="5.39953">
        <ele>465</ele>
        <time>2022-07-23T15:16:27Z</time>
      </trkpt>
      <trkpt lat="46.44449" lon="5.39943">
        <ele>464.2</ele>
        <time>2022-07-23T15:16:32Z</time>
      </trkpt>
      <trkpt lat="46.44462" lon="5.39936">
        <ele>463.6</ele>
        <time>2022-07-23T15:16:34Z</time>
      </trkpt>
      <trkpt lat="46.44498" lon="5.39918">
        <ele>463.6</ele>
        <time>2022-07-23T15:16:40Z</time>
      </trkpt>
      <trkpt lat="46.44546" lon="5.39895">
        <ele>465</ele>
        <time>2022-07-23T15:16:48Z</time>
      </trkpt>
      <trkpt lat="46.44596" lon="5.39867">
        <ele>465</ele>
        <time>2022-07-23T15:16:56Z</time>
      </trkpt>
      <trkpt lat="46.44601" lon="5.39862">
        <ele>465</ele>
        <time>2022-07-23T15:16:57Z</time>
      </trkpt>
      <trkpt lat="46.44625" lon="5.39832">
        <ele>465.4</ele>
        <time>2022-07-23T15:17:02Z</time>
      </trkpt>
      <trkpt lat="46.44649" lon="5.39808">
        <ele>465.4</ele>
        <time>2022-07-23T15:17:06Z</time>
      </trkpt>
      <trkpt lat="46.44656" lon="5.39804">
        <ele>465.4</ele>
        <time>2022-07-23T15:17:07Z</time>
      </trkpt>
      <trkpt lat="46.44665" lon="5.39801">
        <ele>465.2</ele>
        <time>2022-07-23T15:17:08Z</time>
      </trkpt>
      <trkpt lat="46.44691" lon="5.39798">
        <ele>464.4</ele>
        <time>2022-07-23T15:17:11Z</time>
      </trkpt>
      <trkpt lat="46.44707" lon="5.39799">
        <ele>463.6</ele>
        <time>2022-07-23T15:17:13Z</time>
      </trkpt>
      <trkpt lat="46.44728" lon="5.39801">
        <ele>463.4</ele>
        <time>2022-07-23T15:17:16Z</time>
      </trkpt>
      <trkpt lat="46.44757" lon="5.39802">
        <ele>464</ele>
        <time>2022-07-23T15:17:21Z</time>
      </trkpt>
      <trkpt lat="46.44767" lon="5.39802">
        <ele>465</ele>
        <time>2022-07-23T15:17:23Z</time>
      </trkpt>
      <trkpt lat="46.44784" lon="5.39802">
        <ele>465.8</ele>
        <time>2022-07-23T15:17:26Z</time>
      </trkpt>
      <trkpt lat="46.4479" lon="5.39801">
        <ele>466</ele>
        <time>2022-07-23T15:17:27Z</time>
      </trkpt>
      <trkpt lat="46.44814" lon="5.39791">
        <ele>467</ele>
        <time>2022-07-23T15:17:31Z</time>
      </trkpt>
      <trkpt lat="46.44821" lon="5.39787">
        <ele>467</ele>
        <time>2022-07-23T15:17:32Z</time>
      </trkpt>
      <trkpt lat="46.44827" lon="5.39782">
        <ele>467.2</ele>
        <time>2022-07-23T15:17:33Z</time>
      </trkpt>
      <trkpt lat="46.44841" lon="5.39772">
        <ele>467</ele>
        <time>2022-07-23T15:17:35Z</time>
      </trkpt>
      <trkpt lat="46.44875" lon="5.39757">
        <ele>466</ele>
        <time>2022-07-23T15:17:40Z</time>
      </trkpt>
      <trkpt lat="46.44905" lon="5.39751">
        <ele>465.8</ele>
        <time>2022-07-23T15:17:45Z</time>
      </trkpt>
      <trkpt lat="46.44925" lon="5.39746">
        <ele>467.2</ele>
        <time>2022-07-23T15:17:49Z</time>
      </trkpt>
      <trkpt lat="46.44942" lon="5.3974">
        <ele>467.6</ele>
        <time>2022-07-23T15:17:52Z</time>
      </trkpt>
      <trkpt lat="46.44968" lon="5.39734">
        <ele>467.8</ele>
        <time>2022-07-23T15:17:56Z</time>
      </trkpt>
      <trkpt lat="46.44974" lon="5.39731">
        <ele>467.8</ele>
        <time>2022-07-23T15:17:57Z</time>
      </trkpt>
      <trkpt lat="46.4498" lon="5.39728">
        <ele>467.6</ele>
        <time>2022-07-23T15:17:58Z</time>
      </trkpt>
      <trkpt lat="46.45001" lon="5.39709">
        <ele>467.4</ele>
        <time>2022-07-23T15:18:02Z</time>
      </trkpt>
      <trkpt lat="46.45027" lon="5.39679">
        <ele>468.2</ele>
        <time>2022-07-23T15:18:08Z</time>
      </trkpt>
      <trkpt lat="46.45036" lon="5.3967">
        <ele>468.8</ele>
        <time>2022-07-23T15:18:10Z</time>
      </trkpt>
      <trkpt lat="46.45055" lon="5.39655">
        <ele>469.2</ele>
        <time>2022-07-23T15:18:14Z</time>
      </trkpt>
      <trkpt lat="46.4506" lon="5.39652">
        <ele>469.4</ele>
        <time>2022-07-23T15:18:15Z</time>
      </trkpt>
      <trkpt lat="46.4508" lon="5.39637">
        <ele>470.2</ele>
        <time>2022-07-23T15:18:19Z</time>
      </trkpt>
      <trkpt lat="46.45085" lon="5.39634">
        <ele>470.4</ele>
        <time>2022-07-23T15:18:20Z</time>
      </trkpt>
      <trkpt lat="46.45121" lon="5.3961">
        <ele>471.4</ele>
        <time>2022-07-23T15:18:27Z</time>
      </trkpt>
      <trkpt lat="46.45127" lon="5.39607">
        <ele>471.6</ele>
        <time>2022-07-23T15:18:28Z</time>
      </trkpt>
      <trkpt lat="46.45167" lon="5.39589">
        <ele>471.8</ele>
        <time>2022-07-23T15:18:34Z</time>
      </trkpt>
      <trkpt lat="46.45219" lon="5.39565">
        <ele>470.6</ele>
        <time>2022-07-23T15:18:41Z</time>
      </trkpt>
      <trkpt lat="46.45227" lon="5.39561">
        <ele>470.4</ele>
        <time>2022-07-23T15:18:42Z</time>
      </trkpt>
      <trkpt lat="46.45251" lon="5.39547">
        <ele>469.4</ele>
        <time>2022-07-23T15:18:45Z</time>
      </trkpt>
      <trkpt lat="46.45265" lon="5.39534">
        <ele>468.6</ele>
        <time>2022-07-23T15:18:47Z</time>
      </trkpt>
      <trkpt lat="46.45272" lon="5.39528">
        <ele>468</ele>
        <time>2022-07-23T15:18:48Z</time>
      </trkpt>
      <trkpt lat="46.45291" lon="5.39506">
        <ele>467</ele>
        <time>2022-07-23T15:18:51Z</time>
      </trkpt>
      <trkpt lat="46.45302" lon="5.39491">
        <ele>466.8</ele>
        <time>2022-07-23T15:18:53Z</time>
      </trkpt>
      <trkpt lat="46.45322" lon="5.39457">
        <ele>466.2</ele>
        <time>2022-07-23T15:18:57Z</time>
      </trkpt>
      <trkpt lat="46.45329" lon="5.39438">
        <ele>466.2</ele>
        <time>2022-07-23T15:18:59Z</time>
      </trkpt>
      <trkpt lat="46.45336" lon="5.39417">
        <ele>466</ele>
        <time>2022-07-23T15:19:01Z</time>
      </trkpt>
      <trkpt lat="46.45352" lon="5.39375">
        <ele>465.6</ele>
        <time>2022-07-23T15:19:05Z</time>
      </trkpt>
      <trkpt lat="46.45368" lon="5.39328">
        <ele>464.4</ele>
        <time>2022-07-23T15:19:09Z</time>
      </trkpt>
      <trkpt lat="46.45372" lon="5.39316">
        <ele>464.2</ele>
        <time>2022-07-23T15:19:10Z</time>
      </trkpt>
      <trkpt lat="46.4538" lon="5.39293">
        <ele>463.2</ele>
        <time>2022-07-23T15:19:12Z</time>
      </trkpt>
      <trkpt lat="46.45384" lon="5.39282">
        <ele>462.2</ele>
        <time>2022-07-23T15:19:13Z</time>
      </trkpt>
      <trkpt lat="46.45392" lon="5.3926">
        <ele>461.2</ele>
        <time>2022-07-23T15:19:15Z</time>
      </trkpt>
      <trkpt lat="46.45396" lon="5.39249">
        <ele>460.6</ele>
        <time>2022-07-23T15:19:16Z</time>
      </trkpt>
      <trkpt lat="46.45407" lon="5.39216">
        <ele>459.8</ele>
        <time>2022-07-23T15:19:19Z</time>
      </trkpt>
      <trkpt lat="46.45411" lon="5.39205">
        <ele>459.4</ele>
        <time>2022-07-23T15:19:20Z</time>
      </trkpt>
      <trkpt lat="46.45433" lon="5.39139">
        <ele>458.8</ele>
        <time>2022-07-23T15:19:26Z</time>
      </trkpt>
      <trkpt lat="46.45441" lon="5.39117">
        <ele>458.6</ele>
        <time>2022-07-23T15:19:28Z</time>
      </trkpt>
      <trkpt lat="46.45447" lon="5.39107">
        <ele>458.4</ele>
        <time>2022-07-23T15:19:29Z</time>
      </trkpt>
      <trkpt lat="46.45454" lon="5.39099">
        <ele>458.2</ele>
        <time>2022-07-23T15:19:30Z</time>
      </trkpt>
      <trkpt lat="46.45471" lon="5.39094">
        <ele>457.6</ele>
        <time>2022-07-23T15:19:32Z</time>
      </trkpt>
      <trkpt lat="46.45489" lon="5.39101">
        <ele>457</ele>
        <time>2022-07-23T15:19:34Z</time>
      </trkpt>
      <trkpt lat="46.45495" lon="5.39108">
        <ele>456.8</ele>
        <time>2022-07-23T15:19:35Z</time>
      </trkpt>
      <trkpt lat="46.45514" lon="5.39129">
        <ele>456</ele>
        <time>2022-07-23T15:19:38Z</time>
      </trkpt>
      <trkpt lat="46.45527" lon="5.39142">
        <ele>456</ele>
        <time>2022-07-23T15:19:40Z</time>
      </trkpt>
      <trkpt lat="46.45563" lon="5.39177">
        <ele>457.4</ele>
        <time>2022-07-23T15:19:46Z</time>
      </trkpt>
      <trkpt lat="46.45569" lon="5.39183">
        <ele>457.4</ele>
        <time>2022-07-23T15:19:47Z</time>
      </trkpt>
      <trkpt lat="46.45587" lon="5.392">
        <ele>458.4</ele>
        <time>2022-07-23T15:19:50Z</time>
      </trkpt>
      <trkpt lat="46.45596" lon="5.39209">
        <ele>459.2</ele>
        <time>2022-07-23T15:19:52Z</time>
      </trkpt>
      <trkpt lat="46.456" lon="5.39215">
        <ele>459.6</ele>
        <time>2022-07-23T15:19:53Z</time>
      </trkpt>
      <trkpt lat="46.45609" lon="5.39224">
        <ele>460.2</ele>
        <time>2022-07-23T15:19:55Z</time>
      </trkpt>
      <trkpt lat="46.45618" lon="5.39234">
        <ele>461</ele>
        <time>2022-07-23T15:19:57Z</time>
      </trkpt>
      <trkpt lat="46.45622" lon="5.39238">
        <ele>461.2</ele>
        <time>2022-07-23T15:19:58Z</time>
      </trkpt>
      <trkpt lat="46.4563" lon="5.39247">
        <ele>462.2</ele>
        <time>2022-07-23T15:20:00Z</time>
      </trkpt>
      <trkpt lat="46.45653" lon="5.39272">
        <ele>463</ele>
        <time>2022-07-23T15:20:06Z</time>
      </trkpt>
      <trkpt lat="46.45656" lon="5.39276">
        <ele>463.2</ele>
        <time>2022-07-23T15:20:07Z</time>
      </trkpt>
      <trkpt lat="46.45676" lon="5.39296">
        <ele>464.2</ele>
        <time>2022-07-23T15:20:12Z</time>
      </trkpt>
      <trkpt lat="46.45686" lon="5.39307">
        <ele>464.6</ele>
        <time>2022-07-23T15:20:15Z</time>
      </trkpt>
      <trkpt lat="46.45692" lon="5.39315">
        <ele>465.2</ele>
        <time>2022-07-23T15:20:17Z</time>
      </trkpt>
      <trkpt lat="46.45713" lon="5.39337">
        <ele>466.2</ele>
        <time>2022-07-23T15:20:23Z</time>
      </trkpt>
      <trkpt lat="46.4572" lon="5.39345">
        <ele>466.6</ele>
        <time>2022-07-23T15:20:25Z</time>
      </trkpt>
      <trkpt lat="46.45729" lon="5.39354">
        <ele>467.4</ele>
        <time>2022-07-23T15:20:28Z</time>
      </trkpt>
      <trkpt lat="46.45743" lon="5.39371">
        <ele>468.2</ele>
        <time>2022-07-23T15:20:33Z</time>
      </trkpt>
      <trkpt lat="46.45746" lon="5.39376">
        <ele>468.6</ele>
        <time>2022-07-23T15:20:34Z</time>
      </trkpt>
      <trkpt lat="46.45758" lon="5.39399">
        <ele>469.8</ele>
        <time>2022-07-23T15:20:39Z</time>
      </trkpt>
      <trkpt lat="46.45762" lon="5.39408">
        <ele>470</ele>
        <time>2022-07-23T15:20:41Z</time>
      </trkpt>
      <trkpt lat="46.45768" lon="5.39429">
        <ele>470.8</ele>
        <time>2022-07-23T15:20:45Z</time>
      </trkpt>
      <trkpt lat="46.45771" lon="5.39446">
        <ele>471.8</ele>
        <time>2022-07-23T15:20:48Z</time>
      </trkpt>
      <trkpt lat="46.45773" lon="5.3947">
        <ele>473</ele>
        <time>2022-07-23T15:20:52Z</time>
      </trkpt>
      <trkpt lat="46.45772" lon="5.39487">
        <ele>473.8</ele>
        <time>2022-07-23T15:20:55Z</time>
      </trkpt>
      <trkpt lat="46.45771" lon="5.39492">
        <ele>474</ele>
        <time>2022-07-23T15:20:56Z</time>
      </trkpt>
      <trkpt lat="46.45768" lon="5.39516">
        <ele>474.4</ele>
        <time>2022-07-23T15:21:00Z</time>
      </trkpt>
      <trkpt lat="46.45767" lon="5.39522">
        <ele>474.6</ele>
        <time>2022-07-23T15:21:01Z</time>
      </trkpt>
      <trkpt lat="46.45761" lon="5.39568">
        <ele>475.2</ele>
        <time>2022-07-23T15:21:08Z</time>
      </trkpt>
      <trkpt lat="46.45759" lon="5.39582">
        <ele>475.6</ele>
        <time>2022-07-23T15:21:10Z</time>
      </trkpt>
      <trkpt lat="46.45758" lon="5.39596">
        <ele>476</ele>
        <time>2022-07-23T15:21:12Z</time>
      </trkpt>
      <trkpt lat="46.4576" lon="5.39617">
        <ele>476.2</ele>
        <time>2022-07-23T15:21:15Z</time>
      </trkpt>
      <trkpt lat="46.45761" lon="5.39624">
        <ele>476.2</ele>
        <time>2022-07-23T15:21:16Z</time>
      </trkpt>
      <trkpt lat="46.45766" lon="5.3965">
        <ele>476.4</ele>
        <time>2022-07-23T15:21:20Z</time>
      </trkpt>
      <trkpt lat="46.45768" lon="5.39656">
        <ele>476.6</ele>
        <time>2022-07-23T15:21:21Z</time>
      </trkpt>
      <trkpt lat="46.4578" lon="5.39684">
        <ele>477.4</ele>
        <time>2022-07-23T15:21:26Z</time>
      </trkpt>
      <trkpt lat="46.45797" lon="5.39709">
        <ele>478.4</ele>
        <time>2022-07-23T15:21:31Z</time>
      </trkpt>
      <trkpt lat="46.45804" lon="5.39717">
        <ele>478.6</ele>
        <time>2022-07-23T15:21:33Z</time>
      </trkpt>
      <trkpt lat="46.45829" lon="5.39737">
        <ele>479.6</ele>
        <time>2022-07-23T15:21:39Z</time>
      </trkpt>
      <trkpt lat="46.45838" lon="5.39744">
        <ele>480</ele>
        <time>2022-07-23T15:21:41Z</time>
      </trkpt>
      <trkpt lat="46.45868" lon="5.39767">
        <ele>480.8</ele>
        <time>2022-07-23T15:21:48Z</time>
      </trkpt>
      <trkpt lat="46.45895" lon="5.39791">
        <ele>481.6</ele>
        <time>2022-07-23T15:21:54Z</time>
      </trkpt>
      <trkpt lat="46.45914" lon="5.39807">
        <ele>482</ele>
        <time>2022-07-23T15:21:58Z</time>
      </trkpt>
      <trkpt lat="46.45938" lon="5.39828">
        <ele>482</ele>
        <time>2022-07-23T15:22:03Z</time>
      </trkpt>
      <trkpt lat="46.45988" lon="5.3987">
        <ele>483</ele>
        <time>2022-07-23T15:22:13Z</time>
      </trkpt>
      <trkpt lat="46.45994" lon="5.39874">
        <ele>483</ele>
        <time>2022-07-23T15:22:14Z</time>
      </trkpt>
      <trkpt lat="46.46035" lon="5.39909">
        <ele>483.2</ele>
        <time>2022-07-23T15:22:22Z</time>
      </trkpt>
      <trkpt lat="46.4607" lon="5.39939">
        <ele>484</ele>
        <time>2022-07-23T15:22:29Z</time>
      </trkpt>
      <trkpt lat="46.46085" lon="5.39952">
        <ele>484.4</ele>
        <time>2022-07-23T15:22:32Z</time>
      </trkpt>
      <trkpt lat="46.46129" lon="5.39991">
        <ele>484.4</ele>
        <time>2022-07-23T15:22:41Z</time>
      </trkpt>
      <trkpt lat="46.46159" lon="5.40017">
        <ele>485</ele>
        <time>2022-07-23T15:22:47Z</time>
      </trkpt>
      <trkpt lat="46.46168" lon="5.40028">
        <ele>485.2</ele>
        <time>2022-07-23T15:22:49Z</time>
      </trkpt>
      <trkpt lat="46.46186" lon="5.40061">
        <ele>485.8</ele>
        <time>2022-07-23T15:22:54Z</time>
      </trkpt>
      <trkpt lat="46.4619" lon="5.40075">
        <ele>486</ele>
        <time>2022-07-23T15:22:56Z</time>
      </trkpt>
      <trkpt lat="46.46195" lon="5.40106">
        <ele>486.6</ele>
        <time>2022-07-23T15:23:00Z</time>
      </trkpt>
      <trkpt lat="46.46196" lon="5.40121">
        <ele>487.2</ele>
        <time>2022-07-23T15:23:02Z</time>
      </trkpt>
      <trkpt lat="46.46195" lon="5.40133">
        <ele>487.6</ele>
        <time>2022-07-23T15:23:04Z</time>
      </trkpt>
      <trkpt lat="46.462" lon="5.40142">
        <ele>487.8</ele>
        <time>2022-07-23T15:23:06Z</time>
      </trkpt>
      <trkpt lat="46.46209" lon="5.40141">
        <ele>488.4</ele>
        <time>2022-07-23T15:23:08Z</time>
      </trkpt>
      <trkpt lat="46.46214" lon="5.40138">
        <ele>488.4</ele>
        <time>2022-07-23T15:23:09Z</time>
      </trkpt>
      <trkpt lat="46.46244" lon="5.40106">
        <ele>489.2</ele>
        <time>2022-07-23T15:23:16Z</time>
      </trkpt>
      <trkpt lat="46.46248" lon="5.40102">
        <ele>489.2</ele>
        <time>2022-07-23T15:23:17Z</time>
      </trkpt>
      <trkpt lat="46.46258" lon="5.40097">
        <ele>489.2</ele>
        <time>2022-07-23T15:23:19Z</time>
      </trkpt>
      <trkpt lat="46.46268" lon="5.40094">
        <ele>489.4</ele>
        <time>2022-07-23T15:23:21Z</time>
      </trkpt>
      <trkpt lat="46.46273" lon="5.40093">
        <ele>489.4</ele>
        <time>2022-07-23T15:23:22Z</time>
      </trkpt>
      <trkpt lat="46.46278" lon="5.40093">
        <ele>489.4</ele>
        <time>2022-07-23T15:23:23Z</time>
      </trkpt>
      <trkpt lat="46.46291" lon="5.40095">
        <ele>490</ele>
        <time>2022-07-23T15:23:26Z</time>
      </trkpt>
      <trkpt lat="46.46305" lon="5.40096">
        <ele>490.6</ele>
        <time>2022-07-23T15:23:29Z</time>
      </trkpt>
      <trkpt lat="46.46327" lon="5.40097">
        <ele>491.8</ele>
        <time>2022-07-23T15:23:34Z</time>
      </trkpt>
      <trkpt lat="46.46347" lon="5.40095">
        <ele>493</ele>
        <time>2022-07-23T15:23:38Z</time>
      </trkpt>
      <trkpt lat="46.4636" lon="5.40094">
        <ele>493.6</ele>
        <time>2022-07-23T15:23:41Z</time>
      </trkpt>
      <trkpt lat="46.46365" lon="5.40093">
        <ele>493.6</ele>
        <time>2022-07-23T15:23:42Z</time>
      </trkpt>
      <trkpt lat="46.46377" lon="5.40091">
        <ele>494.2</ele>
        <time>2022-07-23T15:23:45Z</time>
      </trkpt>
      <trkpt lat="46.46398" lon="5.40087">
        <ele>494.8</ele>
        <time>2022-07-23T15:23:50Z</time>
      </trkpt>
      <trkpt lat="46.46409" lon="5.40085">
        <ele>495.2</ele>
        <time>2022-07-23T15:23:53Z</time>
      </trkpt>
      <trkpt lat="46.46427" lon="5.40081">
        <ele>496.4</ele>
        <time>2022-07-23T15:23:58Z</time>
      </trkpt>
      <trkpt lat="46.46458" lon="5.40076">
        <ele>497.4</ele>
        <time>2022-07-23T15:24:06Z</time>
      </trkpt>
      <trkpt lat="46.46466" lon="5.40075">
        <ele>497.6</ele>
        <time>2022-07-23T15:24:08Z</time>
      </trkpt>
      <trkpt lat="46.46487" lon="5.40074">
        <ele>498.4</ele>
        <time>2022-07-23T15:24:13Z</time>
      </trkpt>
      <trkpt lat="46.46504" lon="5.40075">
        <ele>499</ele>
        <time>2022-07-23T15:24:17Z</time>
      </trkpt>
      <trkpt lat="46.46509" lon="5.40077">
        <ele>499</ele>
        <time>2022-07-23T15:24:18Z</time>
      </trkpt>
      <trkpt lat="46.46526" lon="5.40084">
        <ele>499.4</ele>
        <time>2022-07-23T15:24:22Z</time>
      </trkpt>
      <trkpt lat="46.46539" lon="5.40091">
        <ele>499.4</ele>
        <time>2022-07-23T15:24:25Z</time>
      </trkpt>
      <trkpt lat="46.46559" lon="5.40101">
        <ele>500.6</ele>
        <time>2022-07-23T15:24:30Z</time>
      </trkpt>
      <trkpt lat="46.4658" lon="5.40112">
        <ele>501.2</ele>
        <time>2022-07-23T15:24:35Z</time>
      </trkpt>
      <trkpt lat="46.46592" lon="5.40118">
        <ele>501.6</ele>
        <time>2022-07-23T15:24:38Z</time>
      </trkpt>
      <trkpt lat="46.46615" lon="5.4013">
        <ele>502.4</ele>
        <time>2022-07-23T15:24:44Z</time>
      </trkpt>
      <trkpt lat="46.46623" lon="5.40134">
        <ele>502.6</ele>
        <time>2022-07-23T15:24:46Z</time>
      </trkpt>
      <trkpt lat="46.46644" lon="5.40146">
        <ele>503.8</ele>
        <time>2022-07-23T15:24:52Z</time>
      </trkpt>
      <trkpt lat="46.46651" lon="5.40149">
        <ele>504.2</ele>
        <time>2022-07-23T15:24:54Z</time>
      </trkpt>
      <trkpt lat="46.46654" lon="5.40151">
        <ele>504.8</ele>
        <time>2022-07-23T15:24:55Z</time>
      </trkpt>
      <trkpt lat="46.46674" lon="5.40161">
        <ele>506</ele>
        <time>2022-07-23T15:25:01Z</time>
      </trkpt>
      <trkpt lat="46.46677" lon="5.40163">
        <ele>506.4</ele>
        <time>2022-07-23T15:25:02Z</time>
      </trkpt>
      <trkpt lat="46.46689" lon="5.40169">
        <ele>507</ele>
        <time>2022-07-23T15:25:06Z</time>
      </trkpt>
      <trkpt lat="46.46696" lon="5.40172">
        <ele>507.4</ele>
        <time>2022-07-23T15:25:08Z</time>
      </trkpt>
      <trkpt lat="46.46709" lon="5.40179">
        <ele>508.2</ele>
        <time>2022-07-23T15:25:12Z</time>
      </trkpt>
      <trkpt lat="46.46716" lon="5.40181">
        <ele>508.4</ele>
        <time>2022-07-23T15:25:14Z</time>
      </trkpt>
      <trkpt lat="46.46729" lon="5.40188">
        <ele>509.4</ele>
        <time>2022-07-23T15:25:18Z</time>
      </trkpt>
      <trkpt lat="46.46743" lon="5.40195">
        <ele>510.2</ele>
        <time>2022-07-23T15:25:22Z</time>
      </trkpt>
      <trkpt lat="46.46746" lon="5.40196">
        <ele>510.4</ele>
        <time>2022-07-23T15:25:23Z</time>
      </trkpt>
      <trkpt lat="46.46763" lon="5.40205">
        <ele>511.4</ele>
        <time>2022-07-23T15:25:28Z</time>
      </trkpt>
      <trkpt lat="46.46769" lon="5.40209">
        <ele>511.8</ele>
        <time>2022-07-23T15:25:30Z</time>
      </trkpt>
      <trkpt lat="46.46779" lon="5.40214">
        <ele>512.6</ele>
        <time>2022-07-23T15:25:33Z</time>
      </trkpt>
      <trkpt lat="46.46798" lon="5.40224">
        <ele>513.8</ele>
        <time>2022-07-23T15:25:39Z</time>
      </trkpt>
      <trkpt lat="46.46814" lon="5.40233">
        <ele>515</ele>
        <time>2022-07-23T15:25:44Z</time>
      </trkpt>
      <trkpt lat="46.46831" lon="5.40242">
        <ele>516</ele>
        <time>2022-07-23T15:25:49Z</time>
      </trkpt>
      <trkpt lat="46.46845" lon="5.40248">
        <ele>517.2</ele>
        <time>2022-07-23T15:25:53Z</time>
      </trkpt>
      <trkpt lat="46.46863" lon="5.40257">
        <ele>517.8</ele>
        <time>2022-07-23T15:25:58Z</time>
      </trkpt>
      <trkpt lat="46.46875" lon="5.40262">
        <ele>518.4</ele>
        <time>2022-07-23T15:26:01Z</time>
      </trkpt>
      <trkpt lat="46.46896" lon="5.40273">
        <ele>519.6</ele>
        <time>2022-07-23T15:26:06Z</time>
      </trkpt>
      <trkpt lat="46.46937" lon="5.40295">
        <ele>520.4</ele>
        <time>2022-07-23T15:26:15Z</time>
      </trkpt>
      <trkpt lat="46.46945" lon="5.403">
        <ele>520.8</ele>
        <time>2022-07-23T15:26:17Z</time>
      </trkpt>
      <trkpt lat="46.46961" lon="5.40308">
        <ele>521.8</ele>
        <time>2022-07-23T15:26:21Z</time>
      </trkpt>
      <trkpt lat="46.46969" lon="5.4031">
        <ele>522.4</ele>
        <time>2022-07-23T15:26:23Z</time>
      </trkpt>
      <trkpt lat="46.46973" lon="5.40311">
        <ele>522.6</ele>
        <time>2022-07-23T15:26:24Z</time>
      </trkpt>
      <trkpt lat="46.46977" lon="5.40313">
        <ele>522.8</ele>
        <time>2022-07-23T15:26:25Z</time>
      </trkpt>
      <trkpt lat="46.47003" lon="5.40322">
        <ele>524</ele>
        <time>2022-07-23T15:26:31Z</time>
      </trkpt>
      <trkpt lat="46.47007" lon="5.40323">
        <ele>524.2</ele>
        <time>2022-07-23T15:26:32Z</time>
      </trkpt>
      <trkpt lat="46.47017" lon="5.40324">
        <ele>524.6</ele>
        <time>2022-07-23T15:26:34Z</time>
      </trkpt>
      <trkpt lat="46.47037" lon="5.40326">
        <ele>525</ele>
        <time>2022-07-23T15:26:38Z</time>
      </trkpt>
      <trkpt lat="46.47074" lon="5.40329">
        <ele>524.8</ele>
        <time>2022-07-23T15:26:44Z</time>
      </trkpt>
      <trkpt lat="46.47113" lon="5.40333">
        <ele>523</ele>
        <time>2022-07-23T15:26:49Z</time>
      </trkpt>
      <trkpt lat="46.47132" lon="5.40337">
        <ele>522</ele>
        <time>2022-07-23T15:26:51Z</time>
      </trkpt>
      <trkpt lat="46.47161" lon="5.40345">
        <ele>521.2</ele>
        <time>2022-07-23T15:26:54Z</time>
      </trkpt>
      <trkpt lat="46.47171" lon="5.40349">
        <ele>520.8</ele>
        <time>2022-07-23T15:26:55Z</time>
      </trkpt>
      <trkpt lat="46.47189" lon="5.40359">
        <ele>519.8</ele>
        <time>2022-07-23T15:26:57Z</time>
      </trkpt>
      <trkpt lat="46.47197" lon="5.40365">
        <ele>518.8</ele>
        <time>2022-07-23T15:26:58Z</time>
      </trkpt>
      <trkpt lat="46.47205" lon="5.40374">
        <ele>517.8</ele>
        <time>2022-07-23T15:26:59Z</time>
      </trkpt>
      <trkpt lat="46.47221" lon="5.40393">
        <ele>516.8</ele>
        <time>2022-07-23T15:27:01Z</time>
      </trkpt>
      <trkpt lat="46.47229" lon="5.40402">
        <ele>516.6</ele>
        <time>2022-07-23T15:27:02Z</time>
      </trkpt>
      <trkpt lat="46.47237" lon="5.40411">
        <ele>515.2</ele>
        <time>2022-07-23T15:27:03Z</time>
      </trkpt>
      <trkpt lat="46.47255" lon="5.40424">
        <ele>513.8</ele>
        <time>2022-07-23T15:27:05Z</time>
      </trkpt>
      <trkpt lat="46.47265" lon="5.40428">
        <ele>513</ele>
        <time>2022-07-23T15:27:06Z</time>
      </trkpt>
      <trkpt lat="46.47286" lon="5.40437">
        <ele>512.2</ele>
        <time>2022-07-23T15:27:08Z</time>
      </trkpt>
      <trkpt lat="46.47307" lon="5.40443">
        <ele>511.8</ele>
        <time>2022-07-23T15:27:10Z</time>
      </trkpt>
      <trkpt lat="46.47329" lon="5.40447">
        <ele>510.4</ele>
        <time>2022-07-23T15:27:12Z</time>
      </trkpt>
      <trkpt lat="46.4735" lon="5.40449">
        <ele>509.2</ele>
        <time>2022-07-23T15:27:14Z</time>
      </trkpt>
      <trkpt lat="46.47372" lon="5.40451">
        <ele>507.8</ele>
        <time>2022-07-23T15:27:16Z</time>
      </trkpt>
      <trkpt lat="46.47395" lon="5.4045">
        <ele>507.2</ele>
        <time>2022-07-23T15:27:18Z</time>
      </trkpt>
      <trkpt lat="46.47417" lon="5.40447">
        <ele>506.8</ele>
        <time>2022-07-23T15:27:20Z</time>
      </trkpt>
      <trkpt lat="46.47439" lon="5.40445">
        <ele>505.4</ele>
        <time>2022-07-23T15:27:22Z</time>
      </trkpt>
      <trkpt lat="46.47461" lon="5.40448">
        <ele>503.6</ele>
        <time>2022-07-23T15:27:24Z</time>
      </trkpt>
      <trkpt lat="46.47472" lon="5.4045">
        <ele>503.4</ele>
        <time>2022-07-23T15:27:25Z</time>
      </trkpt>
      <trkpt lat="46.47491" lon="5.40457">
        <ele>503</ele>
        <time>2022-07-23T15:27:27Z</time>
      </trkpt>
      <trkpt lat="46.47499" lon="5.40463">
        <ele>502.6</ele>
        <time>2022-07-23T15:27:28Z</time>
      </trkpt>
      <trkpt lat="46.47507" lon="5.4047">
        <ele>501.8</ele>
        <time>2022-07-23T15:27:29Z</time>
      </trkpt>
      <trkpt lat="46.47514" lon="5.40477">
        <ele>501.6</ele>
        <time>2022-07-23T15:27:30Z</time>
      </trkpt>
      <trkpt lat="46.47522" lon="5.40481">
        <ele>501.2</ele>
        <time>2022-07-23T15:27:31Z</time>
      </trkpt>
      <trkpt lat="46.47535" lon="5.40474">
        <ele>500.4</ele>
        <time>2022-07-23T15:27:33Z</time>
      </trkpt>
      <trkpt lat="46.47541" lon="5.40448">
        <ele>499.4</ele>
        <time>2022-07-23T15:27:35Z</time>
      </trkpt>
      <trkpt lat="46.4754" lon="5.40432">
        <ele>498.6</ele>
        <time>2022-07-23T15:27:36Z</time>
      </trkpt>
      <trkpt lat="46.47537" lon="5.40417">
        <ele>498.2</ele>
        <time>2022-07-23T15:27:37Z</time>
      </trkpt>
      <trkpt lat="46.47532" lon="5.40404">
        <ele>496.6</ele>
        <time>2022-07-23T15:27:38Z</time>
      </trkpt>
      <trkpt lat="46.47523" lon="5.40376">
        <ele>495.4</ele>
        <time>2022-07-23T15:27:40Z</time>
      </trkpt>
      <trkpt lat="46.4752" lon="5.40361">
        <ele>495.2</ele>
        <time>2022-07-23T15:27:41Z</time>
      </trkpt>
      <trkpt lat="46.4752" lon="5.40345">
        <ele>494.6</ele>
        <time>2022-07-23T15:27:42Z</time>
      </trkpt>
      <trkpt lat="46.47522" lon="5.4033">
        <ele>494.2</ele>
        <time>2022-07-23T15:27:43Z</time>
      </trkpt>
      <trkpt lat="46.47528" lon="5.40315">
        <ele>494</ele>
        <time>2022-07-23T15:27:44Z</time>
      </trkpt>
      <trkpt lat="46.47535" lon="5.40303">
        <ele>492.8</ele>
        <time>2022-07-23T15:27:45Z</time>
      </trkpt>
      <trkpt lat="46.47551" lon="5.40281">
        <ele>491.8</ele>
        <time>2022-07-23T15:27:47Z</time>
      </trkpt>
      <trkpt lat="46.4757" lon="5.40265">
        <ele>490.4</ele>
        <time>2022-07-23T15:27:49Z</time>
      </trkpt>
      <trkpt lat="46.4758" lon="5.4026">
        <ele>489.4</ele>
        <time>2022-07-23T15:27:50Z</time>
      </trkpt>
      <trkpt lat="46.47601" lon="5.40256">
        <ele>488.2</ele>
        <time>2022-07-23T15:27:52Z</time>
      </trkpt>
      <trkpt lat="46.47633" lon="5.40243">
        <ele>487</ele>
        <time>2022-07-23T15:27:55Z</time>
      </trkpt>
      <trkpt lat="46.47656" lon="5.40244">
        <ele>485.8</ele>
        <time>2022-07-23T15:27:57Z</time>
      </trkpt>
      <trkpt lat="46.47667" lon="5.40246">
        <ele>485.6</ele>
        <time>2022-07-23T15:27:58Z</time>
      </trkpt>
      <trkpt lat="46.47677" lon="5.40245">
        <ele>485</ele>
        <time>2022-07-23T15:27:59Z</time>
      </trkpt>
      <trkpt lat="46.47686" lon="5.40244">
        <ele>484.8</ele>
        <time>2022-07-23T15:28:00Z</time>
      </trkpt>
      <trkpt lat="46.47695" lon="5.4024">
        <ele>484.2</ele>
        <time>2022-07-23T15:28:01Z</time>
      </trkpt>
      <trkpt lat="46.47707" lon="5.40218">
        <ele>483.6</ele>
        <time>2022-07-23T15:28:03Z</time>
      </trkpt>
      <trkpt lat="46.47711" lon="5.40204">
        <ele>483</ele>
        <time>2022-07-23T15:28:04Z</time>
      </trkpt>
      <trkpt lat="46.47713" lon="5.40189">
        <ele>482.6</ele>
        <time>2022-07-23T15:28:05Z</time>
      </trkpt>
      <trkpt lat="46.47717" lon="5.40176">
        <ele>482</ele>
        <time>2022-07-23T15:28:06Z</time>
      </trkpt>
      <trkpt lat="46.47724" lon="5.40165">
        <ele>481.8</ele>
        <time>2022-07-23T15:28:07Z</time>
      </trkpt>
      <trkpt lat="46.47732" lon="5.40155">
        <ele>481.4</ele>
        <time>2022-07-23T15:28:08Z</time>
      </trkpt>
      <trkpt lat="46.4774" lon="5.40144">
        <ele>481.2</ele>
        <time>2022-07-23T15:28:09Z</time>
      </trkpt>
      <trkpt lat="46.47748" lon="5.40133">
        <ele>480.8</ele>
        <time>2022-07-23T15:28:10Z</time>
      </trkpt>
      <trkpt lat="46.47753" lon="5.40121">
        <ele>480.4</ele>
        <time>2022-07-23T15:28:11Z</time>
      </trkpt>
      <trkpt lat="46.47761" lon="5.40092">
        <ele>479.4</ele>
        <time>2022-07-23T15:28:13Z</time>
      </trkpt>
      <trkpt lat="46.47762" lon="5.40077">
        <ele>479</ele>
        <time>2022-07-23T15:28:14Z</time>
      </trkpt>
      <trkpt lat="46.4776" lon="5.40061">
        <ele>478</ele>
        <time>2022-07-23T15:28:15Z</time>
      </trkpt>
      <trkpt lat="46.4776" lon="5.40046">
        <ele>477.6</ele>
        <time>2022-07-23T15:28:16Z</time>
      </trkpt>
      <trkpt lat="46.47761" lon="5.40033">
        <ele>476.6</ele>
        <time>2022-07-23T15:28:17Z</time>
      </trkpt>
      <trkpt lat="46.47765" lon="5.4002">
        <ele>476</ele>
        <time>2022-07-23T15:28:18Z</time>
      </trkpt>
      <trkpt lat="46.47777" lon="5.40002">
        <ele>475.2</ele>
        <time>2022-07-23T15:28:20Z</time>
      </trkpt>
      <trkpt lat="46.47807" lon="5.39985">
        <ele>474.2</ele>
        <time>2022-07-23T15:28:23Z</time>
      </trkpt>
      <trkpt lat="46.47817" lon="5.39979">
        <ele>473.2</ele>
        <time>2022-07-23T15:28:24Z</time>
      </trkpt>
      <trkpt lat="46.47828" lon="5.39974">
        <ele>472.2</ele>
        <time>2022-07-23T15:28:25Z</time>
      </trkpt>
      <trkpt lat="46.47861" lon="5.39957">
        <ele>470.8</ele>
        <time>2022-07-23T15:28:28Z</time>
      </trkpt>
      <trkpt lat="46.47872" lon="5.39951">
        <ele>470</ele>
        <time>2022-07-23T15:28:29Z</time>
      </trkpt>
      <trkpt lat="46.47883" lon="5.39945">
        <ele>469.4</ele>
        <time>2022-07-23T15:28:30Z</time>
      </trkpt>
      <trkpt lat="46.47904" lon="5.39934">
        <ele>467.4</ele>
        <time>2022-07-23T15:28:32Z</time>
      </trkpt>
      <trkpt lat="46.47925" lon="5.39922">
        <ele>466</ele>
        <time>2022-07-23T15:28:34Z</time>
      </trkpt>
      <trkpt lat="46.47937" lon="5.39916">
        <ele>465.8</ele>
        <time>2022-07-23T15:28:35Z</time>
      </trkpt>
      <trkpt lat="46.47958" lon="5.39905">
        <ele>464.6</ele>
        <time>2022-07-23T15:28:37Z</time>
      </trkpt>
      <trkpt lat="46.47979" lon="5.39894">
        <ele>463.2</ele>
        <time>2022-07-23T15:28:39Z</time>
      </trkpt>
      <trkpt lat="46.4801" lon="5.39883">
        <ele>462.4</ele>
        <time>2022-07-23T15:28:42Z</time>
      </trkpt>
      <trkpt lat="46.4802" lon="5.39883">
        <ele>462.2</ele>
        <time>2022-07-23T15:28:43Z</time>
      </trkpt>
      <trkpt lat="46.4803" lon="5.39886">
        <ele>462.2</ele>
        <time>2022-07-23T15:28:44Z</time>
      </trkpt>
      <trkpt lat="46.4804" lon="5.39891">
        <ele>462</ele>
        <time>2022-07-23T15:28:45Z</time>
      </trkpt>
      <trkpt lat="46.48058" lon="5.39904">
        <ele>462</ele>
        <time>2022-07-23T15:28:47Z</time>
      </trkpt>
      <trkpt lat="46.48079" lon="5.39911">
        <ele>462.2</ele>
        <time>2022-07-23T15:28:49Z</time>
      </trkpt>
      <trkpt lat="46.48126" lon="5.39906">
        <ele>461.4</ele>
        <time>2022-07-23T15:28:54Z</time>
      </trkpt>
      <trkpt lat="46.48153" lon="5.39895">
        <ele>461.2</ele>
        <time>2022-07-23T15:28:57Z</time>
      </trkpt>
      <trkpt lat="46.48161" lon="5.3989">
        <ele>461.2</ele>
        <time>2022-07-23T15:28:58Z</time>
      </trkpt>
      <trkpt lat="46.48185" lon="5.39873">
        <ele>461.4</ele>
        <time>2022-07-23T15:29:01Z</time>
      </trkpt>
      <trkpt lat="46.48196" lon="5.39857">
        <ele>461.4</ele>
        <time>2022-07-23T15:29:03Z</time>
      </trkpt>
      <trkpt lat="46.48197" lon="5.39833">
        <ele>461.4</ele>
        <time>2022-07-23T15:29:05Z</time>
      </trkpt>
      <trkpt lat="46.48187" lon="5.39775">
        <ele>461.4</ele>
        <time>2022-07-23T15:29:10Z</time>
      </trkpt>
      <trkpt lat="46.48182" lon="5.39743">
        <ele>461</ele>
        <time>2022-07-23T15:29:13Z</time>
      </trkpt>
      <trkpt lat="46.48178" lon="5.3971">
        <ele>460.4</ele>
        <time>2022-07-23T15:29:16Z</time>
      </trkpt>
      <trkpt lat="46.48177" lon="5.39698">
        <ele>460.4</ele>
        <time>2022-07-23T15:29:17Z</time>
      </trkpt>
      <trkpt lat="46.48178" lon="5.39674">
        <ele>460</ele>
        <time>2022-07-23T15:29:19Z</time>
      </trkpt>
      <trkpt lat="46.48179" lon="5.39661">
        <ele>459.8</ele>
        <time>2022-07-23T15:29:20Z</time>
      </trkpt>
      <trkpt lat="46.48184" lon="5.39637">
        <ele>459.6</ele>
        <time>2022-07-23T15:29:22Z</time>
      </trkpt>
      <trkpt lat="46.48189" lon="5.39625">
        <ele>459</ele>
        <time>2022-07-23T15:29:23Z</time>
      </trkpt>
      <trkpt lat="46.48194" lon="5.39613">
        <ele>458.6</ele>
        <time>2022-07-23T15:29:24Z</time>
      </trkpt>
      <trkpt lat="46.48204" lon="5.39587">
        <ele>456.6</ele>
        <time>2022-07-23T15:29:26Z</time>
      </trkpt>
      <trkpt lat="46.48208" lon="5.39573">
        <ele>455.4</ele>
        <time>2022-07-23T15:29:27Z</time>
      </trkpt>
      <trkpt lat="46.48213" lon="5.39543">
        <ele>454.4</ele>
        <time>2022-07-23T15:29:29Z</time>
      </trkpt>
      <trkpt lat="46.48216" lon="5.39527">
        <ele>453.8</ele>
        <time>2022-07-23T15:29:30Z</time>
      </trkpt>
      <trkpt lat="46.4822" lon="5.39512">
        <ele>453.4</ele>
        <time>2022-07-23T15:29:31Z</time>
      </trkpt>
      <trkpt lat="46.48225" lon="5.39499">
        <ele>452.4</ele>
        <time>2022-07-23T15:29:32Z</time>
      </trkpt>
      <trkpt lat="46.48238" lon="5.39478">
        <ele>451</ele>
        <time>2022-07-23T15:29:34Z</time>
      </trkpt>
      <trkpt lat="46.48252" lon="5.39466">
        <ele>448.8</ele>
        <time>2022-07-23T15:29:36Z</time>
      </trkpt>
      <trkpt lat="46.48261" lon="5.39465">
        <ele>447.6</ele>
        <time>2022-07-23T15:29:37Z</time>
      </trkpt>
      <trkpt lat="46.4827" lon="5.39466">
        <ele>447</ele>
        <time>2022-07-23T15:29:38Z</time>
      </trkpt>
      <trkpt lat="46.48279" lon="5.39466">
        <ele>446.2</ele>
        <time>2022-07-23T15:29:39Z</time>
      </trkpt>
      <trkpt lat="46.48288" lon="5.39463">
        <ele>445.8</ele>
        <time>2022-07-23T15:29:40Z</time>
      </trkpt>
      <trkpt lat="46.48295" lon="5.39458">
        <ele>445</ele>
        <time>2022-07-23T15:29:41Z</time>
      </trkpt>
      <trkpt lat="46.48299" lon="5.39447">
        <ele>444.6</ele>
        <time>2022-07-23T15:29:42Z</time>
      </trkpt>
      <trkpt lat="46.48305" lon="5.39421">
        <ele>443.8</ele>
        <time>2022-07-23T15:29:44Z</time>
      </trkpt>
      <trkpt lat="46.48313" lon="5.3939">
        <ele>442.4</ele>
        <time>2022-07-23T15:29:46Z</time>
      </trkpt>
      <trkpt lat="46.48319" lon="5.39375">
        <ele>442</ele>
        <time>2022-07-23T15:29:47Z</time>
      </trkpt>
      <trkpt lat="46.48326" lon="5.39361">
        <ele>441.4</ele>
        <time>2022-07-23T15:29:48Z</time>
      </trkpt>
      <trkpt lat="46.48333" lon="5.39348">
        <ele>441.2</ele>
        <time>2022-07-23T15:29:49Z</time>
      </trkpt>
      <trkpt lat="46.4834" lon="5.39337">
        <ele>439.6</ele>
        <time>2022-07-23T15:29:50Z</time>
      </trkpt>
      <trkpt lat="46.48348" lon="5.39328">
        <ele>438.6</ele>
        <time>2022-07-23T15:29:51Z</time>
      </trkpt>
      <trkpt lat="46.48357" lon="5.39321">
        <ele>438.2</ele>
        <time>2022-07-23T15:29:52Z</time>
      </trkpt>
      <trkpt lat="46.48367" lon="5.39317">
        <ele>437.4</ele>
        <time>2022-07-23T15:29:53Z</time>
      </trkpt>
      <trkpt lat="46.48377" lon="5.39316">
        <ele>436.8</ele>
        <time>2022-07-23T15:29:54Z</time>
      </trkpt>
      <trkpt lat="46.48388" lon="5.39317">
        <ele>435.6</ele>
        <time>2022-07-23T15:29:55Z</time>
      </trkpt>
      <trkpt lat="46.48413" lon="5.39322">
        <ele>433.4</ele>
        <time>2022-07-23T15:29:57Z</time>
      </trkpt>
      <trkpt lat="46.48425" lon="5.39322">
        <ele>432</ele>
        <time>2022-07-23T15:29:58Z</time>
      </trkpt>
      <trkpt lat="46.4845" lon="5.39315">
        <ele>430</ele>
        <time>2022-07-23T15:30:00Z</time>
      </trkpt>
      <trkpt lat="46.48476" lon="5.39309">
        <ele>427.4</ele>
        <time>2022-07-23T15:30:02Z</time>
      </trkpt>
      <trkpt lat="46.48489" lon="5.39307">
        <ele>426.8</ele>
        <time>2022-07-23T15:30:03Z</time>
      </trkpt>
      <trkpt lat="46.48502" lon="5.39304">
        <ele>425.6</ele>
        <time>2022-07-23T15:30:04Z</time>
      </trkpt>
      <trkpt lat="46.4853" lon="5.39296">
        <ele>424</ele>
        <time>2022-07-23T15:30:06Z</time>
      </trkpt>
      <trkpt lat="46.48558" lon="5.39291">
        <ele>422.4</ele>
        <time>2022-07-23T15:30:08Z</time>
      </trkpt>
      <trkpt lat="46.48573" lon="5.39289">
        <ele>420.2</ele>
        <time>2022-07-23T15:30:09Z</time>
      </trkpt>
      <trkpt lat="46.48602" lon="5.39284">
        <ele>418.2</ele>
        <time>2022-07-23T15:30:11Z</time>
      </trkpt>
      <trkpt lat="46.48616" lon="5.39281">
        <ele>417</ele>
        <time>2022-07-23T15:30:12Z</time>
      </trkpt>
      <trkpt lat="46.4863" lon="5.39279">
        <ele>416.4</ele>
        <time>2022-07-23T15:30:13Z</time>
      </trkpt>
      <trkpt lat="46.48643" lon="5.39279">
        <ele>415.2</ele>
        <time>2022-07-23T15:30:14Z</time>
      </trkpt>
      <trkpt lat="46.48656" lon="5.39279">
        <ele>414.6</ele>
        <time>2022-07-23T15:30:15Z</time>
      </trkpt>
      <trkpt lat="46.48669" lon="5.39281">
        <ele>412.6</ele>
        <time>2022-07-23T15:30:16Z</time>
      </trkpt>
      <trkpt lat="46.48693" lon="5.39289">
        <ele>410.4</ele>
        <time>2022-07-23T15:30:18Z</time>
      </trkpt>
      <trkpt lat="46.48704" lon="5.39295">
        <ele>409.2</ele>
        <time>2022-07-23T15:30:19Z</time>
      </trkpt>
      <trkpt lat="46.4873" lon="5.39308">
        <ele>407.6</ele>
        <time>2022-07-23T15:30:22Z</time>
      </trkpt>
      <trkpt lat="46.48737" lon="5.39304">
        <ele>406.6</ele>
        <time>2022-07-23T15:30:23Z</time>
      </trkpt>
      <trkpt lat="46.4874" lon="5.39296">
        <ele>406</ele>
        <time>2022-07-23T15:30:24Z</time>
      </trkpt>
      <trkpt lat="46.48741" lon="5.39286">
        <ele>405</ele>
        <time>2022-07-23T15:30:25Z</time>
      </trkpt>
      <trkpt lat="46.48736" lon="5.39275">
        <ele>404.4</ele>
        <time>2022-07-23T15:30:26Z</time>
      </trkpt>
      <trkpt lat="46.48726" lon="5.39263">
        <ele>403.8</ele>
        <time>2022-07-23T15:30:27Z</time>
      </trkpt>
      <trkpt lat="46.48718" lon="5.39252">
        <ele>402.6</ele>
        <time>2022-07-23T15:30:28Z</time>
      </trkpt>
      <trkpt lat="46.48708" lon="5.39239">
        <ele>402</ele>
        <time>2022-07-23T15:30:29Z</time>
      </trkpt>
      <trkpt lat="46.48698" lon="5.39227">
        <ele>401.2</ele>
        <time>2022-07-23T15:30:30Z</time>
      </trkpt>
      <trkpt lat="46.48679" lon="5.392">
        <ele>400</ele>
        <time>2022-07-23T15:30:32Z</time>
      </trkpt>
      <trkpt lat="46.48669" lon="5.39186">
        <ele>399</ele>
        <time>2022-07-23T15:30:33Z</time>
      </trkpt>
      <trkpt lat="46.48659" lon="5.39172">
        <ele>398</ele>
        <time>2022-07-23T15:30:34Z</time>
      </trkpt>
      <trkpt lat="46.48649" lon="5.39158">
        <ele>396.8</ele>
        <time>2022-07-23T15:30:35Z</time>
      </trkpt>
      <trkpt lat="46.48639" lon="5.39145">
        <ele>396.2</ele>
        <time>2022-07-23T15:30:36Z</time>
      </trkpt>
      <trkpt lat="46.48627" lon="5.39134">
        <ele>395.4</ele>
        <time>2022-07-23T15:30:37Z</time>
      </trkpt>
      <trkpt lat="46.48603" lon="5.39115">
        <ele>393</ele>
        <time>2022-07-23T15:30:39Z</time>
      </trkpt>
      <trkpt lat="46.4859" lon="5.39106">
        <ele>391.6</ele>
        <time>2022-07-23T15:30:40Z</time>
      </trkpt>
      <trkpt lat="46.48578" lon="5.39096">
        <ele>391</ele>
        <time>2022-07-23T15:30:41Z</time>
      </trkpt>
      <trkpt lat="46.48565" lon="5.39087">
        <ele>389</ele>
        <time>2022-07-23T15:30:42Z</time>
      </trkpt>
      <trkpt lat="46.48538" lon="5.39072">
        <ele>386.6</ele>
        <time>2022-07-23T15:30:44Z</time>
      </trkpt>
      <trkpt lat="46.48525" lon="5.39062">
        <ele>386.2</ele>
        <time>2022-07-23T15:30:45Z</time>
      </trkpt>
      <trkpt lat="46.48513" lon="5.39052">
        <ele>385.4</ele>
        <time>2022-07-23T15:30:46Z</time>
      </trkpt>
      <trkpt lat="46.48502" lon="5.39039">
        <ele>384.4</ele>
        <time>2022-07-23T15:30:47Z</time>
      </trkpt>
      <trkpt lat="46.48494" lon="5.39022">
        <ele>382.8</ele>
        <time>2022-07-23T15:30:48Z</time>
      </trkpt>
      <trkpt lat="46.48489" lon="5.39003">
        <ele>380.6</ele>
        <time>2022-07-23T15:30:49Z</time>
      </trkpt>
      <trkpt lat="46.48484" lon="5.38983">
        <ele>379.4</ele>
        <time>2022-07-23T15:30:50Z</time>
      </trkpt>
      <trkpt lat="46.48478" lon="5.38964">
        <ele>378</ele>
        <time>2022-07-23T15:30:51Z</time>
      </trkpt>
      <trkpt lat="46.48463" lon="5.38932">
        <ele>375.4</ele>
        <time>2022-07-23T15:30:53Z</time>
      </trkpt>
      <trkpt lat="46.48457" lon="5.38919">
        <ele>374</ele>
        <time>2022-07-23T15:30:54Z</time>
      </trkpt>
      <trkpt lat="46.48453" lon="5.38904">
        <ele>373.4</ele>
        <time>2022-07-23T15:30:55Z</time>
      </trkpt>
      <trkpt lat="46.48451" lon="5.38889">
        <ele>372.2</ele>
        <time>2022-07-23T15:30:56Z</time>
      </trkpt>
      <trkpt lat="46.48453" lon="5.38874">
        <ele>372</ele>
        <time>2022-07-23T15:30:57Z</time>
      </trkpt>
      <trkpt lat="46.48457" lon="5.38861">
        <ele>371.4</ele>
        <time>2022-07-23T15:30:58Z</time>
      </trkpt>
      <trkpt lat="46.48464" lon="5.3885">
        <ele>371</ele>
        <time>2022-07-23T15:30:59Z</time>
      </trkpt>
      <trkpt lat="46.48473" lon="5.38842">
        <ele>370.6</ele>
        <time>2022-07-23T15:31:00Z</time>
      </trkpt>
      <trkpt lat="46.48494" lon="5.38829">
        <ele>369.8</ele>
        <time>2022-07-23T15:31:02Z</time>
      </trkpt>
      <trkpt lat="46.48515" lon="5.38818">
        <ele>368.8</ele>
        <time>2022-07-23T15:31:04Z</time>
      </trkpt>
      <trkpt lat="46.48526" lon="5.38811">
        <ele>368.6</ele>
        <time>2022-07-23T15:31:05Z</time>
      </trkpt>
      <trkpt lat="46.48559" lon="5.38789">
        <ele>366.6</ele>
        <time>2022-07-23T15:31:08Z</time>
      </trkpt>
      <trkpt lat="46.48569" lon="5.38783">
        <ele>366.2</ele>
        <time>2022-07-23T15:31:09Z</time>
      </trkpt>
      <trkpt lat="46.48578" lon="5.38779">
        <ele>364.8</ele>
        <time>2022-07-23T15:31:10Z</time>
      </trkpt>
      <trkpt lat="46.48597" lon="5.38774">
        <ele>363.4</ele>
        <time>2022-07-23T15:31:12Z</time>
      </trkpt>
      <trkpt lat="46.4861" lon="5.38778">
        <ele>361.8</ele>
        <time>2022-07-23T15:31:14Z</time>
      </trkpt>
      <trkpt lat="46.48616" lon="5.38774">
        <ele>360.8</ele>
        <time>2022-07-23T15:31:15Z</time>
      </trkpt>
      <trkpt lat="46.48626" lon="5.38757">
        <ele>359.4</ele>
        <time>2022-07-23T15:31:17Z</time>
      </trkpt>
      <trkpt lat="46.4863" lon="5.38746">
        <ele>359</ele>
        <time>2022-07-23T15:31:18Z</time>
      </trkpt>
      <trkpt lat="46.48634" lon="5.38734">
        <ele>358.4</ele>
        <time>2022-07-23T15:31:19Z</time>
      </trkpt>
      <trkpt lat="46.48638" lon="5.38722">
        <ele>358.2</ele>
        <time>2022-07-23T15:31:20Z</time>
      </trkpt>
      <trkpt lat="46.4864" lon="5.38709">
        <ele>356.6</ele>
        <time>2022-07-23T15:31:21Z</time>
      </trkpt>
      <trkpt lat="46.48641" lon="5.38694">
        <ele>355.6</ele>
        <time>2022-07-23T15:31:22Z</time>
      </trkpt>
      <trkpt lat="46.48641" lon="5.38665">
        <ele>354.2</ele>
        <time>2022-07-23T15:31:24Z</time>
      </trkpt>
      <trkpt lat="46.48638" lon="5.3865">
        <ele>353.8</ele>
        <time>2022-07-23T15:31:25Z</time>
      </trkpt>
      <trkpt lat="46.48632" lon="5.3862">
        <ele>353</ele>
        <time>2022-07-23T15:31:27Z</time>
      </trkpt>
      <trkpt lat="46.48624" lon="5.3859">
        <ele>352</ele>
        <time>2022-07-23T15:31:29Z</time>
      </trkpt>
      <trkpt lat="46.48619" lon="5.38575">
        <ele>351.6</ele>
        <time>2022-07-23T15:31:30Z</time>
      </trkpt>
      <trkpt lat="46.48611" lon="5.38544">
        <ele>350.6</ele>
        <time>2022-07-23T15:31:32Z</time>
      </trkpt>
      <trkpt lat="46.48602" lon="5.38512">
        <ele>349.4</ele>
        <time>2022-07-23T15:31:34Z</time>
      </trkpt>
      <trkpt lat="46.48597" lon="5.38497">
        <ele>348</ele>
        <time>2022-07-23T15:31:35Z</time>
      </trkpt>
    </trkseg>
  </trk>
</gpx>